<?xml version="1.0" encoding="UTF-8"?><gpx version="1.1" creator="Exported from Strava via extension e-ivanov.ru"  xsi:schemaLocation="http://www.topografix.com/GPX/1/1 http://www.topografix.com/GPX/1/1/gpx.xsd http://www.garmin.com/xmlschemas/GpxExtensions/v3 http://www.garmin.com/xmlschemas/GpxExtensionsv3.xsd http://www.garmin.com/xmlschemas/TrackPointExtension/v1 http://www.garmin.com/xmlschemas/TrackPointExtensionv1.xsd"  xmlns="http://www.topografix.com/GPX/1/1"  xmlns:gpxtpx="http://www.garmin.com/xmlschemas/TrackPointExtension/v1"  xmlns:gpxx="http://www.garmin.com/xmlschemas/GpxExtensions/v3" xmlns:xsi="http://www.w3.org/2001/XMLSchema-instance"><metadata><link href="http://e-ivanov.ru/projects/strava-export-gpx/"><text>Strava gpx export</text></link><time>2022-04-10T12:05:22.796Z</time></metadata><trk><name>RR/22 - 06 Amstenrade | Fietsrit | Strava</name><trkseg><trkpt lon="5.742897" lat="51.144756"><ele>28</ele><time>2022-04-10T06:30:00.000Z</time></trkpt><trkpt lon="5.742954" lat="51.144713"><ele>28</ele><time>2022-04-10T06:30:01.000Z</time></trkpt><trkpt lon="5.743004" lat="51.144682"><ele>28</ele><time>2022-04-10T06:30:02.000Z</time></trkpt><trkpt lon="5.743055" lat="51.144648"><ele>28</ele><time>2022-04-10T06:30:03.000Z</time></trkpt><trkpt lon="5.743105" lat="51.144617"><ele>28</ele><time>2022-04-10T06:30:04.000Z</time></trkpt><trkpt lon="5.743155" lat="51.144584"><ele>28</ele><time>2022-04-10T06:30:05.000Z</time></trkpt><trkpt lon="5.743209" lat="51.144553"><ele>28</ele><time>2022-04-10T06:30:06.000Z</time></trkpt><trkpt lon="5.743263" lat="51.144516"><ele>28</ele><time>2022-04-10T06:30:07.000Z</time></trkpt><trkpt lon="5.743315" lat="51.14448"><ele>28</ele><time>2022-04-10T06:30:08.000Z</time></trkpt><trkpt lon="5.74337" lat="51.144444"><ele>28</ele><time>2022-04-10T06:30:09.000Z</time></trkpt><trkpt lon="5.743426" lat="51.144408"><ele>28</ele><time>2022-04-10T06:30:10.000Z</time></trkpt><trkpt lon="5.74348" lat="51.144376"><ele>28</ele><time>2022-04-10T06:30:11.000Z</time></trkpt><trkpt lon="5.743531" lat="51.144342"><ele>28</ele><time>2022-04-10T06:30:12.000Z</time></trkpt><trkpt lon="5.743583" lat="51.144308"><ele>28</ele><time>2022-04-10T06:30:13.000Z</time></trkpt><trkpt lon="5.743633" lat="51.144273"><ele>28</ele><time>2022-04-10T06:30:14.000Z</time></trkpt><trkpt lon="5.743679" lat="51.144239"><ele>28</ele><time>2022-04-10T06:30:15.000Z</time></trkpt><trkpt lon="5.743721" lat="51.144205"><ele>28</ele><time>2022-04-10T06:30:16.000Z</time></trkpt><trkpt lon="5.743757" lat="51.144171"><ele>27.8</ele><time>2022-04-10T06:30:17.000Z</time></trkpt><trkpt lon="5.743783" lat="51.144135"><ele>27.8</ele><time>2022-04-10T06:30:18.000Z</time></trkpt><trkpt lon="5.743796" lat="51.144097"><ele>27.8</ele><time>2022-04-10T06:30:19.000Z</time></trkpt><trkpt lon="5.743798" lat="51.144059"><ele>27.8</ele><time>2022-04-10T06:30:20.000Z</time></trkpt><trkpt lon="5.7438" lat="51.144021"><ele>27.6</ele><time>2022-04-10T06:30:21.000Z</time></trkpt><trkpt lon="5.743814" lat="51.143983"><ele>27.4</ele><time>2022-04-10T06:30:22.000Z</time></trkpt><trkpt lon="5.743839" lat="51.143945"><ele>27.4</ele><time>2022-04-10T06:30:23.000Z</time></trkpt><trkpt lon="5.743875" lat="51.14391"><ele>27.4</ele><time>2022-04-10T06:30:24.000Z</time></trkpt><trkpt lon="5.743924" lat="51.143886"><ele>27.4</ele><time>2022-04-10T06:30:25.000Z</time></trkpt><trkpt lon="5.743983" lat="51.143872"><ele>27.4</ele><time>2022-04-10T06:30:26.000Z</time></trkpt><trkpt lon="5.74405" lat="51.143862"><ele>27.4</ele><time>2022-04-10T06:30:27.000Z</time></trkpt><trkpt lon="5.744122" lat="51.143853"><ele>27.4</ele><time>2022-04-10T06:30:28.000Z</time></trkpt><trkpt lon="5.744199" lat="51.14384"><ele>27.4</ele><time>2022-04-10T06:30:29.000Z</time></trkpt><trkpt lon="5.744276" lat="51.143823"><ele>27.4</ele><time>2022-04-10T06:30:30.000Z</time></trkpt><trkpt lon="5.744349" lat="51.143796"><ele>27.4</ele><time>2022-04-10T06:30:31.000Z</time></trkpt><trkpt lon="5.744416" lat="51.143758"><ele>27.2</ele><time>2022-04-10T06:30:32.000Z</time></trkpt><trkpt lon="5.744482" lat="51.143718"><ele>27.4</ele><time>2022-04-10T06:30:33.000Z</time></trkpt><trkpt lon="5.744546" lat="51.143676"><ele>27.4</ele><time>2022-04-10T06:30:34.000Z</time></trkpt><trkpt lon="5.744611" lat="51.143634"><ele>27.4</ele><time>2022-04-10T06:30:35.000Z</time></trkpt><trkpt lon="5.744677" lat="51.143592"><ele>27.4</ele><time>2022-04-10T06:30:36.000Z</time></trkpt><trkpt lon="5.744743" lat="51.143551"><ele>27.6</ele><time>2022-04-10T06:30:37.000Z</time></trkpt><trkpt lon="5.744808" lat="51.143509"><ele>27.6</ele><time>2022-04-10T06:30:38.000Z</time></trkpt><trkpt lon="5.744872" lat="51.143466"><ele>27.4</ele><time>2022-04-10T06:30:39.000Z</time></trkpt><trkpt lon="5.744935" lat="51.14342"><ele>27.4</ele><time>2022-04-10T06:30:40.000Z</time></trkpt><trkpt lon="5.745" lat="51.143375"><ele>27.4</ele><time>2022-04-10T06:30:41.000Z</time></trkpt><trkpt lon="5.745064" lat="51.143333"><ele>27.4</ele><time>2022-04-10T06:30:42.000Z</time></trkpt><trkpt lon="5.745129" lat="51.143292"><ele>27.4</ele><time>2022-04-10T06:30:43.000Z</time></trkpt><trkpt lon="5.745194" lat="51.143249"><ele>27.4</ele><time>2022-04-10T06:30:44.000Z</time></trkpt><trkpt lon="5.74526" lat="51.143203"><ele>27.4</ele><time>2022-04-10T06:30:45.000Z</time></trkpt><trkpt lon="5.745326" lat="51.143161"><ele>27.4</ele><time>2022-04-10T06:30:46.000Z</time></trkpt><trkpt lon="5.745394" lat="51.143119"><ele>27.4</ele><time>2022-04-10T06:30:47.000Z</time></trkpt><trkpt lon="5.74546" lat="51.143077"><ele>27.2</ele><time>2022-04-10T06:30:48.000Z</time></trkpt><trkpt lon="5.745526" lat="51.143034"><ele>27.2</ele><time>2022-04-10T06:30:49.000Z</time></trkpt><trkpt lon="5.74559" lat="51.142989"><ele>27.2</ele><time>2022-04-10T06:30:50.000Z</time></trkpt><trkpt lon="5.745655" lat="51.142946"><ele>27.2</ele><time>2022-04-10T06:30:51.000Z</time></trkpt><trkpt lon="5.745719" lat="51.142902"><ele>27.2</ele><time>2022-04-10T06:30:52.000Z</time></trkpt><trkpt lon="5.745786" lat="51.14286"><ele>27</ele><time>2022-04-10T06:30:53.000Z</time></trkpt><trkpt lon="5.745852" lat="51.142817"><ele>26.8</ele><time>2022-04-10T06:30:54.000Z</time></trkpt><trkpt lon="5.745919" lat="51.142771"><ele>26.8</ele><time>2022-04-10T06:30:55.000Z</time></trkpt><trkpt lon="5.745985" lat="51.142727"><ele>27</ele><time>2022-04-10T06:30:56.000Z</time></trkpt><trkpt lon="5.746051" lat="51.142683"><ele>26.8</ele><time>2022-04-10T06:30:57.000Z</time></trkpt><trkpt lon="5.746119" lat="51.142637"><ele>27</ele><time>2022-04-10T06:30:58.000Z</time></trkpt><trkpt lon="5.746186" lat="51.142592"><ele>27</ele><time>2022-04-10T06:30:59.000Z</time></trkpt><trkpt lon="5.746254" lat="51.142546"><ele>27</ele><time>2022-04-10T06:31:00.000Z</time></trkpt><trkpt lon="5.746322" lat="51.142501"><ele>27.2</ele><time>2022-04-10T06:31:01.000Z</time></trkpt><trkpt lon="5.746389" lat="51.142458"><ele>27.2</ele><time>2022-04-10T06:31:02.000Z</time></trkpt><trkpt lon="5.746457" lat="51.142412"><ele>27</ele><time>2022-04-10T06:31:03.000Z</time></trkpt><trkpt lon="5.746524" lat="51.142368"><ele>27</ele><time>2022-04-10T06:31:04.000Z</time></trkpt><trkpt lon="5.74659" lat="51.142325"><ele>27</ele><time>2022-04-10T06:31:05.000Z</time></trkpt><trkpt lon="5.746654" lat="51.14228"><ele>27</ele><time>2022-04-10T06:31:06.000Z</time></trkpt><trkpt lon="5.74672" lat="51.142233"><ele>27.2</ele><time>2022-04-10T06:31:07.000Z</time></trkpt><trkpt lon="5.746783" lat="51.142188"><ele>27.2</ele><time>2022-04-10T06:31:08.000Z</time></trkpt><trkpt lon="5.746847" lat="51.14214"><ele>27</ele><time>2022-04-10T06:31:09.000Z</time></trkpt><trkpt lon="5.746913" lat="51.142092"><ele>27</ele><time>2022-04-10T06:31:10.000Z</time></trkpt><trkpt lon="5.746979" lat="51.142047"><ele>27</ele><time>2022-04-10T06:31:11.000Z</time></trkpt><trkpt lon="5.747045" lat="51.142001"><ele>27</ele><time>2022-04-10T06:31:12.000Z</time></trkpt><trkpt lon="5.747114" lat="51.141955"><ele>26.8</ele><time>2022-04-10T06:31:13.000Z</time></trkpt><trkpt lon="5.747181" lat="51.14191"><ele>26.8</ele><time>2022-04-10T06:31:14.000Z</time></trkpt><trkpt lon="5.747247" lat="51.141867"><ele>26.8</ele><time>2022-04-10T06:31:15.000Z</time></trkpt><trkpt lon="5.747315" lat="51.141821"><ele>26.8</ele><time>2022-04-10T06:31:16.000Z</time></trkpt><trkpt lon="5.747383" lat="51.141775"><ele>26.8</ele><time>2022-04-10T06:31:17.000Z</time></trkpt><trkpt lon="5.747449" lat="51.14173"><ele>26.8</ele><time>2022-04-10T06:31:18.000Z</time></trkpt><trkpt lon="5.747515" lat="51.141684"><ele>27</ele><time>2022-04-10T06:31:19.000Z</time></trkpt><trkpt lon="5.747583" lat="51.141638"><ele>26.8</ele><time>2022-04-10T06:31:20.000Z</time></trkpt><trkpt lon="5.74765" lat="51.141592"><ele>26.8</ele><time>2022-04-10T06:31:21.000Z</time></trkpt><trkpt lon="5.747719" lat="51.141546"><ele>26.8</ele><time>2022-04-10T06:31:22.000Z</time></trkpt><trkpt lon="5.747787" lat="51.141499"><ele>26.8</ele><time>2022-04-10T06:31:23.000Z</time></trkpt><trkpt lon="5.747857" lat="51.141456"><ele>26.8</ele><time>2022-04-10T06:31:24.000Z</time></trkpt><trkpt lon="5.747926" lat="51.141409"><ele>26.6</ele><time>2022-04-10T06:31:25.000Z</time></trkpt><trkpt lon="5.747993" lat="51.141364"><ele>26.6</ele><time>2022-04-10T06:31:26.000Z</time></trkpt><trkpt lon="5.748063" lat="51.141318"><ele>26.6</ele><time>2022-04-10T06:31:27.000Z</time></trkpt><trkpt lon="5.748132" lat="51.141272"><ele>26.6</ele><time>2022-04-10T06:31:28.000Z</time></trkpt><trkpt lon="5.748201" lat="51.141226"><ele>26.8</ele><time>2022-04-10T06:31:29.000Z</time></trkpt><trkpt lon="5.74827" lat="51.141181"><ele>26.8</ele><time>2022-04-10T06:31:30.000Z</time></trkpt><trkpt lon="5.748339" lat="51.141135"><ele>26.8</ele><time>2022-04-10T06:31:31.000Z</time></trkpt><trkpt lon="5.748407" lat="51.141088"><ele>26.8</ele><time>2022-04-10T06:31:32.000Z</time></trkpt><trkpt lon="5.748477" lat="51.14104"><ele>26.8</ele><time>2022-04-10T06:31:33.000Z</time></trkpt><trkpt lon="5.74855" lat="51.140992"><ele>26.8</ele><time>2022-04-10T06:31:34.000Z</time></trkpt><trkpt lon="5.748619" lat="51.140945"><ele>26.8</ele><time>2022-04-10T06:31:35.000Z</time></trkpt><trkpt lon="5.748689" lat="51.140902"><ele>26.8</ele><time>2022-04-10T06:31:36.000Z</time></trkpt><trkpt lon="5.748763" lat="51.140857"><ele>26.8</ele><time>2022-04-10T06:31:37.000Z</time></trkpt><trkpt lon="5.748838" lat="51.140816"><ele>26.8</ele><time>2022-04-10T06:31:38.000Z</time></trkpt><trkpt lon="5.748914" lat="51.140772"><ele>26.8</ele><time>2022-04-10T06:31:39.000Z</time></trkpt><trkpt lon="5.748986" lat="51.140727"><ele>26.6</ele><time>2022-04-10T06:31:40.000Z</time></trkpt><trkpt lon="5.749059" lat="51.140681"><ele>26.6</ele><time>2022-04-10T06:31:41.000Z</time></trkpt><trkpt lon="5.74913" lat="51.140634"><ele>26.4</ele><time>2022-04-10T06:31:42.000Z</time></trkpt><trkpt lon="5.749199" lat="51.140585"><ele>26.2</ele><time>2022-04-10T06:31:43.000Z</time></trkpt><trkpt lon="5.749265" lat="51.140538"><ele>26.2</ele><time>2022-04-10T06:31:44.000Z</time></trkpt><trkpt lon="5.749327" lat="51.140489"><ele>26.2</ele><time>2022-04-10T06:31:45.000Z</time></trkpt><trkpt lon="5.749386" lat="51.140438"><ele>26.2</ele><time>2022-04-10T06:31:46.000Z</time></trkpt><trkpt lon="5.749452" lat="51.140387"><ele>26.2</ele><time>2022-04-10T06:31:47.000Z</time></trkpt><trkpt lon="5.749522" lat="51.14034"><ele>26.2</ele><time>2022-04-10T06:31:48.000Z</time></trkpt><trkpt lon="5.749594" lat="51.140291"><ele>26.4</ele><time>2022-04-10T06:31:49.000Z</time></trkpt><trkpt lon="5.749667" lat="51.140242"><ele>26.4</ele><time>2022-04-10T06:31:50.000Z</time></trkpt><trkpt lon="5.74974" lat="51.140197"><ele>26.4</ele><time>2022-04-10T06:31:51.000Z</time></trkpt><trkpt lon="5.749811" lat="51.14015"><ele>26.2</ele><time>2022-04-10T06:31:52.000Z</time></trkpt><trkpt lon="5.749883" lat="51.1401"><ele>26.2</ele><time>2022-04-10T06:31:53.000Z</time></trkpt><trkpt lon="5.749954" lat="51.140052"><ele>26.2</ele><time>2022-04-10T06:31:54.000Z</time></trkpt><trkpt lon="5.750024" lat="51.140006"><ele>26.2</ele><time>2022-04-10T06:31:55.000Z</time></trkpt><trkpt lon="5.750096" lat="51.13996"><ele>26.2</ele><time>2022-04-10T06:31:56.000Z</time></trkpt><trkpt lon="5.750168" lat="51.13991"><ele>26</ele><time>2022-04-10T06:31:57.000Z</time></trkpt><trkpt lon="5.750238" lat="51.139864"><ele>26.2</ele><time>2022-04-10T06:31:58.000Z</time></trkpt><trkpt lon="5.750307" lat="51.139819"><ele>26.2</ele><time>2022-04-10T06:31:59.000Z</time></trkpt><trkpt lon="5.750376" lat="51.139773"><ele>26.4</ele><time>2022-04-10T06:32:00.000Z</time></trkpt><trkpt lon="5.750446" lat="51.139726"><ele>26.4</ele><time>2022-04-10T06:32:01.000Z</time></trkpt><trkpt lon="5.750515" lat="51.139678"><ele>26.4</ele><time>2022-04-10T06:32:02.000Z</time></trkpt><trkpt lon="5.750582" lat="51.139632"><ele>26.2</ele><time>2022-04-10T06:32:03.000Z</time></trkpt><trkpt lon="5.75065" lat="51.139584"><ele>26.4</ele><time>2022-04-10T06:32:04.000Z</time></trkpt><trkpt lon="5.750723" lat="51.13954"><ele>26.4</ele><time>2022-04-10T06:32:05.000Z</time></trkpt><trkpt lon="5.750793" lat="51.139491"><ele>26.6</ele><time>2022-04-10T06:32:06.000Z</time></trkpt><trkpt lon="5.750863" lat="51.139445"><ele>26.6</ele><time>2022-04-10T06:32:07.000Z</time></trkpt><trkpt lon="5.750933" lat="51.139398"><ele>26.6</ele><time>2022-04-10T06:32:08.000Z</time></trkpt><trkpt lon="5.751005" lat="51.139349"><ele>26.6</ele><time>2022-04-10T06:32:09.000Z</time></trkpt><trkpt lon="5.751075" lat="51.139303"><ele>26.6</ele><time>2022-04-10T06:32:10.000Z</time></trkpt><trkpt lon="5.751147" lat="51.139258"><ele>26.6</ele><time>2022-04-10T06:32:11.000Z</time></trkpt><trkpt lon="5.751217" lat="51.139211"><ele>26.6</ele><time>2022-04-10T06:32:12.000Z</time></trkpt><trkpt lon="5.751288" lat="51.139162"><ele>26.6</ele><time>2022-04-10T06:32:13.000Z</time></trkpt><trkpt lon="5.751356" lat="51.139116"><ele>26.8</ele><time>2022-04-10T06:32:14.000Z</time></trkpt><trkpt lon="5.751424" lat="51.139068"><ele>26.8</ele><time>2022-04-10T06:32:15.000Z</time></trkpt><trkpt lon="5.751494" lat="51.139022"><ele>26.8</ele><time>2022-04-10T06:32:16.000Z</time></trkpt><trkpt lon="5.751564" lat="51.138976"><ele>27</ele><time>2022-04-10T06:32:17.000Z</time></trkpt><trkpt lon="5.751633" lat="51.138929"><ele>27</ele><time>2022-04-10T06:32:18.000Z</time></trkpt><trkpt lon="5.751703" lat="51.13888"><ele>27</ele><time>2022-04-10T06:32:19.000Z</time></trkpt><trkpt lon="5.751773" lat="51.138834"><ele>26.8</ele><time>2022-04-10T06:32:20.000Z</time></trkpt><trkpt lon="5.751843" lat="51.138787"><ele>26.6</ele><time>2022-04-10T06:32:21.000Z</time></trkpt><trkpt lon="5.751913" lat="51.138739"><ele>26.4</ele><time>2022-04-10T06:32:22.000Z</time></trkpt><trkpt lon="5.751983" lat="51.138693"><ele>26.4</ele><time>2022-04-10T06:32:23.000Z</time></trkpt><trkpt lon="5.752052" lat="51.138648"><ele>26.2</ele><time>2022-04-10T06:32:24.000Z</time></trkpt><trkpt lon="5.75212" lat="51.138602"><ele>26.4</ele><time>2022-04-10T06:32:25.000Z</time></trkpt><trkpt lon="5.75219" lat="51.138553"><ele>26.4</ele><time>2022-04-10T06:32:26.000Z</time></trkpt><trkpt lon="5.752261" lat="51.138506"><ele>26.6</ele><time>2022-04-10T06:32:27.000Z</time></trkpt><trkpt lon="5.752332" lat="51.13846"><ele>26.6</ele><time>2022-04-10T06:32:28.000Z</time></trkpt><trkpt lon="5.752404" lat="51.138414"><ele>26.6</ele><time>2022-04-10T06:32:29.000Z</time></trkpt><trkpt lon="5.752476" lat="51.138365"><ele>26.6</ele><time>2022-04-10T06:32:30.000Z</time></trkpt><trkpt lon="5.752547" lat="51.138319"><ele>26.6</ele><time>2022-04-10T06:32:31.000Z</time></trkpt><trkpt lon="5.752617" lat="51.138272"><ele>26.6</ele><time>2022-04-10T06:32:32.000Z</time></trkpt><trkpt lon="5.752689" lat="51.138224"><ele>26.6</ele><time>2022-04-10T06:32:33.000Z</time></trkpt><trkpt lon="5.752761" lat="51.138177"><ele>26.4</ele><time>2022-04-10T06:32:34.000Z</time></trkpt><trkpt lon="5.752834" lat="51.138129"><ele>26.2</ele><time>2022-04-10T06:32:35.000Z</time></trkpt><trkpt lon="5.752905" lat="51.138083"><ele>26.4</ele><time>2022-04-10T06:32:36.000Z</time></trkpt><trkpt lon="5.752977" lat="51.138036"><ele>26.4</ele><time>2022-04-10T06:32:37.000Z</time></trkpt><trkpt lon="5.753048" lat="51.137988"><ele>26.4</ele><time>2022-04-10T06:32:38.000Z</time></trkpt><trkpt lon="5.753121" lat="51.13794"><ele>26.4</ele><time>2022-04-10T06:32:39.000Z</time></trkpt><trkpt lon="5.753193" lat="51.137892"><ele>26.4</ele><time>2022-04-10T06:32:40.000Z</time></trkpt><trkpt lon="5.753263" lat="51.137846"><ele>26.4</ele><time>2022-04-10T06:32:41.000Z</time></trkpt><trkpt lon="5.753333" lat="51.137801"><ele>26.4</ele><time>2022-04-10T06:32:42.000Z</time></trkpt><trkpt lon="5.753403" lat="51.137754"><ele>26.4</ele><time>2022-04-10T06:32:43.000Z</time></trkpt><trkpt lon="5.753474" lat="51.137706"><ele>26.4</ele><time>2022-04-10T06:32:44.000Z</time></trkpt><trkpt lon="5.753549" lat="51.137664"><ele>26.4</ele><time>2022-04-10T06:32:45.000Z</time></trkpt><trkpt lon="5.753626" lat="51.137623"><ele>26.4</ele><time>2022-04-10T06:32:46.000Z</time></trkpt><trkpt lon="5.753705" lat="51.137584"><ele>26.6</ele><time>2022-04-10T06:32:47.000Z</time></trkpt><trkpt lon="5.75378" lat="51.137541"><ele>26.6</ele><time>2022-04-10T06:32:48.000Z</time></trkpt><trkpt lon="5.753851" lat="51.137496"><ele>26.6</ele><time>2022-04-10T06:32:49.000Z</time></trkpt><trkpt lon="5.753921" lat="51.13745"><ele>26.6</ele><time>2022-04-10T06:32:50.000Z</time></trkpt><trkpt lon="5.75399" lat="51.137403"><ele>26.8</ele><time>2022-04-10T06:32:51.000Z</time></trkpt><trkpt lon="5.75406" lat="51.137354"><ele>27</ele><time>2022-04-10T06:32:52.000Z</time></trkpt><trkpt lon="5.75413" lat="51.137308"><ele>27</ele><time>2022-04-10T06:32:53.000Z</time></trkpt><trkpt lon="5.754201" lat="51.137259"><ele>27</ele><time>2022-04-10T06:32:54.000Z</time></trkpt><trkpt lon="5.754271" lat="51.137213"><ele>27</ele><time>2022-04-10T06:32:55.000Z</time></trkpt><trkpt lon="5.754341" lat="51.137167"><ele>26.8</ele><time>2022-04-10T06:32:56.000Z</time></trkpt><trkpt lon="5.754411" lat="51.137122"><ele>26.6</ele><time>2022-04-10T06:32:57.000Z</time></trkpt><trkpt lon="5.754479" lat="51.137076"><ele>26.6</ele><time>2022-04-10T06:32:58.000Z</time></trkpt><trkpt lon="5.754548" lat="51.13703"><ele>26.6</ele><time>2022-04-10T06:32:59.000Z</time></trkpt><trkpt lon="5.754616" lat="51.136985"><ele>26.8</ele><time>2022-04-10T06:33:00.000Z</time></trkpt><trkpt lon="5.754686" lat="51.136941"><ele>26.8</ele><time>2022-04-10T06:33:01.000Z</time></trkpt><trkpt lon="5.754757" lat="51.136896"><ele>27</ele><time>2022-04-10T06:33:02.000Z</time></trkpt><trkpt lon="5.754827" lat="51.136848"><ele>27</ele><time>2022-04-10T06:33:03.000Z</time></trkpt><trkpt lon="5.754895" lat="51.136805"><ele>27.2</ele><time>2022-04-10T06:33:04.000Z</time></trkpt><trkpt lon="5.754963" lat="51.13676"><ele>27.2</ele><time>2022-04-10T06:33:05.000Z</time></trkpt><trkpt lon="5.755033" lat="51.136713"><ele>27.2</ele><time>2022-04-10T06:33:06.000Z</time></trkpt><trkpt lon="5.755101" lat="51.136667"><ele>27.2</ele><time>2022-04-10T06:33:07.000Z</time></trkpt><trkpt lon="5.755169" lat="51.136622"><ele>27.2</ele><time>2022-04-10T06:33:08.000Z</time></trkpt><trkpt lon="5.755239" lat="51.136576"><ele>27</ele><time>2022-04-10T06:33:09.000Z</time></trkpt><trkpt lon="5.755308" lat="51.13653"><ele>27</ele><time>2022-04-10T06:33:10.000Z</time></trkpt><trkpt lon="5.755378" lat="51.136485"><ele>26.8</ele><time>2022-04-10T06:33:11.000Z</time></trkpt><trkpt lon="5.755447" lat="51.136439"><ele>26.8</ele><time>2022-04-10T06:33:12.000Z</time></trkpt><trkpt lon="5.755516" lat="51.136393"><ele>26.8</ele><time>2022-04-10T06:33:13.000Z</time></trkpt><trkpt lon="5.755585" lat="51.136346"><ele>26.8</ele><time>2022-04-10T06:33:14.000Z</time></trkpt><trkpt lon="5.755653" lat="51.136297"><ele>26.8</ele><time>2022-04-10T06:33:15.000Z</time></trkpt><trkpt lon="5.755722" lat="51.136252"><ele>27</ele><time>2022-04-10T06:33:16.000Z</time></trkpt><trkpt lon="5.755791" lat="51.136206"><ele>27</ele><time>2022-04-10T06:33:17.000Z</time></trkpt><trkpt lon="5.755859" lat="51.136159"><ele>27.2</ele><time>2022-04-10T06:33:18.000Z</time></trkpt><trkpt lon="5.755928" lat="51.136111"><ele>27.2</ele><time>2022-04-10T06:33:19.000Z</time></trkpt><trkpt lon="5.755997" lat="51.136066"><ele>27</ele><time>2022-04-10T06:33:20.000Z</time></trkpt><trkpt lon="5.756071" lat="51.136019"><ele>27</ele><time>2022-04-10T06:33:21.000Z</time></trkpt><trkpt lon="5.756142" lat="51.135972"><ele>27</ele><time>2022-04-10T06:33:22.000Z</time></trkpt><trkpt lon="5.756211" lat="51.135925"><ele>27.2</ele><time>2022-04-10T06:33:23.000Z</time></trkpt><trkpt lon="5.756279" lat="51.135882"><ele>27.2</ele><time>2022-04-10T06:33:24.000Z</time></trkpt><trkpt lon="5.756348" lat="51.135836"><ele>27.2</ele><time>2022-04-10T06:33:25.000Z</time></trkpt><trkpt lon="5.756418" lat="51.135792"><ele>27</ele><time>2022-04-10T06:33:26.000Z</time></trkpt><trkpt lon="5.756489" lat="51.135752"><ele>27</ele><time>2022-04-10T06:33:27.000Z</time></trkpt><trkpt lon="5.756562" lat="51.135708"><ele>27</ele><time>2022-04-10T06:33:28.000Z</time></trkpt><trkpt lon="5.756636" lat="51.135666"><ele>26.8</ele><time>2022-04-10T06:33:29.000Z</time></trkpt><trkpt lon="5.756713" lat="51.135623"><ele>26.6</ele><time>2022-04-10T06:33:30.000Z</time></trkpt><trkpt lon="5.756788" lat="51.13558"><ele>26.4</ele><time>2022-04-10T06:33:31.000Z</time></trkpt><trkpt lon="5.756861" lat="51.135535"><ele>26.4</ele><time>2022-04-10T06:33:32.000Z</time></trkpt><trkpt lon="5.756936" lat="51.135489"><ele>26.6</ele><time>2022-04-10T06:33:33.000Z</time></trkpt><trkpt lon="5.757008" lat="51.135443"><ele>26.6</ele><time>2022-04-10T06:33:34.000Z</time></trkpt><trkpt lon="5.757078" lat="51.135399"><ele>26.6</ele><time>2022-04-10T06:33:35.000Z</time></trkpt><trkpt lon="5.757147" lat="51.135354"><ele>26.6</ele><time>2022-04-10T06:33:36.000Z</time></trkpt><trkpt lon="5.757213" lat="51.135307"><ele>26.6</ele><time>2022-04-10T06:33:37.000Z</time></trkpt><trkpt lon="5.757278" lat="51.135264"><ele>26.8</ele><time>2022-04-10T06:33:38.000Z</time></trkpt><trkpt lon="5.757343" lat="51.13522"><ele>26.8</ele><time>2022-04-10T06:33:39.000Z</time></trkpt><trkpt lon="5.757411" lat="51.135181"><ele>26.8</ele><time>2022-04-10T06:33:40.000Z</time></trkpt><trkpt lon="5.757488" lat="51.135152"><ele>26.8</ele><time>2022-04-10T06:33:41.000Z</time></trkpt><trkpt lon="5.757571" lat="51.135135"><ele>27</ele><time>2022-04-10T06:33:42.000Z</time></trkpt><trkpt lon="5.757659" lat="51.135134"><ele>27</ele><time>2022-04-10T06:33:43.000Z</time></trkpt><trkpt lon="5.75775" lat="51.135145"><ele>27.2</ele><time>2022-04-10T06:33:44.000Z</time></trkpt><trkpt lon="5.757845" lat="51.135162"><ele>27.2</ele><time>2022-04-10T06:33:45.000Z</time></trkpt><trkpt lon="5.757943" lat="51.135169"><ele>27</ele><time>2022-04-10T06:33:46.000Z</time></trkpt><trkpt lon="5.75804" lat="51.13516"><ele>26.8</ele><time>2022-04-10T06:33:47.000Z</time></trkpt><trkpt lon="5.758138" lat="51.135136"><ele>26.8</ele><time>2022-04-10T06:33:48.000Z</time></trkpt><trkpt lon="5.758239" lat="51.13511"><ele>26.8</ele><time>2022-04-10T06:33:49.000Z</time></trkpt><trkpt lon="5.75834" lat="51.135086"><ele>26.8</ele><time>2022-04-10T06:33:50.000Z</time></trkpt><trkpt lon="5.75844" lat="51.13506"><ele>26.8</ele><time>2022-04-10T06:33:51.000Z</time></trkpt><trkpt lon="5.75854" lat="51.135033"><ele>26.8</ele><time>2022-04-10T06:33:52.000Z</time></trkpt><trkpt lon="5.758643" lat="51.135006"><ele>26.8</ele><time>2022-04-10T06:33:53.000Z</time></trkpt><trkpt lon="5.758743" lat="51.13498"><ele>26.8</ele><time>2022-04-10T06:33:54.000Z</time></trkpt><trkpt lon="5.758843" lat="51.134957"><ele>26.8</ele><time>2022-04-10T06:33:55.000Z</time></trkpt><trkpt lon="5.758943" lat="51.13493"><ele>26.8</ele><time>2022-04-10T06:33:56.000Z</time></trkpt><trkpt lon="5.759044" lat="51.134903"><ele>26.6</ele><time>2022-04-10T06:33:57.000Z</time></trkpt><trkpt lon="5.759144" lat="51.134877"><ele>26.6</ele><time>2022-04-10T06:33:58.000Z</time></trkpt><trkpt lon="5.759242" lat="51.134854"><ele>26.6</ele><time>2022-04-10T06:33:59.000Z</time></trkpt><trkpt lon="5.759341" lat="51.134828"><ele>26.6</ele><time>2022-04-10T06:34:00.000Z</time></trkpt><trkpt lon="5.759439" lat="51.134804"><ele>26.6</ele><time>2022-04-10T06:34:01.000Z</time></trkpt><trkpt lon="5.759536" lat="51.134778"><ele>26.6</ele><time>2022-04-10T06:34:02.000Z</time></trkpt><trkpt lon="5.759634" lat="51.134754"><ele>26.6</ele><time>2022-04-10T06:34:03.000Z</time></trkpt><trkpt lon="5.759732" lat="51.134729"><ele>26.6</ele><time>2022-04-10T06:34:04.000Z</time></trkpt><trkpt lon="5.759829" lat="51.134706"><ele>26.6</ele><time>2022-04-10T06:34:05.000Z</time></trkpt><trkpt lon="5.759925" lat="51.134683"><ele>26.6</ele><time>2022-04-10T06:34:06.000Z</time></trkpt><trkpt lon="5.760023" lat="51.13466"><ele>26.4</ele><time>2022-04-10T06:34:07.000Z</time></trkpt><trkpt lon="5.760119" lat="51.134639"><ele>26.2</ele><time>2022-04-10T06:34:08.000Z</time></trkpt><trkpt lon="5.760216" lat="51.134623"><ele>26.2</ele><time>2022-04-10T06:34:09.000Z</time></trkpt><trkpt lon="5.760315" lat="51.134604"><ele>26.2</ele><time>2022-04-10T06:34:10.000Z</time></trkpt><trkpt lon="5.760413" lat="51.134586"><ele>26</ele><time>2022-04-10T06:34:11.000Z</time></trkpt><trkpt lon="5.760511" lat="51.134571"><ele>26.2</ele><time>2022-04-10T06:34:12.000Z</time></trkpt><trkpt lon="5.76061" lat="51.134555"><ele>26.4</ele><time>2022-04-10T06:34:13.000Z</time></trkpt><trkpt lon="5.760708" lat="51.134539"><ele>26.4</ele><time>2022-04-10T06:34:14.000Z</time></trkpt><trkpt lon="5.760805" lat="51.134521"><ele>26.6</ele><time>2022-04-10T06:34:15.000Z</time></trkpt><trkpt lon="5.760906" lat="51.134506"><ele>26.6</ele><time>2022-04-10T06:34:16.000Z</time></trkpt><trkpt lon="5.761004" lat="51.134492"><ele>26.6</ele><time>2022-04-10T06:34:17.000Z</time></trkpt><trkpt lon="5.761104" lat="51.134478"><ele>26.8</ele><time>2022-04-10T06:34:18.000Z</time></trkpt><trkpt lon="5.761202" lat="51.13446"><ele>26.8</ele><time>2022-04-10T06:34:19.000Z</time></trkpt><trkpt lon="5.761301" lat="51.134445"><ele>26.8</ele><time>2022-04-10T06:34:20.000Z</time></trkpt><trkpt lon="5.761399" lat="51.13443"><ele>26.8</ele><time>2022-04-10T06:34:21.000Z</time></trkpt><trkpt lon="5.7615" lat="51.134415"><ele>27</ele><time>2022-04-10T06:34:22.000Z</time></trkpt><trkpt lon="5.761599" lat="51.134403"><ele>27</ele><time>2022-04-10T06:34:23.000Z</time></trkpt><trkpt lon="5.761695" lat="51.134389"><ele>27</ele><time>2022-04-10T06:34:24.000Z</time></trkpt><trkpt lon="5.761794" lat="51.134376"><ele>27</ele><time>2022-04-10T06:34:25.000Z</time></trkpt><trkpt lon="5.761896" lat="51.134361"><ele>27</ele><time>2022-04-10T06:34:26.000Z</time></trkpt><trkpt lon="5.761999" lat="51.134345"><ele>27</ele><time>2022-04-10T06:34:27.000Z</time></trkpt><trkpt lon="5.7621" lat="51.134331"><ele>26.8</ele><time>2022-04-10T06:34:28.000Z</time></trkpt><trkpt lon="5.762199" lat="51.134319"><ele>26.8</ele><time>2022-04-10T06:34:29.000Z</time></trkpt><trkpt lon="5.7623" lat="51.134304"><ele>27</ele><time>2022-04-10T06:34:30.000Z</time></trkpt><trkpt lon="5.762401" lat="51.134289"><ele>27</ele><time>2022-04-10T06:34:31.000Z</time></trkpt><trkpt lon="5.762502" lat="51.134274"><ele>27</ele><time>2022-04-10T06:34:32.000Z</time></trkpt><trkpt lon="5.762607" lat="51.134262"><ele>27</ele><time>2022-04-10T06:34:33.000Z</time></trkpt><trkpt lon="5.762709" lat="51.134246"><ele>27.2</ele><time>2022-04-10T06:34:34.000Z</time></trkpt><trkpt lon="5.762812" lat="51.134231"><ele>27.2</ele><time>2022-04-10T06:34:35.000Z</time></trkpt><trkpt lon="5.762915" lat="51.134216"><ele>27.2</ele><time>2022-04-10T06:34:36.000Z</time></trkpt><trkpt lon="5.763019" lat="51.134201"><ele>27.2</ele><time>2022-04-10T06:34:37.000Z</time></trkpt><trkpt lon="5.763122" lat="51.134185"><ele>27</ele><time>2022-04-10T06:34:38.000Z</time></trkpt><trkpt lon="5.763224" lat="51.13417"><ele>27</ele><time>2022-04-10T06:34:39.000Z</time></trkpt><trkpt lon="5.763329" lat="51.134155"><ele>27</ele><time>2022-04-10T06:34:40.000Z</time></trkpt><trkpt lon="5.763432" lat="51.13414"><ele>27</ele><time>2022-04-10T06:34:41.000Z</time></trkpt><trkpt lon="5.763536" lat="51.134124"><ele>26.8</ele><time>2022-04-10T06:34:42.000Z</time></trkpt><trkpt lon="5.763639" lat="51.13411"><ele>26.8</ele><time>2022-04-10T06:34:43.000Z</time></trkpt><trkpt lon="5.763743" lat="51.134098"><ele>26.8</ele><time>2022-04-10T06:34:44.000Z</time></trkpt><trkpt lon="5.763849" lat="51.134084"><ele>26.6</ele><time>2022-04-10T06:34:45.000Z</time></trkpt><trkpt lon="5.763958" lat="51.134072"><ele>26.6</ele><time>2022-04-10T06:34:46.000Z</time></trkpt><trkpt lon="5.764063" lat="51.134063"><ele>26.4</ele><time>2022-04-10T06:34:47.000Z</time></trkpt><trkpt lon="5.76417" lat="51.134058"><ele>26.4</ele><time>2022-04-10T06:34:48.000Z</time></trkpt><trkpt lon="5.764279" lat="51.134051"><ele>26.2</ele><time>2022-04-10T06:34:49.000Z</time></trkpt><trkpt lon="5.764386" lat="51.134046"><ele>26.2</ele><time>2022-04-10T06:34:50.000Z</time></trkpt><trkpt lon="5.764492" lat="51.13404"><ele>26.2</ele><time>2022-04-10T06:34:51.000Z</time></trkpt><trkpt lon="5.764596" lat="51.134036"><ele>26.4</ele><time>2022-04-10T06:34:52.000Z</time></trkpt><trkpt lon="5.764696" lat="51.134032"><ele>26.6</ele><time>2022-04-10T06:34:53.000Z</time></trkpt><trkpt lon="5.764802" lat="51.134028"><ele>26.8</ele><time>2022-04-10T06:34:54.000Z</time></trkpt><trkpt lon="5.764909" lat="51.134025"><ele>26.8</ele><time>2022-04-10T06:34:55.000Z</time></trkpt><trkpt lon="5.765012" lat="51.134021"><ele>27</ele><time>2022-04-10T06:34:56.000Z</time></trkpt><trkpt lon="5.765117" lat="51.134017"><ele>27</ele><time>2022-04-10T06:34:57.000Z</time></trkpt><trkpt lon="5.765222" lat="51.134013"><ele>27</ele><time>2022-04-10T06:34:58.000Z</time></trkpt><trkpt lon="5.76533" lat="51.134009"><ele>27</ele><time>2022-04-10T06:34:59.000Z</time></trkpt><trkpt lon="5.765437" lat="51.134006"><ele>27</ele><time>2022-04-10T06:35:00.000Z</time></trkpt><trkpt lon="5.765545" lat="51.134005"><ele>26.8</ele><time>2022-04-10T06:35:01.000Z</time></trkpt><trkpt lon="5.765651" lat="51.134002"><ele>26.8</ele><time>2022-04-10T06:35:02.000Z</time></trkpt><trkpt lon="5.765757" lat="51.133998"><ele>26.8</ele><time>2022-04-10T06:35:03.000Z</time></trkpt><trkpt lon="5.765867" lat="51.133994"><ele>26.8</ele><time>2022-04-10T06:35:04.000Z</time></trkpt><trkpt lon="5.765974" lat="51.13399"><ele>26.8</ele><time>2022-04-10T06:35:05.000Z</time></trkpt><trkpt lon="5.766082" lat="51.133985"><ele>26.8</ele><time>2022-04-10T06:35:06.000Z</time></trkpt><trkpt lon="5.766189" lat="51.13398"><ele>26.8</ele><time>2022-04-10T06:35:07.000Z</time></trkpt><trkpt lon="5.766295" lat="51.133979"><ele>26.8</ele><time>2022-04-10T06:35:08.000Z</time></trkpt><trkpt lon="5.766398" lat="51.133974"><ele>26.8</ele><time>2022-04-10T06:35:09.000Z</time></trkpt><trkpt lon="5.766504" lat="51.133968"><ele>26.8</ele><time>2022-04-10T06:35:10.000Z</time></trkpt><trkpt lon="5.766602" lat="51.133967"><ele>26.8</ele><time>2022-04-10T06:35:11.000Z</time></trkpt><trkpt lon="5.766698" lat="51.133963"><ele>26.8</ele><time>2022-04-10T06:35:12.000Z</time></trkpt><trkpt lon="5.766792" lat="51.13396"><ele>26.8</ele><time>2022-04-10T06:35:13.000Z</time></trkpt><trkpt lon="5.766885" lat="51.133957"><ele>26.8</ele><time>2022-04-10T06:35:14.000Z</time></trkpt><trkpt lon="5.766973" lat="51.133956"><ele>26.8</ele><time>2022-04-10T06:35:15.000Z</time></trkpt><trkpt lon="5.767055" lat="51.133949"><ele>26.8</ele><time>2022-04-10T06:35:16.000Z</time></trkpt><trkpt lon="5.767129" lat="51.133929"><ele>26.6</ele><time>2022-04-10T06:35:17.000Z</time></trkpt><trkpt lon="5.767184" lat="51.13389"><ele>26.4</ele><time>2022-04-10T06:35:18.000Z</time></trkpt><trkpt lon="5.767211" lat="51.13384"><ele>26.2</ele><time>2022-04-10T06:35:19.000Z</time></trkpt><trkpt lon="5.767223" lat="51.133784"><ele>26.2</ele><time>2022-04-10T06:35:20.000Z</time></trkpt><trkpt lon="5.76723" lat="51.13372"><ele>26</ele><time>2022-04-10T06:35:21.000Z</time></trkpt><trkpt lon="5.767239" lat="51.133657"><ele>25.8</ele><time>2022-04-10T06:35:22.000Z</time></trkpt><trkpt lon="5.767248" lat="51.133591"><ele>25.8</ele><time>2022-04-10T06:35:23.000Z</time></trkpt><trkpt lon="5.767258" lat="51.133526"><ele>25.8</ele><time>2022-04-10T06:35:24.000Z</time></trkpt><trkpt lon="5.76727" lat="51.133458"><ele>25.8</ele><time>2022-04-10T06:35:25.000Z</time></trkpt><trkpt lon="5.767284" lat="51.133392"><ele>25.6</ele><time>2022-04-10T06:35:26.000Z</time></trkpt><trkpt lon="5.767298" lat="51.13332"><ele>25.6</ele><time>2022-04-10T06:35:27.000Z</time></trkpt><trkpt lon="5.767312" lat="51.133253"><ele>25.4</ele><time>2022-04-10T06:35:28.000Z</time></trkpt><trkpt lon="5.767325" lat="51.133181"><ele>25.4</ele><time>2022-04-10T06:35:29.000Z</time></trkpt><trkpt lon="5.767337" lat="51.13311"><ele>25.2</ele><time>2022-04-10T06:35:30.000Z</time></trkpt><trkpt lon="5.767349" lat="51.133041"><ele>25</ele><time>2022-04-10T06:35:31.000Z</time></trkpt><trkpt lon="5.767361" lat="51.132974"><ele>25</ele><time>2022-04-10T06:35:32.000Z</time></trkpt><trkpt lon="5.767371" lat="51.132908"><ele>25</ele><time>2022-04-10T06:35:33.000Z</time></trkpt><trkpt lon="5.76738" lat="51.13284"><ele>24.8</ele><time>2022-04-10T06:35:34.000Z</time></trkpt><trkpt lon="5.76739" lat="51.132774"><ele>24.8</ele><time>2022-04-10T06:35:35.000Z</time></trkpt><trkpt lon="5.767402" lat="51.132706"><ele>24.8</ele><time>2022-04-10T06:35:36.000Z</time></trkpt><trkpt lon="5.767415" lat="51.132637"><ele>24.8</ele><time>2022-04-10T06:35:37.000Z</time></trkpt><trkpt lon="5.767427" lat="51.132568"><ele>24.8</ele><time>2022-04-10T06:35:38.000Z</time></trkpt><trkpt lon="5.767442" lat="51.132501"><ele>24.8</ele><time>2022-04-10T06:35:39.000Z</time></trkpt><trkpt lon="5.767463" lat="51.132436"><ele>24.6</ele><time>2022-04-10T06:35:40.000Z</time></trkpt><trkpt lon="5.767487" lat="51.132371"><ele>24.6</ele><time>2022-04-10T06:35:41.000Z</time></trkpt><trkpt lon="5.767515" lat="51.132306"><ele>24.6</ele><time>2022-04-10T06:35:42.000Z</time></trkpt><trkpt lon="5.767542" lat="51.132243"><ele>24.6</ele><time>2022-04-10T06:35:43.000Z</time></trkpt><trkpt lon="5.767568" lat="51.13218"><ele>24.8</ele><time>2022-04-10T06:35:44.000Z</time></trkpt><trkpt lon="5.767592" lat="51.132116"><ele>24.8</ele><time>2022-04-10T06:35:45.000Z</time></trkpt><trkpt lon="5.767616" lat="51.132055"><ele>24.8</ele><time>2022-04-10T06:35:46.000Z</time></trkpt><trkpt lon="5.767642" lat="51.131994"><ele>24.8</ele><time>2022-04-10T06:35:47.000Z</time></trkpt><trkpt lon="5.76767" lat="51.131929"><ele>24.8</ele><time>2022-04-10T06:35:48.000Z</time></trkpt><trkpt lon="5.767698" lat="51.131867"><ele>24.8</ele><time>2022-04-10T06:35:49.000Z</time></trkpt><trkpt lon="5.767727" lat="51.131802"><ele>24.8</ele><time>2022-04-10T06:35:50.000Z</time></trkpt><trkpt lon="5.767758" lat="51.131739"><ele>24.8</ele><time>2022-04-10T06:35:51.000Z</time></trkpt><trkpt lon="5.767791" lat="51.131677"><ele>24.8</ele><time>2022-04-10T06:35:52.000Z</time></trkpt><trkpt lon="5.767826" lat="51.131613"><ele>24.8</ele><time>2022-04-10T06:35:53.000Z</time></trkpt><trkpt lon="5.767863" lat="51.131551"><ele>24.8</ele><time>2022-04-10T06:35:54.000Z</time></trkpt><trkpt lon="5.767899" lat="51.13149"><ele>24.8</ele><time>2022-04-10T06:35:55.000Z</time></trkpt><trkpt lon="5.767934" lat="51.131429"><ele>24.8</ele><time>2022-04-10T06:35:56.000Z</time></trkpt><trkpt lon="5.76797" lat="51.131368"><ele>24.8</ele><time>2022-04-10T06:35:57.000Z</time></trkpt><trkpt lon="5.768004" lat="51.131307"><ele>24.8</ele><time>2022-04-10T06:35:58.000Z</time></trkpt><trkpt lon="5.768037" lat="51.131246"><ele>24.8</ele><time>2022-04-10T06:35:59.000Z</time></trkpt><trkpt lon="5.768067" lat="51.131185"><ele>24.8</ele><time>2022-04-10T06:36:00.000Z</time></trkpt><trkpt lon="5.768096" lat="51.131125"><ele>25</ele><time>2022-04-10T06:36:01.000Z</time></trkpt><trkpt lon="5.768124" lat="51.131064"><ele>25.2</ele><time>2022-04-10T06:36:02.000Z</time></trkpt><trkpt lon="5.768152" lat="51.131003"><ele>25.2</ele><time>2022-04-10T06:36:03.000Z</time></trkpt><trkpt lon="5.768179" lat="51.13094"><ele>25.2</ele><time>2022-04-10T06:36:04.000Z</time></trkpt><trkpt lon="5.768204" lat="51.130876"><ele>25.2</ele><time>2022-04-10T06:36:05.000Z</time></trkpt><trkpt lon="5.768228" lat="51.130815"><ele>25</ele><time>2022-04-10T06:36:06.000Z</time></trkpt><trkpt lon="5.768249" lat="51.13075"><ele>25</ele><time>2022-04-10T06:36:07.000Z</time></trkpt><trkpt lon="5.76827" lat="51.130684"><ele>25</ele><time>2022-04-10T06:36:08.000Z</time></trkpt><trkpt lon="5.768289" lat="51.130619"><ele>25</ele><time>2022-04-10T06:36:09.000Z</time></trkpt><trkpt lon="5.768306" lat="51.130556"><ele>25</ele><time>2022-04-10T06:36:10.000Z</time></trkpt><trkpt lon="5.768323" lat="51.130494"><ele>25</ele><time>2022-04-10T06:36:11.000Z</time></trkpt><trkpt lon="5.768341" lat="51.13043"><ele>25</ele><time>2022-04-10T06:36:12.000Z</time></trkpt><trkpt lon="5.768358" lat="51.130368"><ele>25</ele><time>2022-04-10T06:36:13.000Z</time></trkpt><trkpt lon="5.768375" lat="51.130303"><ele>25</ele><time>2022-04-10T06:36:14.000Z</time></trkpt><trkpt lon="5.768392" lat="51.130239"><ele>24.8</ele><time>2022-04-10T06:36:15.000Z</time></trkpt><trkpt lon="5.768408" lat="51.130179"><ele>25</ele><time>2022-04-10T06:36:16.000Z</time></trkpt><trkpt lon="5.768423" lat="51.130117"><ele>25</ele><time>2022-04-10T06:36:17.000Z</time></trkpt><trkpt lon="5.768442" lat="51.130052"><ele>24.8</ele><time>2022-04-10T06:36:18.000Z</time></trkpt><trkpt lon="5.768462" lat="51.129986"><ele>24.8</ele><time>2022-04-10T06:36:19.000Z</time></trkpt><trkpt lon="5.768482" lat="51.129922"><ele>24.6</ele><time>2022-04-10T06:36:20.000Z</time></trkpt><trkpt lon="5.7685" lat="51.129861"><ele>24.6</ele><time>2022-04-10T06:36:21.000Z</time></trkpt><trkpt lon="5.768517" lat="51.129797"><ele>24.6</ele><time>2022-04-10T06:36:22.000Z</time></trkpt><trkpt lon="5.768535" lat="51.129735"><ele>24.4</ele><time>2022-04-10T06:36:23.000Z</time></trkpt><trkpt lon="5.768553" lat="51.129671"><ele>24.4</ele><time>2022-04-10T06:36:24.000Z</time></trkpt><trkpt lon="5.768572" lat="51.129605"><ele>24.4</ele><time>2022-04-10T06:36:25.000Z</time></trkpt><trkpt lon="5.768592" lat="51.129536"><ele>24.2</ele><time>2022-04-10T06:36:26.000Z</time></trkpt><trkpt lon="5.768612" lat="51.129471"><ele>24.2</ele><time>2022-04-10T06:36:27.000Z</time></trkpt><trkpt lon="5.768632" lat="51.129407"><ele>24.2</ele><time>2022-04-10T06:36:28.000Z</time></trkpt><trkpt lon="5.768652" lat="51.129343"><ele>24.2</ele><time>2022-04-10T06:36:29.000Z</time></trkpt><trkpt lon="5.76867" lat="51.129281"><ele>24.2</ele><time>2022-04-10T06:36:30.000Z</time></trkpt><trkpt lon="5.76869" lat="51.129217"><ele>24.2</ele><time>2022-04-10T06:36:31.000Z</time></trkpt><trkpt lon="5.768709" lat="51.129151"><ele>24.2</ele><time>2022-04-10T06:36:32.000Z</time></trkpt><trkpt lon="5.768731" lat="51.129086"><ele>24.2</ele><time>2022-04-10T06:36:33.000Z</time></trkpt><trkpt lon="5.768751" lat="51.129021"><ele>24.2</ele><time>2022-04-10T06:36:34.000Z</time></trkpt><trkpt lon="5.768772" lat="51.128957"><ele>24.2</ele><time>2022-04-10T06:36:35.000Z</time></trkpt><trkpt lon="5.768792" lat="51.128892"><ele>24.2</ele><time>2022-04-10T06:36:36.000Z</time></trkpt><trkpt lon="5.768812" lat="51.128827"><ele>24.2</ele><time>2022-04-10T06:36:37.000Z</time></trkpt><trkpt lon="5.76883" lat="51.128763"><ele>24.2</ele><time>2022-04-10T06:36:38.000Z</time></trkpt><trkpt lon="5.768849" lat="51.128697"><ele>24.4</ele><time>2022-04-10T06:36:39.000Z</time></trkpt><trkpt lon="5.768869" lat="51.128634"><ele>24.4</ele><time>2022-04-10T06:36:40.000Z</time></trkpt><trkpt lon="5.768888" lat="51.128571"><ele>24.4</ele><time>2022-04-10T06:36:41.000Z</time></trkpt><trkpt lon="5.768907" lat="51.128507"><ele>24.4</ele><time>2022-04-10T06:36:42.000Z</time></trkpt><trkpt lon="5.768928" lat="51.128443"><ele>24.4</ele><time>2022-04-10T06:36:43.000Z</time></trkpt><trkpt lon="5.768949" lat="51.12838"><ele>24.4</ele><time>2022-04-10T06:36:44.000Z</time></trkpt><trkpt lon="5.768969" lat="51.128316"><ele>24.2</ele><time>2022-04-10T06:36:45.000Z</time></trkpt><trkpt lon="5.768988" lat="51.128251"><ele>24.2</ele><time>2022-04-10T06:36:46.000Z</time></trkpt><trkpt lon="5.769007" lat="51.128187"><ele>24.2</ele><time>2022-04-10T06:36:47.000Z</time></trkpt><trkpt lon="5.769025" lat="51.128125"><ele>24.2</ele><time>2022-04-10T06:36:48.000Z</time></trkpt><trkpt lon="5.769044" lat="51.128061"><ele>24.2</ele><time>2022-04-10T06:36:49.000Z</time></trkpt><trkpt lon="5.769064" lat="51.127998"><ele>24.4</ele><time>2022-04-10T06:36:50.000Z</time></trkpt><trkpt lon="5.769086" lat="51.127936"><ele>24.4</ele><time>2022-04-10T06:36:51.000Z</time></trkpt><trkpt lon="5.769108" lat="51.127873"><ele>24.4</ele><time>2022-04-10T06:36:52.000Z</time></trkpt><trkpt lon="5.769132" lat="51.12781"><ele>24.4</ele><time>2022-04-10T06:36:53.000Z</time></trkpt><trkpt lon="5.769157" lat="51.127749"><ele>24.2</ele><time>2022-04-10T06:36:54.000Z</time></trkpt><trkpt lon="5.769185" lat="51.127686"><ele>24.2</ele><time>2022-04-10T06:36:55.000Z</time></trkpt><trkpt lon="5.769213" lat="51.127623"><ele>24.2</ele><time>2022-04-10T06:36:56.000Z</time></trkpt><trkpt lon="5.769241" lat="51.127561"><ele>24.2</ele><time>2022-04-10T06:36:57.000Z</time></trkpt><trkpt lon="5.769272" lat="51.127496"><ele>24.2</ele><time>2022-04-10T06:36:58.000Z</time></trkpt><trkpt lon="5.769303" lat="51.127432"><ele>24.2</ele><time>2022-04-10T06:36:59.000Z</time></trkpt><trkpt lon="5.769334" lat="51.127371"><ele>24.2</ele><time>2022-04-10T06:37:00.000Z</time></trkpt><trkpt lon="5.769365" lat="51.127309"><ele>24.2</ele><time>2022-04-10T06:37:01.000Z</time></trkpt><trkpt lon="5.769397" lat="51.127245"><ele>24.2</ele><time>2022-04-10T06:37:02.000Z</time></trkpt><trkpt lon="5.769432" lat="51.127183"><ele>24.2</ele><time>2022-04-10T06:37:03.000Z</time></trkpt><trkpt lon="5.769468" lat="51.127119"><ele>24.2</ele><time>2022-04-10T06:37:04.000Z</time></trkpt><trkpt lon="5.769509" lat="51.127057"><ele>24.2</ele><time>2022-04-10T06:37:05.000Z</time></trkpt><trkpt lon="5.769552" lat="51.126994"><ele>24.2</ele><time>2022-04-10T06:37:06.000Z</time></trkpt><trkpt lon="5.769598" lat="51.126935"><ele>24.2</ele><time>2022-04-10T06:37:07.000Z</time></trkpt><trkpt lon="5.769645" lat="51.126872"><ele>24.2</ele><time>2022-04-10T06:37:08.000Z</time></trkpt><trkpt lon="5.769691" lat="51.126815"><ele>24</ele><time>2022-04-10T06:37:09.000Z</time></trkpt><trkpt lon="5.769737" lat="51.126758"><ele>24</ele><time>2022-04-10T06:37:10.000Z</time></trkpt><trkpt lon="5.769785" lat="51.1267"><ele>24</ele><time>2022-04-10T06:37:11.000Z</time></trkpt><trkpt lon="5.769838" lat="51.126641"><ele>24.2</ele><time>2022-04-10T06:37:12.000Z</time></trkpt><trkpt lon="5.769898" lat="51.126587"><ele>24.2</ele><time>2022-04-10T06:37:13.000Z</time></trkpt><trkpt lon="5.769967" lat="51.126535"><ele>24.2</ele><time>2022-04-10T06:37:14.000Z</time></trkpt><trkpt lon="5.77004" lat="51.126486"><ele>24.2</ele><time>2022-04-10T06:37:15.000Z</time></trkpt><trkpt lon="5.770119" lat="51.126442"><ele>24.2</ele><time>2022-04-10T06:37:16.000Z</time></trkpt><trkpt lon="5.770201" lat="51.1264"><ele>24.4</ele><time>2022-04-10T06:37:17.000Z</time></trkpt><trkpt lon="5.770287" lat="51.126358"><ele>24.4</ele><time>2022-04-10T06:37:18.000Z</time></trkpt><trkpt lon="5.770372" lat="51.126317"><ele>24.4</ele><time>2022-04-10T06:37:19.000Z</time></trkpt><trkpt lon="5.770458" lat="51.126279"><ele>24.6</ele><time>2022-04-10T06:37:20.000Z</time></trkpt><trkpt lon="5.770544" lat="51.126241"><ele>24.6</ele><time>2022-04-10T06:37:21.000Z</time></trkpt><trkpt lon="5.770631" lat="51.126202"><ele>24.6</ele><time>2022-04-10T06:37:22.000Z</time></trkpt><trkpt lon="5.770715" lat="51.126164"><ele>24.6</ele><time>2022-04-10T06:37:23.000Z</time></trkpt><trkpt lon="5.7708" lat="51.126126"><ele>24.6</ele><time>2022-04-10T06:37:24.000Z</time></trkpt><trkpt lon="5.770884" lat="51.126088"><ele>24.8</ele><time>2022-04-10T06:37:25.000Z</time></trkpt><trkpt lon="5.770965" lat="51.12605"><ele>24.8</ele><time>2022-04-10T06:37:26.000Z</time></trkpt><trkpt lon="5.771047" lat="51.126011"><ele>25</ele><time>2022-04-10T06:37:27.000Z</time></trkpt><trkpt lon="5.771132" lat="51.125972"><ele>25</ele><time>2022-04-10T06:37:28.000Z</time></trkpt><trkpt lon="5.771216" lat="51.125931"><ele>25</ele><time>2022-04-10T06:37:29.000Z</time></trkpt><trkpt lon="5.771301" lat="51.125893"><ele>25</ele><time>2022-04-10T06:37:30.000Z</time></trkpt><trkpt lon="5.771385" lat="51.125854"><ele>25</ele><time>2022-04-10T06:37:31.000Z</time></trkpt><trkpt lon="5.77147" lat="51.125812"><ele>25.2</ele><time>2022-04-10T06:37:32.000Z</time></trkpt><trkpt lon="5.771553" lat="51.125771"><ele>25</ele><time>2022-04-10T06:37:33.000Z</time></trkpt><trkpt lon="5.771634" lat="51.125733"><ele>25.2</ele><time>2022-04-10T06:37:34.000Z</time></trkpt><trkpt lon="5.771715" lat="51.125695"><ele>25.2</ele><time>2022-04-10T06:37:35.000Z</time></trkpt><trkpt lon="5.771797" lat="51.125656"><ele>25.2</ele><time>2022-04-10T06:37:36.000Z</time></trkpt><trkpt lon="5.771877" lat="51.125615"><ele>25.2</ele><time>2022-04-10T06:37:37.000Z</time></trkpt><trkpt lon="5.771956" lat="51.125577"><ele>25.2</ele><time>2022-04-10T06:37:38.000Z</time></trkpt><trkpt lon="5.772036" lat="51.125538"><ele>25.4</ele><time>2022-04-10T06:37:39.000Z</time></trkpt><trkpt lon="5.772118" lat="51.125498"><ele>25.4</ele><time>2022-04-10T06:37:40.000Z</time></trkpt><trkpt lon="5.772201" lat="51.125461"><ele>25.4</ele><time>2022-04-10T06:37:41.000Z</time></trkpt><trkpt lon="5.772284" lat="51.125421"><ele>25.4</ele><time>2022-04-10T06:37:42.000Z</time></trkpt><trkpt lon="5.772366" lat="51.125382"><ele>25.6</ele><time>2022-04-10T06:37:43.000Z</time></trkpt><trkpt lon="5.772446" lat="51.125344"><ele>25.6</ele><time>2022-04-10T06:37:44.000Z</time></trkpt><trkpt lon="5.772526" lat="51.125306"><ele>25.6</ele><time>2022-04-10T06:37:45.000Z</time></trkpt><trkpt lon="5.772607" lat="51.125266"><ele>25.6</ele><time>2022-04-10T06:37:46.000Z</time></trkpt><trkpt lon="5.772689" lat="51.125226"><ele>25.8</ele><time>2022-04-10T06:37:47.000Z</time></trkpt><trkpt lon="5.772772" lat="51.125188"><ele>25.8</ele><time>2022-04-10T06:37:48.000Z</time></trkpt><trkpt lon="5.772855" lat="51.125148"><ele>25.8</ele><time>2022-04-10T06:37:49.000Z</time></trkpt><trkpt lon="5.772936" lat="51.125108"><ele>26</ele><time>2022-04-10T06:37:50.000Z</time></trkpt><trkpt lon="5.773019" lat="51.12507"><ele>26</ele><time>2022-04-10T06:37:51.000Z</time></trkpt><trkpt lon="5.773104" lat="51.125035"><ele>26</ele><time>2022-04-10T06:37:52.000Z</time></trkpt><trkpt lon="5.773192" lat="51.124997"><ele>26</ele><time>2022-04-10T06:37:53.000Z</time></trkpt><trkpt lon="5.773282" lat="51.12496"><ele>26.2</ele><time>2022-04-10T06:37:54.000Z</time></trkpt><trkpt lon="5.773375" lat="51.124927"><ele>26.2</ele><time>2022-04-10T06:37:55.000Z</time></trkpt><trkpt lon="5.773467" lat="51.124895"><ele>26.4</ele><time>2022-04-10T06:37:56.000Z</time></trkpt><trkpt lon="5.773561" lat="51.124862"><ele>26.4</ele><time>2022-04-10T06:37:57.000Z</time></trkpt><trkpt lon="5.773657" lat="51.124833"><ele>26.4</ele><time>2022-04-10T06:37:58.000Z</time></trkpt><trkpt lon="5.773754" lat="51.124808"><ele>26.4</ele><time>2022-04-10T06:37:59.000Z</time></trkpt><trkpt lon="5.773853" lat="51.12478"><ele>26.4</ele><time>2022-04-10T06:38:00.000Z</time></trkpt><trkpt lon="5.773952" lat="51.124756"><ele>26.4</ele><time>2022-04-10T06:38:01.000Z</time></trkpt><trkpt lon="5.774053" lat="51.12473"><ele>26.4</ele><time>2022-04-10T06:38:02.000Z</time></trkpt><trkpt lon="5.774155" lat="51.124709"><ele>26.4</ele><time>2022-04-10T06:38:03.000Z</time></trkpt><trkpt lon="5.774257" lat="51.12469"><ele>26.4</ele><time>2022-04-10T06:38:04.000Z</time></trkpt><trkpt lon="5.774357" lat="51.124671"><ele>26.6</ele><time>2022-04-10T06:38:05.000Z</time></trkpt><trkpt lon="5.774462" lat="51.124652"><ele>26.6</ele><time>2022-04-10T06:38:06.000Z</time></trkpt><trkpt lon="5.774567" lat="51.124637"><ele>26.6</ele><time>2022-04-10T06:38:07.000Z</time></trkpt><trkpt lon="5.774671" lat="51.124622"><ele>26.6</ele><time>2022-04-10T06:38:08.000Z</time></trkpt><trkpt lon="5.774774" lat="51.124607"><ele>26.6</ele><time>2022-04-10T06:38:09.000Z</time></trkpt><trkpt lon="5.774877" lat="51.124591"><ele>26.6</ele><time>2022-04-10T06:38:10.000Z</time></trkpt><trkpt lon="5.77498" lat="51.124576"><ele>26.6</ele><time>2022-04-10T06:38:11.000Z</time></trkpt><trkpt lon="5.775082" lat="51.124561"><ele>26.6</ele><time>2022-04-10T06:38:12.000Z</time></trkpt><trkpt lon="5.775184" lat="51.124545"><ele>26.6</ele><time>2022-04-10T06:38:13.000Z</time></trkpt><trkpt lon="5.775288" lat="51.124525"><ele>26.6</ele><time>2022-04-10T06:38:14.000Z</time></trkpt><trkpt lon="5.77539" lat="51.124507"><ele>26.8</ele><time>2022-04-10T06:38:15.000Z</time></trkpt><trkpt lon="5.775491" lat="51.124491"><ele>26.8</ele><time>2022-04-10T06:38:16.000Z</time></trkpt><trkpt lon="5.775594" lat="51.124473"><ele>26.8</ele><time>2022-04-10T06:38:17.000Z</time></trkpt><trkpt lon="5.775698" lat="51.124452"><ele>26.6</ele><time>2022-04-10T06:38:18.000Z</time></trkpt><trkpt lon="5.775804" lat="51.12443"><ele>26.6</ele><time>2022-04-10T06:38:19.000Z</time></trkpt><trkpt lon="5.775909" lat="51.12441"><ele>26.6</ele><time>2022-04-10T06:38:20.000Z</time></trkpt><trkpt lon="5.776014" lat="51.124386"><ele>26.6</ele><time>2022-04-10T06:38:21.000Z</time></trkpt><trkpt lon="5.776116" lat="51.124359"><ele>26.6</ele><time>2022-04-10T06:38:22.000Z</time></trkpt><trkpt lon="5.776218" lat="51.124334"><ele>26.6</ele><time>2022-04-10T06:38:23.000Z</time></trkpt><trkpt lon="5.77632" lat="51.12431"><ele>26.6</ele><time>2022-04-10T06:38:24.000Z</time></trkpt><trkpt lon="5.776422" lat="51.124284"><ele>26.6</ele><time>2022-04-10T06:38:25.000Z</time></trkpt><trkpt lon="5.776523" lat="51.12426"><ele>26.6</ele><time>2022-04-10T06:38:26.000Z</time></trkpt><trkpt lon="5.776625" lat="51.124233"><ele>26.4</ele><time>2022-04-10T06:38:27.000Z</time></trkpt><trkpt lon="5.776725" lat="51.124208"><ele>26.6</ele><time>2022-04-10T06:38:28.000Z</time></trkpt><trkpt lon="5.776826" lat="51.124184"><ele>26.6</ele><time>2022-04-10T06:38:29.000Z</time></trkpt><trkpt lon="5.776928" lat="51.124157"><ele>26.6</ele><time>2022-04-10T06:38:30.000Z</time></trkpt><trkpt lon="5.77703" lat="51.124131"><ele>26.6</ele><time>2022-04-10T06:38:31.000Z</time></trkpt><trkpt lon="5.77713" lat="51.124107"><ele>26.6</ele><time>2022-04-10T06:38:32.000Z</time></trkpt><trkpt lon="5.777231" lat="51.124082"><ele>26.6</ele><time>2022-04-10T06:38:33.000Z</time></trkpt><trkpt lon="5.777332" lat="51.124059"><ele>26.6</ele><time>2022-04-10T06:38:34.000Z</time></trkpt><trkpt lon="5.777432" lat="51.124035"><ele>26.6</ele><time>2022-04-10T06:38:35.000Z</time></trkpt><trkpt lon="5.777531" lat="51.124009"><ele>26.6</ele><time>2022-04-10T06:38:36.000Z</time></trkpt><trkpt lon="5.777632" lat="51.123986"><ele>26.6</ele><time>2022-04-10T06:38:37.000Z</time></trkpt><trkpt lon="5.777732" lat="51.123964"><ele>26.6</ele><time>2022-04-10T06:38:38.000Z</time></trkpt><trkpt lon="5.777834" lat="51.123942"><ele>26.6</ele><time>2022-04-10T06:38:39.000Z</time></trkpt><trkpt lon="5.777935" lat="51.123923"><ele>26.4</ele><time>2022-04-10T06:38:40.000Z</time></trkpt><trkpt lon="5.778036" lat="51.123904"><ele>26.4</ele><time>2022-04-10T06:38:41.000Z</time></trkpt><trkpt lon="5.778138" lat="51.123886"><ele>26.4</ele><time>2022-04-10T06:38:42.000Z</time></trkpt><trkpt lon="5.778237" lat="51.12387"><ele>26.4</ele><time>2022-04-10T06:38:43.000Z</time></trkpt><trkpt lon="5.77834" lat="51.123851"><ele>26.2</ele><time>2022-04-10T06:38:44.000Z</time></trkpt><trkpt lon="5.778449" lat="51.123831"><ele>26.2</ele><time>2022-04-10T06:38:45.000Z</time></trkpt><trkpt lon="5.778555" lat="51.123812"><ele>26.2</ele><time>2022-04-10T06:38:46.000Z</time></trkpt><trkpt lon="5.778659" lat="51.123793"><ele>26.2</ele><time>2022-04-10T06:38:47.000Z</time></trkpt><trkpt lon="5.778763" lat="51.123774"><ele>26.2</ele><time>2022-04-10T06:38:48.000Z</time></trkpt><trkpt lon="5.778867" lat="51.123755"><ele>26.2</ele><time>2022-04-10T06:38:49.000Z</time></trkpt><trkpt lon="5.778969" lat="51.123736"><ele>26.2</ele><time>2022-04-10T06:38:50.000Z</time></trkpt><trkpt lon="5.779072" lat="51.123717"><ele>26.2</ele><time>2022-04-10T06:38:51.000Z</time></trkpt><trkpt lon="5.779173" lat="51.123698"><ele>26.2</ele><time>2022-04-10T06:38:52.000Z</time></trkpt><trkpt lon="5.779275" lat="51.123679"><ele>26.4</ele><time>2022-04-10T06:38:53.000Z</time></trkpt><trkpt lon="5.779376" lat="51.123661"><ele>26.4</ele><time>2022-04-10T06:38:54.000Z</time></trkpt><trkpt lon="5.779481" lat="51.123645"><ele>26.2</ele><time>2022-04-10T06:38:55.000Z</time></trkpt><trkpt lon="5.779587" lat="51.123625"><ele>26.2</ele><time>2022-04-10T06:38:56.000Z</time></trkpt><trkpt lon="5.779694" lat="51.123607"><ele>26</ele><time>2022-04-10T06:38:57.000Z</time></trkpt><trkpt lon="5.779798" lat="51.123591"><ele>25.8</ele><time>2022-04-10T06:38:58.000Z</time></trkpt><trkpt lon="5.779901" lat="51.123572"><ele>25.8</ele><time>2022-04-10T06:38:59.000Z</time></trkpt><trkpt lon="5.780005" lat="51.123553"><ele>26</ele><time>2022-04-10T06:39:00.000Z</time></trkpt><trkpt lon="5.78011" lat="51.123534"><ele>26</ele><time>2022-04-10T06:39:01.000Z</time></trkpt><trkpt lon="5.780217" lat="51.123515"><ele>26</ele><time>2022-04-10T06:39:02.000Z</time></trkpt><trkpt lon="5.780322" lat="51.123497"><ele>26</ele><time>2022-04-10T06:39:03.000Z</time></trkpt><trkpt lon="5.780431" lat="51.12348"><ele>26</ele><time>2022-04-10T06:39:04.000Z</time></trkpt><trkpt lon="5.780544" lat="51.123461"><ele>25.8</ele><time>2022-04-10T06:39:05.000Z</time></trkpt><trkpt lon="5.780656" lat="51.123442"><ele>25.6</ele><time>2022-04-10T06:39:06.000Z</time></trkpt><trkpt lon="5.780766" lat="51.123422"><ele>25.6</ele><time>2022-04-10T06:39:07.000Z</time></trkpt><trkpt lon="5.780876" lat="51.123401"><ele>25.6</ele><time>2022-04-10T06:39:08.000Z</time></trkpt><trkpt lon="5.780986" lat="51.123385"><ele>25.8</ele><time>2022-04-10T06:39:09.000Z</time></trkpt><trkpt lon="5.781092" lat="51.123366"><ele>26</ele><time>2022-04-10T06:39:10.000Z</time></trkpt><trkpt lon="5.781196" lat="51.123347"><ele>26</ele><time>2022-04-10T06:39:11.000Z</time></trkpt><trkpt lon="5.781303" lat="51.123328"><ele>26</ele><time>2022-04-10T06:39:12.000Z</time></trkpt><trkpt lon="5.781409" lat="51.123309"><ele>26</ele><time>2022-04-10T06:39:13.000Z</time></trkpt><trkpt lon="5.781511" lat="51.123291"><ele>26</ele><time>2022-04-10T06:39:14.000Z</time></trkpt><trkpt lon="5.781614" lat="51.123274"><ele>26</ele><time>2022-04-10T06:39:15.000Z</time></trkpt><trkpt lon="5.781719" lat="51.123252"><ele>26.2</ele><time>2022-04-10T06:39:16.000Z</time></trkpt><trkpt lon="5.781823" lat="51.123236"><ele>26</ele><time>2022-04-10T06:39:17.000Z</time></trkpt><trkpt lon="5.781929" lat="51.123218"><ele>26</ele><time>2022-04-10T06:39:18.000Z</time></trkpt><trkpt lon="5.782033" lat="51.123202"><ele>25.8</ele><time>2022-04-10T06:39:19.000Z</time></trkpt><trkpt lon="5.782135" lat="51.123183"><ele>25.8</ele><time>2022-04-10T06:39:20.000Z</time></trkpt><trkpt lon="5.782237" lat="51.123164"><ele>25.6</ele><time>2022-04-10T06:39:21.000Z</time></trkpt><trkpt lon="5.78234" lat="51.123146"><ele>25.6</ele><time>2022-04-10T06:39:22.000Z</time></trkpt><trkpt lon="5.782445" lat="51.123129"><ele>25.4</ele><time>2022-04-10T06:39:23.000Z</time></trkpt><trkpt lon="5.782548" lat="51.123111"><ele>25.4</ele><time>2022-04-10T06:39:24.000Z</time></trkpt><trkpt lon="5.782651" lat="51.123095"><ele>25.2</ele><time>2022-04-10T06:39:25.000Z</time></trkpt><trkpt lon="5.782753" lat="51.123077"><ele>25.2</ele><time>2022-04-10T06:39:26.000Z</time></trkpt><trkpt lon="5.782855" lat="51.123061"><ele>25.4</ele><time>2022-04-10T06:39:27.000Z</time></trkpt><trkpt lon="5.782958" lat="51.123041"><ele>25.4</ele><time>2022-04-10T06:39:28.000Z</time></trkpt><trkpt lon="5.783061" lat="51.123022"><ele>25.4</ele><time>2022-04-10T06:39:29.000Z</time></trkpt><trkpt lon="5.783163" lat="51.123005"><ele>25.4</ele><time>2022-04-10T06:39:30.000Z</time></trkpt><trkpt lon="5.783265" lat="51.12299"><ele>25.6</ele><time>2022-04-10T06:39:31.000Z</time></trkpt><trkpt lon="5.783373" lat="51.122973"><ele>25.6</ele><time>2022-04-10T06:39:32.000Z</time></trkpt><trkpt lon="5.783474" lat="51.122955"><ele>25.6</ele><time>2022-04-10T06:39:33.000Z</time></trkpt><trkpt lon="5.783575" lat="51.122938"><ele>25.6</ele><time>2022-04-10T06:39:34.000Z</time></trkpt><trkpt lon="5.783679" lat="51.122914"><ele>25.6</ele><time>2022-04-10T06:39:35.000Z</time></trkpt><trkpt lon="5.783783" lat="51.122894"><ele>25.6</ele><time>2022-04-10T06:39:36.000Z</time></trkpt><trkpt lon="5.783886" lat="51.122877"><ele>25.6</ele><time>2022-04-10T06:39:37.000Z</time></trkpt><trkpt lon="5.783988" lat="51.122859"><ele>25.4</ele><time>2022-04-10T06:39:38.000Z</time></trkpt><trkpt lon="5.78409" lat="51.122843"><ele>25.4</ele><time>2022-04-10T06:39:39.000Z</time></trkpt><trkpt lon="5.784192" lat="51.122825"><ele>25.4</ele><time>2022-04-10T06:39:40.000Z</time></trkpt><trkpt lon="5.784295" lat="51.122811"><ele>25.4</ele><time>2022-04-10T06:39:41.000Z</time></trkpt><trkpt lon="5.784397" lat="51.122801"><ele>25.4</ele><time>2022-04-10T06:39:42.000Z</time></trkpt><trkpt lon="5.784499" lat="51.122795"><ele>25.4</ele><time>2022-04-10T06:39:43.000Z</time></trkpt><trkpt lon="5.784604" lat="51.122801"><ele>25.4</ele><time>2022-04-10T06:39:44.000Z</time></trkpt><trkpt lon="5.784702" lat="51.122822"><ele>25.4</ele><time>2022-04-10T06:39:45.000Z</time></trkpt><trkpt lon="5.784793" lat="51.122851"><ele>25.4</ele><time>2022-04-10T06:39:46.000Z</time></trkpt><trkpt lon="5.784878" lat="51.12289"><ele>25.6</ele><time>2022-04-10T06:39:47.000Z</time></trkpt><trkpt lon="5.784958" lat="51.122928"><ele>25.6</ele><time>2022-04-10T06:39:48.000Z</time></trkpt><trkpt lon="5.785046" lat="51.12297"><ele>25.6</ele><time>2022-04-10T06:39:49.000Z</time></trkpt><trkpt lon="5.785135" lat="51.123007"><ele>25.8</ele><time>2022-04-10T06:39:50.000Z</time></trkpt><trkpt lon="5.785225" lat="51.123039"><ele>25.8</ele><time>2022-04-10T06:39:51.000Z</time></trkpt><trkpt lon="5.785322" lat="51.123062"><ele>25.8</ele><time>2022-04-10T06:39:52.000Z</time></trkpt><trkpt lon="5.785424" lat="51.123073"><ele>25.8</ele><time>2022-04-10T06:39:53.000Z</time></trkpt><trkpt lon="5.785528" lat="51.123082"><ele>25.8</ele><time>2022-04-10T06:39:54.000Z</time></trkpt><trkpt lon="5.785635" lat="51.123086"><ele>25.8</ele><time>2022-04-10T06:39:55.000Z</time></trkpt><trkpt lon="5.785745" lat="51.123089"><ele>25.8</ele><time>2022-04-10T06:39:56.000Z</time></trkpt><trkpt lon="5.785859" lat="51.12309"><ele>25.8</ele><time>2022-04-10T06:39:57.000Z</time></trkpt><trkpt lon="5.785972" lat="51.123093"><ele>25.6</ele><time>2022-04-10T06:39:58.000Z</time></trkpt><trkpt lon="5.786085" lat="51.123093"><ele>25.6</ele><time>2022-04-10T06:39:59.000Z</time></trkpt><trkpt lon="5.786199" lat="51.123094"><ele>25.6</ele><time>2022-04-10T06:40:00.000Z</time></trkpt><trkpt lon="5.786311" lat="51.123096"><ele>25.6</ele><time>2022-04-10T06:40:01.000Z</time></trkpt><trkpt lon="5.786422" lat="51.123097"><ele>25.8</ele><time>2022-04-10T06:40:02.000Z</time></trkpt><trkpt lon="5.786541" lat="51.123101"><ele>25.6</ele><time>2022-04-10T06:40:03.000Z</time></trkpt><trkpt lon="5.786655" lat="51.123105"><ele>25.6</ele><time>2022-04-10T06:40:04.000Z</time></trkpt><trkpt lon="5.786769" lat="51.123109"><ele>25.6</ele><time>2022-04-10T06:40:05.000Z</time></trkpt><trkpt lon="5.786885" lat="51.123112"><ele>25.6</ele><time>2022-04-10T06:40:06.000Z</time></trkpt><trkpt lon="5.787" lat="51.123113"><ele>25.4</ele><time>2022-04-10T06:40:07.000Z</time></trkpt><trkpt lon="5.787113" lat="51.123116"><ele>25.4</ele><time>2022-04-10T06:40:08.000Z</time></trkpt><trkpt lon="5.787227" lat="51.123117"><ele>25.4</ele><time>2022-04-10T06:40:09.000Z</time></trkpt><trkpt lon="5.787339" lat="51.123119"><ele>25.2</ele><time>2022-04-10T06:40:10.000Z</time></trkpt><trkpt lon="5.787455" lat="51.12312"><ele>25.2</ele><time>2022-04-10T06:40:11.000Z</time></trkpt><trkpt lon="5.78757" lat="51.123123"><ele>25.2</ele><time>2022-04-10T06:40:12.000Z</time></trkpt><trkpt lon="5.787687" lat="51.123124"><ele>25</ele><time>2022-04-10T06:40:13.000Z</time></trkpt><trkpt lon="5.787808" lat="51.123129"><ele>25</ele><time>2022-04-10T06:40:14.000Z</time></trkpt><trkpt lon="5.787924" lat="51.123136"><ele>24.8</ele><time>2022-04-10T06:40:15.000Z</time></trkpt><trkpt lon="5.788039" lat="51.123142"><ele>24.8</ele><time>2022-04-10T06:40:16.000Z</time></trkpt><trkpt lon="5.788151" lat="51.123154"><ele>24.6</ele><time>2022-04-10T06:40:17.000Z</time></trkpt><trkpt lon="5.78826" lat="51.123173"><ele>24.6</ele><time>2022-04-10T06:40:18.000Z</time></trkpt><trkpt lon="5.788363" lat="51.123199"><ele>24.4</ele><time>2022-04-10T06:40:19.000Z</time></trkpt><trkpt lon="5.788463" lat="51.123225"><ele>24.4</ele><time>2022-04-10T06:40:20.000Z</time></trkpt><trkpt lon="5.788567" lat="51.123253"><ele>24.4</ele><time>2022-04-10T06:40:21.000Z</time></trkpt><trkpt lon="5.788664" lat="51.12328"><ele>24.4</ele><time>2022-04-10T06:40:22.000Z</time></trkpt><trkpt lon="5.788758" lat="51.123306"><ele>24.4</ele><time>2022-04-10T06:40:23.000Z</time></trkpt><trkpt lon="5.788849" lat="51.123331"><ele>24.4</ele><time>2022-04-10T06:40:24.000Z</time></trkpt><trkpt lon="5.788937" lat="51.123355"><ele>24.6</ele><time>2022-04-10T06:40:25.000Z</time></trkpt><trkpt lon="5.789012" lat="51.123373"><ele>24.6</ele><time>2022-04-10T06:40:26.000Z</time></trkpt><trkpt lon="5.789079" lat="51.123377"><ele>24.8</ele><time>2022-04-10T06:40:27.000Z</time></trkpt><trkpt lon="5.789132" lat="51.123365"><ele>24.8</ele><time>2022-04-10T06:40:28.000Z</time></trkpt><trkpt lon="5.789164" lat="51.123337"><ele>24.8</ele><time>2022-04-10T06:40:29.000Z</time></trkpt><trkpt lon="5.789172" lat="51.123299"><ele>24.8</ele><time>2022-04-10T06:40:30.000Z</time></trkpt><trkpt lon="5.789154" lat="51.123259"><ele>24.6</ele><time>2022-04-10T06:40:31.000Z</time></trkpt><trkpt lon="5.789116" lat="51.123213"><ele>24.6</ele><time>2022-04-10T06:40:32.000Z</time></trkpt><trkpt lon="5.789074" lat="51.123162"><ele>24.6</ele><time>2022-04-10T06:40:33.000Z</time></trkpt><trkpt lon="5.789038" lat="51.123107"><ele>24.4</ele><time>2022-04-10T06:40:34.000Z</time></trkpt><trkpt lon="5.789009" lat="51.123048"><ele>24.2</ele><time>2022-04-10T06:40:35.000Z</time></trkpt><trkpt lon="5.788992" lat="51.122987"><ele>24.2</ele><time>2022-04-10T06:40:36.000Z</time></trkpt><trkpt lon="5.788982" lat="51.122926"><ele>24.2</ele><time>2022-04-10T06:40:37.000Z</time></trkpt><trkpt lon="5.78898" lat="51.122861"><ele>24</ele><time>2022-04-10T06:40:38.000Z</time></trkpt><trkpt lon="5.788981" lat="51.122796"><ele>24</ele><time>2022-04-10T06:40:39.000Z</time></trkpt><trkpt lon="5.788985" lat="51.122731"><ele>23.8</ele><time>2022-04-10T06:40:40.000Z</time></trkpt><trkpt lon="5.788986" lat="51.122666"><ele>23.8</ele><time>2022-04-10T06:40:41.000Z</time></trkpt><trkpt lon="5.788982" lat="51.122598"><ele>23.8</ele><time>2022-04-10T06:40:42.000Z</time></trkpt><trkpt lon="5.788968" lat="51.122529"><ele>23.8</ele><time>2022-04-10T06:40:43.000Z</time></trkpt><trkpt lon="5.788948" lat="51.122463"><ele>23.6</ele><time>2022-04-10T06:40:44.000Z</time></trkpt><trkpt lon="5.788921" lat="51.122396"><ele>23.6</ele><time>2022-04-10T06:40:45.000Z</time></trkpt><trkpt lon="5.788893" lat="51.12233"><ele>23.6</ele><time>2022-04-10T06:40:46.000Z</time></trkpt><trkpt lon="5.788862" lat="51.122267"><ele>23.6</ele><time>2022-04-10T06:40:47.000Z</time></trkpt><trkpt lon="5.788829" lat="51.122206"><ele>23.6</ele><time>2022-04-10T06:40:48.000Z</time></trkpt><trkpt lon="5.788793" lat="51.122144"><ele>23.6</ele><time>2022-04-10T06:40:49.000Z</time></trkpt><trkpt lon="5.788758" lat="51.12208"><ele>23.6</ele><time>2022-04-10T06:40:50.000Z</time></trkpt><trkpt lon="5.78872" lat="51.122019"><ele>23.6</ele><time>2022-04-10T06:40:51.000Z</time></trkpt><trkpt lon="5.78868" lat="51.121958"><ele>23.6</ele><time>2022-04-10T06:40:52.000Z</time></trkpt><trkpt lon="5.78864" lat="51.121898"><ele>23.6</ele><time>2022-04-10T06:40:53.000Z</time></trkpt><trkpt lon="5.788596" lat="51.121839"><ele>23.8</ele><time>2022-04-10T06:40:54.000Z</time></trkpt><trkpt lon="5.788552" lat="51.121779"><ele>23.8</ele><time>2022-04-10T06:40:55.000Z</time></trkpt><trkpt lon="5.788504" lat="51.121722"><ele>23.8</ele><time>2022-04-10T06:40:56.000Z</time></trkpt><trkpt lon="5.788454" lat="51.121665"><ele>23.8</ele><time>2022-04-10T06:40:57.000Z</time></trkpt><trkpt lon="5.788404" lat="51.121608"><ele>23.8</ele><time>2022-04-10T06:40:58.000Z</time></trkpt><trkpt lon="5.788355" lat="51.12155"><ele>23.8</ele><time>2022-04-10T06:40:59.000Z</time></trkpt><trkpt lon="5.788305" lat="51.121489"><ele>23.8</ele><time>2022-04-10T06:41:00.000Z</time></trkpt><trkpt lon="5.788252" lat="51.121432"><ele>23.8</ele><time>2022-04-10T06:41:01.000Z</time></trkpt><trkpt lon="5.788201" lat="51.121374"><ele>23.8</ele><time>2022-04-10T06:41:02.000Z</time></trkpt><trkpt lon="5.788151" lat="51.121314"><ele>23.8</ele><time>2022-04-10T06:41:03.000Z</time></trkpt><trkpt lon="5.788102" lat="51.121257"><ele>23.8</ele><time>2022-04-10T06:41:04.000Z</time></trkpt><trkpt lon="5.788053" lat="51.121198"><ele>23.8</ele><time>2022-04-10T06:41:05.000Z</time></trkpt><trkpt lon="5.788007" lat="51.121139"><ele>23.8</ele><time>2022-04-10T06:41:06.000Z</time></trkpt><trkpt lon="5.78796" lat="51.121081"><ele>23.8</ele><time>2022-04-10T06:41:07.000Z</time></trkpt><trkpt lon="5.787914" lat="51.121021"><ele>23.8</ele><time>2022-04-10T06:41:08.000Z</time></trkpt><trkpt lon="5.787871" lat="51.120964"><ele>23.8</ele><time>2022-04-10T06:41:09.000Z</time></trkpt><trkpt lon="5.787826" lat="51.120901"><ele>23.8</ele><time>2022-04-10T06:41:10.000Z</time></trkpt><trkpt lon="5.787784" lat="51.120841"><ele>23.6</ele><time>2022-04-10T06:41:11.000Z</time></trkpt><trkpt lon="5.787744" lat="51.120783"><ele>23.6</ele><time>2022-04-10T06:41:12.000Z</time></trkpt><trkpt lon="5.787703" lat="51.120721"><ele>23.8</ele><time>2022-04-10T06:41:13.000Z</time></trkpt><trkpt lon="5.787664" lat="51.12066"><ele>23.8</ele><time>2022-04-10T06:41:14.000Z</time></trkpt><trkpt lon="5.787627" lat="51.120599"><ele>23.8</ele><time>2022-04-10T06:41:15.000Z</time></trkpt><trkpt lon="5.787591" lat="51.120538"><ele>23.8</ele><time>2022-04-10T06:41:16.000Z</time></trkpt><trkpt lon="5.787553" lat="51.120478"><ele>23.8</ele><time>2022-04-10T06:41:17.000Z</time></trkpt><trkpt lon="5.787516" lat="51.120416"><ele>23.8</ele><time>2022-04-10T06:41:18.000Z</time></trkpt><trkpt lon="5.787478" lat="51.120356"><ele>23.8</ele><time>2022-04-10T06:41:19.000Z</time></trkpt><trkpt lon="5.78744" lat="51.120294"><ele>23.6</ele><time>2022-04-10T06:41:20.000Z</time></trkpt><trkpt lon="5.787403" lat="51.120229"><ele>23.6</ele><time>2022-04-10T06:41:21.000Z</time></trkpt><trkpt lon="5.787368" lat="51.120166"><ele>23.6</ele><time>2022-04-10T06:41:22.000Z</time></trkpt><trkpt lon="5.787331" lat="51.120104"><ele>23.6</ele><time>2022-04-10T06:41:23.000Z</time></trkpt><trkpt lon="5.787295" lat="51.120042"><ele>23.6</ele><time>2022-04-10T06:41:24.000Z</time></trkpt><trkpt lon="5.787261" lat="51.119978"><ele>23.6</ele><time>2022-04-10T06:41:25.000Z</time></trkpt><trkpt lon="5.787227" lat="51.119916"><ele>23.6</ele><time>2022-04-10T06:41:26.000Z</time></trkpt><trkpt lon="5.787193" lat="51.119855"><ele>23.6</ele><time>2022-04-10T06:41:27.000Z</time></trkpt><trkpt lon="5.787158" lat="51.119795"><ele>23.4</ele><time>2022-04-10T06:41:28.000Z</time></trkpt><trkpt lon="5.787124" lat="51.119734"><ele>23.4</ele><time>2022-04-10T06:41:29.000Z</time></trkpt><trkpt lon="5.787093" lat="51.119671"><ele>23.4</ele><time>2022-04-10T06:41:30.000Z</time></trkpt><trkpt lon="5.787063" lat="51.119608"><ele>23.4</ele><time>2022-04-10T06:41:31.000Z</time></trkpt><trkpt lon="5.787032" lat="51.119548"><ele>23.4</ele><time>2022-04-10T06:41:32.000Z</time></trkpt><trkpt lon="5.787002" lat="51.119489"><ele>23.2</ele><time>2022-04-10T06:41:33.000Z</time></trkpt><trkpt lon="5.786974" lat="51.119428"><ele>23.2</ele><time>2022-04-10T06:41:34.000Z</time></trkpt><trkpt lon="5.786947" lat="51.119366"><ele>23</ele><time>2022-04-10T06:41:35.000Z</time></trkpt><trkpt lon="5.786919" lat="51.119303"><ele>23</ele><time>2022-04-10T06:41:36.000Z</time></trkpt><trkpt lon="5.786887" lat="51.119241"><ele>23</ele><time>2022-04-10T06:41:37.000Z</time></trkpt><trkpt lon="5.786855" lat="51.119178"><ele>23</ele><time>2022-04-10T06:41:38.000Z</time></trkpt><trkpt lon="5.786825" lat="51.119118"><ele>23</ele><time>2022-04-10T06:41:39.000Z</time></trkpt><trkpt lon="5.786796" lat="51.119052"><ele>23</ele><time>2022-04-10T06:41:40.000Z</time></trkpt><trkpt lon="5.78677" lat="51.118989"><ele>23</ele><time>2022-04-10T06:41:41.000Z</time></trkpt><trkpt lon="5.786746" lat="51.118925"><ele>23</ele><time>2022-04-10T06:41:42.000Z</time></trkpt><trkpt lon="5.786723" lat="51.118863"><ele>23</ele><time>2022-04-10T06:41:43.000Z</time></trkpt><trkpt lon="5.786704" lat="51.118798"><ele>23</ele><time>2022-04-10T06:41:44.000Z</time></trkpt><trkpt lon="5.786692" lat="51.118733"><ele>23</ele><time>2022-04-10T06:41:45.000Z</time></trkpt><trkpt lon="5.786692" lat="51.118668"><ele>23</ele><time>2022-04-10T06:41:46.000Z</time></trkpt><trkpt lon="5.786701" lat="51.118604"><ele>23</ele><time>2022-04-10T06:41:47.000Z</time></trkpt><trkpt lon="5.786721" lat="51.118543"><ele>23</ele><time>2022-04-10T06:41:48.000Z</time></trkpt><trkpt lon="5.78675" lat="51.118481"><ele>23.2</ele><time>2022-04-10T06:41:49.000Z</time></trkpt><trkpt lon="5.786787" lat="51.118418"><ele>23.2</ele><time>2022-04-10T06:41:50.000Z</time></trkpt><trkpt lon="5.786828" lat="51.11836"><ele>23.2</ele><time>2022-04-10T06:41:51.000Z</time></trkpt><trkpt lon="5.786871" lat="51.1183"><ele>23.2</ele><time>2022-04-10T06:41:52.000Z</time></trkpt><trkpt lon="5.786908" lat="51.118237"><ele>23.2</ele><time>2022-04-10T06:41:53.000Z</time></trkpt><trkpt lon="5.786938" lat="51.118172"><ele>23.2</ele><time>2022-04-10T06:41:54.000Z</time></trkpt><trkpt lon="5.786956" lat="51.118107"><ele>23.2</ele><time>2022-04-10T06:41:55.000Z</time></trkpt><trkpt lon="5.786963" lat="51.118041"><ele>23</ele><time>2022-04-10T06:41:56.000Z</time></trkpt><trkpt lon="5.786961" lat="51.117974"><ele>23</ele><time>2022-04-10T06:41:57.000Z</time></trkpt><trkpt lon="5.786949" lat="51.117909"><ele>22.8</ele><time>2022-04-10T06:41:58.000Z</time></trkpt><trkpt lon="5.786933" lat="51.117841"><ele>22.8</ele><time>2022-04-10T06:41:59.000Z</time></trkpt><trkpt lon="5.786912" lat="51.117776"><ele>22.8</ele><time>2022-04-10T06:42:00.000Z</time></trkpt><trkpt lon="5.78689" lat="51.117711"><ele>22.6</ele><time>2022-04-10T06:42:01.000Z</time></trkpt><trkpt lon="5.786868" lat="51.117649"><ele>22.6</ele><time>2022-04-10T06:42:02.000Z</time></trkpt><trkpt lon="5.786845" lat="51.117585"><ele>22.8</ele><time>2022-04-10T06:42:03.000Z</time></trkpt><trkpt lon="5.786823" lat="51.117522"><ele>22.8</ele><time>2022-04-10T06:42:04.000Z</time></trkpt><trkpt lon="5.786802" lat="51.11746"><ele>22.8</ele><time>2022-04-10T06:42:05.000Z</time></trkpt><trkpt lon="5.786781" lat="51.117399"><ele>22.8</ele><time>2022-04-10T06:42:06.000Z</time></trkpt><trkpt lon="5.78676" lat="51.117334"><ele>22.8</ele><time>2022-04-10T06:42:07.000Z</time></trkpt><trkpt lon="5.786737" lat="51.117268"><ele>22.8</ele><time>2022-04-10T06:42:08.000Z</time></trkpt><trkpt lon="5.786716" lat="51.117205"><ele>23</ele><time>2022-04-10T06:42:09.000Z</time></trkpt><trkpt lon="5.786694" lat="51.117142"><ele>22.8</ele><time>2022-04-10T06:42:10.000Z</time></trkpt><trkpt lon="5.786672" lat="51.117078"><ele>22.8</ele><time>2022-04-10T06:42:11.000Z</time></trkpt><trkpt lon="5.786651" lat="51.117013"><ele>23</ele><time>2022-04-10T06:42:12.000Z</time></trkpt><trkpt lon="5.786632" lat="51.116949"><ele>23</ele><time>2022-04-10T06:42:13.000Z</time></trkpt><trkpt lon="5.786616" lat="51.116883"><ele>22.8</ele><time>2022-04-10T06:42:14.000Z</time></trkpt><trkpt lon="5.786604" lat="51.116817"><ele>22.8</ele><time>2022-04-10T06:42:15.000Z</time></trkpt><trkpt lon="5.786595" lat="51.116749"><ele>22.8</ele><time>2022-04-10T06:42:16.000Z</time></trkpt><trkpt lon="5.786592" lat="51.116684"><ele>22.8</ele><time>2022-04-10T06:42:17.000Z</time></trkpt><trkpt lon="5.786592" lat="51.116617"><ele>22.8</ele><time>2022-04-10T06:42:18.000Z</time></trkpt><trkpt lon="5.786595" lat="51.116551"><ele>22.8</ele><time>2022-04-10T06:42:19.000Z</time></trkpt><trkpt lon="5.786602" lat="51.116482"><ele>22.8</ele><time>2022-04-10T06:42:20.000Z</time></trkpt><trkpt lon="5.786617" lat="51.116414"><ele>22.8</ele><time>2022-04-10T06:42:21.000Z</time></trkpt><trkpt lon="5.786636" lat="51.116348"><ele>22.8</ele><time>2022-04-10T06:42:22.000Z</time></trkpt><trkpt lon="5.786656" lat="51.116281"><ele>22.8</ele><time>2022-04-10T06:42:23.000Z</time></trkpt><trkpt lon="5.786677" lat="51.116216"><ele>22.8</ele><time>2022-04-10T06:42:24.000Z</time></trkpt><trkpt lon="5.786696" lat="51.116151"><ele>22.8</ele><time>2022-04-10T06:42:25.000Z</time></trkpt><trkpt lon="5.786718" lat="51.116086"><ele>22.8</ele><time>2022-04-10T06:42:26.000Z</time></trkpt><trkpt lon="5.78674" lat="51.116021"><ele>22.8</ele><time>2022-04-10T06:42:27.000Z</time></trkpt><trkpt lon="5.786766" lat="51.115955"><ele>22.8</ele><time>2022-04-10T06:42:28.000Z</time></trkpt><trkpt lon="5.78679" lat="51.115887"><ele>22.8</ele><time>2022-04-10T06:42:29.000Z</time></trkpt><trkpt lon="5.786813" lat="51.115822"><ele>22.8</ele><time>2022-04-10T06:42:30.000Z</time></trkpt><trkpt lon="5.786836" lat="51.115754"><ele>22.8</ele><time>2022-04-10T06:42:31.000Z</time></trkpt><trkpt lon="5.786856" lat="51.115689"><ele>22.8</ele><time>2022-04-10T06:42:32.000Z</time></trkpt><trkpt lon="5.78687" lat="51.115621"><ele>22.8</ele><time>2022-04-10T06:42:33.000Z</time></trkpt><trkpt lon="5.786883" lat="51.115555"><ele>22.8</ele><time>2022-04-10T06:42:34.000Z</time></trkpt><trkpt lon="5.786892" lat="51.115487"><ele>22.8</ele><time>2022-04-10T06:42:35.000Z</time></trkpt><trkpt lon="5.786901" lat="51.115422"><ele>22.8</ele><time>2022-04-10T06:42:36.000Z</time></trkpt><trkpt lon="5.786909" lat="51.115356"><ele>23</ele><time>2022-04-10T06:42:37.000Z</time></trkpt><trkpt lon="5.786915" lat="51.115288"><ele>23.2</ele><time>2022-04-10T06:42:38.000Z</time></trkpt><trkpt lon="5.786919" lat="51.115224"><ele>23.4</ele><time>2022-04-10T06:42:39.000Z</time></trkpt><trkpt lon="5.786922" lat="51.115157"><ele>23.4</ele><time>2022-04-10T06:42:40.000Z</time></trkpt><trkpt lon="5.786924" lat="51.11509"><ele>23.4</ele><time>2022-04-10T06:42:41.000Z</time></trkpt><trkpt lon="5.786925" lat="51.115025"><ele>23.4</ele><time>2022-04-10T06:42:42.000Z</time></trkpt><trkpt lon="5.786925" lat="51.114957"><ele>23.4</ele><time>2022-04-10T06:42:43.000Z</time></trkpt><trkpt lon="5.786924" lat="51.114892"><ele>23.4</ele><time>2022-04-10T06:42:44.000Z</time></trkpt><trkpt lon="5.786921" lat="51.114828"><ele>23.4</ele><time>2022-04-10T06:42:45.000Z</time></trkpt><trkpt lon="5.78692" lat="51.114762"><ele>23.4</ele><time>2022-04-10T06:42:46.000Z</time></trkpt><trkpt lon="5.786918" lat="51.114698"><ele>23.4</ele><time>2022-04-10T06:42:47.000Z</time></trkpt><trkpt lon="5.786917" lat="51.114638"><ele>23.4</ele><time>2022-04-10T06:42:48.000Z</time></trkpt><trkpt lon="5.786919" lat="51.114578"><ele>23.4</ele><time>2022-04-10T06:42:49.000Z</time></trkpt><trkpt lon="5.786921" lat="51.114524"><ele>23.6</ele><time>2022-04-10T06:42:50.000Z</time></trkpt><trkpt lon="5.786927" lat="51.114467"><ele>23.6</ele><time>2022-04-10T06:42:51.000Z</time></trkpt><trkpt lon="5.786933" lat="51.114411"><ele>23.8</ele><time>2022-04-10T06:42:52.000Z</time></trkpt><trkpt lon="5.78694" lat="51.114352"><ele>23.8</ele><time>2022-04-10T06:42:53.000Z</time></trkpt><trkpt lon="5.786947" lat="51.11429"><ele>23.8</ele><time>2022-04-10T06:42:54.000Z</time></trkpt><trkpt lon="5.786952" lat="51.114228"><ele>24</ele><time>2022-04-10T06:42:55.000Z</time></trkpt><trkpt lon="5.786954" lat="51.114164"><ele>24</ele><time>2022-04-10T06:42:56.000Z</time></trkpt><trkpt lon="5.786953" lat="51.114103"><ele>24</ele><time>2022-04-10T06:42:57.000Z</time></trkpt><trkpt lon="5.786948" lat="51.114041"><ele>24</ele><time>2022-04-10T06:42:58.000Z</time></trkpt><trkpt lon="5.786937" lat="51.113977"><ele>24.2</ele><time>2022-04-10T06:42:59.000Z</time></trkpt><trkpt lon="5.78692" lat="51.113917"><ele>24.2</ele><time>2022-04-10T06:43:00.000Z</time></trkpt><trkpt lon="5.786896" lat="51.11386"><ele>24.4</ele><time>2022-04-10T06:43:01.000Z</time></trkpt><trkpt lon="5.786864" lat="51.113799"><ele>24.4</ele><time>2022-04-10T06:43:02.000Z</time></trkpt><trkpt lon="5.786826" lat="51.113741"><ele>24.6</ele><time>2022-04-10T06:43:03.000Z</time></trkpt><trkpt lon="5.78678" lat="51.113685"><ele>24.6</ele><time>2022-04-10T06:43:04.000Z</time></trkpt><trkpt lon="5.786727" lat="51.113632"><ele>24.6</ele><time>2022-04-10T06:43:05.000Z</time></trkpt><trkpt lon="5.78667" lat="51.11358"><ele>24.6</ele><time>2022-04-10T06:43:06.000Z</time></trkpt><trkpt lon="5.78661" lat="51.113531"><ele>24.8</ele><time>2022-04-10T06:43:07.000Z</time></trkpt><trkpt lon="5.78655" lat="51.113481"><ele>24.8</ele><time>2022-04-10T06:43:08.000Z</time></trkpt><trkpt lon="5.78649" lat="51.113431"><ele>24.8</ele><time>2022-04-10T06:43:09.000Z</time></trkpt><trkpt lon="5.78643" lat="51.113381"><ele>24.8</ele><time>2022-04-10T06:43:10.000Z</time></trkpt><trkpt lon="5.786369" lat="51.113329"><ele>24.8</ele><time>2022-04-10T06:43:11.000Z</time></trkpt><trkpt lon="5.786308" lat="51.113279"><ele>25</ele><time>2022-04-10T06:43:12.000Z</time></trkpt><trkpt lon="5.786247" lat="51.113228"><ele>24.8</ele><time>2022-04-10T06:43:13.000Z</time></trkpt><trkpt lon="5.786188" lat="51.113175"><ele>25</ele><time>2022-04-10T06:43:14.000Z</time></trkpt><trkpt lon="5.786133" lat="51.113121"><ele>25</ele><time>2022-04-10T06:43:15.000Z</time></trkpt><trkpt lon="5.786084" lat="51.113067"><ele>25</ele><time>2022-04-10T06:43:16.000Z</time></trkpt><trkpt lon="5.786042" lat="51.11301"><ele>25.2</ele><time>2022-04-10T06:43:17.000Z</time></trkpt><trkpt lon="5.786004" lat="51.112952"><ele>25</ele><time>2022-04-10T06:43:18.000Z</time></trkpt><trkpt lon="5.785971" lat="51.112894"><ele>24.8</ele><time>2022-04-10T06:43:19.000Z</time></trkpt><trkpt lon="5.785939" lat="51.112833"><ele>24.8</ele><time>2022-04-10T06:43:20.000Z</time></trkpt><trkpt lon="5.785908" lat="51.112772"><ele>24.8</ele><time>2022-04-10T06:43:21.000Z</time></trkpt><trkpt lon="5.785879" lat="51.112711"><ele>24.8</ele><time>2022-04-10T06:43:22.000Z</time></trkpt><trkpt lon="5.785851" lat="51.11265"><ele>24.8</ele><time>2022-04-10T06:43:23.000Z</time></trkpt><trkpt lon="5.785823" lat="51.112589"><ele>25</ele><time>2022-04-10T06:43:24.000Z</time></trkpt><trkpt lon="5.785794" lat="51.112529"><ele>25</ele><time>2022-04-10T06:43:25.000Z</time></trkpt><trkpt lon="5.785765" lat="51.11247"><ele>25</ele><time>2022-04-10T06:43:26.000Z</time></trkpt><trkpt lon="5.785735" lat="51.112406"><ele>25.2</ele><time>2022-04-10T06:43:27.000Z</time></trkpt><trkpt lon="5.785703" lat="51.112345"><ele>25.2</ele><time>2022-04-10T06:43:28.000Z</time></trkpt><trkpt lon="5.785673" lat="51.112283"><ele>25.2</ele><time>2022-04-10T06:43:29.000Z</time></trkpt><trkpt lon="5.785645" lat="51.112222"><ele>25.4</ele><time>2022-04-10T06:43:30.000Z</time></trkpt><trkpt lon="5.785617" lat="51.112158"><ele>25.4</ele><time>2022-04-10T06:43:31.000Z</time></trkpt><trkpt lon="5.785587" lat="51.112093"><ele>25.4</ele><time>2022-04-10T06:43:32.000Z</time></trkpt><trkpt lon="5.785555" lat="51.112032"><ele>25.6</ele><time>2022-04-10T06:43:33.000Z</time></trkpt><trkpt lon="5.78552" lat="51.11197"><ele>25.6</ele><time>2022-04-10T06:43:34.000Z</time></trkpt><trkpt lon="5.785481" lat="51.111907"><ele>25.6</ele><time>2022-04-10T06:43:35.000Z</time></trkpt><trkpt lon="5.785435" lat="51.11185"><ele>25.8</ele><time>2022-04-10T06:43:36.000Z</time></trkpt><trkpt lon="5.785385" lat="51.111793"><ele>25.6</ele><time>2022-04-10T06:43:37.000Z</time></trkpt><trkpt lon="5.785331" lat="51.111737"><ele>25.8</ele><time>2022-04-10T06:43:38.000Z</time></trkpt><trkpt lon="5.785273" lat="51.111682"><ele>25.8</ele><time>2022-04-10T06:43:39.000Z</time></trkpt><trkpt lon="5.785215" lat="51.111625"><ele>25.8</ele><time>2022-04-10T06:43:40.000Z</time></trkpt><trkpt lon="5.785156" lat="51.111567"><ele>25.6</ele><time>2022-04-10T06:43:41.000Z</time></trkpt><trkpt lon="5.785097" lat="51.111511"><ele>25.6</ele><time>2022-04-10T06:43:42.000Z</time></trkpt><trkpt lon="5.785039" lat="51.111455"><ele>25.4</ele><time>2022-04-10T06:43:43.000Z</time></trkpt><trkpt lon="5.784979" lat="51.1114"><ele>25.4</ele><time>2022-04-10T06:43:44.000Z</time></trkpt><trkpt lon="5.784918" lat="51.111343"><ele>25.2</ele><time>2022-04-10T06:43:45.000Z</time></trkpt><trkpt lon="5.784859" lat="51.111285"><ele>25</ele><time>2022-04-10T06:43:46.000Z</time></trkpt><trkpt lon="5.784802" lat="51.111228"><ele>25</ele><time>2022-04-10T06:43:47.000Z</time></trkpt><trkpt lon="5.784746" lat="51.111171"><ele>25</ele><time>2022-04-10T06:43:48.000Z</time></trkpt><trkpt lon="5.784692" lat="51.111114"><ele>25</ele><time>2022-04-10T06:43:49.000Z</time></trkpt><trkpt lon="5.784642" lat="51.111057"><ele>25</ele><time>2022-04-10T06:43:50.000Z</time></trkpt><trkpt lon="5.78459" lat="51.110996"><ele>25</ele><time>2022-04-10T06:43:51.000Z</time></trkpt><trkpt lon="5.784542" lat="51.110938"><ele>25</ele><time>2022-04-10T06:43:52.000Z</time></trkpt><trkpt lon="5.784493" lat="51.110879"><ele>25</ele><time>2022-04-10T06:43:53.000Z</time></trkpt><trkpt lon="5.784444" lat="51.11082"><ele>25</ele><time>2022-04-10T06:43:54.000Z</time></trkpt><trkpt lon="5.784397" lat="51.110762"><ele>25.2</ele><time>2022-04-10T06:43:55.000Z</time></trkpt><trkpt lon="5.78435" lat="51.110705"><ele>25.2</ele><time>2022-04-10T06:43:56.000Z</time></trkpt><trkpt lon="5.784302" lat="51.110645"><ele>25.2</ele><time>2022-04-10T06:43:57.000Z</time></trkpt><trkpt lon="5.784254" lat="51.110587"><ele>25.2</ele><time>2022-04-10T06:43:58.000Z</time></trkpt><trkpt lon="5.784209" lat="51.11053"><ele>25.4</ele><time>2022-04-10T06:43:59.000Z</time></trkpt><trkpt lon="5.78416" lat="51.110469"><ele>25.2</ele><time>2022-04-10T06:44:00.000Z</time></trkpt><trkpt lon="5.784112" lat="51.110411"><ele>25.4</ele><time>2022-04-10T06:44:01.000Z</time></trkpt><trkpt lon="5.784063" lat="51.110353"><ele>25.2</ele><time>2022-04-10T06:44:02.000Z</time></trkpt><trkpt lon="5.784015" lat="51.110293"><ele>25.2</ele><time>2022-04-10T06:44:03.000Z</time></trkpt><trkpt lon="5.783969" lat="51.110235"><ele>25.4</ele><time>2022-04-10T06:44:04.000Z</time></trkpt><trkpt lon="5.783924" lat="51.110174"><ele>25.4</ele><time>2022-04-10T06:44:05.000Z</time></trkpt><trkpt lon="5.783882" lat="51.110113"><ele>25.4</ele><time>2022-04-10T06:44:06.000Z</time></trkpt><trkpt lon="5.783843" lat="51.110052"><ele>25.2</ele><time>2022-04-10T06:44:07.000Z</time></trkpt><trkpt lon="5.783805" lat="51.109988"><ele>25.2</ele><time>2022-04-10T06:44:08.000Z</time></trkpt><trkpt lon="5.783771" lat="51.109925"><ele>25.2</ele><time>2022-04-10T06:44:09.000Z</time></trkpt><trkpt lon="5.783737" lat="51.10986"><ele>25.2</ele><time>2022-04-10T06:44:10.000Z</time></trkpt><trkpt lon="5.783704" lat="51.109796"><ele>25</ele><time>2022-04-10T06:44:11.000Z</time></trkpt><trkpt lon="5.783671" lat="51.109731"><ele>25</ele><time>2022-04-10T06:44:12.000Z</time></trkpt><trkpt lon="5.783638" lat="51.109667"><ele>25.2</ele><time>2022-04-10T06:44:13.000Z</time></trkpt><trkpt lon="5.783606" lat="51.109605"><ele>25.4</ele><time>2022-04-10T06:44:14.000Z</time></trkpt><trkpt lon="5.783573" lat="51.10954"><ele>25.4</ele><time>2022-04-10T06:44:15.000Z</time></trkpt><trkpt lon="5.783543" lat="51.109475"><ele>25.4</ele><time>2022-04-10T06:44:16.000Z</time></trkpt><trkpt lon="5.783511" lat="51.10941"><ele>25.4</ele><time>2022-04-10T06:44:17.000Z</time></trkpt><trkpt lon="5.78348" lat="51.109346"><ele>25.4</ele><time>2022-04-10T06:44:18.000Z</time></trkpt><trkpt lon="5.78345" lat="51.109284"><ele>25.4</ele><time>2022-04-10T06:44:19.000Z</time></trkpt><trkpt lon="5.783417" lat="51.109217"><ele>25.2</ele><time>2022-04-10T06:44:20.000Z</time></trkpt><trkpt lon="5.783383" lat="51.109154"><ele>25.2</ele><time>2022-04-10T06:44:21.000Z</time></trkpt><trkpt lon="5.783348" lat="51.10909"><ele>25.2</ele><time>2022-04-10T06:44:22.000Z</time></trkpt><trkpt lon="5.783312" lat="51.109026"><ele>25</ele><time>2022-04-10T06:44:23.000Z</time></trkpt><trkpt lon="5.783274" lat="51.108965"><ele>25</ele><time>2022-04-10T06:44:24.000Z</time></trkpt><trkpt lon="5.783235" lat="51.108903"><ele>25</ele><time>2022-04-10T06:44:25.000Z</time></trkpt><trkpt lon="5.783194" lat="51.10884"><ele>25</ele><time>2022-04-10T06:44:26.000Z</time></trkpt><trkpt lon="5.783152" lat="51.108778"><ele>25</ele><time>2022-04-10T06:44:27.000Z</time></trkpt><trkpt lon="5.783109" lat="51.108713"><ele>25</ele><time>2022-04-10T06:44:28.000Z</time></trkpt><trkpt lon="5.783066" lat="51.108652"><ele>25</ele><time>2022-04-10T06:44:29.000Z</time></trkpt><trkpt lon="5.783021" lat="51.108591"><ele>25</ele><time>2022-04-10T06:44:30.000Z</time></trkpt><trkpt lon="5.782975" lat="51.10853"><ele>25</ele><time>2022-04-10T06:44:31.000Z</time></trkpt><trkpt lon="5.782929" lat="51.10847"><ele>25</ele><time>2022-04-10T06:44:32.000Z</time></trkpt><trkpt lon="5.782879" lat="51.108414"><ele>25</ele><time>2022-04-10T06:44:33.000Z</time></trkpt><trkpt lon="5.782826" lat="51.108359"><ele>25</ele><time>2022-04-10T06:44:34.000Z</time></trkpt><trkpt lon="5.782772" lat="51.108302"><ele>25</ele><time>2022-04-10T06:44:35.000Z</time></trkpt><trkpt lon="5.782721" lat="51.108244"><ele>25</ele><time>2022-04-10T06:44:36.000Z</time></trkpt><trkpt lon="5.782675" lat="51.108184"><ele>25.2</ele><time>2022-04-10T06:44:37.000Z</time></trkpt><trkpt lon="5.782632" lat="51.10812"><ele>25.2</ele><time>2022-04-10T06:44:38.000Z</time></trkpt><trkpt lon="5.782597" lat="51.108056"><ele>25.2</ele><time>2022-04-10T06:44:39.000Z</time></trkpt><trkpt lon="5.782569" lat="51.107991"><ele>25.2</ele><time>2022-04-10T06:44:40.000Z</time></trkpt><trkpt lon="5.78255" lat="51.107927"><ele>25</ele><time>2022-04-10T06:44:41.000Z</time></trkpt><trkpt lon="5.782538" lat="51.107861"><ele>25</ele><time>2022-04-10T06:44:42.000Z</time></trkpt><trkpt lon="5.782533" lat="51.107792"><ele>24.8</ele><time>2022-04-10T06:44:43.000Z</time></trkpt><trkpt lon="5.782535" lat="51.107723"><ele>24.6</ele><time>2022-04-10T06:44:44.000Z</time></trkpt><trkpt lon="5.782541" lat="51.107654"><ele>24.4</ele><time>2022-04-10T06:44:45.000Z</time></trkpt><trkpt lon="5.782548" lat="51.107585"><ele>24.4</ele><time>2022-04-10T06:44:46.000Z</time></trkpt><trkpt lon="5.782554" lat="51.107517"><ele>24.4</ele><time>2022-04-10T06:44:47.000Z</time></trkpt><trkpt lon="5.782558" lat="51.10745"><ele>24.2</ele><time>2022-04-10T06:44:48.000Z</time></trkpt><trkpt lon="5.782563" lat="51.107382"><ele>24.2</ele><time>2022-04-10T06:44:49.000Z</time></trkpt><trkpt lon="5.782568" lat="51.107311"><ele>24.2</ele><time>2022-04-10T06:44:50.000Z</time></trkpt><trkpt lon="5.782575" lat="51.107242"><ele>24.4</ele><time>2022-04-10T06:44:51.000Z</time></trkpt><trkpt lon="5.782581" lat="51.107174"><ele>24.4</ele><time>2022-04-10T06:44:52.000Z</time></trkpt><trkpt lon="5.782586" lat="51.107104"><ele>24.6</ele><time>2022-04-10T06:44:53.000Z</time></trkpt><trkpt lon="5.782592" lat="51.107033"><ele>24.6</ele><time>2022-04-10T06:44:54.000Z</time></trkpt><trkpt lon="5.782599" lat="51.106965"><ele>24.4</ele><time>2022-04-10T06:44:55.000Z</time></trkpt><trkpt lon="5.782609" lat="51.106899"><ele>24.4</ele><time>2022-04-10T06:44:56.000Z</time></trkpt><trkpt lon="5.782618" lat="51.106829"><ele>24.2</ele><time>2022-04-10T06:44:57.000Z</time></trkpt><trkpt lon="5.782623" lat="51.106758"><ele>24.2</ele><time>2022-04-10T06:44:58.000Z</time></trkpt><trkpt lon="5.782628" lat="51.10669"><ele>24</ele><time>2022-04-10T06:44:59.000Z</time></trkpt><trkpt lon="5.782632" lat="51.10662"><ele>23.8</ele><time>2022-04-10T06:45:00.000Z</time></trkpt><trkpt lon="5.78264" lat="51.106552"><ele>23.6</ele><time>2022-04-10T06:45:01.000Z</time></trkpt><trkpt lon="5.782644" lat="51.106486"><ele>23.6</ele><time>2022-04-10T06:45:02.000Z</time></trkpt><trkpt lon="5.782644" lat="51.106425"><ele>23.4</ele><time>2022-04-10T06:45:03.000Z</time></trkpt><trkpt lon="5.782638" lat="51.106362"><ele>23.4</ele><time>2022-04-10T06:45:04.000Z</time></trkpt><trkpt lon="5.782629" lat="51.106292"><ele>23.2</ele><time>2022-04-10T06:45:05.000Z</time></trkpt><trkpt lon="5.782619" lat="51.106224"><ele>23.2</ele><time>2022-04-10T06:45:06.000Z</time></trkpt><trkpt lon="5.782612" lat="51.106154"><ele>23.2</ele><time>2022-04-10T06:45:07.000Z</time></trkpt><trkpt lon="5.782607" lat="51.106081"><ele>23.2</ele><time>2022-04-10T06:45:08.000Z</time></trkpt><trkpt lon="5.782602" lat="51.10601"><ele>23.2</ele><time>2022-04-10T06:45:09.000Z</time></trkpt><trkpt lon="5.7826" lat="51.105938"><ele>23.2</ele><time>2022-04-10T06:45:10.000Z</time></trkpt><trkpt lon="5.7826" lat="51.105868"><ele>23.4</ele><time>2022-04-10T06:45:11.000Z</time></trkpt><trkpt lon="5.782606" lat="51.105796"><ele>23.8</ele><time>2022-04-10T06:45:12.000Z</time></trkpt><trkpt lon="5.782617" lat="51.105725"><ele>23.6</ele><time>2022-04-10T06:45:13.000Z</time></trkpt><trkpt lon="5.782632" lat="51.105659"><ele>23.8</ele><time>2022-04-10T06:45:14.000Z</time></trkpt><trkpt lon="5.782651" lat="51.10559"><ele>23.8</ele><time>2022-04-10T06:45:15.000Z</time></trkpt><trkpt lon="5.782675" lat="51.105523"><ele>23.8</ele><time>2022-04-10T06:45:16.000Z</time></trkpt><trkpt lon="5.782704" lat="51.105457"><ele>23.8</ele><time>2022-04-10T06:45:17.000Z</time></trkpt><trkpt lon="5.782737" lat="51.105389"><ele>23.8</ele><time>2022-04-10T06:45:18.000Z</time></trkpt><trkpt lon="5.782774" lat="51.105324"><ele>24</ele><time>2022-04-10T06:45:19.000Z</time></trkpt><trkpt lon="5.782814" lat="51.105257"><ele>24</ele><time>2022-04-10T06:45:20.000Z</time></trkpt><trkpt lon="5.782861" lat="51.105194"><ele>24</ele><time>2022-04-10T06:45:21.000Z</time></trkpt><trkpt lon="5.782916" lat="51.105132"><ele>24.2</ele><time>2022-04-10T06:45:22.000Z</time></trkpt><trkpt lon="5.782979" lat="51.105077"><ele>24.2</ele><time>2022-04-10T06:45:23.000Z</time></trkpt><trkpt lon="5.783051" lat="51.105024"><ele>24.4</ele><time>2022-04-10T06:45:24.000Z</time></trkpt><trkpt lon="5.78313" lat="51.10497"><ele>24.4</ele><time>2022-04-10T06:45:25.000Z</time></trkpt><trkpt lon="5.783211" lat="51.104922"><ele>24.4</ele><time>2022-04-10T06:45:26.000Z</time></trkpt><trkpt lon="5.783295" lat="51.104876"><ele>24.2</ele><time>2022-04-10T06:45:27.000Z</time></trkpt><trkpt lon="5.783381" lat="51.104833"><ele>24.2</ele><time>2022-04-10T06:45:28.000Z</time></trkpt><trkpt lon="5.783469" lat="51.104793"><ele>24.4</ele><time>2022-04-10T06:45:29.000Z</time></trkpt><trkpt lon="5.783558" lat="51.104752"><ele>24.4</ele><time>2022-04-10T06:45:30.000Z</time></trkpt><trkpt lon="5.783645" lat="51.104714"><ele>24.4</ele><time>2022-04-10T06:45:31.000Z</time></trkpt><trkpt lon="5.783731" lat="51.104677"><ele>24.4</ele><time>2022-04-10T06:45:32.000Z</time></trkpt><trkpt lon="5.783815" lat="51.104643"><ele>24.6</ele><time>2022-04-10T06:45:33.000Z</time></trkpt><trkpt lon="5.783897" lat="51.104607"><ele>24.8</ele><time>2022-04-10T06:45:34.000Z</time></trkpt><trkpt lon="5.783978" lat="51.10457"><ele>24.8</ele><time>2022-04-10T06:45:35.000Z</time></trkpt><trkpt lon="5.784056" lat="51.104535"><ele>24.8</ele><time>2022-04-10T06:45:36.000Z</time></trkpt><trkpt lon="5.784128" lat="51.104497"><ele>25</ele><time>2022-04-10T06:45:37.000Z</time></trkpt><trkpt lon="5.784187" lat="51.104457"><ele>25</ele><time>2022-04-10T06:45:38.000Z</time></trkpt><trkpt lon="5.78422" lat="51.104414"><ele>25.2</ele><time>2022-04-10T06:45:39.000Z</time></trkpt><trkpt lon="5.784222" lat="51.104369"><ele>25</ele><time>2022-04-10T06:45:40.000Z</time></trkpt><trkpt lon="5.784195" lat="51.104322"><ele>25.2</ele><time>2022-04-10T06:45:41.000Z</time></trkpt><trkpt lon="5.784157" lat="51.104271"><ele>25.2</ele><time>2022-04-10T06:45:42.000Z</time></trkpt><trkpt lon="5.784116" lat="51.104218"><ele>25</ele><time>2022-04-10T06:45:43.000Z</time></trkpt><trkpt lon="5.784074" lat="51.104163"><ele>25</ele><time>2022-04-10T06:45:44.000Z</time></trkpt><trkpt lon="5.784032" lat="51.104107"><ele>25.2</ele><time>2022-04-10T06:45:45.000Z</time></trkpt><trkpt lon="5.783998" lat="51.104054"><ele>25.2</ele><time>2022-04-10T06:45:46.000Z</time></trkpt><trkpt lon="5.783987" lat="51.104"><ele>25.2</ele><time>2022-04-10T06:45:47.000Z</time></trkpt><trkpt lon="5.784004" lat="51.103951"><ele>25</ele><time>2022-04-10T06:45:48.000Z</time></trkpt><trkpt lon="5.784053" lat="51.103912"><ele>25</ele><time>2022-04-10T06:45:49.000Z</time></trkpt><trkpt lon="5.784132" lat="51.103885"><ele>24.8</ele><time>2022-04-10T06:45:50.000Z</time></trkpt><trkpt lon="5.784228" lat="51.103871"><ele>24.6</ele><time>2022-04-10T06:45:51.000Z</time></trkpt><trkpt lon="5.784328" lat="51.103862"><ele>24.6</ele><time>2022-04-10T06:45:52.000Z</time></trkpt><trkpt lon="5.784432" lat="51.103858"><ele>24.6</ele><time>2022-04-10T06:45:53.000Z</time></trkpt><trkpt lon="5.784539" lat="51.103856"><ele>24.4</ele><time>2022-04-10T06:45:54.000Z</time></trkpt><trkpt lon="5.784648" lat="51.103859"><ele>24.4</ele><time>2022-04-10T06:45:55.000Z</time></trkpt><trkpt lon="5.784761" lat="51.103859"><ele>24.2</ele><time>2022-04-10T06:45:56.000Z</time></trkpt><trkpt lon="5.784872" lat="51.103858"><ele>24.2</ele><time>2022-04-10T06:45:57.000Z</time></trkpt><trkpt lon="5.784983" lat="51.103854"><ele>24</ele><time>2022-04-10T06:45:58.000Z</time></trkpt><trkpt lon="5.785095" lat="51.103848"><ele>23.8</ele><time>2022-04-10T06:45:59.000Z</time></trkpt><trkpt lon="5.785209" lat="51.103835"><ele>23.8</ele><time>2022-04-10T06:46:00.000Z</time></trkpt><trkpt lon="5.785318" lat="51.103819"><ele>23.8</ele><time>2022-04-10T06:46:01.000Z</time></trkpt><trkpt lon="5.785426" lat="51.103801"><ele>23.6</ele><time>2022-04-10T06:46:02.000Z</time></trkpt><trkpt lon="5.785535" lat="51.103786"><ele>23.4</ele><time>2022-04-10T06:46:03.000Z</time></trkpt><trkpt lon="5.785647" lat="51.103771"><ele>23.4</ele><time>2022-04-10T06:46:04.000Z</time></trkpt><trkpt lon="5.785761" lat="51.103756"><ele>23.2</ele><time>2022-04-10T06:46:05.000Z</time></trkpt><trkpt lon="5.785874" lat="51.103744"><ele>23</ele><time>2022-04-10T06:46:06.000Z</time></trkpt><trkpt lon="5.785984" lat="51.103728"><ele>23</ele><time>2022-04-10T06:46:07.000Z</time></trkpt><trkpt lon="5.786094" lat="51.103707"><ele>22.8</ele><time>2022-04-10T06:46:08.000Z</time></trkpt><trkpt lon="5.786202" lat="51.103683"><ele>22.6</ele><time>2022-04-10T06:46:09.000Z</time></trkpt><trkpt lon="5.786306" lat="51.103657"><ele>22.6</ele><time>2022-04-10T06:46:10.000Z</time></trkpt><trkpt lon="5.786409" lat="51.10363"><ele>22.6</ele><time>2022-04-10T06:46:11.000Z</time></trkpt><trkpt lon="5.786512" lat="51.103603"><ele>22.6</ele><time>2022-04-10T06:46:12.000Z</time></trkpt><trkpt lon="5.786615" lat="51.103573"><ele>22.4</ele><time>2022-04-10T06:46:13.000Z</time></trkpt><trkpt lon="5.786714" lat="51.103546"><ele>22.4</ele><time>2022-04-10T06:46:14.000Z</time></trkpt><trkpt lon="5.786811" lat="51.10352"><ele>22.4</ele><time>2022-04-10T06:46:15.000Z</time></trkpt><trkpt lon="5.78691" lat="51.103493"><ele>22.4</ele><time>2022-04-10T06:46:16.000Z</time></trkpt><trkpt lon="5.787008" lat="51.103465"><ele>22.6</ele><time>2022-04-10T06:46:17.000Z</time></trkpt><trkpt lon="5.787104" lat="51.103436"><ele>22.6</ele><time>2022-04-10T06:46:18.000Z</time></trkpt><trkpt lon="5.787198" lat="51.103409"><ele>22.8</ele><time>2022-04-10T06:46:19.000Z</time></trkpt><trkpt lon="5.787292" lat="51.103383"><ele>22.8</ele><time>2022-04-10T06:46:20.000Z</time></trkpt><trkpt lon="5.787385" lat="51.103356"><ele>23</ele><time>2022-04-10T06:46:21.000Z</time></trkpt><trkpt lon="5.787475" lat="51.103329"><ele>23</ele><time>2022-04-10T06:46:22.000Z</time></trkpt><trkpt lon="5.78756" lat="51.103303"><ele>23</ele><time>2022-04-10T06:46:23.000Z</time></trkpt><trkpt lon="5.787642" lat="51.103279"><ele>23</ele><time>2022-04-10T06:46:24.000Z</time></trkpt><trkpt lon="5.787718" lat="51.103255"><ele>23</ele><time>2022-04-10T06:46:25.000Z</time></trkpt><trkpt lon="5.787787" lat="51.103233"><ele>23</ele><time>2022-04-10T06:46:26.000Z</time></trkpt><trkpt lon="5.787837" lat="51.103205"><ele>23.2</ele><time>2022-04-10T06:46:27.000Z</time></trkpt><trkpt lon="5.787849" lat="51.103169"><ele>23.2</ele><time>2022-04-10T06:46:28.000Z</time></trkpt><trkpt lon="5.78782" lat="51.103129"><ele>23.4</ele><time>2022-04-10T06:46:29.000Z</time></trkpt><trkpt lon="5.787774" lat="51.103083"><ele>23.4</ele><time>2022-04-10T06:46:30.000Z</time></trkpt><trkpt lon="5.787726" lat="51.103036"><ele>23.4</ele><time>2022-04-10T06:46:31.000Z</time></trkpt><trkpt lon="5.787676" lat="51.102982"><ele>23.4</ele><time>2022-04-10T06:46:32.000Z</time></trkpt><trkpt lon="5.787631" lat="51.102927"><ele>23.2</ele><time>2022-04-10T06:46:33.000Z</time></trkpt><trkpt lon="5.787591" lat="51.102866"><ele>23.2</ele><time>2022-04-10T06:46:34.000Z</time></trkpt><trkpt lon="5.787553" lat="51.102804"><ele>23.2</ele><time>2022-04-10T06:46:35.000Z</time></trkpt><trkpt lon="5.787518" lat="51.102743"><ele>23.4</ele><time>2022-04-10T06:46:36.000Z</time></trkpt><trkpt lon="5.78749" lat="51.102682"><ele>23.4</ele><time>2022-04-10T06:46:37.000Z</time></trkpt><trkpt lon="5.787475" lat="51.102619"><ele>23.6</ele><time>2022-04-10T06:46:38.000Z</time></trkpt><trkpt lon="5.787473" lat="51.10255"><ele>23.4</ele><time>2022-04-10T06:46:39.000Z</time></trkpt><trkpt lon="5.78748" lat="51.102482"><ele>23.2</ele><time>2022-04-10T06:46:40.000Z</time></trkpt><trkpt lon="5.787492" lat="51.102419"><ele>23.2</ele><time>2022-04-10T06:46:41.000Z</time></trkpt><trkpt lon="5.787504" lat="51.102357"><ele>23.2</ele><time>2022-04-10T06:46:42.000Z</time></trkpt><trkpt lon="5.787518" lat="51.102291"><ele>23.2</ele><time>2022-04-10T06:46:43.000Z</time></trkpt><trkpt lon="5.78753" lat="51.102223"><ele>23.2</ele><time>2022-04-10T06:46:44.000Z</time></trkpt><trkpt lon="5.787543" lat="51.102158"><ele>23.4</ele><time>2022-04-10T06:46:45.000Z</time></trkpt><trkpt lon="5.787554" lat="51.102094"><ele>23.4</ele><time>2022-04-10T06:46:46.000Z</time></trkpt><trkpt lon="5.787568" lat="51.102028"><ele>23.6</ele><time>2022-04-10T06:46:47.000Z</time></trkpt><trkpt lon="5.787582" lat="51.101964"><ele>23.4</ele><time>2022-04-10T06:46:48.000Z</time></trkpt><trkpt lon="5.787593" lat="51.1019"><ele>23.4</ele><time>2022-04-10T06:46:49.000Z</time></trkpt><trkpt lon="5.787601" lat="51.101834"><ele>23.4</ele><time>2022-04-10T06:46:50.000Z</time></trkpt><trkpt lon="5.787609" lat="51.101768"><ele>23.6</ele><time>2022-04-10T06:46:51.000Z</time></trkpt><trkpt lon="5.787618" lat="51.1017"><ele>23.4</ele><time>2022-04-10T06:46:52.000Z</time></trkpt><trkpt lon="5.78763" lat="51.101635"><ele>23.4</ele><time>2022-04-10T06:46:53.000Z</time></trkpt><trkpt lon="5.787643" lat="51.101567"><ele>23.4</ele><time>2022-04-10T06:46:54.000Z</time></trkpt><trkpt lon="5.787654" lat="51.101502"><ele>23.4</ele><time>2022-04-10T06:46:55.000Z</time></trkpt><trkpt lon="5.787665" lat="51.101437"><ele>23.4</ele><time>2022-04-10T06:46:56.000Z</time></trkpt><trkpt lon="5.787678" lat="51.101369"><ele>23.4</ele><time>2022-04-10T06:46:57.000Z</time></trkpt><trkpt lon="5.787695" lat="51.101303"><ele>23.4</ele><time>2022-04-10T06:46:58.000Z</time></trkpt><trkpt lon="5.787711" lat="51.101236"><ele>23.2</ele><time>2022-04-10T06:46:59.000Z</time></trkpt><trkpt lon="5.787727" lat="51.101171"><ele>23.4</ele><time>2022-04-10T06:47:00.000Z</time></trkpt><trkpt lon="5.787743" lat="51.101102"><ele>23.2</ele><time>2022-04-10T06:47:01.000Z</time></trkpt><trkpt lon="5.787757" lat="51.101036"><ele>23.2</ele><time>2022-04-10T06:47:02.000Z</time></trkpt><trkpt lon="5.787772" lat="51.100969"><ele>23.2</ele><time>2022-04-10T06:47:03.000Z</time></trkpt><trkpt lon="5.787787" lat="51.100902"><ele>23.2</ele><time>2022-04-10T06:47:04.000Z</time></trkpt><trkpt lon="5.787802" lat="51.100833"><ele>23.2</ele><time>2022-04-10T06:47:05.000Z</time></trkpt><trkpt lon="5.787816" lat="51.100766"><ele>23.2</ele><time>2022-04-10T06:47:06.000Z</time></trkpt><trkpt lon="5.787831" lat="51.100699"><ele>23.2</ele><time>2022-04-10T06:47:07.000Z</time></trkpt><trkpt lon="5.787846" lat="51.100631"><ele>23.2</ele><time>2022-04-10T06:47:08.000Z</time></trkpt><trkpt lon="5.787861" lat="51.100563"><ele>23.2</ele><time>2022-04-10T06:47:09.000Z</time></trkpt><trkpt lon="5.787878" lat="51.100496"><ele>23.2</ele><time>2022-04-10T06:47:10.000Z</time></trkpt><trkpt lon="5.787894" lat="51.10043"><ele>23</ele><time>2022-04-10T06:47:11.000Z</time></trkpt><trkpt lon="5.787907" lat="51.100362"><ele>23</ele><time>2022-04-10T06:47:12.000Z</time></trkpt><trkpt lon="5.787921" lat="51.100296"><ele>22.8</ele><time>2022-04-10T06:47:13.000Z</time></trkpt><trkpt lon="5.787936" lat="51.10023"><ele>22.8</ele><time>2022-04-10T06:47:14.000Z</time></trkpt><trkpt lon="5.787952" lat="51.100164"><ele>22.8</ele><time>2022-04-10T06:47:15.000Z</time></trkpt><trkpt lon="5.787967" lat="51.100099"><ele>23</ele><time>2022-04-10T06:47:16.000Z</time></trkpt><trkpt lon="5.787983" lat="51.100035"><ele>23</ele><time>2022-04-10T06:47:17.000Z</time></trkpt><trkpt lon="5.788" lat="51.099969"><ele>23</ele><time>2022-04-10T06:47:18.000Z</time></trkpt><trkpt lon="5.788019" lat="51.099906"><ele>23</ele><time>2022-04-10T06:47:19.000Z</time></trkpt><trkpt lon="5.788039" lat="51.099848"><ele>23.2</ele><time>2022-04-10T06:47:20.000Z</time></trkpt><trkpt lon="5.788059" lat="51.099788"><ele>23.2</ele><time>2022-04-10T06:47:21.000Z</time></trkpt><trkpt lon="5.788076" lat="51.099732"><ele>23.2</ele><time>2022-04-10T06:47:22.000Z</time></trkpt><trkpt lon="5.788091" lat="51.099679"><ele>23.4</ele><time>2022-04-10T06:47:23.000Z</time></trkpt><trkpt lon="5.7881" lat="51.099626"><ele>23.4</ele><time>2022-04-10T06:47:24.000Z</time></trkpt><trkpt lon="5.7881" lat="51.099579"><ele>23.6</ele><time>2022-04-10T06:47:25.000Z</time></trkpt><trkpt lon="5.788092" lat="51.099535"><ele>23.4</ele><time>2022-04-10T06:47:26.000Z</time></trkpt><trkpt lon="5.788086" lat="51.099485"><ele>23.4</ele><time>2022-04-10T06:47:27.000Z</time></trkpt><trkpt lon="5.788097" lat="51.099438"><ele>23.4</ele><time>2022-04-10T06:47:28.000Z</time></trkpt><trkpt lon="5.788136" lat="51.0994"><ele>23.4</ele><time>2022-04-10T06:47:29.000Z</time></trkpt><trkpt lon="5.788195" lat="51.099381"><ele>23.4</ele><time>2022-04-10T06:47:30.000Z</time></trkpt><trkpt lon="5.788268" lat="51.099386"><ele>23.6</ele><time>2022-04-10T06:47:31.000Z</time></trkpt><trkpt lon="5.788352" lat="51.099405"><ele>23.6</ele><time>2022-04-10T06:47:32.000Z</time></trkpt><trkpt lon="5.788446" lat="51.099422"><ele>23.4</ele><time>2022-04-10T06:47:33.000Z</time></trkpt><trkpt lon="5.788546" lat="51.099432"><ele>23.4</ele><time>2022-04-10T06:47:34.000Z</time></trkpt><trkpt lon="5.78865" lat="51.09944"><ele>23.6</ele><time>2022-04-10T06:47:35.000Z</time></trkpt><trkpt lon="5.788753" lat="51.099448"><ele>23.6</ele><time>2022-04-10T06:47:36.000Z</time></trkpt><trkpt lon="5.788857" lat="51.099459"><ele>23.6</ele><time>2022-04-10T06:47:37.000Z</time></trkpt><trkpt lon="5.788967" lat="51.099468"><ele>23.6</ele><time>2022-04-10T06:47:38.000Z</time></trkpt><trkpt lon="5.789074" lat="51.099478"><ele>23.6</ele><time>2022-04-10T06:47:39.000Z</time></trkpt><trkpt lon="5.78918" lat="51.099487"><ele>23.6</ele><time>2022-04-10T06:47:40.000Z</time></trkpt><trkpt lon="5.789286" lat="51.099497"><ele>23.6</ele><time>2022-04-10T06:47:41.000Z</time></trkpt><trkpt lon="5.789395" lat="51.099505"><ele>23.6</ele><time>2022-04-10T06:47:42.000Z</time></trkpt><trkpt lon="5.789502" lat="51.099513"><ele>23.4</ele><time>2022-04-10T06:47:43.000Z</time></trkpt><trkpt lon="5.78961" lat="51.099523"><ele>23.4</ele><time>2022-04-10T06:47:44.000Z</time></trkpt><trkpt lon="5.789722" lat="51.099528"><ele>23.4</ele><time>2022-04-10T06:47:45.000Z</time></trkpt><trkpt lon="5.789831" lat="51.099535"><ele>23.2</ele><time>2022-04-10T06:47:46.000Z</time></trkpt><trkpt lon="5.78994" lat="51.099543"><ele>23</ele><time>2022-04-10T06:47:47.000Z</time></trkpt><trkpt lon="5.79005" lat="51.099549"><ele>23</ele><time>2022-04-10T06:47:48.000Z</time></trkpt><trkpt lon="5.79016" lat="51.099553"><ele>23</ele><time>2022-04-10T06:47:49.000Z</time></trkpt><trkpt lon="5.79027" lat="51.099557"><ele>23</ele><time>2022-04-10T06:47:50.000Z</time></trkpt><trkpt lon="5.790378" lat="51.09956"><ele>22.8</ele><time>2022-04-10T06:47:51.000Z</time></trkpt><trkpt lon="5.790486" lat="51.099561"><ele>22.8</ele><time>2022-04-10T06:47:52.000Z</time></trkpt><trkpt lon="5.790594" lat="51.099564"><ele>22.8</ele><time>2022-04-10T06:47:53.000Z</time></trkpt><trkpt lon="5.790701" lat="51.099565"><ele>22.8</ele><time>2022-04-10T06:47:54.000Z</time></trkpt><trkpt lon="5.79081" lat="51.099567"><ele>23</ele><time>2022-04-10T06:47:55.000Z</time></trkpt><trkpt lon="5.790918" lat="51.099567"><ele>23</ele><time>2022-04-10T06:47:56.000Z</time></trkpt><trkpt lon="5.791028" lat="51.099566"><ele>23</ele><time>2022-04-10T06:47:57.000Z</time></trkpt><trkpt lon="5.791137" lat="51.099562"><ele>23</ele><time>2022-04-10T06:47:58.000Z</time></trkpt><trkpt lon="5.791244" lat="51.09956"><ele>23</ele><time>2022-04-10T06:47:59.000Z</time></trkpt><trkpt lon="5.791352" lat="51.099559"><ele>23.2</ele><time>2022-04-10T06:48:00.000Z</time></trkpt><trkpt lon="5.791459" lat="51.099555"><ele>23.2</ele><time>2022-04-10T06:48:01.000Z</time></trkpt><trkpt lon="5.791565" lat="51.099551"><ele>23.2</ele><time>2022-04-10T06:48:02.000Z</time></trkpt><trkpt lon="5.79167" lat="51.099547"><ele>23.2</ele><time>2022-04-10T06:48:03.000Z</time></trkpt><trkpt lon="5.791777" lat="51.099542"><ele>23.2</ele><time>2022-04-10T06:48:04.000Z</time></trkpt><trkpt lon="5.791884" lat="51.099536"><ele>23.2</ele><time>2022-04-10T06:48:05.000Z</time></trkpt><trkpt lon="5.79199" lat="51.099531"><ele>23</ele><time>2022-04-10T06:48:06.000Z</time></trkpt><trkpt lon="5.792094" lat="51.099523"><ele>23</ele><time>2022-04-10T06:48:07.000Z</time></trkpt><trkpt lon="5.792202" lat="51.099516"><ele>23</ele><time>2022-04-10T06:48:08.000Z</time></trkpt><trkpt lon="5.79231" lat="51.099507"><ele>23.2</ele><time>2022-04-10T06:48:09.000Z</time></trkpt><trkpt lon="5.792418" lat="51.099497"><ele>23.2</ele><time>2022-04-10T06:48:10.000Z</time></trkpt><trkpt lon="5.792524" lat="51.099488"><ele>23</ele><time>2022-04-10T06:48:11.000Z</time></trkpt><trkpt lon="5.792634" lat="51.099477"><ele>23</ele><time>2022-04-10T06:48:12.000Z</time></trkpt><trkpt lon="5.792743" lat="51.099465"><ele>23</ele><time>2022-04-10T06:48:13.000Z</time></trkpt><trkpt lon="5.792852" lat="51.099453"><ele>23</ele><time>2022-04-10T06:48:14.000Z</time></trkpt><trkpt lon="5.792961" lat="51.099438"><ele>23.2</ele><time>2022-04-10T06:48:15.000Z</time></trkpt><trkpt lon="5.793068" lat="51.099426"><ele>23</ele><time>2022-04-10T06:48:16.000Z</time></trkpt><trkpt lon="5.793175" lat="51.099411"><ele>23</ele><time>2022-04-10T06:48:17.000Z</time></trkpt><trkpt lon="5.793283" lat="51.099395"><ele>22.8</ele><time>2022-04-10T06:48:18.000Z</time></trkpt><trkpt lon="5.793391" lat="51.09938"><ele>22.8</ele><time>2022-04-10T06:48:19.000Z</time></trkpt><trkpt lon="5.793496" lat="51.099364"><ele>22.8</ele><time>2022-04-10T06:48:20.000Z</time></trkpt><trkpt lon="5.793602" lat="51.099346"><ele>22.8</ele><time>2022-04-10T06:48:21.000Z</time></trkpt><trkpt lon="5.793708" lat="51.099329"><ele>22.8</ele><time>2022-04-10T06:48:22.000Z</time></trkpt><trkpt lon="5.793813" lat="51.09931"><ele>22.6</ele><time>2022-04-10T06:48:23.000Z</time></trkpt><trkpt lon="5.793917" lat="51.099292"><ele>22.6</ele><time>2022-04-10T06:48:24.000Z</time></trkpt><trkpt lon="5.794018" lat="51.099275"><ele>22.8</ele><time>2022-04-10T06:48:25.000Z</time></trkpt><trkpt lon="5.794119" lat="51.099255"><ele>22.8</ele><time>2022-04-10T06:48:26.000Z</time></trkpt><trkpt lon="5.794224" lat="51.099237"><ele>23</ele><time>2022-04-10T06:48:27.000Z</time></trkpt><trkpt lon="5.794327" lat="51.099215"><ele>23</ele><time>2022-04-10T06:48:28.000Z</time></trkpt><trkpt lon="5.794428" lat="51.099195"><ele>23</ele><time>2022-04-10T06:48:29.000Z</time></trkpt><trkpt lon="5.794527" lat="51.099173"><ele>23.2</ele><time>2022-04-10T06:48:30.000Z</time></trkpt><trkpt lon="5.794626" lat="51.099155"><ele>23.2</ele><time>2022-04-10T06:48:31.000Z</time></trkpt><trkpt lon="5.79473" lat="51.099134"><ele>23.2</ele><time>2022-04-10T06:48:32.000Z</time></trkpt><trkpt lon="5.794829" lat="51.099111"><ele>23.2</ele><time>2022-04-10T06:48:33.000Z</time></trkpt><trkpt lon="5.794929" lat="51.099088"><ele>23.2</ele><time>2022-04-10T06:48:34.000Z</time></trkpt><trkpt lon="5.795025" lat="51.099065"><ele>23.4</ele><time>2022-04-10T06:48:35.000Z</time></trkpt><trkpt lon="5.795121" lat="51.099042"><ele>23.4</ele><time>2022-04-10T06:48:36.000Z</time></trkpt><trkpt lon="5.795219" lat="51.099019"><ele>23.4</ele><time>2022-04-10T06:48:37.000Z</time></trkpt><trkpt lon="5.795315" lat="51.098997"><ele>23.2</ele><time>2022-04-10T06:48:38.000Z</time></trkpt><trkpt lon="5.79541" lat="51.098974"><ele>23.4</ele><time>2022-04-10T06:48:39.000Z</time></trkpt><trkpt lon="5.795502" lat="51.098952"><ele>23.6</ele><time>2022-04-10T06:48:40.000Z</time></trkpt><trkpt lon="5.795591" lat="51.098932"><ele>23.8</ele><time>2022-04-10T06:48:41.000Z</time></trkpt><trkpt lon="5.795675" lat="51.09891"><ele>23.8</ele><time>2022-04-10T06:48:42.000Z</time></trkpt><trkpt lon="5.795759" lat="51.098889"><ele>24</ele><time>2022-04-10T06:48:43.000Z</time></trkpt><trkpt lon="5.795835" lat="51.098862"><ele>24</ele><time>2022-04-10T06:48:44.000Z</time></trkpt><trkpt lon="5.795908" lat="51.098835"><ele>24</ele><time>2022-04-10T06:48:45.000Z</time></trkpt><trkpt lon="5.795985" lat="51.098812"><ele>24</ele><time>2022-04-10T06:48:46.000Z</time></trkpt><trkpt lon="5.796073" lat="51.0988"><ele>24</ele><time>2022-04-10T06:48:47.000Z</time></trkpt><trkpt lon="5.796168" lat="51.098797"><ele>23.8</ele><time>2022-04-10T06:48:48.000Z</time></trkpt><trkpt lon="5.796265" lat="51.098798"><ele>23.8</ele><time>2022-04-10T06:48:49.000Z</time></trkpt><trkpt lon="5.796364" lat="51.098801"><ele>23.8</ele><time>2022-04-10T06:48:50.000Z</time></trkpt><trkpt lon="5.796465" lat="51.098799"><ele>23.8</ele><time>2022-04-10T06:48:51.000Z</time></trkpt><trkpt lon="5.796567" lat="51.098788"><ele>23.8</ele><time>2022-04-10T06:48:52.000Z</time></trkpt><trkpt lon="5.796667" lat="51.098768"><ele>23.8</ele><time>2022-04-10T06:48:53.000Z</time></trkpt><trkpt lon="5.796766" lat="51.098743"><ele>23.6</ele><time>2022-04-10T06:48:54.000Z</time></trkpt><trkpt lon="5.796864" lat="51.098712"><ele>23.6</ele><time>2022-04-10T06:48:55.000Z</time></trkpt><trkpt lon="5.796961" lat="51.098682"><ele>23.6</ele><time>2022-04-10T06:48:56.000Z</time></trkpt><trkpt lon="5.797057" lat="51.098651"><ele>23.6</ele><time>2022-04-10T06:48:57.000Z</time></trkpt><trkpt lon="5.797153" lat="51.098621"><ele>23.6</ele><time>2022-04-10T06:48:58.000Z</time></trkpt><trkpt lon="5.797246" lat="51.098588"><ele>23.6</ele><time>2022-04-10T06:48:59.000Z</time></trkpt><trkpt lon="5.797338" lat="51.098551"><ele>23.6</ele><time>2022-04-10T06:49:00.000Z</time></trkpt><trkpt lon="5.797426" lat="51.098516"><ele>23.8</ele><time>2022-04-10T06:49:01.000Z</time></trkpt><trkpt lon="5.797513" lat="51.098478"><ele>23.6</ele><time>2022-04-10T06:49:02.000Z</time></trkpt><trkpt lon="5.797602" lat="51.098439"><ele>23.4</ele><time>2022-04-10T06:49:03.000Z</time></trkpt><trkpt lon="5.797685" lat="51.0984"><ele>23.2</ele><time>2022-04-10T06:49:04.000Z</time></trkpt><trkpt lon="5.797763" lat="51.098357"><ele>23.2</ele><time>2022-04-10T06:49:05.000Z</time></trkpt><trkpt lon="5.797839" lat="51.09831"><ele>23</ele><time>2022-04-10T06:49:06.000Z</time></trkpt><trkpt lon="5.797911" lat="51.098261"><ele>23</ele><time>2022-04-10T06:49:07.000Z</time></trkpt><trkpt lon="5.797985" lat="51.098211"><ele>23.2</ele><time>2022-04-10T06:49:08.000Z</time></trkpt><trkpt lon="5.798058" lat="51.09816"><ele>23.2</ele><time>2022-04-10T06:49:09.000Z</time></trkpt><trkpt lon="5.79813" lat="51.098108"><ele>23.2</ele><time>2022-04-10T06:49:10.000Z</time></trkpt><trkpt lon="5.7982" lat="51.09806"><ele>23.2</ele><time>2022-04-10T06:49:11.000Z</time></trkpt><trkpt lon="5.798272" lat="51.09801"><ele>22.8</ele><time>2022-04-10T06:49:12.000Z</time></trkpt><trkpt lon="5.798341" lat="51.097961"><ele>22.8</ele><time>2022-04-10T06:49:13.000Z</time></trkpt><trkpt lon="5.798411" lat="51.09791"><ele>22.8</ele><time>2022-04-10T06:49:14.000Z</time></trkpt><trkpt lon="5.798481" lat="51.097858"><ele>23</ele><time>2022-04-10T06:49:15.000Z</time></trkpt><trkpt lon="5.798555" lat="51.097807"><ele>23</ele><time>2022-04-10T06:49:16.000Z</time></trkpt><trkpt lon="5.798622" lat="51.097757"><ele>22.8</ele><time>2022-04-10T06:49:17.000Z</time></trkpt><trkpt lon="5.798692" lat="51.097708"><ele>22.8</ele><time>2022-04-10T06:49:18.000Z</time></trkpt><trkpt lon="5.798765" lat="51.097659"><ele>22.8</ele><time>2022-04-10T06:49:19.000Z</time></trkpt><trkpt lon="5.798837" lat="51.097613"><ele>23</ele><time>2022-04-10T06:49:20.000Z</time></trkpt><trkpt lon="5.798908" lat="51.097566"><ele>23.2</ele><time>2022-04-10T06:49:21.000Z</time></trkpt><trkpt lon="5.79898" lat="51.097517"><ele>23.2</ele><time>2022-04-10T06:49:22.000Z</time></trkpt><trkpt lon="5.799048" lat="51.097468"><ele>23</ele><time>2022-04-10T06:49:23.000Z</time></trkpt><trkpt lon="5.799113" lat="51.097423"><ele>22.8</ele><time>2022-04-10T06:49:24.000Z</time></trkpt><trkpt lon="5.799175" lat="51.097377"><ele>22.6</ele><time>2022-04-10T06:49:25.000Z</time></trkpt><trkpt lon="5.799238" lat="51.097332"><ele>22.6</ele><time>2022-04-10T06:49:26.000Z</time></trkpt><trkpt lon="5.799298" lat="51.09729"><ele>22.8</ele><time>2022-04-10T06:49:27.000Z</time></trkpt><trkpt lon="5.799355" lat="51.097249"><ele>22.8</ele><time>2022-04-10T06:49:28.000Z</time></trkpt><trkpt lon="5.799409" lat="51.097208"><ele>22.8</ele><time>2022-04-10T06:49:29.000Z</time></trkpt><trkpt lon="5.799456" lat="51.097168"><ele>22.6</ele><time>2022-04-10T06:49:30.000Z</time></trkpt><trkpt lon="5.799498" lat="51.09712"><ele>22.4</ele><time>2022-04-10T06:49:31.000Z</time></trkpt><trkpt lon="5.799528" lat="51.09707"><ele>22.4</ele><time>2022-04-10T06:49:32.000Z</time></trkpt><trkpt lon="5.79954" lat="51.097013"><ele>22.4</ele><time>2022-04-10T06:49:33.000Z</time></trkpt><trkpt lon="5.799529" lat="51.096951"><ele>22.6</ele><time>2022-04-10T06:49:34.000Z</time></trkpt><trkpt lon="5.799504" lat="51.096892"><ele>22.6</ele><time>2022-04-10T06:49:35.000Z</time></trkpt><trkpt lon="5.799473" lat="51.096828"><ele>22.8</ele><time>2022-04-10T06:49:36.000Z</time></trkpt><trkpt lon="5.79944" lat="51.096771"><ele>22.8</ele><time>2022-04-10T06:49:37.000Z</time></trkpt><trkpt lon="5.799406" lat="51.096709"><ele>22.6</ele><time>2022-04-10T06:49:38.000Z</time></trkpt><trkpt lon="5.79937" lat="51.096649"><ele>22.6</ele><time>2022-04-10T06:49:39.000Z</time></trkpt><trkpt lon="5.799336" lat="51.096592"><ele>22.6</ele><time>2022-04-10T06:49:40.000Z</time></trkpt><trkpt lon="5.7993" lat="51.096534"><ele>22.6</ele><time>2022-04-10T06:49:41.000Z</time></trkpt><trkpt lon="5.799261" lat="51.096473"><ele>22.8</ele><time>2022-04-10T06:49:42.000Z</time></trkpt><trkpt lon="5.799221" lat="51.096417"><ele>22.6</ele><time>2022-04-10T06:49:43.000Z</time></trkpt><trkpt lon="5.799181" lat="51.096361"><ele>22.6</ele><time>2022-04-10T06:49:44.000Z</time></trkpt><trkpt lon="5.799139" lat="51.096302"><ele>22.6</ele><time>2022-04-10T06:49:45.000Z</time></trkpt><trkpt lon="5.799099" lat="51.096245"><ele>22.8</ele><time>2022-04-10T06:49:46.000Z</time></trkpt><trkpt lon="5.799057" lat="51.096187"><ele>22.8</ele><time>2022-04-10T06:49:47.000Z</time></trkpt><trkpt lon="5.799015" lat="51.09613"><ele>22.8</ele><time>2022-04-10T06:49:48.000Z</time></trkpt><trkpt lon="5.798971" lat="51.096074"><ele>22.8</ele><time>2022-04-10T06:49:49.000Z</time></trkpt><trkpt lon="5.798924" lat="51.09602"><ele>23</ele><time>2022-04-10T06:49:50.000Z</time></trkpt><trkpt lon="5.798873" lat="51.095962"><ele>23</ele><time>2022-04-10T06:49:51.000Z</time></trkpt><trkpt lon="5.798824" lat="51.095906"><ele>22.8</ele><time>2022-04-10T06:49:52.000Z</time></trkpt><trkpt lon="5.798775" lat="51.095852"><ele>22.8</ele><time>2022-04-10T06:49:53.000Z</time></trkpt><trkpt lon="5.798725" lat="51.095798"><ele>23</ele><time>2022-04-10T06:49:54.000Z</time></trkpt><trkpt lon="5.798674" lat="51.095743"><ele>23</ele><time>2022-04-10T06:49:55.000Z</time></trkpt><trkpt lon="5.798621" lat="51.095689"><ele>23</ele><time>2022-04-10T06:49:56.000Z</time></trkpt><trkpt lon="5.798569" lat="51.095638"><ele>23</ele><time>2022-04-10T06:49:57.000Z</time></trkpt><trkpt lon="5.798515" lat="51.095587"><ele>23</ele><time>2022-04-10T06:49:58.000Z</time></trkpt><trkpt lon="5.798463" lat="51.095533"><ele>23</ele><time>2022-04-10T06:49:59.000Z</time></trkpt><trkpt lon="5.79841" lat="51.095479"><ele>23</ele><time>2022-04-10T06:50:00.000Z</time></trkpt><trkpt lon="5.798356" lat="51.095426"><ele>23.2</ele><time>2022-04-10T06:50:01.000Z</time></trkpt><trkpt lon="5.798301" lat="51.095373"><ele>23.2</ele><time>2022-04-10T06:50:02.000Z</time></trkpt><trkpt lon="5.798247" lat="51.09532"><ele>23.2</ele><time>2022-04-10T06:50:03.000Z</time></trkpt><trkpt lon="5.798189" lat="51.09527"><ele>23.2</ele><time>2022-04-10T06:50:04.000Z</time></trkpt><trkpt lon="5.798129" lat="51.095222"><ele>23.2</ele><time>2022-04-10T06:50:05.000Z</time></trkpt><trkpt lon="5.798068" lat="51.095175"><ele>23.2</ele><time>2022-04-10T06:50:06.000Z</time></trkpt><trkpt lon="5.798009" lat="51.095125"><ele>23.2</ele><time>2022-04-10T06:50:07.000Z</time></trkpt><trkpt lon="5.797953" lat="51.095072"><ele>23.4</ele><time>2022-04-10T06:50:08.000Z</time></trkpt><trkpt lon="5.797899" lat="51.095019"><ele>23.4</ele><time>2022-04-10T06:50:09.000Z</time></trkpt><trkpt lon="5.797842" lat="51.094968"><ele>23.4</ele><time>2022-04-10T06:50:10.000Z</time></trkpt><trkpt lon="5.797786" lat="51.094918"><ele>23.6</ele><time>2022-04-10T06:50:11.000Z</time></trkpt><trkpt lon="5.797734" lat="51.094869"><ele>23.6</ele><time>2022-04-10T06:50:12.000Z</time></trkpt><trkpt lon="5.797682" lat="51.09482"><ele>23.6</ele><time>2022-04-10T06:50:13.000Z</time></trkpt><trkpt lon="5.79763" lat="51.094775"><ele>23.4</ele><time>2022-04-10T06:50:14.000Z</time></trkpt><trkpt lon="5.797574" lat="51.094737"><ele>23.4</ele><time>2022-04-10T06:50:15.000Z</time></trkpt><trkpt lon="5.797507" lat="51.09471"><ele>23.4</ele><time>2022-04-10T06:50:16.000Z</time></trkpt><trkpt lon="5.797424" lat="51.094694"><ele>23.4</ele><time>2022-04-10T06:50:17.000Z</time></trkpt><trkpt lon="5.797334" lat="51.094688"><ele>23.6</ele><time>2022-04-10T06:50:18.000Z</time></trkpt><trkpt lon="5.797233" lat="51.094687"><ele>23.6</ele><time>2022-04-10T06:50:19.000Z</time></trkpt><trkpt lon="5.797137" lat="51.094682"><ele>23.8</ele><time>2022-04-10T06:50:20.000Z</time></trkpt><trkpt lon="5.797045" lat="51.094673"><ele>23.8</ele><time>2022-04-10T06:50:21.000Z</time></trkpt><trkpt lon="5.796957" lat="51.094653"><ele>23.8</ele><time>2022-04-10T06:50:22.000Z</time></trkpt><trkpt lon="5.796884" lat="51.094618"><ele>24</ele><time>2022-04-10T06:50:23.000Z</time></trkpt><trkpt lon="5.796841" lat="51.094571"><ele>23.8</ele><time>2022-04-10T06:50:24.000Z</time></trkpt><trkpt lon="5.796815" lat="51.094518"><ele>23.6</ele><time>2022-04-10T06:50:25.000Z</time></trkpt><trkpt lon="5.796794" lat="51.094459"><ele>23.4</ele><time>2022-04-10T06:50:26.000Z</time></trkpt><trkpt lon="5.796772" lat="51.094401"><ele>23.4</ele><time>2022-04-10T06:50:27.000Z</time></trkpt><trkpt lon="5.79675" lat="51.094344"><ele>23.2</ele><time>2022-04-10T06:50:28.000Z</time></trkpt><trkpt lon="5.79673" lat="51.094287"><ele>23.2</ele><time>2022-04-10T06:50:29.000Z</time></trkpt><trkpt lon="5.796711" lat="51.094229"><ele>23.2</ele><time>2022-04-10T06:50:30.000Z</time></trkpt><trkpt lon="5.796692" lat="51.094172"><ele>23.2</ele><time>2022-04-10T06:50:31.000Z</time></trkpt><trkpt lon="5.796668" lat="51.094117"><ele>23.4</ele><time>2022-04-10T06:50:32.000Z</time></trkpt><trkpt lon="5.79664" lat="51.094062"><ele>23.4</ele><time>2022-04-10T06:50:33.000Z</time></trkpt><trkpt lon="5.796606" lat="51.094005"><ele>23.4</ele><time>2022-04-10T06:50:34.000Z</time></trkpt><trkpt lon="5.79657" lat="51.093948"><ele>23.6</ele><time>2022-04-10T06:50:35.000Z</time></trkpt><trkpt lon="5.796534" lat="51.093892"><ele>23.4</ele><time>2022-04-10T06:50:36.000Z</time></trkpt><trkpt lon="5.796498" lat="51.093839"><ele>23.4</ele><time>2022-04-10T06:50:37.000Z</time></trkpt><trkpt lon="5.796461" lat="51.093782"><ele>23.2</ele><time>2022-04-10T06:50:38.000Z</time></trkpt><trkpt lon="5.796429" lat="51.093732"><ele>23.2</ele><time>2022-04-10T06:50:39.000Z</time></trkpt><trkpt lon="5.796403" lat="51.093681"><ele>23.2</ele><time>2022-04-10T06:50:40.000Z</time></trkpt><trkpt lon="5.796392" lat="51.093628"><ele>23.2</ele><time>2022-04-10T06:50:41.000Z</time></trkpt><trkpt lon="5.796402" lat="51.093575"><ele>23</ele><time>2022-04-10T06:50:42.000Z</time></trkpt><trkpt lon="5.796432" lat="51.093523"><ele>23</ele><time>2022-04-10T06:50:43.000Z</time></trkpt><trkpt lon="5.796479" lat="51.093474"><ele>23</ele><time>2022-04-10T06:50:44.000Z</time></trkpt><trkpt lon="5.79654" lat="51.093433"><ele>23</ele><time>2022-04-10T06:50:45.000Z</time></trkpt><trkpt lon="5.79662" lat="51.093406"><ele>23.2</ele><time>2022-04-10T06:50:46.000Z</time></trkpt><trkpt lon="5.796708" lat="51.093395"><ele>23.2</ele><time>2022-04-10T06:50:47.000Z</time></trkpt><trkpt lon="5.796796" lat="51.093399"><ele>23.4</ele><time>2022-04-10T06:50:48.000Z</time></trkpt><trkpt lon="5.796879" lat="51.093407"><ele>23.6</ele><time>2022-04-10T06:50:49.000Z</time></trkpt><trkpt lon="5.796956" lat="51.093403"><ele>23.8</ele><time>2022-04-10T06:50:50.000Z</time></trkpt><trkpt lon="5.797036" lat="51.093387"><ele>24</ele><time>2022-04-10T06:50:51.000Z</time></trkpt><trkpt lon="5.79712" lat="51.093371"><ele>24.2</ele><time>2022-04-10T06:50:52.000Z</time></trkpt><trkpt lon="5.797206" lat="51.093352"><ele>24.4</ele><time>2022-04-10T06:50:53.000Z</time></trkpt><trkpt lon="5.797291" lat="51.093333"><ele>24.6</ele><time>2022-04-10T06:50:54.000Z</time></trkpt><trkpt lon="5.797371" lat="51.093311"><ele>24.8</ele><time>2022-04-10T06:50:55.000Z</time></trkpt><trkpt lon="5.797447" lat="51.093285"><ele>25.2</ele><time>2022-04-10T06:50:56.000Z</time></trkpt><trkpt lon="5.797519" lat="51.093257"><ele>25.4</ele><time>2022-04-10T06:50:57.000Z</time></trkpt><trkpt lon="5.79759" lat="51.093222"><ele>25.8</ele><time>2022-04-10T06:50:58.000Z</time></trkpt><trkpt lon="5.797655" lat="51.093186"><ele>26.2</ele><time>2022-04-10T06:50:59.000Z</time></trkpt><trkpt lon="5.797721" lat="51.093148"><ele>26.8</ele><time>2022-04-10T06:51:00.000Z</time></trkpt><trkpt lon="5.797787" lat="51.093109"><ele>27</ele><time>2022-04-10T06:51:01.000Z</time></trkpt><trkpt lon="5.797853" lat="51.093068"><ele>27.2</ele><time>2022-04-10T06:51:02.000Z</time></trkpt><trkpt lon="5.79792" lat="51.09303"><ele>27.4</ele><time>2022-04-10T06:51:03.000Z</time></trkpt><trkpt lon="5.797989" lat="51.092991"><ele>27.4</ele><time>2022-04-10T06:51:04.000Z</time></trkpt><trkpt lon="5.798058" lat="51.092952"><ele>27.6</ele><time>2022-04-10T06:51:05.000Z</time></trkpt><trkpt lon="5.798127" lat="51.092911"><ele>27.6</ele><time>2022-04-10T06:51:06.000Z</time></trkpt><trkpt lon="5.798198" lat="51.092869"><ele>27.8</ele><time>2022-04-10T06:51:07.000Z</time></trkpt><trkpt lon="5.798269" lat="51.09283"><ele>28</ele><time>2022-04-10T06:51:08.000Z</time></trkpt><trkpt lon="5.798342" lat="51.092788"><ele>28.2</ele><time>2022-04-10T06:51:09.000Z</time></trkpt><trkpt lon="5.798415" lat="51.092747"><ele>28.4</ele><time>2022-04-10T06:51:10.000Z</time></trkpt><trkpt lon="5.798488" lat="51.092705"><ele>28.4</ele><time>2022-04-10T06:51:11.000Z</time></trkpt><trkpt lon="5.798562" lat="51.092661"><ele>28.4</ele><time>2022-04-10T06:51:12.000Z</time></trkpt><trkpt lon="5.798635" lat="51.092617"><ele>28.4</ele><time>2022-04-10T06:51:13.000Z</time></trkpt><trkpt lon="5.798709" lat="51.092575"><ele>28.4</ele><time>2022-04-10T06:51:14.000Z</time></trkpt><trkpt lon="5.798786" lat="51.092528"><ele>28.6</ele><time>2022-04-10T06:51:15.000Z</time></trkpt><trkpt lon="5.798863" lat="51.092482"><ele>28.6</ele><time>2022-04-10T06:51:16.000Z</time></trkpt><trkpt lon="5.79894" lat="51.092437"><ele>28.6</ele><time>2022-04-10T06:51:17.000Z</time></trkpt><trkpt lon="5.799018" lat="51.092391"><ele>28.4</ele><time>2022-04-10T06:51:18.000Z</time></trkpt><trkpt lon="5.799097" lat="51.092345"><ele>28.2</ele><time>2022-04-10T06:51:19.000Z</time></trkpt><trkpt lon="5.799178" lat="51.092299"><ele>28</ele><time>2022-04-10T06:51:20.000Z</time></trkpt><trkpt lon="5.799256" lat="51.092252"><ele>27.8</ele><time>2022-04-10T06:51:21.000Z</time></trkpt><trkpt lon="5.799336" lat="51.092204"><ele>27.6</ele><time>2022-04-10T06:51:22.000Z</time></trkpt><trkpt lon="5.799416" lat="51.092158"><ele>27.6</ele><time>2022-04-10T06:51:23.000Z</time></trkpt><trkpt lon="5.799496" lat="51.092111"><ele>27.8</ele><time>2022-04-10T06:51:24.000Z</time></trkpt><trkpt lon="5.799578" lat="51.092062"><ele>27.8</ele><time>2022-04-10T06:51:25.000Z</time></trkpt><trkpt lon="5.799665" lat="51.092012"><ele>27.6</ele><time>2022-04-10T06:51:26.000Z</time></trkpt><trkpt lon="5.799753" lat="51.091961"><ele>27.2</ele><time>2022-04-10T06:51:27.000Z</time></trkpt><trkpt lon="5.799841" lat="51.091906"><ele>27</ele><time>2022-04-10T06:51:28.000Z</time></trkpt><trkpt lon="5.799927" lat="51.091845"><ele>26.6</ele><time>2022-04-10T06:51:29.000Z</time></trkpt><trkpt lon="5.800008" lat="51.091783"><ele>26</ele><time>2022-04-10T06:51:30.000Z</time></trkpt><trkpt lon="5.80008" lat="51.091716"><ele>25.4</ele><time>2022-04-10T06:51:31.000Z</time></trkpt><trkpt lon="5.80015" lat="51.091643"><ele>24.8</ele><time>2022-04-10T06:51:32.000Z</time></trkpt><trkpt lon="5.800218" lat="51.09157"><ele>24.4</ele><time>2022-04-10T06:51:33.000Z</time></trkpt><trkpt lon="5.800285" lat="51.091496"><ele>24.2</ele><time>2022-04-10T06:51:34.000Z</time></trkpt><trkpt lon="5.80034" lat="51.091416"><ele>24</ele><time>2022-04-10T06:51:35.000Z</time></trkpt><trkpt lon="5.80038" lat="51.091336"><ele>23.8</ele><time>2022-04-10T06:51:36.000Z</time></trkpt><trkpt lon="5.800408" lat="51.091255"><ele>23.8</ele><time>2022-04-10T06:51:37.000Z</time></trkpt><trkpt lon="5.800425" lat="51.09117"><ele>23.8</ele><time>2022-04-10T06:51:38.000Z</time></trkpt><trkpt lon="5.800435" lat="51.091087"><ele>23.6</ele><time>2022-04-10T06:51:39.000Z</time></trkpt><trkpt lon="5.800438" lat="51.091002"><ele>23.6</ele><time>2022-04-10T06:51:40.000Z</time></trkpt><trkpt lon="5.800434" lat="51.09092"><ele>23.6</ele><time>2022-04-10T06:51:41.000Z</time></trkpt><trkpt lon="5.800426" lat="51.09084"><ele>23.6</ele><time>2022-04-10T06:51:42.000Z</time></trkpt><trkpt lon="5.800418" lat="51.090761"><ele>23.4</ele><time>2022-04-10T06:51:43.000Z</time></trkpt><trkpt lon="5.800414" lat="51.090684"><ele>23.4</ele><time>2022-04-10T06:51:44.000Z</time></trkpt><trkpt lon="5.80041" lat="51.090608"><ele>23.6</ele><time>2022-04-10T06:51:45.000Z</time></trkpt><trkpt lon="5.800405" lat="51.090533"><ele>23.6</ele><time>2022-04-10T06:51:46.000Z</time></trkpt><trkpt lon="5.800399" lat="51.09046"><ele>23.6</ele><time>2022-04-10T06:51:47.000Z</time></trkpt><trkpt lon="5.800398" lat="51.090389"><ele>23.6</ele><time>2022-04-10T06:51:48.000Z</time></trkpt><trkpt lon="5.800399" lat="51.09032"><ele>23.6</ele><time>2022-04-10T06:51:49.000Z</time></trkpt><trkpt lon="5.800402" lat="51.09025"><ele>23.8</ele><time>2022-04-10T06:51:50.000Z</time></trkpt><trkpt lon="5.80041" lat="51.090183"><ele>24</ele><time>2022-04-10T06:51:51.000Z</time></trkpt><trkpt lon="5.800425" lat="51.090114"><ele>24</ele><time>2022-04-10T06:51:52.000Z</time></trkpt><trkpt lon="5.800446" lat="51.090047"><ele>24</ele><time>2022-04-10T06:51:53.000Z</time></trkpt><trkpt lon="5.800474" lat="51.089982"><ele>24</ele><time>2022-04-10T06:51:54.000Z</time></trkpt><trkpt lon="5.800506" lat="51.089917"><ele>23.6</ele><time>2022-04-10T06:51:55.000Z</time></trkpt><trkpt lon="5.800541" lat="51.089852"><ele>23.4</ele><time>2022-04-10T06:51:56.000Z</time></trkpt><trkpt lon="5.800582" lat="51.089789"><ele>23</ele><time>2022-04-10T06:51:57.000Z</time></trkpt><trkpt lon="5.800628" lat="51.089728"><ele>22.8</ele><time>2022-04-10T06:51:58.000Z</time></trkpt><trkpt lon="5.800678" lat="51.089666"><ele>22.6</ele><time>2022-04-10T06:51:59.000Z</time></trkpt><trkpt lon="5.800729" lat="51.089605"><ele>22.6</ele><time>2022-04-10T06:52:00.000Z</time></trkpt><trkpt lon="5.800784" lat="51.089545"><ele>22.4</ele><time>2022-04-10T06:52:01.000Z</time></trkpt><trkpt lon="5.800839" lat="51.089488"><ele>22.4</ele><time>2022-04-10T06:52:02.000Z</time></trkpt><trkpt lon="5.800896" lat="51.089431"><ele>22.6</ele><time>2022-04-10T06:52:03.000Z</time></trkpt><trkpt lon="5.800956" lat="51.089375"><ele>22.6</ele><time>2022-04-10T06:52:04.000Z</time></trkpt><trkpt lon="5.801014" lat="51.08932"><ele>22.6</ele><time>2022-04-10T06:52:05.000Z</time></trkpt><trkpt lon="5.801073" lat="51.08926"><ele>22.4</ele><time>2022-04-10T06:52:06.000Z</time></trkpt><trkpt lon="5.801132" lat="51.089202"><ele>22.4</ele><time>2022-04-10T06:52:07.000Z</time></trkpt><trkpt lon="5.801192" lat="51.089145"><ele>22.4</ele><time>2022-04-10T06:52:08.000Z</time></trkpt><trkpt lon="5.801252" lat="51.089088"><ele>22.4</ele><time>2022-04-10T06:52:09.000Z</time></trkpt><trkpt lon="5.801311" lat="51.089032"><ele>22.4</ele><time>2022-04-10T06:52:10.000Z</time></trkpt><trkpt lon="5.80137" lat="51.088977"><ele>22.4</ele><time>2022-04-10T06:52:11.000Z</time></trkpt><trkpt lon="5.801427" lat="51.088916"><ele>22.4</ele><time>2022-04-10T06:52:12.000Z</time></trkpt><trkpt lon="5.801484" lat="51.088859"><ele>22.2</ele><time>2022-04-10T06:52:13.000Z</time></trkpt><trkpt lon="5.801542" lat="51.088802"><ele>22.2</ele><time>2022-04-10T06:52:14.000Z</time></trkpt><trkpt lon="5.801603" lat="51.088742"><ele>22</ele><time>2022-04-10T06:52:15.000Z</time></trkpt><trkpt lon="5.801662" lat="51.088688"><ele>22.2</ele><time>2022-04-10T06:52:16.000Z</time></trkpt><trkpt lon="5.801722" lat="51.08863"><ele>22.2</ele><time>2022-04-10T06:52:17.000Z</time></trkpt><trkpt lon="5.801782" lat="51.088572"><ele>22.2</ele><time>2022-04-10T06:52:18.000Z</time></trkpt><trkpt lon="5.801842" lat="51.088516"><ele>22.2</ele><time>2022-04-10T06:52:19.000Z</time></trkpt><trkpt lon="5.801899" lat="51.088462"><ele>22.4</ele><time>2022-04-10T06:52:20.000Z</time></trkpt><trkpt lon="5.801958" lat="51.088406"><ele>22.4</ele><time>2022-04-10T06:52:21.000Z</time></trkpt><trkpt lon="5.802017" lat="51.088351"><ele>22.6</ele><time>2022-04-10T06:52:22.000Z</time></trkpt><trkpt lon="5.802074" lat="51.088295"><ele>23</ele><time>2022-04-10T06:52:23.000Z</time></trkpt><trkpt lon="5.802131" lat="51.088242"><ele>23.6</ele><time>2022-04-10T06:52:24.000Z</time></trkpt><trkpt lon="5.802186" lat="51.088187"><ele>24.2</ele><time>2022-04-10T06:52:25.000Z</time></trkpt><trkpt lon="5.80224" lat="51.088127"><ele>24.4</ele><time>2022-04-10T06:52:26.000Z</time></trkpt><trkpt lon="5.802298" lat="51.088071"><ele>24.6</ele><time>2022-04-10T06:52:27.000Z</time></trkpt><trkpt lon="5.802357" lat="51.088015"><ele>24.8</ele><time>2022-04-10T06:52:28.000Z</time></trkpt><trkpt lon="5.802417" lat="51.087959"><ele>24.4</ele><time>2022-04-10T06:52:29.000Z</time></trkpt><trkpt lon="5.802479" lat="51.087902"><ele>24.2</ele><time>2022-04-10T06:52:30.000Z</time></trkpt><trkpt lon="5.80254" lat="51.087848"><ele>24.2</ele><time>2022-04-10T06:52:31.000Z</time></trkpt><trkpt lon="5.802598" lat="51.087792"><ele>24</ele><time>2022-04-10T06:52:32.000Z</time></trkpt><trkpt lon="5.802656" lat="51.087738"><ele>23.8</ele><time>2022-04-10T06:52:33.000Z</time></trkpt><trkpt lon="5.802715" lat="51.087683"><ele>23.6</ele><time>2022-04-10T06:52:34.000Z</time></trkpt><trkpt lon="5.802776" lat="51.087622"><ele>23.2</ele><time>2022-04-10T06:52:35.000Z</time></trkpt><trkpt lon="5.802835" lat="51.087566"><ele>23.2</ele><time>2022-04-10T06:52:36.000Z</time></trkpt><trkpt lon="5.802895" lat="51.087513"><ele>23</ele><time>2022-04-10T06:52:37.000Z</time></trkpt><trkpt lon="5.802955" lat="51.087454"><ele>23</ele><time>2022-04-10T06:52:38.000Z</time></trkpt><trkpt lon="5.803017" lat="51.087395"><ele>22.8</ele><time>2022-04-10T06:52:39.000Z</time></trkpt><trkpt lon="5.803079" lat="51.087339"><ele>22.8</ele><time>2022-04-10T06:52:40.000Z</time></trkpt><trkpt lon="5.803141" lat="51.087279"><ele>22.6</ele><time>2022-04-10T06:52:41.000Z</time></trkpt><trkpt lon="5.8032" lat="51.087223"><ele>22.6</ele><time>2022-04-10T06:52:42.000Z</time></trkpt><trkpt lon="5.803262" lat="51.087164"><ele>22.4</ele><time>2022-04-10T06:52:43.000Z</time></trkpt><trkpt lon="5.803323" lat="51.087105"><ele>22.4</ele><time>2022-04-10T06:52:44.000Z</time></trkpt><trkpt lon="5.803384" lat="51.08705"><ele>22.4</ele><time>2022-04-10T06:52:45.000Z</time></trkpt><trkpt lon="5.803443" lat="51.086992"><ele>22.2</ele><time>2022-04-10T06:52:46.000Z</time></trkpt><trkpt lon="5.803501" lat="51.086934"><ele>22.2</ele><time>2022-04-10T06:52:47.000Z</time></trkpt><trkpt lon="5.803562" lat="51.086879"><ele>22.2</ele><time>2022-04-10T06:52:48.000Z</time></trkpt><trkpt lon="5.803622" lat="51.08682"><ele>22.2</ele><time>2022-04-10T06:52:49.000Z</time></trkpt><trkpt lon="5.803682" lat="51.086761"><ele>22</ele><time>2022-04-10T06:52:50.000Z</time></trkpt><trkpt lon="5.803742" lat="51.086704"><ele>22</ele><time>2022-04-10T06:52:51.000Z</time></trkpt><trkpt lon="5.803804" lat="51.086646"><ele>22</ele><time>2022-04-10T06:52:52.000Z</time></trkpt><trkpt lon="5.803863" lat="51.08659"><ele>21.8</ele><time>2022-04-10T06:52:53.000Z</time></trkpt><trkpt lon="5.803923" lat="51.086532"><ele>21.6</ele><time>2022-04-10T06:52:54.000Z</time></trkpt><trkpt lon="5.803983" lat="51.086475"><ele>21.6</ele><time>2022-04-10T06:52:55.000Z</time></trkpt><trkpt lon="5.804043" lat="51.086418"><ele>21.6</ele><time>2022-04-10T06:52:56.000Z</time></trkpt><trkpt lon="5.804102" lat="51.086361"><ele>21.6</ele><time>2022-04-10T06:52:57.000Z</time></trkpt><trkpt lon="5.804163" lat="51.086303"><ele>21.6</ele><time>2022-04-10T06:52:58.000Z</time></trkpt><trkpt lon="5.804221" lat="51.086247"><ele>21.6</ele><time>2022-04-10T06:52:59.000Z</time></trkpt><trkpt lon="5.80428" lat="51.086192"><ele>21.6</ele><time>2022-04-10T06:53:00.000Z</time></trkpt><trkpt lon="5.80434" lat="51.086135"><ele>21.6</ele><time>2022-04-10T06:53:01.000Z</time></trkpt><trkpt lon="5.804399" lat="51.086079"><ele>21.4</ele><time>2022-04-10T06:53:02.000Z</time></trkpt><trkpt lon="5.804457" lat="51.086024"><ele>21.4</ele><time>2022-04-10T06:53:03.000Z</time></trkpt><trkpt lon="5.804517" lat="51.085967"><ele>21.2</ele><time>2022-04-10T06:53:04.000Z</time></trkpt><trkpt lon="5.804577" lat="51.08591"><ele>21.4</ele><time>2022-04-10T06:53:05.000Z</time></trkpt><trkpt lon="5.804636" lat="51.085853"><ele>21.4</ele><time>2022-04-10T06:53:06.000Z</time></trkpt><trkpt lon="5.804694" lat="51.085797"><ele>21.4</ele><time>2022-04-10T06:53:07.000Z</time></trkpt><trkpt lon="5.804753" lat="51.085741"><ele>21.4</ele><time>2022-04-10T06:53:08.000Z</time></trkpt><trkpt lon="5.804814" lat="51.085681"><ele>21.2</ele><time>2022-04-10T06:53:09.000Z</time></trkpt><trkpt lon="5.804876" lat="51.085625"><ele>21.2</ele><time>2022-04-10T06:53:10.000Z</time></trkpt><trkpt lon="5.804937" lat="51.085571"><ele>21.2</ele><time>2022-04-10T06:53:11.000Z</time></trkpt><trkpt lon="5.804998" lat="51.085516"><ele>21.4</ele><time>2022-04-10T06:53:12.000Z</time></trkpt><trkpt lon="5.805063" lat="51.085461"><ele>21.4</ele><time>2022-04-10T06:53:13.000Z</time></trkpt><trkpt lon="5.805126" lat="51.085408"><ele>21.4</ele><time>2022-04-10T06:53:14.000Z</time></trkpt><trkpt lon="5.805189" lat="51.085355"><ele>21.4</ele><time>2022-04-10T06:53:15.000Z</time></trkpt><trkpt lon="5.805258" lat="51.085302"><ele>21.6</ele><time>2022-04-10T06:53:16.000Z</time></trkpt><trkpt lon="5.805331" lat="51.085252"><ele>21.8</ele><time>2022-04-10T06:53:17.000Z</time></trkpt><trkpt lon="5.805405" lat="51.085202"><ele>22</ele><time>2022-04-10T06:53:18.000Z</time></trkpt><trkpt lon="5.805481" lat="51.085154"><ele>22</ele><time>2022-04-10T06:53:19.000Z</time></trkpt><trkpt lon="5.80556" lat="51.085109"><ele>22.2</ele><time>2022-04-10T06:53:20.000Z</time></trkpt><trkpt lon="5.805638" lat="51.085063"><ele>22</ele><time>2022-04-10T06:53:21.000Z</time></trkpt><trkpt lon="5.805713" lat="51.085022"><ele>22</ele><time>2022-04-10T06:53:22.000Z</time></trkpt><trkpt lon="5.805793" lat="51.084979"><ele>22</ele><time>2022-04-10T06:53:23.000Z</time></trkpt><trkpt lon="5.805871" lat="51.084938"><ele>22</ele><time>2022-04-10T06:53:24.000Z</time></trkpt><trkpt lon="5.80595" lat="51.084896"><ele>22</ele><time>2022-04-10T06:53:25.000Z</time></trkpt><trkpt lon="5.80603" lat="51.084854"><ele>22</ele><time>2022-04-10T06:53:26.000Z</time></trkpt><trkpt lon="5.806108" lat="51.084813"><ele>22</ele><time>2022-04-10T06:53:27.000Z</time></trkpt><trkpt lon="5.806187" lat="51.084773"><ele>22.2</ele><time>2022-04-10T06:53:28.000Z</time></trkpt><trkpt lon="5.806264" lat="51.084732"><ele>22.2</ele><time>2022-04-10T06:53:29.000Z</time></trkpt><trkpt lon="5.806346" lat="51.084689"><ele>22.4</ele><time>2022-04-10T06:53:30.000Z</time></trkpt><trkpt lon="5.806432" lat="51.084644"><ele>22.4</ele><time>2022-04-10T06:53:31.000Z</time></trkpt><trkpt lon="5.806519" lat="51.084601"><ele>22.6</ele><time>2022-04-10T06:53:32.000Z</time></trkpt><trkpt lon="5.806606" lat="51.084554"><ele>22.6</ele><time>2022-04-10T06:53:33.000Z</time></trkpt><trkpt lon="5.806692" lat="51.084506"><ele>22.8</ele><time>2022-04-10T06:53:34.000Z</time></trkpt><trkpt lon="5.806776" lat="51.08446"><ele>23</ele><time>2022-04-10T06:53:35.000Z</time></trkpt><trkpt lon="5.806859" lat="51.084414"><ele>23</ele><time>2022-04-10T06:53:36.000Z</time></trkpt><trkpt lon="5.806939" lat="51.084368"><ele>23</ele><time>2022-04-10T06:53:37.000Z</time></trkpt><trkpt lon="5.807017" lat="51.084324"><ele>23</ele><time>2022-04-10T06:53:38.000Z</time></trkpt><trkpt lon="5.807093" lat="51.084281"><ele>22.8</ele><time>2022-04-10T06:53:39.000Z</time></trkpt><trkpt lon="5.807164" lat="51.084235"><ele>22.8</ele><time>2022-04-10T06:53:40.000Z</time></trkpt><trkpt lon="5.807233" lat="51.08419"><ele>22.8</ele><time>2022-04-10T06:53:41.000Z</time></trkpt><trkpt lon="5.807297" lat="51.084148"><ele>22.8</ele><time>2022-04-10T06:53:42.000Z</time></trkpt><trkpt lon="5.807354" lat="51.084105"><ele>22.8</ele><time>2022-04-10T06:53:43.000Z</time></trkpt><trkpt lon="5.807414" lat="51.084059"><ele>22.6</ele><time>2022-04-10T06:53:44.000Z</time></trkpt><trkpt lon="5.807487" lat="51.084015"><ele>22.4</ele><time>2022-04-10T06:53:45.000Z</time></trkpt><trkpt lon="5.807571" lat="51.083972"><ele>22</ele><time>2022-04-10T06:53:46.000Z</time></trkpt><trkpt lon="5.807657" lat="51.08393"><ele>21.8</ele><time>2022-04-10T06:53:47.000Z</time></trkpt><trkpt lon="5.807742" lat="51.083883"><ele>21.6</ele><time>2022-04-10T06:53:48.000Z</time></trkpt><trkpt lon="5.807827" lat="51.083834"><ele>21.6</ele><time>2022-04-10T06:53:49.000Z</time></trkpt><trkpt lon="5.807914" lat="51.083788"><ele>21.4</ele><time>2022-04-10T06:53:50.000Z</time></trkpt><trkpt lon="5.808" lat="51.083744"><ele>21.4</ele><time>2022-04-10T06:53:51.000Z</time></trkpt><trkpt lon="5.808087" lat="51.083699"><ele>21.2</ele><time>2022-04-10T06:53:52.000Z</time></trkpt><trkpt lon="5.808173" lat="51.083651"><ele>21.2</ele><time>2022-04-10T06:53:53.000Z</time></trkpt><trkpt lon="5.808258" lat="51.083605"><ele>21.2</ele><time>2022-04-10T06:53:54.000Z</time></trkpt><trkpt lon="5.808344" lat="51.083556"><ele>21.2</ele><time>2022-04-10T06:53:55.000Z</time></trkpt><trkpt lon="5.808431" lat="51.083509"><ele>21.2</ele><time>2022-04-10T06:53:56.000Z</time></trkpt><trkpt lon="5.808515" lat="51.083459"><ele>21</ele><time>2022-04-10T06:53:57.000Z</time></trkpt><trkpt lon="5.808594" lat="51.083409"><ele>21</ele><time>2022-04-10T06:53:58.000Z</time></trkpt><trkpt lon="5.808669" lat="51.083359"><ele>21</ele><time>2022-04-10T06:53:59.000Z</time></trkpt><trkpt lon="5.808745" lat="51.083307"><ele>21</ele><time>2022-04-10T06:54:00.000Z</time></trkpt><trkpt lon="5.808821" lat="51.083257"><ele>21</ele><time>2022-04-10T06:54:01.000Z</time></trkpt><trkpt lon="5.808896" lat="51.083208"><ele>21</ele><time>2022-04-10T06:54:02.000Z</time></trkpt><trkpt lon="5.808971" lat="51.083158"><ele>21</ele><time>2022-04-10T06:54:03.000Z</time></trkpt><trkpt lon="5.809043" lat="51.083107"><ele>21</ele><time>2022-04-10T06:54:04.000Z</time></trkpt><trkpt lon="5.809115" lat="51.083056"><ele>21</ele><time>2022-04-10T06:54:05.000Z</time></trkpt><trkpt lon="5.809186" lat="51.083009"><ele>21.2</ele><time>2022-04-10T06:54:06.000Z</time></trkpt><trkpt lon="5.809259" lat="51.08296"><ele>21.2</ele><time>2022-04-10T06:54:07.000Z</time></trkpt><trkpt lon="5.809332" lat="51.082911"><ele>21.2</ele><time>2022-04-10T06:54:08.000Z</time></trkpt><trkpt lon="5.809403" lat="51.082865"><ele>21.2</ele><time>2022-04-10T06:54:09.000Z</time></trkpt><trkpt lon="5.809473" lat="51.082816"><ele>21.2</ele><time>2022-04-10T06:54:10.000Z</time></trkpt><trkpt lon="5.809546" lat="51.082766"><ele>21.2</ele><time>2022-04-10T06:54:11.000Z</time></trkpt><trkpt lon="5.809618" lat="51.08272"><ele>21.2</ele><time>2022-04-10T06:54:12.000Z</time></trkpt><trkpt lon="5.80969" lat="51.082671"><ele>21.2</ele><time>2022-04-10T06:54:13.000Z</time></trkpt><trkpt lon="5.809762" lat="51.082625"><ele>21.2</ele><time>2022-04-10T06:54:14.000Z</time></trkpt><trkpt lon="5.809837" lat="51.082579"><ele>21.4</ele><time>2022-04-10T06:54:15.000Z</time></trkpt><trkpt lon="5.809915" lat="51.082534"><ele>21.6</ele><time>2022-04-10T06:54:16.000Z</time></trkpt><trkpt lon="5.809995" lat="51.082492"><ele>21.6</ele><time>2022-04-10T06:54:17.000Z</time></trkpt><trkpt lon="5.810077" lat="51.082452"><ele>22</ele><time>2022-04-10T06:54:18.000Z</time></trkpt><trkpt lon="5.810159" lat="51.082414"><ele>22</ele><time>2022-04-10T06:54:19.000Z</time></trkpt><trkpt lon="5.810241" lat="51.082377"><ele>22</ele><time>2022-04-10T06:54:20.000Z</time></trkpt><trkpt lon="5.810328" lat="51.082338"><ele>22.2</ele><time>2022-04-10T06:54:21.000Z</time></trkpt><trkpt lon="5.810418" lat="51.0823"><ele>22.4</ele><time>2022-04-10T06:54:22.000Z</time></trkpt><trkpt lon="5.81051" lat="51.082267"><ele>22.6</ele><time>2022-04-10T06:54:23.000Z</time></trkpt><trkpt lon="5.810609" lat="51.082232"><ele>22.6</ele><time>2022-04-10T06:54:24.000Z</time></trkpt><trkpt lon="5.810705" lat="51.082202"><ele>22.6</ele><time>2022-04-10T06:54:25.000Z</time></trkpt><trkpt lon="5.810799" lat="51.08217"><ele>22.8</ele><time>2022-04-10T06:54:26.000Z</time></trkpt><trkpt lon="5.810893" lat="51.082138"><ele>22.8</ele><time>2022-04-10T06:54:27.000Z</time></trkpt><trkpt lon="5.810984" lat="51.08211"><ele>22.8</ele><time>2022-04-10T06:54:28.000Z</time></trkpt><trkpt lon="5.811076" lat="51.082081"><ele>23</ele><time>2022-04-10T06:54:29.000Z</time></trkpt><trkpt lon="5.81117" lat="51.082053"><ele>23</ele><time>2022-04-10T06:54:30.000Z</time></trkpt><trkpt lon="5.811263" lat="51.082023"><ele>23</ele><time>2022-04-10T06:54:31.000Z</time></trkpt><trkpt lon="5.811352" lat="51.081994"><ele>22.8</ele><time>2022-04-10T06:54:32.000Z</time></trkpt><trkpt lon="5.811445" lat="51.081966"><ele>22.8</ele><time>2022-04-10T06:54:33.000Z</time></trkpt><trkpt lon="5.811537" lat="51.081936"><ele>22.8</ele><time>2022-04-10T06:54:34.000Z</time></trkpt><trkpt lon="5.811632" lat="51.081909"><ele>22.8</ele><time>2022-04-10T06:54:35.000Z</time></trkpt><trkpt lon="5.811726" lat="51.081883"><ele>22.6</ele><time>2022-04-10T06:54:36.000Z</time></trkpt><trkpt lon="5.811818" lat="51.081856"><ele>22.6</ele><time>2022-04-10T06:54:37.000Z</time></trkpt><trkpt lon="5.811911" lat="51.081831"><ele>22.4</ele><time>2022-04-10T06:54:38.000Z</time></trkpt><trkpt lon="5.811999" lat="51.081813"><ele>22.4</ele><time>2022-04-10T06:54:39.000Z</time></trkpt><trkpt lon="5.812084" lat="51.081797"><ele>22.4</ele><time>2022-04-10T06:54:40.000Z</time></trkpt><trkpt lon="5.812164" lat="51.08178"><ele>22.4</ele><time>2022-04-10T06:54:41.000Z</time></trkpt><trkpt lon="5.812236" lat="51.081767"><ele>22.2</ele><time>2022-04-10T06:54:42.000Z</time></trkpt><trkpt lon="5.8123" lat="51.08175"><ele>22.4</ele><time>2022-04-10T06:54:43.000Z</time></trkpt><trkpt lon="5.812355" lat="51.081738"><ele>22.4</ele><time>2022-04-10T06:54:44.000Z</time></trkpt><trkpt lon="5.812401" lat="51.081727"><ele>22.4</ele><time>2022-04-10T06:54:45.000Z</time></trkpt><trkpt lon="5.812435" lat="51.081713"><ele>22.4</ele><time>2022-04-10T06:54:46.000Z</time></trkpt><trkpt lon="5.81245" lat="51.081692"><ele>22.4</ele><time>2022-04-10T06:54:47.000Z</time></trkpt><trkpt lon="5.81244" lat="51.081663"><ele>22.4</ele><time>2022-04-10T06:54:48.000Z</time></trkpt><trkpt lon="5.812434" lat="51.08163"><ele>22.2</ele><time>2022-04-10T06:54:49.000Z</time></trkpt><trkpt lon="5.812449" lat="51.081602"><ele>22.2</ele><time>2022-04-10T06:54:50.000Z</time></trkpt><trkpt lon="5.812486" lat="51.081579"><ele>22.2</ele><time>2022-04-10T06:54:51.000Z</time></trkpt><trkpt lon="5.812534" lat="51.081557"><ele>22.2</ele><time>2022-04-10T06:54:52.000Z</time></trkpt><trkpt lon="5.812587" lat="51.081538"><ele>22.2</ele><time>2022-04-10T06:54:53.000Z</time></trkpt><trkpt lon="5.812643" lat="51.08152"><ele>22.2</ele><time>2022-04-10T06:54:54.000Z</time></trkpt><trkpt lon="5.812702" lat="51.081511"><ele>22.2</ele><time>2022-04-10T06:54:55.000Z</time></trkpt><trkpt lon="5.812766" lat="51.081524"><ele>22.2</ele><time>2022-04-10T06:54:56.000Z</time></trkpt><trkpt lon="5.812836" lat="51.08155"><ele>22.2</ele><time>2022-04-10T06:54:57.000Z</time></trkpt><trkpt lon="5.812917" lat="51.08157"><ele>22.2</ele><time>2022-04-10T06:54:58.000Z</time></trkpt><trkpt lon="5.813009" lat="51.081581"><ele>22.2</ele><time>2022-04-10T06:54:59.000Z</time></trkpt><trkpt lon="5.813103" lat="51.081577"><ele>22</ele><time>2022-04-10T06:55:00.000Z</time></trkpt><trkpt lon="5.813197" lat="51.081559"><ele>22</ele><time>2022-04-10T06:55:01.000Z</time></trkpt><trkpt lon="5.813293" lat="51.081535"><ele>22</ele><time>2022-04-10T06:55:02.000Z</time></trkpt><trkpt lon="5.813392" lat="51.081509"><ele>22</ele><time>2022-04-10T06:55:03.000Z</time></trkpt><trkpt lon="5.813495" lat="51.081482"><ele>22</ele><time>2022-04-10T06:55:04.000Z</time></trkpt><trkpt lon="5.813598" lat="51.081456"><ele>22</ele><time>2022-04-10T06:55:05.000Z</time></trkpt><trkpt lon="5.813701" lat="51.081432"><ele>22</ele><time>2022-04-10T06:55:06.000Z</time></trkpt><trkpt lon="5.813804" lat="51.081407"><ele>22</ele><time>2022-04-10T06:55:07.000Z</time></trkpt><trkpt lon="5.813908" lat="51.081384"><ele>21.8</ele><time>2022-04-10T06:55:08.000Z</time></trkpt><trkpt lon="5.814012" lat="51.081361"><ele>22</ele><time>2022-04-10T06:55:09.000Z</time></trkpt><trkpt lon="5.814114" lat="51.081338"><ele>22</ele><time>2022-04-10T06:55:10.000Z</time></trkpt><trkpt lon="5.814214" lat="51.081314"><ele>22</ele><time>2022-04-10T06:55:11.000Z</time></trkpt><trkpt lon="5.814315" lat="51.081289"><ele>22</ele><time>2022-04-10T06:55:12.000Z</time></trkpt><trkpt lon="5.814415" lat="51.081266"><ele>22.2</ele><time>2022-04-10T06:55:13.000Z</time></trkpt><trkpt lon="5.814513" lat="51.081244"><ele>22.2</ele><time>2022-04-10T06:55:14.000Z</time></trkpt><trkpt lon="5.814613" lat="51.081223"><ele>22.2</ele><time>2022-04-10T06:55:15.000Z</time></trkpt><trkpt lon="5.814711" lat="51.081197"><ele>22.2</ele><time>2022-04-10T06:55:16.000Z</time></trkpt><trkpt lon="5.814809" lat="51.081175"><ele>22</ele><time>2022-04-10T06:55:17.000Z</time></trkpt><trkpt lon="5.814907" lat="51.081157"><ele>22</ele><time>2022-04-10T06:55:18.000Z</time></trkpt><trkpt lon="5.815007" lat="51.081142"><ele>22</ele><time>2022-04-10T06:55:19.000Z</time></trkpt><trkpt lon="5.815112" lat="51.081127"><ele>22.2</ele><time>2022-04-10T06:55:20.000Z</time></trkpt><trkpt lon="5.815216" lat="51.081111"><ele>22.2</ele><time>2022-04-10T06:55:21.000Z</time></trkpt><trkpt lon="5.81532" lat="51.081096"><ele>22.4</ele><time>2022-04-10T06:55:22.000Z</time></trkpt><trkpt lon="5.815423" lat="51.081081"><ele>22.4</ele><time>2022-04-10T06:55:23.000Z</time></trkpt><trkpt lon="5.815526" lat="51.081066"><ele>22.4</ele><time>2022-04-10T06:55:24.000Z</time></trkpt><trkpt lon="5.81563" lat="51.08105"><ele>22.4</ele><time>2022-04-10T06:55:25.000Z</time></trkpt><trkpt lon="5.815732" lat="51.081035"><ele>22.6</ele><time>2022-04-10T06:55:26.000Z</time></trkpt><trkpt lon="5.815833" lat="51.08102"><ele>22.6</ele><time>2022-04-10T06:55:27.000Z</time></trkpt><trkpt lon="5.815935" lat="51.081005"><ele>22.6</ele><time>2022-04-10T06:55:28.000Z</time></trkpt><trkpt lon="5.816036" lat="51.080989"><ele>22.6</ele><time>2022-04-10T06:55:29.000Z</time></trkpt><trkpt lon="5.816137" lat="51.080974"><ele>22.6</ele><time>2022-04-10T06:55:30.000Z</time></trkpt><trkpt lon="5.816239" lat="51.080959"><ele>22.6</ele><time>2022-04-10T06:55:31.000Z</time></trkpt><trkpt lon="5.816344" lat="51.080945"><ele>22.6</ele><time>2022-04-10T06:55:32.000Z</time></trkpt><trkpt lon="5.816446" lat="51.080933"><ele>22.6</ele><time>2022-04-10T06:55:33.000Z</time></trkpt><trkpt lon="5.816547" lat="51.080922"><ele>22.8</ele><time>2022-04-10T06:55:34.000Z</time></trkpt><trkpt lon="5.81665" lat="51.08091"><ele>22.8</ele><time>2022-04-10T06:55:35.000Z</time></trkpt><trkpt lon="5.816755" lat="51.0809"><ele>22.8</ele><time>2022-04-10T06:55:36.000Z</time></trkpt><trkpt lon="5.81686" lat="51.080891"><ele>22.8</ele><time>2022-04-10T06:55:37.000Z</time></trkpt><trkpt lon="5.816964" lat="51.080881"><ele>22.8</ele><time>2022-04-10T06:55:38.000Z</time></trkpt><trkpt lon="5.817072" lat="51.080873"><ele>22.8</ele><time>2022-04-10T06:55:39.000Z</time></trkpt><trkpt lon="5.817179" lat="51.080866"><ele>22.8</ele><time>2022-04-10T06:55:40.000Z</time></trkpt><trkpt lon="5.817287" lat="51.080857"><ele>22.8</ele><time>2022-04-10T06:55:41.000Z</time></trkpt><trkpt lon="5.817394" lat="51.080847"><ele>22.8</ele><time>2022-04-10T06:55:42.000Z</time></trkpt><trkpt lon="5.8175" lat="51.080839"><ele>22.8</ele><time>2022-04-10T06:55:43.000Z</time></trkpt><trkpt lon="5.817603" lat="51.080831"><ele>22.8</ele><time>2022-04-10T06:55:44.000Z</time></trkpt><trkpt lon="5.817704" lat="51.080824"><ele>22.8</ele><time>2022-04-10T06:55:45.000Z</time></trkpt><trkpt lon="5.817807" lat="51.080816"><ele>22.8</ele><time>2022-04-10T06:55:46.000Z</time></trkpt><trkpt lon="5.817911" lat="51.080809"><ele>22.8</ele><time>2022-04-10T06:55:47.000Z</time></trkpt><trkpt lon="5.818019" lat="51.080805"><ele>22.8</ele><time>2022-04-10T06:55:48.000Z</time></trkpt><trkpt lon="5.818128" lat="51.080798"><ele>22.8</ele><time>2022-04-10T06:55:49.000Z</time></trkpt><trkpt lon="5.818237" lat="51.080794"><ele>23</ele><time>2022-04-10T06:55:50.000Z</time></trkpt><trkpt lon="5.818344" lat="51.080789"><ele>22.8</ele><time>2022-04-10T06:55:51.000Z</time></trkpt><trkpt lon="5.818451" lat="51.080783"><ele>22.8</ele><time>2022-04-10T06:55:52.000Z</time></trkpt><trkpt lon="5.818561" lat="51.080778"><ele>22.8</ele><time>2022-04-10T06:55:53.000Z</time></trkpt><trkpt lon="5.818666" lat="51.08077"><ele>22.8</ele><time>2022-04-10T06:55:54.000Z</time></trkpt><trkpt lon="5.818773" lat="51.080764"><ele>22.8</ele><time>2022-04-10T06:55:55.000Z</time></trkpt><trkpt lon="5.818879" lat="51.08076"><ele>22.6</ele><time>2022-04-10T06:55:56.000Z</time></trkpt><trkpt lon="5.818984" lat="51.080756"><ele>22.8</ele><time>2022-04-10T06:55:57.000Z</time></trkpt><trkpt lon="5.81909" lat="51.080752"><ele>23</ele><time>2022-04-10T06:55:58.000Z</time></trkpt><trkpt lon="5.819197" lat="51.080748"><ele>23.2</ele><time>2022-04-10T06:55:59.000Z</time></trkpt><trkpt lon="5.8193" lat="51.080745"><ele>23.4</ele><time>2022-04-10T06:56:00.000Z</time></trkpt><trkpt lon="5.8194" lat="51.080741"><ele>23.6</ele><time>2022-04-10T06:56:01.000Z</time></trkpt><trkpt lon="5.819501" lat="51.080737"><ele>23.6</ele><time>2022-04-10T06:56:02.000Z</time></trkpt><trkpt lon="5.819599" lat="51.080733"><ele>23.8</ele><time>2022-04-10T06:56:03.000Z</time></trkpt><trkpt lon="5.819697" lat="51.08073"><ele>24</ele><time>2022-04-10T06:56:04.000Z</time></trkpt><trkpt lon="5.819795" lat="51.08073"><ele>24.4</ele><time>2022-04-10T06:56:05.000Z</time></trkpt><trkpt lon="5.81989" lat="51.080729"><ele>24.6</ele><time>2022-04-10T06:56:06.000Z</time></trkpt><trkpt lon="5.819988" lat="51.080727"><ele>24.8</ele><time>2022-04-10T06:56:07.000Z</time></trkpt><trkpt lon="5.820083" lat="51.080724"><ele>25</ele><time>2022-04-10T06:56:08.000Z</time></trkpt><trkpt lon="5.820176" lat="51.080718"><ele>25.2</ele><time>2022-04-10T06:56:09.000Z</time></trkpt><trkpt lon="5.820268" lat="51.080715"><ele>25.6</ele><time>2022-04-10T06:56:10.000Z</time></trkpt><trkpt lon="5.820358" lat="51.080713"><ele>25.8</ele><time>2022-04-10T06:56:11.000Z</time></trkpt><trkpt lon="5.820449" lat="51.080707"><ele>26.2</ele><time>2022-04-10T06:56:12.000Z</time></trkpt><trkpt lon="5.820544" lat="51.080703"><ele>26.4</ele><time>2022-04-10T06:56:13.000Z</time></trkpt><trkpt lon="5.820636" lat="51.080697"><ele>26.6</ele><time>2022-04-10T06:56:14.000Z</time></trkpt><trkpt lon="5.820727" lat="51.080685"><ele>26.8</ele><time>2022-04-10T06:56:15.000Z</time></trkpt><trkpt lon="5.820819" lat="51.080675"><ele>26.8</ele><time>2022-04-10T06:56:16.000Z</time></trkpt><trkpt lon="5.820912" lat="51.080666"><ele>27</ele><time>2022-04-10T06:56:17.000Z</time></trkpt><trkpt lon="5.821003" lat="51.080655"><ele>27.4</ele><time>2022-04-10T06:56:18.000Z</time></trkpt><trkpt lon="5.821092" lat="51.080643"><ele>27.6</ele><time>2022-04-10T06:56:19.000Z</time></trkpt><trkpt lon="5.821181" lat="51.080631"><ele>28</ele><time>2022-04-10T06:56:20.000Z</time></trkpt><trkpt lon="5.821271" lat="51.080616"><ele>28.2</ele><time>2022-04-10T06:56:21.000Z</time></trkpt><trkpt lon="5.821362" lat="51.0806"><ele>28.6</ele><time>2022-04-10T06:56:22.000Z</time></trkpt><trkpt lon="5.82145" lat="51.080584"><ele>28.8</ele><time>2022-04-10T06:56:23.000Z</time></trkpt><trkpt lon="5.821541" lat="51.080566"><ele>29</ele><time>2022-04-10T06:56:24.000Z</time></trkpt><trkpt lon="5.821628" lat="51.080551"><ele>29.2</ele><time>2022-04-10T06:56:25.000Z</time></trkpt><trkpt lon="5.821716" lat="51.080533"><ele>29.6</ele><time>2022-04-10T06:56:26.000Z</time></trkpt><trkpt lon="5.821804" lat="51.080512"><ele>30</ele><time>2022-04-10T06:56:27.000Z</time></trkpt><trkpt lon="5.821891" lat="51.080492"><ele>30.2</ele><time>2022-04-10T06:56:28.000Z</time></trkpt><trkpt lon="5.821976" lat="51.080474"><ele>30.6</ele><time>2022-04-10T06:56:29.000Z</time></trkpt><trkpt lon="5.82206" lat="51.080457"><ele>30.8</ele><time>2022-04-10T06:56:30.000Z</time></trkpt><trkpt lon="5.822147" lat="51.080435"><ele>31.2</ele><time>2022-04-10T06:56:31.000Z</time></trkpt><trkpt lon="5.822233" lat="51.080414"><ele>31.4</ele><time>2022-04-10T06:56:32.000Z</time></trkpt><trkpt lon="5.822316" lat="51.080388"><ele>31.6</ele><time>2022-04-10T06:56:33.000Z</time></trkpt><trkpt lon="5.822399" lat="51.080366"><ele>31.8</ele><time>2022-04-10T06:56:34.000Z</time></trkpt><trkpt lon="5.822484" lat="51.080342"><ele>32.2</ele><time>2022-04-10T06:56:35.000Z</time></trkpt><trkpt lon="5.822564" lat="51.08032"><ele>32.4</ele><time>2022-04-10T06:56:36.000Z</time></trkpt><trkpt lon="5.822644" lat="51.080296"><ele>32.6</ele><time>2022-04-10T06:56:37.000Z</time></trkpt><trkpt lon="5.822723" lat="51.080269"><ele>32.8</ele><time>2022-04-10T06:56:38.000Z</time></trkpt><trkpt lon="5.822802" lat="51.080244"><ele>33</ele><time>2022-04-10T06:56:39.000Z</time></trkpt><trkpt lon="5.822883" lat="51.080219"><ele>33.4</ele><time>2022-04-10T06:56:40.000Z</time></trkpt><trkpt lon="5.822962" lat="51.080193"><ele>33.6</ele><time>2022-04-10T06:56:41.000Z</time></trkpt><trkpt lon="5.823038" lat="51.080167"><ele>33.8</ele><time>2022-04-10T06:56:42.000Z</time></trkpt><trkpt lon="5.823111" lat="51.080143"><ele>34.2</ele><time>2022-04-10T06:56:43.000Z</time></trkpt><trkpt lon="5.823181" lat="51.080118"><ele>34.4</ele><time>2022-04-10T06:56:44.000Z</time></trkpt><trkpt lon="5.823252" lat="51.080094"><ele>34.6</ele><time>2022-04-10T06:56:45.000Z</time></trkpt><trkpt lon="5.823322" lat="51.080071"><ele>34.8</ele><time>2022-04-10T06:56:46.000Z</time></trkpt><trkpt lon="5.823392" lat="51.080044"><ele>35</ele><time>2022-04-10T06:56:47.000Z</time></trkpt><trkpt lon="5.823464" lat="51.080018"><ele>35.4</ele><time>2022-04-10T06:56:48.000Z</time></trkpt><trkpt lon="5.823536" lat="51.079995"><ele>35.6</ele><time>2022-04-10T06:56:49.000Z</time></trkpt><trkpt lon="5.823609" lat="51.079968"><ele>35.6</ele><time>2022-04-10T06:56:50.000Z</time></trkpt><trkpt lon="5.823682" lat="51.079941"><ele>35.8</ele><time>2022-04-10T06:56:51.000Z</time></trkpt><trkpt lon="5.823756" lat="51.079915"><ele>36</ele><time>2022-04-10T06:56:52.000Z</time></trkpt><trkpt lon="5.823835" lat="51.079891"><ele>36.4</ele><time>2022-04-10T06:56:53.000Z</time></trkpt><trkpt lon="5.823922" lat="51.079865"><ele>36.6</ele><time>2022-04-10T06:56:54.000Z</time></trkpt><trkpt lon="5.824012" lat="51.079837"><ele>36.8</ele><time>2022-04-10T06:56:55.000Z</time></trkpt><trkpt lon="5.824104" lat="51.079807"><ele>37</ele><time>2022-04-10T06:56:56.000Z</time></trkpt><trkpt lon="5.824195" lat="51.079776"><ele>37.2</ele><time>2022-04-10T06:56:57.000Z</time></trkpt><trkpt lon="5.824282" lat="51.079745"><ele>37.4</ele><time>2022-04-10T06:56:58.000Z</time></trkpt><trkpt lon="5.824363" lat="51.079717"><ele>37.4</ele><time>2022-04-10T06:56:59.000Z</time></trkpt><trkpt lon="5.824441" lat="51.079693"><ele>37.6</ele><time>2022-04-10T06:57:00.000Z</time></trkpt><trkpt lon="5.824518" lat="51.079667"><ele>37.8</ele><time>2022-04-10T06:57:01.000Z</time></trkpt><trkpt lon="5.824593" lat="51.079643"><ele>38</ele><time>2022-04-10T06:57:02.000Z</time></trkpt><trkpt lon="5.82467" lat="51.079617"><ele>38</ele><time>2022-04-10T06:57:03.000Z</time></trkpt><trkpt lon="5.824748" lat="51.07959"><ele>38.2</ele><time>2022-04-10T06:57:04.000Z</time></trkpt><trkpt lon="5.824825" lat="51.079562"><ele>38.2</ele><time>2022-04-10T06:57:05.000Z</time></trkpt><trkpt lon="5.824902" lat="51.079533"><ele>38.2</ele><time>2022-04-10T06:57:06.000Z</time></trkpt><trkpt lon="5.824981" lat="51.079506"><ele>38.4</ele><time>2022-04-10T06:57:07.000Z</time></trkpt><trkpt lon="5.825063" lat="51.079479"><ele>38.4</ele><time>2022-04-10T06:57:08.000Z</time></trkpt><trkpt lon="5.825144" lat="51.079452"><ele>38.4</ele><time>2022-04-10T06:57:09.000Z</time></trkpt><trkpt lon="5.825226" lat="51.079426"><ele>38.4</ele><time>2022-04-10T06:57:10.000Z</time></trkpt><trkpt lon="5.825305" lat="51.079399"><ele>38.4</ele><time>2022-04-10T06:57:11.000Z</time></trkpt><trkpt lon="5.825384" lat="51.079372"><ele>38.4</ele><time>2022-04-10T06:57:12.000Z</time></trkpt><trkpt lon="5.825464" lat="51.079346"><ele>38.4</ele><time>2022-04-10T06:57:13.000Z</time></trkpt><trkpt lon="5.825546" lat="51.079319"><ele>38.4</ele><time>2022-04-10T06:57:14.000Z</time></trkpt><trkpt lon="5.825627" lat="51.079291"><ele>38.4</ele><time>2022-04-10T06:57:15.000Z</time></trkpt><trkpt lon="5.825708" lat="51.079262"><ele>38.4</ele><time>2022-04-10T06:57:16.000Z</time></trkpt><trkpt lon="5.825788" lat="51.079235"><ele>38.4</ele><time>2022-04-10T06:57:17.000Z</time></trkpt><trkpt lon="5.825867" lat="51.079209"><ele>38.4</ele><time>2022-04-10T06:57:18.000Z</time></trkpt><trkpt lon="5.825949" lat="51.079182"><ele>38.4</ele><time>2022-04-10T06:57:19.000Z</time></trkpt><trkpt lon="5.826034" lat="51.079155"><ele>38.4</ele><time>2022-04-10T06:57:20.000Z</time></trkpt><trkpt lon="5.826115" lat="51.079126"><ele>38.4</ele><time>2022-04-10T06:57:21.000Z</time></trkpt><trkpt lon="5.826201" lat="51.079094"><ele>38.4</ele><time>2022-04-10T06:57:22.000Z</time></trkpt><trkpt lon="5.826287" lat="51.079066"><ele>38.2</ele><time>2022-04-10T06:57:23.000Z</time></trkpt><trkpt lon="5.826373" lat="51.079036"><ele>38</ele><time>2022-04-10T06:57:24.000Z</time></trkpt><trkpt lon="5.826459" lat="51.079006"><ele>38</ele><time>2022-04-10T06:57:25.000Z</time></trkpt><trkpt lon="5.826542" lat="51.078979"><ele>38</ele><time>2022-04-10T06:57:26.000Z</time></trkpt><trkpt lon="5.826627" lat="51.078949"><ele>38</ele><time>2022-04-10T06:57:27.000Z</time></trkpt><trkpt lon="5.826711" lat="51.078922"><ele>38</ele><time>2022-04-10T06:57:28.000Z</time></trkpt><trkpt lon="5.826796" lat="51.078891"><ele>37.8</ele><time>2022-04-10T06:57:29.000Z</time></trkpt><trkpt lon="5.826886" lat="51.07886"><ele>37.8</ele><time>2022-04-10T06:57:30.000Z</time></trkpt><trkpt lon="5.826976" lat="51.078831"><ele>37.6</ele><time>2022-04-10T06:57:31.000Z</time></trkpt><trkpt lon="5.82707" lat="51.078803"><ele>37.4</ele><time>2022-04-10T06:57:32.000Z</time></trkpt><trkpt lon="5.827162" lat="51.078774"><ele>37.2</ele><time>2022-04-10T06:57:33.000Z</time></trkpt><trkpt lon="5.827256" lat="51.078747"><ele>37.2</ele><time>2022-04-10T06:57:34.000Z</time></trkpt><trkpt lon="5.827352" lat="51.078719"><ele>37</ele><time>2022-04-10T06:57:35.000Z</time></trkpt><trkpt lon="5.82745" lat="51.07869"><ele>37</ele><time>2022-04-10T06:57:36.000Z</time></trkpt><trkpt lon="5.827549" lat="51.078662"><ele>36.6</ele><time>2022-04-10T06:57:37.000Z</time></trkpt><trkpt lon="5.82765" lat="51.078633"><ele>36.4</ele><time>2022-04-10T06:57:38.000Z</time></trkpt><trkpt lon="5.827754" lat="51.078605"><ele>36</ele><time>2022-04-10T06:57:39.000Z</time></trkpt><trkpt lon="5.827858" lat="51.078574"><ele>35.4</ele><time>2022-04-10T06:57:40.000Z</time></trkpt><trkpt lon="5.827964" lat="51.078544"><ele>35.2</ele><time>2022-04-10T06:57:41.000Z</time></trkpt><trkpt lon="5.828072" lat="51.078514"><ele>35</ele><time>2022-04-10T06:57:42.000Z</time></trkpt><trkpt lon="5.828182" lat="51.078489"><ele>34.8</ele><time>2022-04-10T06:57:43.000Z</time></trkpt><trkpt lon="5.828293" lat="51.078466"><ele>34.6</ele><time>2022-04-10T06:57:44.000Z</time></trkpt><trkpt lon="5.828406" lat="51.078442"><ele>34.2</ele><time>2022-04-10T06:57:45.000Z</time></trkpt><trkpt lon="5.828523" lat="51.078417"><ele>34</ele><time>2022-04-10T06:57:46.000Z</time></trkpt><trkpt lon="5.828637" lat="51.078396"><ele>33.6</ele><time>2022-04-10T06:57:47.000Z</time></trkpt><trkpt lon="5.828752" lat="51.078372"><ele>33.4</ele><time>2022-04-10T06:57:48.000Z</time></trkpt><trkpt lon="5.828872" lat="51.078351"><ele>33.2</ele><time>2022-04-10T06:57:49.000Z</time></trkpt><trkpt lon="5.828989" lat="51.078328"><ele>33</ele><time>2022-04-10T06:57:50.000Z</time></trkpt><trkpt lon="5.829107" lat="51.078305"><ele>32.6</ele><time>2022-04-10T06:57:51.000Z</time></trkpt><trkpt lon="5.829224" lat="51.078284"><ele>32.2</ele><time>2022-04-10T06:57:52.000Z</time></trkpt><trkpt lon="5.829342" lat="51.078267"><ele>32</ele><time>2022-04-10T06:57:53.000Z</time></trkpt><trkpt lon="5.829464" lat="51.078254"><ele>31.8</ele><time>2022-04-10T06:57:54.000Z</time></trkpt><trkpt lon="5.829584" lat="51.078241"><ele>31.4</ele><time>2022-04-10T06:57:55.000Z</time></trkpt><trkpt lon="5.829702" lat="51.078232"><ele>31.2</ele><time>2022-04-10T06:57:56.000Z</time></trkpt><trkpt lon="5.829822" lat="51.078222"><ele>31</ele><time>2022-04-10T06:57:57.000Z</time></trkpt><trkpt lon="5.829944" lat="51.078214"><ele>30.6</ele><time>2022-04-10T06:57:58.000Z</time></trkpt><trkpt lon="5.830067" lat="51.078208"><ele>30.4</ele><time>2022-04-10T06:57:59.000Z</time></trkpt><trkpt lon="5.830187" lat="51.078204"><ele>30.2</ele><time>2022-04-10T06:58:00.000Z</time></trkpt><trkpt lon="5.830308" lat="51.0782"><ele>30</ele><time>2022-04-10T06:58:01.000Z</time></trkpt><trkpt lon="5.830429" lat="51.078198"><ele>29.8</ele><time>2022-04-10T06:58:02.000Z</time></trkpt><trkpt lon="5.830545" lat="51.078198"><ele>29.4</ele><time>2022-04-10T06:58:03.000Z</time></trkpt><trkpt lon="5.830658" lat="51.078199"><ele>29.2</ele><time>2022-04-10T06:58:04.000Z</time></trkpt><trkpt lon="5.830763" lat="51.078201"><ele>28.8</ele><time>2022-04-10T06:58:05.000Z</time></trkpt><trkpt lon="5.830857" lat="51.078201"><ele>28.6</ele><time>2022-04-10T06:58:06.000Z</time></trkpt><trkpt lon="5.830944" lat="51.078202"><ele>28.4</ele><time>2022-04-10T06:58:07.000Z</time></trkpt><trkpt lon="5.831023" lat="51.078205"><ele>28.2</ele><time>2022-04-10T06:58:08.000Z</time></trkpt><trkpt lon="5.831089" lat="51.078205"><ele>28.2</ele><time>2022-04-10T06:58:09.000Z</time></trkpt><trkpt lon="5.831142" lat="51.078206"><ele>28</ele><time>2022-04-10T06:58:10.000Z</time></trkpt><trkpt lon="5.83118" lat="51.07821"><ele>27.8</ele><time>2022-04-10T06:58:11.000Z</time></trkpt><trkpt lon="5.831205" lat="51.078213"><ele>27.8</ele><time>2022-04-10T06:58:12.000Z</time></trkpt><trkpt lon="5.831238" lat="51.07821"><ele>27.4</ele><time>2022-04-10T06:58:23.000Z</time></trkpt><trkpt lon="5.831273" lat="51.078214"><ele>27.4</ele><time>2022-04-10T06:58:24.000Z</time></trkpt><trkpt lon="5.831311" lat="51.078217"><ele>27.4</ele><time>2022-04-10T06:58:25.000Z</time></trkpt><trkpt lon="5.831356" lat="51.078217"><ele>27.4</ele><time>2022-04-10T06:58:26.000Z</time></trkpt><trkpt lon="5.831411" lat="51.078217"><ele>27.2</ele><time>2022-04-10T06:58:27.000Z</time></trkpt><trkpt lon="5.831478" lat="51.078217"><ele>27</ele><time>2022-04-10T06:58:28.000Z</time></trkpt><trkpt lon="5.831552" lat="51.078218"><ele>27</ele><time>2022-04-10T06:58:29.000Z</time></trkpt><trkpt lon="5.831632" lat="51.078224"><ele>26.8</ele><time>2022-04-10T06:58:30.000Z</time></trkpt><trkpt lon="5.831717" lat="51.078236"><ele>26.6</ele><time>2022-04-10T06:58:31.000Z</time></trkpt><trkpt lon="5.831809" lat="51.07825"><ele>26.4</ele><time>2022-04-10T06:58:32.000Z</time></trkpt><trkpt lon="5.831909" lat="51.078261"><ele>26.2</ele><time>2022-04-10T06:58:33.000Z</time></trkpt><trkpt lon="5.832016" lat="51.078266"><ele>26</ele><time>2022-04-10T06:58:34.000Z</time></trkpt><trkpt lon="5.83213" lat="51.078266"><ele>25.8</ele><time>2022-04-10T06:58:35.000Z</time></trkpt><trkpt lon="5.832245" lat="51.078267"><ele>25.4</ele><time>2022-04-10T06:58:36.000Z</time></trkpt><trkpt lon="5.832367" lat="51.07827"><ele>25.2</ele><time>2022-04-10T06:58:37.000Z</time></trkpt><trkpt lon="5.832486" lat="51.07827"><ele>24.8</ele><time>2022-04-10T06:58:38.000Z</time></trkpt><trkpt lon="5.832606" lat="51.078269"><ele>24.6</ele><time>2022-04-10T06:58:39.000Z</time></trkpt><trkpt lon="5.832726" lat="51.078267"><ele>24.2</ele><time>2022-04-10T06:58:40.000Z</time></trkpt><trkpt lon="5.832845" lat="51.07827"><ele>24</ele><time>2022-04-10T06:58:41.000Z</time></trkpt><trkpt lon="5.832963" lat="51.078271"><ele>23.6</ele><time>2022-04-10T06:58:42.000Z</time></trkpt><trkpt lon="5.833081" lat="51.078275"><ele>23.4</ele><time>2022-04-10T06:58:43.000Z</time></trkpt><trkpt lon="5.833201" lat="51.078279"><ele>23.2</ele><time>2022-04-10T06:58:44.000Z</time></trkpt><trkpt lon="5.83332" lat="51.078282"><ele>23</ele><time>2022-04-10T06:58:45.000Z</time></trkpt><trkpt lon="5.833439" lat="51.078286"><ele>22.6</ele><time>2022-04-10T06:58:46.000Z</time></trkpt><trkpt lon="5.833557" lat="51.07829"><ele>22.6</ele><time>2022-04-10T06:58:47.000Z</time></trkpt><trkpt lon="5.833678" lat="51.078293"><ele>22.4</ele><time>2022-04-10T06:58:48.000Z</time></trkpt><trkpt lon="5.833798" lat="51.078293"><ele>22.4</ele><time>2022-04-10T06:58:49.000Z</time></trkpt><trkpt lon="5.833917" lat="51.078292"><ele>22.2</ele><time>2022-04-10T06:58:50.000Z</time></trkpt><trkpt lon="5.834036" lat="51.078288"><ele>22</ele><time>2022-04-10T06:58:51.000Z</time></trkpt><trkpt lon="5.83416" lat="51.078282"><ele>22</ele><time>2022-04-10T06:58:52.000Z</time></trkpt><trkpt lon="5.834278" lat="51.078271"><ele>21.8</ele><time>2022-04-10T06:58:53.000Z</time></trkpt><trkpt lon="5.834393" lat="51.078258"><ele>21.8</ele><time>2022-04-10T06:58:54.000Z</time></trkpt><trkpt lon="5.834511" lat="51.078243"><ele>22</ele><time>2022-04-10T06:58:55.000Z</time></trkpt><trkpt lon="5.834627" lat="51.078228"><ele>22</ele><time>2022-04-10T06:58:56.000Z</time></trkpt><trkpt lon="5.834742" lat="51.078211"><ele>22.2</ele><time>2022-04-10T06:58:57.000Z</time></trkpt><trkpt lon="5.834854" lat="51.078192"><ele>22.2</ele><time>2022-04-10T06:58:58.000Z</time></trkpt><trkpt lon="5.834968" lat="51.078174"><ele>22.2</ele><time>2022-04-10T06:58:59.000Z</time></trkpt><trkpt lon="5.835082" lat="51.078158"><ele>22.2</ele><time>2022-04-10T06:59:00.000Z</time></trkpt><trkpt lon="5.835191" lat="51.078138"><ele>22.2</ele><time>2022-04-10T06:59:01.000Z</time></trkpt><trkpt lon="5.8353" lat="51.078115"><ele>22.2</ele><time>2022-04-10T06:59:02.000Z</time></trkpt><trkpt lon="5.835413" lat="51.078093"><ele>22.4</ele><time>2022-04-10T06:59:03.000Z</time></trkpt><trkpt lon="5.83552" lat="51.078073"><ele>22.4</ele><time>2022-04-10T06:59:04.000Z</time></trkpt><trkpt lon="5.835629" lat="51.07805"><ele>22.4</ele><time>2022-04-10T06:59:05.000Z</time></trkpt><trkpt lon="5.835737" lat="51.078026"><ele>22.4</ele><time>2022-04-10T06:59:06.000Z</time></trkpt><trkpt lon="5.835845" lat="51.078"><ele>22.4</ele><time>2022-04-10T06:59:07.000Z</time></trkpt><trkpt lon="5.835953" lat="51.077979"><ele>22.4</ele><time>2022-04-10T06:59:08.000Z</time></trkpt><trkpt lon="5.836062" lat="51.077958"><ele>22.4</ele><time>2022-04-10T06:59:09.000Z</time></trkpt><trkpt lon="5.83617" lat="51.077936"><ele>22.4</ele><time>2022-04-10T06:59:10.000Z</time></trkpt><trkpt lon="5.836279" lat="51.077914"><ele>22.6</ele><time>2022-04-10T06:59:11.000Z</time></trkpt><trkpt lon="5.836386" lat="51.077893"><ele>22.6</ele><time>2022-04-10T06:59:12.000Z</time></trkpt><trkpt lon="5.836493" lat="51.077867"><ele>22.6</ele><time>2022-04-10T06:59:13.000Z</time></trkpt><trkpt lon="5.836597" lat="51.077845"><ele>22.8</ele><time>2022-04-10T06:59:14.000Z</time></trkpt><trkpt lon="5.836703" lat="51.077825"><ele>22.8</ele><time>2022-04-10T06:59:15.000Z</time></trkpt><trkpt lon="5.83681" lat="51.077802"><ele>22.8</ele><time>2022-04-10T06:59:16.000Z</time></trkpt><trkpt lon="5.836916" lat="51.077779"><ele>22.8</ele><time>2022-04-10T06:59:17.000Z</time></trkpt><trkpt lon="5.837024" lat="51.077756"><ele>22.8</ele><time>2022-04-10T06:59:18.000Z</time></trkpt><trkpt lon="5.837131" lat="51.077733"><ele>22.8</ele><time>2022-04-10T06:59:19.000Z</time></trkpt><trkpt lon="5.837238" lat="51.07771"><ele>22.8</ele><time>2022-04-10T06:59:20.000Z</time></trkpt><trkpt lon="5.837346" lat="51.077687"><ele>22.8</ele><time>2022-04-10T06:59:21.000Z</time></trkpt><trkpt lon="5.837454" lat="51.077665"><ele>23</ele><time>2022-04-10T06:59:22.000Z</time></trkpt><trkpt lon="5.837563" lat="51.077641"><ele>23</ele><time>2022-04-10T06:59:23.000Z</time></trkpt><trkpt lon="5.837674" lat="51.077615"><ele>23</ele><time>2022-04-10T06:59:24.000Z</time></trkpt><trkpt lon="5.837784" lat="51.077591"><ele>23</ele><time>2022-04-10T06:59:25.000Z</time></trkpt><trkpt lon="5.837894" lat="51.077563"><ele>23</ele><time>2022-04-10T06:59:26.000Z</time></trkpt><trkpt lon="5.838002" lat="51.077533"><ele>23</ele><time>2022-04-10T06:59:27.000Z</time></trkpt><trkpt lon="5.838107" lat="51.077502"><ele>23</ele><time>2022-04-10T06:59:28.000Z</time></trkpt><trkpt lon="5.838214" lat="51.077467"><ele>23</ele><time>2022-04-10T06:59:29.000Z</time></trkpt><trkpt lon="5.838317" lat="51.077433"><ele>23</ele><time>2022-04-10T06:59:30.000Z</time></trkpt><trkpt lon="5.83842" lat="51.077397"><ele>23</ele><time>2022-04-10T06:59:31.000Z</time></trkpt><trkpt lon="5.838519" lat="51.077358"><ele>23</ele><time>2022-04-10T06:59:32.000Z</time></trkpt><trkpt lon="5.838619" lat="51.077316"><ele>22.8</ele><time>2022-04-10T06:59:33.000Z</time></trkpt><trkpt lon="5.838716" lat="51.077274"><ele>22.8</ele><time>2022-04-10T06:59:34.000Z</time></trkpt><trkpt lon="5.838811" lat="51.077232"><ele>22.8</ele><time>2022-04-10T06:59:35.000Z</time></trkpt><trkpt lon="5.838902" lat="51.077189"><ele>22.8</ele><time>2022-04-10T06:59:36.000Z</time></trkpt><trkpt lon="5.838991" lat="51.077143"><ele>22.6</ele><time>2022-04-10T06:59:37.000Z</time></trkpt><trkpt lon="5.839076" lat="51.077098"><ele>22.6</ele><time>2022-04-10T06:59:38.000Z</time></trkpt><trkpt lon="5.839162" lat="51.077048"><ele>22.6</ele><time>2022-04-10T06:59:39.000Z</time></trkpt><trkpt lon="5.839243" lat="51.077"><ele>22.6</ele><time>2022-04-10T06:59:40.000Z</time></trkpt><trkpt lon="5.839321" lat="51.076949"><ele>22.4</ele><time>2022-04-10T06:59:41.000Z</time></trkpt><trkpt lon="5.8394" lat="51.076898"><ele>22.4</ele><time>2022-04-10T06:59:42.000Z</time></trkpt><trkpt lon="5.839477" lat="51.076843"><ele>22.4</ele><time>2022-04-10T06:59:43.000Z</time></trkpt><trkpt lon="5.839549" lat="51.07679"><ele>22.4</ele><time>2022-04-10T06:59:44.000Z</time></trkpt><trkpt lon="5.839619" lat="51.076737"><ele>22.4</ele><time>2022-04-10T06:59:45.000Z</time></trkpt><trkpt lon="5.839687" lat="51.076682"><ele>22.4</ele><time>2022-04-10T06:59:46.000Z</time></trkpt><trkpt lon="5.839752" lat="51.076624"><ele>22.4</ele><time>2022-04-10T06:59:47.000Z</time></trkpt><trkpt lon="5.839816" lat="51.076564"><ele>22.4</ele><time>2022-04-10T06:59:48.000Z</time></trkpt><trkpt lon="5.839876" lat="51.076505"><ele>22.4</ele><time>2022-04-10T06:59:49.000Z</time></trkpt><trkpt lon="5.839932" lat="51.076444"><ele>22.4</ele><time>2022-04-10T06:59:50.000Z</time></trkpt><trkpt lon="5.839989" lat="51.07638"><ele>22.2</ele><time>2022-04-10T06:59:51.000Z</time></trkpt><trkpt lon="5.840044" lat="51.076318"><ele>22.2</ele><time>2022-04-10T06:59:52.000Z</time></trkpt><trkpt lon="5.840094" lat="51.076257"><ele>22</ele><time>2022-04-10T06:59:53.000Z</time></trkpt><trkpt lon="5.840143" lat="51.076192"><ele>22</ele><time>2022-04-10T06:59:54.000Z</time></trkpt><trkpt lon="5.840189" lat="51.076127"><ele>22</ele><time>2022-04-10T06:59:55.000Z</time></trkpt><trkpt lon="5.840234" lat="51.076062"><ele>21.8</ele><time>2022-04-10T06:59:56.000Z</time></trkpt><trkpt lon="5.840276" lat="51.075994"><ele>21.8</ele><time>2022-04-10T06:59:57.000Z</time></trkpt><trkpt lon="5.840317" lat="51.075928"><ele>21.6</ele><time>2022-04-10T06:59:58.000Z</time></trkpt><trkpt lon="5.840359" lat="51.075863"><ele>21.6</ele><time>2022-04-10T06:59:59.000Z</time></trkpt><trkpt lon="5.840402" lat="51.075799"><ele>21.6</ele><time>2022-04-10T07:00:00.000Z</time></trkpt><trkpt lon="5.840443" lat="51.075735"><ele>21.6</ele><time>2022-04-10T07:00:01.000Z</time></trkpt><trkpt lon="5.840486" lat="51.07567"><ele>21.8</ele><time>2022-04-10T07:00:02.000Z</time></trkpt><trkpt lon="5.84053" lat="51.075604"><ele>21.8</ele><time>2022-04-10T07:00:03.000Z</time></trkpt><trkpt lon="5.840571" lat="51.07554"><ele>21.8</ele><time>2022-04-10T07:00:04.000Z</time></trkpt><trkpt lon="5.840611" lat="51.075479"><ele>22</ele><time>2022-04-10T07:00:05.000Z</time></trkpt><trkpt lon="5.840651" lat="51.075413"><ele>21.8</ele><time>2022-04-10T07:00:06.000Z</time></trkpt><trkpt lon="5.840691" lat="51.075346"><ele>22</ele><time>2022-04-10T07:00:07.000Z</time></trkpt><trkpt lon="5.840732" lat="51.075284"><ele>22</ele><time>2022-04-10T07:00:08.000Z</time></trkpt><trkpt lon="5.840774" lat="51.075219"><ele>22</ele><time>2022-04-10T07:00:09.000Z</time></trkpt><trkpt lon="5.840816" lat="51.075156"><ele>22</ele><time>2022-04-10T07:00:10.000Z</time></trkpt><trkpt lon="5.840855" lat="51.075094"><ele>22.2</ele><time>2022-04-10T07:00:11.000Z</time></trkpt><trkpt lon="5.840894" lat="51.07503"><ele>22.2</ele><time>2022-04-10T07:00:12.000Z</time></trkpt><trkpt lon="5.840935" lat="51.074968"><ele>22.2</ele><time>2022-04-10T07:00:13.000Z</time></trkpt><trkpt lon="5.840978" lat="51.074906"><ele>22.2</ele><time>2022-04-10T07:00:14.000Z</time></trkpt><trkpt lon="5.841018" lat="51.074843"><ele>22.2</ele><time>2022-04-10T07:00:15.000Z</time></trkpt><trkpt lon="5.841058" lat="51.074778"><ele>22.2</ele><time>2022-04-10T07:00:16.000Z</time></trkpt><trkpt lon="5.841097" lat="51.074716"><ele>22.2</ele><time>2022-04-10T07:00:17.000Z</time></trkpt><trkpt lon="5.841143" lat="51.074652"><ele>22.2</ele><time>2022-04-10T07:00:18.000Z</time></trkpt><trkpt lon="5.841191" lat="51.07459"><ele>22.2</ele><time>2022-04-10T07:00:19.000Z</time></trkpt><trkpt lon="5.841241" lat="51.074528"><ele>22.2</ele><time>2022-04-10T07:00:20.000Z</time></trkpt><trkpt lon="5.84129" lat="51.074463"><ele>22.2</ele><time>2022-04-10T07:00:21.000Z</time></trkpt><trkpt lon="5.841337" lat="51.0744"><ele>22.2</ele><time>2022-04-10T07:00:22.000Z</time></trkpt><trkpt lon="5.841384" lat="51.074336"><ele>22.2</ele><time>2022-04-10T07:00:23.000Z</time></trkpt><trkpt lon="5.841432" lat="51.07427"><ele>22.2</ele><time>2022-04-10T07:00:24.000Z</time></trkpt><trkpt lon="5.841482" lat="51.074208"><ele>22.2</ele><time>2022-04-10T07:00:25.000Z</time></trkpt><trkpt lon="5.84153" lat="51.074144"><ele>22</ele><time>2022-04-10T07:00:26.000Z</time></trkpt><trkpt lon="5.84158" lat="51.07408"><ele>22</ele><time>2022-04-10T07:00:27.000Z</time></trkpt><trkpt lon="5.84163" lat="51.074018"><ele>22</ele><time>2022-04-10T07:00:28.000Z</time></trkpt><trkpt lon="5.841681" lat="51.073953"><ele>22</ele><time>2022-04-10T07:00:29.000Z</time></trkpt><trkpt lon="5.841731" lat="51.073892"><ele>22</ele><time>2022-04-10T07:00:30.000Z</time></trkpt><trkpt lon="5.841782" lat="51.073829"><ele>22.2</ele><time>2022-04-10T07:00:31.000Z</time></trkpt><trkpt lon="5.841833" lat="51.073767"><ele>22</ele><time>2022-04-10T07:00:32.000Z</time></trkpt><trkpt lon="5.841883" lat="51.073705"><ele>22</ele><time>2022-04-10T07:00:33.000Z</time></trkpt><trkpt lon="5.841933" lat="51.073644"><ele>22</ele><time>2022-04-10T07:00:34.000Z</time></trkpt><trkpt lon="5.841983" lat="51.073583"><ele>22.2</ele><time>2022-04-10T07:00:35.000Z</time></trkpt><trkpt lon="5.842034" lat="51.073519"><ele>22.2</ele><time>2022-04-10T07:00:36.000Z</time></trkpt><trkpt lon="5.842084" lat="51.073458"><ele>22</ele><time>2022-04-10T07:00:37.000Z</time></trkpt><trkpt lon="5.842135" lat="51.073398"><ele>22</ele><time>2022-04-10T07:00:38.000Z</time></trkpt><trkpt lon="5.842186" lat="51.073336"><ele>22</ele><time>2022-04-10T07:00:39.000Z</time></trkpt><trkpt lon="5.842239" lat="51.073273"><ele>22.2</ele><time>2022-04-10T07:00:40.000Z</time></trkpt><trkpt lon="5.842291" lat="51.07321"><ele>22.2</ele><time>2022-04-10T07:00:41.000Z</time></trkpt><trkpt lon="5.842343" lat="51.073149"><ele>22.2</ele><time>2022-04-10T07:00:42.000Z</time></trkpt><trkpt lon="5.842396" lat="51.073086"><ele>22.2</ele><time>2022-04-10T07:00:43.000Z</time></trkpt><trkpt lon="5.842448" lat="51.073022"><ele>22.2</ele><time>2022-04-10T07:00:44.000Z</time></trkpt><trkpt lon="5.8425" lat="51.072958"><ele>22.2</ele><time>2022-04-10T07:00:45.000Z</time></trkpt><trkpt lon="5.842552" lat="51.072896"><ele>22.2</ele><time>2022-04-10T07:00:46.000Z</time></trkpt><trkpt lon="5.842602" lat="51.072833"><ele>22.2</ele><time>2022-04-10T07:00:47.000Z</time></trkpt><trkpt lon="5.842654" lat="51.07277"><ele>22.2</ele><time>2022-04-10T07:00:48.000Z</time></trkpt><trkpt lon="5.842704" lat="51.072707"><ele>22.2</ele><time>2022-04-10T07:00:49.000Z</time></trkpt><trkpt lon="5.842754" lat="51.072645"><ele>22</ele><time>2022-04-10T07:00:50.000Z</time></trkpt><trkpt lon="5.842804" lat="51.072584"><ele>22</ele><time>2022-04-10T07:00:51.000Z</time></trkpt><trkpt lon="5.842854" lat="51.072523"><ele>22</ele><time>2022-04-10T07:00:52.000Z</time></trkpt><trkpt lon="5.842904" lat="51.072462"><ele>22</ele><time>2022-04-10T07:00:53.000Z</time></trkpt><trkpt lon="5.842954" lat="51.072401"><ele>22.2</ele><time>2022-04-10T07:00:54.000Z</time></trkpt><trkpt lon="5.843004" lat="51.07234"><ele>22.2</ele><time>2022-04-10T07:00:55.000Z</time></trkpt><trkpt lon="5.843054" lat="51.072279"><ele>22.2</ele><time>2022-04-10T07:00:56.000Z</time></trkpt><trkpt lon="5.843106" lat="51.072219"><ele>22.2</ele><time>2022-04-10T07:00:57.000Z</time></trkpt><trkpt lon="5.843155" lat="51.072161"><ele>22</ele><time>2022-04-10T07:00:58.000Z</time></trkpt><trkpt lon="5.843207" lat="51.0721"><ele>22</ele><time>2022-04-10T07:00:59.000Z</time></trkpt><trkpt lon="5.843263" lat="51.07204"><ele>22.2</ele><time>2022-04-10T07:01:00.000Z</time></trkpt><trkpt lon="5.843321" lat="51.071983"><ele>22.2</ele><time>2022-04-10T07:01:01.000Z</time></trkpt><trkpt lon="5.84338" lat="51.071922"><ele>22.2</ele><time>2022-04-10T07:01:02.000Z</time></trkpt><trkpt lon="5.843439" lat="51.071859"><ele>22.2</ele><time>2022-04-10T07:01:03.000Z</time></trkpt><trkpt lon="5.843494" lat="51.071799"><ele>22.2</ele><time>2022-04-10T07:01:04.000Z</time></trkpt><trkpt lon="5.843546" lat="51.071737"><ele>22.2</ele><time>2022-04-10T07:01:05.000Z</time></trkpt><trkpt lon="5.843596" lat="51.071675"><ele>22.2</ele><time>2022-04-10T07:01:06.000Z</time></trkpt><trkpt lon="5.843647" lat="51.071613"><ele>22.2</ele><time>2022-04-10T07:01:07.000Z</time></trkpt><trkpt lon="5.843696" lat="51.071555"><ele>22</ele><time>2022-04-10T07:01:08.000Z</time></trkpt><trkpt lon="5.843748" lat="51.07149"><ele>22.2</ele><time>2022-04-10T07:01:09.000Z</time></trkpt><trkpt lon="5.843799" lat="51.071428"><ele>22.4</ele><time>2022-04-10T07:01:10.000Z</time></trkpt><trkpt lon="5.843849" lat="51.071368"><ele>22.4</ele><time>2022-04-10T07:01:11.000Z</time></trkpt><trkpt lon="5.843899" lat="51.071305"><ele>22.4</ele><time>2022-04-10T07:01:12.000Z</time></trkpt><trkpt lon="5.843949" lat="51.071242"><ele>22.4</ele><time>2022-04-10T07:01:13.000Z</time></trkpt><trkpt lon="5.844001" lat="51.07118"><ele>22.2</ele><time>2022-04-10T07:01:14.000Z</time></trkpt><trkpt lon="5.844051" lat="51.071119"><ele>22.4</ele><time>2022-04-10T07:01:15.000Z</time></trkpt><trkpt lon="5.8441" lat="51.071059"><ele>22.4</ele><time>2022-04-10T07:01:16.000Z</time></trkpt><trkpt lon="5.844151" lat="51.070997"><ele>22.2</ele><time>2022-04-10T07:01:17.000Z</time></trkpt><trkpt lon="5.844203" lat="51.070937"><ele>22.2</ele><time>2022-04-10T07:01:18.000Z</time></trkpt><trkpt lon="5.844254" lat="51.070875"><ele>22.2</ele><time>2022-04-10T07:01:19.000Z</time></trkpt><trkpt lon="5.844302" lat="51.070814"><ele>22</ele><time>2022-04-10T07:01:20.000Z</time></trkpt><trkpt lon="5.844351" lat="51.070754"><ele>22</ele><time>2022-04-10T07:01:21.000Z</time></trkpt><trkpt lon="5.8444" lat="51.070696"><ele>22</ele><time>2022-04-10T07:01:22.000Z</time></trkpt><trkpt lon="5.84445" lat="51.070635"><ele>22.2</ele><time>2022-04-10T07:01:23.000Z</time></trkpt><trkpt lon="5.844502" lat="51.070574"><ele>22.2</ele><time>2022-04-10T07:01:24.000Z</time></trkpt><trkpt lon="5.844555" lat="51.070514"><ele>22.4</ele><time>2022-04-10T07:01:25.000Z</time></trkpt><trkpt lon="5.844611" lat="51.070457"><ele>22.4</ele><time>2022-04-10T07:01:26.000Z</time></trkpt><trkpt lon="5.84467" lat="51.070399"><ele>22.2</ele><time>2022-04-10T07:01:27.000Z</time></trkpt><trkpt lon="5.844731" lat="51.070342"><ele>22.2</ele><time>2022-04-10T07:01:28.000Z</time></trkpt><trkpt lon="5.844795" lat="51.070285"><ele>22.2</ele><time>2022-04-10T07:01:29.000Z</time></trkpt><trkpt lon="5.844862" lat="51.070228"><ele>22.2</ele><time>2022-04-10T07:01:30.000Z</time></trkpt><trkpt lon="5.844933" lat="51.070174"><ele>22.2</ele><time>2022-04-10T07:01:31.000Z</time></trkpt><trkpt lon="5.845004" lat="51.070119"><ele>22.2</ele><time>2022-04-10T07:01:32.000Z</time></trkpt><trkpt lon="5.845078" lat="51.070066"><ele>22.2</ele><time>2022-04-10T07:01:33.000Z</time></trkpt><trkpt lon="5.845153" lat="51.070015"><ele>22.2</ele><time>2022-04-10T07:01:34.000Z</time></trkpt><trkpt lon="5.845228" lat="51.069963"><ele>22.2</ele><time>2022-04-10T07:01:35.000Z</time></trkpt><trkpt lon="5.845305" lat="51.069915"><ele>22.2</ele><time>2022-04-10T07:01:36.000Z</time></trkpt><trkpt lon="5.845387" lat="51.069869"><ele>22.2</ele><time>2022-04-10T07:01:37.000Z</time></trkpt><trkpt lon="5.845472" lat="51.069823"><ele>22</ele><time>2022-04-10T07:01:38.000Z</time></trkpt><trkpt lon="5.845554" lat="51.069778"><ele>22</ele><time>2022-04-10T07:01:39.000Z</time></trkpt><trkpt lon="5.84564" lat="51.069736"><ele>22</ele><time>2022-04-10T07:01:40.000Z</time></trkpt><trkpt lon="5.845729" lat="51.069695"><ele>22</ele><time>2022-04-10T07:01:41.000Z</time></trkpt><trkpt lon="5.845818" lat="51.069658"><ele>22.2</ele><time>2022-04-10T07:01:42.000Z</time></trkpt><trkpt lon="5.84591" lat="51.069625"><ele>22.2</ele><time>2022-04-10T07:01:43.000Z</time></trkpt><trkpt lon="5.846005" lat="51.069592"><ele>22</ele><time>2022-04-10T07:01:44.000Z</time></trkpt><trkpt lon="5.846101" lat="51.069555"><ele>22</ele><time>2022-04-10T07:01:45.000Z</time></trkpt><trkpt lon="5.846196" lat="51.069521"><ele>22.2</ele><time>2022-04-10T07:01:46.000Z</time></trkpt><trkpt lon="5.846293" lat="51.069486"><ele>22.2</ele><time>2022-04-10T07:01:47.000Z</time></trkpt><trkpt lon="5.846391" lat="51.069451"><ele>22.4</ele><time>2022-04-10T07:01:48.000Z</time></trkpt><trkpt lon="5.84649" lat="51.069414"><ele>22.4</ele><time>2022-04-10T07:01:49.000Z</time></trkpt><trkpt lon="5.846588" lat="51.069378"><ele>22.4</ele><time>2022-04-10T07:01:50.000Z</time></trkpt><trkpt lon="5.846686" lat="51.069341"><ele>22.4</ele><time>2022-04-10T07:01:51.000Z</time></trkpt><trkpt lon="5.846781" lat="51.069306"><ele>22.4</ele><time>2022-04-10T07:01:52.000Z</time></trkpt><trkpt lon="5.846876" lat="51.069269"><ele>22.6</ele><time>2022-04-10T07:01:53.000Z</time></trkpt><trkpt lon="5.846966" lat="51.069235"><ele>22.6</ele><time>2022-04-10T07:01:54.000Z</time></trkpt><trkpt lon="5.847054" lat="51.0692"><ele>22.6</ele><time>2022-04-10T07:01:55.000Z</time></trkpt><trkpt lon="5.847136" lat="51.069161"><ele>22.6</ele><time>2022-04-10T07:01:56.000Z</time></trkpt><trkpt lon="5.847208" lat="51.069121"><ele>22.8</ele><time>2022-04-10T07:01:57.000Z</time></trkpt><trkpt lon="5.847264" lat="51.069072"><ele>22.8</ele><time>2022-04-10T07:01:58.000Z</time></trkpt><trkpt lon="5.847307" lat="51.069014"><ele>23</ele><time>2022-04-10T07:01:59.000Z</time></trkpt><trkpt lon="5.84735" lat="51.068958"><ele>23.2</ele><time>2022-04-10T07:02:00.000Z</time></trkpt><trkpt lon="5.847402" lat="51.068905"><ele>23.2</ele><time>2022-04-10T07:02:01.000Z</time></trkpt><trkpt lon="5.847467" lat="51.068854"><ele>23.2</ele><time>2022-04-10T07:02:02.000Z</time></trkpt><trkpt lon="5.847548" lat="51.068812"><ele>23.2</ele><time>2022-04-10T07:02:03.000Z</time></trkpt><trkpt lon="5.847639" lat="51.068776"><ele>23</ele><time>2022-04-10T07:02:04.000Z</time></trkpt><trkpt lon="5.847735" lat="51.06874"><ele>23.2</ele><time>2022-04-10T07:02:05.000Z</time></trkpt><trkpt lon="5.847829" lat="51.068707"><ele>23.2</ele><time>2022-04-10T07:02:06.000Z</time></trkpt><trkpt lon="5.847922" lat="51.068669"><ele>23.4</ele><time>2022-04-10T07:02:07.000Z</time></trkpt><trkpt lon="5.848007" lat="51.06863"><ele>23.4</ele><time>2022-04-10T07:02:08.000Z</time></trkpt><trkpt lon="5.84808" lat="51.068586"><ele>23.6</ele><time>2022-04-10T07:02:09.000Z</time></trkpt><trkpt lon="5.848134" lat="51.068534"><ele>23.6</ele><time>2022-04-10T07:02:10.000Z</time></trkpt><trkpt lon="5.848177" lat="51.068476"><ele>23.6</ele><time>2022-04-10T07:02:11.000Z</time></trkpt><trkpt lon="5.848205" lat="51.068413"><ele>23.6</ele><time>2022-04-10T07:02:12.000Z</time></trkpt><trkpt lon="5.848219" lat="51.068349"><ele>23.6</ele><time>2022-04-10T07:02:13.000Z</time></trkpt><trkpt lon="5.848218" lat="51.068283"><ele>23.6</ele><time>2022-04-10T07:02:14.000Z</time></trkpt><trkpt lon="5.848202" lat="51.068215"><ele>23.8</ele><time>2022-04-10T07:02:15.000Z</time></trkpt><trkpt lon="5.84817" lat="51.06815"><ele>23.6</ele><time>2022-04-10T07:02:16.000Z</time></trkpt><trkpt lon="5.848125" lat="51.068087"><ele>23.6</ele><time>2022-04-10T07:02:17.000Z</time></trkpt><trkpt lon="5.848069" lat="51.068025"><ele>23.6</ele><time>2022-04-10T07:02:18.000Z</time></trkpt><trkpt lon="5.848007" lat="51.067965"><ele>23.6</ele><time>2022-04-10T07:02:19.000Z</time></trkpt><trkpt lon="5.847942" lat="51.067905"><ele>23.4</ele><time>2022-04-10T07:02:20.000Z</time></trkpt><trkpt lon="5.847878" lat="51.067848"><ele>23.4</ele><time>2022-04-10T07:02:21.000Z</time></trkpt><trkpt lon="5.847814" lat="51.067789"><ele>23.2</ele><time>2022-04-10T07:02:22.000Z</time></trkpt><trkpt lon="5.847751" lat="51.06773"><ele>23.2</ele><time>2022-04-10T07:02:23.000Z</time></trkpt><trkpt lon="5.847686" lat="51.067671"><ele>23</ele><time>2022-04-10T07:02:24.000Z</time></trkpt><trkpt lon="5.847623" lat="51.06761"><ele>22.8</ele><time>2022-04-10T07:02:25.000Z</time></trkpt><trkpt lon="5.847562" lat="51.067549"><ele>22.8</ele><time>2022-04-10T07:02:26.000Z</time></trkpt><trkpt lon="5.847499" lat="51.067489"><ele>22.6</ele><time>2022-04-10T07:02:27.000Z</time></trkpt><trkpt lon="5.847438" lat="51.06743"><ele>22.4</ele><time>2022-04-10T07:02:28.000Z</time></trkpt><trkpt lon="5.84738" lat="51.06737"><ele>22.6</ele><time>2022-04-10T07:02:29.000Z</time></trkpt><trkpt lon="5.847322" lat="51.067313"><ele>22.4</ele><time>2022-04-10T07:02:30.000Z</time></trkpt><trkpt lon="5.847266" lat="51.067256"><ele>22.4</ele><time>2022-04-10T07:02:31.000Z</time></trkpt><trkpt lon="5.84721" lat="51.067198"><ele>22.4</ele><time>2022-04-10T07:02:32.000Z</time></trkpt><trkpt lon="5.847155" lat="51.067138"><ele>22.6</ele><time>2022-04-10T07:02:33.000Z</time></trkpt><trkpt lon="5.847101" lat="51.067081"><ele>22.6</ele><time>2022-04-10T07:02:34.000Z</time></trkpt><trkpt lon="5.847047" lat="51.067022"><ele>22.8</ele><time>2022-04-10T07:02:35.000Z</time></trkpt><trkpt lon="5.846994" lat="51.066963"><ele>22.8</ele><time>2022-04-10T07:02:36.000Z</time></trkpt><trkpt lon="5.84694" lat="51.066905"><ele>22.8</ele><time>2022-04-10T07:02:37.000Z</time></trkpt><trkpt lon="5.846889" lat="51.066848"><ele>23.2</ele><time>2022-04-10T07:02:38.000Z</time></trkpt><trkpt lon="5.846839" lat="51.06679"><ele>23.6</ele><time>2022-04-10T07:02:39.000Z</time></trkpt><trkpt lon="5.846788" lat="51.066734"><ele>23.8</ele><time>2022-04-10T07:02:40.000Z</time></trkpt><trkpt lon="5.846736" lat="51.066679"><ele>23.8</ele><time>2022-04-10T07:02:41.000Z</time></trkpt><trkpt lon="5.846687" lat="51.06662"><ele>24</ele><time>2022-04-10T07:02:42.000Z</time></trkpt><trkpt lon="5.846637" lat="51.066561"><ele>24.2</ele><time>2022-04-10T07:02:43.000Z</time></trkpt><trkpt lon="5.84659" lat="51.0665"><ele>24.4</ele><time>2022-04-10T07:02:44.000Z</time></trkpt><trkpt lon="5.846543" lat="51.066441"><ele>24.4</ele><time>2022-04-10T07:02:45.000Z</time></trkpt><trkpt lon="5.846497" lat="51.066385"><ele>24.2</ele><time>2022-04-10T07:02:46.000Z</time></trkpt><trkpt lon="5.846443" lat="51.06632"><ele>24</ele><time>2022-04-10T07:02:47.000Z</time></trkpt><trkpt lon="5.846393" lat="51.066259"><ele>23.8</ele><time>2022-04-10T07:02:48.000Z</time></trkpt><trkpt lon="5.846344" lat="51.066194"><ele>23.6</ele><time>2022-04-10T07:02:49.000Z</time></trkpt><trkpt lon="5.846295" lat="51.066134"><ele>23.4</ele><time>2022-04-10T07:02:50.000Z</time></trkpt><trkpt lon="5.846243" lat="51.066076"><ele>23.2</ele><time>2022-04-10T07:02:51.000Z</time></trkpt><trkpt lon="5.84619" lat="51.066015"><ele>23</ele><time>2022-04-10T07:02:52.000Z</time></trkpt><trkpt lon="5.846138" lat="51.065954"><ele>22.8</ele><time>2022-04-10T07:02:53.000Z</time></trkpt><trkpt lon="5.846088" lat="51.065894"><ele>23.4</ele><time>2022-04-10T07:02:54.000Z</time></trkpt><trkpt lon="5.846039" lat="51.065836"><ele>23.8</ele><time>2022-04-10T07:02:55.000Z</time></trkpt><trkpt lon="5.845991" lat="51.065775"><ele>24.2</ele><time>2022-04-10T07:02:56.000Z</time></trkpt><trkpt lon="5.845943" lat="51.065714"><ele>23.8</ele><time>2022-04-10T07:02:57.000Z</time></trkpt><trkpt lon="5.845893" lat="51.065653"><ele>23.6</ele><time>2022-04-10T07:02:58.000Z</time></trkpt><trkpt lon="5.845845" lat="51.065592"><ele>23.4</ele><time>2022-04-10T07:02:59.000Z</time></trkpt><trkpt lon="5.845797" lat="51.065531"><ele>23.2</ele><time>2022-04-10T07:03:00.000Z</time></trkpt><trkpt lon="5.845747" lat="51.065471"><ele>23.2</ele><time>2022-04-10T07:03:01.000Z</time></trkpt><trkpt lon="5.845699" lat="51.065414"><ele>23</ele><time>2022-04-10T07:03:02.000Z</time></trkpt><trkpt lon="5.845648" lat="51.065351"><ele>23</ele><time>2022-04-10T07:03:03.000Z</time></trkpt><trkpt lon="5.845597" lat="51.06529"><ele>22.8</ele><time>2022-04-10T07:03:04.000Z</time></trkpt><trkpt lon="5.845548" lat="51.06523"><ele>22.8</ele><time>2022-04-10T07:03:05.000Z</time></trkpt><trkpt lon="5.845499" lat="51.065169"><ele>22.8</ele><time>2022-04-10T07:03:06.000Z</time></trkpt><trkpt lon="5.84545" lat="51.065111"><ele>22.6</ele><time>2022-04-10T07:03:07.000Z</time></trkpt><trkpt lon="5.845401" lat="51.06505"><ele>22.6</ele><time>2022-04-10T07:03:08.000Z</time></trkpt><trkpt lon="5.845353" lat="51.064989"><ele>22.6</ele><time>2022-04-10T07:03:09.000Z</time></trkpt><trkpt lon="5.845305" lat="51.064929"><ele>22.6</ele><time>2022-04-10T07:03:10.000Z</time></trkpt><trkpt lon="5.845258" lat="51.064872"><ele>22.6</ele><time>2022-04-10T07:03:11.000Z</time></trkpt><trkpt lon="5.845211" lat="51.064813"><ele>22.8</ele><time>2022-04-10T07:03:12.000Z</time></trkpt><trkpt lon="5.845162" lat="51.064754"><ele>22.8</ele><time>2022-04-10T07:03:13.000Z</time></trkpt><trkpt lon="5.845108" lat="51.064693"><ele>22.8</ele><time>2022-04-10T07:03:14.000Z</time></trkpt><trkpt lon="5.84505" lat="51.064637"><ele>22.8</ele><time>2022-04-10T07:03:15.000Z</time></trkpt><trkpt lon="5.844988" lat="51.064583"><ele>22.8</ele><time>2022-04-10T07:03:16.000Z</time></trkpt><trkpt lon="5.844923" lat="51.064531"><ele>23</ele><time>2022-04-10T07:03:17.000Z</time></trkpt><trkpt lon="5.844852" lat="51.064482"><ele>23</ele><time>2022-04-10T07:03:18.000Z</time></trkpt><trkpt lon="5.844777" lat="51.064438"><ele>23.2</ele><time>2022-04-10T07:03:19.000Z</time></trkpt><trkpt lon="5.844699" lat="51.064396"><ele>23.4</ele><time>2022-04-10T07:03:20.000Z</time></trkpt><trkpt lon="5.844621" lat="51.064359"><ele>23.4</ele><time>2022-04-10T07:03:21.000Z</time></trkpt><trkpt lon="5.844541" lat="51.064321"><ele>23.6</ele><time>2022-04-10T07:03:22.000Z</time></trkpt><trkpt lon="5.844461" lat="51.064284"><ele>23.6</ele><time>2022-04-10T07:03:23.000Z</time></trkpt><trkpt lon="5.84438" lat="51.06425"><ele>23.8</ele><time>2022-04-10T07:03:24.000Z</time></trkpt><trkpt lon="5.844307" lat="51.064218"><ele>24</ele><time>2022-04-10T07:03:25.000Z</time></trkpt><trkpt lon="5.844248" lat="51.064185"><ele>24.2</ele><time>2022-04-10T07:03:26.000Z</time></trkpt><trkpt lon="5.84421" lat="51.064155"><ele>24.4</ele><time>2022-04-10T07:03:27.000Z</time></trkpt><trkpt lon="5.844191" lat="51.064124"><ele>24.4</ele><time>2022-04-10T07:03:28.000Z</time></trkpt><trkpt lon="5.844186" lat="51.064094"><ele>24.2</ele><time>2022-04-10T07:03:29.000Z</time></trkpt><trkpt lon="5.844192" lat="51.064065"><ele>24.2</ele><time>2022-04-10T07:03:30.000Z</time></trkpt><trkpt lon="5.844209" lat="51.064045"><ele>24</ele><time>2022-04-10T07:03:31.000Z</time></trkpt><trkpt lon="5.844243" lat="51.064031"><ele>23.8</ele><time>2022-04-10T07:03:32.000Z</time></trkpt><trkpt lon="5.844289" lat="51.064024"><ele>23.6</ele><time>2022-04-10T07:03:33.000Z</time></trkpt><trkpt lon="5.844341" lat="51.064017"><ele>23.4</ele><time>2022-04-10T07:03:34.000Z</time></trkpt><trkpt lon="5.844393" lat="51.064012"><ele>23</ele><time>2022-04-10T07:03:35.000Z</time></trkpt><trkpt lon="5.844447" lat="51.064003"><ele>22.8</ele><time>2022-04-10T07:03:36.000Z</time></trkpt><trkpt lon="5.844508" lat="51.063988"><ele>22.6</ele><time>2022-04-10T07:03:37.000Z</time></trkpt><trkpt lon="5.844567" lat="51.063976"><ele>22.4</ele><time>2022-04-10T07:03:38.000Z</time></trkpt><trkpt lon="5.844629" lat="51.063956"><ele>22.2</ele><time>2022-04-10T07:03:39.000Z</time></trkpt><trkpt lon="5.844709" lat="51.063927"><ele>22</ele><time>2022-04-10T07:03:40.000Z</time></trkpt><trkpt lon="5.844812" lat="51.063899"><ele>21.8</ele><time>2022-04-10T07:03:41.000Z</time></trkpt><trkpt lon="5.844921" lat="51.063865"><ele>21.8</ele><time>2022-04-10T07:03:42.000Z</time></trkpt><trkpt lon="5.845031" lat="51.063823"><ele>21.8</ele><time>2022-04-10T07:03:43.000Z</time></trkpt><trkpt lon="5.84514" lat="51.063779"><ele>21.8</ele><time>2022-04-10T07:03:44.000Z</time></trkpt><trkpt lon="5.845236" lat="51.063731"><ele>22</ele><time>2022-04-10T07:03:45.000Z</time></trkpt><trkpt lon="5.845322" lat="51.063684"><ele>22.2</ele><time>2022-04-10T07:03:46.000Z</time></trkpt><trkpt lon="5.845408" lat="51.063634"><ele>22.4</ele><time>2022-04-10T07:03:47.000Z</time></trkpt><trkpt lon="5.845492" lat="51.063585"><ele>22.4</ele><time>2022-04-10T07:03:48.000Z</time></trkpt><trkpt lon="5.845569" lat="51.063534"><ele>22.4</ele><time>2022-04-10T07:03:49.000Z</time></trkpt><trkpt lon="5.845643" lat="51.063481"><ele>22.6</ele><time>2022-04-10T07:03:50.000Z</time></trkpt><trkpt lon="5.845715" lat="51.063427"><ele>22.6</ele><time>2022-04-10T07:03:51.000Z</time></trkpt><trkpt lon="5.845788" lat="51.063374"><ele>22.8</ele><time>2022-04-10T07:03:52.000Z</time></trkpt><trkpt lon="5.845862" lat="51.06332"><ele>22.8</ele><time>2022-04-10T07:03:53.000Z</time></trkpt><trkpt lon="5.845934" lat="51.063266"><ele>22.6</ele><time>2022-04-10T07:03:54.000Z</time></trkpt><trkpt lon="5.846002" lat="51.063211"><ele>22.8</ele><time>2022-04-10T07:03:55.000Z</time></trkpt><trkpt lon="5.846069" lat="51.063157"><ele>22.8</ele><time>2022-04-10T07:03:56.000Z</time></trkpt><trkpt lon="5.846136" lat="51.063097"><ele>23</ele><time>2022-04-10T07:03:57.000Z</time></trkpt><trkpt lon="5.846198" lat="51.063037"><ele>23.2</ele><time>2022-04-10T07:03:58.000Z</time></trkpt><trkpt lon="5.846256" lat="51.062975"><ele>23.2</ele><time>2022-04-10T07:03:59.000Z</time></trkpt><trkpt lon="5.846309" lat="51.062913"><ele>23.2</ele><time>2022-04-10T07:04:00.000Z</time></trkpt><trkpt lon="5.846357" lat="51.062847"><ele>23.2</ele><time>2022-04-10T07:04:01.000Z</time></trkpt><trkpt lon="5.846401" lat="51.062778"><ele>23</ele><time>2022-04-10T07:04:02.000Z</time></trkpt><trkpt lon="5.846438" lat="51.062709"><ele>23</ele><time>2022-04-10T07:04:03.000Z</time></trkpt><trkpt lon="5.846472" lat="51.062641"><ele>23</ele><time>2022-04-10T07:04:04.000Z</time></trkpt><trkpt lon="5.846501" lat="51.062572"><ele>23</ele><time>2022-04-10T07:04:05.000Z</time></trkpt><trkpt lon="5.84653" lat="51.062504"><ele>22.8</ele><time>2022-04-10T07:04:06.000Z</time></trkpt><trkpt lon="5.846562" lat="51.062435"><ele>22.8</ele><time>2022-04-10T07:04:07.000Z</time></trkpt><trkpt lon="5.846596" lat="51.062368"><ele>22.8</ele><time>2022-04-10T07:04:08.000Z</time></trkpt><trkpt lon="5.846633" lat="51.062301"><ele>22.8</ele><time>2022-04-10T07:04:09.000Z</time></trkpt><trkpt lon="5.846673" lat="51.062234"><ele>22.8</ele><time>2022-04-10T07:04:10.000Z</time></trkpt><trkpt lon="5.846716" lat="51.06217"><ele>23</ele><time>2022-04-10T07:04:11.000Z</time></trkpt><trkpt lon="5.846759" lat="51.062108"><ele>23</ele><time>2022-04-10T07:04:12.000Z</time></trkpt><trkpt lon="5.846802" lat="51.062043"><ele>23</ele><time>2022-04-10T07:04:13.000Z</time></trkpt><trkpt lon="5.84685" lat="51.061979"><ele>23</ele><time>2022-04-10T07:04:14.000Z</time></trkpt><trkpt lon="5.846901" lat="51.061919"><ele>22.8</ele><time>2022-04-10T07:04:15.000Z</time></trkpt><trkpt lon="5.84696" lat="51.061862"><ele>22.8</ele><time>2022-04-10T07:04:16.000Z</time></trkpt><trkpt lon="5.847025" lat="51.061806"><ele>23</ele><time>2022-04-10T07:04:17.000Z</time></trkpt><trkpt lon="5.847099" lat="51.061754"><ele>23</ele><time>2022-04-10T07:04:18.000Z</time></trkpt><trkpt lon="5.84718" lat="51.061706"><ele>23.2</ele><time>2022-04-10T07:04:19.000Z</time></trkpt><trkpt lon="5.847267" lat="51.061666"><ele>23.2</ele><time>2022-04-10T07:04:20.000Z</time></trkpt><trkpt lon="5.847355" lat="51.061634"><ele>23.4</ele><time>2022-04-10T07:04:21.000Z</time></trkpt><trkpt lon="5.847443" lat="51.061608"><ele>23.6</ele><time>2022-04-10T07:04:22.000Z</time></trkpt><trkpt lon="5.847527" lat="51.061588"><ele>23.8</ele><time>2022-04-10T07:04:23.000Z</time></trkpt><trkpt lon="5.847603" lat="51.061573"><ele>24.2</ele><time>2022-04-10T07:04:24.000Z</time></trkpt><trkpt lon="5.847672" lat="51.061556"><ele>24.4</ele><time>2022-04-10T07:04:25.000Z</time></trkpt><trkpt lon="5.847727" lat="51.061536"><ele>24.4</ele><time>2022-04-10T07:04:26.000Z</time></trkpt><trkpt lon="5.847768" lat="51.061507"><ele>24.6</ele><time>2022-04-10T07:04:27.000Z</time></trkpt><trkpt lon="5.847791" lat="51.061468"><ele>24.6</ele><time>2022-04-10T07:04:28.000Z</time></trkpt><trkpt lon="5.847802" lat="51.061423"><ele>24.6</ele><time>2022-04-10T07:04:29.000Z</time></trkpt><trkpt lon="5.847816" lat="51.061377"><ele>24.6</ele><time>2022-04-10T07:04:30.000Z</time></trkpt><trkpt lon="5.847844" lat="51.061332"><ele>24.6</ele><time>2022-04-10T07:04:31.000Z</time></trkpt><trkpt lon="5.847888" lat="51.06129"><ele>24.6</ele><time>2022-04-10T07:04:32.000Z</time></trkpt><trkpt lon="5.847947" lat="51.061249"><ele>24.6</ele><time>2022-04-10T07:04:33.000Z</time></trkpt><trkpt lon="5.848013" lat="51.06121"><ele>24.4</ele><time>2022-04-10T07:04:34.000Z</time></trkpt><trkpt lon="5.848079" lat="51.061169"><ele>24.4</ele><time>2022-04-10T07:04:35.000Z</time></trkpt><trkpt lon="5.848148" lat="51.061127"><ele>24.2</ele><time>2022-04-10T07:04:36.000Z</time></trkpt><trkpt lon="5.84822" lat="51.061083"><ele>24</ele><time>2022-04-10T07:04:37.000Z</time></trkpt><trkpt lon="5.848292" lat="51.061038"><ele>23.8</ele><time>2022-04-10T07:04:38.000Z</time></trkpt><trkpt lon="5.848363" lat="51.060992"><ele>23.8</ele><time>2022-04-10T07:04:39.000Z</time></trkpt><trkpt lon="5.848434" lat="51.060946"><ele>23.6</ele><time>2022-04-10T07:04:40.000Z</time></trkpt><trkpt lon="5.848507" lat="51.060899"><ele>23.6</ele><time>2022-04-10T07:04:41.000Z</time></trkpt><trkpt lon="5.848583" lat="51.060851"><ele>23.8</ele><time>2022-04-10T07:04:42.000Z</time></trkpt><trkpt lon="5.848659" lat="51.060803"><ele>23.6</ele><time>2022-04-10T07:04:43.000Z</time></trkpt><trkpt lon="5.848734" lat="51.060755"><ele>23.8</ele><time>2022-04-10T07:04:44.000Z</time></trkpt><trkpt lon="5.848806" lat="51.06071"><ele>23.8</ele><time>2022-04-10T07:04:45.000Z</time></trkpt><trkpt lon="5.848873" lat="51.060662"><ele>23.6</ele><time>2022-04-10T07:04:46.000Z</time></trkpt><trkpt lon="5.848931" lat="51.060611"><ele>23.6</ele><time>2022-04-10T07:04:47.000Z</time></trkpt><trkpt lon="5.848978" lat="51.060554"><ele>23.6</ele><time>2022-04-10T07:04:48.000Z</time></trkpt><trkpt lon="5.849011" lat="51.060496"><ele>23.6</ele><time>2022-04-10T07:04:49.000Z</time></trkpt><trkpt lon="5.849038" lat="51.060434"><ele>23.6</ele><time>2022-04-10T07:04:50.000Z</time></trkpt><trkpt lon="5.849058" lat="51.060372"><ele>23.6</ele><time>2022-04-10T07:04:51.000Z</time></trkpt><trkpt lon="5.849071" lat="51.060306"><ele>23.6</ele><time>2022-04-10T07:04:52.000Z</time></trkpt><trkpt lon="5.849079" lat="51.060238"><ele>23.6</ele><time>2022-04-10T07:04:53.000Z</time></trkpt><trkpt lon="5.849089" lat="51.06017"><ele>23.6</ele><time>2022-04-10T07:04:54.000Z</time></trkpt><trkpt lon="5.849106" lat="51.060107"><ele>23.4</ele><time>2022-04-10T07:04:55.000Z</time></trkpt><trkpt lon="5.849143" lat="51.060043"><ele>23.4</ele><time>2022-04-10T07:04:56.000Z</time></trkpt><trkpt lon="5.849199" lat="51.059992"><ele>23.2</ele><time>2022-04-10T07:04:57.000Z</time></trkpt><trkpt lon="5.849269" lat="51.05995"><ele>23.2</ele><time>2022-04-10T07:04:58.000Z</time></trkpt><trkpt lon="5.849352" lat="51.059919"><ele>23.2</ele><time>2022-04-10T07:04:59.000Z</time></trkpt><trkpt lon="5.849445" lat="51.059897"><ele>23.2</ele><time>2022-04-10T07:05:00.000Z</time></trkpt><trkpt lon="5.849542" lat="51.05988"><ele>23.2</ele><time>2022-04-10T07:05:01.000Z</time></trkpt><trkpt lon="5.849641" lat="51.05987"><ele>23.4</ele><time>2022-04-10T07:05:02.000Z</time></trkpt><trkpt lon="5.849743" lat="51.059862"><ele>23.4</ele><time>2022-04-10T07:05:03.000Z</time></trkpt><trkpt lon="5.849846" lat="51.059854"><ele>23.4</ele><time>2022-04-10T07:05:04.000Z</time></trkpt><trkpt lon="5.849948" lat="51.059848"><ele>23.2</ele><time>2022-04-10T07:05:05.000Z</time></trkpt><trkpt lon="5.850052" lat="51.059843"><ele>23.2</ele><time>2022-04-10T07:05:06.000Z</time></trkpt><trkpt lon="5.850156" lat="51.059836"><ele>23.2</ele><time>2022-04-10T07:05:07.000Z</time></trkpt><trkpt lon="5.85026" lat="51.059831"><ele>23.2</ele><time>2022-04-10T07:05:08.000Z</time></trkpt><trkpt lon="5.850364" lat="51.059825"><ele>23</ele><time>2022-04-10T07:05:09.000Z</time></trkpt><trkpt lon="5.850464" lat="51.059821"><ele>23</ele><time>2022-04-10T07:05:10.000Z</time></trkpt><trkpt lon="5.850562" lat="51.059815"><ele>23.2</ele><time>2022-04-10T07:05:11.000Z</time></trkpt><trkpt lon="5.850652" lat="51.0598"><ele>23.2</ele><time>2022-04-10T07:05:12.000Z</time></trkpt><trkpt lon="5.85073" lat="51.059773"><ele>23.2</ele><time>2022-04-10T07:05:13.000Z</time></trkpt><trkpt lon="5.850796" lat="51.05973"><ele>23</ele><time>2022-04-10T07:05:14.000Z</time></trkpt><trkpt lon="5.85085" lat="51.059671"><ele>23</ele><time>2022-04-10T07:05:15.000Z</time></trkpt><trkpt lon="5.850893" lat="51.059609"><ele>23</ele><time>2022-04-10T07:05:16.000Z</time></trkpt><trkpt lon="5.850931" lat="51.059544"><ele>23</ele><time>2022-04-10T07:05:17.000Z</time></trkpt><trkpt lon="5.850972" lat="51.059479"><ele>22.8</ele><time>2022-04-10T07:05:18.000Z</time></trkpt><trkpt lon="5.851016" lat="51.059415"><ele>22.8</ele><time>2022-04-10T07:05:19.000Z</time></trkpt><trkpt lon="5.851058" lat="51.059351"><ele>22.8</ele><time>2022-04-10T07:05:20.000Z</time></trkpt><trkpt lon="5.851089" lat="51.059289"><ele>23</ele><time>2022-04-10T07:05:21.000Z</time></trkpt><trkpt lon="5.851109" lat="51.059225"><ele>23.2</ele><time>2022-04-10T07:05:22.000Z</time></trkpt><trkpt lon="5.85112" lat="51.059158"><ele>23.2</ele><time>2022-04-10T07:05:23.000Z</time></trkpt><trkpt lon="5.851123" lat="51.059089"><ele>23.2</ele><time>2022-04-10T07:05:24.000Z</time></trkpt><trkpt lon="5.851123" lat="51.059021"><ele>23.2</ele><time>2022-04-10T07:05:25.000Z</time></trkpt><trkpt lon="5.851124" lat="51.058951"><ele>23</ele><time>2022-04-10T07:05:26.000Z</time></trkpt><trkpt lon="5.851125" lat="51.058879"><ele>23</ele><time>2022-04-10T07:05:27.000Z</time></trkpt><trkpt lon="5.851123" lat="51.058811"><ele>23</ele><time>2022-04-10T07:05:28.000Z</time></trkpt><trkpt lon="5.851111" lat="51.058743"><ele>23</ele><time>2022-04-10T07:05:29.000Z</time></trkpt><trkpt lon="5.851084" lat="51.058675"><ele>23.2</ele><time>2022-04-10T07:05:30.000Z</time></trkpt><trkpt lon="5.851041" lat="51.05861"><ele>23.4</ele><time>2022-04-10T07:05:31.000Z</time></trkpt><trkpt lon="5.850989" lat="51.058546"><ele>23.4</ele><time>2022-04-10T07:05:32.000Z</time></trkpt><trkpt lon="5.850934" lat="51.058485"><ele>23.4</ele><time>2022-04-10T07:05:33.000Z</time></trkpt><trkpt lon="5.850886" lat="51.058423"><ele>23.2</ele><time>2022-04-10T07:05:34.000Z</time></trkpt><trkpt lon="5.850851" lat="51.058357"><ele>23</ele><time>2022-04-10T07:05:35.000Z</time></trkpt><trkpt lon="5.850829" lat="51.058287"><ele>23</ele><time>2022-04-10T07:05:36.000Z</time></trkpt><trkpt lon="5.850817" lat="51.058215"><ele>22.8</ele><time>2022-04-10T07:05:37.000Z</time></trkpt><trkpt lon="5.850814" lat="51.058148"><ele>22.6</ele><time>2022-04-10T07:05:38.000Z</time></trkpt><trkpt lon="5.850817" lat="51.058083"><ele>22.4</ele><time>2022-04-10T07:05:39.000Z</time></trkpt><trkpt lon="5.850824" lat="51.058016"><ele>22.4</ele><time>2022-04-10T07:05:40.000Z</time></trkpt><trkpt lon="5.850832" lat="51.057951"><ele>22.4</ele><time>2022-04-10T07:05:41.000Z</time></trkpt><trkpt lon="5.850842" lat="51.057885"><ele>22.6</ele><time>2022-04-10T07:05:42.000Z</time></trkpt><trkpt lon="5.850856" lat="51.05782"><ele>22.8</ele><time>2022-04-10T07:05:43.000Z</time></trkpt><trkpt lon="5.850872" lat="51.057754"><ele>22.8</ele><time>2022-04-10T07:05:44.000Z</time></trkpt><trkpt lon="5.850894" lat="51.057686"><ele>23</ele><time>2022-04-10T07:05:45.000Z</time></trkpt><trkpt lon="5.85092" lat="51.057621"><ele>23</ele><time>2022-04-10T07:05:46.000Z</time></trkpt><trkpt lon="5.850958" lat="51.057559"><ele>23.2</ele><time>2022-04-10T07:05:47.000Z</time></trkpt><trkpt lon="5.851014" lat="51.057505"><ele>23.2</ele><time>2022-04-10T07:05:48.000Z</time></trkpt><trkpt lon="5.851084" lat="51.057464"><ele>23.4</ele><time>2022-04-10T07:05:49.000Z</time></trkpt><trkpt lon="5.851168" lat="51.057436"><ele>23.4</ele><time>2022-04-10T07:05:50.000Z</time></trkpt><trkpt lon="5.851268" lat="51.05742"><ele>23.4</ele><time>2022-04-10T07:05:51.000Z</time></trkpt><trkpt lon="5.851377" lat="51.057408"><ele>23.6</ele><time>2022-04-10T07:05:52.000Z</time></trkpt><trkpt lon="5.851478" lat="51.057395"><ele>23.6</ele><time>2022-04-10T07:05:53.000Z</time></trkpt><trkpt lon="5.851577" lat="51.057377"><ele>23.8</ele><time>2022-04-10T07:05:54.000Z</time></trkpt><trkpt lon="5.85167" lat="51.057346"><ele>23.8</ele><time>2022-04-10T07:05:55.000Z</time></trkpt><trkpt lon="5.851748" lat="51.0573"><ele>23.8</ele><time>2022-04-10T07:05:56.000Z</time></trkpt><trkpt lon="5.851808" lat="51.057245"><ele>23.8</ele><time>2022-04-10T07:05:57.000Z</time></trkpt><trkpt lon="5.851856" lat="51.057183"><ele>23.6</ele><time>2022-04-10T07:05:58.000Z</time></trkpt><trkpt lon="5.851898" lat="51.057118"><ele>23.6</ele><time>2022-04-10T07:05:59.000Z</time></trkpt><trkpt lon="5.851937" lat="51.057049"><ele>23.6</ele><time>2022-04-10T07:06:00.000Z</time></trkpt><trkpt lon="5.851976" lat="51.056981"><ele>23.4</ele><time>2022-04-10T07:06:01.000Z</time></trkpt><trkpt lon="5.852016" lat="51.056912"><ele>23.6</ele><time>2022-04-10T07:06:02.000Z</time></trkpt><trkpt lon="5.852057" lat="51.056846"><ele>23.6</ele><time>2022-04-10T07:06:03.000Z</time></trkpt><trkpt lon="5.852096" lat="51.056779"><ele>23.6</ele><time>2022-04-10T07:06:04.000Z</time></trkpt><trkpt lon="5.852136" lat="51.056715"><ele>23.4</ele><time>2022-04-10T07:06:05.000Z</time></trkpt><trkpt lon="5.852174" lat="51.056648"><ele>23.4</ele><time>2022-04-10T07:06:06.000Z</time></trkpt><trkpt lon="5.852211" lat="51.056581"><ele>23.2</ele><time>2022-04-10T07:06:07.000Z</time></trkpt><trkpt lon="5.852251" lat="51.056514"><ele>23.2</ele><time>2022-04-10T07:06:08.000Z</time></trkpt><trkpt lon="5.852289" lat="51.056447"><ele>23</ele><time>2022-04-10T07:06:09.000Z</time></trkpt><trkpt lon="5.852325" lat="51.056381"><ele>23</ele><time>2022-04-10T07:06:10.000Z</time></trkpt><trkpt lon="5.852363" lat="51.056313"><ele>23</ele><time>2022-04-10T07:06:11.000Z</time></trkpt><trkpt lon="5.852402" lat="51.056244"><ele>23</ele><time>2022-04-10T07:06:12.000Z</time></trkpt><trkpt lon="5.852439" lat="51.056177"><ele>23</ele><time>2022-04-10T07:06:13.000Z</time></trkpt><trkpt lon="5.852477" lat="51.056112"><ele>23.2</ele><time>2022-04-10T07:06:14.000Z</time></trkpt><trkpt lon="5.852519" lat="51.056046"><ele>23.2</ele><time>2022-04-10T07:06:15.000Z</time></trkpt><trkpt lon="5.85256" lat="51.055981"><ele>23.2</ele><time>2022-04-10T07:06:16.000Z</time></trkpt><trkpt lon="5.852601" lat="51.055917"><ele>23.2</ele><time>2022-04-10T07:06:17.000Z</time></trkpt><trkpt lon="5.852638" lat="51.055858"><ele>23.2</ele><time>2022-04-10T07:06:18.000Z</time></trkpt><trkpt lon="5.852676" lat="51.055801"><ele>23.2</ele><time>2022-04-10T07:06:19.000Z</time></trkpt><trkpt lon="5.852709" lat="51.055743"><ele>23.2</ele><time>2022-04-10T07:06:20.000Z</time></trkpt><trkpt lon="5.852733" lat="51.055682"><ele>23.4</ele><time>2022-04-10T07:06:21.000Z</time></trkpt><trkpt lon="5.85275" lat="51.055621"><ele>23.4</ele><time>2022-04-10T07:06:22.000Z</time></trkpt><trkpt lon="5.852764" lat="51.055563"><ele>23.4</ele><time>2022-04-10T07:06:23.000Z</time></trkpt><trkpt lon="5.852782" lat="51.055502"><ele>23.4</ele><time>2022-04-10T07:06:24.000Z</time></trkpt><trkpt lon="5.852803" lat="51.055442"><ele>23.4</ele><time>2022-04-10T07:06:25.000Z</time></trkpt><trkpt lon="5.852822" lat="51.055384"><ele>23.4</ele><time>2022-04-10T07:06:26.000Z</time></trkpt><trkpt lon="5.852833" lat="51.055322"><ele>23.4</ele><time>2022-04-10T07:06:27.000Z</time></trkpt><trkpt lon="5.852843" lat="51.055258"><ele>23.6</ele><time>2022-04-10T07:06:28.000Z</time></trkpt><trkpt lon="5.852855" lat="51.055197"><ele>23.8</ele><time>2022-04-10T07:06:29.000Z</time></trkpt><trkpt lon="5.852866" lat="51.055136"><ele>23.8</ele><time>2022-04-10T07:06:30.000Z</time></trkpt><trkpt lon="5.85288" lat="51.055073"><ele>23.8</ele><time>2022-04-10T07:06:31.000Z</time></trkpt><trkpt lon="5.852896" lat="51.055005"><ele>23.8</ele><time>2022-04-10T07:06:32.000Z</time></trkpt><trkpt lon="5.852908" lat="51.05494"><ele>24</ele><time>2022-04-10T07:06:33.000Z</time></trkpt><trkpt lon="5.852921" lat="51.054873"><ele>24</ele><time>2022-04-10T07:06:34.000Z</time></trkpt><trkpt lon="5.852937" lat="51.054803"><ele>23.8</ele><time>2022-04-10T07:06:35.000Z</time></trkpt><trkpt lon="5.852951" lat="51.054736"><ele>23.8</ele><time>2022-04-10T07:06:36.000Z</time></trkpt><trkpt lon="5.852968" lat="51.054665"><ele>23.8</ele><time>2022-04-10T07:06:37.000Z</time></trkpt><trkpt lon="5.852989" lat="51.054597"><ele>23.8</ele><time>2022-04-10T07:06:38.000Z</time></trkpt><trkpt lon="5.853009" lat="51.054532"><ele>23.8</ele><time>2022-04-10T07:06:39.000Z</time></trkpt><trkpt lon="5.85303" lat="51.054467"><ele>24</ele><time>2022-04-10T07:06:40.000Z</time></trkpt><trkpt lon="5.853051" lat="51.054396"><ele>24</ele><time>2022-04-10T07:06:41.000Z</time></trkpt><trkpt lon="5.853074" lat="51.054324"><ele>24</ele><time>2022-04-10T07:06:42.000Z</time></trkpt><trkpt lon="5.853101" lat="51.054253"><ele>24.2</ele><time>2022-04-10T07:06:43.000Z</time></trkpt><trkpt lon="5.853134" lat="51.054189"><ele>24.2</ele><time>2022-04-10T07:06:44.000Z</time></trkpt><trkpt lon="5.853165" lat="51.054128"><ele>24.2</ele><time>2022-04-10T07:06:45.000Z</time></trkpt><trkpt lon="5.853198" lat="51.054064"><ele>24.2</ele><time>2022-04-10T07:06:46.000Z</time></trkpt><trkpt lon="5.853231" lat="51.054005"><ele>24.2</ele><time>2022-04-10T07:06:47.000Z</time></trkpt><trkpt lon="5.853266" lat="51.05395"><ele>24.2</ele><time>2022-04-10T07:06:48.000Z</time></trkpt><trkpt lon="5.853305" lat="51.053895"><ele>24</ele><time>2022-04-10T07:06:49.000Z</time></trkpt><trkpt lon="5.853347" lat="51.053841"><ele>24</ele><time>2022-04-10T07:06:50.000Z</time></trkpt><trkpt lon="5.853392" lat="51.053789"><ele>24</ele><time>2022-04-10T07:06:51.000Z</time></trkpt><trkpt lon="5.853444" lat="51.053737"><ele>24</ele><time>2022-04-10T07:06:52.000Z</time></trkpt><trkpt lon="5.853504" lat="51.053681"><ele>24</ele><time>2022-04-10T07:06:53.000Z</time></trkpt><trkpt lon="5.853567" lat="51.053626"><ele>23.8</ele><time>2022-04-10T07:06:54.000Z</time></trkpt><trkpt lon="5.853633" lat="51.05357"><ele>24</ele><time>2022-04-10T07:06:55.000Z</time></trkpt><trkpt lon="5.853699" lat="51.053517"><ele>24</ele><time>2022-04-10T07:06:56.000Z</time></trkpt><trkpt lon="5.853766" lat="51.053464"><ele>24.2</ele><time>2022-04-10T07:06:57.000Z</time></trkpt><trkpt lon="5.853833" lat="51.053414"><ele>24.4</ele><time>2022-04-10T07:06:58.000Z</time></trkpt><trkpt lon="5.853902" lat="51.053364"><ele>24.4</ele><time>2022-04-10T07:06:59.000Z</time></trkpt><trkpt lon="5.85397" lat="51.053312"><ele>24.6</ele><time>2022-04-10T07:07:00.000Z</time></trkpt><trkpt lon="5.854038" lat="51.053262"><ele>24.6</ele><time>2022-04-10T07:07:01.000Z</time></trkpt><trkpt lon="5.854107" lat="51.053215"><ele>24.8</ele><time>2022-04-10T07:07:02.000Z</time></trkpt><trkpt lon="5.854178" lat="51.053171"><ele>24.8</ele><time>2022-04-10T07:07:03.000Z</time></trkpt><trkpt lon="5.854252" lat="51.05312"><ele>24.8</ele><time>2022-04-10T07:07:04.000Z</time></trkpt><trkpt lon="5.854323" lat="51.053067"><ele>24.8</ele><time>2022-04-10T07:07:05.000Z</time></trkpt><trkpt lon="5.854397" lat="51.053018"><ele>24.8</ele><time>2022-04-10T07:07:06.000Z</time></trkpt><trkpt lon="5.854468" lat="51.052969"><ele>25</ele><time>2022-04-10T07:07:07.000Z</time></trkpt><trkpt lon="5.854536" lat="51.052923"><ele>25</ele><time>2022-04-10T07:07:08.000Z</time></trkpt><trkpt lon="5.854605" lat="51.052872"><ele>25</ele><time>2022-04-10T07:07:09.000Z</time></trkpt><trkpt lon="5.854673" lat="51.052818"><ele>25</ele><time>2022-04-10T07:07:10.000Z</time></trkpt><trkpt lon="5.85474" lat="51.052765"><ele>24.8</ele><time>2022-04-10T07:07:11.000Z</time></trkpt><trkpt lon="5.854805" lat="51.05271"><ele>24.8</ele><time>2022-04-10T07:07:12.000Z</time></trkpt><trkpt lon="5.854864" lat="51.052653"><ele>24.6</ele><time>2022-04-10T07:07:13.000Z</time></trkpt><trkpt lon="5.85492" lat="51.052594"><ele>24.4</ele><time>2022-04-10T07:07:14.000Z</time></trkpt><trkpt lon="5.85497" lat="51.052536"><ele>24.4</ele><time>2022-04-10T07:07:15.000Z</time></trkpt><trkpt lon="5.85502" lat="51.052474"><ele>24.4</ele><time>2022-04-10T07:07:16.000Z</time></trkpt><trkpt lon="5.855064" lat="51.052414"><ele>24.4</ele><time>2022-04-10T07:07:17.000Z</time></trkpt><trkpt lon="5.855107" lat="51.052351"><ele>24.4</ele><time>2022-04-10T07:07:18.000Z</time></trkpt><trkpt lon="5.855147" lat="51.05229"><ele>24.2</ele><time>2022-04-10T07:07:19.000Z</time></trkpt><trkpt lon="5.855184" lat="51.052229"><ele>24.2</ele><time>2022-04-10T07:07:20.000Z</time></trkpt><trkpt lon="5.855219" lat="51.052166"><ele>24</ele><time>2022-04-10T07:07:21.000Z</time></trkpt><trkpt lon="5.855253" lat="51.052099"><ele>24</ele><time>2022-04-10T07:07:22.000Z</time></trkpt><trkpt lon="5.855286" lat="51.05204"><ele>24</ele><time>2022-04-10T07:07:23.000Z</time></trkpt><trkpt lon="5.855322" lat="51.051979"><ele>24</ele><time>2022-04-10T07:07:24.000Z</time></trkpt><trkpt lon="5.855361" lat="51.051913"><ele>24.2</ele><time>2022-04-10T07:07:25.000Z</time></trkpt><trkpt lon="5.855398" lat="51.051852"><ele>24.2</ele><time>2022-04-10T07:07:26.000Z</time></trkpt><trkpt lon="5.855434" lat="51.051791"><ele>24.2</ele><time>2022-04-10T07:07:27.000Z</time></trkpt><trkpt lon="5.855466" lat="51.051735"><ele>24.2</ele><time>2022-04-10T07:07:28.000Z</time></trkpt><trkpt lon="5.855498" lat="51.051682"><ele>24.4</ele><time>2022-04-10T07:07:29.000Z</time></trkpt><trkpt lon="5.855528" lat="51.051632"><ele>24.4</ele><time>2022-04-10T07:07:30.000Z</time></trkpt><trkpt lon="5.855561" lat="51.05159"><ele>24.6</ele><time>2022-04-10T07:07:31.000Z</time></trkpt><trkpt lon="5.855604" lat="51.051562"><ele>24.8</ele><time>2022-04-10T07:07:32.000Z</time></trkpt><trkpt lon="5.85566" lat="51.051562"><ele>24.8</ele><time>2022-04-10T07:07:33.000Z</time></trkpt><trkpt lon="5.855733" lat="51.05157"><ele>24.8</ele><time>2022-04-10T07:07:34.000Z</time></trkpt><trkpt lon="5.85582" lat="51.051582"><ele>24.8</ele><time>2022-04-10T07:07:35.000Z</time></trkpt><trkpt lon="5.855912" lat="51.051594"><ele>24.6</ele><time>2022-04-10T07:07:36.000Z</time></trkpt><trkpt lon="5.856012" lat="51.051606"><ele>24.4</ele><time>2022-04-10T07:07:37.000Z</time></trkpt><trkpt lon="5.85613" lat="51.051611"><ele>24.4</ele><time>2022-04-10T07:07:38.000Z</time></trkpt><trkpt lon="5.856243" lat="51.05162"><ele>24.4</ele><time>2022-04-10T07:07:39.000Z</time></trkpt><trkpt lon="5.856356" lat="51.05163"><ele>24.6</ele><time>2022-04-10T07:07:40.000Z</time></trkpt><trkpt lon="5.856467" lat="51.05164"><ele>24.8</ele><time>2022-04-10T07:07:41.000Z</time></trkpt><trkpt lon="5.85657" lat="51.051654"><ele>24.6</ele><time>2022-04-10T07:07:42.000Z</time></trkpt><trkpt lon="5.856674" lat="51.051665"><ele>24.4</ele><time>2022-04-10T07:07:43.000Z</time></trkpt><trkpt lon="5.85678" lat="51.051674"><ele>24.4</ele><time>2022-04-10T07:07:44.000Z</time></trkpt><trkpt lon="5.856882" lat="51.05169"><ele>24.2</ele><time>2022-04-10T07:07:45.000Z</time></trkpt><trkpt lon="5.856988" lat="51.051704"><ele>24.4</ele><time>2022-04-10T07:07:46.000Z</time></trkpt><trkpt lon="5.857096" lat="51.051715"><ele>24.4</ele><time>2022-04-10T07:07:47.000Z</time></trkpt><trkpt lon="5.857206" lat="51.051725"><ele>24.4</ele><time>2022-04-10T07:07:48.000Z</time></trkpt><trkpt lon="5.857318" lat="51.051728"><ele>24.2</ele><time>2022-04-10T07:07:49.000Z</time></trkpt><trkpt lon="5.857426" lat="51.051732"><ele>24.2</ele><time>2022-04-10T07:07:50.000Z</time></trkpt><trkpt lon="5.857535" lat="51.051734"><ele>24.4</ele><time>2022-04-10T07:07:51.000Z</time></trkpt><trkpt lon="5.857644" lat="51.051729"><ele>24.4</ele><time>2022-04-10T07:07:52.000Z</time></trkpt><trkpt lon="5.857753" lat="51.05172"><ele>24.4</ele><time>2022-04-10T07:07:53.000Z</time></trkpt><trkpt lon="5.85786" lat="51.051711"><ele>24.4</ele><time>2022-04-10T07:07:54.000Z</time></trkpt><trkpt lon="5.857963" lat="51.051705"><ele>24.4</ele><time>2022-04-10T07:07:55.000Z</time></trkpt><trkpt lon="5.858065" lat="51.051696"><ele>24.6</ele><time>2022-04-10T07:07:56.000Z</time></trkpt><trkpt lon="5.858165" lat="51.051692"><ele>24.6</ele><time>2022-04-10T07:07:57.000Z</time></trkpt><trkpt lon="5.858261" lat="51.051687"><ele>24.6</ele><time>2022-04-10T07:07:58.000Z</time></trkpt><trkpt lon="5.858355" lat="51.051678"><ele>24.8</ele><time>2022-04-10T07:07:59.000Z</time></trkpt><trkpt lon="5.858444" lat="51.051667"><ele>24.8</ele><time>2022-04-10T07:08:00.000Z</time></trkpt><trkpt lon="5.858535" lat="51.051654"><ele>25</ele><time>2022-04-10T07:08:01.000Z</time></trkpt><trkpt lon="5.858623" lat="51.051635"><ele>25</ele><time>2022-04-10T07:08:02.000Z</time></trkpt><trkpt lon="5.858696" lat="51.051602"><ele>25.2</ele><time>2022-04-10T07:08:03.000Z</time></trkpt><trkpt lon="5.85874" lat="51.051561"><ele>25.2</ele><time>2022-04-10T07:08:04.000Z</time></trkpt><trkpt lon="5.858771" lat="51.051511"><ele>25.4</ele><time>2022-04-10T07:08:05.000Z</time></trkpt><trkpt lon="5.858807" lat="51.051464"><ele>25.6</ele><time>2022-04-10T07:08:06.000Z</time></trkpt><trkpt lon="5.858851" lat="51.051427"><ele>25.8</ele><time>2022-04-10T07:08:07.000Z</time></trkpt><trkpt lon="5.858905" lat="51.051405"><ele>26</ele><time>2022-04-10T07:08:08.000Z</time></trkpt><trkpt lon="5.858966" lat="51.051388"><ele>26.2</ele><time>2022-04-10T07:08:09.000Z</time></trkpt><trkpt lon="5.859033" lat="51.051377"><ele>26.2</ele><time>2022-04-10T07:08:10.000Z</time></trkpt><trkpt lon="5.859092" lat="51.051363"><ele>26.2</ele><time>2022-04-10T07:08:11.000Z</time></trkpt><trkpt lon="5.859138" lat="51.051339"><ele>26.2</ele><time>2022-04-10T07:08:12.000Z</time></trkpt><trkpt lon="5.859178" lat="51.051297"><ele>26.2</ele><time>2022-04-10T07:08:13.000Z</time></trkpt><trkpt lon="5.859207" lat="51.051247"><ele>26</ele><time>2022-04-10T07:08:14.000Z</time></trkpt><trkpt lon="5.859217" lat="51.051193"><ele>26</ele><time>2022-04-10T07:08:15.000Z</time></trkpt><trkpt lon="5.85921" lat="51.051135"><ele>25.8</ele><time>2022-04-10T07:08:16.000Z</time></trkpt><trkpt lon="5.859199" lat="51.051078"><ele>25.8</ele><time>2022-04-10T07:08:17.000Z</time></trkpt><trkpt lon="5.859185" lat="51.051021"><ele>25.4</ele><time>2022-04-10T07:08:18.000Z</time></trkpt><trkpt lon="5.859171" lat="51.050962"><ele>25.2</ele><time>2022-04-10T07:08:19.000Z</time></trkpt><trkpt lon="5.859159" lat="51.050903"><ele>25</ele><time>2022-04-10T07:08:20.000Z</time></trkpt><trkpt lon="5.859146" lat="51.050846"><ele>25</ele><time>2022-04-10T07:08:21.000Z</time></trkpt><trkpt lon="5.859131" lat="51.050788"><ele>24.8</ele><time>2022-04-10T07:08:22.000Z</time></trkpt><trkpt lon="5.859119" lat="51.050732"><ele>24.8</ele><time>2022-04-10T07:08:23.000Z</time></trkpt><trkpt lon="5.85911" lat="51.05068"><ele>24.6</ele><time>2022-04-10T07:08:24.000Z</time></trkpt><trkpt lon="5.859099" lat="51.050629"><ele>24.6</ele><time>2022-04-10T07:08:25.000Z</time></trkpt><trkpt lon="5.859085" lat="51.050573"><ele>24.4</ele><time>2022-04-10T07:08:26.000Z</time></trkpt><trkpt lon="5.859066" lat="51.050512"><ele>24.4</ele><time>2022-04-10T07:08:27.000Z</time></trkpt><trkpt lon="5.859045" lat="51.050449"><ele>24.6</ele><time>2022-04-10T07:08:28.000Z</time></trkpt><trkpt lon="5.859022" lat="51.050382"><ele>24.8</ele><time>2022-04-10T07:08:29.000Z</time></trkpt><trkpt lon="5.859" lat="51.050317"><ele>24.8</ele><time>2022-04-10T07:08:30.000Z</time></trkpt><trkpt lon="5.858983" lat="51.050256"><ele>24.6</ele><time>2022-04-10T07:08:31.000Z</time></trkpt><trkpt lon="5.858961" lat="51.050192"><ele>24.6</ele><time>2022-04-10T07:08:32.000Z</time></trkpt><trkpt lon="5.858934" lat="51.050127"><ele>24.6</ele><time>2022-04-10T07:08:33.000Z</time></trkpt><trkpt lon="5.858905" lat="51.050066"><ele>24.6</ele><time>2022-04-10T07:08:34.000Z</time></trkpt><trkpt lon="5.858869" lat="51.050001"><ele>24.6</ele><time>2022-04-10T07:08:35.000Z</time></trkpt><trkpt lon="5.858836" lat="51.04994"><ele>24.8</ele><time>2022-04-10T07:08:36.000Z</time></trkpt><trkpt lon="5.858802" lat="51.049879"><ele>24.8</ele><time>2022-04-10T07:08:37.000Z</time></trkpt><trkpt lon="5.858778" lat="51.049819"><ele>24.8</ele><time>2022-04-10T07:08:38.000Z</time></trkpt><trkpt lon="5.858756" lat="51.049759"><ele>25</ele><time>2022-04-10T07:08:39.000Z</time></trkpt><trkpt lon="5.858735" lat="51.049702"><ele>25</ele><time>2022-04-10T07:08:40.000Z</time></trkpt><trkpt lon="5.858713" lat="51.049647"><ele>25</ele><time>2022-04-10T07:08:41.000Z</time></trkpt><trkpt lon="5.858695" lat="51.049589"><ele>25.2</ele><time>2022-04-10T07:08:42.000Z</time></trkpt><trkpt lon="5.858682" lat="51.04953"><ele>25.2</ele><time>2022-04-10T07:08:43.000Z</time></trkpt><trkpt lon="5.858667" lat="51.049476"><ele>25.2</ele><time>2022-04-10T07:08:44.000Z</time></trkpt><trkpt lon="5.858646" lat="51.049418"><ele>25.2</ele><time>2022-04-10T07:08:45.000Z</time></trkpt><trkpt lon="5.858629" lat="51.049362"><ele>25.2</ele><time>2022-04-10T07:08:46.000Z</time></trkpt><trkpt lon="5.858611" lat="51.049304"><ele>25.2</ele><time>2022-04-10T07:08:47.000Z</time></trkpt><trkpt lon="5.858588" lat="51.049248"><ele>25.2</ele><time>2022-04-10T07:08:48.000Z</time></trkpt><trkpt lon="5.858559" lat="51.049193"><ele>25.2</ele><time>2022-04-10T07:08:49.000Z</time></trkpt><trkpt lon="5.85853" lat="51.049133"><ele>25.2</ele><time>2022-04-10T07:08:50.000Z</time></trkpt><trkpt lon="5.858493" lat="51.049073"><ele>25.2</ele><time>2022-04-10T07:08:51.000Z</time></trkpt><trkpt lon="5.858458" lat="51.049008"><ele>25.2</ele><time>2022-04-10T07:08:52.000Z</time></trkpt><trkpt lon="5.858426" lat="51.048943"><ele>25.2</ele><time>2022-04-10T07:08:53.000Z</time></trkpt><trkpt lon="5.858394" lat="51.048878"><ele>25.2</ele><time>2022-04-10T07:08:54.000Z</time></trkpt><trkpt lon="5.858362" lat="51.04881"><ele>25.2</ele><time>2022-04-10T07:08:55.000Z</time></trkpt><trkpt lon="5.858332" lat="51.048744"><ele>25.2</ele><time>2022-04-10T07:08:56.000Z</time></trkpt><trkpt lon="5.858302" lat="51.048676"><ele>25.2</ele><time>2022-04-10T07:08:57.000Z</time></trkpt><trkpt lon="5.858278" lat="51.048611"><ele>25.2</ele><time>2022-04-10T07:08:58.000Z</time></trkpt><trkpt lon="5.858247" lat="51.048543"><ele>25.2</ele><time>2022-04-10T07:08:59.000Z</time></trkpt><trkpt lon="5.858219" lat="51.048478"><ele>25</ele><time>2022-04-10T07:09:00.000Z</time></trkpt><trkpt lon="5.858192" lat="51.048413"><ele>25</ele><time>2022-04-10T07:09:01.000Z</time></trkpt><trkpt lon="5.858164" lat="51.048349"><ele>25</ele><time>2022-04-10T07:09:02.000Z</time></trkpt><trkpt lon="5.858137" lat="51.048285"><ele>25</ele><time>2022-04-10T07:09:03.000Z</time></trkpt><trkpt lon="5.858111" lat="51.048223"><ele>25</ele><time>2022-04-10T07:09:04.000Z</time></trkpt><trkpt lon="5.858087" lat="51.048164"><ele>25</ele><time>2022-04-10T07:09:05.000Z</time></trkpt><trkpt lon="5.858064" lat="51.048106"><ele>25.2</ele><time>2022-04-10T07:09:06.000Z</time></trkpt><trkpt lon="5.858045" lat="51.048052"><ele>25.2</ele><time>2022-04-10T07:09:07.000Z</time></trkpt><trkpt lon="5.858028" lat="51.048002"><ele>25.4</ele><time>2022-04-10T07:09:08.000Z</time></trkpt><trkpt lon="5.858006" lat="51.047953"><ele>25.4</ele><time>2022-04-10T07:09:09.000Z</time></trkpt><trkpt lon="5.857986" lat="51.047905"><ele>25.4</ele><time>2022-04-10T07:09:10.000Z</time></trkpt><trkpt lon="5.857981" lat="51.047854"><ele>25.4</ele><time>2022-04-10T07:09:11.000Z</time></trkpt><trkpt lon="5.858004" lat="51.047811"><ele>25.2</ele><time>2022-04-10T07:09:12.000Z</time></trkpt><trkpt lon="5.858053" lat="51.047779"><ele>25.2</ele><time>2022-04-10T07:09:13.000Z</time></trkpt><trkpt lon="5.858121" lat="51.047755"><ele>25.2</ele><time>2022-04-10T07:09:14.000Z</time></trkpt><trkpt lon="5.858202" lat="51.047737"><ele>25.4</ele><time>2022-04-10T07:09:15.000Z</time></trkpt><trkpt lon="5.858291" lat="51.04772"><ele>25.4</ele><time>2022-04-10T07:09:16.000Z</time></trkpt><trkpt lon="5.858383" lat="51.047702"><ele>25.4</ele><time>2022-04-10T07:09:17.000Z</time></trkpt><trkpt lon="5.858476" lat="51.047685"><ele>25.4</ele><time>2022-04-10T07:09:18.000Z</time></trkpt><trkpt lon="5.858575" lat="51.047664"><ele>25.4</ele><time>2022-04-10T07:09:19.000Z</time></trkpt><trkpt lon="5.858676" lat="51.047648"><ele>25.4</ele><time>2022-04-10T07:09:20.000Z</time></trkpt><trkpt lon="5.858777" lat="51.047629"><ele>25.4</ele><time>2022-04-10T07:09:21.000Z</time></trkpt><trkpt lon="5.858881" lat="51.04761"><ele>25.2</ele><time>2022-04-10T07:09:22.000Z</time></trkpt><trkpt lon="5.858984" lat="51.047591"><ele>25</ele><time>2022-04-10T07:09:23.000Z</time></trkpt><trkpt lon="5.85909" lat="51.047569"><ele>24.8</ele><time>2022-04-10T07:09:24.000Z</time></trkpt><trkpt lon="5.859196" lat="51.047545"><ele>24.6</ele><time>2022-04-10T07:09:25.000Z</time></trkpt><trkpt lon="5.8593" lat="51.047526"><ele>24.4</ele><time>2022-04-10T07:09:26.000Z</time></trkpt><trkpt lon="5.859405" lat="51.047507"><ele>24.4</ele><time>2022-04-10T07:09:27.000Z</time></trkpt><trkpt lon="5.859511" lat="51.047487"><ele>24.4</ele><time>2022-04-10T07:09:28.000Z</time></trkpt><trkpt lon="5.859618" lat="51.047465"><ele>24.4</ele><time>2022-04-10T07:09:29.000Z</time></trkpt><trkpt lon="5.859723" lat="51.047446"><ele>24.4</ele><time>2022-04-10T07:09:30.000Z</time></trkpt><trkpt lon="5.859829" lat="51.047427"><ele>24.4</ele><time>2022-04-10T07:09:31.000Z</time></trkpt><trkpt lon="5.859936" lat="51.047407"><ele>24.2</ele><time>2022-04-10T07:09:32.000Z</time></trkpt><trkpt lon="5.860044" lat="51.047388"><ele>24.2</ele><time>2022-04-10T07:09:33.000Z</time></trkpt><trkpt lon="5.86015" lat="51.047369"><ele>24.2</ele><time>2022-04-10T07:09:34.000Z</time></trkpt><trkpt lon="5.860255" lat="51.047351"><ele>24.4</ele><time>2022-04-10T07:09:35.000Z</time></trkpt><trkpt lon="5.860359" lat="51.047332"><ele>24.4</ele><time>2022-04-10T07:09:36.000Z</time></trkpt><trkpt lon="5.860469" lat="51.047312"><ele>24.4</ele><time>2022-04-10T07:09:37.000Z</time></trkpt><trkpt lon="5.860576" lat="51.047292"><ele>24.2</ele><time>2022-04-10T07:09:38.000Z</time></trkpt><trkpt lon="5.860682" lat="51.04727"><ele>24.2</ele><time>2022-04-10T07:09:39.000Z</time></trkpt><trkpt lon="5.860789" lat="51.047251"><ele>24.2</ele><time>2022-04-10T07:09:40.000Z</time></trkpt><trkpt lon="5.860899" lat="51.047231"><ele>24.2</ele><time>2022-04-10T07:09:41.000Z</time></trkpt><trkpt lon="5.861006" lat="51.047209"><ele>24.2</ele><time>2022-04-10T07:09:42.000Z</time></trkpt><trkpt lon="5.861114" lat="51.047189"><ele>24.2</ele><time>2022-04-10T07:09:43.000Z</time></trkpt><trkpt lon="5.861224" lat="51.047167"><ele>24.2</ele><time>2022-04-10T07:09:44.000Z</time></trkpt><trkpt lon="5.86133" lat="51.047148"><ele>24.2</ele><time>2022-04-10T07:09:45.000Z</time></trkpt><trkpt lon="5.861434" lat="51.047129"><ele>24.2</ele><time>2022-04-10T07:09:46.000Z</time></trkpt><trkpt lon="5.861537" lat="51.04711"><ele>24.4</ele><time>2022-04-10T07:09:47.000Z</time></trkpt><trkpt lon="5.861641" lat="51.047091"><ele>24.6</ele><time>2022-04-10T07:09:48.000Z</time></trkpt><trkpt lon="5.861742" lat="51.047072"><ele>24.6</ele><time>2022-04-10T07:09:49.000Z</time></trkpt><trkpt lon="5.86184" lat="51.047053"><ele>24.8</ele><time>2022-04-10T07:09:50.000Z</time></trkpt><trkpt lon="5.861941" lat="51.047034"><ele>24.8</ele><time>2022-04-10T07:09:51.000Z</time></trkpt><trkpt lon="5.862038" lat="51.047016"><ele>25</ele><time>2022-04-10T07:09:52.000Z</time></trkpt><trkpt lon="5.862139" lat="51.046999"><ele>25</ele><time>2022-04-10T07:09:53.000Z</time></trkpt><trkpt lon="5.86224" lat="51.04698"><ele>25.2</ele><time>2022-04-10T07:09:54.000Z</time></trkpt><trkpt lon="5.862338" lat="51.046962"><ele>25.2</ele><time>2022-04-10T07:09:55.000Z</time></trkpt><trkpt lon="5.862435" lat="51.046947"><ele>25.2</ele><time>2022-04-10T07:09:56.000Z</time></trkpt><trkpt lon="5.862533" lat="51.04693"><ele>25.2</ele><time>2022-04-10T07:09:57.000Z</time></trkpt><trkpt lon="5.862633" lat="51.046909"><ele>25</ele><time>2022-04-10T07:09:58.000Z</time></trkpt><trkpt lon="5.862733" lat="51.046891"><ele>25</ele><time>2022-04-10T07:09:59.000Z</time></trkpt><trkpt lon="5.862835" lat="51.04687"><ele>25.2</ele><time>2022-04-10T07:10:00.000Z</time></trkpt><trkpt lon="5.862939" lat="51.046851"><ele>25.2</ele><time>2022-04-10T07:10:01.000Z</time></trkpt><trkpt lon="5.863044" lat="51.046831"><ele>25.2</ele><time>2022-04-10T07:10:02.000Z</time></trkpt><trkpt lon="5.863143" lat="51.046812"><ele>25.4</ele><time>2022-04-10T07:10:03.000Z</time></trkpt><trkpt lon="5.863241" lat="51.046793"><ele>25.4</ele><time>2022-04-10T07:10:04.000Z</time></trkpt><trkpt lon="5.863338" lat="51.046775"><ele>25.6</ele><time>2022-04-10T07:10:05.000Z</time></trkpt><trkpt lon="5.863436" lat="51.046755"><ele>25.6</ele><time>2022-04-10T07:10:06.000Z</time></trkpt><trkpt lon="5.863531" lat="51.046737"><ele>25.6</ele><time>2022-04-10T07:10:07.000Z</time></trkpt><trkpt lon="5.86362" lat="51.046722"><ele>25.6</ele><time>2022-04-10T07:10:08.000Z</time></trkpt><trkpt lon="5.8637" lat="51.046707"><ele>25.8</ele><time>2022-04-10T07:10:09.000Z</time></trkpt><trkpt lon="5.863768" lat="51.046689"><ele>25.8</ele><time>2022-04-10T07:10:10.000Z</time></trkpt><trkpt lon="5.86381" lat="51.046662"><ele>26</ele><time>2022-04-10T07:10:11.000Z</time></trkpt><trkpt lon="5.863824" lat="51.046622"><ele>26.2</ele><time>2022-04-10T07:10:12.000Z</time></trkpt><trkpt lon="5.863817" lat="51.046574"><ele>26.2</ele><time>2022-04-10T07:10:13.000Z</time></trkpt><trkpt lon="5.863798" lat="51.04652"><ele>26.2</ele><time>2022-04-10T07:10:14.000Z</time></trkpt><trkpt lon="5.863779" lat="51.046466"><ele>26.4</ele><time>2022-04-10T07:10:15.000Z</time></trkpt><trkpt lon="5.863763" lat="51.046409"><ele>26.4</ele><time>2022-04-10T07:10:16.000Z</time></trkpt><trkpt lon="5.863747" lat="51.046351"><ele>26.6</ele><time>2022-04-10T07:10:17.000Z</time></trkpt><trkpt lon="5.863727" lat="51.046289"><ele>26.6</ele><time>2022-04-10T07:10:18.000Z</time></trkpt><trkpt lon="5.863704" lat="51.046224"><ele>26.6</ele><time>2022-04-10T07:10:19.000Z</time></trkpt><trkpt lon="5.863685" lat="51.046159"><ele>26.6</ele><time>2022-04-10T07:10:20.000Z</time></trkpt><trkpt lon="5.863665" lat="51.046094"><ele>26.4</ele><time>2022-04-10T07:10:21.000Z</time></trkpt><trkpt lon="5.863643" lat="51.046031"><ele>26.4</ele><time>2022-04-10T07:10:22.000Z</time></trkpt><trkpt lon="5.863623" lat="51.045974"><ele>26.2</ele><time>2022-04-10T07:10:23.000Z</time></trkpt><trkpt lon="5.863602" lat="51.045917"><ele>26</ele><time>2022-04-10T07:10:24.000Z</time></trkpt><trkpt lon="5.863581" lat="51.04586"><ele>26</ele><time>2022-04-10T07:10:25.000Z</time></trkpt><trkpt lon="5.863557" lat="51.045803"><ele>26.2</ele><time>2022-04-10T07:10:26.000Z</time></trkpt><trkpt lon="5.863534" lat="51.045753"><ele>26.2</ele><time>2022-04-10T07:10:27.000Z</time></trkpt><trkpt lon="5.863524" lat="51.045713"><ele>26.4</ele><time>2022-04-10T07:10:28.000Z</time></trkpt><trkpt lon="5.863533" lat="51.045683"><ele>26.4</ele><time>2022-04-10T07:10:29.000Z</time></trkpt><trkpt lon="5.86356" lat="51.045664"><ele>26.6</ele><time>2022-04-10T07:10:30.000Z</time></trkpt><trkpt lon="5.8636" lat="51.045646"><ele>26.6</ele><time>2022-04-10T07:10:31.000Z</time></trkpt><trkpt lon="5.863649" lat="51.045632"><ele>26.6</ele><time>2022-04-10T07:10:32.000Z</time></trkpt><trkpt lon="5.86371" lat="51.045622"><ele>26.6</ele><time>2022-04-10T07:10:33.000Z</time></trkpt><trkpt lon="5.863776" lat="51.045614"><ele>26.6</ele><time>2022-04-10T07:10:34.000Z</time></trkpt><trkpt lon="5.863849" lat="51.045605"><ele>26.4</ele><time>2022-04-10T07:10:35.000Z</time></trkpt><trkpt lon="5.863932" lat="51.045594"><ele>26.4</ele><time>2022-04-10T07:10:36.000Z</time></trkpt><trkpt lon="5.864017" lat="51.04558"><ele>26.2</ele><time>2022-04-10T07:10:37.000Z</time></trkpt><trkpt lon="5.864106" lat="51.045562"><ele>26</ele><time>2022-04-10T07:10:38.000Z</time></trkpt><trkpt lon="5.8642" lat="51.045547"><ele>26</ele><time>2022-04-10T07:10:39.000Z</time></trkpt><trkpt lon="5.864298" lat="51.045529"><ele>26.2</ele><time>2022-04-10T07:10:40.000Z</time></trkpt><trkpt lon="5.864395" lat="51.045504"><ele>26.2</ele><time>2022-04-10T07:10:41.000Z</time></trkpt><trkpt lon="5.864489" lat="51.045471"><ele>26.2</ele><time>2022-04-10T07:10:42.000Z</time></trkpt><trkpt lon="5.864579" lat="51.045429"><ele>26</ele><time>2022-04-10T07:10:43.000Z</time></trkpt><trkpt lon="5.864659" lat="51.045385"><ele>26</ele><time>2022-04-10T07:10:44.000Z</time></trkpt><trkpt lon="5.864737" lat="51.045335"><ele>25.8</ele><time>2022-04-10T07:10:45.000Z</time></trkpt><trkpt lon="5.864812" lat="51.045281"><ele>25.8</ele><time>2022-04-10T07:10:46.000Z</time></trkpt><trkpt lon="5.864884" lat="51.045226"><ele>25.6</ele><time>2022-04-10T07:10:47.000Z</time></trkpt><trkpt lon="5.864957" lat="51.04517"><ele>25.6</ele><time>2022-04-10T07:10:48.000Z</time></trkpt><trkpt lon="5.865026" lat="51.045117"><ele>25.4</ele><time>2022-04-10T07:10:49.000Z</time></trkpt><trkpt lon="5.865096" lat="51.045063"><ele>25.4</ele><time>2022-04-10T07:10:50.000Z</time></trkpt><trkpt lon="5.865163" lat="51.04501"><ele>25.4</ele><time>2022-04-10T07:10:51.000Z</time></trkpt><trkpt lon="5.865232" lat="51.044957"><ele>25.4</ele><time>2022-04-10T07:10:52.000Z</time></trkpt><trkpt lon="5.865299" lat="51.044904"><ele>25.4</ele><time>2022-04-10T07:10:53.000Z</time></trkpt><trkpt lon="5.865365" lat="51.044853"><ele>25.4</ele><time>2022-04-10T07:10:54.000Z</time></trkpt><trkpt lon="5.865432" lat="51.044802"><ele>25.6</ele><time>2022-04-10T07:10:55.000Z</time></trkpt><trkpt lon="5.865502" lat="51.044751"><ele>25.6</ele><time>2022-04-10T07:10:56.000Z</time></trkpt><trkpt lon="5.865572" lat="51.044697"><ele>25.6</ele><time>2022-04-10T07:10:57.000Z</time></trkpt><trkpt lon="5.865646" lat="51.044642"><ele>25.6</ele><time>2022-04-10T07:10:58.000Z</time></trkpt><trkpt lon="5.865719" lat="51.044588"><ele>25.8</ele><time>2022-04-10T07:10:59.000Z</time></trkpt><trkpt lon="5.865791" lat="51.044537"><ele>25.8</ele><time>2022-04-10T07:11:00.000Z</time></trkpt><trkpt lon="5.865863" lat="51.044483"><ele>25.8</ele><time>2022-04-10T07:11:01.000Z</time></trkpt><trkpt lon="5.865934" lat="51.044429"><ele>25.8</ele><time>2022-04-10T07:11:02.000Z</time></trkpt><trkpt lon="5.866004" lat="51.044373"><ele>25.8</ele><time>2022-04-10T07:11:03.000Z</time></trkpt><trkpt lon="5.866074" lat="51.04432"><ele>25.8</ele><time>2022-04-10T07:11:04.000Z</time></trkpt><trkpt lon="5.866146" lat="51.044265"><ele>25.8</ele><time>2022-04-10T07:11:05.000Z</time></trkpt><trkpt lon="5.866215" lat="51.04421"><ele>25.6</ele><time>2022-04-10T07:11:06.000Z</time></trkpt><trkpt lon="5.866285" lat="51.044154"><ele>25.4</ele><time>2022-04-10T07:11:07.000Z</time></trkpt><trkpt lon="5.866352" lat="51.044099"><ele>25.2</ele><time>2022-04-10T07:11:08.000Z</time></trkpt><trkpt lon="5.86642" lat="51.044049"><ele>25.2</ele><time>2022-04-10T07:11:09.000Z</time></trkpt><trkpt lon="5.866489" lat="51.043995"><ele>25</ele><time>2022-04-10T07:11:10.000Z</time></trkpt><trkpt lon="5.866558" lat="51.043942"><ele>25</ele><time>2022-04-10T07:11:11.000Z</time></trkpt><trkpt lon="5.866626" lat="51.043888"><ele>25</ele><time>2022-04-10T07:11:12.000Z</time></trkpt><trkpt lon="5.866695" lat="51.043835"><ele>25</ele><time>2022-04-10T07:11:13.000Z</time></trkpt><trkpt lon="5.866765" lat="51.043783"><ele>25</ele><time>2022-04-10T07:11:14.000Z</time></trkpt><trkpt lon="5.866835" lat="51.043732"><ele>25.2</ele><time>2022-04-10T07:11:15.000Z</time></trkpt><trkpt lon="5.866903" lat="51.04368"><ele>25.2</ele><time>2022-04-10T07:11:16.000Z</time></trkpt><trkpt lon="5.86697" lat="51.043629"><ele>25.4</ele><time>2022-04-10T07:11:17.000Z</time></trkpt><trkpt lon="5.867037" lat="51.043576"><ele>25.4</ele><time>2022-04-10T07:11:18.000Z</time></trkpt><trkpt lon="5.867108" lat="51.043522"><ele>25.4</ele><time>2022-04-10T07:11:19.000Z</time></trkpt><trkpt lon="5.867179" lat="51.043469"><ele>25.2</ele><time>2022-04-10T07:11:20.000Z</time></trkpt><trkpt lon="5.86725" lat="51.043415"><ele>25.2</ele><time>2022-04-10T07:11:21.000Z</time></trkpt><trkpt lon="5.867321" lat="51.043363"><ele>25.2</ele><time>2022-04-10T07:11:22.000Z</time></trkpt><trkpt lon="5.867392" lat="51.043312"><ele>25.2</ele><time>2022-04-10T07:11:23.000Z</time></trkpt><trkpt lon="5.867463" lat="51.04326"><ele>25.2</ele><time>2022-04-10T07:11:24.000Z</time></trkpt><trkpt lon="5.867536" lat="51.043206"><ele>25.2</ele><time>2022-04-10T07:11:25.000Z</time></trkpt><trkpt lon="5.867608" lat="51.043154"><ele>25.2</ele><time>2022-04-10T07:11:26.000Z</time></trkpt><trkpt lon="5.867681" lat="51.043103"><ele>25.2</ele><time>2022-04-10T07:11:27.000Z</time></trkpt><trkpt lon="5.867755" lat="51.04305"><ele>25.4</ele><time>2022-04-10T07:11:28.000Z</time></trkpt><trkpt lon="5.867827" lat="51.043"><ele>25.4</ele><time>2022-04-10T07:11:29.000Z</time></trkpt><trkpt lon="5.8679" lat="51.042951"><ele>25.2</ele><time>2022-04-10T07:11:30.000Z</time></trkpt><trkpt lon="5.867972" lat="51.042901"><ele>25.4</ele><time>2022-04-10T07:11:31.000Z</time></trkpt><trkpt lon="5.868043" lat="51.042852"><ele>25.4</ele><time>2022-04-10T07:11:32.000Z</time></trkpt><trkpt lon="5.868114" lat="51.042804"><ele>25.4</ele><time>2022-04-10T07:11:33.000Z</time></trkpt><trkpt lon="5.868186" lat="51.042758"><ele>25.4</ele><time>2022-04-10T07:11:34.000Z</time></trkpt><trkpt lon="5.86826" lat="51.042707"><ele>25.4</ele><time>2022-04-10T07:11:35.000Z</time></trkpt><trkpt lon="5.868332" lat="51.042657"><ele>25.4</ele><time>2022-04-10T07:11:36.000Z</time></trkpt><trkpt lon="5.868405" lat="51.042607"><ele>25.6</ele><time>2022-04-10T07:11:37.000Z</time></trkpt><trkpt lon="5.868477" lat="51.042555"><ele>25.8</ele><time>2022-04-10T07:11:38.000Z</time></trkpt><trkpt lon="5.86855" lat="51.042505"><ele>25.8</ele><time>2022-04-10T07:11:39.000Z</time></trkpt><trkpt lon="5.868622" lat="51.042456"><ele>26</ele><time>2022-04-10T07:11:40.000Z</time></trkpt><trkpt lon="5.868695" lat="51.042406"><ele>26</ele><time>2022-04-10T07:11:41.000Z</time></trkpt><trkpt lon="5.868765" lat="51.042356"><ele>26</ele><time>2022-04-10T07:11:42.000Z</time></trkpt><trkpt lon="5.868837" lat="51.042305"><ele>26</ele><time>2022-04-10T07:11:43.000Z</time></trkpt><trkpt lon="5.86891" lat="51.042252"><ele>26</ele><time>2022-04-10T07:11:44.000Z</time></trkpt><trkpt lon="5.868983" lat="51.042198"><ele>26</ele><time>2022-04-10T07:11:45.000Z</time></trkpt><trkpt lon="5.869055" lat="51.042146"><ele>26</ele><time>2022-04-10T07:11:46.000Z</time></trkpt><trkpt lon="5.869127" lat="51.042096"><ele>26</ele><time>2022-04-10T07:11:47.000Z</time></trkpt><trkpt lon="5.869196" lat="51.042046"><ele>26</ele><time>2022-04-10T07:11:48.000Z</time></trkpt><trkpt lon="5.869263" lat="51.041994"><ele>26.2</ele><time>2022-04-10T07:11:49.000Z</time></trkpt><trkpt lon="5.869331" lat="51.041944"><ele>26.2</ele><time>2022-04-10T07:11:50.000Z</time></trkpt><trkpt lon="5.8694" lat="51.041893"><ele>26.2</ele><time>2022-04-10T07:11:51.000Z</time></trkpt><trkpt lon="5.869473" lat="51.04184"><ele>26.2</ele><time>2022-04-10T07:11:52.000Z</time></trkpt><trkpt lon="5.869545" lat="51.041788"><ele>26.2</ele><time>2022-04-10T07:11:53.000Z</time></trkpt><trkpt lon="5.869617" lat="51.041737"><ele>26.2</ele><time>2022-04-10T07:11:54.000Z</time></trkpt><trkpt lon="5.869689" lat="51.041685"><ele>26.2</ele><time>2022-04-10T07:11:55.000Z</time></trkpt><trkpt lon="5.869761" lat="51.041635"><ele>26.2</ele><time>2022-04-10T07:11:56.000Z</time></trkpt><trkpt lon="5.869832" lat="51.041584"><ele>26.2</ele><time>2022-04-10T07:11:57.000Z</time></trkpt><trkpt lon="5.869906" lat="51.041531"><ele>26.2</ele><time>2022-04-10T07:11:58.000Z</time></trkpt><trkpt lon="5.869979" lat="51.041477"><ele>26.2</ele><time>2022-04-10T07:11:59.000Z</time></trkpt><trkpt lon="5.870053" lat="51.04142"><ele>26.2</ele><time>2022-04-10T07:12:00.000Z</time></trkpt><trkpt lon="5.870124" lat="51.041367"><ele>26.2</ele><time>2022-04-10T07:12:01.000Z</time></trkpt><trkpt lon="5.870197" lat="51.041315"><ele>26.2</ele><time>2022-04-10T07:12:02.000Z</time></trkpt><trkpt lon="5.870268" lat="51.041264"><ele>26.2</ele><time>2022-04-10T07:12:03.000Z</time></trkpt><trkpt lon="5.870338" lat="51.041212"><ele>26.2</ele><time>2022-04-10T07:12:04.000Z</time></trkpt><trkpt lon="5.870407" lat="51.041162"><ele>26.2</ele><time>2022-04-10T07:12:05.000Z</time></trkpt><trkpt lon="5.870476" lat="51.041112"><ele>26.2</ele><time>2022-04-10T07:12:06.000Z</time></trkpt><trkpt lon="5.870543" lat="51.041064"><ele>26.2</ele><time>2022-04-10T07:12:07.000Z</time></trkpt><trkpt lon="5.870607" lat="51.041018"><ele>26.4</ele><time>2022-04-10T07:12:08.000Z</time></trkpt><trkpt lon="5.870668" lat="51.040973"><ele>26.4</ele><time>2022-04-10T07:12:09.000Z</time></trkpt><trkpt lon="5.870731" lat="51.040929"><ele>26.4</ele><time>2022-04-10T07:12:10.000Z</time></trkpt><trkpt lon="5.8708" lat="51.040893"><ele>26.6</ele><time>2022-04-10T07:12:11.000Z</time></trkpt><trkpt lon="5.870877" lat="51.04087"><ele>26.6</ele><time>2022-04-10T07:12:12.000Z</time></trkpt><trkpt lon="5.870963" lat="51.04087"><ele>26.8</ele><time>2022-04-10T07:12:13.000Z</time></trkpt><trkpt lon="5.871051" lat="51.040888"><ele>26.8</ele><time>2022-04-10T07:12:14.000Z</time></trkpt><trkpt lon="5.871136" lat="51.040926"><ele>27</ele><time>2022-04-10T07:12:15.000Z</time></trkpt><trkpt lon="5.871219" lat="51.040971"><ele>27</ele><time>2022-04-10T07:12:16.000Z</time></trkpt><trkpt lon="5.871303" lat="51.041018"><ele>27</ele><time>2022-04-10T07:12:17.000Z</time></trkpt><trkpt lon="5.871385" lat="51.041068"><ele>27.2</ele><time>2022-04-10T07:12:18.000Z</time></trkpt><trkpt lon="5.871466" lat="51.041117"><ele>27.2</ele><time>2022-04-10T07:12:19.000Z</time></trkpt><trkpt lon="5.871549" lat="51.041166"><ele>27</ele><time>2022-04-10T07:12:20.000Z</time></trkpt><trkpt lon="5.871631" lat="51.041213"><ele>27</ele><time>2022-04-10T07:12:21.000Z</time></trkpt><trkpt lon="5.871712" lat="51.041262"><ele>27</ele><time>2022-04-10T07:12:22.000Z</time></trkpt><trkpt lon="5.871791" lat="51.041311"><ele>27</ele><time>2022-04-10T07:12:23.000Z</time></trkpt><trkpt lon="5.871868" lat="51.041361"><ele>27</ele><time>2022-04-10T07:12:24.000Z</time></trkpt><trkpt lon="5.871942" lat="51.041411"><ele>27</ele><time>2022-04-10T07:12:25.000Z</time></trkpt><trkpt lon="5.872017" lat="51.04146"><ele>27.2</ele><time>2022-04-10T07:12:26.000Z</time></trkpt><trkpt lon="5.872092" lat="51.04151"><ele>27.2</ele><time>2022-04-10T07:12:27.000Z</time></trkpt><trkpt lon="5.872165" lat="51.04156"><ele>27.2</ele><time>2022-04-10T07:12:28.000Z</time></trkpt><trkpt lon="5.872238" lat="51.041608"><ele>27.2</ele><time>2022-04-10T07:12:29.000Z</time></trkpt><trkpt lon="5.872307" lat="51.041653"><ele>27.4</ele><time>2022-04-10T07:12:30.000Z</time></trkpt><trkpt lon="5.872373" lat="51.041699"><ele>27.4</ele><time>2022-04-10T07:12:31.000Z</time></trkpt><trkpt lon="5.872432" lat="51.041741"><ele>27.4</ele><time>2022-04-10T07:12:32.000Z</time></trkpt><trkpt lon="5.872484" lat="51.041778"><ele>27.6</ele><time>2022-04-10T07:12:33.000Z</time></trkpt><trkpt lon="5.872529" lat="51.041816"><ele>27.8</ele><time>2022-04-10T07:12:34.000Z</time></trkpt><trkpt lon="5.872574" lat="51.041854"><ele>27.8</ele><time>2022-04-10T07:12:35.000Z</time></trkpt><trkpt lon="5.872629" lat="51.041891"><ele>27.8</ele><time>2022-04-10T07:12:36.000Z</time></trkpt><trkpt lon="5.872697" lat="51.041925"><ele>27.8</ele><time>2022-04-10T07:12:37.000Z</time></trkpt><trkpt lon="5.872779" lat="51.041961"><ele>27.8</ele><time>2022-04-10T07:12:38.000Z</time></trkpt><trkpt lon="5.872867" lat="51.041999"><ele>27.6</ele><time>2022-04-10T07:12:39.000Z</time></trkpt><trkpt lon="5.872957" lat="51.042039"><ele>27.6</ele><time>2022-04-10T07:12:40.000Z</time></trkpt><trkpt lon="5.87305" lat="51.042084"><ele>27.4</ele><time>2022-04-10T07:12:41.000Z</time></trkpt><trkpt lon="5.873146" lat="51.042131"><ele>27.4</ele><time>2022-04-10T07:12:42.000Z</time></trkpt><trkpt lon="5.873244" lat="51.042176"><ele>27.4</ele><time>2022-04-10T07:12:43.000Z</time></trkpt><trkpt lon="5.873339" lat="51.042218"><ele>27.2</ele><time>2022-04-10T07:12:44.000Z</time></trkpt><trkpt lon="5.873439" lat="51.042262"><ele>27.2</ele><time>2022-04-10T07:12:45.000Z</time></trkpt><trkpt lon="5.873538" lat="51.042301"><ele>27</ele><time>2022-04-10T07:12:46.000Z</time></trkpt><trkpt lon="5.873635" lat="51.042342"><ele>27</ele><time>2022-04-10T07:12:47.000Z</time></trkpt><trkpt lon="5.873729" lat="51.042381"><ele>27</ele><time>2022-04-10T07:12:48.000Z</time></trkpt><trkpt lon="5.873824" lat="51.042423"><ele>26.8</ele><time>2022-04-10T07:12:49.000Z</time></trkpt><trkpt lon="5.873916" lat="51.042464"><ele>26.8</ele><time>2022-04-10T07:12:50.000Z</time></trkpt><trkpt lon="5.874008" lat="51.042503"><ele>26.8</ele><time>2022-04-10T07:12:51.000Z</time></trkpt><trkpt lon="5.874098" lat="51.042544"><ele>26.8</ele><time>2022-04-10T07:12:52.000Z</time></trkpt><trkpt lon="5.874191" lat="51.04258"><ele>26.8</ele><time>2022-04-10T07:12:53.000Z</time></trkpt><trkpt lon="5.874288" lat="51.042608"><ele>26.8</ele><time>2022-04-10T07:12:54.000Z</time></trkpt><trkpt lon="5.874389" lat="51.042622"><ele>26.8</ele><time>2022-04-10T07:12:55.000Z</time></trkpt><trkpt lon="5.874484" lat="51.042616"><ele>27</ele><time>2022-04-10T07:12:56.000Z</time></trkpt><trkpt lon="5.87457" lat="51.042594"><ele>27</ele><time>2022-04-10T07:12:57.000Z</time></trkpt><trkpt lon="5.874656" lat="51.042561"><ele>27</ele><time>2022-04-10T07:12:58.000Z</time></trkpt><trkpt lon="5.874743" lat="51.042519"><ele>26.8</ele><time>2022-04-10T07:12:59.000Z</time></trkpt><trkpt lon="5.874835" lat="51.042474"><ele>26.8</ele><time>2022-04-10T07:13:00.000Z</time></trkpt><trkpt lon="5.874923" lat="51.042427"><ele>26.6</ele><time>2022-04-10T07:13:01.000Z</time></trkpt><trkpt lon="5.875012" lat="51.042384"><ele>26.6</ele><time>2022-04-10T07:13:02.000Z</time></trkpt><trkpt lon="5.8751" lat="51.04234"><ele>26.8</ele><time>2022-04-10T07:13:03.000Z</time></trkpt><trkpt lon="5.875192" lat="51.042297"><ele>27</ele><time>2022-04-10T07:13:04.000Z</time></trkpt><trkpt lon="5.875283" lat="51.042256"><ele>27</ele><time>2022-04-10T07:13:05.000Z</time></trkpt><trkpt lon="5.875376" lat="51.042218"><ele>27</ele><time>2022-04-10T07:13:06.000Z</time></trkpt><trkpt lon="5.875472" lat="51.042181"><ele>27</ele><time>2022-04-10T07:13:07.000Z</time></trkpt><trkpt lon="5.87557" lat="51.042147"><ele>27.2</ele><time>2022-04-10T07:13:08.000Z</time></trkpt><trkpt lon="5.875668" lat="51.042112"><ele>27.2</ele><time>2022-04-10T07:13:09.000Z</time></trkpt><trkpt lon="5.87577" lat="51.042074"><ele>27.2</ele><time>2022-04-10T07:13:10.000Z</time></trkpt><trkpt lon="5.875873" lat="51.042041"><ele>27.2</ele><time>2022-04-10T07:13:11.000Z</time></trkpt><trkpt lon="5.875976" lat="51.042012"><ele>27.2</ele><time>2022-04-10T07:13:12.000Z</time></trkpt><trkpt lon="5.876079" lat="51.041986"><ele>27.2</ele><time>2022-04-10T07:13:13.000Z</time></trkpt><trkpt lon="5.876179" lat="51.041963"><ele>27.2</ele><time>2022-04-10T07:13:14.000Z</time></trkpt><trkpt lon="5.876284" lat="51.041936"><ele>27.2</ele><time>2022-04-10T07:13:15.000Z</time></trkpt><trkpt lon="5.876389" lat="51.041913"><ele>27.2</ele><time>2022-04-10T07:13:16.000Z</time></trkpt><trkpt lon="5.876493" lat="51.041892"><ele>27.2</ele><time>2022-04-10T07:13:17.000Z</time></trkpt><trkpt lon="5.876596" lat="51.041873"><ele>27</ele><time>2022-04-10T07:13:18.000Z</time></trkpt><trkpt lon="5.876702" lat="51.041853"><ele>27</ele><time>2022-04-10T07:13:19.000Z</time></trkpt><trkpt lon="5.876804" lat="51.041834"><ele>27.2</ele><time>2022-04-10T07:13:20.000Z</time></trkpt><trkpt lon="5.876905" lat="51.041815"><ele>27.2</ele><time>2022-04-10T07:13:21.000Z</time></trkpt><trkpt lon="5.877002" lat="51.041797"><ele>27.2</ele><time>2022-04-10T07:13:22.000Z</time></trkpt><trkpt lon="5.877099" lat="51.04178"><ele>27.4</ele><time>2022-04-10T07:13:23.000Z</time></trkpt><trkpt lon="5.877195" lat="51.041758"><ele>27.4</ele><time>2022-04-10T07:13:24.000Z</time></trkpt><trkpt lon="5.877294" lat="51.041739"><ele>27.4</ele><time>2022-04-10T07:13:25.000Z</time></trkpt><trkpt lon="5.877398" lat="51.041719"><ele>27.4</ele><time>2022-04-10T07:13:26.000Z</time></trkpt><trkpt lon="5.8775" lat="51.041697"><ele>27.4</ele><time>2022-04-10T07:13:27.000Z</time></trkpt><trkpt lon="5.877605" lat="51.041679"><ele>27.6</ele><time>2022-04-10T07:13:28.000Z</time></trkpt><trkpt lon="5.877708" lat="51.041664"><ele>27.6</ele><time>2022-04-10T07:13:29.000Z</time></trkpt><trkpt lon="5.877814" lat="51.041649"><ele>27.6</ele><time>2022-04-10T07:13:30.000Z</time></trkpt><trkpt lon="5.877919" lat="51.041634"><ele>27.6</ele><time>2022-04-10T07:13:31.000Z</time></trkpt><trkpt lon="5.878024" lat="51.041624"><ele>27.6</ele><time>2022-04-10T07:13:32.000Z</time></trkpt><trkpt lon="5.878129" lat="51.041615"><ele>27.8</ele><time>2022-04-10T07:13:33.000Z</time></trkpt><trkpt lon="5.878232" lat="51.041605"><ele>28.2</ele><time>2022-04-10T07:13:34.000Z</time></trkpt><trkpt lon="5.878333" lat="51.041596"><ele>28.4</ele><time>2022-04-10T07:13:35.000Z</time></trkpt><trkpt lon="5.87843" lat="51.041586"><ele>28.6</ele><time>2022-04-10T07:13:36.000Z</time></trkpt><trkpt lon="5.878528" lat="51.041575"><ele>28.8</ele><time>2022-04-10T07:13:37.000Z</time></trkpt><trkpt lon="5.878629" lat="51.041557"><ele>29</ele><time>2022-04-10T07:13:38.000Z</time></trkpt><trkpt lon="5.878721" lat="51.041542"><ele>29</ele><time>2022-04-10T07:13:39.000Z</time></trkpt><trkpt lon="5.878815" lat="51.041527"><ele>29.2</ele><time>2022-04-10T07:13:40.000Z</time></trkpt><trkpt lon="5.878906" lat="51.041511"><ele>29.4</ele><time>2022-04-10T07:13:41.000Z</time></trkpt><trkpt lon="5.878997" lat="51.041496"><ele>29.4</ele><time>2022-04-10T07:13:42.000Z</time></trkpt><trkpt lon="5.879086" lat="51.041482"><ele>29.4</ele><time>2022-04-10T07:13:43.000Z</time></trkpt><trkpt lon="5.879181" lat="51.041469"><ele>29.6</ele><time>2022-04-10T07:13:44.000Z</time></trkpt><trkpt lon="5.879278" lat="51.041456"><ele>29.6</ele><time>2022-04-10T07:13:45.000Z</time></trkpt><trkpt lon="5.879377" lat="51.041449"><ele>29.8</ele><time>2022-04-10T07:13:46.000Z</time></trkpt><trkpt lon="5.879477" lat="51.041441"><ele>29.8</ele><time>2022-04-10T07:13:47.000Z</time></trkpt><trkpt lon="5.879582" lat="51.041438"><ele>30</ele><time>2022-04-10T07:13:48.000Z</time></trkpt><trkpt lon="5.879688" lat="51.04145"><ele>30</ele><time>2022-04-10T07:13:49.000Z</time></trkpt><trkpt lon="5.879789" lat="51.041461"><ele>30</ele><time>2022-04-10T07:13:50.000Z</time></trkpt><trkpt lon="5.879893" lat="51.041473"><ele>30</ele><time>2022-04-10T07:13:51.000Z</time></trkpt><trkpt lon="5.879996" lat="51.041485"><ele>30</ele><time>2022-04-10T07:13:52.000Z</time></trkpt><trkpt lon="5.880102" lat="51.041498"><ele>30</ele><time>2022-04-10T07:13:53.000Z</time></trkpt><trkpt lon="5.880207" lat="51.041507"><ele>30</ele><time>2022-04-10T07:13:54.000Z</time></trkpt><trkpt lon="5.880308" lat="51.041518"><ele>30.2</ele><time>2022-04-10T07:13:55.000Z</time></trkpt><trkpt lon="5.880407" lat="51.041529"><ele>30.2</ele><time>2022-04-10T07:13:56.000Z</time></trkpt><trkpt lon="5.880507" lat="51.041535"><ele>30.2</ele><time>2022-04-10T07:13:57.000Z</time></trkpt><trkpt lon="5.880612" lat="51.041537"><ele>30</ele><time>2022-04-10T07:13:58.000Z</time></trkpt><trkpt lon="5.880716" lat="51.041533"><ele>30</ele><time>2022-04-10T07:13:59.000Z</time></trkpt><trkpt lon="5.880821" lat="51.041528"><ele>30</ele><time>2022-04-10T07:14:00.000Z</time></trkpt><trkpt lon="5.88093" lat="51.041515"><ele>30.2</ele><time>2022-04-10T07:14:01.000Z</time></trkpt><trkpt lon="5.881034" lat="51.0415"><ele>30.2</ele><time>2022-04-10T07:14:02.000Z</time></trkpt><trkpt lon="5.881139" lat="51.041484"><ele>30.4</ele><time>2022-04-10T07:14:03.000Z</time></trkpt><trkpt lon="5.881246" lat="51.041464"><ele>30.6</ele><time>2022-04-10T07:14:04.000Z</time></trkpt><trkpt lon="5.881351" lat="51.041443"><ele>30.8</ele><time>2022-04-10T07:14:05.000Z</time></trkpt><trkpt lon="5.881457" lat="51.041428"><ele>30.8</ele><time>2022-04-10T07:14:06.000Z</time></trkpt><trkpt lon="5.881561" lat="51.041411"><ele>31</ele><time>2022-04-10T07:14:07.000Z</time></trkpt><trkpt lon="5.881659" lat="51.041394"><ele>31</ele><time>2022-04-10T07:14:08.000Z</time></trkpt><trkpt lon="5.881757" lat="51.041382"><ele>31</ele><time>2022-04-10T07:14:09.000Z</time></trkpt><trkpt lon="5.881861" lat="51.041368"><ele>31.2</ele><time>2022-04-10T07:14:10.000Z</time></trkpt><trkpt lon="5.881966" lat="51.04136"><ele>31.2</ele><time>2022-04-10T07:14:11.000Z</time></trkpt><trkpt lon="5.882073" lat="51.041348"><ele>31.2</ele><time>2022-04-10T07:14:12.000Z</time></trkpt><trkpt lon="5.882182" lat="51.041338"><ele>31.4</ele><time>2022-04-10T07:14:13.000Z</time></trkpt><trkpt lon="5.882291" lat="51.041329"><ele>31.4</ele><time>2022-04-10T07:14:14.000Z</time></trkpt><trkpt lon="5.882398" lat="51.041319"><ele>31.4</ele><time>2022-04-10T07:14:15.000Z</time></trkpt><trkpt lon="5.882505" lat="51.04131"><ele>31.2</ele><time>2022-04-10T07:14:16.000Z</time></trkpt><trkpt lon="5.882613" lat="51.041299"><ele>31.2</ele><time>2022-04-10T07:14:17.000Z</time></trkpt><trkpt lon="5.882717" lat="51.041288"><ele>31.2</ele><time>2022-04-10T07:14:18.000Z</time></trkpt><trkpt lon="5.882824" lat="51.041281"><ele>31.4</ele><time>2022-04-10T07:14:19.000Z</time></trkpt><trkpt lon="5.882929" lat="51.041273"><ele>31.4</ele><time>2022-04-10T07:14:20.000Z</time></trkpt><trkpt lon="5.883033" lat="51.041265"><ele>31.4</ele><time>2022-04-10T07:14:21.000Z</time></trkpt><trkpt lon="5.883138" lat="51.041257"><ele>31.6</ele><time>2022-04-10T07:14:22.000Z</time></trkpt><trkpt lon="5.883245" lat="51.041246"><ele>31.6</ele><time>2022-04-10T07:14:23.000Z</time></trkpt><trkpt lon="5.883351" lat="51.041239"><ele>31.6</ele><time>2022-04-10T07:14:24.000Z</time></trkpt><trkpt lon="5.883458" lat="51.04123"><ele>31.6</ele><time>2022-04-10T07:14:25.000Z</time></trkpt><trkpt lon="5.883566" lat="51.04122"><ele>31.6</ele><time>2022-04-10T07:14:26.000Z</time></trkpt><trkpt lon="5.883673" lat="51.041212"><ele>31.8</ele><time>2022-04-10T07:14:27.000Z</time></trkpt><trkpt lon="5.883778" lat="51.041203"><ele>31.8</ele><time>2022-04-10T07:14:28.000Z</time></trkpt><trkpt lon="5.883885" lat="51.041193"><ele>31.8</ele><time>2022-04-10T07:14:29.000Z</time></trkpt><trkpt lon="5.883989" lat="51.041186"><ele>31.8</ele><time>2022-04-10T07:14:30.000Z</time></trkpt><trkpt lon="5.884089" lat="51.041181"><ele>31.8</ele><time>2022-04-10T07:14:31.000Z</time></trkpt><trkpt lon="5.884184" lat="51.041173"><ele>31.8</ele><time>2022-04-10T07:14:32.000Z</time></trkpt><trkpt lon="5.884274" lat="51.04116"><ele>31.8</ele><time>2022-04-10T07:14:33.000Z</time></trkpt><trkpt lon="5.884357" lat="51.041139"><ele>32</ele><time>2022-04-10T07:14:34.000Z</time></trkpt><trkpt lon="5.884424" lat="51.041111"><ele>32</ele><time>2022-04-10T07:14:35.000Z</time></trkpt><trkpt lon="5.884476" lat="51.041079"><ele>32.2</ele><time>2022-04-10T07:14:36.000Z</time></trkpt><trkpt lon="5.884523" lat="51.041043"><ele>32.4</ele><time>2022-04-10T07:14:37.000Z</time></trkpt><trkpt lon="5.884568" lat="51.041016"><ele>32.6</ele><time>2022-04-10T07:14:38.000Z</time></trkpt><trkpt lon="5.884623" lat="51.040996"><ele>32.8</ele><time>2022-04-10T07:14:39.000Z</time></trkpt><trkpt lon="5.884686" lat="51.040995"><ele>33</ele><time>2022-04-10T07:14:40.000Z</time></trkpt><trkpt lon="5.884755" lat="51.041007"><ele>33.2</ele><time>2022-04-10T07:14:41.000Z</time></trkpt><trkpt lon="5.884828" lat="51.041036"><ele>33.2</ele><time>2022-04-10T07:14:42.000Z</time></trkpt><trkpt lon="5.884901" lat="51.041071"><ele>33.4</ele><time>2022-04-10T07:14:43.000Z</time></trkpt><trkpt lon="5.884981" lat="51.041108"><ele>33.4</ele><time>2022-04-10T07:14:44.000Z</time></trkpt><trkpt lon="5.885077" lat="51.04114"><ele>33.4</ele><time>2022-04-10T07:14:45.000Z</time></trkpt><trkpt lon="5.885184" lat="51.041168"><ele>33.4</ele><time>2022-04-10T07:14:46.000Z</time></trkpt><trkpt lon="5.885294" lat="51.041193"><ele>33.4</ele><time>2022-04-10T07:14:47.000Z</time></trkpt><trkpt lon="5.885406" lat="51.041216"><ele>33.4</ele><time>2022-04-10T07:14:48.000Z</time></trkpt><trkpt lon="5.885517" lat="51.041237"><ele>33.4</ele><time>2022-04-10T07:14:49.000Z</time></trkpt><trkpt lon="5.885623" lat="51.041251"><ele>33.4</ele><time>2022-04-10T07:14:50.000Z</time></trkpt><trkpt lon="5.885723" lat="51.041262"><ele>33.4</ele><time>2022-04-10T07:14:51.000Z</time></trkpt><trkpt lon="5.885821" lat="51.041269"><ele>33.4</ele><time>2022-04-10T07:14:52.000Z</time></trkpt><trkpt lon="5.88592" lat="51.041277"><ele>33.2</ele><time>2022-04-10T07:14:53.000Z</time></trkpt><trkpt lon="5.886022" lat="51.041286"><ele>33.2</ele><time>2022-04-10T07:14:54.000Z</time></trkpt><trkpt lon="5.886126" lat="51.041295"><ele>33.2</ele><time>2022-04-10T07:14:55.000Z</time></trkpt><trkpt lon="5.886235" lat="51.041299"><ele>33</ele><time>2022-04-10T07:14:56.000Z</time></trkpt><trkpt lon="5.886343" lat="51.041302"><ele>32.8</ele><time>2022-04-10T07:14:57.000Z</time></trkpt><trkpt lon="5.886451" lat="51.041304"><ele>32.8</ele><time>2022-04-10T07:14:58.000Z</time></trkpt><trkpt lon="5.886557" lat="51.04131"><ele>32.8</ele><time>2022-04-10T07:14:59.000Z</time></trkpt><trkpt lon="5.886658" lat="51.041314"><ele>32.8</ele><time>2022-04-10T07:15:00.000Z</time></trkpt><trkpt lon="5.88676" lat="51.041318"><ele>32.8</ele><time>2022-04-10T07:15:01.000Z</time></trkpt><trkpt lon="5.886856" lat="51.041323"><ele>32.8</ele><time>2022-04-10T07:15:02.000Z</time></trkpt><trkpt lon="5.886952" lat="51.041329"><ele>32.8</ele><time>2022-04-10T07:15:03.000Z</time></trkpt><trkpt lon="5.887054" lat="51.041333"><ele>32.6</ele><time>2022-04-10T07:15:04.000Z</time></trkpt><trkpt lon="5.887157" lat="51.041337"><ele>32.6</ele><time>2022-04-10T07:15:05.000Z</time></trkpt><trkpt lon="5.887262" lat="51.041342"><ele>32.6</ele><time>2022-04-10T07:15:06.000Z</time></trkpt><trkpt lon="5.88737" lat="51.041349"><ele>32.6</ele><time>2022-04-10T07:15:07.000Z</time></trkpt><trkpt lon="5.88748" lat="51.041356"><ele>32.6</ele><time>2022-04-10T07:15:08.000Z</time></trkpt><trkpt lon="5.88759" lat="51.041361"><ele>32.8</ele><time>2022-04-10T07:15:09.000Z</time></trkpt><trkpt lon="5.887702" lat="51.041368"><ele>32.8</ele><time>2022-04-10T07:15:10.000Z</time></trkpt><trkpt lon="5.887815" lat="51.041372"><ele>32.8</ele><time>2022-04-10T07:15:11.000Z</time></trkpt><trkpt lon="5.887924" lat="51.041379"><ele>32.8</ele><time>2022-04-10T07:15:12.000Z</time></trkpt><trkpt lon="5.888037" lat="51.041384"><ele>33</ele><time>2022-04-10T07:15:13.000Z</time></trkpt><trkpt lon="5.888146" lat="51.04139"><ele>33</ele><time>2022-04-10T07:15:14.000Z</time></trkpt><trkpt lon="5.888255" lat="51.041394"><ele>33.2</ele><time>2022-04-10T07:15:15.000Z</time></trkpt><trkpt lon="5.888364" lat="51.041399"><ele>33.2</ele><time>2022-04-10T07:15:16.000Z</time></trkpt><trkpt lon="5.888472" lat="51.041406"><ele>33.4</ele><time>2022-04-10T07:15:17.000Z</time></trkpt><trkpt lon="5.888576" lat="51.041409"><ele>33.4</ele><time>2022-04-10T07:15:18.000Z</time></trkpt><trkpt lon="5.888682" lat="51.041413"><ele>33.4</ele><time>2022-04-10T07:15:19.000Z</time></trkpt><trkpt lon="5.888786" lat="51.041417"><ele>33.6</ele><time>2022-04-10T07:15:20.000Z</time></trkpt><trkpt lon="5.888889" lat="51.041422"><ele>33.4</ele><time>2022-04-10T07:15:21.000Z</time></trkpt><trkpt lon="5.888991" lat="51.041429"><ele>33.4</ele><time>2022-04-10T07:15:22.000Z</time></trkpt><trkpt lon="5.889091" lat="51.041432"><ele>33.4</ele><time>2022-04-10T07:15:23.000Z</time></trkpt><trkpt lon="5.88919" lat="51.041436"><ele>33.4</ele><time>2022-04-10T07:15:24.000Z</time></trkpt><trkpt lon="5.889293" lat="51.041441"><ele>33.2</ele><time>2022-04-10T07:15:25.000Z</time></trkpt><trkpt lon="5.889396" lat="51.041448"><ele>33.2</ele><time>2022-04-10T07:15:26.000Z</time></trkpt><trkpt lon="5.889507" lat="51.041455"><ele>33.4</ele><time>2022-04-10T07:15:27.000Z</time></trkpt><trkpt lon="5.889618" lat="51.04146"><ele>33.4</ele><time>2022-04-10T07:15:28.000Z</time></trkpt><trkpt lon="5.88973" lat="51.041467"><ele>33.4</ele><time>2022-04-10T07:15:29.000Z</time></trkpt><trkpt lon="5.889841" lat="51.041471"><ele>33.6</ele><time>2022-04-10T07:15:30.000Z</time></trkpt><trkpt lon="5.889951" lat="51.041475"><ele>33.6</ele><time>2022-04-10T07:15:31.000Z</time></trkpt><trkpt lon="5.890058" lat="51.041482"><ele>33.8</ele><time>2022-04-10T07:15:32.000Z</time></trkpt><trkpt lon="5.890163" lat="51.041486"><ele>33.8</ele><time>2022-04-10T07:15:33.000Z</time></trkpt><trkpt lon="5.890266" lat="51.04149"><ele>33.8</ele><time>2022-04-10T07:15:34.000Z</time></trkpt><trkpt lon="5.890368" lat="51.041494"><ele>34</ele><time>2022-04-10T07:15:35.000Z</time></trkpt><trkpt lon="5.890473" lat="51.041501"><ele>34</ele><time>2022-04-10T07:15:36.000Z</time></trkpt><trkpt lon="5.890577" lat="51.041505"><ele>34</ele><time>2022-04-10T07:15:37.000Z</time></trkpt><trkpt lon="5.890686" lat="51.041509"><ele>34</ele><time>2022-04-10T07:15:38.000Z</time></trkpt><trkpt lon="5.890794" lat="51.041513"><ele>34.2</ele><time>2022-04-10T07:15:39.000Z</time></trkpt><trkpt lon="5.890903" lat="51.041516"><ele>34</ele><time>2022-04-10T07:15:40.000Z</time></trkpt><trkpt lon="5.891014" lat="51.04152"><ele>34</ele><time>2022-04-10T07:15:41.000Z</time></trkpt><trkpt lon="5.891124" lat="51.041524"><ele>34</ele><time>2022-04-10T07:15:42.000Z</time></trkpt><trkpt lon="5.891236" lat="51.041527"><ele>33.8</ele><time>2022-04-10T07:15:43.000Z</time></trkpt><trkpt lon="5.891349" lat="51.041529"><ele>33.8</ele><time>2022-04-10T07:15:44.000Z</time></trkpt><trkpt lon="5.891462" lat="51.041534"><ele>33.8</ele><time>2022-04-10T07:15:45.000Z</time></trkpt><trkpt lon="5.891572" lat="51.041535"><ele>33.8</ele><time>2022-04-10T07:15:46.000Z</time></trkpt><trkpt lon="5.891681" lat="51.041538"><ele>33.8</ele><time>2022-04-10T07:15:47.000Z</time></trkpt><trkpt lon="5.891805" lat="51.041538"><ele>33.6</ele><time>2022-04-10T07:15:48.000Z</time></trkpt><trkpt lon="5.891922" lat="51.041539"><ele>33.6</ele><time>2022-04-10T07:15:49.000Z</time></trkpt><trkpt lon="5.892036" lat="51.041542"><ele>33.4</ele><time>2022-04-10T07:15:50.000Z</time></trkpt><trkpt lon="5.892153" lat="51.041542"><ele>33.4</ele><time>2022-04-10T07:15:51.000Z</time></trkpt><trkpt lon="5.89227" lat="51.041542"><ele>33.4</ele><time>2022-04-10T07:15:52.000Z</time></trkpt><trkpt lon="5.892391" lat="51.041542"><ele>33.2</ele><time>2022-04-10T07:15:53.000Z</time></trkpt><trkpt lon="5.89251" lat="51.041541"><ele>33.2</ele><time>2022-04-10T07:15:54.000Z</time></trkpt><trkpt lon="5.892628" lat="51.041538"><ele>33.2</ele><time>2022-04-10T07:15:55.000Z</time></trkpt><trkpt lon="5.892747" lat="51.041538"><ele>33.2</ele><time>2022-04-10T07:15:56.000Z</time></trkpt><trkpt lon="5.892865" lat="51.041537"><ele>33.2</ele><time>2022-04-10T07:15:57.000Z</time></trkpt><trkpt lon="5.892985" lat="51.041533"><ele>33</ele><time>2022-04-10T07:15:58.000Z</time></trkpt><trkpt lon="5.893106" lat="51.04153"><ele>33</ele><time>2022-04-10T07:15:59.000Z</time></trkpt><trkpt lon="5.893223" lat="51.041526"><ele>33</ele><time>2022-04-10T07:16:00.000Z</time></trkpt><trkpt lon="5.893342" lat="51.041522"><ele>32.8</ele><time>2022-04-10T07:16:01.000Z</time></trkpt><trkpt lon="5.893459" lat="51.041518"><ele>32.8</ele><time>2022-04-10T07:16:02.000Z</time></trkpt><trkpt lon="5.893573" lat="51.041514"><ele>32.8</ele><time>2022-04-10T07:16:03.000Z</time></trkpt><trkpt lon="5.893689" lat="51.041511"><ele>32.8</ele><time>2022-04-10T07:16:04.000Z</time></trkpt><trkpt lon="5.893805" lat="51.041506"><ele>32.8</ele><time>2022-04-10T07:16:05.000Z</time></trkpt><trkpt lon="5.893926" lat="51.041499"><ele>32.8</ele><time>2022-04-10T07:16:06.000Z</time></trkpt><trkpt lon="5.894042" lat="51.041494"><ele>32.8</ele><time>2022-04-10T07:16:07.000Z</time></trkpt><trkpt lon="5.894159" lat="51.041487"><ele>32.6</ele><time>2022-04-10T07:16:08.000Z</time></trkpt><trkpt lon="5.894273" lat="51.041479"><ele>32.6</ele><time>2022-04-10T07:16:09.000Z</time></trkpt><trkpt lon="5.894387" lat="51.041472"><ele>32.8</ele><time>2022-04-10T07:16:10.000Z</time></trkpt><trkpt lon="5.894503" lat="51.041464"><ele>33</ele><time>2022-04-10T07:16:11.000Z</time></trkpt><trkpt lon="5.894617" lat="51.041457"><ele>33.2</ele><time>2022-04-10T07:16:12.000Z</time></trkpt><trkpt lon="5.89472" lat="51.041453"><ele>33.4</ele><time>2022-04-10T07:16:13.000Z</time></trkpt><trkpt lon="5.894802" lat="51.041448"><ele>33.4</ele><time>2022-04-10T07:16:14.000Z</time></trkpt><trkpt lon="5.894905" lat="51.041431"><ele>33.4</ele><time>2022-04-10T07:16:15.000Z</time></trkpt><trkpt lon="5.895013" lat="51.041412"><ele>33.2</ele><time>2022-04-10T07:16:16.000Z</time></trkpt><trkpt lon="5.895121" lat="51.041393"><ele>33.4</ele><time>2022-04-10T07:16:17.000Z</time></trkpt><trkpt lon="5.895247" lat="51.041385"><ele>33.6</ele><time>2022-04-10T07:16:18.000Z</time></trkpt><trkpt lon="5.895389" lat="51.041382"><ele>33.6</ele><time>2022-04-10T07:16:19.000Z</time></trkpt><trkpt lon="5.895515" lat="51.041366"><ele>33.6</ele><time>2022-04-10T07:16:20.000Z</time></trkpt><trkpt lon="5.896009" lat="51.041325"><ele>33.8</ele><time>2022-04-10T07:16:24.000Z</time></trkpt><trkpt lon="5.896119" lat="51.041313"><ele>33.6</ele><time>2022-04-10T07:16:25.000Z</time></trkpt><trkpt lon="5.896227" lat="51.041298"><ele>33.4</ele><time>2022-04-10T07:16:26.000Z</time></trkpt><trkpt lon="5.896335" lat="51.041286"><ele>33.2</ele><time>2022-04-10T07:16:27.000Z</time></trkpt><trkpt lon="5.896445" lat="51.041271"><ele>33.2</ele><time>2022-04-10T07:16:28.000Z</time></trkpt><trkpt lon="5.896553" lat="51.041256"><ele>33</ele><time>2022-04-10T07:16:29.000Z</time></trkpt><trkpt lon="5.89666" lat="51.041244"><ele>33.2</ele><time>2022-04-10T07:16:30.000Z</time></trkpt><trkpt lon="5.896769" lat="51.041229"><ele>33</ele><time>2022-04-10T07:16:31.000Z</time></trkpt><trkpt lon="5.896879" lat="51.041213"><ele>32.8</ele><time>2022-04-10T07:16:32.000Z</time></trkpt><trkpt lon="5.89699" lat="51.041198"><ele>33</ele><time>2022-04-10T07:16:33.000Z</time></trkpt><trkpt lon="5.897103" lat="51.041182"><ele>33</ele><time>2022-04-10T07:16:34.000Z</time></trkpt><trkpt lon="5.897213" lat="51.041164"><ele>33</ele><time>2022-04-10T07:16:35.000Z</time></trkpt><trkpt lon="5.897325" lat="51.041148"><ele>33</ele><time>2022-04-10T07:16:36.000Z</time></trkpt><trkpt lon="5.897443" lat="51.041128"><ele>32.8</ele><time>2022-04-10T07:16:37.000Z</time></trkpt><trkpt lon="5.897558" lat="51.04111"><ele>32.8</ele><time>2022-04-10T07:16:38.000Z</time></trkpt><trkpt lon="5.897671" lat="51.041093"><ele>32.8</ele><time>2022-04-10T07:16:39.000Z</time></trkpt><trkpt lon="5.897782" lat="51.041072"><ele>33</ele><time>2022-04-10T07:16:40.000Z</time></trkpt><trkpt lon="5.897891" lat="51.041056"><ele>33</ele><time>2022-04-10T07:16:41.000Z</time></trkpt><trkpt lon="5.898001" lat="51.041037"><ele>33</ele><time>2022-04-10T07:16:42.000Z</time></trkpt><trkpt lon="5.898109" lat="51.041019"><ele>32.8</ele><time>2022-04-10T07:16:43.000Z</time></trkpt><trkpt lon="5.898215" lat="51.041002"><ele>33.2</ele><time>2022-04-10T07:16:44.000Z</time></trkpt><trkpt lon="5.898321" lat="51.040983"><ele>33.2</ele><time>2022-04-10T07:16:45.000Z</time></trkpt><trkpt lon="5.898425" lat="51.040964"><ele>33.6</ele><time>2022-04-10T07:16:46.000Z</time></trkpt><trkpt lon="5.898521" lat="51.040942"><ele>34</ele><time>2022-04-10T07:16:47.000Z</time></trkpt><trkpt lon="5.898604" lat="51.040924"><ele>34.2</ele><time>2022-04-10T07:16:48.000Z</time></trkpt><trkpt lon="5.898737" lat="51.040896"><ele>34.2</ele><time>2022-04-10T07:16:49.000Z</time></trkpt><trkpt lon="5.898839" lat="51.040877"><ele>34.2</ele><time>2022-04-10T07:16:50.000Z</time></trkpt><trkpt lon="5.898941" lat="51.040856"><ele>34</ele><time>2022-04-10T07:16:51.000Z</time></trkpt><trkpt lon="5.899044" lat="51.040835"><ele>33.8</ele><time>2022-04-10T07:16:52.000Z</time></trkpt><trkpt lon="5.899146" lat="51.040814"><ele>33.6</ele><time>2022-04-10T07:16:53.000Z</time></trkpt><trkpt lon="5.899248" lat="51.040792"><ele>33.6</ele><time>2022-04-10T07:16:54.000Z</time></trkpt><trkpt lon="5.899349" lat="51.040769"><ele>33.4</ele><time>2022-04-10T07:16:55.000Z</time></trkpt><trkpt lon="5.899449" lat="51.040746"><ele>33.6</ele><time>2022-04-10T07:16:56.000Z</time></trkpt><trkpt lon="5.899551" lat="51.040723"><ele>33.6</ele><time>2022-04-10T07:16:57.000Z</time></trkpt><trkpt lon="5.899654" lat="51.0407"><ele>33.6</ele><time>2022-04-10T07:16:58.000Z</time></trkpt><trkpt lon="5.899755" lat="51.040676"><ele>33.6</ele><time>2022-04-10T07:16:59.000Z</time></trkpt><trkpt lon="5.899857" lat="51.040651"><ele>33.6</ele><time>2022-04-10T07:17:00.000Z</time></trkpt><trkpt lon="5.899956" lat="51.040628"><ele>33.6</ele><time>2022-04-10T07:17:01.000Z</time></trkpt><trkpt lon="5.90005" lat="51.040604"><ele>33.8</ele><time>2022-04-10T07:17:02.000Z</time></trkpt><trkpt lon="5.900139" lat="51.040577"><ele>34</ele><time>2022-04-10T07:17:03.000Z</time></trkpt><trkpt lon="5.900224" lat="51.04055"><ele>34.2</ele><time>2022-04-10T07:17:04.000Z</time></trkpt><trkpt lon="5.900307" lat="51.040525"><ele>34.4</ele><time>2022-04-10T07:17:05.000Z</time></trkpt><trkpt lon="5.900387" lat="51.040501"><ele>34.6</ele><time>2022-04-10T07:17:06.000Z</time></trkpt><trkpt lon="5.900466" lat="51.040476"><ele>34.8</ele><time>2022-04-10T07:17:07.000Z</time></trkpt><trkpt lon="5.900541" lat="51.040457"><ele>34.8</ele><time>2022-04-10T07:17:08.000Z</time></trkpt><trkpt lon="5.900612" lat="51.040438"><ele>35</ele><time>2022-04-10T07:17:09.000Z</time></trkpt><trkpt lon="5.900682" lat="51.040419"><ele>35</ele><time>2022-04-10T07:17:10.000Z</time></trkpt><trkpt lon="5.900751" lat="51.040401"><ele>35.2</ele><time>2022-04-10T07:17:11.000Z</time></trkpt><trkpt lon="5.900819" lat="51.040386"><ele>35.2</ele><time>2022-04-10T07:17:12.000Z</time></trkpt><trkpt lon="5.900882" lat="51.040371"><ele>35.4</ele><time>2022-04-10T07:17:13.000Z</time></trkpt><trkpt lon="5.900939" lat="51.040363"><ele>35.4</ele><time>2022-04-10T07:17:14.000Z</time></trkpt><trkpt lon="5.900993" lat="51.040364"><ele>35.4</ele><time>2022-04-10T07:17:15.000Z</time></trkpt><trkpt lon="5.901043" lat="51.04037"><ele>35.4</ele><time>2022-04-10T07:17:16.000Z</time></trkpt><trkpt lon="5.901086" lat="51.040382"><ele>35.4</ele><time>2022-04-10T07:17:17.000Z</time></trkpt><trkpt lon="5.901122" lat="51.040395"><ele>35.4</ele><time>2022-04-10T07:17:18.000Z</time></trkpt><trkpt lon="5.901147" lat="51.040414"><ele>35.4</ele><time>2022-04-10T07:17:19.000Z</time></trkpt><trkpt lon="5.901164" lat="51.040435"><ele>35.4</ele><time>2022-04-10T07:17:20.000Z</time></trkpt><trkpt lon="5.901183" lat="51.040455"><ele>35.4</ele><time>2022-04-10T07:17:21.000Z</time></trkpt><trkpt lon="5.901215" lat="51.040467"><ele>35.4</ele><time>2022-04-10T07:17:22.000Z</time></trkpt><trkpt lon="5.901258" lat="51.040467"><ele>35.4</ele><time>2022-04-10T07:17:23.000Z</time></trkpt><trkpt lon="5.9013" lat="51.040455"><ele>35.4</ele><time>2022-04-10T07:17:24.000Z</time></trkpt><trkpt lon="5.901332" lat="51.040435"><ele>35.2</ele><time>2022-04-10T07:17:25.000Z</time></trkpt><trkpt lon="5.901352" lat="51.0404"><ele>35.2</ele><time>2022-04-10T07:17:26.000Z</time></trkpt><trkpt lon="5.90137" lat="51.040354"><ele>35.2</ele><time>2022-04-10T07:17:27.000Z</time></trkpt><trkpt lon="5.9014" lat="51.040308"><ele>35.4</ele><time>2022-04-10T07:17:28.000Z</time></trkpt><trkpt lon="5.901447" lat="51.040263"><ele>35.2</ele><time>2022-04-10T07:17:29.000Z</time></trkpt><trkpt lon="5.901496" lat="51.040231"><ele>35.2</ele><time>2022-04-10T07:17:30.000Z</time></trkpt><trkpt lon="5.901601" lat="51.040181"><ele>35</ele><time>2022-04-10T07:17:31.000Z</time></trkpt><trkpt lon="5.901689" lat="51.040143"><ele>34.8</ele><time>2022-04-10T07:17:32.000Z</time></trkpt><trkpt lon="5.90178" lat="51.040106"><ele>34.6</ele><time>2022-04-10T07:17:33.000Z</time></trkpt><trkpt lon="5.901874" lat="51.040071"><ele>34.4</ele><time>2022-04-10T07:17:34.000Z</time></trkpt><trkpt lon="5.90197" lat="51.040037"><ele>34.2</ele><time>2022-04-10T07:17:35.000Z</time></trkpt><trkpt lon="5.902072" lat="51.040003"><ele>34</ele><time>2022-04-10T07:17:36.000Z</time></trkpt><trkpt lon="5.902173" lat="51.039969"><ele>34</ele><time>2022-04-10T07:17:37.000Z</time></trkpt><trkpt lon="5.902277" lat="51.039934"><ele>34</ele><time>2022-04-10T07:17:38.000Z</time></trkpt><trkpt lon="5.902382" lat="51.039899"><ele>34</ele><time>2022-04-10T07:17:39.000Z</time></trkpt><trkpt lon="5.902486" lat="51.039865"><ele>34</ele><time>2022-04-10T07:17:40.000Z</time></trkpt><trkpt lon="5.902587" lat="51.039832"><ele>33.8</ele><time>2022-04-10T07:17:41.000Z</time></trkpt><trkpt lon="5.902691" lat="51.039797"><ele>33.8</ele><time>2022-04-10T07:17:42.000Z</time></trkpt><trkpt lon="5.902789" lat="51.039762"><ele>33.8</ele><time>2022-04-10T07:17:43.000Z</time></trkpt><trkpt lon="5.902889" lat="51.039728"><ele>33.8</ele><time>2022-04-10T07:17:44.000Z</time></trkpt><trkpt lon="5.902985" lat="51.039694"><ele>33.6</ele><time>2022-04-10T07:17:45.000Z</time></trkpt><trkpt lon="5.903078" lat="51.03966"><ele>33.4</ele><time>2022-04-10T07:17:46.000Z</time></trkpt><trkpt lon="5.903171" lat="51.039625"><ele>33.4</ele><time>2022-04-10T07:17:47.000Z</time></trkpt><trkpt lon="5.903263" lat="51.03959"><ele>33.4</ele><time>2022-04-10T07:17:48.000Z</time></trkpt><trkpt lon="5.903352" lat="51.039556"><ele>33.4</ele><time>2022-04-10T07:17:49.000Z</time></trkpt><trkpt lon="5.903441" lat="51.039522"><ele>33.4</ele><time>2022-04-10T07:17:50.000Z</time></trkpt><trkpt lon="5.903532" lat="51.039488"><ele>33.4</ele><time>2022-04-10T07:17:51.000Z</time></trkpt><trkpt lon="5.903623" lat="51.039452"><ele>33.2</ele><time>2022-04-10T07:17:52.000Z</time></trkpt><trkpt lon="5.903713" lat="51.039414"><ele>33.4</ele><time>2022-04-10T07:17:53.000Z</time></trkpt><trkpt lon="5.903802" lat="51.039377"><ele>33.6</ele><time>2022-04-10T07:17:54.000Z</time></trkpt><trkpt lon="5.903891" lat="51.039343"><ele>33.8</ele><time>2022-04-10T07:17:55.000Z</time></trkpt><trkpt lon="5.903984" lat="51.039307"><ele>34</ele><time>2022-04-10T07:17:56.000Z</time></trkpt><trkpt lon="5.90407" lat="51.03927"><ele>34.2</ele><time>2022-04-10T07:17:57.000Z</time></trkpt><trkpt lon="5.904155" lat="51.039233"><ele>34.2</ele><time>2022-04-10T07:17:58.000Z</time></trkpt><trkpt lon="5.904243" lat="51.039198"><ele>34.4</ele><time>2022-04-10T07:17:59.000Z</time></trkpt><trkpt lon="5.904329" lat="51.039162"><ele>34.4</ele><time>2022-04-10T07:18:00.000Z</time></trkpt><trkpt lon="5.904416" lat="51.039124"><ele>34.6</ele><time>2022-04-10T07:18:01.000Z</time></trkpt><trkpt lon="5.904498" lat="51.039086"><ele>34.6</ele><time>2022-04-10T07:18:02.000Z</time></trkpt><trkpt lon="5.904581" lat="51.039048"><ele>34.4</ele><time>2022-04-10T07:18:03.000Z</time></trkpt><trkpt lon="5.904663" lat="51.039011"><ele>34.4</ele><time>2022-04-10T07:18:04.000Z</time></trkpt><trkpt lon="5.904743" lat="51.038976"><ele>34.4</ele><time>2022-04-10T07:18:05.000Z</time></trkpt><trkpt lon="5.904823" lat="51.038941"><ele>34.4</ele><time>2022-04-10T07:18:06.000Z</time></trkpt><trkpt lon="5.904902" lat="51.038905"><ele>34.4</ele><time>2022-04-10T07:18:07.000Z</time></trkpt><trkpt lon="5.90498" lat="51.038873"><ele>34.4</ele><time>2022-04-10T07:18:08.000Z</time></trkpt><trkpt lon="5.90506" lat="51.038836"><ele>34.4</ele><time>2022-04-10T07:18:09.000Z</time></trkpt><trkpt lon="5.905138" lat="51.038801"><ele>34.4</ele><time>2022-04-10T07:18:10.000Z</time></trkpt><trkpt lon="5.90522" lat="51.038766"><ele>34.4</ele><time>2022-04-10T07:18:11.000Z</time></trkpt><trkpt lon="5.905302" lat="51.038728"><ele>34.6</ele><time>2022-04-10T07:18:12.000Z</time></trkpt><trkpt lon="5.905385" lat="51.038691"><ele>34.4</ele><time>2022-04-10T07:18:13.000Z</time></trkpt><trkpt lon="5.905464" lat="51.038656"><ele>34.4</ele><time>2022-04-10T07:18:14.000Z</time></trkpt><trkpt lon="5.905545" lat="51.038617"><ele>34.2</ele><time>2022-04-10T07:18:15.000Z</time></trkpt><trkpt lon="5.905628" lat="51.03858"><ele>34.4</ele><time>2022-04-10T07:18:16.000Z</time></trkpt><trkpt lon="5.905711" lat="51.038543"><ele>34.4</ele><time>2022-04-10T07:18:17.000Z</time></trkpt><trkpt lon="5.905798" lat="51.038502"><ele>34.4</ele><time>2022-04-10T07:18:18.000Z</time></trkpt><trkpt lon="5.905886" lat="51.038464"><ele>34.4</ele><time>2022-04-10T07:18:19.000Z</time></trkpt><trkpt lon="5.905973" lat="51.038426"><ele>34.4</ele><time>2022-04-10T07:18:20.000Z</time></trkpt><trkpt lon="5.906059" lat="51.03839"><ele>34.4</ele><time>2022-04-10T07:18:21.000Z</time></trkpt><trkpt lon="5.906144" lat="51.038359"><ele>34.4</ele><time>2022-04-10T07:18:22.000Z</time></trkpt><trkpt lon="5.90623" lat="51.038326"><ele>34.6</ele><time>2022-04-10T07:18:23.000Z</time></trkpt><trkpt lon="5.906311" lat="51.0383"><ele>34.6</ele><time>2022-04-10T07:18:24.000Z</time></trkpt><trkpt lon="5.906393" lat="51.038273"><ele>34.8</ele><time>2022-04-10T07:18:25.000Z</time></trkpt><trkpt lon="5.906476" lat="51.038248"><ele>34.8</ele><time>2022-04-10T07:18:26.000Z</time></trkpt><trkpt lon="5.906556" lat="51.03823"><ele>35</ele><time>2022-04-10T07:18:27.000Z</time></trkpt><trkpt lon="5.90664" lat="51.038211"><ele>35</ele><time>2022-04-10T07:18:28.000Z</time></trkpt><trkpt lon="5.906724" lat="51.038197"><ele>35.2</ele><time>2022-04-10T07:18:29.000Z</time></trkpt><trkpt lon="5.906809" lat="51.038187"><ele>35.4</ele><time>2022-04-10T07:18:30.000Z</time></trkpt><trkpt lon="5.90691" lat="51.038175"><ele>35.6</ele><time>2022-04-10T07:18:31.000Z</time></trkpt><trkpt lon="5.907001" lat="51.038167"><ele>35.8</ele><time>2022-04-10T07:18:32.000Z</time></trkpt><trkpt lon="5.907094" lat="51.038155"><ele>36</ele><time>2022-04-10T07:18:33.000Z</time></trkpt><trkpt lon="5.907191" lat="51.038144"><ele>36</ele><time>2022-04-10T07:18:34.000Z</time></trkpt><trkpt lon="5.907292" lat="51.038132"><ele>36.2</ele><time>2022-04-10T07:18:35.000Z</time></trkpt><trkpt lon="5.907401" lat="51.038121"><ele>36.4</ele><time>2022-04-10T07:18:36.000Z</time></trkpt><trkpt lon="5.907515" lat="51.038109"><ele>36.4</ele><time>2022-04-10T07:18:37.000Z</time></trkpt><trkpt lon="5.907631" lat="51.038096"><ele>36.6</ele><time>2022-04-10T07:18:38.000Z</time></trkpt><trkpt lon="5.907748" lat="51.038078"><ele>36.4</ele><time>2022-04-10T07:18:39.000Z</time></trkpt><trkpt lon="5.907863" lat="51.038063"><ele>36.4</ele><time>2022-04-10T07:18:40.000Z</time></trkpt><trkpt lon="5.90798" lat="51.038048"><ele>36.6</ele><time>2022-04-10T07:18:41.000Z</time></trkpt><trkpt lon="5.908092" lat="51.038036"><ele>36.8</ele><time>2022-04-10T07:18:42.000Z</time></trkpt><trkpt lon="5.908203" lat="51.038022"><ele>36.8</ele><time>2022-04-10T07:18:43.000Z</time></trkpt><trkpt lon="5.908315" lat="51.03801"><ele>36.8</ele><time>2022-04-10T07:18:44.000Z</time></trkpt><trkpt lon="5.908429" lat="51.037999"><ele>36.8</ele><time>2022-04-10T07:18:45.000Z</time></trkpt><trkpt lon="5.908539" lat="51.037986"><ele>36.8</ele><time>2022-04-10T07:18:46.000Z</time></trkpt><trkpt lon="5.908649" lat="51.037971"><ele>36.8</ele><time>2022-04-10T07:18:47.000Z</time></trkpt><trkpt lon="5.908754" lat="51.037955"><ele>36.8</ele><time>2022-04-10T07:18:48.000Z</time></trkpt><trkpt lon="5.908864" lat="51.037934"><ele>36.8</ele><time>2022-04-10T07:18:49.000Z</time></trkpt><trkpt lon="5.908968" lat="51.037912"><ele>36.6</ele><time>2022-04-10T07:18:50.000Z</time></trkpt><trkpt lon="5.90907" lat="51.037888"><ele>36.6</ele><time>2022-04-10T07:18:51.000Z</time></trkpt><trkpt lon="5.909173" lat="51.037862"><ele>36.6</ele><time>2022-04-10T07:18:52.000Z</time></trkpt><trkpt lon="5.909278" lat="51.037837"><ele>36.6</ele><time>2022-04-10T07:18:53.000Z</time></trkpt><trkpt lon="5.909379" lat="51.037807"><ele>36.4</ele><time>2022-04-10T07:18:54.000Z</time></trkpt><trkpt lon="5.909478" lat="51.037779"><ele>36.4</ele><time>2022-04-10T07:18:55.000Z</time></trkpt><trkpt lon="5.909576" lat="51.037747"><ele>36.4</ele><time>2022-04-10T07:18:56.000Z</time></trkpt><trkpt lon="5.909673" lat="51.03772"><ele>36.6</ele><time>2022-04-10T07:18:57.000Z</time></trkpt><trkpt lon="5.90977" lat="51.037693"><ele>37</ele><time>2022-04-10T07:18:58.000Z</time></trkpt><trkpt lon="5.90987" lat="51.037667"><ele>37.2</ele><time>2022-04-10T07:18:59.000Z</time></trkpt><trkpt lon="5.909972" lat="51.03764"><ele>37.4</ele><time>2022-04-10T07:19:00.000Z</time></trkpt><trkpt lon="5.910075" lat="51.037614"><ele>37.6</ele><time>2022-04-10T07:19:01.000Z</time></trkpt><trkpt lon="5.910176" lat="51.037592"><ele>37.8</ele><time>2022-04-10T07:19:02.000Z</time></trkpt><trkpt lon="5.910277" lat="51.037573"><ele>38.2</ele><time>2022-04-10T07:19:03.000Z</time></trkpt><trkpt lon="5.91038" lat="51.037553"><ele>38.4</ele><time>2022-04-10T07:19:04.000Z</time></trkpt><trkpt lon="5.910477" lat="51.03753"><ele>38.6</ele><time>2022-04-10T07:19:05.000Z</time></trkpt><trkpt lon="5.910574" lat="51.037508"><ele>38.6</ele><time>2022-04-10T07:19:06.000Z</time></trkpt><trkpt lon="5.910675" lat="51.037488"><ele>38.8</ele><time>2022-04-10T07:19:07.000Z</time></trkpt><trkpt lon="5.910775" lat="51.037465"><ele>38.8</ele><time>2022-04-10T07:19:08.000Z</time></trkpt><trkpt lon="5.910872" lat="51.037442"><ele>38.8</ele><time>2022-04-10T07:19:09.000Z</time></trkpt><trkpt lon="5.910968" lat="51.037419"><ele>39</ele><time>2022-04-10T07:19:10.000Z</time></trkpt><trkpt lon="5.911065" lat="51.037398"><ele>39</ele><time>2022-04-10T07:19:11.000Z</time></trkpt><trkpt lon="5.911166" lat="51.037378"><ele>39</ele><time>2022-04-10T07:19:12.000Z</time></trkpt><trkpt lon="5.911267" lat="51.037355"><ele>39</ele><time>2022-04-10T07:19:13.000Z</time></trkpt><trkpt lon="5.911367" lat="51.037334"><ele>39</ele><time>2022-04-10T07:19:14.000Z</time></trkpt><trkpt lon="5.911471" lat="51.037314"><ele>39</ele><time>2022-04-10T07:19:15.000Z</time></trkpt><trkpt lon="5.911573" lat="51.037292"><ele>38.8</ele><time>2022-04-10T07:19:16.000Z</time></trkpt><trkpt lon="5.911672" lat="51.037265"><ele>38.8</ele><time>2022-04-10T07:19:17.000Z</time></trkpt><trkpt lon="5.911773" lat="51.037234"><ele>38.6</ele><time>2022-04-10T07:19:18.000Z</time></trkpt><trkpt lon="5.911878" lat="51.037203"><ele>38.6</ele><time>2022-04-10T07:19:19.000Z</time></trkpt><trkpt lon="5.911978" lat="51.037169"><ele>38.4</ele><time>2022-04-10T07:19:20.000Z</time></trkpt><trkpt lon="5.912076" lat="51.037138"><ele>38.2</ele><time>2022-04-10T07:19:21.000Z</time></trkpt><trkpt lon="5.912173" lat="51.037102"><ele>38.2</ele><time>2022-04-10T07:19:22.000Z</time></trkpt><trkpt lon="5.912272" lat="51.037064"><ele>38</ele><time>2022-04-10T07:19:23.000Z</time></trkpt><trkpt lon="5.912371" lat="51.037025"><ele>38</ele><time>2022-04-10T07:19:24.000Z</time></trkpt><trkpt lon="5.912466" lat="51.036985"><ele>38</ele><time>2022-04-10T07:19:25.000Z</time></trkpt><trkpt lon="5.91256" lat="51.036944"><ele>37.8</ele><time>2022-04-10T07:19:26.000Z</time></trkpt><trkpt lon="5.912652" lat="51.036898"><ele>37.6</ele><time>2022-04-10T07:19:27.000Z</time></trkpt><trkpt lon="5.912745" lat="51.036852"><ele>37.4</ele><time>2022-04-10T07:19:28.000Z</time></trkpt><trkpt lon="5.912837" lat="51.036808"><ele>37.4</ele><time>2022-04-10T07:19:29.000Z</time></trkpt><trkpt lon="5.912928" lat="51.036763"><ele>37.2</ele><time>2022-04-10T07:19:30.000Z</time></trkpt><trkpt lon="5.913026" lat="51.036715"><ele>37</ele><time>2022-04-10T07:19:31.000Z</time></trkpt><trkpt lon="5.913121" lat="51.036669"><ele>36.8</ele><time>2022-04-10T07:19:32.000Z</time></trkpt><trkpt lon="5.913213" lat="51.036623"><ele>36.6</ele><time>2022-04-10T07:19:33.000Z</time></trkpt><trkpt lon="5.913305" lat="51.036576"><ele>36.4</ele><time>2022-04-10T07:19:34.000Z</time></trkpt><trkpt lon="5.913398" lat="51.036527"><ele>36.4</ele><time>2022-04-10T07:19:35.000Z</time></trkpt><trkpt lon="5.91349" lat="51.036477"><ele>36.4</ele><time>2022-04-10T07:19:36.000Z</time></trkpt><trkpt lon="5.913585" lat="51.036424"><ele>36.2</ele><time>2022-04-10T07:19:37.000Z</time></trkpt><trkpt lon="5.913686" lat="51.036373"><ele>36.2</ele><time>2022-04-10T07:19:38.000Z</time></trkpt><trkpt lon="5.913788" lat="51.036322"><ele>36.2</ele><time>2022-04-10T07:19:39.000Z</time></trkpt><trkpt lon="5.91389" lat="51.036275"><ele>36.2</ele><time>2022-04-10T07:19:40.000Z</time></trkpt><trkpt lon="5.913988" lat="51.036228"><ele>36.2</ele><time>2022-04-10T07:19:41.000Z</time></trkpt><trkpt lon="5.914084" lat="51.036182"><ele>36.2</ele><time>2022-04-10T07:19:42.000Z</time></trkpt><trkpt lon="5.914172" lat="51.036141"><ele>36.4</ele><time>2022-04-10T07:19:43.000Z</time></trkpt><trkpt lon="5.914261" lat="51.036102"><ele>36.2</ele><time>2022-04-10T07:19:44.000Z</time></trkpt><trkpt lon="5.914353" lat="51.03606"><ele>36.2</ele><time>2022-04-10T07:19:45.000Z</time></trkpt><trkpt lon="5.914444" lat="51.036019"><ele>36.2</ele><time>2022-04-10T07:19:46.000Z</time></trkpt><trkpt lon="5.914536" lat="51.035979"><ele>36.2</ele><time>2022-04-10T07:19:47.000Z</time></trkpt><trkpt lon="5.914632" lat="51.035934"><ele>36.4</ele><time>2022-04-10T07:19:48.000Z</time></trkpt><trkpt lon="5.914728" lat="51.035892"><ele>36.4</ele><time>2022-04-10T07:19:49.000Z</time></trkpt><trkpt lon="5.914826" lat="51.035851"><ele>36.6</ele><time>2022-04-10T07:19:50.000Z</time></trkpt><trkpt lon="5.914924" lat="51.035812"><ele>36.6</ele><time>2022-04-10T07:19:51.000Z</time></trkpt><trkpt lon="5.915023" lat="51.035771"><ele>36.8</ele><time>2022-04-10T07:19:52.000Z</time></trkpt><trkpt lon="5.915121" lat="51.035735"><ele>37</ele><time>2022-04-10T07:19:53.000Z</time></trkpt><trkpt lon="5.91522" lat="51.035706"><ele>37.2</ele><time>2022-04-10T07:19:54.000Z</time></trkpt><trkpt lon="5.915315" lat="51.03568"><ele>37.6</ele><time>2022-04-10T07:19:55.000Z</time></trkpt><trkpt lon="5.915402" lat="51.03566"><ele>37.8</ele><time>2022-04-10T07:19:56.000Z</time></trkpt><trkpt lon="5.915476" lat="51.035649"><ele>38</ele><time>2022-04-10T07:19:57.000Z</time></trkpt><trkpt lon="5.915545" lat="51.035636"><ele>38.2</ele><time>2022-04-10T07:19:58.000Z</time></trkpt><trkpt lon="5.915618" lat="51.035619"><ele>38.4</ele><time>2022-04-10T07:19:59.000Z</time></trkpt><trkpt lon="5.9157" lat="51.035594"><ele>38.4</ele><time>2022-04-10T07:20:00.000Z</time></trkpt><trkpt lon="5.915792" lat="51.035563"><ele>38.4</ele><time>2022-04-10T07:20:01.000Z</time></trkpt><trkpt lon="5.91589" lat="51.035534"><ele>38.4</ele><time>2022-04-10T07:20:02.000Z</time></trkpt><trkpt lon="5.915993" lat="51.035507"><ele>38.4</ele><time>2022-04-10T07:20:03.000Z</time></trkpt><trkpt lon="5.916099" lat="51.035479"><ele>38.6</ele><time>2022-04-10T07:20:04.000Z</time></trkpt><trkpt lon="5.916205" lat="51.03545"><ele>38.6</ele><time>2022-04-10T07:20:05.000Z</time></trkpt><trkpt lon="5.916309" lat="51.035423"><ele>38.8</ele><time>2022-04-10T07:20:06.000Z</time></trkpt><trkpt lon="5.916414" lat="51.035393"><ele>38.6</ele><time>2022-04-10T07:20:07.000Z</time></trkpt><trkpt lon="5.91652" lat="51.035366"><ele>38.8</ele><time>2022-04-10T07:20:08.000Z</time></trkpt><trkpt lon="5.916625" lat="51.03534"><ele>38.8</ele><time>2022-04-10T07:20:09.000Z</time></trkpt><trkpt lon="5.916734" lat="51.035313"><ele>38.6</ele><time>2022-04-10T07:20:10.000Z</time></trkpt><trkpt lon="5.916848" lat="51.035286"><ele>38.6</ele><time>2022-04-10T07:20:11.000Z</time></trkpt><trkpt lon="5.916958" lat="51.035258"><ele>38.4</ele><time>2022-04-10T07:20:12.000Z</time></trkpt><trkpt lon="5.917069" lat="51.035229"><ele>38.4</ele><time>2022-04-10T07:20:13.000Z</time></trkpt><trkpt lon="5.917178" lat="51.035201"><ele>38.4</ele><time>2022-04-10T07:20:14.000Z</time></trkpt><trkpt lon="5.917286" lat="51.03517"><ele>38.4</ele><time>2022-04-10T07:20:15.000Z</time></trkpt><trkpt lon="5.917393" lat="51.035141"><ele>38.4</ele><time>2022-04-10T07:20:16.000Z</time></trkpt><trkpt lon="5.917498" lat="51.035115"><ele>38.4</ele><time>2022-04-10T07:20:17.000Z</time></trkpt><trkpt lon="5.917604" lat="51.035088"><ele>38.4</ele><time>2022-04-10T07:20:18.000Z</time></trkpt><trkpt lon="5.917706" lat="51.03506"><ele>38.2</ele><time>2022-04-10T07:20:19.000Z</time></trkpt><trkpt lon="5.917808" lat="51.03503"><ele>38.2</ele><time>2022-04-10T07:20:20.000Z</time></trkpt><trkpt lon="5.917908" lat="51.035003"><ele>38.2</ele><time>2022-04-10T07:20:21.000Z</time></trkpt><trkpt lon="5.918007" lat="51.034972"><ele>38.2</ele><time>2022-04-10T07:20:22.000Z</time></trkpt><trkpt lon="5.918103" lat="51.034943"><ele>38</ele><time>2022-04-10T07:20:23.000Z</time></trkpt><trkpt lon="5.918198" lat="51.034915"><ele>38</ele><time>2022-04-10T07:20:24.000Z</time></trkpt><trkpt lon="5.918289" lat="51.034884"><ele>37.8</ele><time>2022-04-10T07:20:25.000Z</time></trkpt><trkpt lon="5.918384" lat="51.034849"><ele>37.8</ele><time>2022-04-10T07:20:26.000Z</time></trkpt><trkpt lon="5.918474" lat="51.034815"><ele>37.8</ele><time>2022-04-10T07:20:27.000Z</time></trkpt><trkpt lon="5.918567" lat="51.034779"><ele>37.8</ele><time>2022-04-10T07:20:28.000Z</time></trkpt><trkpt lon="5.918659" lat="51.034742"><ele>37.8</ele><time>2022-04-10T07:20:29.000Z</time></trkpt><trkpt lon="5.918747" lat="51.034707"><ele>37.8</ele><time>2022-04-10T07:20:30.000Z</time></trkpt><trkpt lon="5.918831" lat="51.034669"><ele>38</ele><time>2022-04-10T07:20:31.000Z</time></trkpt><trkpt lon="5.918912" lat="51.034631"><ele>38.2</ele><time>2022-04-10T07:20:32.000Z</time></trkpt><trkpt lon="5.91899" lat="51.034592"><ele>38.2</ele><time>2022-04-10T07:20:33.000Z</time></trkpt><trkpt lon="5.919069" lat="51.034549"><ele>38.2</ele><time>2022-04-10T07:20:34.000Z</time></trkpt><trkpt lon="5.919147" lat="51.034508"><ele>38.4</ele><time>2022-04-10T07:20:35.000Z</time></trkpt><trkpt lon="5.919227" lat="51.034466"><ele>38.6</ele><time>2022-04-10T07:20:36.000Z</time></trkpt><trkpt lon="5.919307" lat="51.03442"><ele>38.6</ele><time>2022-04-10T07:20:37.000Z</time></trkpt><trkpt lon="5.919385" lat="51.034377"><ele>38.8</ele><time>2022-04-10T07:20:38.000Z</time></trkpt><trkpt lon="5.919464" lat="51.034331"><ele>38.8</ele><time>2022-04-10T07:20:39.000Z</time></trkpt><trkpt lon="5.91954" lat="51.034286"><ele>38.8</ele><time>2022-04-10T07:20:40.000Z</time></trkpt><trkpt lon="5.919616" lat="51.034244"><ele>39</ele><time>2022-04-10T07:20:41.000Z</time></trkpt><trkpt lon="5.919692" lat="51.034202"><ele>39</ele><time>2022-04-10T07:20:42.000Z</time></trkpt><trkpt lon="5.919769" lat="51.034161"><ele>39.2</ele><time>2022-04-10T07:20:43.000Z</time></trkpt><trkpt lon="5.919846" lat="51.03412"><ele>39.2</ele><time>2022-04-10T07:20:44.000Z</time></trkpt><trkpt lon="5.919924" lat="51.034082"><ele>39.4</ele><time>2022-04-10T07:20:45.000Z</time></trkpt><trkpt lon="5.920006" lat="51.034044"><ele>39.4</ele><time>2022-04-10T07:20:46.000Z</time></trkpt><trkpt lon="5.920087" lat="51.034009"><ele>39.6</ele><time>2022-04-10T07:20:47.000Z</time></trkpt><trkpt lon="5.920168" lat="51.03397"><ele>39.8</ele><time>2022-04-10T07:20:48.000Z</time></trkpt><trkpt lon="5.920247" lat="51.033932"><ele>40</ele><time>2022-04-10T07:20:49.000Z</time></trkpt><trkpt lon="5.920323" lat="51.033897"><ele>40</ele><time>2022-04-10T07:20:50.000Z</time></trkpt><trkpt lon="5.920391" lat="51.033865"><ele>40.2</ele><time>2022-04-10T07:20:51.000Z</time></trkpt><trkpt lon="5.920452" lat="51.033832"><ele>40.2</ele><time>2022-04-10T07:20:52.000Z</time></trkpt><trkpt lon="5.920512" lat="51.033801"><ele>40.4</ele><time>2022-04-10T07:20:53.000Z</time></trkpt><trkpt lon="5.920574" lat="51.03377"><ele>40.4</ele><time>2022-04-10T07:20:54.000Z</time></trkpt><trkpt lon="5.920642" lat="51.033735"><ele>40.4</ele><time>2022-04-10T07:20:55.000Z</time></trkpt><trkpt lon="5.920713" lat="51.0337"><ele>40.4</ele><time>2022-04-10T07:20:56.000Z</time></trkpt><trkpt lon="5.920784" lat="51.033662"><ele>40.4</ele><time>2022-04-10T07:20:57.000Z</time></trkpt><trkpt lon="5.920856" lat="51.033623"><ele>40.6</ele><time>2022-04-10T07:20:58.000Z</time></trkpt><trkpt lon="5.92093" lat="51.03358"><ele>40.6</ele><time>2022-04-10T07:20:59.000Z</time></trkpt><trkpt lon="5.921005" lat="51.033538"><ele>40.6</ele><time>2022-04-10T07:21:00.000Z</time></trkpt><trkpt lon="5.921081" lat="51.033497"><ele>40.6</ele><time>2022-04-10T07:21:01.000Z</time></trkpt><trkpt lon="5.921158" lat="51.033454"><ele>40.6</ele><time>2022-04-10T07:21:02.000Z</time></trkpt><trkpt lon="5.921234" lat="51.033409"><ele>40.8</ele><time>2022-04-10T07:21:03.000Z</time></trkpt><trkpt lon="5.92131" lat="51.033366"><ele>40.8</ele><time>2022-04-10T07:21:04.000Z</time></trkpt><trkpt lon="5.921381" lat="51.033325"><ele>40.8</ele><time>2022-04-10T07:21:05.000Z</time></trkpt><trkpt lon="5.921453" lat="51.033283"><ele>40.8</ele><time>2022-04-10T07:21:06.000Z</time></trkpt><trkpt lon="5.921531" lat="51.033236"><ele>40.8</ele><time>2022-04-10T07:21:07.000Z</time></trkpt><trkpt lon="5.921605" lat="51.033192"><ele>40.8</ele><time>2022-04-10T07:21:08.000Z</time></trkpt><trkpt lon="5.921679" lat="51.033148"><ele>41</ele><time>2022-04-10T07:21:09.000Z</time></trkpt><trkpt lon="5.921754" lat="51.033102"><ele>41</ele><time>2022-04-10T07:21:10.000Z</time></trkpt><trkpt lon="5.921827" lat="51.033056"><ele>41</ele><time>2022-04-10T07:21:11.000Z</time></trkpt><trkpt lon="5.921903" lat="51.033008"><ele>41.2</ele><time>2022-04-10T07:21:12.000Z</time></trkpt><trkpt lon="5.921976" lat="51.032965"><ele>41</ele><time>2022-04-10T07:21:13.000Z</time></trkpt><trkpt lon="5.92205" lat="51.032919"><ele>41</ele><time>2022-04-10T07:21:14.000Z</time></trkpt><trkpt lon="5.92212" lat="51.032874"><ele>41</ele><time>2022-04-10T07:21:15.000Z</time></trkpt><trkpt lon="5.922189" lat="51.032828"><ele>41</ele><time>2022-04-10T07:21:16.000Z</time></trkpt><trkpt lon="5.922259" lat="51.032782"><ele>41.2</ele><time>2022-04-10T07:21:17.000Z</time></trkpt><trkpt lon="5.92233" lat="51.032737"><ele>41.2</ele><time>2022-04-10T07:21:18.000Z</time></trkpt><trkpt lon="5.922402" lat="51.03269"><ele>41.2</ele><time>2022-04-10T07:21:19.000Z</time></trkpt><trkpt lon="5.922477" lat="51.03264"><ele>41.2</ele><time>2022-04-10T07:21:20.000Z</time></trkpt><trkpt lon="5.92255" lat="51.032591"><ele>41.2</ele><time>2022-04-10T07:21:21.000Z</time></trkpt><trkpt lon="5.922621" lat="51.032545"><ele>41.2</ele><time>2022-04-10T07:21:22.000Z</time></trkpt><trkpt lon="5.922694" lat="51.032495"><ele>41.2</ele><time>2022-04-10T07:21:23.000Z</time></trkpt><trkpt lon="5.922767" lat="51.032446"><ele>41.2</ele><time>2022-04-10T07:21:24.000Z</time></trkpt><trkpt lon="5.922842" lat="51.032395"><ele>41.2</ele><time>2022-04-10T07:21:25.000Z</time></trkpt><trkpt lon="5.922912" lat="51.032348"><ele>41.2</ele><time>2022-04-10T07:21:26.000Z</time></trkpt><trkpt lon="5.922979" lat="51.032303"><ele>41.2</ele><time>2022-04-10T07:21:27.000Z</time></trkpt><trkpt lon="5.923049" lat="51.032257"><ele>41.4</ele><time>2022-04-10T07:21:28.000Z</time></trkpt><trkpt lon="5.923118" lat="51.032214"><ele>41.4</ele><time>2022-04-10T07:21:29.000Z</time></trkpt><trkpt lon="5.923188" lat="51.032169"><ele>41.4</ele><time>2022-04-10T07:21:30.000Z</time></trkpt><trkpt lon="5.92326" lat="51.032128"><ele>41.6</ele><time>2022-04-10T07:21:31.000Z</time></trkpt><trkpt lon="5.923333" lat="51.032092"><ele>41.6</ele><time>2022-04-10T07:21:32.000Z</time></trkpt><trkpt lon="5.923413" lat="51.032058"><ele>41.8</ele><time>2022-04-10T07:21:33.000Z</time></trkpt><trkpt lon="5.923493" lat="51.032027"><ele>42</ele><time>2022-04-10T07:21:34.000Z</time></trkpt><trkpt lon="5.923576" lat="51.031998"><ele>42.2</ele><time>2022-04-10T07:21:35.000Z</time></trkpt><trkpt lon="5.92366" lat="51.031971"><ele>42.2</ele><time>2022-04-10T07:21:36.000Z</time></trkpt><trkpt lon="5.923746" lat="51.031944"><ele>42.4</ele><time>2022-04-10T07:21:37.000Z</time></trkpt><trkpt lon="5.923831" lat="51.031917"><ele>42.4</ele><time>2022-04-10T07:21:38.000Z</time></trkpt><trkpt lon="5.923918" lat="51.031887"><ele>42.6</ele><time>2022-04-10T07:21:39.000Z</time></trkpt><trkpt lon="5.924002" lat="51.03186"><ele>42.8</ele><time>2022-04-10T07:21:40.000Z</time></trkpt><trkpt lon="5.924084" lat="51.031834"><ele>42.8</ele><time>2022-04-10T07:21:41.000Z</time></trkpt><trkpt lon="5.924162" lat="51.031808"><ele>43</ele><time>2022-04-10T07:21:42.000Z</time></trkpt><trkpt lon="5.924237" lat="51.031785"><ele>43.2</ele><time>2022-04-10T07:21:43.000Z</time></trkpt><trkpt lon="5.924319" lat="51.031763"><ele>43.2</ele><time>2022-04-10T07:21:44.000Z</time></trkpt><trkpt lon="5.924407" lat="51.031743"><ele>43.4</ele><time>2022-04-10T07:21:45.000Z</time></trkpt><trkpt lon="5.924498" lat="51.031719"><ele>43.6</ele><time>2022-04-10T07:21:46.000Z</time></trkpt><trkpt lon="5.924589" lat="51.031693"><ele>43.6</ele><time>2022-04-10T07:21:47.000Z</time></trkpt><trkpt lon="5.924681" lat="51.031667"><ele>43.6</ele><time>2022-04-10T07:21:48.000Z</time></trkpt><trkpt lon="5.924773" lat="51.031643"><ele>43.6</ele><time>2022-04-10T07:21:49.000Z</time></trkpt><trkpt lon="5.924863" lat="51.031617"><ele>43.6</ele><time>2022-04-10T07:21:50.000Z</time></trkpt><trkpt lon="5.924953" lat="51.031589"><ele>43.8</ele><time>2022-04-10T07:21:51.000Z</time></trkpt><trkpt lon="5.925045" lat="51.031559"><ele>43.8</ele><time>2022-04-10T07:21:52.000Z</time></trkpt><trkpt lon="5.925135" lat="51.031532"><ele>43.8</ele><time>2022-04-10T07:21:53.000Z</time></trkpt><trkpt lon="5.925229" lat="51.031504"><ele>43.8</ele><time>2022-04-10T07:21:54.000Z</time></trkpt><trkpt lon="5.925327" lat="51.03147"><ele>43.8</ele><time>2022-04-10T07:21:55.000Z</time></trkpt><trkpt lon="5.925423" lat="51.031441"><ele>43.6</ele><time>2022-04-10T07:21:56.000Z</time></trkpt><trkpt lon="5.925519" lat="51.031413"><ele>43.6</ele><time>2022-04-10T07:21:57.000Z</time></trkpt><trkpt lon="5.925616" lat="51.031383"><ele>43.8</ele><time>2022-04-10T07:21:58.000Z</time></trkpt><trkpt lon="5.925713" lat="51.031352"><ele>43.8</ele><time>2022-04-10T07:21:59.000Z</time></trkpt><trkpt lon="5.925804" lat="51.031323"><ele>44</ele><time>2022-04-10T07:22:00.000Z</time></trkpt><trkpt lon="5.925897" lat="51.031295"><ele>44</ele><time>2022-04-10T07:22:01.000Z</time></trkpt><trkpt lon="5.92599" lat="51.031265"><ele>44</ele><time>2022-04-10T07:22:02.000Z</time></trkpt><trkpt lon="5.926082" lat="51.031235"><ele>44</ele><time>2022-04-10T07:22:03.000Z</time></trkpt><trkpt lon="5.926171" lat="51.031207"><ele>44.2</ele><time>2022-04-10T07:22:04.000Z</time></trkpt><trkpt lon="5.926262" lat="51.031177"><ele>44.2</ele><time>2022-04-10T07:22:05.000Z</time></trkpt><trkpt lon="5.926355" lat="51.03115"><ele>44</ele><time>2022-04-10T07:22:06.000Z</time></trkpt><trkpt lon="5.92645" lat="51.031119"><ele>44</ele><time>2022-04-10T07:22:07.000Z</time></trkpt><trkpt lon="5.926545" lat="51.031089"><ele>44.2</ele><time>2022-04-10T07:22:08.000Z</time></trkpt><trkpt lon="5.926638" lat="51.031059"><ele>44.2</ele><time>2022-04-10T07:22:09.000Z</time></trkpt><trkpt lon="5.926732" lat="51.031031"><ele>44.2</ele><time>2022-04-10T07:22:10.000Z</time></trkpt><trkpt lon="5.926825" lat="51.031001"><ele>44</ele><time>2022-04-10T07:22:11.000Z</time></trkpt><trkpt lon="5.926918" lat="51.030971"><ele>44.2</ele><time>2022-04-10T07:22:12.000Z</time></trkpt><trkpt lon="5.927013" lat="51.03094"><ele>44.2</ele><time>2022-04-10T07:22:13.000Z</time></trkpt><trkpt lon="5.927107" lat="51.030911"><ele>44.2</ele><time>2022-04-10T07:22:14.000Z</time></trkpt><trkpt lon="5.927199" lat="51.030884"><ele>44.2</ele><time>2022-04-10T07:22:15.000Z</time></trkpt><trkpt lon="5.927291" lat="51.030856"><ele>44.2</ele><time>2022-04-10T07:22:16.000Z</time></trkpt><trkpt lon="5.92738" lat="51.030827"><ele>44</ele><time>2022-04-10T07:22:17.000Z</time></trkpt><trkpt lon="5.927475" lat="51.0308"><ele>44</ele><time>2022-04-10T07:22:18.000Z</time></trkpt><trkpt lon="5.927568" lat="51.030773"><ele>44</ele><time>2022-04-10T07:22:19.000Z</time></trkpt><trkpt lon="5.927663" lat="51.030748"><ele>44</ele><time>2022-04-10T07:22:20.000Z</time></trkpt><trkpt lon="5.927758" lat="51.030724"><ele>44.2</ele><time>2022-04-10T07:22:21.000Z</time></trkpt><trkpt lon="5.927851" lat="51.030698"><ele>44.2</ele><time>2022-04-10T07:22:22.000Z</time></trkpt><trkpt lon="5.927944" lat="51.030676"><ele>44.2</ele><time>2022-04-10T07:22:23.000Z</time></trkpt><trkpt lon="5.928035" lat="51.030657"><ele>44.4</ele><time>2022-04-10T07:22:24.000Z</time></trkpt><trkpt lon="5.928125" lat="51.030639"><ele>44.4</ele><time>2022-04-10T07:22:25.000Z</time></trkpt><trkpt lon="5.928214" lat="51.030624"><ele>44.4</ele><time>2022-04-10T07:22:26.000Z</time></trkpt><trkpt lon="5.928309" lat="51.030609"><ele>44.4</ele><time>2022-04-10T07:22:27.000Z</time></trkpt><trkpt lon="5.928407" lat="51.030595"><ele>44.4</ele><time>2022-04-10T07:22:28.000Z</time></trkpt><trkpt lon="5.928507" lat="51.030583"><ele>44.4</ele><time>2022-04-10T07:22:29.000Z</time></trkpt><trkpt lon="5.928612" lat="51.030572"><ele>44.2</ele><time>2022-04-10T07:22:30.000Z</time></trkpt><trkpt lon="5.92872" lat="51.030559"><ele>44.2</ele><time>2022-04-10T07:22:31.000Z</time></trkpt><trkpt lon="5.928828" lat="51.030546"><ele>44.2</ele><time>2022-04-10T07:22:32.000Z</time></trkpt><trkpt lon="5.928936" lat="51.030537"><ele>44.2</ele><time>2022-04-10T07:22:33.000Z</time></trkpt><trkpt lon="5.929044" lat="51.030526"><ele>44.2</ele><time>2022-04-10T07:22:34.000Z</time></trkpt><trkpt lon="5.929153" lat="51.030515"><ele>44.2</ele><time>2022-04-10T07:22:35.000Z</time></trkpt><trkpt lon="5.929263" lat="51.030508"><ele>44.2</ele><time>2022-04-10T07:22:36.000Z</time></trkpt><trkpt lon="5.929374" lat="51.0305"><ele>44.2</ele><time>2022-04-10T07:22:37.000Z</time></trkpt><trkpt lon="5.929486" lat="51.030491"><ele>44.2</ele><time>2022-04-10T07:22:38.000Z</time></trkpt><trkpt lon="5.929596" lat="51.030481"><ele>44.2</ele><time>2022-04-10T07:22:39.000Z</time></trkpt><trkpt lon="5.929708" lat="51.030472"><ele>44.2</ele><time>2022-04-10T07:22:40.000Z</time></trkpt><trkpt lon="5.929816" lat="51.030461"><ele>44.2</ele><time>2022-04-10T07:22:41.000Z</time></trkpt><trkpt lon="5.929923" lat="51.03045"><ele>44.2</ele><time>2022-04-10T07:22:42.000Z</time></trkpt><trkpt lon="5.930034" lat="51.030437"><ele>44.2</ele><time>2022-04-10T07:22:43.000Z</time></trkpt><trkpt lon="5.93014" lat="51.030422"><ele>44.2</ele><time>2022-04-10T07:22:44.000Z</time></trkpt><trkpt lon="5.930248" lat="51.030405"><ele>44</ele><time>2022-04-10T07:22:45.000Z</time></trkpt><trkpt lon="5.930355" lat="51.030387"><ele>44</ele><time>2022-04-10T07:22:46.000Z</time></trkpt><trkpt lon="5.930458" lat="51.03037"><ele>44</ele><time>2022-04-10T07:22:47.000Z</time></trkpt><trkpt lon="5.930561" lat="51.030348"><ele>43.8</ele><time>2022-04-10T07:22:48.000Z</time></trkpt><trkpt lon="5.930663" lat="51.030328"><ele>43.8</ele><time>2022-04-10T07:22:49.000Z</time></trkpt><trkpt lon="5.930767" lat="51.030305"><ele>43.8</ele><time>2022-04-10T07:22:50.000Z</time></trkpt><trkpt lon="5.930874" lat="51.030281"><ele>43.6</ele><time>2022-04-10T07:22:51.000Z</time></trkpt><trkpt lon="5.930981" lat="51.030254"><ele>43.6</ele><time>2022-04-10T07:22:52.000Z</time></trkpt><trkpt lon="5.931087" lat="51.030228"><ele>43.6</ele><time>2022-04-10T07:22:53.000Z</time></trkpt><trkpt lon="5.931194" lat="51.030201"><ele>43.4</ele><time>2022-04-10T07:22:54.000Z</time></trkpt><trkpt lon="5.9313" lat="51.030174"><ele>43.4</ele><time>2022-04-10T07:22:55.000Z</time></trkpt><trkpt lon="5.931406" lat="51.030148"><ele>43.2</ele><time>2022-04-10T07:22:56.000Z</time></trkpt><trkpt lon="5.931512" lat="51.030121"><ele>43</ele><time>2022-04-10T07:22:57.000Z</time></trkpt><trkpt lon="5.931615" lat="51.030094"><ele>42.8</ele><time>2022-04-10T07:22:58.000Z</time></trkpt><trkpt lon="5.931716" lat="51.030068"><ele>42.8</ele><time>2022-04-10T07:22:59.000Z</time></trkpt><trkpt lon="5.931817" lat="51.030042"><ele>42.6</ele><time>2022-04-10T07:23:00.000Z</time></trkpt><trkpt lon="5.931921" lat="51.030015"><ele>42.6</ele><time>2022-04-10T07:23:01.000Z</time></trkpt><trkpt lon="5.932023" lat="51.029987"><ele>42.4</ele><time>2022-04-10T07:23:02.000Z</time></trkpt><trkpt lon="5.932123" lat="51.029961"><ele>42.2</ele><time>2022-04-10T07:23:03.000Z</time></trkpt><trkpt lon="5.932228" lat="51.029934"><ele>42.2</ele><time>2022-04-10T07:23:04.000Z</time></trkpt><trkpt lon="5.93233" lat="51.029908"><ele>42.2</ele><time>2022-04-10T07:23:05.000Z</time></trkpt><trkpt lon="5.932431" lat="51.029885"><ele>42</ele><time>2022-04-10T07:23:06.000Z</time></trkpt><trkpt lon="5.932531" lat="51.029858"><ele>42</ele><time>2022-04-10T07:23:07.000Z</time></trkpt><trkpt lon="5.932628" lat="51.029832"><ele>42.2</ele><time>2022-04-10T07:23:08.000Z</time></trkpt><trkpt lon="5.932726" lat="51.029809"><ele>42.2</ele><time>2022-04-10T07:23:09.000Z</time></trkpt><trkpt lon="5.932823" lat="51.029786"><ele>42.2</ele><time>2022-04-10T07:23:10.000Z</time></trkpt><trkpt lon="5.93292" lat="51.029762"><ele>42.4</ele><time>2022-04-10T07:23:11.000Z</time></trkpt><trkpt lon="5.933021" lat="51.029736"><ele>42.4</ele><time>2022-04-10T07:23:12.000Z</time></trkpt><trkpt lon="5.933125" lat="51.029709"><ele>42.6</ele><time>2022-04-10T07:23:13.000Z</time></trkpt><trkpt lon="5.933228" lat="51.029683"><ele>42.6</ele><time>2022-04-10T07:23:14.000Z</time></trkpt><trkpt lon="5.933329" lat="51.029657"><ele>42.8</ele><time>2022-04-10T07:23:15.000Z</time></trkpt><trkpt lon="5.933428" lat="51.029633"><ele>43</ele><time>2022-04-10T07:23:16.000Z</time></trkpt><trkpt lon="5.933527" lat="51.029606"><ele>43</ele><time>2022-04-10T07:23:17.000Z</time></trkpt><trkpt lon="5.933625" lat="51.02958"><ele>43.2</ele><time>2022-04-10T07:23:18.000Z</time></trkpt><trkpt lon="5.93372" lat="51.029556"><ele>43.4</ele><time>2022-04-10T07:23:19.000Z</time></trkpt><trkpt lon="5.933813" lat="51.029531"><ele>43.4</ele><time>2022-04-10T07:23:20.000Z</time></trkpt><trkpt lon="5.933901" lat="51.029507"><ele>43.6</ele><time>2022-04-10T07:23:21.000Z</time></trkpt><trkpt lon="5.93399" lat="51.029482"><ele>43.6</ele><time>2022-04-10T07:23:22.000Z</time></trkpt><trkpt lon="5.934087" lat="51.029458"><ele>43.8</ele><time>2022-04-10T07:23:23.000Z</time></trkpt><trkpt lon="5.934181" lat="51.029435"><ele>43.8</ele><time>2022-04-10T07:23:24.000Z</time></trkpt><trkpt lon="5.934272" lat="51.029407"><ele>44</ele><time>2022-04-10T07:23:25.000Z</time></trkpt><trkpt lon="5.934362" lat="51.029376"><ele>44</ele><time>2022-04-10T07:23:26.000Z</time></trkpt><trkpt lon="5.934455" lat="51.029347"><ele>44</ele><time>2022-04-10T07:23:27.000Z</time></trkpt><trkpt lon="5.934548" lat="51.029319"><ele>44</ele><time>2022-04-10T07:23:28.000Z</time></trkpt><trkpt lon="5.934645" lat="51.029287"><ele>43.8</ele><time>2022-04-10T07:23:29.000Z</time></trkpt><trkpt lon="5.93474" lat="51.029253"><ele>43.8</ele><time>2022-04-10T07:23:30.000Z</time></trkpt><trkpt lon="5.934834" lat="51.029219"><ele>43.8</ele><time>2022-04-10T07:23:31.000Z</time></trkpt><trkpt lon="5.934928" lat="51.029184"><ele>43.8</ele><time>2022-04-10T07:23:32.000Z</time></trkpt><trkpt lon="5.935021" lat="51.02915"><ele>43.8</ele><time>2022-04-10T07:23:33.000Z</time></trkpt><trkpt lon="5.935112" lat="51.029116"><ele>43.8</ele><time>2022-04-10T07:23:34.000Z</time></trkpt><trkpt lon="5.9352" lat="51.029081"><ele>43.8</ele><time>2022-04-10T07:23:35.000Z</time></trkpt><trkpt lon="5.935289" lat="51.029045"><ele>43.8</ele><time>2022-04-10T07:23:36.000Z</time></trkpt><trkpt lon="5.935379" lat="51.029007"><ele>43.6</ele><time>2022-04-10T07:23:37.000Z</time></trkpt><trkpt lon="5.935468" lat="51.028971"><ele>43.6</ele><time>2022-04-10T07:23:38.000Z</time></trkpt><trkpt lon="5.935558" lat="51.028936"><ele>43.6</ele><time>2022-04-10T07:23:39.000Z</time></trkpt><trkpt lon="5.935647" lat="51.028901"><ele>43.6</ele><time>2022-04-10T07:23:40.000Z</time></trkpt><trkpt lon="5.935733" lat="51.028864"><ele>43.6</ele><time>2022-04-10T07:23:41.000Z</time></trkpt><trkpt lon="5.935819" lat="51.028829"><ele>43.6</ele><time>2022-04-10T07:23:42.000Z</time></trkpt><trkpt lon="5.935903" lat="51.028796"><ele>43.4</ele><time>2022-04-10T07:23:43.000Z</time></trkpt><trkpt lon="5.935987" lat="51.028762"><ele>43.2</ele><time>2022-04-10T07:23:44.000Z</time></trkpt><trkpt lon="5.936066" lat="51.028731"><ele>43.2</ele><time>2022-04-10T07:23:45.000Z</time></trkpt><trkpt lon="5.93614" lat="51.028702"><ele>43</ele><time>2022-04-10T07:23:46.000Z</time></trkpt><trkpt lon="5.936206" lat="51.028675"><ele>43</ele><time>2022-04-10T07:23:47.000Z</time></trkpt><trkpt lon="5.936268" lat="51.02865"><ele>42.8</ele><time>2022-04-10T07:23:48.000Z</time></trkpt><trkpt lon="5.936328" lat="51.028628"><ele>42.6</ele><time>2022-04-10T07:23:49.000Z</time></trkpt><trkpt lon="5.936385" lat="51.028608"><ele>42.6</ele><time>2022-04-10T07:23:50.000Z</time></trkpt><trkpt lon="5.93644" lat="51.028585"><ele>42.4</ele><time>2022-04-10T07:23:51.000Z</time></trkpt><trkpt lon="5.936495" lat="51.028561"><ele>42.2</ele><time>2022-04-10T07:23:52.000Z</time></trkpt><trkpt lon="5.936548" lat="51.028534"><ele>42.2</ele><time>2022-04-10T07:23:53.000Z</time></trkpt><trkpt lon="5.936597" lat="51.028507"><ele>42</ele><time>2022-04-10T07:23:54.000Z</time></trkpt><trkpt lon="5.936645" lat="51.028479"><ele>41.6</ele><time>2022-04-10T07:23:55.000Z</time></trkpt><trkpt lon="5.936696" lat="51.028443"><ele>41.4</ele><time>2022-04-10T07:23:56.000Z</time></trkpt><trkpt lon="5.936752" lat="51.028406"><ele>41.2</ele><time>2022-04-10T07:23:57.000Z</time></trkpt><trkpt lon="5.936811" lat="51.028372"><ele>41</ele><time>2022-04-10T07:23:58.000Z</time></trkpt><trkpt lon="5.936875" lat="51.028338"><ele>40.8</ele><time>2022-04-10T07:23:59.000Z</time></trkpt><trkpt lon="5.936939" lat="51.028309"><ele>40.8</ele><time>2022-04-10T07:24:00.000Z</time></trkpt><trkpt lon="5.936998" lat="51.028283"><ele>40.6</ele><time>2022-04-10T07:24:01.000Z</time></trkpt><trkpt lon="5.937055" lat="51.028263"><ele>40.2</ele><time>2022-04-10T07:24:02.000Z</time></trkpt><trkpt lon="5.937114" lat="51.028249"><ele>40</ele><time>2022-04-10T07:24:03.000Z</time></trkpt><trkpt lon="5.937174" lat="51.028241"><ele>40</ele><time>2022-04-10T07:24:04.000Z</time></trkpt><trkpt lon="5.937228" lat="51.028251"><ele>39.8</ele><time>2022-04-10T07:24:05.000Z</time></trkpt><trkpt lon="5.937286" lat="51.028277"><ele>39.8</ele><time>2022-04-10T07:24:06.000Z</time></trkpt><trkpt lon="5.937337" lat="51.028318"><ele>39.6</ele><time>2022-04-10T07:24:07.000Z</time></trkpt><trkpt lon="5.93738" lat="51.028366"><ele>39.4</ele><time>2022-04-10T07:24:08.000Z</time></trkpt><trkpt lon="5.937421" lat="51.028422"><ele>39.2</ele><time>2022-04-10T07:24:09.000Z</time></trkpt><trkpt lon="5.937461" lat="51.028486"><ele>39.2</ele><time>2022-04-10T07:24:10.000Z</time></trkpt><trkpt lon="5.9375" lat="51.028549"><ele>39.2</ele><time>2022-04-10T07:24:11.000Z</time></trkpt><trkpt lon="5.937541" lat="51.028617"><ele>39.2</ele><time>2022-04-10T07:24:12.000Z</time></trkpt><trkpt lon="5.937583" lat="51.028682"><ele>39.2</ele><time>2022-04-10T07:24:13.000Z</time></trkpt><trkpt lon="5.937622" lat="51.028747"><ele>39.4</ele><time>2022-04-10T07:24:14.000Z</time></trkpt><trkpt lon="5.937656" lat="51.028811"><ele>39.6</ele><time>2022-04-10T07:24:15.000Z</time></trkpt><trkpt lon="5.937692" lat="51.028875"><ele>40</ele><time>2022-04-10T07:24:16.000Z</time></trkpt><trkpt lon="5.937731" lat="51.028935"><ele>40.2</ele><time>2022-04-10T07:24:17.000Z</time></trkpt><trkpt lon="5.93777" lat="51.028992"><ele>40.4</ele><time>2022-04-10T07:24:18.000Z</time></trkpt><trkpt lon="5.937812" lat="51.029049"><ele>40.8</ele><time>2022-04-10T07:24:19.000Z</time></trkpt><trkpt lon="5.937853" lat="51.0291"><ele>41</ele><time>2022-04-10T07:24:20.000Z</time></trkpt><trkpt lon="5.937895" lat="51.029151"><ele>41.2</ele><time>2022-04-10T07:24:21.000Z</time></trkpt><trkpt lon="5.937936" lat="51.029204"><ele>41.6</ele><time>2022-04-10T07:24:22.000Z</time></trkpt><trkpt lon="5.937981" lat="51.029256"><ele>41.8</ele><time>2022-04-10T07:24:23.000Z</time></trkpt><trkpt lon="5.938031" lat="51.029301"><ele>42</ele><time>2022-04-10T07:24:24.000Z</time></trkpt><trkpt lon="5.938089" lat="51.029348"><ele>42.4</ele><time>2022-04-10T07:24:25.000Z</time></trkpt><trkpt lon="5.938149" lat="51.029394"><ele>42.6</ele><time>2022-04-10T07:24:26.000Z</time></trkpt><trkpt lon="5.93821" lat="51.029438"><ele>43</ele><time>2022-04-10T07:24:27.000Z</time></trkpt><trkpt lon="5.938276" lat="51.029478"><ele>43.4</ele><time>2022-04-10T07:24:28.000Z</time></trkpt><trkpt lon="5.938345" lat="51.029512"><ele>43.6</ele><time>2022-04-10T07:24:29.000Z</time></trkpt><trkpt lon="5.938418" lat="51.029547"><ele>44</ele><time>2022-04-10T07:24:30.000Z</time></trkpt><trkpt lon="5.938496" lat="51.02958"><ele>44.2</ele><time>2022-04-10T07:24:31.000Z</time></trkpt><trkpt lon="5.938576" lat="51.029611"><ele>44.6</ele><time>2022-04-10T07:24:32.000Z</time></trkpt><trkpt lon="5.938659" lat="51.029639"><ele>44.8</ele><time>2022-04-10T07:24:33.000Z</time></trkpt><trkpt lon="5.938747" lat="51.029662"><ele>45</ele><time>2022-04-10T07:24:34.000Z</time></trkpt><trkpt lon="5.938835" lat="51.029685"><ele>45.2</ele><time>2022-04-10T07:24:35.000Z</time></trkpt><trkpt lon="5.938928" lat="51.029705"><ele>45.4</ele><time>2022-04-10T07:24:36.000Z</time></trkpt><trkpt lon="5.939021" lat="51.029721"><ele>45.6</ele><time>2022-04-10T07:24:37.000Z</time></trkpt><trkpt lon="5.939117" lat="51.029735"><ele>45.6</ele><time>2022-04-10T07:24:38.000Z</time></trkpt><trkpt lon="5.939214" lat="51.029744"><ele>45.8</ele><time>2022-04-10T07:24:39.000Z</time></trkpt><trkpt lon="5.939318" lat="51.029748"><ele>46</ele><time>2022-04-10T07:24:40.000Z</time></trkpt><trkpt lon="5.93942" lat="51.029752"><ele>46</ele><time>2022-04-10T07:24:41.000Z</time></trkpt><trkpt lon="5.939521" lat="51.029755"><ele>46</ele><time>2022-04-10T07:24:42.000Z</time></trkpt><trkpt lon="5.939624" lat="51.029754"><ele>46.2</ele><time>2022-04-10T07:24:43.000Z</time></trkpt><trkpt lon="5.939725" lat="51.029751"><ele>46.2</ele><time>2022-04-10T07:24:44.000Z</time></trkpt><trkpt lon="5.939829" lat="51.029751"><ele>46.4</ele><time>2022-04-10T07:24:45.000Z</time></trkpt><trkpt lon="5.939937" lat="51.029751"><ele>46.4</ele><time>2022-04-10T07:24:46.000Z</time></trkpt><trkpt lon="5.940047" lat="51.029751"><ele>46.4</ele><time>2022-04-10T07:24:47.000Z</time></trkpt><trkpt lon="5.940159" lat="51.02975"><ele>46.4</ele><time>2022-04-10T07:24:48.000Z</time></trkpt><trkpt lon="5.94027" lat="51.029746"><ele>46.4</ele><time>2022-04-10T07:24:49.000Z</time></trkpt><trkpt lon="5.94038" lat="51.029742"><ele>46.4</ele><time>2022-04-10T07:24:50.000Z</time></trkpt><trkpt lon="5.940492" lat="51.029738"><ele>46.4</ele><time>2022-04-10T07:24:51.000Z</time></trkpt><trkpt lon="5.940603" lat="51.029735"><ele>46.4</ele><time>2022-04-10T07:24:52.000Z</time></trkpt><trkpt lon="5.940715" lat="51.029732"><ele>46.6</ele><time>2022-04-10T07:24:53.000Z</time></trkpt><trkpt lon="5.940827" lat="51.029732"><ele>46.6</ele><time>2022-04-10T07:24:54.000Z</time></trkpt><trkpt lon="5.940937" lat="51.029732"><ele>46.6</ele><time>2022-04-10T07:24:55.000Z</time></trkpt><trkpt lon="5.941044" lat="51.029734"><ele>46.8</ele><time>2022-04-10T07:24:56.000Z</time></trkpt><trkpt lon="5.941149" lat="51.029741"><ele>46.8</ele><time>2022-04-10T07:24:57.000Z</time></trkpt><trkpt lon="5.941255" lat="51.02975"><ele>46.8</ele><time>2022-04-10T07:24:58.000Z</time></trkpt><trkpt lon="5.94136" lat="51.029762"><ele>47</ele><time>2022-04-10T07:24:59.000Z</time></trkpt><trkpt lon="5.941464" lat="51.029774"><ele>47</ele><time>2022-04-10T07:25:00.000Z</time></trkpt><trkpt lon="5.941567" lat="51.029788"><ele>47</ele><time>2022-04-10T07:25:01.000Z</time></trkpt><trkpt lon="5.941669" lat="51.029802"><ele>47</ele><time>2022-04-10T07:25:02.000Z</time></trkpt><trkpt lon="5.941773" lat="51.029821"><ele>47</ele><time>2022-04-10T07:25:03.000Z</time></trkpt><trkpt lon="5.941875" lat="51.02984"><ele>47</ele><time>2022-04-10T07:25:04.000Z</time></trkpt><trkpt lon="5.941976" lat="51.02986"><ele>47</ele><time>2022-04-10T07:25:05.000Z</time></trkpt><trkpt lon="5.942082" lat="51.029882"><ele>47</ele><time>2022-04-10T07:25:06.000Z</time></trkpt><trkpt lon="5.942186" lat="51.029901"><ele>47</ele><time>2022-04-10T07:25:07.000Z</time></trkpt><trkpt lon="5.942289" lat="51.02992"><ele>47</ele><time>2022-04-10T07:25:08.000Z</time></trkpt><trkpt lon="5.942394" lat="51.029938"><ele>46.8</ele><time>2022-04-10T07:25:09.000Z</time></trkpt><trkpt lon="5.942498" lat="51.029955"><ele>46.8</ele><time>2022-04-10T07:25:10.000Z</time></trkpt><trkpt lon="5.9426" lat="51.029972"><ele>46.8</ele><time>2022-04-10T07:25:11.000Z</time></trkpt><trkpt lon="5.942706" lat="51.029988"><ele>46.6</ele><time>2022-04-10T07:25:12.000Z</time></trkpt><trkpt lon="5.942809" lat="51.030002"><ele>46.6</ele><time>2022-04-10T07:25:13.000Z</time></trkpt><trkpt lon="5.942914" lat="51.030013"><ele>46.4</ele><time>2022-04-10T07:25:14.000Z</time></trkpt><trkpt lon="5.943016" lat="51.030025"><ele>46.4</ele><time>2022-04-10T07:25:15.000Z</time></trkpt><trkpt lon="5.943117" lat="51.030037"><ele>46.2</ele><time>2022-04-10T07:25:16.000Z</time></trkpt><trkpt lon="5.943215" lat="51.030051"><ele>46</ele><time>2022-04-10T07:25:17.000Z</time></trkpt><trkpt lon="5.943307" lat="51.030058"><ele>46</ele><time>2022-04-10T07:25:18.000Z</time></trkpt><trkpt lon="5.94339" lat="51.030065"><ele>45.8</ele><time>2022-04-10T07:25:19.000Z</time></trkpt><trkpt lon="5.943458" lat="51.030067"><ele>45.8</ele><time>2022-04-10T07:25:20.000Z</time></trkpt><trkpt lon="5.943516" lat="51.030066"><ele>45.8</ele><time>2022-04-10T07:25:21.000Z</time></trkpt><trkpt lon="5.943564" lat="51.030063"><ele>45.6</ele><time>2022-04-10T07:25:22.000Z</time></trkpt><trkpt lon="5.943603" lat="51.03006"><ele>45.6</ele><time>2022-04-10T07:25:23.000Z</time></trkpt><trkpt lon="5.943632" lat="51.030058"><ele>45.6</ele><time>2022-04-10T07:25:24.000Z</time></trkpt><trkpt lon="5.943661" lat="51.030048"><ele>45.4</ele><time>2022-04-10T07:25:25.000Z</time></trkpt><trkpt lon="5.943695" lat="51.030033"><ele>45.4</ele><time>2022-04-10T07:25:26.000Z</time></trkpt><trkpt lon="5.943735" lat="51.030016"><ele>45.4</ele><time>2022-04-10T07:25:27.000Z</time></trkpt><trkpt lon="5.943786" lat="51.029997"><ele>45.4</ele><time>2022-04-10T07:25:28.000Z</time></trkpt><trkpt lon="5.943851" lat="51.029979"><ele>45.2</ele><time>2022-04-10T07:25:29.000Z</time></trkpt><trkpt lon="5.943929" lat="51.029968"><ele>45.2</ele><time>2022-04-10T07:25:30.000Z</time></trkpt><trkpt lon="5.944016" lat="51.029974"><ele>45</ele><time>2022-04-10T07:25:31.000Z</time></trkpt><trkpt lon="5.94411" lat="51.029997"><ele>44.8</ele><time>2022-04-10T07:25:32.000Z</time></trkpt><trkpt lon="5.94421" lat="51.030029"><ele>44.8</ele><time>2022-04-10T07:25:33.000Z</time></trkpt><trkpt lon="5.944318" lat="51.030055"><ele>44.6</ele><time>2022-04-10T07:25:34.000Z</time></trkpt><trkpt lon="5.944431" lat="51.030073"><ele>44.6</ele><time>2022-04-10T07:25:35.000Z</time></trkpt><trkpt lon="5.944546" lat="51.030079"><ele>44.6</ele><time>2022-04-10T07:25:36.000Z</time></trkpt><trkpt lon="5.944662" lat="51.03008"><ele>44.6</ele><time>2022-04-10T07:25:37.000Z</time></trkpt><trkpt lon="5.944774" lat="51.030082"><ele>44.6</ele><time>2022-04-10T07:25:38.000Z</time></trkpt><trkpt lon="5.944888" lat="51.030079"><ele>44.6</ele><time>2022-04-10T07:25:39.000Z</time></trkpt><trkpt lon="5.945" lat="51.030078"><ele>44.8</ele><time>2022-04-10T07:25:40.000Z</time></trkpt><trkpt lon="5.945111" lat="51.030075"><ele>44.8</ele><time>2022-04-10T07:25:41.000Z</time></trkpt><trkpt lon="5.945223" lat="51.030075"><ele>45</ele><time>2022-04-10T07:25:42.000Z</time></trkpt><trkpt lon="5.945337" lat="51.030075"><ele>45.2</ele><time>2022-04-10T07:25:43.000Z</time></trkpt><trkpt lon="5.945453" lat="51.030076"><ele>45.2</ele><time>2022-04-10T07:25:44.000Z</time></trkpt><trkpt lon="5.945567" lat="51.03008"><ele>45.4</ele><time>2022-04-10T07:25:45.000Z</time></trkpt><trkpt lon="5.94568" lat="51.030083"><ele>45.6</ele><time>2022-04-10T07:25:46.000Z</time></trkpt><trkpt lon="5.945795" lat="51.030083"><ele>45.6</ele><time>2022-04-10T07:25:47.000Z</time></trkpt><trkpt lon="5.945907" lat="51.030084"><ele>45.8</ele><time>2022-04-10T07:25:48.000Z</time></trkpt><trkpt lon="5.94602" lat="51.030086"><ele>46</ele><time>2022-04-10T07:25:49.000Z</time></trkpt><trkpt lon="5.946131" lat="51.030088"><ele>46</ele><time>2022-04-10T07:25:50.000Z</time></trkpt><trkpt lon="5.946239" lat="51.030091"><ele>46.2</ele><time>2022-04-10T07:25:51.000Z</time></trkpt><trkpt lon="5.946345" lat="51.030096"><ele>46.2</ele><time>2022-04-10T07:25:52.000Z</time></trkpt><trkpt lon="5.946451" lat="51.030103"><ele>46.2</ele><time>2022-04-10T07:25:53.000Z</time></trkpt><trkpt lon="5.946556" lat="51.030107"><ele>46.4</ele><time>2022-04-10T07:25:54.000Z</time></trkpt><trkpt lon="5.94666" lat="51.03011"><ele>46.4</ele><time>2022-04-10T07:25:55.000Z</time></trkpt><trkpt lon="5.946766" lat="51.030115"><ele>46.4</ele><time>2022-04-10T07:25:56.000Z</time></trkpt><trkpt lon="5.946872" lat="51.030122"><ele>46.4</ele><time>2022-04-10T07:25:57.000Z</time></trkpt><trkpt lon="5.946983" lat="51.030126"><ele>46.4</ele><time>2022-04-10T07:25:58.000Z</time></trkpt><trkpt lon="5.947093" lat="51.030128"><ele>46.4</ele><time>2022-04-10T07:25:59.000Z</time></trkpt><trkpt lon="5.947205" lat="51.030131"><ele>46.4</ele><time>2022-04-10T07:26:00.000Z</time></trkpt><trkpt lon="5.947316" lat="51.030137"><ele>46.2</ele><time>2022-04-10T07:26:01.000Z</time></trkpt><trkpt lon="5.947429" lat="51.030143"><ele>46.2</ele><time>2022-04-10T07:26:02.000Z</time></trkpt><trkpt lon="5.94754" lat="51.030154"><ele>46.2</ele><time>2022-04-10T07:26:03.000Z</time></trkpt><trkpt lon="5.947646" lat="51.030161"><ele>46.2</ele><time>2022-04-10T07:26:04.000Z</time></trkpt><trkpt lon="5.947747" lat="51.030168"><ele>46.2</ele><time>2022-04-10T07:26:05.000Z</time></trkpt><trkpt lon="5.947846" lat="51.030173"><ele>46.4</ele><time>2022-04-10T07:26:06.000Z</time></trkpt><trkpt lon="5.947942" lat="51.030179"><ele>46.4</ele><time>2022-04-10T07:26:07.000Z</time></trkpt><trkpt lon="5.94804" lat="51.030182"><ele>46.4</ele><time>2022-04-10T07:26:08.000Z</time></trkpt><trkpt lon="5.948141" lat="51.030182"><ele>46.4</ele><time>2022-04-10T07:26:09.000Z</time></trkpt><trkpt lon="5.948243" lat="51.030179"><ele>46.4</ele><time>2022-04-10T07:26:10.000Z</time></trkpt><trkpt lon="5.948346" lat="51.030167"><ele>46.4</ele><time>2022-04-10T07:26:11.000Z</time></trkpt><trkpt lon="5.948451" lat="51.030156"><ele>46.4</ele><time>2022-04-10T07:26:12.000Z</time></trkpt><trkpt lon="5.948557" lat="51.030145"><ele>46.2</ele><time>2022-04-10T07:26:13.000Z</time></trkpt><trkpt lon="5.948664" lat="51.030138"><ele>46.2</ele><time>2022-04-10T07:26:14.000Z</time></trkpt><trkpt lon="5.948771" lat="51.030129"><ele>46.2</ele><time>2022-04-10T07:26:15.000Z</time></trkpt><trkpt lon="5.94888" lat="51.030117"><ele>46.2</ele><time>2022-04-10T07:26:16.000Z</time></trkpt><trkpt lon="5.948987" lat="51.0301"><ele>46</ele><time>2022-04-10T07:26:17.000Z</time></trkpt><trkpt lon="5.949094" lat="51.030083"><ele>46</ele><time>2022-04-10T07:26:18.000Z</time></trkpt><trkpt lon="5.949203" lat="51.030071"><ele>46</ele><time>2022-04-10T07:26:19.000Z</time></trkpt><trkpt lon="5.949311" lat="51.030058"><ele>46</ele><time>2022-04-10T07:26:20.000Z</time></trkpt><trkpt lon="5.949421" lat="51.03005"><ele>46</ele><time>2022-04-10T07:26:21.000Z</time></trkpt><trkpt lon="5.94953" lat="51.030042"><ele>46</ele><time>2022-04-10T07:26:22.000Z</time></trkpt><trkpt lon="5.949641" lat="51.030035"><ele>46</ele><time>2022-04-10T07:26:23.000Z</time></trkpt><trkpt lon="5.949752" lat="51.030027"><ele>45.8</ele><time>2022-04-10T07:26:24.000Z</time></trkpt><trkpt lon="5.949862" lat="51.03002"><ele>45.8</ele><time>2022-04-10T07:26:25.000Z</time></trkpt><trkpt lon="5.949972" lat="51.030013"><ele>45.8</ele><time>2022-04-10T07:26:26.000Z</time></trkpt><trkpt lon="5.950084" lat="51.030008"><ele>45.8</ele><time>2022-04-10T07:26:27.000Z</time></trkpt><trkpt lon="5.950192" lat="51.030001"><ele>45.6</ele><time>2022-04-10T07:26:28.000Z</time></trkpt><trkpt lon="5.950301" lat="51.029998"><ele>45.6</ele><time>2022-04-10T07:26:29.000Z</time></trkpt><trkpt lon="5.950411" lat="51.029993"><ele>45.4</ele><time>2022-04-10T07:26:30.000Z</time></trkpt><trkpt lon="5.950521" lat="51.029986"><ele>45.2</ele><time>2022-04-10T07:26:31.000Z</time></trkpt><trkpt lon="5.950637" lat="51.029984"><ele>45.2</ele><time>2022-04-10T07:26:32.000Z</time></trkpt><trkpt lon="5.95075" lat="51.029982"><ele>45</ele><time>2022-04-10T07:26:33.000Z</time></trkpt><trkpt lon="5.950864" lat="51.02998"><ele>45</ele><time>2022-04-10T07:26:34.000Z</time></trkpt><trkpt lon="5.950976" lat="51.02998"><ele>45</ele><time>2022-04-10T07:26:35.000Z</time></trkpt><trkpt lon="5.951087" lat="51.029979"><ele>45</ele><time>2022-04-10T07:26:36.000Z</time></trkpt><trkpt lon="5.951197" lat="51.029975"><ele>44.8</ele><time>2022-04-10T07:26:37.000Z</time></trkpt><trkpt lon="5.951305" lat="51.029971"><ele>44.8</ele><time>2022-04-10T07:26:38.000Z</time></trkpt><trkpt lon="5.951413" lat="51.029967"><ele>44.8</ele><time>2022-04-10T07:26:39.000Z</time></trkpt><trkpt lon="5.951524" lat="51.029964"><ele>44.8</ele><time>2022-04-10T07:26:40.000Z</time></trkpt><trkpt lon="5.951634" lat="51.029966"><ele>44.8</ele><time>2022-04-10T07:26:41.000Z</time></trkpt><trkpt lon="5.951744" lat="51.029969"><ele>45</ele><time>2022-04-10T07:26:42.000Z</time></trkpt><trkpt lon="5.951853" lat="51.029973"><ele>45.2</ele><time>2022-04-10T07:26:43.000Z</time></trkpt><trkpt lon="5.951962" lat="51.029976"><ele>45.2</ele><time>2022-04-10T07:26:44.000Z</time></trkpt><trkpt lon="5.952076" lat="51.029976"><ele>45.4</ele><time>2022-04-10T07:26:45.000Z</time></trkpt><trkpt lon="5.952186" lat="51.029975"><ele>45.4</ele><time>2022-04-10T07:26:46.000Z</time></trkpt><trkpt lon="5.952294" lat="51.029971"><ele>45.4</ele><time>2022-04-10T07:26:47.000Z</time></trkpt><trkpt lon="5.952402" lat="51.029968"><ele>45.6</ele><time>2022-04-10T07:26:48.000Z</time></trkpt><trkpt lon="5.952514" lat="51.029967"><ele>45.6</ele><time>2022-04-10T07:26:49.000Z</time></trkpt><trkpt lon="5.952624" lat="51.029962"><ele>45.6</ele><time>2022-04-10T07:26:50.000Z</time></trkpt><trkpt lon="5.952735" lat="51.029957"><ele>45.8</ele><time>2022-04-10T07:26:51.000Z</time></trkpt><trkpt lon="5.952845" lat="51.029957"><ele>45.8</ele><time>2022-04-10T07:26:52.000Z</time></trkpt><trkpt lon="5.952953" lat="51.029957"><ele>46</ele><time>2022-04-10T07:26:53.000Z</time></trkpt><trkpt lon="5.953058" lat="51.029956"><ele>45.8</ele><time>2022-04-10T07:26:54.000Z</time></trkpt><trkpt lon="5.953164" lat="51.029953"><ele>45.8</ele><time>2022-04-10T07:26:55.000Z</time></trkpt><trkpt lon="5.953269" lat="51.029952"><ele>46</ele><time>2022-04-10T07:26:56.000Z</time></trkpt><trkpt lon="5.953374" lat="51.029949"><ele>46</ele><time>2022-04-10T07:26:57.000Z</time></trkpt><trkpt lon="5.953478" lat="51.029949"><ele>46</ele><time>2022-04-10T07:26:58.000Z</time></trkpt><trkpt lon="5.953586" lat="51.029949"><ele>46.2</ele><time>2022-04-10T07:26:59.000Z</time></trkpt><trkpt lon="5.953691" lat="51.029949"><ele>46.2</ele><time>2022-04-10T07:27:00.000Z</time></trkpt><trkpt lon="5.953797" lat="51.029949"><ele>46.4</ele><time>2022-04-10T07:27:01.000Z</time></trkpt><trkpt lon="5.9539" lat="51.029949"><ele>46.6</ele><time>2022-04-10T07:27:02.000Z</time></trkpt><trkpt lon="5.954003" lat="51.029948"><ele>46.8</ele><time>2022-04-10T07:27:03.000Z</time></trkpt><trkpt lon="5.954107" lat="51.029944"><ele>46.8</ele><time>2022-04-10T07:27:04.000Z</time></trkpt><trkpt lon="5.954211" lat="51.029942"><ele>46.8</ele><time>2022-04-10T07:27:05.000Z</time></trkpt><trkpt lon="5.954316" lat="51.029941"><ele>47</ele><time>2022-04-10T07:27:06.000Z</time></trkpt><trkpt lon="5.954428" lat="51.029936"><ele>47</ele><time>2022-04-10T07:27:07.000Z</time></trkpt><trkpt lon="5.954538" lat="51.029927"><ele>47</ele><time>2022-04-10T07:27:08.000Z</time></trkpt><trkpt lon="5.954647" lat="51.029913"><ele>46.8</ele><time>2022-04-10T07:27:09.000Z</time></trkpt><trkpt lon="5.954755" lat="51.029893"><ele>46.6</ele><time>2022-04-10T07:27:10.000Z</time></trkpt><trkpt lon="5.95486" lat="51.029869"><ele>46.2</ele><time>2022-04-10T07:27:11.000Z</time></trkpt><trkpt lon="5.954964" lat="51.029843"><ele>46.2</ele><time>2022-04-10T07:27:12.000Z</time></trkpt><trkpt lon="5.955068" lat="51.029815"><ele>46</ele><time>2022-04-10T07:27:13.000Z</time></trkpt><trkpt lon="5.955167" lat="51.029784"><ele>45.8</ele><time>2022-04-10T07:27:14.000Z</time></trkpt><trkpt lon="5.955266" lat="51.029755"><ele>45.8</ele><time>2022-04-10T07:27:15.000Z</time></trkpt><trkpt lon="5.955361" lat="51.029728"><ele>45.6</ele><time>2022-04-10T07:27:16.000Z</time></trkpt><trkpt lon="5.955453" lat="51.029701"><ele>45.6</ele><time>2022-04-10T07:27:17.000Z</time></trkpt><trkpt lon="5.955544" lat="51.029676"><ele>45.6</ele><time>2022-04-10T07:27:18.000Z</time></trkpt><trkpt lon="5.955634" lat="51.029653"><ele>45.6</ele><time>2022-04-10T07:27:19.000Z</time></trkpt><trkpt lon="5.955725" lat="51.02963"><ele>45.6</ele><time>2022-04-10T07:27:20.000Z</time></trkpt><trkpt lon="5.95581" lat="51.029607"><ele>45.6</ele><time>2022-04-10T07:27:21.000Z</time></trkpt><trkpt lon="5.95589" lat="51.029583"><ele>45.6</ele><time>2022-04-10T07:27:22.000Z</time></trkpt><trkpt lon="5.955965" lat="51.029553"><ele>45.6</ele><time>2022-04-10T07:27:23.000Z</time></trkpt><trkpt lon="5.956035" lat="51.029514"><ele>45.8</ele><time>2022-04-10T07:27:24.000Z</time></trkpt><trkpt lon="5.956107" lat="51.029472"><ele>46</ele><time>2022-04-10T07:27:25.000Z</time></trkpt><trkpt lon="5.956186" lat="51.029432"><ele>46.2</ele><time>2022-04-10T07:27:26.000Z</time></trkpt><trkpt lon="5.956274" lat="51.0294"><ele>46.4</ele><time>2022-04-10T07:27:27.000Z</time></trkpt><trkpt lon="5.956366" lat="51.029376"><ele>46.6</ele><time>2022-04-10T07:27:28.000Z</time></trkpt><trkpt lon="5.956465" lat="51.029359"><ele>46.6</ele><time>2022-04-10T07:27:29.000Z</time></trkpt><trkpt lon="5.956564" lat="51.029349"><ele>46.8</ele><time>2022-04-10T07:27:30.000Z</time></trkpt><trkpt lon="5.956669" lat="51.029345"><ele>46.8</ele><time>2022-04-10T07:27:31.000Z</time></trkpt><trkpt lon="5.956776" lat="51.029343"><ele>47.2</ele><time>2022-04-10T07:27:32.000Z</time></trkpt><trkpt lon="5.956884" lat="51.029342"><ele>47.2</ele><time>2022-04-10T07:27:33.000Z</time></trkpt><trkpt lon="5.956993" lat="51.02934"><ele>47.4</ele><time>2022-04-10T07:27:34.000Z</time></trkpt><trkpt lon="5.957097" lat="51.029343"><ele>47.6</ele><time>2022-04-10T07:27:35.000Z</time></trkpt><trkpt lon="5.957205" lat="51.029343"><ele>48</ele><time>2022-04-10T07:27:36.000Z</time></trkpt><trkpt lon="5.957309" lat="51.029343"><ele>48.2</ele><time>2022-04-10T07:27:37.000Z</time></trkpt><trkpt lon="5.95741" lat="51.029344"><ele>48.4</ele><time>2022-04-10T07:27:38.000Z</time></trkpt><trkpt lon="5.957508" lat="51.029346"><ele>48.8</ele><time>2022-04-10T07:27:39.000Z</time></trkpt><trkpt lon="5.95761" lat="51.029346"><ele>49</ele><time>2022-04-10T07:27:40.000Z</time></trkpt><trkpt lon="5.957709" lat="51.029348"><ele>49.4</ele><time>2022-04-10T07:27:41.000Z</time></trkpt><trkpt lon="5.957807" lat="51.029351"><ele>49.6</ele><time>2022-04-10T07:27:42.000Z</time></trkpt><trkpt lon="5.957907" lat="51.029354"><ele>49.8</ele><time>2022-04-10T07:27:43.000Z</time></trkpt><trkpt lon="5.958005" lat="51.029355"><ele>50</ele><time>2022-04-10T07:27:44.000Z</time></trkpt><trkpt lon="5.958102" lat="51.029357"><ele>50.2</ele><time>2022-04-10T07:27:45.000Z</time></trkpt><trkpt lon="5.958201" lat="51.029353"><ele>50.6</ele><time>2022-04-10T07:27:46.000Z</time></trkpt><trkpt lon="5.958299" lat="51.029349"><ele>50.8</ele><time>2022-04-10T07:27:47.000Z</time></trkpt><trkpt lon="5.958397" lat="51.029346"><ele>51</ele><time>2022-04-10T07:27:48.000Z</time></trkpt><trkpt lon="5.958496" lat="51.029346"><ele>51</ele><time>2022-04-10T07:27:49.000Z</time></trkpt><trkpt lon="5.958595" lat="51.029346"><ele>51.2</ele><time>2022-04-10T07:27:50.000Z</time></trkpt><trkpt lon="5.958697" lat="51.029346"><ele>51.4</ele><time>2022-04-10T07:27:51.000Z</time></trkpt><trkpt lon="5.958802" lat="51.029346"><ele>51.4</ele><time>2022-04-10T07:27:52.000Z</time></trkpt><trkpt lon="5.958904" lat="51.029346"><ele>51.6</ele><time>2022-04-10T07:27:53.000Z</time></trkpt><trkpt lon="5.959003" lat="51.029346"><ele>51.6</ele><time>2022-04-10T07:27:54.000Z</time></trkpt><trkpt lon="5.959104" lat="51.029344"><ele>51.6</ele><time>2022-04-10T07:27:55.000Z</time></trkpt><trkpt lon="5.959206" lat="51.029338"><ele>51.6</ele><time>2022-04-10T07:27:56.000Z</time></trkpt><trkpt lon="5.959308" lat="51.029332"><ele>51.8</ele><time>2022-04-10T07:27:57.000Z</time></trkpt><trkpt lon="5.959412" lat="51.02932"><ele>51.8</ele><time>2022-04-10T07:27:58.000Z</time></trkpt><trkpt lon="5.959516" lat="51.029311"><ele>51.8</ele><time>2022-04-10T07:27:59.000Z</time></trkpt><trkpt lon="5.95962" lat="51.029306"><ele>51.8</ele><time>2022-04-10T07:28:00.000Z</time></trkpt><trkpt lon="5.959721" lat="51.0293"><ele>51.8</ele><time>2022-04-10T07:28:01.000Z</time></trkpt><trkpt lon="5.959824" lat="51.029295"><ele>51.8</ele><time>2022-04-10T07:28:02.000Z</time></trkpt><trkpt lon="5.959929" lat="51.029289"><ele>51.8</ele><time>2022-04-10T07:28:03.000Z</time></trkpt><trkpt lon="5.960031" lat="51.02929"><ele>51.8</ele><time>2022-04-10T07:28:04.000Z</time></trkpt><trkpt lon="5.960133" lat="51.029295"><ele>52</ele><time>2022-04-10T07:28:05.000Z</time></trkpt><trkpt lon="5.960236" lat="51.029305"><ele>51.8</ele><time>2022-04-10T07:28:06.000Z</time></trkpt><trkpt lon="5.960333" lat="51.02932"><ele>51.8</ele><time>2022-04-10T07:28:07.000Z</time></trkpt><trkpt lon="5.960428" lat="51.029336"><ele>51.6</ele><time>2022-04-10T07:28:08.000Z</time></trkpt><trkpt lon="5.960518" lat="51.029355"><ele>51.6</ele><time>2022-04-10T07:28:09.000Z</time></trkpt><trkpt lon="5.960598" lat="51.029374"><ele>51.4</ele><time>2022-04-10T07:28:10.000Z</time></trkpt><trkpt lon="5.960665" lat="51.029388"><ele>51.4</ele><time>2022-04-10T07:28:11.000Z</time></trkpt><trkpt lon="5.960724" lat="51.029395"><ele>51.4</ele><time>2022-04-10T07:28:12.000Z</time></trkpt><trkpt lon="5.96078" lat="51.029389"><ele>51.2</ele><time>2022-04-10T07:28:13.000Z</time></trkpt><trkpt lon="5.960831" lat="51.029373"><ele>51.2</ele><time>2022-04-10T07:28:14.000Z</time></trkpt><trkpt lon="5.960874" lat="51.029343"><ele>51</ele><time>2022-04-10T07:28:15.000Z</time></trkpt><trkpt lon="5.960912" lat="51.029298"><ele>50.8</ele><time>2022-04-10T07:28:16.000Z</time></trkpt><trkpt lon="5.960943" lat="51.029249"><ele>50.6</ele><time>2022-04-10T07:28:17.000Z</time></trkpt><trkpt lon="5.960973" lat="51.029201"><ele>50.4</ele><time>2022-04-10T07:28:18.000Z</time></trkpt><trkpt lon="5.961006" lat="51.029149"><ele>50</ele><time>2022-04-10T07:28:19.000Z</time></trkpt><trkpt lon="5.96104" lat="51.029096"><ele>49.6</ele><time>2022-04-10T07:28:20.000Z</time></trkpt><trkpt lon="5.961078" lat="51.029041"><ele>49.4</ele><time>2022-04-10T07:28:21.000Z</time></trkpt><trkpt lon="5.961118" lat="51.028989"><ele>49.2</ele><time>2022-04-10T07:28:22.000Z</time></trkpt><trkpt lon="5.961165" lat="51.028938"><ele>49</ele><time>2022-04-10T07:28:23.000Z</time></trkpt><trkpt lon="5.961216" lat="51.028885"><ele>48.8</ele><time>2022-04-10T07:28:24.000Z</time></trkpt><trkpt lon="5.961266" lat="51.028832"><ele>48.4</ele><time>2022-04-10T07:28:25.000Z</time></trkpt><trkpt lon="5.96131" lat="51.028779"><ele>48.2</ele><time>2022-04-10T07:28:26.000Z</time></trkpt><trkpt lon="5.961354" lat="51.028724"><ele>48</ele><time>2022-04-10T07:28:27.000Z</time></trkpt><trkpt lon="5.961395" lat="51.028669"><ele>47.8</ele><time>2022-04-10T07:28:28.000Z</time></trkpt><trkpt lon="5.961439" lat="51.028619"><ele>47.6</ele><time>2022-04-10T07:28:29.000Z</time></trkpt><trkpt lon="5.961489" lat="51.028572"><ele>47.4</ele><time>2022-04-10T07:28:30.000Z</time></trkpt><trkpt lon="5.961541" lat="51.028529"><ele>47.2</ele><time>2022-04-10T07:28:31.000Z</time></trkpt><trkpt lon="5.961597" lat="51.028484"><ele>47</ele><time>2022-04-10T07:28:32.000Z</time></trkpt><trkpt lon="5.961652" lat="51.02844"><ele>46.8</ele><time>2022-04-10T07:28:33.000Z</time></trkpt><trkpt lon="5.96171" lat="51.028387"><ele>46.6</ele><time>2022-04-10T07:28:34.000Z</time></trkpt><trkpt lon="5.961763" lat="51.028328"><ele>46.4</ele><time>2022-04-10T07:28:35.000Z</time></trkpt><trkpt lon="5.961814" lat="51.028272"><ele>46.2</ele><time>2022-04-10T07:28:36.000Z</time></trkpt><trkpt lon="5.961875" lat="51.028207"><ele>45.8</ele><time>2022-04-10T07:28:37.000Z</time></trkpt><trkpt lon="5.961937" lat="51.028142"><ele>45.8</ele><time>2022-04-10T07:28:38.000Z</time></trkpt><trkpt lon="5.961997" lat="51.028079"><ele>45.6</ele><time>2022-04-10T07:28:39.000Z</time></trkpt><trkpt lon="5.962051" lat="51.028024"><ele>45.6</ele><time>2022-04-10T07:28:40.000Z</time></trkpt><trkpt lon="5.9621" lat="51.027975"><ele>45.4</ele><time>2022-04-10T07:28:41.000Z</time></trkpt><trkpt lon="5.962142" lat="51.027926"><ele>45.4</ele><time>2022-04-10T07:28:42.000Z</time></trkpt><trkpt lon="5.962184" lat="51.027874"><ele>45</ele><time>2022-04-10T07:28:43.000Z</time></trkpt><trkpt lon="5.962228" lat="51.027822"><ele>44.8</ele><time>2022-04-10T07:28:44.000Z</time></trkpt><trkpt lon="5.962278" lat="51.02777"><ele>44.8</ele><time>2022-04-10T07:28:45.000Z</time></trkpt><trkpt lon="5.962334" lat="51.027713"><ele>44.8</ele><time>2022-04-10T07:28:46.000Z</time></trkpt><trkpt lon="5.962392" lat="51.027655"><ele>45</ele><time>2022-04-10T07:28:47.000Z</time></trkpt><trkpt lon="5.962456" lat="51.027591"><ele>45</ele><time>2022-04-10T07:28:48.000Z</time></trkpt><trkpt lon="5.962521" lat="51.027531"><ele>45</ele><time>2022-04-10T07:28:49.000Z</time></trkpt><trkpt lon="5.962586" lat="51.027463"><ele>44.8</ele><time>2022-04-10T07:28:50.000Z</time></trkpt><trkpt lon="5.962657" lat="51.027395"><ele>44.8</ele><time>2022-04-10T07:28:51.000Z</time></trkpt><trkpt lon="5.962721" lat="51.027335"><ele>44.8</ele><time>2022-04-10T07:28:52.000Z</time></trkpt><trkpt lon="5.962786" lat="51.027275"><ele>44.8</ele><time>2022-04-10T07:28:53.000Z</time></trkpt><trkpt lon="5.962843" lat="51.027218"><ele>44.8</ele><time>2022-04-10T07:28:54.000Z</time></trkpt><trkpt lon="5.96289" lat="51.02716"><ele>44.8</ele><time>2022-04-10T07:28:55.000Z</time></trkpt><trkpt lon="5.962936" lat="51.027104"><ele>45.2</ele><time>2022-04-10T07:28:56.000Z</time></trkpt><trkpt lon="5.962986" lat="51.027052"><ele>45.4</ele><time>2022-04-10T07:28:57.000Z</time></trkpt><trkpt lon="5.963033" lat="51.027003"><ele>45.4</ele><time>2022-04-10T07:28:58.000Z</time></trkpt><trkpt lon="5.963085" lat="51.026961"><ele>45.6</ele><time>2022-04-10T07:28:59.000Z</time></trkpt><trkpt lon="5.963147" lat="51.026929"><ele>45.8</ele><time>2022-04-10T07:29:00.000Z</time></trkpt><trkpt lon="5.963217" lat="51.026906"><ele>45.8</ele><time>2022-04-10T07:29:01.000Z</time></trkpt><trkpt lon="5.963285" lat="51.026882"><ele>46</ele><time>2022-04-10T07:29:02.000Z</time></trkpt><trkpt lon="5.96334" lat="51.026856"><ele>46.2</ele><time>2022-04-10T07:29:03.000Z</time></trkpt><trkpt lon="5.963381" lat="51.026826"><ele>46.2</ele><time>2022-04-10T07:29:04.000Z</time></trkpt><trkpt lon="5.963418" lat="51.026788"><ele>46.2</ele><time>2022-04-10T07:29:05.000Z</time></trkpt><trkpt lon="5.963443" lat="51.026749"><ele>46.4</ele><time>2022-04-10T07:29:06.000Z</time></trkpt><trkpt lon="5.963457" lat="51.02671"><ele>46.4</ele><time>2022-04-10T07:29:07.000Z</time></trkpt><trkpt lon="5.963468" lat="51.026668"><ele>46.4</ele><time>2022-04-10T07:29:08.000Z</time></trkpt><trkpt lon="5.963485" lat="51.026625"><ele>46.4</ele><time>2022-04-10T07:29:09.000Z</time></trkpt><trkpt lon="5.963511" lat="51.026579"><ele>46.6</ele><time>2022-04-10T07:29:10.000Z</time></trkpt><trkpt lon="5.963539" lat="51.026533"><ele>46.6</ele><time>2022-04-10T07:29:11.000Z</time></trkpt><trkpt lon="5.963574" lat="51.026484"><ele>46.8</ele><time>2022-04-10T07:29:12.000Z</time></trkpt><trkpt lon="5.963613" lat="51.026438"><ele>46.8</ele><time>2022-04-10T07:29:13.000Z</time></trkpt><trkpt lon="5.963654" lat="51.026387"><ele>47</ele><time>2022-04-10T07:29:14.000Z</time></trkpt><trkpt lon="5.963701" lat="51.026338"><ele>47</ele><time>2022-04-10T07:29:15.000Z</time></trkpt><trkpt lon="5.96375" lat="51.026287"><ele>47</ele><time>2022-04-10T07:29:16.000Z</time></trkpt><trkpt lon="5.963798" lat="51.026235"><ele>47.2</ele><time>2022-04-10T07:29:17.000Z</time></trkpt><trkpt lon="5.963848" lat="51.026182"><ele>47.2</ele><time>2022-04-10T07:29:18.000Z</time></trkpt><trkpt lon="5.963901" lat="51.026126"><ele>47.2</ele><time>2022-04-10T07:29:19.000Z</time></trkpt><trkpt lon="5.963953" lat="51.02607"><ele>47.4</ele><time>2022-04-10T07:29:20.000Z</time></trkpt><trkpt lon="5.964005" lat="51.026017"><ele>47.4</ele><time>2022-04-10T07:29:21.000Z</time></trkpt><trkpt lon="5.964055" lat="51.025967"><ele>47.6</ele><time>2022-04-10T07:29:22.000Z</time></trkpt><trkpt lon="5.964103" lat="51.025913"><ele>47.8</ele><time>2022-04-10T07:29:23.000Z</time></trkpt><trkpt lon="5.96415" lat="51.025859"><ele>48</ele><time>2022-04-10T07:29:24.000Z</time></trkpt><trkpt lon="5.964199" lat="51.025802"><ele>48</ele><time>2022-04-10T07:29:25.000Z</time></trkpt><trkpt lon="5.964247" lat="51.025745"><ele>48.2</ele><time>2022-04-10T07:29:26.000Z</time></trkpt><trkpt lon="5.964299" lat="51.025687"><ele>48.4</ele><time>2022-04-10T07:29:27.000Z</time></trkpt><trkpt lon="5.96435" lat="51.025626"><ele>48.4</ele><time>2022-04-10T07:29:28.000Z</time></trkpt><trkpt lon="5.964398" lat="51.025566"><ele>48.8</ele><time>2022-04-10T07:29:29.000Z</time></trkpt><trkpt lon="5.964444" lat="51.025503"><ele>49</ele><time>2022-04-10T07:29:30.000Z</time></trkpt><trkpt lon="5.964486" lat="51.025443"><ele>49</ele><time>2022-04-10T07:29:31.000Z</time></trkpt><trkpt lon="5.964526" lat="51.025383"><ele>49.2</ele><time>2022-04-10T07:29:32.000Z</time></trkpt><trkpt lon="5.964565" lat="51.025325"><ele>49.2</ele><time>2022-04-10T07:29:33.000Z</time></trkpt><trkpt lon="5.964603" lat="51.025268"><ele>49.4</ele><time>2022-04-10T07:29:34.000Z</time></trkpt><trkpt lon="5.96464" lat="51.025215"><ele>49.8</ele><time>2022-04-10T07:29:35.000Z</time></trkpt><trkpt lon="5.964676" lat="51.025161"><ele>49.8</ele><time>2022-04-10T07:29:36.000Z</time></trkpt><trkpt lon="5.964711" lat="51.025105"><ele>50</ele><time>2022-04-10T07:29:37.000Z</time></trkpt><trkpt lon="5.964744" lat="51.025052"><ele>50.2</ele><time>2022-04-10T07:29:38.000Z</time></trkpt><trkpt lon="5.964777" lat="51.024997"><ele>50.4</ele><time>2022-04-10T07:29:39.000Z</time></trkpt><trkpt lon="5.964808" lat="51.024939"><ele>50.6</ele><time>2022-04-10T07:29:40.000Z</time></trkpt><trkpt lon="5.964838" lat="51.024882"><ele>50.8</ele><time>2022-04-10T07:29:41.000Z</time></trkpt><trkpt lon="5.964868" lat="51.024825"><ele>51</ele><time>2022-04-10T07:29:42.000Z</time></trkpt><trkpt lon="5.964895" lat="51.024765"><ele>51.2</ele><time>2022-04-10T07:29:43.000Z</time></trkpt><trkpt lon="5.96492" lat="51.024707"><ele>51.4</ele><time>2022-04-10T07:29:44.000Z</time></trkpt><trkpt lon="5.964944" lat="51.024649"><ele>51.4</ele><time>2022-04-10T07:29:45.000Z</time></trkpt><trkpt lon="5.964968" lat="51.024589"><ele>51.6</ele><time>2022-04-10T07:29:46.000Z</time></trkpt><trkpt lon="5.964993" lat="51.02453"><ele>51.6</ele><time>2022-04-10T07:29:47.000Z</time></trkpt><trkpt lon="5.965017" lat="51.024471"><ele>51.8</ele><time>2022-04-10T07:29:48.000Z</time></trkpt><trkpt lon="5.965039" lat="51.024412"><ele>51.8</ele><time>2022-04-10T07:29:49.000Z</time></trkpt><trkpt lon="5.965059" lat="51.024351"><ele>51.8</ele><time>2022-04-10T07:29:50.000Z</time></trkpt><trkpt lon="5.965078" lat="51.024291"><ele>52</ele><time>2022-04-10T07:29:51.000Z</time></trkpt><trkpt lon="5.965097" lat="51.024229"><ele>52</ele><time>2022-04-10T07:29:52.000Z</time></trkpt><trkpt lon="5.965114" lat="51.024168"><ele>52.2</ele><time>2022-04-10T07:29:53.000Z</time></trkpt><trkpt lon="5.965132" lat="51.024107"><ele>52.2</ele><time>2022-04-10T07:29:54.000Z</time></trkpt><trkpt lon="5.965149" lat="51.024046"><ele>52.2</ele><time>2022-04-10T07:29:55.000Z</time></trkpt><trkpt lon="5.965163" lat="51.023984"><ele>52.4</ele><time>2022-04-10T07:29:56.000Z</time></trkpt><trkpt lon="5.965173" lat="51.02392"><ele>52.4</ele><time>2022-04-10T07:29:57.000Z</time></trkpt><trkpt lon="5.965182" lat="51.023858"><ele>52.4</ele><time>2022-04-10T07:29:58.000Z</time></trkpt><trkpt lon="5.965191" lat="51.023793"><ele>52.4</ele><time>2022-04-10T07:29:59.000Z</time></trkpt><trkpt lon="5.965198" lat="51.023729"><ele>52.4</ele><time>2022-04-10T07:30:00.000Z</time></trkpt><trkpt lon="5.965205" lat="51.023665"><ele>52.4</ele><time>2022-04-10T07:30:01.000Z</time></trkpt><trkpt lon="5.96521" lat="51.023597"><ele>52.4</ele><time>2022-04-10T07:30:02.000Z</time></trkpt><trkpt lon="5.965214" lat="51.02353"><ele>52.6</ele><time>2022-04-10T07:30:03.000Z</time></trkpt><trkpt lon="5.965217" lat="51.023464"><ele>52.6</ele><time>2022-04-10T07:30:04.000Z</time></trkpt><trkpt lon="5.965219" lat="51.023397"><ele>52.6</ele><time>2022-04-10T07:30:05.000Z</time></trkpt><trkpt lon="5.96522" lat="51.023331"><ele>52.6</ele><time>2022-04-10T07:30:06.000Z</time></trkpt><trkpt lon="5.965219" lat="51.023263"><ele>52.6</ele><time>2022-04-10T07:30:07.000Z</time></trkpt><trkpt lon="5.965216" lat="51.023193"><ele>52.6</ele><time>2022-04-10T07:30:08.000Z</time></trkpt><trkpt lon="5.965212" lat="51.023125"><ele>52.6</ele><time>2022-04-10T07:30:09.000Z</time></trkpt><trkpt lon="5.965207" lat="51.02306"><ele>52.6</ele><time>2022-04-10T07:30:10.000Z</time></trkpt><trkpt lon="5.9652" lat="51.022991"><ele>52.6</ele><time>2022-04-10T07:30:11.000Z</time></trkpt><trkpt lon="5.965193" lat="51.022922"><ele>52.6</ele><time>2022-04-10T07:30:12.000Z</time></trkpt><trkpt lon="5.965184" lat="51.022853"><ele>52.6</ele><time>2022-04-10T07:30:13.000Z</time></trkpt><trkpt lon="5.965176" lat="51.022786"><ele>52.4</ele><time>2022-04-10T07:30:14.000Z</time></trkpt><trkpt lon="5.965166" lat="51.02272"><ele>52.4</ele><time>2022-04-10T07:30:15.000Z</time></trkpt><trkpt lon="5.965155" lat="51.022651"><ele>52.4</ele><time>2022-04-10T07:30:16.000Z</time></trkpt><trkpt lon="5.965143" lat="51.022584"><ele>52.2</ele><time>2022-04-10T07:30:17.000Z</time></trkpt><trkpt lon="5.965133" lat="51.022523"><ele>52.2</ele><time>2022-04-10T07:30:18.000Z</time></trkpt><trkpt lon="5.965123" lat="51.022468"><ele>52.2</ele><time>2022-04-10T07:30:19.000Z</time></trkpt><trkpt lon="5.965106" lat="51.022385"><ele>52.2</ele><time>2022-04-10T07:30:20.000Z</time></trkpt><trkpt lon="5.965093" lat="51.02232"><ele>52.2</ele><time>2022-04-10T07:30:21.000Z</time></trkpt><trkpt lon="5.965079" lat="51.022255"><ele>52.2</ele><time>2022-04-10T07:30:22.000Z</time></trkpt><trkpt lon="5.965065" lat="51.022188"><ele>52.4</ele><time>2022-04-10T07:30:23.000Z</time></trkpt><trkpt lon="5.965051" lat="51.022122"><ele>52.4</ele><time>2022-04-10T07:30:24.000Z</time></trkpt><trkpt lon="5.965038" lat="51.022058"><ele>52.4</ele><time>2022-04-10T07:30:25.000Z</time></trkpt><trkpt lon="5.965024" lat="51.021993"><ele>52.4</ele><time>2022-04-10T07:30:26.000Z</time></trkpt><trkpt lon="5.96501" lat="51.021927"><ele>52.4</ele><time>2022-04-10T07:30:27.000Z</time></trkpt><trkpt lon="5.964996" lat="51.021859"><ele>52.4</ele><time>2022-04-10T07:30:28.000Z</time></trkpt><trkpt lon="5.964981" lat="51.021793"><ele>52.4</ele><time>2022-04-10T07:30:29.000Z</time></trkpt><trkpt lon="5.964965" lat="51.021726"><ele>52.6</ele><time>2022-04-10T07:30:30.000Z</time></trkpt><trkpt lon="5.964949" lat="51.02166"><ele>52.6</ele><time>2022-04-10T07:30:31.000Z</time></trkpt><trkpt lon="5.964934" lat="51.021592"><ele>52.6</ele><time>2022-04-10T07:30:32.000Z</time></trkpt><trkpt lon="5.96492" lat="51.021528"><ele>52.6</ele><time>2022-04-10T07:30:33.000Z</time></trkpt><trkpt lon="5.964906" lat="51.021462"><ele>52.8</ele><time>2022-04-10T07:30:34.000Z</time></trkpt><trkpt lon="5.964891" lat="51.021397"><ele>52.6</ele><time>2022-04-10T07:30:35.000Z</time></trkpt><trkpt lon="5.964875" lat="51.021331"><ele>52.6</ele><time>2022-04-10T07:30:36.000Z</time></trkpt><trkpt lon="5.964859" lat="51.021264"><ele>52.6</ele><time>2022-04-10T07:30:37.000Z</time></trkpt><trkpt lon="5.964843" lat="51.021199"><ele>52.8</ele><time>2022-04-10T07:30:38.000Z</time></trkpt><trkpt lon="5.964828" lat="51.021134"><ele>52.8</ele><time>2022-04-10T07:30:39.000Z</time></trkpt><trkpt lon="5.964814" lat="51.02107"><ele>52.8</ele><time>2022-04-10T07:30:40.000Z</time></trkpt><trkpt lon="5.9648" lat="51.021006"><ele>52.8</ele><time>2022-04-10T07:30:41.000Z</time></trkpt><trkpt lon="5.964786" lat="51.02094"><ele>53</ele><time>2022-04-10T07:30:42.000Z</time></trkpt><trkpt lon="5.964772" lat="51.020876"><ele>53</ele><time>2022-04-10T07:30:43.000Z</time></trkpt><trkpt lon="5.964756" lat="51.020811"><ele>53</ele><time>2022-04-10T07:30:44.000Z</time></trkpt><trkpt lon="5.964741" lat="51.020745"><ele>53</ele><time>2022-04-10T07:30:45.000Z</time></trkpt><trkpt lon="5.964726" lat="51.02068"><ele>53.2</ele><time>2022-04-10T07:30:46.000Z</time></trkpt><trkpt lon="5.964711" lat="51.020612"><ele>53.2</ele><time>2022-04-10T07:30:47.000Z</time></trkpt><trkpt lon="5.964697" lat="51.020548"><ele>53.2</ele><time>2022-04-10T07:30:48.000Z</time></trkpt><trkpt lon="5.964684" lat="51.020487"><ele>53.2</ele><time>2022-04-10T07:30:49.000Z</time></trkpt><trkpt lon="5.964669" lat="51.020421"><ele>53.4</ele><time>2022-04-10T07:30:50.000Z</time></trkpt><trkpt lon="5.964654" lat="51.020356"><ele>53.4</ele><time>2022-04-10T07:30:51.000Z</time></trkpt><trkpt lon="5.96464" lat="51.020291"><ele>53.4</ele><time>2022-04-10T07:30:52.000Z</time></trkpt><trkpt lon="5.964626" lat="51.020227"><ele>53.6</ele><time>2022-04-10T07:30:53.000Z</time></trkpt><trkpt lon="5.964611" lat="51.020162"><ele>53.6</ele><time>2022-04-10T07:30:54.000Z</time></trkpt><trkpt lon="5.964598" lat="51.020097"><ele>53.6</ele><time>2022-04-10T07:30:55.000Z</time></trkpt><trkpt lon="5.964582" lat="51.020031"><ele>53.6</ele><time>2022-04-10T07:30:56.000Z</time></trkpt><trkpt lon="5.964568" lat="51.019966"><ele>53.6</ele><time>2022-04-10T07:30:57.000Z</time></trkpt><trkpt lon="5.964554" lat="51.019898"><ele>53.6</ele><time>2022-04-10T07:30:58.000Z</time></trkpt><trkpt lon="5.964539" lat="51.019833"><ele>53.6</ele><time>2022-04-10T07:30:59.000Z</time></trkpt><trkpt lon="5.964526" lat="51.019769"><ele>53.8</ele><time>2022-04-10T07:31:00.000Z</time></trkpt><trkpt lon="5.964512" lat="51.019704"><ele>53.8</ele><time>2022-04-10T07:31:01.000Z</time></trkpt><trkpt lon="5.964498" lat="51.019639"><ele>53.8</ele><time>2022-04-10T07:31:02.000Z</time></trkpt><trkpt lon="5.964484" lat="51.019574"><ele>53.8</ele><time>2022-04-10T07:31:03.000Z</time></trkpt><trkpt lon="5.964469" lat="51.019508"><ele>53.8</ele><time>2022-04-10T07:31:04.000Z</time></trkpt><trkpt lon="5.964454" lat="51.019441"><ele>53.8</ele><time>2022-04-10T07:31:05.000Z</time></trkpt><trkpt lon="5.964439" lat="51.019375"><ele>54</ele><time>2022-04-10T07:31:06.000Z</time></trkpt><trkpt lon="5.964423" lat="51.019307"><ele>54</ele><time>2022-04-10T07:31:07.000Z</time></trkpt><trkpt lon="5.964409" lat="51.019241"><ele>54</ele><time>2022-04-10T07:31:08.000Z</time></trkpt><trkpt lon="5.964395" lat="51.019173"><ele>54</ele><time>2022-04-10T07:31:09.000Z</time></trkpt><trkpt lon="5.964381" lat="51.019108"><ele>53.8</ele><time>2022-04-10T07:31:10.000Z</time></trkpt><trkpt lon="5.964366" lat="51.01904"><ele>53.8</ele><time>2022-04-10T07:31:11.000Z</time></trkpt><trkpt lon="5.964353" lat="51.018972"><ele>53.8</ele><time>2022-04-10T07:31:12.000Z</time></trkpt><trkpt lon="5.964337" lat="51.018901"><ele>53.8</ele><time>2022-04-10T07:31:13.000Z</time></trkpt><trkpt lon="5.964321" lat="51.018834"><ele>53.6</ele><time>2022-04-10T07:31:14.000Z</time></trkpt><trkpt lon="5.964307" lat="51.018768"><ele>53.6</ele><time>2022-04-10T07:31:15.000Z</time></trkpt><trkpt lon="5.964291" lat="51.018695"><ele>53.6</ele><time>2022-04-10T07:31:16.000Z</time></trkpt><trkpt lon="5.964275" lat="51.018626"><ele>53.6</ele><time>2022-04-10T07:31:17.000Z</time></trkpt><trkpt lon="5.964259" lat="51.018555"><ele>53.6</ele><time>2022-04-10T07:31:18.000Z</time></trkpt><trkpt lon="5.964244" lat="51.018486"><ele>53.4</ele><time>2022-04-10T07:31:19.000Z</time></trkpt><trkpt lon="5.96423" lat="51.018416"><ele>53.4</ele><time>2022-04-10T07:31:20.000Z</time></trkpt><trkpt lon="5.964216" lat="51.018344"><ele>53.2</ele><time>2022-04-10T07:31:21.000Z</time></trkpt><trkpt lon="5.964201" lat="51.018276"><ele>53.2</ele><time>2022-04-10T07:31:22.000Z</time></trkpt><trkpt lon="5.964187" lat="51.018208"><ele>53</ele><time>2022-04-10T07:31:23.000Z</time></trkpt><trkpt lon="5.964172" lat="51.018138"><ele>52.8</ele><time>2022-04-10T07:31:24.000Z</time></trkpt><trkpt lon="5.964156" lat="51.018066"><ele>52.8</ele><time>2022-04-10T07:31:25.000Z</time></trkpt><trkpt lon="5.964141" lat="51.017997"><ele>52.8</ele><time>2022-04-10T07:31:26.000Z</time></trkpt><trkpt lon="5.964126" lat="51.017929"><ele>52.8</ele><time>2022-04-10T07:31:27.000Z</time></trkpt><trkpt lon="5.964111" lat="51.017861"><ele>52.8</ele><time>2022-04-10T07:31:28.000Z</time></trkpt><trkpt lon="5.964094" lat="51.017791"><ele>52.8</ele><time>2022-04-10T07:31:29.000Z</time></trkpt><trkpt lon="5.96408" lat="51.017721"><ele>52.8</ele><time>2022-04-10T07:31:30.000Z</time></trkpt><trkpt lon="5.964066" lat="51.017653"><ele>52.8</ele><time>2022-04-10T07:31:31.000Z</time></trkpt><trkpt lon="5.964053" lat="51.017583"><ele>52.8</ele><time>2022-04-10T07:31:32.000Z</time></trkpt><trkpt lon="5.964042" lat="51.017513"><ele>52.8</ele><time>2022-04-10T07:31:33.000Z</time></trkpt><trkpt lon="5.964032" lat="51.017444"><ele>52.8</ele><time>2022-04-10T07:31:34.000Z</time></trkpt><trkpt lon="5.964021" lat="51.017377"><ele>53</ele><time>2022-04-10T07:31:35.000Z</time></trkpt><trkpt lon="5.964013" lat="51.017308"><ele>53</ele><time>2022-04-10T07:31:36.000Z</time></trkpt><trkpt lon="5.964005" lat="51.01724"><ele>53</ele><time>2022-04-10T07:31:37.000Z</time></trkpt><trkpt lon="5.963999" lat="51.017174"><ele>53</ele><time>2022-04-10T07:31:38.000Z</time></trkpt><trkpt lon="5.963995" lat="51.017106"><ele>53.2</ele><time>2022-04-10T07:31:39.000Z</time></trkpt><trkpt lon="5.963993" lat="51.01704"><ele>53.2</ele><time>2022-04-10T07:31:40.000Z</time></trkpt><trkpt lon="5.963992" lat="51.016972"><ele>53.4</ele><time>2022-04-10T07:31:41.000Z</time></trkpt><trkpt lon="5.963992" lat="51.016907"><ele>53.4</ele><time>2022-04-10T07:31:42.000Z</time></trkpt><trkpt lon="5.963994" lat="51.016842"><ele>53.4</ele><time>2022-04-10T07:31:43.000Z</time></trkpt><trkpt lon="5.963998" lat="51.016774"><ele>53.6</ele><time>2022-04-10T07:31:44.000Z</time></trkpt><trkpt lon="5.964004" lat="51.016709"><ele>53.6</ele><time>2022-04-10T07:31:45.000Z</time></trkpt><trkpt lon="5.964012" lat="51.016644"><ele>53.8</ele><time>2022-04-10T07:31:46.000Z</time></trkpt><trkpt lon="5.964021" lat="51.01658"><ele>53.8</ele><time>2022-04-10T07:31:47.000Z</time></trkpt><trkpt lon="5.964034" lat="51.016516"><ele>53.8</ele><time>2022-04-10T07:31:48.000Z</time></trkpt><trkpt lon="5.964047" lat="51.016453"><ele>53.8</ele><time>2022-04-10T07:31:49.000Z</time></trkpt><trkpt lon="5.964064" lat="51.016386"><ele>53.8</ele><time>2022-04-10T07:31:50.000Z</time></trkpt><trkpt lon="5.964084" lat="51.016325"><ele>53.8</ele><time>2022-04-10T07:31:51.000Z</time></trkpt><trkpt lon="5.964106" lat="51.01626"><ele>53.8</ele><time>2022-04-10T07:31:52.000Z</time></trkpt><trkpt lon="5.96413" lat="51.016199"><ele>53.8</ele><time>2022-04-10T07:31:53.000Z</time></trkpt><trkpt lon="5.964156" lat="51.016135"><ele>53.8</ele><time>2022-04-10T07:31:54.000Z</time></trkpt><trkpt lon="5.964183" lat="51.016073"><ele>54</ele><time>2022-04-10T07:31:55.000Z</time></trkpt><trkpt lon="5.964212" lat="51.016012"><ele>54</ele><time>2022-04-10T07:31:56.000Z</time></trkpt><trkpt lon="5.964242" lat="51.01595"><ele>54</ele><time>2022-04-10T07:31:57.000Z</time></trkpt><trkpt lon="5.964274" lat="51.015888"><ele>54</ele><time>2022-04-10T07:31:58.000Z</time></trkpt><trkpt lon="5.964311" lat="51.015826"><ele>54</ele><time>2022-04-10T07:31:59.000Z</time></trkpt><trkpt lon="5.964349" lat="51.015764"><ele>54.2</ele><time>2022-04-10T07:32:00.000Z</time></trkpt><trkpt lon="5.964388" lat="51.015705"><ele>54.2</ele><time>2022-04-10T07:32:01.000Z</time></trkpt><trkpt lon="5.96443" lat="51.015647"><ele>54.2</ele><time>2022-04-10T07:32:02.000Z</time></trkpt><trkpt lon="5.964475" lat="51.015586"><ele>54.2</ele><time>2022-04-10T07:32:03.000Z</time></trkpt><trkpt lon="5.964522" lat="51.015528"><ele>54.2</ele><time>2022-04-10T07:32:04.000Z</time></trkpt><trkpt lon="5.964571" lat="51.015468"><ele>54.4</ele><time>2022-04-10T07:32:05.000Z</time></trkpt><trkpt lon="5.964622" lat="51.015411"><ele>54.4</ele><time>2022-04-10T07:32:06.000Z</time></trkpt><trkpt lon="5.964674" lat="51.015353"><ele>54.4</ele><time>2022-04-10T07:32:07.000Z</time></trkpt><trkpt lon="5.964727" lat="51.015293"><ele>54.4</ele><time>2022-04-10T07:32:08.000Z</time></trkpt><trkpt lon="5.964784" lat="51.015237"><ele>54.4</ele><time>2022-04-10T07:32:09.000Z</time></trkpt><trkpt lon="5.964844" lat="51.015178"><ele>54.4</ele><time>2022-04-10T07:32:10.000Z</time></trkpt><trkpt lon="5.964904" lat="51.015122"><ele>54.4</ele><time>2022-04-10T07:32:11.000Z</time></trkpt><trkpt lon="5.964966" lat="51.015069"><ele>54.4</ele><time>2022-04-10T07:32:12.000Z</time></trkpt><trkpt lon="5.965031" lat="51.015015"><ele>54.4</ele><time>2022-04-10T07:32:13.000Z</time></trkpt><trkpt lon="5.965099" lat="51.014958"><ele>54.4</ele><time>2022-04-10T07:32:14.000Z</time></trkpt><trkpt lon="5.965168" lat="51.014904"><ele>54.4</ele><time>2022-04-10T07:32:15.000Z</time></trkpt><trkpt lon="5.965235" lat="51.014851"><ele>54.6</ele><time>2022-04-10T07:32:16.000Z</time></trkpt><trkpt lon="5.965302" lat="51.014798"><ele>54.6</ele><time>2022-04-10T07:32:17.000Z</time></trkpt><trkpt lon="5.965372" lat="51.014745"><ele>54.6</ele><time>2022-04-10T07:32:18.000Z</time></trkpt><trkpt lon="5.965446" lat="51.014694"><ele>54.6</ele><time>2022-04-10T07:32:19.000Z</time></trkpt><trkpt lon="5.965519" lat="51.014641"><ele>54.6</ele><time>2022-04-10T07:32:20.000Z</time></trkpt><trkpt lon="5.96559" lat="51.014589"><ele>54.6</ele><time>2022-04-10T07:32:21.000Z</time></trkpt><trkpt lon="5.965664" lat="51.014538"><ele>54.8</ele><time>2022-04-10T07:32:22.000Z</time></trkpt><trkpt lon="5.965737" lat="51.014486"><ele>54.8</ele><time>2022-04-10T07:32:23.000Z</time></trkpt><trkpt lon="5.965811" lat="51.014435"><ele>54.8</ele><time>2022-04-10T07:32:24.000Z</time></trkpt><trkpt lon="5.965885" lat="51.014383"><ele>54.8</ele><time>2022-04-10T07:32:25.000Z</time></trkpt><trkpt lon="5.965963" lat="51.014328"><ele>54.8</ele><time>2022-04-10T07:32:26.000Z</time></trkpt><trkpt lon="5.96604" lat="51.014275"><ele>54.8</ele><time>2022-04-10T07:32:27.000Z</time></trkpt><trkpt lon="5.966115" lat="51.01422"><ele>55</ele><time>2022-04-10T07:32:28.000Z</time></trkpt><trkpt lon="5.966191" lat="51.014164"><ele>55</ele><time>2022-04-10T07:32:29.000Z</time></trkpt><trkpt lon="5.966269" lat="51.014111"><ele>55</ele><time>2022-04-10T07:32:30.000Z</time></trkpt><trkpt lon="5.966346" lat="51.014057"><ele>54.8</ele><time>2022-04-10T07:32:31.000Z</time></trkpt><trkpt lon="5.966421" lat="51.014"><ele>55</ele><time>2022-04-10T07:32:32.000Z</time></trkpt><trkpt lon="5.966491" lat="51.013946"><ele>55</ele><time>2022-04-10T07:32:33.000Z</time></trkpt><trkpt lon="5.96656" lat="51.013889"><ele>55.2</ele><time>2022-04-10T07:32:34.000Z</time></trkpt><trkpt lon="5.966631" lat="51.013831"><ele>55.2</ele><time>2022-04-10T07:32:35.000Z</time></trkpt><trkpt lon="5.966695" lat="51.013774"><ele>55.2</ele><time>2022-04-10T07:32:36.000Z</time></trkpt><trkpt lon="5.966754" lat="51.013716"><ele>55.2</ele><time>2022-04-10T07:32:37.000Z</time></trkpt><trkpt lon="5.966817" lat="51.013655"><ele>55.2</ele><time>2022-04-10T07:32:38.000Z</time></trkpt><trkpt lon="5.966879" lat="51.013594"><ele>55.2</ele><time>2022-04-10T07:32:39.000Z</time></trkpt><trkpt lon="5.966941" lat="51.013533"><ele>55.2</ele><time>2022-04-10T07:32:40.000Z</time></trkpt><trkpt lon="5.967003" lat="51.013473"><ele>55.4</ele><time>2022-04-10T07:32:41.000Z</time></trkpt><trkpt lon="5.967064" lat="51.013416"><ele>55.4</ele><time>2022-04-10T07:32:42.000Z</time></trkpt><trkpt lon="5.967127" lat="51.013354"><ele>55.4</ele><time>2022-04-10T07:32:43.000Z</time></trkpt><trkpt lon="5.967189" lat="51.013297"><ele>55.4</ele><time>2022-04-10T07:32:44.000Z</time></trkpt><trkpt lon="5.96725" lat="51.013235"><ele>55.6</ele><time>2022-04-10T07:32:45.000Z</time></trkpt><trkpt lon="5.96731" lat="51.013176"><ele>55.6</ele><time>2022-04-10T07:32:46.000Z</time></trkpt><trkpt lon="5.96737" lat="51.013118"><ele>55.8</ele><time>2022-04-10T07:32:47.000Z</time></trkpt><trkpt lon="5.96743" lat="51.01306"><ele>55.8</ele><time>2022-04-10T07:32:48.000Z</time></trkpt><trkpt lon="5.96749" lat="51.013"><ele>56</ele><time>2022-04-10T07:32:49.000Z</time></trkpt><trkpt lon="5.967549" lat="51.012943"><ele>56</ele><time>2022-04-10T07:32:50.000Z</time></trkpt><trkpt lon="5.96761" lat="51.012885"><ele>56.2</ele><time>2022-04-10T07:32:51.000Z</time></trkpt><trkpt lon="5.967667" lat="51.012828"><ele>56.2</ele><time>2022-04-10T07:32:52.000Z</time></trkpt><trkpt lon="5.967723" lat="51.012772"><ele>56.2</ele><time>2022-04-10T07:32:53.000Z</time></trkpt><trkpt lon="5.967776" lat="51.012717"><ele>56.2</ele><time>2022-04-10T07:32:54.000Z</time></trkpt><trkpt lon="5.967829" lat="51.012661"><ele>56.2</ele><time>2022-04-10T07:32:55.000Z</time></trkpt><trkpt lon="5.967884" lat="51.012606"><ele>56.2</ele><time>2022-04-10T07:32:56.000Z</time></trkpt><trkpt lon="5.967939" lat="51.012546"><ele>56.2</ele><time>2022-04-10T07:32:57.000Z</time></trkpt><trkpt lon="5.967995" lat="51.012488"><ele>56.2</ele><time>2022-04-10T07:32:58.000Z</time></trkpt><trkpt lon="5.968048" lat="51.012426"><ele>56</ele><time>2022-04-10T07:32:59.000Z</time></trkpt><trkpt lon="5.968102" lat="51.012362"><ele>56</ele><time>2022-04-10T07:33:00.000Z</time></trkpt><trkpt lon="5.968154" lat="51.012299"><ele>55.8</ele><time>2022-04-10T07:33:01.000Z</time></trkpt><trkpt lon="5.9682" lat="51.012235"><ele>55.8</ele><time>2022-04-10T07:33:02.000Z</time></trkpt><trkpt lon="5.96824" lat="51.012169"><ele>55.8</ele><time>2022-04-10T07:33:03.000Z</time></trkpt><trkpt lon="5.968276" lat="51.012101"><ele>55.8</ele><time>2022-04-10T07:33:04.000Z</time></trkpt><trkpt lon="5.968308" lat="51.012035"><ele>55.8</ele><time>2022-04-10T07:33:05.000Z</time></trkpt><trkpt lon="5.968339" lat="51.011967"><ele>55.8</ele><time>2022-04-10T07:33:06.000Z</time></trkpt><trkpt lon="5.96837" lat="51.011899"><ele>55.8</ele><time>2022-04-10T07:33:07.000Z</time></trkpt><trkpt lon="5.968401" lat="51.011833"><ele>55.8</ele><time>2022-04-10T07:33:08.000Z</time></trkpt><trkpt lon="5.968431" lat="51.011766"><ele>55.8</ele><time>2022-04-10T07:33:09.000Z</time></trkpt><trkpt lon="5.968461" lat="51.011701"><ele>55.8</ele><time>2022-04-10T07:33:10.000Z</time></trkpt><trkpt lon="5.968488" lat="51.011632"><ele>55.8</ele><time>2022-04-10T07:33:11.000Z</time></trkpt><trkpt lon="5.968516" lat="51.011562"><ele>55.8</ele><time>2022-04-10T07:33:12.000Z</time></trkpt><trkpt lon="5.968542" lat="51.011495"><ele>55.8</ele><time>2022-04-10T07:33:13.000Z</time></trkpt><trkpt lon="5.968569" lat="51.011428"><ele>55.8</ele><time>2022-04-10T07:33:14.000Z</time></trkpt><trkpt lon="5.968596" lat="51.01136"><ele>55.8</ele><time>2022-04-10T07:33:15.000Z</time></trkpt><trkpt lon="5.968621" lat="51.011293"><ele>55.8</ele><time>2022-04-10T07:33:16.000Z</time></trkpt><trkpt lon="5.968645" lat="51.011228"><ele>55.8</ele><time>2022-04-10T07:33:17.000Z</time></trkpt><trkpt lon="5.96867" lat="51.011163"><ele>56</ele><time>2022-04-10T07:33:18.000Z</time></trkpt><trkpt lon="5.968694" lat="51.011099"><ele>56</ele><time>2022-04-10T07:33:19.000Z</time></trkpt><trkpt lon="5.968714" lat="51.011038"><ele>56.2</ele><time>2022-04-10T07:33:20.000Z</time></trkpt><trkpt lon="5.968728" lat="51.010978"><ele>56.4</ele><time>2022-04-10T07:33:21.000Z</time></trkpt><trkpt lon="5.968736" lat="51.010918"><ele>56.6</ele><time>2022-04-10T07:33:22.000Z</time></trkpt><trkpt lon="5.968747" lat="51.010855"><ele>56.8</ele><time>2022-04-10T07:33:23.000Z</time></trkpt><trkpt lon="5.968766" lat="51.010793"><ele>57.2</ele><time>2022-04-10T07:33:24.000Z</time></trkpt><trkpt lon="5.968787" lat="51.010727"><ele>57.2</ele><time>2022-04-10T07:33:25.000Z</time></trkpt><trkpt lon="5.968807" lat="51.010658"><ele>57.2</ele><time>2022-04-10T07:33:26.000Z</time></trkpt><trkpt lon="5.968827" lat="51.010591"><ele>56.8</ele><time>2022-04-10T07:33:27.000Z</time></trkpt><trkpt lon="5.968849" lat="51.01052"><ele>56.6</ele><time>2022-04-10T07:33:28.000Z</time></trkpt><trkpt lon="5.968872" lat="51.010452"><ele>56.4</ele><time>2022-04-10T07:33:29.000Z</time></trkpt><trkpt lon="5.968893" lat="51.01039"><ele>56.2</ele><time>2022-04-10T07:33:30.000Z</time></trkpt><trkpt lon="5.96892" lat="51.010311"><ele>56.2</ele><time>2022-04-10T07:33:31.000Z</time></trkpt><trkpt lon="5.968942" lat="51.010244"><ele>56.4</ele><time>2022-04-10T07:33:32.000Z</time></trkpt><trkpt lon="5.968963" lat="51.010178"><ele>56.4</ele><time>2022-04-10T07:33:33.000Z</time></trkpt><trkpt lon="5.968983" lat="51.010113"><ele>56.4</ele><time>2022-04-10T07:33:34.000Z</time></trkpt><trkpt lon="5.969002" lat="51.010045"><ele>56.4</ele><time>2022-04-10T07:33:35.000Z</time></trkpt><trkpt lon="5.96902" lat="51.009979"><ele>56.8</ele><time>2022-04-10T07:33:36.000Z</time></trkpt><trkpt lon="5.969036" lat="51.009909"><ele>56.8</ele><time>2022-04-10T07:33:37.000Z</time></trkpt><trkpt lon="5.969048" lat="51.009837"><ele>56.8</ele><time>2022-04-10T07:33:38.000Z</time></trkpt><trkpt lon="5.96906" lat="51.009764"><ele>56.8</ele><time>2022-04-10T07:33:39.000Z</time></trkpt><trkpt lon="5.969073" lat="51.009695"><ele>56.8</ele><time>2022-04-10T07:33:40.000Z</time></trkpt><trkpt lon="5.969085" lat="51.009628"><ele>56.8</ele><time>2022-04-10T07:33:41.000Z</time></trkpt><trkpt lon="5.969098" lat="51.009557"><ele>56.8</ele><time>2022-04-10T07:33:42.000Z</time></trkpt><trkpt lon="5.969111" lat="51.009492"><ele>57</ele><time>2022-04-10T07:33:43.000Z</time></trkpt><trkpt lon="5.969125" lat="51.009426"><ele>57</ele><time>2022-04-10T07:33:44.000Z</time></trkpt><trkpt lon="5.969136" lat="51.009359"><ele>57</ele><time>2022-04-10T07:33:45.000Z</time></trkpt><trkpt lon="5.969148" lat="51.009293"><ele>57.2</ele><time>2022-04-10T07:33:46.000Z</time></trkpt><trkpt lon="5.96916" lat="51.009229"><ele>57.2</ele><time>2022-04-10T07:33:47.000Z</time></trkpt><trkpt lon="5.969173" lat="51.009164"><ele>57.4</ele><time>2022-04-10T07:33:48.000Z</time></trkpt><trkpt lon="5.969185" lat="51.0091"><ele>57.4</ele><time>2022-04-10T07:33:49.000Z</time></trkpt><trkpt lon="5.969198" lat="51.009039"><ele>57.4</ele><time>2022-04-10T07:33:50.000Z</time></trkpt><trkpt lon="5.969213" lat="51.008978"><ele>57.6</ele><time>2022-04-10T07:33:51.000Z</time></trkpt><trkpt lon="5.969233" lat="51.008916"><ele>57.8</ele><time>2022-04-10T07:33:52.000Z</time></trkpt><trkpt lon="5.969261" lat="51.008857"><ele>58</ele><time>2022-04-10T07:33:53.000Z</time></trkpt><trkpt lon="5.969296" lat="51.008796"><ele>58.4</ele><time>2022-04-10T07:33:54.000Z</time></trkpt><trkpt lon="5.969328" lat="51.008737"><ele>58.6</ele><time>2022-04-10T07:33:55.000Z</time></trkpt><trkpt lon="5.969355" lat="51.008673"><ele>58.8</ele><time>2022-04-10T07:33:56.000Z</time></trkpt><trkpt lon="5.969378" lat="51.008611"><ele>59.2</ele><time>2022-04-10T07:33:57.000Z</time></trkpt><trkpt lon="5.969401" lat="51.008547"><ele>59.4</ele><time>2022-04-10T07:33:58.000Z</time></trkpt><trkpt lon="5.969423" lat="51.008485"><ele>59.8</ele><time>2022-04-10T07:33:59.000Z</time></trkpt><trkpt lon="5.969445" lat="51.008421"><ele>59.8</ele><time>2022-04-10T07:34:00.000Z</time></trkpt><trkpt lon="5.969467" lat="51.00836"><ele>60</ele><time>2022-04-10T07:34:01.000Z</time></trkpt><trkpt lon="5.96949" lat="51.008298"><ele>60.2</ele><time>2022-04-10T07:34:02.000Z</time></trkpt><trkpt lon="5.969513" lat="51.008233"><ele>60.4</ele><time>2022-04-10T07:34:03.000Z</time></trkpt><trkpt lon="5.969536" lat="51.008163"><ele>60.8</ele><time>2022-04-10T07:34:04.000Z</time></trkpt><trkpt lon="5.969558" lat="51.008096"><ele>61</ele><time>2022-04-10T07:34:05.000Z</time></trkpt><trkpt lon="5.969579" lat="51.008031"><ele>61.2</ele><time>2022-04-10T07:34:06.000Z</time></trkpt><trkpt lon="5.9696" lat="51.007968"><ele>61.4</ele><time>2022-04-10T07:34:07.000Z</time></trkpt><trkpt lon="5.96962" lat="51.007907"><ele>61.6</ele><time>2022-04-10T07:34:08.000Z</time></trkpt><trkpt lon="5.969641" lat="51.007844"><ele>61.6</ele><time>2022-04-10T07:34:09.000Z</time></trkpt><trkpt lon="5.969662" lat="51.00778"><ele>61.8</ele><time>2022-04-10T07:34:10.000Z</time></trkpt><trkpt lon="5.969682" lat="51.007719"><ele>61.8</ele><time>2022-04-10T07:34:11.000Z</time></trkpt><trkpt lon="5.969701" lat="51.007658"><ele>62</ele><time>2022-04-10T07:34:12.000Z</time></trkpt><trkpt lon="5.96972" lat="51.007596"><ele>62</ele><time>2022-04-10T07:34:13.000Z</time></trkpt><trkpt lon="5.969739" lat="51.007533"><ele>62.2</ele><time>2022-04-10T07:34:14.000Z</time></trkpt><trkpt lon="5.969761" lat="51.007472"><ele>62.2</ele><time>2022-04-10T07:34:15.000Z</time></trkpt><trkpt lon="5.969781" lat="51.007411"><ele>62.4</ele><time>2022-04-10T07:34:16.000Z</time></trkpt><trkpt lon="5.969802" lat="51.007349"><ele>62.4</ele><time>2022-04-10T07:34:17.000Z</time></trkpt><trkpt lon="5.969823" lat="51.007288"><ele>62.4</ele><time>2022-04-10T07:34:18.000Z</time></trkpt><trkpt lon="5.969843" lat="51.007229"><ele>62.4</ele><time>2022-04-10T07:34:19.000Z</time></trkpt><trkpt lon="5.969864" lat="51.007165"><ele>62.6</ele><time>2022-04-10T07:34:20.000Z</time></trkpt><trkpt lon="5.969886" lat="51.007101"><ele>62.8</ele><time>2022-04-10T07:34:21.000Z</time></trkpt><trkpt lon="5.969908" lat="51.007041"><ele>62.8</ele><time>2022-04-10T07:34:22.000Z</time></trkpt><trkpt lon="5.969929" lat="51.006982"><ele>62.8</ele><time>2022-04-10T07:34:23.000Z</time></trkpt><trkpt lon="5.96995" lat="51.006919"><ele>63</ele><time>2022-04-10T07:34:24.000Z</time></trkpt><trkpt lon="5.96997" lat="51.006857"><ele>63</ele><time>2022-04-10T07:34:25.000Z</time></trkpt><trkpt lon="5.969991" lat="51.006796"><ele>63</ele><time>2022-04-10T07:34:26.000Z</time></trkpt><trkpt lon="5.970011" lat="51.006736"><ele>62.8</ele><time>2022-04-10T07:34:27.000Z</time></trkpt><trkpt lon="5.970026" lat="51.006679"><ele>63</ele><time>2022-04-10T07:34:28.000Z</time></trkpt><trkpt lon="5.970036" lat="51.006621"><ele>63.2</ele><time>2022-04-10T07:34:29.000Z</time></trkpt><trkpt lon="5.970056" lat="51.006561"><ele>63.2</ele><time>2022-04-10T07:34:30.000Z</time></trkpt><trkpt lon="5.970082" lat="51.006506"><ele>63.2</ele><time>2022-04-10T07:34:31.000Z</time></trkpt><trkpt lon="5.970105" lat="51.006446"><ele>63.2</ele><time>2022-04-10T07:34:32.000Z</time></trkpt><trkpt lon="5.970127" lat="51.006384"><ele>63.4</ele><time>2022-04-10T07:34:33.000Z</time></trkpt><trkpt lon="5.970148" lat="51.006322"><ele>63.4</ele><time>2022-04-10T07:34:34.000Z</time></trkpt><trkpt lon="5.970167" lat="51.006258"><ele>63.4</ele><time>2022-04-10T07:34:35.000Z</time></trkpt><trkpt lon="5.970181" lat="51.006198"><ele>63.2</ele><time>2022-04-10T07:34:36.000Z</time></trkpt><trkpt lon="5.970189" lat="51.006139"><ele>63.2</ele><time>2022-04-10T07:34:37.000Z</time></trkpt><trkpt lon="5.970189" lat="51.006081"><ele>63.2</ele><time>2022-04-10T07:34:38.000Z</time></trkpt><trkpt lon="5.970202" lat="51.006017"><ele>63.2</ele><time>2022-04-10T07:34:39.000Z</time></trkpt><trkpt lon="5.970219" lat="51.005954"><ele>63.2</ele><time>2022-04-10T07:34:40.000Z</time></trkpt><trkpt lon="5.970235" lat="51.005896"><ele>63.2</ele><time>2022-04-10T07:34:41.000Z</time></trkpt><trkpt lon="5.970248" lat="51.005837"><ele>63.2</ele><time>2022-04-10T07:34:42.000Z</time></trkpt><trkpt lon="5.970261" lat="51.00578"><ele>63.2</ele><time>2022-04-10T07:34:43.000Z</time></trkpt><trkpt lon="5.970271" lat="51.005722"><ele>63</ele><time>2022-04-10T07:34:44.000Z</time></trkpt><trkpt lon="5.97028" lat="51.005664"><ele>63</ele><time>2022-04-10T07:34:45.000Z</time></trkpt><trkpt lon="5.970287" lat="51.005607"><ele>63</ele><time>2022-04-10T07:34:46.000Z</time></trkpt><trkpt lon="5.970297" lat="51.005549"><ele>63</ele><time>2022-04-10T07:34:47.000Z</time></trkpt><trkpt lon="5.97031" lat="51.005488"><ele>62.8</ele><time>2022-04-10T07:34:48.000Z</time></trkpt><trkpt lon="5.970331" lat="51.005426"><ele>62.8</ele><time>2022-04-10T07:34:49.000Z</time></trkpt><trkpt lon="5.970362" lat="51.005362"><ele>62.6</ele><time>2022-04-10T07:34:50.000Z</time></trkpt><trkpt lon="5.970403" lat="51.005299"><ele>62.6</ele><time>2022-04-10T07:34:51.000Z</time></trkpt><trkpt lon="5.970458" lat="51.005242"><ele>62.4</ele><time>2022-04-10T07:34:52.000Z</time></trkpt><trkpt lon="5.970522" lat="51.005188"><ele>62.4</ele><time>2022-04-10T07:34:53.000Z</time></trkpt><trkpt lon="5.970591" lat="51.005138"><ele>62.2</ele><time>2022-04-10T07:34:54.000Z</time></trkpt><trkpt lon="5.970668" lat="51.005095"><ele>62.2</ele><time>2022-04-10T07:34:55.000Z</time></trkpt><trkpt lon="5.970753" lat="51.005051"><ele>62.4</ele><time>2022-04-10T07:34:56.000Z</time></trkpt><trkpt lon="5.970839" lat="51.00501"><ele>62.6</ele><time>2022-04-10T07:34:57.000Z</time></trkpt><trkpt lon="5.970928" lat="51.004966"><ele>62.6</ele><time>2022-04-10T07:34:58.000Z</time></trkpt><trkpt lon="5.971011" lat="51.00492"><ele>62.8</ele><time>2022-04-10T07:34:59.000Z</time></trkpt><trkpt lon="5.971095" lat="51.004877"><ele>62.8</ele><time>2022-04-10T07:35:00.000Z</time></trkpt><trkpt lon="5.971182" lat="51.004837"><ele>63</ele><time>2022-04-10T07:35:01.000Z</time></trkpt><trkpt lon="5.97127" lat="51.004795"><ele>63</ele><time>2022-04-10T07:35:02.000Z</time></trkpt><trkpt lon="5.971355" lat="51.004752"><ele>63</ele><time>2022-04-10T07:35:03.000Z</time></trkpt><trkpt lon="5.971441" lat="51.004706"><ele>63</ele><time>2022-04-10T07:35:04.000Z</time></trkpt><trkpt lon="5.971529" lat="51.004661"><ele>63</ele><time>2022-04-10T07:35:05.000Z</time></trkpt><trkpt lon="5.971616" lat="51.004619"><ele>62.8</ele><time>2022-04-10T07:35:06.000Z</time></trkpt><trkpt lon="5.971701" lat="51.004577"><ele>62.8</ele><time>2022-04-10T07:35:07.000Z</time></trkpt><trkpt lon="5.971786" lat="51.004534"><ele>63</ele><time>2022-04-10T07:35:08.000Z</time></trkpt><trkpt lon="5.971878" lat="51.004495"><ele>63</ele><time>2022-04-10T07:35:09.000Z</time></trkpt><trkpt lon="5.971966" lat="51.004456"><ele>63.2</ele><time>2022-04-10T07:35:10.000Z</time></trkpt><trkpt lon="5.972056" lat="51.004414"><ele>63.4</ele><time>2022-04-10T07:35:11.000Z</time></trkpt><trkpt lon="5.972144" lat="51.004375"><ele>63.6</ele><time>2022-04-10T07:35:12.000Z</time></trkpt><trkpt lon="5.97223" lat="51.004335"><ele>63.6</ele><time>2022-04-10T07:35:13.000Z</time></trkpt><trkpt lon="5.972317" lat="51.004294"><ele>63.8</ele><time>2022-04-10T07:35:14.000Z</time></trkpt><trkpt lon="5.9724" lat="51.00425"><ele>63.8</ele><time>2022-04-10T07:35:15.000Z</time></trkpt><trkpt lon="5.972485" lat="51.004209"><ele>63.8</ele><time>2022-04-10T07:35:16.000Z</time></trkpt><trkpt lon="5.972568" lat="51.004169"><ele>63.8</ele><time>2022-04-10T07:35:17.000Z</time></trkpt><trkpt lon="5.972649" lat="51.004129"><ele>63.8</ele><time>2022-04-10T07:35:18.000Z</time></trkpt><trkpt lon="5.972731" lat="51.00409"><ele>64</ele><time>2022-04-10T07:35:19.000Z</time></trkpt><trkpt lon="5.972812" lat="51.004048"><ele>64</ele><time>2022-04-10T07:35:20.000Z</time></trkpt><trkpt lon="5.972892" lat="51.004005"><ele>64.2</ele><time>2022-04-10T07:35:21.000Z</time></trkpt><trkpt lon="5.972972" lat="51.003965"><ele>64.2</ele><time>2022-04-10T07:35:22.000Z</time></trkpt><trkpt lon="5.973049" lat="51.003926"><ele>64.2</ele><time>2022-04-10T07:35:23.000Z</time></trkpt><trkpt lon="5.973129" lat="51.003884"><ele>64.2</ele><time>2022-04-10T07:35:24.000Z</time></trkpt><trkpt lon="5.973208" lat="51.003845"><ele>64</ele><time>2022-04-10T07:35:25.000Z</time></trkpt><trkpt lon="5.973289" lat="51.003803"><ele>63.8</ele><time>2022-04-10T07:35:26.000Z</time></trkpt><trkpt lon="5.973374" lat="51.003761"><ele>63.6</ele><time>2022-04-10T07:35:27.000Z</time></trkpt><trkpt lon="5.97346" lat="51.00372"><ele>63.8</ele><time>2022-04-10T07:35:28.000Z</time></trkpt><trkpt lon="5.973545" lat="51.003682"><ele>64</ele><time>2022-04-10T07:35:29.000Z</time></trkpt><trkpt lon="5.973631" lat="51.003644"><ele>64</ele><time>2022-04-10T07:35:30.000Z</time></trkpt><trkpt lon="5.973717" lat="51.003606"><ele>64</ele><time>2022-04-10T07:35:31.000Z</time></trkpt><trkpt lon="5.973799" lat="51.003569"><ele>64.2</ele><time>2022-04-10T07:35:32.000Z</time></trkpt><trkpt lon="5.973888" lat="51.00353"><ele>64.2</ele><time>2022-04-10T07:35:33.000Z</time></trkpt><trkpt lon="5.973973" lat="51.003491"><ele>64.6</ele><time>2022-04-10T07:35:34.000Z</time></trkpt><trkpt lon="5.974054" lat="51.003451"><ele>64.6</ele><time>2022-04-10T07:35:35.000Z</time></trkpt><trkpt lon="5.974139" lat="51.00341"><ele>64.8</ele><time>2022-04-10T07:35:36.000Z</time></trkpt><trkpt lon="5.974221" lat="51.003369"><ele>64.6</ele><time>2022-04-10T07:35:37.000Z</time></trkpt><trkpt lon="5.974304" lat="51.003327"><ele>64.6</ele><time>2022-04-10T07:35:38.000Z</time></trkpt><trkpt lon="5.974385" lat="51.003288"><ele>64.6</ele><time>2022-04-10T07:35:39.000Z</time></trkpt><trkpt lon="5.974467" lat="51.003247"><ele>64.4</ele><time>2022-04-10T07:35:40.000Z</time></trkpt><trkpt lon="5.974552" lat="51.003205"><ele>64.2</ele><time>2022-04-10T07:35:41.000Z</time></trkpt><trkpt lon="5.974634" lat="51.003167"><ele>64.2</ele><time>2022-04-10T07:35:42.000Z</time></trkpt><trkpt lon="5.974717" lat="51.003126"><ele>64.4</ele><time>2022-04-10T07:35:43.000Z</time></trkpt><trkpt lon="5.974805" lat="51.003087"><ele>64.6</ele><time>2022-04-10T07:35:44.000Z</time></trkpt><trkpt lon="5.974891" lat="51.003048"><ele>64.8</ele><time>2022-04-10T07:35:45.000Z</time></trkpt><trkpt lon="5.974976" lat="51.003007"><ele>64.8</ele><time>2022-04-10T07:35:46.000Z</time></trkpt><trkpt lon="5.975065" lat="51.002969"><ele>64.8</ele><time>2022-04-10T07:35:47.000Z</time></trkpt><trkpt lon="5.975149" lat="51.00293"><ele>65</ele><time>2022-04-10T07:35:48.000Z</time></trkpt><trkpt lon="5.97523" lat="51.002887"><ele>65</ele><time>2022-04-10T07:35:49.000Z</time></trkpt><trkpt lon="5.97531" lat="51.002842"><ele>64.8</ele><time>2022-04-10T07:35:50.000Z</time></trkpt><trkpt lon="5.975392" lat="51.002801"><ele>64.8</ele><time>2022-04-10T07:35:51.000Z</time></trkpt><trkpt lon="5.975473" lat="51.002762"><ele>64.8</ele><time>2022-04-10T07:35:52.000Z</time></trkpt><trkpt lon="5.975556" lat="51.002721"><ele>64.8</ele><time>2022-04-10T07:35:53.000Z</time></trkpt><trkpt lon="5.97564" lat="51.002679"><ele>64.8</ele><time>2022-04-10T07:35:54.000Z</time></trkpt><trkpt lon="5.97572" lat="51.002641"><ele>64.8</ele><time>2022-04-10T07:35:55.000Z</time></trkpt><trkpt lon="5.975801" lat="51.002599"><ele>64.8</ele><time>2022-04-10T07:35:56.000Z</time></trkpt><trkpt lon="5.975882" lat="51.002557"><ele>64.8</ele><time>2022-04-10T07:35:57.000Z</time></trkpt><trkpt lon="5.975963" lat="51.002518"><ele>64.8</ele><time>2022-04-10T07:35:58.000Z</time></trkpt><trkpt lon="5.976045" lat="51.002476"><ele>65</ele><time>2022-04-10T07:35:59.000Z</time></trkpt><trkpt lon="5.976128" lat="51.002435"><ele>65</ele><time>2022-04-10T07:36:00.000Z</time></trkpt><trkpt lon="5.976214" lat="51.002397"><ele>65</ele><time>2022-04-10T07:36:01.000Z</time></trkpt><trkpt lon="5.9763" lat="51.00236"><ele>65</ele><time>2022-04-10T07:36:02.000Z</time></trkpt><trkpt lon="5.976383" lat="51.002324"><ele>65</ele><time>2022-04-10T07:36:03.000Z</time></trkpt><trkpt lon="5.976464" lat="51.00229"><ele>65</ele><time>2022-04-10T07:36:04.000Z</time></trkpt><trkpt lon="5.976548" lat="51.002264"><ele>65.2</ele><time>2022-04-10T07:36:05.000Z</time></trkpt><trkpt lon="5.97663" lat="51.002241"><ele>65.2</ele><time>2022-04-10T07:36:06.000Z</time></trkpt><trkpt lon="5.976711" lat="51.002215"><ele>65.2</ele><time>2022-04-10T07:36:07.000Z</time></trkpt><trkpt lon="5.976793" lat="51.002178"><ele>65.2</ele><time>2022-04-10T07:36:08.000Z</time></trkpt><trkpt lon="5.976875" lat="51.002133"><ele>65</ele><time>2022-04-10T07:36:09.000Z</time></trkpt><trkpt lon="5.976958" lat="51.00209"><ele>64.8</ele><time>2022-04-10T07:36:10.000Z</time></trkpt><trkpt lon="5.97704" lat="51.002044"><ele>64.8</ele><time>2022-04-10T07:36:11.000Z</time></trkpt><trkpt lon="5.977121" lat="51.001999"><ele>64.8</ele><time>2022-04-10T07:36:12.000Z</time></trkpt><trkpt lon="5.977201" lat="51.001958"><ele>64.8</ele><time>2022-04-10T07:36:13.000Z</time></trkpt><trkpt lon="5.977279" lat="51.001916"><ele>64.8</ele><time>2022-04-10T07:36:14.000Z</time></trkpt><trkpt lon="5.977358" lat="51.001874"><ele>64.8</ele><time>2022-04-10T07:36:15.000Z</time></trkpt><trkpt lon="5.977439" lat="51.001832"><ele>65</ele><time>2022-04-10T07:36:16.000Z</time></trkpt><trkpt lon="5.977519" lat="51.00179"><ele>65.2</ele><time>2022-04-10T07:36:17.000Z</time></trkpt><trkpt lon="5.977598" lat="51.001747"><ele>65.2</ele><time>2022-04-10T07:36:18.000Z</time></trkpt><trkpt lon="5.977678" lat="51.001706"><ele>65.4</ele><time>2022-04-10T07:36:19.000Z</time></trkpt><trkpt lon="5.977757" lat="51.001664"><ele>65.4</ele><time>2022-04-10T07:36:20.000Z</time></trkpt><trkpt lon="5.977838" lat="51.001622"><ele>65.4</ele><time>2022-04-10T07:36:21.000Z</time></trkpt><trkpt lon="5.977916" lat="51.00158"><ele>65.4</ele><time>2022-04-10T07:36:22.000Z</time></trkpt><trkpt lon="5.977998" lat="51.001535"><ele>65.4</ele><time>2022-04-10T07:36:23.000Z</time></trkpt><trkpt lon="5.97808" lat="51.001495"><ele>65.4</ele><time>2022-04-10T07:36:24.000Z</time></trkpt><trkpt lon="5.978161" lat="51.00145"><ele>65.6</ele><time>2022-04-10T07:36:25.000Z</time></trkpt><trkpt lon="5.978242" lat="51.001408"><ele>65.6</ele><time>2022-04-10T07:36:26.000Z</time></trkpt><trkpt lon="5.978324" lat="51.001367"><ele>65.6</ele><time>2022-04-10T07:36:27.000Z</time></trkpt><trkpt lon="5.978406" lat="51.001323"><ele>65.6</ele><time>2022-04-10T07:36:28.000Z</time></trkpt><trkpt lon="5.978486" lat="51.001277"><ele>65.8</ele><time>2022-04-10T07:36:29.000Z</time></trkpt><trkpt lon="5.978567" lat="51.001233"><ele>65.8</ele><time>2022-04-10T07:36:30.000Z</time></trkpt><trkpt lon="5.978649" lat="51.001191"><ele>65.8</ele><time>2022-04-10T07:36:31.000Z</time></trkpt><trkpt lon="5.978733" lat="51.001148"><ele>66</ele><time>2022-04-10T07:36:32.000Z</time></trkpt><trkpt lon="5.978814" lat="51.001103"><ele>66</ele><time>2022-04-10T07:36:33.000Z</time></trkpt><trkpt lon="5.978894" lat="51.001061"><ele>66</ele><time>2022-04-10T07:36:34.000Z</time></trkpt><trkpt lon="5.978978" lat="51.001014"><ele>66</ele><time>2022-04-10T07:36:35.000Z</time></trkpt><trkpt lon="5.979062" lat="51.000969"><ele>66</ele><time>2022-04-10T07:36:36.000Z</time></trkpt><trkpt lon="5.979142" lat="51.000927"><ele>65.8</ele><time>2022-04-10T07:36:37.000Z</time></trkpt><trkpt lon="5.979224" lat="51.000881"><ele>65.8</ele><time>2022-04-10T07:36:38.000Z</time></trkpt><trkpt lon="5.979306" lat="51.000836"><ele>65.8</ele><time>2022-04-10T07:36:39.000Z</time></trkpt><trkpt lon="5.979387" lat="51.000793"><ele>65.8</ele><time>2022-04-10T07:36:40.000Z</time></trkpt><trkpt lon="5.979468" lat="51.000747"><ele>65.8</ele><time>2022-04-10T07:36:41.000Z</time></trkpt><trkpt lon="5.979547" lat="51.000703"><ele>65.8</ele><time>2022-04-10T07:36:42.000Z</time></trkpt><trkpt lon="5.979629" lat="51.000661"><ele>66</ele><time>2022-04-10T07:36:43.000Z</time></trkpt><trkpt lon="5.979713" lat="51.000617"><ele>66</ele><time>2022-04-10T07:36:44.000Z</time></trkpt><trkpt lon="5.979794" lat="51.000572"><ele>66</ele><time>2022-04-10T07:36:45.000Z</time></trkpt><trkpt lon="5.979875" lat="51.000528"><ele>66</ele><time>2022-04-10T07:36:46.000Z</time></trkpt><trkpt lon="5.979958" lat="51.000484"><ele>66</ele><time>2022-04-10T07:36:47.000Z</time></trkpt><trkpt lon="5.980039" lat="51.000438"><ele>66</ele><time>2022-04-10T07:36:48.000Z</time></trkpt><trkpt lon="5.98012" lat="51.000394"><ele>66</ele><time>2022-04-10T07:36:49.000Z</time></trkpt><trkpt lon="5.9802" lat="51.000351"><ele>66</ele><time>2022-04-10T07:36:50.000Z</time></trkpt><trkpt lon="5.980283" lat="51.000306"><ele>66.2</ele><time>2022-04-10T07:36:51.000Z</time></trkpt><trkpt lon="5.980366" lat="51.000264"><ele>66.2</ele><time>2022-04-10T07:36:52.000Z</time></trkpt><trkpt lon="5.980449" lat="51.000221"><ele>66.2</ele><time>2022-04-10T07:36:53.000Z</time></trkpt><trkpt lon="5.980527" lat="51.000177"><ele>66.2</ele><time>2022-04-10T07:36:54.000Z</time></trkpt><trkpt lon="5.980604" lat="51.000136"><ele>66.2</ele><time>2022-04-10T07:36:55.000Z</time></trkpt><trkpt lon="5.98069" lat="51.000087"><ele>66.4</ele><time>2022-04-10T07:36:56.000Z</time></trkpt><trkpt lon="5.98077" lat="51.000042"><ele>66.4</ele><time>2022-04-10T07:36:57.000Z</time></trkpt><trkpt lon="5.98085" lat="50.999999"><ele>66.6</ele><time>2022-04-10T07:36:58.000Z</time></trkpt><trkpt lon="5.98093" lat="50.999955"><ele>66.6</ele><time>2022-04-10T07:36:59.000Z</time></trkpt><trkpt lon="5.98101" lat="50.999913"><ele>66.6</ele><time>2022-04-10T07:37:00.000Z</time></trkpt><trkpt lon="5.981093" lat="50.999867"><ele>66.6</ele><time>2022-04-10T07:37:01.000Z</time></trkpt><trkpt lon="5.981174" lat="50.999822"><ele>66.6</ele><time>2022-04-10T07:37:02.000Z</time></trkpt><trkpt lon="5.981258" lat="50.999778"><ele>66.6</ele><time>2022-04-10T07:37:03.000Z</time></trkpt><trkpt lon="5.98134" lat="50.999733"><ele>66.6</ele><time>2022-04-10T07:37:04.000Z</time></trkpt><trkpt lon="5.981421" lat="50.999691"><ele>66.6</ele><time>2022-04-10T07:37:05.000Z</time></trkpt><trkpt lon="5.981501" lat="50.999646"><ele>66.8</ele><time>2022-04-10T07:37:06.000Z</time></trkpt><trkpt lon="5.981581" lat="50.999604"><ele>66.8</ele><time>2022-04-10T07:37:07.000Z</time></trkpt><trkpt lon="5.98166" lat="50.999561"><ele>66.8</ele><time>2022-04-10T07:37:08.000Z</time></trkpt><trkpt lon="5.981738" lat="50.999516"><ele>66.8</ele><time>2022-04-10T07:37:09.000Z</time></trkpt><trkpt lon="5.981817" lat="50.999474"><ele>66.8</ele><time>2022-04-10T07:37:10.000Z</time></trkpt><trkpt lon="5.981897" lat="50.999432"><ele>66.8</ele><time>2022-04-10T07:37:11.000Z</time></trkpt><trkpt lon="5.981977" lat="50.999387"><ele>66.8</ele><time>2022-04-10T07:37:12.000Z</time></trkpt><trkpt lon="5.982059" lat="50.999345"><ele>67</ele><time>2022-04-10T07:37:13.000Z</time></trkpt><trkpt lon="5.982138" lat="50.999302"><ele>67</ele><time>2022-04-10T07:37:14.000Z</time></trkpt><trkpt lon="5.982217" lat="50.999257"><ele>67</ele><time>2022-04-10T07:37:15.000Z</time></trkpt><trkpt lon="5.982296" lat="50.999214"><ele>67.2</ele><time>2022-04-10T07:37:16.000Z</time></trkpt><trkpt lon="5.982375" lat="50.999173"><ele>67.2</ele><time>2022-04-10T07:37:17.000Z</time></trkpt><trkpt lon="5.982454" lat="50.999131"><ele>67.2</ele><time>2022-04-10T07:37:18.000Z</time></trkpt><trkpt lon="5.982533" lat="50.999088"><ele>67.4</ele><time>2022-04-10T07:37:19.000Z</time></trkpt><trkpt lon="5.982611" lat="50.999043"><ele>67.4</ele><time>2022-04-10T07:37:20.000Z</time></trkpt><trkpt lon="5.982687" lat="50.999002"><ele>67.4</ele><time>2022-04-10T07:37:21.000Z</time></trkpt><trkpt lon="5.982765" lat="50.998961"><ele>67.6</ele><time>2022-04-10T07:37:22.000Z</time></trkpt><trkpt lon="5.982843" lat="50.99892"><ele>67.6</ele><time>2022-04-10T07:37:23.000Z</time></trkpt><trkpt lon="5.982918" lat="50.998879"><ele>67.6</ele><time>2022-04-10T07:37:24.000Z</time></trkpt><trkpt lon="5.982994" lat="50.99884"><ele>67.8</ele><time>2022-04-10T07:37:25.000Z</time></trkpt><trkpt lon="5.98307" lat="50.9988"><ele>67.8</ele><time>2022-04-10T07:37:26.000Z</time></trkpt><trkpt lon="5.983148" lat="50.998761"><ele>68</ele><time>2022-04-10T07:37:27.000Z</time></trkpt><trkpt lon="5.983227" lat="50.998718"><ele>68</ele><time>2022-04-10T07:37:28.000Z</time></trkpt><trkpt lon="5.983306" lat="50.998676"><ele>68</ele><time>2022-04-10T07:37:29.000Z</time></trkpt><trkpt lon="5.983386" lat="50.998634"><ele>68.2</ele><time>2022-04-10T07:37:30.000Z</time></trkpt><trkpt lon="5.983466" lat="50.998592"><ele>68.2</ele><time>2022-04-10T07:37:31.000Z</time></trkpt><trkpt lon="5.983548" lat="50.998551"><ele>68.2</ele><time>2022-04-10T07:37:32.000Z</time></trkpt><trkpt lon="5.98363" lat="50.998513"><ele>68.2</ele><time>2022-04-10T07:37:33.000Z</time></trkpt><trkpt lon="5.983711" lat="50.998475"><ele>68.4</ele><time>2022-04-10T07:37:34.000Z</time></trkpt><trkpt lon="5.983796" lat="50.998438"><ele>68.4</ele><time>2022-04-10T07:37:35.000Z</time></trkpt><trkpt lon="5.98388" lat="50.998404"><ele>68.6</ele><time>2022-04-10T07:37:36.000Z</time></trkpt><trkpt lon="5.98397" lat="50.998371"><ele>68.8</ele><time>2022-04-10T07:37:37.000Z</time></trkpt><trkpt lon="5.984062" lat="50.998338"><ele>68.8</ele><time>2022-04-10T07:37:38.000Z</time></trkpt><trkpt lon="5.984156" lat="50.998301"><ele>69</ele><time>2022-04-10T07:37:39.000Z</time></trkpt><trkpt lon="5.984247" lat="50.99827"><ele>69.2</ele><time>2022-04-10T07:37:40.000Z</time></trkpt><trkpt lon="5.984337" lat="50.998237"><ele>69.2</ele><time>2022-04-10T07:37:41.000Z</time></trkpt><trkpt lon="5.984427" lat="50.998205"><ele>69.4</ele><time>2022-04-10T07:37:42.000Z</time></trkpt><trkpt lon="5.984517" lat="50.998172"><ele>69.6</ele><time>2022-04-10T07:37:43.000Z</time></trkpt><trkpt lon="5.984607" lat="50.998141"><ele>69.6</ele><time>2022-04-10T07:37:44.000Z</time></trkpt><trkpt lon="5.9847" lat="50.99811"><ele>69.6</ele><time>2022-04-10T07:37:45.000Z</time></trkpt><trkpt lon="5.984793" lat="50.998076"><ele>69.8</ele><time>2022-04-10T07:37:46.000Z</time></trkpt><trkpt lon="5.984885" lat="50.998045"><ele>69.8</ele><time>2022-04-10T07:37:47.000Z</time></trkpt><trkpt lon="5.984978" lat="50.998012"><ele>69.8</ele><time>2022-04-10T07:37:48.000Z</time></trkpt><trkpt lon="5.985072" lat="50.997981"><ele>70</ele><time>2022-04-10T07:37:49.000Z</time></trkpt><trkpt lon="5.985166" lat="50.99795"><ele>70</ele><time>2022-04-10T07:37:50.000Z</time></trkpt><trkpt lon="5.98526" lat="50.997916"><ele>70</ele><time>2022-04-10T07:37:51.000Z</time></trkpt><trkpt lon="5.985352" lat="50.997886"><ele>70.2</ele><time>2022-04-10T07:37:52.000Z</time></trkpt><trkpt lon="5.985442" lat="50.997855"><ele>70.2</ele><time>2022-04-10T07:37:53.000Z</time></trkpt><trkpt lon="5.985534" lat="50.997824"><ele>70.4</ele><time>2022-04-10T07:37:54.000Z</time></trkpt><trkpt lon="5.985623" lat="50.997791"><ele>70.6</ele><time>2022-04-10T07:37:55.000Z</time></trkpt><trkpt lon="5.985711" lat="50.997761"><ele>70.6</ele><time>2022-04-10T07:37:56.000Z</time></trkpt><trkpt lon="5.985795" lat="50.997734"><ele>70.8</ele><time>2022-04-10T07:37:57.000Z</time></trkpt><trkpt lon="5.985876" lat="50.997708"><ele>70.8</ele><time>2022-04-10T07:37:58.000Z</time></trkpt><trkpt lon="5.985953" lat="50.997681"><ele>71</ele><time>2022-04-10T07:37:59.000Z</time></trkpt><trkpt lon="5.986031" lat="50.997655"><ele>71</ele><time>2022-04-10T07:38:00.000Z</time></trkpt><trkpt lon="5.986107" lat="50.997632"><ele>71.2</ele><time>2022-04-10T07:38:01.000Z</time></trkpt><trkpt lon="5.986181" lat="50.997609"><ele>71.2</ele><time>2022-04-10T07:38:02.000Z</time></trkpt><trkpt lon="5.986255" lat="50.997588"><ele>71.4</ele><time>2022-04-10T07:38:03.000Z</time></trkpt><trkpt lon="5.986329" lat="50.997568"><ele>71.4</ele><time>2022-04-10T07:38:04.000Z</time></trkpt><trkpt lon="5.986399" lat="50.997552"><ele>71.6</ele><time>2022-04-10T07:38:05.000Z</time></trkpt><trkpt lon="5.986466" lat="50.997541"><ele>71.8</ele><time>2022-04-10T07:38:06.000Z</time></trkpt><trkpt lon="5.986528" lat="50.997536"><ele>72</ele><time>2022-04-10T07:38:07.000Z</time></trkpt><trkpt lon="5.986584" lat="50.997538"><ele>72</ele><time>2022-04-10T07:38:08.000Z</time></trkpt><trkpt lon="5.986642" lat="50.997547"><ele>72.2</ele><time>2022-04-10T07:38:09.000Z</time></trkpt><trkpt lon="5.9867" lat="50.997557"><ele>72.4</ele><time>2022-04-10T07:38:10.000Z</time></trkpt><trkpt lon="5.986762" lat="50.997565"><ele>72.4</ele><time>2022-04-10T07:38:11.000Z</time></trkpt><trkpt lon="5.986829" lat="50.997576"><ele>72.6</ele><time>2022-04-10T07:38:12.000Z</time></trkpt><trkpt lon="5.986897" lat="50.997581"><ele>72.6</ele><time>2022-04-10T07:38:13.000Z</time></trkpt><trkpt lon="5.986965" lat="50.997578"><ele>72.8</ele><time>2022-04-10T07:38:14.000Z</time></trkpt><trkpt lon="5.98703" lat="50.997563"><ele>72.8</ele><time>2022-04-10T07:38:15.000Z</time></trkpt><trkpt lon="5.987087" lat="50.997536"><ele>72.8</ele><time>2022-04-10T07:38:16.000Z</time></trkpt><trkpt lon="5.987146" lat="50.997508"><ele>72.6</ele><time>2022-04-10T07:38:17.000Z</time></trkpt><trkpt lon="5.987206" lat="50.997476"><ele>72.6</ele><time>2022-04-10T07:38:18.000Z</time></trkpt><trkpt lon="5.987258" lat="50.997437"><ele>72.4</ele><time>2022-04-10T07:38:19.000Z</time></trkpt><trkpt lon="5.987294" lat="50.997394"><ele>72.4</ele><time>2022-04-10T07:38:20.000Z</time></trkpt><trkpt lon="5.987302" lat="50.997347"><ele>72.2</ele><time>2022-04-10T07:38:21.000Z</time></trkpt><trkpt lon="5.987277" lat="50.997302"><ele>72.2</ele><time>2022-04-10T07:38:22.000Z</time></trkpt><trkpt lon="5.987248" lat="50.997257"><ele>72.2</ele><time>2022-04-10T07:38:23.000Z</time></trkpt><trkpt lon="5.987204" lat="50.997216"><ele>72</ele><time>2022-04-10T07:38:24.000Z</time></trkpt><trkpt lon="5.987157" lat="50.997178"><ele>72.2</ele><time>2022-04-10T07:38:25.000Z</time></trkpt><trkpt lon="5.987095" lat="50.997144"><ele>72.4</ele><time>2022-04-10T07:38:26.000Z</time></trkpt><trkpt lon="5.987014" lat="50.997125"><ele>72.4</ele><time>2022-04-10T07:38:27.000Z</time></trkpt><trkpt lon="5.986922" lat="50.997118"><ele>72.6</ele><time>2022-04-10T07:38:28.000Z</time></trkpt><trkpt lon="5.986824" lat="50.997106"><ele>72.4</ele><time>2022-04-10T07:38:29.000Z</time></trkpt><trkpt lon="5.986728" lat="50.997079"><ele>72</ele><time>2022-04-10T07:38:30.000Z</time></trkpt><trkpt lon="5.986642" lat="50.997038"><ele>71.6</ele><time>2022-04-10T07:38:31.000Z</time></trkpt><trkpt lon="5.986562" lat="50.996987"><ele>71.4</ele><time>2022-04-10T07:38:32.000Z</time></trkpt><trkpt lon="5.986493" lat="50.996934"><ele>71.4</ele><time>2022-04-10T07:38:33.000Z</time></trkpt><trkpt lon="5.986429" lat="50.996884"><ele>71.4</ele><time>2022-04-10T07:38:34.000Z</time></trkpt><trkpt lon="5.986368" lat="50.996831"><ele>71.4</ele><time>2022-04-10T07:38:35.000Z</time></trkpt><trkpt lon="5.986309" lat="50.996778"><ele>71.6</ele><time>2022-04-10T07:38:36.000Z</time></trkpt><trkpt lon="5.986254" lat="50.996728"><ele>71.6</ele><time>2022-04-10T07:38:37.000Z</time></trkpt><trkpt lon="5.986199" lat="50.996679"><ele>71.4</ele><time>2022-04-10T07:38:38.000Z</time></trkpt><trkpt lon="5.986141" lat="50.996629"><ele>71.6</ele><time>2022-04-10T07:38:39.000Z</time></trkpt><trkpt lon="5.986083" lat="50.996575"><ele>71.6</ele><time>2022-04-10T07:38:40.000Z</time></trkpt><trkpt lon="5.986023" lat="50.996522"><ele>71.6</ele><time>2022-04-10T07:38:41.000Z</time></trkpt><trkpt lon="5.985965" lat="50.996469"><ele>71.6</ele><time>2022-04-10T07:38:42.000Z</time></trkpt><trkpt lon="5.985908" lat="50.996415"><ele>71.6</ele><time>2022-04-10T07:38:43.000Z</time></trkpt><trkpt lon="5.985856" lat="50.996365"><ele>71.6</ele><time>2022-04-10T07:38:44.000Z</time></trkpt><trkpt lon="5.985807" lat="50.996312"><ele>71.6</ele><time>2022-04-10T07:38:45.000Z</time></trkpt><trkpt lon="5.98576" lat="50.996258"><ele>71.6</ele><time>2022-04-10T07:38:46.000Z</time></trkpt><trkpt lon="5.985714" lat="50.996205"><ele>71.6</ele><time>2022-04-10T07:38:47.000Z</time></trkpt><trkpt lon="5.985668" lat="50.99615"><ele>71.6</ele><time>2022-04-10T07:38:48.000Z</time></trkpt><trkpt lon="5.985623" lat="50.996094"><ele>71.8</ele><time>2022-04-10T07:38:49.000Z</time></trkpt><trkpt lon="5.98558" lat="50.99604"><ele>71.8</ele><time>2022-04-10T07:38:50.000Z</time></trkpt><trkpt lon="5.985535" lat="50.995983"><ele>71.8</ele><time>2022-04-10T07:38:51.000Z</time></trkpt><trkpt lon="5.985495" lat="50.995928"><ele>71.8</ele><time>2022-04-10T07:38:52.000Z</time></trkpt><trkpt lon="5.985455" lat="50.995868"><ele>71.8</ele><time>2022-04-10T07:38:53.000Z</time></trkpt><trkpt lon="5.985416" lat="50.99581"><ele>71.8</ele><time>2022-04-10T07:38:54.000Z</time></trkpt><trkpt lon="5.985376" lat="50.995751"><ele>71.8</ele><time>2022-04-10T07:38:55.000Z</time></trkpt><trkpt lon="5.985338" lat="50.99569"><ele>71.8</ele><time>2022-04-10T07:38:56.000Z</time></trkpt><trkpt lon="5.985302" lat="50.995626"><ele>72</ele><time>2022-04-10T07:38:57.000Z</time></trkpt><trkpt lon="5.985268" lat="50.995565"><ele>72.2</ele><time>2022-04-10T07:38:58.000Z</time></trkpt><trkpt lon="5.985237" lat="50.995499"><ele>72.2</ele><time>2022-04-10T07:38:59.000Z</time></trkpt><trkpt lon="5.985207" lat="50.995435"><ele>72.2</ele><time>2022-04-10T07:39:00.000Z</time></trkpt><trkpt lon="5.985179" lat="50.99537"><ele>72.2</ele><time>2022-04-10T07:39:01.000Z</time></trkpt><trkpt lon="5.985153" lat="50.995305"><ele>72.2</ele><time>2022-04-10T07:39:02.000Z</time></trkpt><trkpt lon="5.985129" lat="50.99524"><ele>72.2</ele><time>2022-04-10T07:39:03.000Z</time></trkpt><trkpt lon="5.985108" lat="50.995175"><ele>72.2</ele><time>2022-04-10T07:39:04.000Z</time></trkpt><trkpt lon="5.985088" lat="50.99511"><ele>72.4</ele><time>2022-04-10T07:39:05.000Z</time></trkpt><trkpt lon="5.98507" lat="50.995042"><ele>72.4</ele><time>2022-04-10T07:39:06.000Z</time></trkpt><trkpt lon="5.985055" lat="50.994977"><ele>72.2</ele><time>2022-04-10T07:39:07.000Z</time></trkpt><trkpt lon="5.985042" lat="50.994912"><ele>72.2</ele><time>2022-04-10T07:39:08.000Z</time></trkpt><trkpt lon="5.985031" lat="50.994843"><ele>72.2</ele><time>2022-04-10T07:39:09.000Z</time></trkpt><trkpt lon="5.985023" lat="50.994776"><ele>72.2</ele><time>2022-04-10T07:39:10.000Z</time></trkpt><trkpt lon="5.985017" lat="50.994709"><ele>71.8</ele><time>2022-04-10T07:39:11.000Z</time></trkpt><trkpt lon="5.985012" lat="50.99464"><ele>71.6</ele><time>2022-04-10T07:39:12.000Z</time></trkpt><trkpt lon="5.985007" lat="50.994572"><ele>71.6</ele><time>2022-04-10T07:39:13.000Z</time></trkpt><trkpt lon="5.985005" lat="50.994503"><ele>71.4</ele><time>2022-04-10T07:39:14.000Z</time></trkpt><trkpt lon="5.985006" lat="50.994434"><ele>71.4</ele><time>2022-04-10T07:39:15.000Z</time></trkpt><trkpt lon="5.98501" lat="50.994366"><ele>71.4</ele><time>2022-04-10T07:39:16.000Z</time></trkpt><trkpt lon="5.985015" lat="50.994297"><ele>71.6</ele><time>2022-04-10T07:39:17.000Z</time></trkpt><trkpt lon="5.985022" lat="50.994229"><ele>71.6</ele><time>2022-04-10T07:39:18.000Z</time></trkpt><trkpt lon="5.985031" lat="50.99416"><ele>71.8</ele><time>2022-04-10T07:39:19.000Z</time></trkpt><trkpt lon="5.985041" lat="50.99409"><ele>72</ele><time>2022-04-10T07:39:20.000Z</time></trkpt><trkpt lon="5.985051" lat="50.994019"><ele>72</ele><time>2022-04-10T07:39:21.000Z</time></trkpt><trkpt lon="5.985061" lat="50.99395"><ele>72</ele><time>2022-04-10T07:39:22.000Z</time></trkpt><trkpt lon="5.985071" lat="50.993882"><ele>72</ele><time>2022-04-10T07:39:23.000Z</time></trkpt><trkpt lon="5.985081" lat="50.993814"><ele>71.8</ele><time>2022-04-10T07:39:24.000Z</time></trkpt><trkpt lon="5.985093" lat="50.993748"><ele>71.6</ele><time>2022-04-10T07:39:25.000Z</time></trkpt><trkpt lon="5.985102" lat="50.993682"><ele>71.6</ele><time>2022-04-10T07:39:26.000Z</time></trkpt><trkpt lon="5.985112" lat="50.993617"><ele>71.6</ele><time>2022-04-10T07:39:27.000Z</time></trkpt><trkpt lon="5.985124" lat="50.993554"><ele>71.6</ele><time>2022-04-10T07:39:28.000Z</time></trkpt><trkpt lon="5.985138" lat="50.993491"><ele>71.6</ele><time>2022-04-10T07:39:29.000Z</time></trkpt><trkpt lon="5.985155" lat="50.993433"><ele>71.4</ele><time>2022-04-10T07:39:30.000Z</time></trkpt><trkpt lon="5.985175" lat="50.993376"><ele>71.4</ele><time>2022-04-10T07:39:31.000Z</time></trkpt><trkpt lon="5.985202" lat="50.993328"><ele>71.4</ele><time>2022-04-10T07:39:32.000Z</time></trkpt><trkpt lon="5.985245" lat="50.993285"><ele>71.6</ele><time>2022-04-10T07:39:33.000Z</time></trkpt><trkpt lon="5.985295" lat="50.993255"><ele>71.6</ele><time>2022-04-10T07:39:34.000Z</time></trkpt><trkpt lon="5.985341" lat="50.993225"><ele>71.8</ele><time>2022-04-10T07:39:35.000Z</time></trkpt><trkpt lon="5.985377" lat="50.9932"><ele>71.8</ele><time>2022-04-10T07:39:36.000Z</time></trkpt><trkpt lon="5.985406" lat="50.99318"><ele>72</ele><time>2022-04-10T07:39:37.000Z</time></trkpt><trkpt lon="5.985432" lat="50.993167"><ele>72</ele><time>2022-04-10T07:39:38.000Z</time></trkpt><trkpt lon="5.985455" lat="50.993149"><ele>72.2</ele><time>2022-04-10T07:39:39.000Z</time></trkpt><trkpt lon="5.985473" lat="50.993121"><ele>72.2</ele><time>2022-04-10T07:39:40.000Z</time></trkpt><trkpt lon="5.985484" lat="50.993089"><ele>72.2</ele><time>2022-04-10T07:39:41.000Z</time></trkpt><trkpt lon="5.985489" lat="50.993054"><ele>72.2</ele><time>2022-04-10T07:39:42.000Z</time></trkpt><trkpt lon="5.985481" lat="50.993015"><ele>72</ele><time>2022-04-10T07:39:43.000Z</time></trkpt><trkpt lon="5.985453" lat="50.992974"><ele>72</ele><time>2022-04-10T07:39:44.000Z</time></trkpt><trkpt lon="5.985405" lat="50.992934"><ele>71.8</ele><time>2022-04-10T07:39:45.000Z</time></trkpt><trkpt lon="5.98535" lat="50.992888"><ele>71.8</ele><time>2022-04-10T07:39:46.000Z</time></trkpt><trkpt lon="5.985298" lat="50.992835"><ele>71.6</ele><time>2022-04-10T07:39:47.000Z</time></trkpt><trkpt lon="5.985265" lat="50.992775"><ele>71.4</ele><time>2022-04-10T07:39:48.000Z</time></trkpt><trkpt lon="5.98525" lat="50.992708"><ele>71.2</ele><time>2022-04-10T07:39:49.000Z</time></trkpt><trkpt lon="5.985246" lat="50.992644"><ele>71.2</ele><time>2022-04-10T07:39:50.000Z</time></trkpt><trkpt lon="5.985248" lat="50.992579"><ele>71.2</ele><time>2022-04-10T07:39:51.000Z</time></trkpt><trkpt lon="5.985251" lat="50.992518"><ele>71.2</ele><time>2022-04-10T07:39:52.000Z</time></trkpt><trkpt lon="5.985256" lat="50.992458"><ele>71.2</ele><time>2022-04-10T07:39:53.000Z</time></trkpt><trkpt lon="5.985264" lat="50.9924"><ele>71.4</ele><time>2022-04-10T07:39:54.000Z</time></trkpt><trkpt lon="5.985273" lat="50.992345"><ele>71.4</ele><time>2022-04-10T07:39:55.000Z</time></trkpt><trkpt lon="5.985284" lat="50.992291"><ele>71.4</ele><time>2022-04-10T07:39:56.000Z</time></trkpt><trkpt lon="5.985301" lat="50.992238"><ele>71.6</ele><time>2022-04-10T07:39:57.000Z</time></trkpt><trkpt lon="5.985335" lat="50.99219"><ele>71.6</ele><time>2022-04-10T07:39:58.000Z</time></trkpt><trkpt lon="5.985387" lat="50.992147"><ele>71.6</ele><time>2022-04-10T07:39:59.000Z</time></trkpt><trkpt lon="5.985441" lat="50.992113"><ele>71.8</ele><time>2022-04-10T07:40:00.000Z</time></trkpt><trkpt lon="5.985489" lat="50.992079"><ele>72</ele><time>2022-04-10T07:40:01.000Z</time></trkpt><trkpt lon="5.98552" lat="50.992042"><ele>72.2</ele><time>2022-04-10T07:40:02.000Z</time></trkpt><trkpt lon="5.985529" lat="50.991999"><ele>72.2</ele><time>2022-04-10T07:40:03.000Z</time></trkpt><trkpt lon="5.98552" lat="50.991953"><ele>72.2</ele><time>2022-04-10T07:40:04.000Z</time></trkpt><trkpt lon="5.985489" lat="50.991904"><ele>72.2</ele><time>2022-04-10T07:40:05.000Z</time></trkpt><trkpt lon="5.985436" lat="50.991858"><ele>72.2</ele><time>2022-04-10T07:40:06.000Z</time></trkpt><trkpt lon="5.985379" lat="50.991808"><ele>72.4</ele><time>2022-04-10T07:40:07.000Z</time></trkpt><trkpt lon="5.985344" lat="50.991745"><ele>72.4</ele><time>2022-04-10T07:40:08.000Z</time></trkpt><trkpt lon="5.985331" lat="50.991676"><ele>72.4</ele><time>2022-04-10T07:40:09.000Z</time></trkpt><trkpt lon="5.98533" lat="50.991602"><ele>72.4</ele><time>2022-04-10T07:40:10.000Z</time></trkpt><trkpt lon="5.985333" lat="50.991526"><ele>72.4</ele><time>2022-04-10T07:40:11.000Z</time></trkpt><trkpt lon="5.985338" lat="50.991454"><ele>72.4</ele><time>2022-04-10T07:40:12.000Z</time></trkpt><trkpt lon="5.985342" lat="50.991382"><ele>72.4</ele><time>2022-04-10T07:40:13.000Z</time></trkpt><trkpt lon="5.985344" lat="50.991311"><ele>72.4</ele><time>2022-04-10T07:40:14.000Z</time></trkpt><trkpt lon="5.985348" lat="50.991245"><ele>72.2</ele><time>2022-04-10T07:40:15.000Z</time></trkpt><trkpt lon="5.985353" lat="50.991178"><ele>72.2</ele><time>2022-04-10T07:40:16.000Z</time></trkpt><trkpt lon="5.985357" lat="50.991112"><ele>72.2</ele><time>2022-04-10T07:40:17.000Z</time></trkpt><trkpt lon="5.985359" lat="50.991044"><ele>72.4</ele><time>2022-04-10T07:40:18.000Z</time></trkpt><trkpt lon="5.985361" lat="50.990978"><ele>72.6</ele><time>2022-04-10T07:40:19.000Z</time></trkpt><trkpt lon="5.985366" lat="50.990911"><ele>72.6</ele><time>2022-04-10T07:40:20.000Z</time></trkpt><trkpt lon="5.98537" lat="50.990845"><ele>72.6</ele><time>2022-04-10T07:40:21.000Z</time></trkpt><trkpt lon="5.985375" lat="50.990776"><ele>72.8</ele><time>2022-04-10T07:40:22.000Z</time></trkpt><trkpt lon="5.985379" lat="50.990709"><ele>72.8</ele><time>2022-04-10T07:40:23.000Z</time></trkpt><trkpt lon="5.985381" lat="50.990645"><ele>72.6</ele><time>2022-04-10T07:40:24.000Z</time></trkpt><trkpt lon="5.985386" lat="50.990578"><ele>72.8</ele><time>2022-04-10T07:40:25.000Z</time></trkpt><trkpt lon="5.985389" lat="50.990511"><ele>72.8</ele><time>2022-04-10T07:40:26.000Z</time></trkpt><trkpt lon="5.985393" lat="50.990445"><ele>72.8</ele><time>2022-04-10T07:40:27.000Z</time></trkpt><trkpt lon="5.985396" lat="50.99038"><ele>72.8</ele><time>2022-04-10T07:40:28.000Z</time></trkpt><trkpt lon="5.985399" lat="50.990314"><ele>72.8</ele><time>2022-04-10T07:40:29.000Z</time></trkpt><trkpt lon="5.985401" lat="50.990247"><ele>72.8</ele><time>2022-04-10T07:40:30.000Z</time></trkpt><trkpt lon="5.985403" lat="50.990182"><ele>72.6</ele><time>2022-04-10T07:40:31.000Z</time></trkpt><trkpt lon="5.985406" lat="50.990116"><ele>72.6</ele><time>2022-04-10T07:40:32.000Z</time></trkpt><trkpt lon="5.985412" lat="50.990048"><ele>72.8</ele><time>2022-04-10T07:40:33.000Z</time></trkpt><trkpt lon="5.985416" lat="50.989979"><ele>72.8</ele><time>2022-04-10T07:40:34.000Z</time></trkpt><trkpt lon="5.985419" lat="50.98991"><ele>72.8</ele><time>2022-04-10T07:40:35.000Z</time></trkpt><trkpt lon="5.985423" lat="50.989843"><ele>72.6</ele><time>2022-04-10T07:40:36.000Z</time></trkpt><trkpt lon="5.985429" lat="50.989774"><ele>72.6</ele><time>2022-04-10T07:40:37.000Z</time></trkpt><trkpt lon="5.985435" lat="50.989705"><ele>72.8</ele><time>2022-04-10T07:40:38.000Z</time></trkpt><trkpt lon="5.985444" lat="50.989639"><ele>72.8</ele><time>2022-04-10T07:40:39.000Z</time></trkpt><trkpt lon="5.985452" lat="50.98957"><ele>72.8</ele><time>2022-04-10T07:40:40.000Z</time></trkpt><trkpt lon="5.98546" lat="50.989502"><ele>72.8</ele><time>2022-04-10T07:40:41.000Z</time></trkpt><trkpt lon="5.985466" lat="50.989433"><ele>72.8</ele><time>2022-04-10T07:40:42.000Z</time></trkpt><trkpt lon="5.985469" lat="50.989365"><ele>72.6</ele><time>2022-04-10T07:40:43.000Z</time></trkpt><trkpt lon="5.985473" lat="50.989296"><ele>72.4</ele><time>2022-04-10T07:40:44.000Z</time></trkpt><trkpt lon="5.985478" lat="50.989227"><ele>72.2</ele><time>2022-04-10T07:40:45.000Z</time></trkpt><trkpt lon="5.985483" lat="50.989158"><ele>72.2</ele><time>2022-04-10T07:40:46.000Z</time></trkpt><trkpt lon="5.985486" lat="50.989089"><ele>72</ele><time>2022-04-10T07:40:47.000Z</time></trkpt><trkpt lon="5.985489" lat="50.989017"><ele>72</ele><time>2022-04-10T07:40:48.000Z</time></trkpt><trkpt lon="5.985492" lat="50.988949"><ele>71.8</ele><time>2022-04-10T07:40:49.000Z</time></trkpt><trkpt lon="5.985494" lat="50.988879"><ele>71.8</ele><time>2022-04-10T07:40:50.000Z</time></trkpt><trkpt lon="5.985495" lat="50.988807"><ele>71.6</ele><time>2022-04-10T07:40:51.000Z</time></trkpt><trkpt lon="5.985495" lat="50.988739"><ele>71.4</ele><time>2022-04-10T07:40:52.000Z</time></trkpt><trkpt lon="5.985493" lat="50.988666"><ele>71.2</ele><time>2022-04-10T07:40:53.000Z</time></trkpt><trkpt lon="5.985494" lat="50.988594"><ele>71.2</ele><time>2022-04-10T07:40:54.000Z</time></trkpt><trkpt lon="5.985498" lat="50.988524"><ele>71</ele><time>2022-04-10T07:40:55.000Z</time></trkpt><trkpt lon="5.985503" lat="50.988451"><ele>70.8</ele><time>2022-04-10T07:40:56.000Z</time></trkpt><trkpt lon="5.985507" lat="50.988379"><ele>70.8</ele><time>2022-04-10T07:40:57.000Z</time></trkpt><trkpt lon="5.985511" lat="50.988307"><ele>70.6</ele><time>2022-04-10T07:40:58.000Z</time></trkpt><trkpt lon="5.985514" lat="50.988238"><ele>70.4</ele><time>2022-04-10T07:40:59.000Z</time></trkpt><trkpt lon="5.985517" lat="50.988166"><ele>70.2</ele><time>2022-04-10T07:41:00.000Z</time></trkpt><trkpt lon="5.985521" lat="50.988095"><ele>69.8</ele><time>2022-04-10T07:41:01.000Z</time></trkpt><trkpt lon="5.985525" lat="50.988025"><ele>69.6</ele><time>2022-04-10T07:41:02.000Z</time></trkpt><trkpt lon="5.985529" lat="50.987956"><ele>69.4</ele><time>2022-04-10T07:41:03.000Z</time></trkpt><trkpt lon="5.985533" lat="50.987883"><ele>69</ele><time>2022-04-10T07:41:04.000Z</time></trkpt><trkpt lon="5.985537" lat="50.987811"><ele>68.8</ele><time>2022-04-10T07:41:05.000Z</time></trkpt><trkpt lon="5.985541" lat="50.987739"><ele>68.4</ele><time>2022-04-10T07:41:06.000Z</time></trkpt><trkpt lon="5.985547" lat="50.987669"><ele>68.2</ele><time>2022-04-10T07:41:07.000Z</time></trkpt><trkpt lon="5.985552" lat="50.987597"><ele>67.8</ele><time>2022-04-10T07:41:08.000Z</time></trkpt><trkpt lon="5.985554" lat="50.987526"><ele>67.6</ele><time>2022-04-10T07:41:09.000Z</time></trkpt><trkpt lon="5.985557" lat="50.987457"><ele>67.4</ele><time>2022-04-10T07:41:10.000Z</time></trkpt><trkpt lon="5.98556" lat="50.987388"><ele>67</ele><time>2022-04-10T07:41:11.000Z</time></trkpt><trkpt lon="5.985565" lat="50.987316"><ele>66.6</ele><time>2022-04-10T07:41:12.000Z</time></trkpt><trkpt lon="5.98557" lat="50.987246"><ele>66.2</ele><time>2022-04-10T07:41:13.000Z</time></trkpt><trkpt lon="5.985577" lat="50.987169"><ele>65.8</ele><time>2022-04-10T07:41:14.000Z</time></trkpt><trkpt lon="5.985584" lat="50.987094"><ele>65.2</ele><time>2022-04-10T07:41:15.000Z</time></trkpt><trkpt lon="5.98559" lat="50.987023"><ele>64.8</ele><time>2022-04-10T07:41:16.000Z</time></trkpt><trkpt lon="5.985598" lat="50.98695"><ele>64.2</ele><time>2022-04-10T07:41:17.000Z</time></trkpt><trkpt lon="5.985608" lat="50.986882"><ele>63.8</ele><time>2022-04-10T07:41:18.000Z</time></trkpt><trkpt lon="5.985623" lat="50.986814"><ele>63.4</ele><time>2022-04-10T07:41:19.000Z</time></trkpt><trkpt lon="5.985645" lat="50.986745"><ele>63.2</ele><time>2022-04-10T07:41:20.000Z</time></trkpt><trkpt lon="5.985681" lat="50.986683"><ele>62.8</ele><time>2022-04-10T07:41:21.000Z</time></trkpt><trkpt lon="5.985735" lat="50.986633"><ele>62.6</ele><time>2022-04-10T07:41:22.000Z</time></trkpt><trkpt lon="5.985798" lat="50.986593"><ele>62.4</ele><time>2022-04-10T07:41:23.000Z</time></trkpt><trkpt lon="5.985854" lat="50.98656"><ele>62.2</ele><time>2022-04-10T07:41:24.000Z</time></trkpt><trkpt lon="5.985893" lat="50.986526"><ele>62.2</ele><time>2022-04-10T07:41:25.000Z</time></trkpt><trkpt lon="5.985907" lat="50.986483"><ele>62.2</ele><time>2022-04-10T07:41:26.000Z</time></trkpt><trkpt lon="5.985904" lat="50.986437"><ele>62.2</ele><time>2022-04-10T07:41:27.000Z</time></trkpt><trkpt lon="5.985889" lat="50.986394"><ele>62</ele><time>2022-04-10T07:41:28.000Z</time></trkpt><trkpt lon="5.985845" lat="50.986358"><ele>62</ele><time>2022-04-10T07:41:29.000Z</time></trkpt><trkpt lon="5.985774" lat="50.986329"><ele>62</ele><time>2022-04-10T07:41:30.000Z</time></trkpt><trkpt lon="5.985686" lat="50.986301"><ele>62</ele><time>2022-04-10T07:41:31.000Z</time></trkpt><trkpt lon="5.985586" lat="50.986275"><ele>62</ele><time>2022-04-10T07:41:32.000Z</time></trkpt><trkpt lon="5.98548" lat="50.986248"><ele>62</ele><time>2022-04-10T07:41:33.000Z</time></trkpt><trkpt lon="5.985368" lat="50.98622"><ele>62</ele><time>2022-04-10T07:41:34.000Z</time></trkpt><trkpt lon="5.985256" lat="50.986191"><ele>61.8</ele><time>2022-04-10T07:41:35.000Z</time></trkpt><trkpt lon="5.985144" lat="50.986163"><ele>61.8</ele><time>2022-04-10T07:41:36.000Z</time></trkpt><trkpt lon="5.985035" lat="50.986133"><ele>61.8</ele><time>2022-04-10T07:41:37.000Z</time></trkpt><trkpt lon="5.984929" lat="50.986103"><ele>61.8</ele><time>2022-04-10T07:41:38.000Z</time></trkpt><trkpt lon="5.984823" lat="50.986075"><ele>61.6</ele><time>2022-04-10T07:41:39.000Z</time></trkpt><trkpt lon="5.984719" lat="50.986046"><ele>61.6</ele><time>2022-04-10T07:41:40.000Z</time></trkpt><trkpt lon="5.984616" lat="50.986018"><ele>61.6</ele><time>2022-04-10T07:41:41.000Z</time></trkpt><trkpt lon="5.984513" lat="50.985989"><ele>61.6</ele><time>2022-04-10T07:41:42.000Z</time></trkpt><trkpt lon="5.984411" lat="50.985962"><ele>61.4</ele><time>2022-04-10T07:41:43.000Z</time></trkpt><trkpt lon="5.98431" lat="50.985936"><ele>61.4</ele><time>2022-04-10T07:41:44.000Z</time></trkpt><trkpt lon="5.984207" lat="50.985909"><ele>61.2</ele><time>2022-04-10T07:41:45.000Z</time></trkpt><trkpt lon="5.984103" lat="50.985883"><ele>61</ele><time>2022-04-10T07:41:46.000Z</time></trkpt><trkpt lon="5.983992" lat="50.985854"><ele>61</ele><time>2022-04-10T07:41:47.000Z</time></trkpt><trkpt lon="5.983888" lat="50.985824"><ele>60.8</ele><time>2022-04-10T07:41:48.000Z</time></trkpt><trkpt lon="5.983787" lat="50.985794"><ele>60.8</ele><time>2022-04-10T07:41:49.000Z</time></trkpt><trkpt lon="5.983685" lat="50.985768"><ele>60.6</ele><time>2022-04-10T07:41:50.000Z</time></trkpt><trkpt lon="5.983586" lat="50.985741"><ele>60.6</ele><time>2022-04-10T07:41:51.000Z</time></trkpt><trkpt lon="5.983486" lat="50.985714"><ele>60.4</ele><time>2022-04-10T07:41:52.000Z</time></trkpt><trkpt lon="5.983389" lat="50.985687"><ele>60.2</ele><time>2022-04-10T07:41:53.000Z</time></trkpt><trkpt lon="5.983292" lat="50.985661"><ele>60.2</ele><time>2022-04-10T07:41:54.000Z</time></trkpt><trkpt lon="5.983195" lat="50.985634"><ele>60</ele><time>2022-04-10T07:41:55.000Z</time></trkpt><trkpt lon="5.983097" lat="50.985609"><ele>59.8</ele><time>2022-04-10T07:41:56.000Z</time></trkpt><trkpt lon="5.982998" lat="50.985585"><ele>59.8</ele><time>2022-04-10T07:41:57.000Z</time></trkpt><trkpt lon="5.982901" lat="50.985558"><ele>59.8</ele><time>2022-04-10T07:41:58.000Z</time></trkpt><trkpt lon="5.982809" lat="50.985531"><ele>59.8</ele><time>2022-04-10T07:41:59.000Z</time></trkpt><trkpt lon="5.982718" lat="50.985504"><ele>59.8</ele><time>2022-04-10T07:42:00.000Z</time></trkpt><trkpt lon="5.98263" lat="50.985479"><ele>59.6</ele><time>2022-04-10T07:42:01.000Z</time></trkpt><trkpt lon="5.98254" lat="50.985456"><ele>59.6</ele><time>2022-04-10T07:42:02.000Z</time></trkpt><trkpt lon="5.982448" lat="50.985432"><ele>59.6</ele><time>2022-04-10T07:42:03.000Z</time></trkpt><trkpt lon="5.982361" lat="50.985406"><ele>59.4</ele><time>2022-04-10T07:42:04.000Z</time></trkpt><trkpt lon="5.982273" lat="50.985383"><ele>59.4</ele><time>2022-04-10T07:42:05.000Z</time></trkpt><trkpt lon="5.982184" lat="50.985359"><ele>59.2</ele><time>2022-04-10T07:42:06.000Z</time></trkpt><trkpt lon="5.982091" lat="50.985333"><ele>59.2</ele><time>2022-04-10T07:42:07.000Z</time></trkpt><trkpt lon="5.981998" lat="50.985307"><ele>59</ele><time>2022-04-10T07:42:08.000Z</time></trkpt><trkpt lon="5.981901" lat="50.985279"><ele>58.8</ele><time>2022-04-10T07:42:09.000Z</time></trkpt><trkpt lon="5.981804" lat="50.985251"><ele>58.8</ele><time>2022-04-10T07:42:10.000Z</time></trkpt><trkpt lon="5.981707" lat="50.985221"><ele>58.6</ele><time>2022-04-10T07:42:11.000Z</time></trkpt><trkpt lon="5.981611" lat="50.985192"><ele>58.6</ele><time>2022-04-10T07:42:12.000Z</time></trkpt><trkpt lon="5.981511" lat="50.985165"><ele>58.4</ele><time>2022-04-10T07:42:13.000Z</time></trkpt><trkpt lon="5.981409" lat="50.985137"><ele>58.2</ele><time>2022-04-10T07:42:14.000Z</time></trkpt><trkpt lon="5.98131" lat="50.985108"><ele>58</ele><time>2022-04-10T07:42:15.000Z</time></trkpt><trkpt lon="5.981216" lat="50.985081"><ele>57.6</ele><time>2022-04-10T07:42:16.000Z</time></trkpt><trkpt lon="5.981124" lat="50.985054"><ele>57.4</ele><time>2022-04-10T07:42:17.000Z</time></trkpt><trkpt lon="5.981029" lat="50.985028"><ele>57</ele><time>2022-04-10T07:42:18.000Z</time></trkpt><trkpt lon="5.980938" lat="50.985003"><ele>56.6</ele><time>2022-04-10T07:42:19.000Z</time></trkpt><trkpt lon="5.980854" lat="50.984983"><ele>56.4</ele><time>2022-04-10T07:42:20.000Z</time></trkpt><trkpt lon="5.980778" lat="50.98496"><ele>56</ele><time>2022-04-10T07:42:21.000Z</time></trkpt><trkpt lon="5.980697" lat="50.984939"><ele>55.8</ele><time>2022-04-10T07:42:22.000Z</time></trkpt><trkpt lon="5.98061" lat="50.984926"><ele>55.8</ele><time>2022-04-10T07:42:23.000Z</time></trkpt><trkpt lon="5.980516" lat="50.984919"><ele>55.6</ele><time>2022-04-10T07:42:24.000Z</time></trkpt><trkpt lon="5.980415" lat="50.984913"><ele>55.2</ele><time>2022-04-10T07:42:25.000Z</time></trkpt><trkpt lon="5.98031" lat="50.984899"><ele>55.2</ele><time>2022-04-10T07:42:26.000Z</time></trkpt><trkpt lon="5.980203" lat="50.984875"><ele>55.2</ele><time>2022-04-10T07:42:27.000Z</time></trkpt><trkpt lon="5.980099" lat="50.984847"><ele>55</ele><time>2022-04-10T07:42:28.000Z</time></trkpt><trkpt lon="5.979997" lat="50.984818"><ele>54.8</ele><time>2022-04-10T07:42:29.000Z</time></trkpt><trkpt lon="5.979896" lat="50.98479"><ele>55</ele><time>2022-04-10T07:42:30.000Z</time></trkpt><trkpt lon="5.979798" lat="50.984759"><ele>55</ele><time>2022-04-10T07:42:31.000Z</time></trkpt><trkpt lon="5.9797" lat="50.984729"><ele>54.8</ele><time>2022-04-10T07:42:32.000Z</time></trkpt><trkpt lon="5.979602" lat="50.984699"><ele>54.8</ele><time>2022-04-10T07:42:33.000Z</time></trkpt><trkpt lon="5.979506" lat="50.984673"><ele>54.8</ele><time>2022-04-10T07:42:34.000Z</time></trkpt><trkpt lon="5.979412" lat="50.984645"><ele>55</ele><time>2022-04-10T07:42:35.000Z</time></trkpt><trkpt lon="5.97932" lat="50.984614"><ele>55.2</ele><time>2022-04-10T07:42:36.000Z</time></trkpt><trkpt lon="5.979232" lat="50.984577"><ele>55.2</ele><time>2022-04-10T07:42:37.000Z</time></trkpt><trkpt lon="5.979149" lat="50.984534"><ele>55.4</ele><time>2022-04-10T07:42:38.000Z</time></trkpt><trkpt lon="5.979069" lat="50.984487"><ele>55.4</ele><time>2022-04-10T07:42:39.000Z</time></trkpt><trkpt lon="5.978995" lat="50.984436"><ele>55.2</ele><time>2022-04-10T07:42:40.000Z</time></trkpt><trkpt lon="5.978921" lat="50.984383"><ele>55.2</ele><time>2022-04-10T07:42:41.000Z</time></trkpt><trkpt lon="5.978845" lat="50.984329"><ele>55.2</ele><time>2022-04-10T07:42:42.000Z</time></trkpt><trkpt lon="5.978767" lat="50.984272"><ele>55.2</ele><time>2022-04-10T07:42:43.000Z</time></trkpt><trkpt lon="5.978693" lat="50.984218"><ele>55.4</ele><time>2022-04-10T07:42:44.000Z</time></trkpt><trkpt lon="5.97862" lat="50.98416"><ele>55.4</ele><time>2022-04-10T07:42:45.000Z</time></trkpt><trkpt lon="5.978547" lat="50.984103"><ele>55.2</ele><time>2022-04-10T07:42:46.000Z</time></trkpt><trkpt lon="5.97847" lat="50.984048"><ele>55.2</ele><time>2022-04-10T07:42:47.000Z</time></trkpt><trkpt lon="5.978389" lat="50.983994"><ele>55.2</ele><time>2022-04-10T07:42:48.000Z</time></trkpt><trkpt lon="5.978306" lat="50.98394"><ele>55.2</ele><time>2022-04-10T07:42:49.000Z</time></trkpt><trkpt lon="5.978226" lat="50.983887"><ele>55</ele><time>2022-04-10T07:42:50.000Z</time></trkpt><trkpt lon="5.978144" lat="50.983833"><ele>54.8</ele><time>2022-04-10T07:42:51.000Z</time></trkpt><trkpt lon="5.978063" lat="50.983774"><ele>54.6</ele><time>2022-04-10T07:42:52.000Z</time></trkpt><trkpt lon="5.977985" lat="50.983715"><ele>54.4</ele><time>2022-04-10T07:42:53.000Z</time></trkpt><trkpt lon="5.977905" lat="50.983659"><ele>54</ele><time>2022-04-10T07:42:54.000Z</time></trkpt><trkpt lon="5.977822" lat="50.983603"><ele>53.8</ele><time>2022-04-10T07:42:55.000Z</time></trkpt><trkpt lon="5.977738" lat="50.983542"><ele>53.6</ele><time>2022-04-10T07:42:56.000Z</time></trkpt><trkpt lon="5.977654" lat="50.983484"><ele>53.2</ele><time>2022-04-10T07:42:57.000Z</time></trkpt><trkpt lon="5.977571" lat="50.983423"><ele>53</ele><time>2022-04-10T07:42:58.000Z</time></trkpt><trkpt lon="5.977487" lat="50.983363"><ele>53</ele><time>2022-04-10T07:42:59.000Z</time></trkpt><trkpt lon="5.977403" lat="50.983303"><ele>52.8</ele><time>2022-04-10T07:43:00.000Z</time></trkpt><trkpt lon="5.977315" lat="50.983242"><ele>52.8</ele><time>2022-04-10T07:43:01.000Z</time></trkpt><trkpt lon="5.977228" lat="50.983185"><ele>52.6</ele><time>2022-04-10T07:43:02.000Z</time></trkpt><trkpt lon="5.977142" lat="50.983131"><ele>52.4</ele><time>2022-04-10T07:43:03.000Z</time></trkpt><trkpt lon="5.977059" lat="50.983077"><ele>52.2</ele><time>2022-04-10T07:43:04.000Z</time></trkpt><trkpt lon="5.976975" lat="50.983021"><ele>52.2</ele><time>2022-04-10T07:43:05.000Z</time></trkpt><trkpt lon="5.976892" lat="50.982966"><ele>52</ele><time>2022-04-10T07:43:06.000Z</time></trkpt><trkpt lon="5.976817" lat="50.982906"><ele>52</ele><time>2022-04-10T07:43:07.000Z</time></trkpt><trkpt lon="5.976756" lat="50.982846"><ele>52</ele><time>2022-04-10T07:43:08.000Z</time></trkpt><trkpt lon="5.976717" lat="50.982775"><ele>51.8</ele><time>2022-04-10T07:43:09.000Z</time></trkpt><trkpt lon="5.976703" lat="50.982704"><ele>51.6</ele><time>2022-04-10T07:43:10.000Z</time></trkpt><trkpt lon="5.976708" lat="50.982634"><ele>51.4</ele><time>2022-04-10T07:43:11.000Z</time></trkpt><trkpt lon="5.976731" lat="50.982561"><ele>51.4</ele><time>2022-04-10T07:43:12.000Z</time></trkpt><trkpt lon="5.976765" lat="50.982485"><ele>51.4</ele><time>2022-04-10T07:43:13.000Z</time></trkpt><trkpt lon="5.976801" lat="50.982413"><ele>51.4</ele><time>2022-04-10T07:43:14.000Z</time></trkpt><trkpt lon="5.976837" lat="50.982343"><ele>51.2</ele><time>2022-04-10T07:43:15.000Z</time></trkpt><trkpt lon="5.976874" lat="50.982273"><ele>51</ele><time>2022-04-10T07:43:16.000Z</time></trkpt><trkpt lon="5.976912" lat="50.982204"><ele>50.8</ele><time>2022-04-10T07:43:17.000Z</time></trkpt><trkpt lon="5.976951" lat="50.982135"><ele>50.8</ele><time>2022-04-10T07:43:18.000Z</time></trkpt><trkpt lon="5.976989" lat="50.982067"><ele>50.6</ele><time>2022-04-10T07:43:19.000Z</time></trkpt><trkpt lon="5.977026" lat="50.981998"><ele>50.6</ele><time>2022-04-10T07:43:20.000Z</time></trkpt><trkpt lon="5.97706" lat="50.98193"><ele>50.6</ele><time>2022-04-10T07:43:21.000Z</time></trkpt><trkpt lon="5.977094" lat="50.981867"><ele>50.6</ele><time>2022-04-10T07:43:22.000Z</time></trkpt><trkpt lon="5.977123" lat="50.981806"><ele>50.6</ele><time>2022-04-10T07:43:23.000Z</time></trkpt><trkpt lon="5.977144" lat="50.981747"><ele>50.6</ele><time>2022-04-10T07:43:24.000Z</time></trkpt><trkpt lon="5.977162" lat="50.981692"><ele>50.6</ele><time>2022-04-10T07:43:25.000Z</time></trkpt><trkpt lon="5.977182" lat="50.98163"><ele>50.4</ele><time>2022-04-10T07:43:26.000Z</time></trkpt><trkpt lon="5.977209" lat="50.981568"><ele>50.2</ele><time>2022-04-10T07:43:27.000Z</time></trkpt><trkpt lon="5.977241" lat="50.981505"><ele>50</ele><time>2022-04-10T07:43:28.000Z</time></trkpt><trkpt lon="5.977275" lat="50.981444"><ele>50</ele><time>2022-04-10T07:43:29.000Z</time></trkpt><trkpt lon="5.97731" lat="50.981382"><ele>49.8</ele><time>2022-04-10T07:43:30.000Z</time></trkpt><trkpt lon="5.977346" lat="50.981317"><ele>49.8</ele><time>2022-04-10T07:43:31.000Z</time></trkpt><trkpt lon="5.97738" lat="50.981255"><ele>49.6</ele><time>2022-04-10T07:43:32.000Z</time></trkpt><trkpt lon="5.977411" lat="50.981199"><ele>49.6</ele><time>2022-04-10T07:43:33.000Z</time></trkpt><trkpt lon="5.977438" lat="50.981151"><ele>49.6</ele><time>2022-04-10T07:43:34.000Z</time></trkpt><trkpt lon="5.97746" lat="50.98111"><ele>49.6</ele><time>2022-04-10T07:43:35.000Z</time></trkpt><trkpt lon="5.977478" lat="50.981072"><ele>49.6</ele><time>2022-04-10T07:43:36.000Z</time></trkpt><trkpt lon="5.977497" lat="50.981035"><ele>49.6</ele><time>2022-04-10T07:43:37.000Z</time></trkpt><trkpt lon="5.977515" lat="50.981003"><ele>49.6</ele><time>2022-04-10T07:43:38.000Z</time></trkpt><trkpt lon="5.977535" lat="50.98098"><ele>49.8</ele><time>2022-04-10T07:43:39.000Z</time></trkpt><trkpt lon="5.977556" lat="50.980966"><ele>50</ele><time>2022-04-10T07:43:40.000Z</time></trkpt><trkpt lon="5.977576" lat="50.980959"><ele>50</ele><time>2022-04-10T07:43:41.000Z</time></trkpt><trkpt lon="5.977596" lat="50.980949"><ele>50.2</ele><time>2022-04-10T07:43:42.000Z</time></trkpt><trkpt lon="5.977616" lat="50.980931"><ele>50.2</ele><time>2022-04-10T07:43:43.000Z</time></trkpt><trkpt lon="5.977637" lat="50.980908"><ele>50.2</ele><time>2022-04-10T07:43:44.000Z</time></trkpt><trkpt lon="5.977657" lat="50.980878"><ele>50</ele><time>2022-04-10T07:43:45.000Z</time></trkpt><trkpt lon="5.97768" lat="50.980836"><ele>50</ele><time>2022-04-10T07:43:46.000Z</time></trkpt><trkpt lon="5.977709" lat="50.980785"><ele>49.8</ele><time>2022-04-10T07:43:47.000Z</time></trkpt><trkpt lon="5.97774" lat="50.980725"><ele>49.8</ele><time>2022-04-10T07:43:48.000Z</time></trkpt><trkpt lon="5.977773" lat="50.98066"><ele>49.6</ele><time>2022-04-10T07:43:49.000Z</time></trkpt><trkpt lon="5.977809" lat="50.98059"><ele>49.4</ele><time>2022-04-10T07:43:50.000Z</time></trkpt><trkpt lon="5.977846" lat="50.980516"><ele>49.2</ele><time>2022-04-10T07:43:51.000Z</time></trkpt><trkpt lon="5.977884" lat="50.980438"><ele>49</ele><time>2022-04-10T07:43:52.000Z</time></trkpt><trkpt lon="5.977926" lat="50.980358"><ele>48.8</ele><time>2022-04-10T07:43:53.000Z</time></trkpt><trkpt lon="5.977971" lat="50.980276"><ele>48.8</ele><time>2022-04-10T07:43:54.000Z</time></trkpt><trkpt lon="5.978017" lat="50.980191"><ele>48.6</ele><time>2022-04-10T07:43:55.000Z</time></trkpt><trkpt lon="5.978062" lat="50.980108"><ele>48.6</ele><time>2022-04-10T07:43:56.000Z</time></trkpt><trkpt lon="5.978105" lat="50.980022"><ele>48.4</ele><time>2022-04-10T07:43:57.000Z</time></trkpt><trkpt lon="5.978147" lat="50.979936"><ele>48.4</ele><time>2022-04-10T07:43:58.000Z</time></trkpt><trkpt lon="5.978186" lat="50.979846"><ele>48.4</ele><time>2022-04-10T07:43:59.000Z</time></trkpt><trkpt lon="5.978232" lat="50.979758"><ele>48.6</ele><time>2022-04-10T07:44:00.000Z</time></trkpt><trkpt lon="5.978277" lat="50.979665"><ele>48.8</ele><time>2022-04-10T07:44:01.000Z</time></trkpt><trkpt lon="5.978321" lat="50.979577"><ele>48.4</ele><time>2022-04-10T07:44:02.000Z</time></trkpt><trkpt lon="5.978362" lat="50.979494"><ele>48.4</ele><time>2022-04-10T07:44:03.000Z</time></trkpt><trkpt lon="5.978399" lat="50.979417"><ele>48.4</ele><time>2022-04-10T07:44:04.000Z</time></trkpt><trkpt lon="5.978437" lat="50.979343"><ele>48.4</ele><time>2022-04-10T07:44:05.000Z</time></trkpt><trkpt lon="5.978477" lat="50.979272"><ele>48.4</ele><time>2022-04-10T07:44:06.000Z</time></trkpt><trkpt lon="5.97852" lat="50.979197"><ele>48.4</ele><time>2022-04-10T07:44:07.000Z</time></trkpt><trkpt lon="5.978559" lat="50.979123"><ele>48.4</ele><time>2022-04-10T07:44:08.000Z</time></trkpt><trkpt lon="5.978598" lat="50.979042"><ele>48.4</ele><time>2022-04-10T07:44:09.000Z</time></trkpt><trkpt lon="5.978636" lat="50.978962"><ele>48.2</ele><time>2022-04-10T07:44:10.000Z</time></trkpt><trkpt lon="5.978676" lat="50.978882"><ele>48</ele><time>2022-04-10T07:44:11.000Z</time></trkpt><trkpt lon="5.978717" lat="50.978797"><ele>48</ele><time>2022-04-10T07:44:12.000Z</time></trkpt><trkpt lon="5.97876" lat="50.978714"><ele>48</ele><time>2022-04-10T07:44:13.000Z</time></trkpt><trkpt lon="5.978801" lat="50.978633"><ele>48.2</ele><time>2022-04-10T07:44:14.000Z</time></trkpt><trkpt lon="5.978846" lat="50.978549"><ele>48.4</ele><time>2022-04-10T07:44:15.000Z</time></trkpt><trkpt lon="5.978891" lat="50.978466"><ele>48.6</ele><time>2022-04-10T07:44:16.000Z</time></trkpt><trkpt lon="5.97894" lat="50.97838"><ele>48.8</ele><time>2022-04-10T07:44:17.000Z</time></trkpt><trkpt lon="5.978989" lat="50.978293"><ele>49.2</ele><time>2022-04-10T07:44:18.000Z</time></trkpt><trkpt lon="5.979033" lat="50.97821"><ele>49.6</ele><time>2022-04-10T07:44:19.000Z</time></trkpt><trkpt lon="5.979079" lat="50.978127"><ele>49.8</ele><time>2022-04-10T07:44:20.000Z</time></trkpt><trkpt lon="5.97912" lat="50.978047"><ele>49.8</ele><time>2022-04-10T07:44:21.000Z</time></trkpt><trkpt lon="5.979161" lat="50.977969"><ele>49.8</ele><time>2022-04-10T07:44:22.000Z</time></trkpt><trkpt lon="5.979199" lat="50.977894"><ele>50</ele><time>2022-04-10T07:44:23.000Z</time></trkpt><trkpt lon="5.979236" lat="50.977816"><ele>50.4</ele><time>2022-04-10T07:44:24.000Z</time></trkpt><trkpt lon="5.97927" lat="50.977741"><ele>50.6</ele><time>2022-04-10T07:44:25.000Z</time></trkpt><trkpt lon="5.979302" lat="50.977668"><ele>50.8</ele><time>2022-04-10T07:44:26.000Z</time></trkpt><trkpt lon="5.979331" lat="50.977596"><ele>51.2</ele><time>2022-04-10T07:44:27.000Z</time></trkpt><trkpt lon="5.979362" lat="50.977527"><ele>51.4</ele><time>2022-04-10T07:44:28.000Z</time></trkpt><trkpt lon="5.979397" lat="50.977459"><ele>51.6</ele><time>2022-04-10T07:44:29.000Z</time></trkpt><trkpt lon="5.979433" lat="50.977392"><ele>51.6</ele><time>2022-04-10T07:44:30.000Z</time></trkpt><trkpt lon="5.979464" lat="50.977316"><ele>51.8</ele><time>2022-04-10T07:44:31.000Z</time></trkpt><trkpt lon="5.97949" lat="50.977239"><ele>51.8</ele><time>2022-04-10T07:44:32.000Z</time></trkpt><trkpt lon="5.979512" lat="50.977164"><ele>52</ele><time>2022-04-10T07:44:33.000Z</time></trkpt><trkpt lon="5.97953" lat="50.97709"><ele>52</ele><time>2022-04-10T07:44:34.000Z</time></trkpt><trkpt lon="5.979542" lat="50.977016"><ele>52.2</ele><time>2022-04-10T07:44:35.000Z</time></trkpt><trkpt lon="5.979546" lat="50.976947"><ele>52.2</ele><time>2022-04-10T07:44:36.000Z</time></trkpt><trkpt lon="5.979546" lat="50.976874"><ele>52.4</ele><time>2022-04-10T07:44:37.000Z</time></trkpt><trkpt lon="5.979546" lat="50.976804"><ele>52.4</ele><time>2022-04-10T07:44:38.000Z</time></trkpt><trkpt lon="5.979542" lat="50.97674"><ele>52.6</ele><time>2022-04-10T07:44:39.000Z</time></trkpt><trkpt lon="5.979538" lat="50.976674"><ele>52.6</ele><time>2022-04-10T07:44:40.000Z</time></trkpt><trkpt lon="5.979531" lat="50.976609"><ele>52.8</ele><time>2022-04-10T07:44:41.000Z</time></trkpt><trkpt lon="5.979525" lat="50.976543"><ele>53</ele><time>2022-04-10T07:44:42.000Z</time></trkpt><trkpt lon="5.97952" lat="50.976475"><ele>53.2</ele><time>2022-04-10T07:44:43.000Z</time></trkpt><trkpt lon="5.979517" lat="50.976406"><ele>53.2</ele><time>2022-04-10T07:44:44.000Z</time></trkpt><trkpt lon="5.979516" lat="50.976334"><ele>53.4</ele><time>2022-04-10T07:44:45.000Z</time></trkpt><trkpt lon="5.979513" lat="50.976265"><ele>53.4</ele><time>2022-04-10T07:44:46.000Z</time></trkpt><trkpt lon="5.979506" lat="50.976192"><ele>53.6</ele><time>2022-04-10T07:44:47.000Z</time></trkpt><trkpt lon="5.979497" lat="50.976119"><ele>53.6</ele><time>2022-04-10T07:44:48.000Z</time></trkpt><trkpt lon="5.979485" lat="50.976047"><ele>53.8</ele><time>2022-04-10T07:44:49.000Z</time></trkpt><trkpt lon="5.979472" lat="50.975977"><ele>54</ele><time>2022-04-10T07:44:50.000Z</time></trkpt><trkpt lon="5.979457" lat="50.975907"><ele>54.2</ele><time>2022-04-10T07:44:51.000Z</time></trkpt><trkpt lon="5.97944" lat="50.975839"><ele>54.4</ele><time>2022-04-10T07:44:52.000Z</time></trkpt><trkpt lon="5.979423" lat="50.975773"><ele>54.6</ele><time>2022-04-10T07:44:53.000Z</time></trkpt><trkpt lon="5.979408" lat="50.975705"><ele>54.6</ele><time>2022-04-10T07:44:54.000Z</time></trkpt><trkpt lon="5.979396" lat="50.975642"><ele>54.8</ele><time>2022-04-10T07:44:55.000Z</time></trkpt><trkpt lon="5.979388" lat="50.97558"><ele>54.8</ele><time>2022-04-10T07:44:56.000Z</time></trkpt><trkpt lon="5.97938" lat="50.975515"><ele>55</ele><time>2022-04-10T07:44:57.000Z</time></trkpt><trkpt lon="5.979372" lat="50.975449"><ele>55.2</ele><time>2022-04-10T07:44:58.000Z</time></trkpt><trkpt lon="5.979362" lat="50.975384"><ele>55.2</ele><time>2022-04-10T07:44:59.000Z</time></trkpt><trkpt lon="5.979351" lat="50.975321"><ele>55.4</ele><time>2022-04-10T07:45:00.000Z</time></trkpt><trkpt lon="5.979344" lat="50.975255"><ele>55.6</ele><time>2022-04-10T07:45:01.000Z</time></trkpt><trkpt lon="5.979341" lat="50.975186"><ele>55.6</ele><time>2022-04-10T07:45:02.000Z</time></trkpt><trkpt lon="5.97934" lat="50.975121"><ele>55.8</ele><time>2022-04-10T07:45:03.000Z</time></trkpt><trkpt lon="5.979337" lat="50.975057"><ele>55.8</ele><time>2022-04-10T07:45:04.000Z</time></trkpt><trkpt lon="5.979331" lat="50.974992"><ele>56</ele><time>2022-04-10T07:45:05.000Z</time></trkpt><trkpt lon="5.979322" lat="50.974927"><ele>56</ele><time>2022-04-10T07:45:06.000Z</time></trkpt><trkpt lon="5.979313" lat="50.974862"><ele>56.2</ele><time>2022-04-10T07:45:07.000Z</time></trkpt><trkpt lon="5.979302" lat="50.974798"><ele>56.2</ele><time>2022-04-10T07:45:08.000Z</time></trkpt><trkpt lon="5.979289" lat="50.974736"><ele>56.2</ele><time>2022-04-10T07:45:09.000Z</time></trkpt><trkpt lon="5.979272" lat="50.974672"><ele>56.4</ele><time>2022-04-10T07:45:10.000Z</time></trkpt><trkpt lon="5.979247" lat="50.974611"><ele>56.4</ele><time>2022-04-10T07:45:11.000Z</time></trkpt><trkpt lon="5.97921" lat="50.97455"><ele>56.4</ele><time>2022-04-10T07:45:12.000Z</time></trkpt><trkpt lon="5.979168" lat="50.974485"><ele>56.4</ele><time>2022-04-10T07:45:13.000Z</time></trkpt><trkpt lon="5.979125" lat="50.974424"><ele>56.4</ele><time>2022-04-10T07:45:14.000Z</time></trkpt><trkpt lon="5.979084" lat="50.974364"><ele>56.4</ele><time>2022-04-10T07:45:15.000Z</time></trkpt><trkpt lon="5.979045" lat="50.974302"><ele>56.4</ele><time>2022-04-10T07:45:16.000Z</time></trkpt><trkpt lon="5.979005" lat="50.974242"><ele>56.6</ele><time>2022-04-10T07:45:17.000Z</time></trkpt><trkpt lon="5.978963" lat="50.974183"><ele>56.6</ele><time>2022-04-10T07:45:18.000Z</time></trkpt><trkpt lon="5.978923" lat="50.974118"><ele>56.6</ele><time>2022-04-10T07:45:19.000Z</time></trkpt><trkpt lon="5.978884" lat="50.974056"><ele>56.6</ele><time>2022-04-10T07:45:20.000Z</time></trkpt><trkpt lon="5.978842" lat="50.973997"><ele>56.8</ele><time>2022-04-10T07:45:21.000Z</time></trkpt><trkpt lon="5.978802" lat="50.973936"><ele>57</ele><time>2022-04-10T07:45:22.000Z</time></trkpt><trkpt lon="5.978761" lat="50.973876"><ele>57</ele><time>2022-04-10T07:45:23.000Z</time></trkpt><trkpt lon="5.97872" lat="50.973814"><ele>57.2</ele><time>2022-04-10T07:45:24.000Z</time></trkpt><trkpt lon="5.97868" lat="50.973754"><ele>57.2</ele><time>2022-04-10T07:45:25.000Z</time></trkpt><trkpt lon="5.978636" lat="50.973696"><ele>57.4</ele><time>2022-04-10T07:45:26.000Z</time></trkpt><trkpt lon="5.978595" lat="50.973634"><ele>57.6</ele><time>2022-04-10T07:45:27.000Z</time></trkpt><trkpt lon="5.978554" lat="50.97357"><ele>57.8</ele><time>2022-04-10T07:45:28.000Z</time></trkpt><trkpt lon="5.978513" lat="50.97351"><ele>57.8</ele><time>2022-04-10T07:45:29.000Z</time></trkpt><trkpt lon="5.978469" lat="50.973448"><ele>58</ele><time>2022-04-10T07:45:30.000Z</time></trkpt><trkpt lon="5.978428" lat="50.973387"><ele>58</ele><time>2022-04-10T07:45:31.000Z</time></trkpt><trkpt lon="5.978385" lat="50.973326"><ele>57.8</ele><time>2022-04-10T07:45:32.000Z</time></trkpt><trkpt lon="5.978339" lat="50.973264"><ele>57.8</ele><time>2022-04-10T07:45:33.000Z</time></trkpt><trkpt lon="5.978292" lat="50.973202"><ele>58</ele><time>2022-04-10T07:45:34.000Z</time></trkpt><trkpt lon="5.978243" lat="50.973143"><ele>58.2</ele><time>2022-04-10T07:45:35.000Z</time></trkpt><trkpt lon="5.978195" lat="50.973083"><ele>58.2</ele><time>2022-04-10T07:45:36.000Z</time></trkpt><trkpt lon="5.978146" lat="50.973026"><ele>58.2</ele><time>2022-04-10T07:45:37.000Z</time></trkpt><trkpt lon="5.978098" lat="50.972968"><ele>58.4</ele><time>2022-04-10T07:45:38.000Z</time></trkpt><trkpt lon="5.978048" lat="50.972908"><ele>58.4</ele><time>2022-04-10T07:45:39.000Z</time></trkpt><trkpt lon="5.977995" lat="50.972854"><ele>58.4</ele><time>2022-04-10T07:45:40.000Z</time></trkpt><trkpt lon="5.977942" lat="50.972797"><ele>58.4</ele><time>2022-04-10T07:45:41.000Z</time></trkpt><trkpt lon="5.977887" lat="50.972738"><ele>58.6</ele><time>2022-04-10T07:45:42.000Z</time></trkpt><trkpt lon="5.977836" lat="50.972677"><ele>58.6</ele><time>2022-04-10T07:45:43.000Z</time></trkpt><trkpt lon="5.977788" lat="50.972616"><ele>58.6</ele><time>2022-04-10T07:45:44.000Z</time></trkpt><trkpt lon="5.977737" lat="50.972556"><ele>58.6</ele><time>2022-04-10T07:45:45.000Z</time></trkpt><trkpt lon="5.977685" lat="50.972498"><ele>58.6</ele><time>2022-04-10T07:45:46.000Z</time></trkpt><trkpt lon="5.977634" lat="50.972438"><ele>58.8</ele><time>2022-04-10T07:45:47.000Z</time></trkpt><trkpt lon="5.977589" lat="50.972382"><ele>58.8</ele><time>2022-04-10T07:45:48.000Z</time></trkpt><trkpt lon="5.977548" lat="50.972327"><ele>58.8</ele><time>2022-04-10T07:45:49.000Z</time></trkpt><trkpt lon="5.977505" lat="50.97227"><ele>58.8</ele><time>2022-04-10T07:45:50.000Z</time></trkpt><trkpt lon="5.977463" lat="50.972213"><ele>58.8</ele><time>2022-04-10T07:45:51.000Z</time></trkpt><trkpt lon="5.977424" lat="50.972154"><ele>58.8</ele><time>2022-04-10T07:45:52.000Z</time></trkpt><trkpt lon="5.977383" lat="50.972091"><ele>58.8</ele><time>2022-04-10T07:45:53.000Z</time></trkpt><trkpt lon="5.977337" lat="50.972034"><ele>58.8</ele><time>2022-04-10T07:45:54.000Z</time></trkpt><trkpt lon="5.97729" lat="50.971975"><ele>59</ele><time>2022-04-10T07:45:55.000Z</time></trkpt><trkpt lon="5.977243" lat="50.971916"><ele>58.8</ele><time>2022-04-10T07:45:56.000Z</time></trkpt><trkpt lon="5.977191" lat="50.971857"><ele>58.8</ele><time>2022-04-10T07:45:57.000Z</time></trkpt><trkpt lon="5.977141" lat="50.971798"><ele>58.6</ele><time>2022-04-10T07:45:58.000Z</time></trkpt><trkpt lon="5.977088" lat="50.97174"><ele>58.6</ele><time>2022-04-10T07:45:59.000Z</time></trkpt><trkpt lon="5.977037" lat="50.971679"><ele>58.8</ele><time>2022-04-10T07:46:00.000Z</time></trkpt><trkpt lon="5.97699" lat="50.97162"><ele>58.8</ele><time>2022-04-10T07:46:01.000Z</time></trkpt><trkpt lon="5.97695" lat="50.971562"><ele>58.8</ele><time>2022-04-10T07:46:02.000Z</time></trkpt><trkpt lon="5.976912" lat="50.971507"><ele>58.8</ele><time>2022-04-10T07:46:03.000Z</time></trkpt><trkpt lon="5.976878" lat="50.971451"><ele>58.8</ele><time>2022-04-10T07:46:04.000Z</time></trkpt><trkpt lon="5.976846" lat="50.971398"><ele>58.8</ele><time>2022-04-10T07:46:05.000Z</time></trkpt><trkpt lon="5.976814" lat="50.971344"><ele>58.8</ele><time>2022-04-10T07:46:06.000Z</time></trkpt><trkpt lon="5.976786" lat="50.971291"><ele>58.8</ele><time>2022-04-10T07:46:07.000Z</time></trkpt><trkpt lon="5.976752" lat="50.971237"><ele>58.8</ele><time>2022-04-10T07:46:08.000Z</time></trkpt><trkpt lon="5.976718" lat="50.971184"><ele>58.8</ele><time>2022-04-10T07:46:09.000Z</time></trkpt><trkpt lon="5.976688" lat="50.97113"><ele>58.6</ele><time>2022-04-10T07:46:10.000Z</time></trkpt><trkpt lon="5.976657" lat="50.971078"><ele>58.6</ele><time>2022-04-10T07:46:11.000Z</time></trkpt><trkpt lon="5.976624" lat="50.97103"><ele>58.4</ele><time>2022-04-10T07:46:12.000Z</time></trkpt><trkpt lon="5.976589" lat="50.970986"><ele>58.4</ele><time>2022-04-10T07:46:13.000Z</time></trkpt><trkpt lon="5.976555" lat="50.970944"><ele>58.2</ele><time>2022-04-10T07:46:14.000Z</time></trkpt><trkpt lon="5.976525" lat="50.970906"><ele>58.2</ele><time>2022-04-10T07:46:15.000Z</time></trkpt><trkpt lon="5.976492" lat="50.970869"><ele>58.2</ele><time>2022-04-10T07:46:16.000Z</time></trkpt><trkpt lon="5.976457" lat="50.970835"><ele>58</ele><time>2022-04-10T07:46:17.000Z</time></trkpt><trkpt lon="5.976412" lat="50.970804"><ele>58</ele><time>2022-04-10T07:46:18.000Z</time></trkpt><trkpt lon="5.976357" lat="50.970787"><ele>57.8</ele><time>2022-04-10T07:46:19.000Z</time></trkpt><trkpt lon="5.976298" lat="50.970791"><ele>57.8</ele><time>2022-04-10T07:46:20.000Z</time></trkpt><trkpt lon="5.976236" lat="50.970808"><ele>57.8</ele><time>2022-04-10T07:46:21.000Z</time></trkpt><trkpt lon="5.976177" lat="50.970833"><ele>57.8</ele><time>2022-04-10T07:46:22.000Z</time></trkpt><trkpt lon="5.976118" lat="50.970862"><ele>58</ele><time>2022-04-10T07:46:23.000Z</time></trkpt><trkpt lon="5.976053" lat="50.970899"><ele>58.2</ele><time>2022-04-10T07:46:24.000Z</time></trkpt><trkpt lon="5.975979" lat="50.970926"><ele>58.2</ele><time>2022-04-10T07:46:25.000Z</time></trkpt><trkpt lon="5.975901" lat="50.970938"><ele>58.4</ele><time>2022-04-10T07:46:26.000Z</time></trkpt><trkpt lon="5.975831" lat="50.970925"><ele>58.6</ele><time>2022-04-10T07:46:27.000Z</time></trkpt><trkpt lon="5.975777" lat="50.970892"><ele>58.8</ele><time>2022-04-10T07:46:28.000Z</time></trkpt><trkpt lon="5.975737" lat="50.970841"><ele>59</ele><time>2022-04-10T07:46:29.000Z</time></trkpt><trkpt lon="5.975701" lat="50.970786"><ele>59.2</ele><time>2022-04-10T07:46:30.000Z</time></trkpt><trkpt lon="5.975661" lat="50.97073"><ele>59.4</ele><time>2022-04-10T07:46:31.000Z</time></trkpt><trkpt lon="5.975615" lat="50.970673"><ele>59.6</ele><time>2022-04-10T07:46:32.000Z</time></trkpt><trkpt lon="5.975565" lat="50.97061"><ele>59.6</ele><time>2022-04-10T07:46:33.000Z</time></trkpt><trkpt lon="5.975511" lat="50.970552"><ele>59.6</ele><time>2022-04-10T07:46:34.000Z</time></trkpt><trkpt lon="5.975455" lat="50.970494"><ele>59.6</ele><time>2022-04-10T07:46:35.000Z</time></trkpt><trkpt lon="5.975398" lat="50.970439"><ele>59.6</ele><time>2022-04-10T07:46:36.000Z</time></trkpt><trkpt lon="5.975343" lat="50.970382"><ele>59.8</ele><time>2022-04-10T07:46:37.000Z</time></trkpt><trkpt lon="5.975289" lat="50.970326"><ele>60</ele><time>2022-04-10T07:46:38.000Z</time></trkpt><trkpt lon="5.97524" lat="50.970274"><ele>60.2</ele><time>2022-04-10T07:46:39.000Z</time></trkpt><trkpt lon="5.975192" lat="50.970225"><ele>60.4</ele><time>2022-04-10T07:46:40.000Z</time></trkpt><trkpt lon="5.975146" lat="50.97017"><ele>60.4</ele><time>2022-04-10T07:46:41.000Z</time></trkpt><trkpt lon="5.975104" lat="50.970121"><ele>60.6</ele><time>2022-04-10T07:46:42.000Z</time></trkpt><trkpt lon="5.97506" lat="50.970072"><ele>60.8</ele><time>2022-04-10T07:46:43.000Z</time></trkpt><trkpt lon="5.975017" lat="50.970023"><ele>60.8</ele><time>2022-04-10T07:46:44.000Z</time></trkpt><trkpt lon="5.974975" lat="50.969974"><ele>61</ele><time>2022-04-10T07:46:45.000Z</time></trkpt><trkpt lon="5.974935" lat="50.969922"><ele>61</ele><time>2022-04-10T07:46:46.000Z</time></trkpt><trkpt lon="5.974894" lat="50.969874"><ele>61</ele><time>2022-04-10T07:46:47.000Z</time></trkpt><trkpt lon="5.974851" lat="50.969828"><ele>61.2</ele><time>2022-04-10T07:46:48.000Z</time></trkpt><trkpt lon="5.974808" lat="50.969783"><ele>61.2</ele><time>2022-04-10T07:46:49.000Z</time></trkpt><trkpt lon="5.974766" lat="50.969741"><ele>61</ele><time>2022-04-10T07:46:50.000Z</time></trkpt><trkpt lon="5.974721" lat="50.969695"><ele>61</ele><time>2022-04-10T07:46:51.000Z</time></trkpt><trkpt lon="5.974674" lat="50.969642"><ele>60.8</ele><time>2022-04-10T07:46:52.000Z</time></trkpt><trkpt lon="5.974627" lat="50.969583"><ele>60.6</ele><time>2022-04-10T07:46:53.000Z</time></trkpt><trkpt lon="5.974581" lat="50.969521"><ele>60.2</ele><time>2022-04-10T07:46:54.000Z</time></trkpt><trkpt lon="5.974537" lat="50.96945"><ele>59.8</ele><time>2022-04-10T07:46:55.000Z</time></trkpt><trkpt lon="5.97449" lat="50.969374"><ele>59.6</ele><time>2022-04-10T07:46:56.000Z</time></trkpt><trkpt lon="5.974434" lat="50.9693"><ele>59.2</ele><time>2022-04-10T07:46:57.000Z</time></trkpt><trkpt lon="5.97437" lat="50.969231"><ele>59</ele><time>2022-04-10T07:46:58.000Z</time></trkpt><trkpt lon="5.974299" lat="50.969159"><ele>58.8</ele><time>2022-04-10T07:46:59.000Z</time></trkpt><trkpt lon="5.974231" lat="50.969095"><ele>58.8</ele><time>2022-04-10T07:47:00.000Z</time></trkpt><trkpt lon="5.974163" lat="50.969031"><ele>58.8</ele><time>2022-04-10T07:47:01.000Z</time></trkpt><trkpt lon="5.974099" lat="50.968969"><ele>58.8</ele><time>2022-04-10T07:47:02.000Z</time></trkpt><trkpt lon="5.974042" lat="50.968908"><ele>58.8</ele><time>2022-04-10T07:47:03.000Z</time></trkpt><trkpt lon="5.973983" lat="50.968848"><ele>58.8</ele><time>2022-04-10T07:47:04.000Z</time></trkpt><trkpt lon="5.973923" lat="50.968791"><ele>59</ele><time>2022-04-10T07:47:05.000Z</time></trkpt><trkpt lon="5.973862" lat="50.968735"><ele>59</ele><time>2022-04-10T07:47:06.000Z</time></trkpt><trkpt lon="5.973801" lat="50.968678"><ele>59.2</ele><time>2022-04-10T07:47:07.000Z</time></trkpt><trkpt lon="5.97374" lat="50.96862"><ele>59.4</ele><time>2022-04-10T07:47:08.000Z</time></trkpt><trkpt lon="5.973682" lat="50.968563"><ele>59.4</ele><time>2022-04-10T07:47:09.000Z</time></trkpt><trkpt lon="5.973623" lat="50.96851"><ele>59.6</ele><time>2022-04-10T07:47:10.000Z</time></trkpt><trkpt lon="5.973565" lat="50.968458"><ele>59.6</ele><time>2022-04-10T07:47:11.000Z</time></trkpt><trkpt lon="5.973502" lat="50.968409"><ele>59.6</ele><time>2022-04-10T07:47:12.000Z</time></trkpt><trkpt lon="5.973436" lat="50.968362"><ele>59.8</ele><time>2022-04-10T07:47:13.000Z</time></trkpt><trkpt lon="5.973361" lat="50.968313"><ele>59.8</ele><time>2022-04-10T07:47:14.000Z</time></trkpt><trkpt lon="5.973279" lat="50.968264"><ele>60</ele><time>2022-04-10T07:47:15.000Z</time></trkpt><trkpt lon="5.973197" lat="50.968218"><ele>60.2</ele><time>2022-04-10T07:47:16.000Z</time></trkpt><trkpt lon="5.973117" lat="50.968173"><ele>60.4</ele><time>2022-04-10T07:47:17.000Z</time></trkpt><trkpt lon="5.973038" lat="50.968128"><ele>60.4</ele><time>2022-04-10T07:47:18.000Z</time></trkpt><trkpt lon="5.972959" lat="50.968081"><ele>60.6</ele><time>2022-04-10T07:47:19.000Z</time></trkpt><trkpt lon="5.972884" lat="50.968036"><ele>60.6</ele><time>2022-04-10T07:47:20.000Z</time></trkpt><trkpt lon="5.972809" lat="50.967995"><ele>60.6</ele><time>2022-04-10T07:47:21.000Z</time></trkpt><trkpt lon="5.972736" lat="50.967952"><ele>60.4</ele><time>2022-04-10T07:47:22.000Z</time></trkpt><trkpt lon="5.972663" lat="50.967907"><ele>60.6</ele><time>2022-04-10T07:47:23.000Z</time></trkpt><trkpt lon="5.972589" lat="50.967865"><ele>60.6</ele><time>2022-04-10T07:47:24.000Z</time></trkpt><trkpt lon="5.972514" lat="50.967821"><ele>60.6</ele><time>2022-04-10T07:47:25.000Z</time></trkpt><trkpt lon="5.972439" lat="50.967777"><ele>60.6</ele><time>2022-04-10T07:47:26.000Z</time></trkpt><trkpt lon="5.972366" lat="50.967734"><ele>60.6</ele><time>2022-04-10T07:47:27.000Z</time></trkpt><trkpt lon="5.972291" lat="50.967685"><ele>60.6</ele><time>2022-04-10T07:47:28.000Z</time></trkpt><trkpt lon="5.972223" lat="50.967644"><ele>60.6</ele><time>2022-04-10T07:47:29.000Z</time></trkpt><trkpt lon="5.972157" lat="50.967603"><ele>60.6</ele><time>2022-04-10T07:47:30.000Z</time></trkpt><trkpt lon="5.97209" lat="50.967565"><ele>60.8</ele><time>2022-04-10T07:47:31.000Z</time></trkpt><trkpt lon="5.972021" lat="50.967528"><ele>60.8</ele><time>2022-04-10T07:47:32.000Z</time></trkpt><trkpt lon="5.97195" lat="50.96748"><ele>61</ele><time>2022-04-10T07:47:33.000Z</time></trkpt><trkpt lon="5.971874" lat="50.967427"><ele>61</ele><time>2022-04-10T07:47:34.000Z</time></trkpt><trkpt lon="5.97179" lat="50.967377"><ele>61.2</ele><time>2022-04-10T07:47:35.000Z</time></trkpt><trkpt lon="5.971709" lat="50.967327"><ele>61.2</ele><time>2022-04-10T07:47:36.000Z</time></trkpt><trkpt lon="5.971631" lat="50.967283"><ele>61.4</ele><time>2022-04-10T07:47:37.000Z</time></trkpt><trkpt lon="5.971557" lat="50.967235"><ele>61.6</ele><time>2022-04-10T07:47:38.000Z</time></trkpt><trkpt lon="5.971487" lat="50.967195"><ele>61.8</ele><time>2022-04-10T07:47:39.000Z</time></trkpt><trkpt lon="5.971414" lat="50.967155"><ele>62</ele><time>2022-04-10T07:47:40.000Z</time></trkpt><trkpt lon="5.971347" lat="50.967114"><ele>62.2</ele><time>2022-04-10T07:47:41.000Z</time></trkpt><trkpt lon="5.971282" lat="50.967076"><ele>62.2</ele><time>2022-04-10T07:47:42.000Z</time></trkpt><trkpt lon="5.971217" lat="50.967038"><ele>62.4</ele><time>2022-04-10T07:47:43.000Z</time></trkpt><trkpt lon="5.971156" lat="50.967001"><ele>62.6</ele><time>2022-04-10T07:47:44.000Z</time></trkpt><trkpt lon="5.971099" lat="50.966964"><ele>62.8</ele><time>2022-04-10T07:47:45.000Z</time></trkpt><trkpt lon="5.971042" lat="50.966924"><ele>63.2</ele><time>2022-04-10T07:47:46.000Z</time></trkpt><trkpt lon="5.970985" lat="50.966886"><ele>63.4</ele><time>2022-04-10T07:47:47.000Z</time></trkpt><trkpt lon="5.970935" lat="50.966847"><ele>63.6</ele><time>2022-04-10T07:47:48.000Z</time></trkpt><trkpt lon="5.970889" lat="50.96681"><ele>63.8</ele><time>2022-04-10T07:47:49.000Z</time></trkpt><trkpt lon="5.970841" lat="50.966775"><ele>64.2</ele><time>2022-04-10T07:47:50.000Z</time></trkpt><trkpt lon="5.970787" lat="50.966738"><ele>64.4</ele><time>2022-04-10T07:47:51.000Z</time></trkpt><trkpt lon="5.970736" lat="50.966702"><ele>64.6</ele><time>2022-04-10T07:47:52.000Z</time></trkpt><trkpt lon="5.970688" lat="50.966664"><ele>64.8</ele><time>2022-04-10T07:47:53.000Z</time></trkpt><trkpt lon="5.970642" lat="50.966626"><ele>64.8</ele><time>2022-04-10T07:47:54.000Z</time></trkpt><trkpt lon="5.970594" lat="50.966588"><ele>65</ele><time>2022-04-10T07:47:55.000Z</time></trkpt><trkpt lon="5.970539" lat="50.96655"><ele>65.2</ele><time>2022-04-10T07:47:56.000Z</time></trkpt><trkpt lon="5.970471" lat="50.966512"><ele>65.2</ele><time>2022-04-10T07:47:57.000Z</time></trkpt><trkpt lon="5.970406" lat="50.966472"><ele>65.2</ele><time>2022-04-10T07:47:58.000Z</time></trkpt><trkpt lon="5.970345" lat="50.96643"><ele>65.4</ele><time>2022-04-10T07:47:59.000Z</time></trkpt><trkpt lon="5.970282" lat="50.966387"><ele>65.4</ele><time>2022-04-10T07:48:00.000Z</time></trkpt><trkpt lon="5.97022" lat="50.966343"><ele>65.6</ele><time>2022-04-10T07:48:01.000Z</time></trkpt><trkpt lon="5.970158" lat="50.966301"><ele>65.8</ele><time>2022-04-10T07:48:02.000Z</time></trkpt><trkpt lon="5.970098" lat="50.966259"><ele>66</ele><time>2022-04-10T07:48:03.000Z</time></trkpt><trkpt lon="5.970036" lat="50.966217"><ele>66.2</ele><time>2022-04-10T07:48:04.000Z</time></trkpt><trkpt lon="5.969972" lat="50.966174"><ele>66.2</ele><time>2022-04-10T07:48:05.000Z</time></trkpt><trkpt lon="5.969911" lat="50.966129"><ele>66.4</ele><time>2022-04-10T07:48:06.000Z</time></trkpt><trkpt lon="5.969849" lat="50.966088"><ele>66.6</ele><time>2022-04-10T07:48:07.000Z</time></trkpt><trkpt lon="5.969786" lat="50.966045"><ele>66.8</ele><time>2022-04-10T07:48:08.000Z</time></trkpt><trkpt lon="5.969723" lat="50.966003"><ele>66.8</ele><time>2022-04-10T07:48:09.000Z</time></trkpt><trkpt lon="5.969659" lat="50.965957"><ele>67</ele><time>2022-04-10T07:48:10.000Z</time></trkpt><trkpt lon="5.969597" lat="50.965916"><ele>67.2</ele><time>2022-04-10T07:48:11.000Z</time></trkpt><trkpt lon="5.969534" lat="50.965873"><ele>67.2</ele><time>2022-04-10T07:48:12.000Z</time></trkpt><trkpt lon="5.969474" lat="50.965832"><ele>67.4</ele><time>2022-04-10T07:48:13.000Z</time></trkpt><trkpt lon="5.969413" lat="50.96579"><ele>67.4</ele><time>2022-04-10T07:48:14.000Z</time></trkpt><trkpt lon="5.969352" lat="50.965747"><ele>67.6</ele><time>2022-04-10T07:48:15.000Z</time></trkpt><trkpt lon="5.969291" lat="50.965704"><ele>67.8</ele><time>2022-04-10T07:48:16.000Z</time></trkpt><trkpt lon="5.969231" lat="50.965661"><ele>68</ele><time>2022-04-10T07:48:17.000Z</time></trkpt><trkpt lon="5.96917" lat="50.965622"><ele>68.2</ele><time>2022-04-10T07:48:18.000Z</time></trkpt><trkpt lon="5.969107" lat="50.965579"><ele>68.4</ele><time>2022-04-10T07:48:19.000Z</time></trkpt><trkpt lon="5.969043" lat="50.965534"><ele>68.6</ele><time>2022-04-10T07:48:20.000Z</time></trkpt><trkpt lon="5.96898" lat="50.965492"><ele>68.6</ele><time>2022-04-10T07:48:21.000Z</time></trkpt><trkpt lon="5.968917" lat="50.96545"><ele>68.8</ele><time>2022-04-10T07:48:22.000Z</time></trkpt><trkpt lon="5.968854" lat="50.965408"><ele>69</ele><time>2022-04-10T07:48:23.000Z</time></trkpt><trkpt lon="5.968792" lat="50.965366"><ele>69</ele><time>2022-04-10T07:48:24.000Z</time></trkpt><trkpt lon="5.96873" lat="50.965324"><ele>69.2</ele><time>2022-04-10T07:48:25.000Z</time></trkpt><trkpt lon="5.968669" lat="50.965282"><ele>69.4</ele><time>2022-04-10T07:48:26.000Z</time></trkpt><trkpt lon="5.968606" lat="50.96524"><ele>69.6</ele><time>2022-04-10T07:48:27.000Z</time></trkpt><trkpt lon="5.968544" lat="50.965198"><ele>69.6</ele><time>2022-04-10T07:48:28.000Z</time></trkpt><trkpt lon="5.968484" lat="50.965157"><ele>69.8</ele><time>2022-04-10T07:48:29.000Z</time></trkpt><trkpt lon="5.968421" lat="50.965112"><ele>70</ele><time>2022-04-10T07:48:30.000Z</time></trkpt><trkpt lon="5.968357" lat="50.965068"><ele>70.2</ele><time>2022-04-10T07:48:31.000Z</time></trkpt><trkpt lon="5.968292" lat="50.965026"><ele>70.4</ele><time>2022-04-10T07:48:32.000Z</time></trkpt><trkpt lon="5.968229" lat="50.964983"><ele>70.4</ele><time>2022-04-10T07:48:33.000Z</time></trkpt><trkpt lon="5.968166" lat="50.964939"><ele>70.4</ele><time>2022-04-10T07:48:34.000Z</time></trkpt><trkpt lon="5.968104" lat="50.964897"><ele>70.4</ele><time>2022-04-10T07:48:35.000Z</time></trkpt><trkpt lon="5.968041" lat="50.964855"><ele>70.4</ele><time>2022-04-10T07:48:36.000Z</time></trkpt><trkpt lon="5.967979" lat="50.964813"><ele>70.4</ele><time>2022-04-10T07:48:37.000Z</time></trkpt><trkpt lon="5.967916" lat="50.964771"><ele>70.4</ele><time>2022-04-10T07:48:38.000Z</time></trkpt><trkpt lon="5.967854" lat="50.964728"><ele>70.6</ele><time>2022-04-10T07:48:39.000Z</time></trkpt><trkpt lon="5.967793" lat="50.964683"><ele>70.8</ele><time>2022-04-10T07:48:40.000Z</time></trkpt><trkpt lon="5.967733" lat="50.964641"><ele>70.8</ele><time>2022-04-10T07:48:41.000Z</time></trkpt><trkpt lon="5.967671" lat="50.9646"><ele>71</ele><time>2022-04-10T07:48:42.000Z</time></trkpt><trkpt lon="5.967608" lat="50.964557"><ele>71.2</ele><time>2022-04-10T07:48:43.000Z</time></trkpt><trkpt lon="5.967546" lat="50.964515"><ele>71.4</ele><time>2022-04-10T07:48:44.000Z</time></trkpt><trkpt lon="5.967484" lat="50.964474"><ele>71.6</ele><time>2022-04-10T07:48:45.000Z</time></trkpt><trkpt lon="5.967423" lat="50.964435"><ele>71.6</ele><time>2022-04-10T07:48:46.000Z</time></trkpt><trkpt lon="5.96736" lat="50.964393"><ele>71.8</ele><time>2022-04-10T07:48:47.000Z</time></trkpt><trkpt lon="5.967298" lat="50.964352"><ele>72</ele><time>2022-04-10T07:48:48.000Z</time></trkpt><trkpt lon="5.967236" lat="50.964309"><ele>72</ele><time>2022-04-10T07:48:49.000Z</time></trkpt><trkpt lon="5.967176" lat="50.964268"><ele>72</ele><time>2022-04-10T07:48:50.000Z</time></trkpt><trkpt lon="5.967116" lat="50.964228"><ele>72.2</ele><time>2022-04-10T07:48:51.000Z</time></trkpt><trkpt lon="5.96705" lat="50.964183"><ele>72.2</ele><time>2022-04-10T07:48:52.000Z</time></trkpt><trkpt lon="5.96699" lat="50.964142"><ele>72.2</ele><time>2022-04-10T07:48:53.000Z</time></trkpt><trkpt lon="5.96693" lat="50.9641"><ele>72.4</ele><time>2022-04-10T07:48:54.000Z</time></trkpt><trkpt lon="5.966869" lat="50.964056"><ele>72.4</ele><time>2022-04-10T07:48:55.000Z</time></trkpt><trkpt lon="5.966808" lat="50.964011"><ele>72.4</ele><time>2022-04-10T07:48:56.000Z</time></trkpt><trkpt lon="5.966746" lat="50.963964"><ele>72.4</ele><time>2022-04-10T07:48:57.000Z</time></trkpt><trkpt lon="5.966683" lat="50.963916"><ele>72.4</ele><time>2022-04-10T07:48:58.000Z</time></trkpt><trkpt lon="5.966621" lat="50.963869"><ele>72.2</ele><time>2022-04-10T07:48:59.000Z</time></trkpt><trkpt lon="5.966559" lat="50.963819"><ele>72.2</ele><time>2022-04-10T07:49:00.000Z</time></trkpt><trkpt lon="5.966495" lat="50.96377"><ele>72</ele><time>2022-04-10T07:49:01.000Z</time></trkpt><trkpt lon="5.966431" lat="50.963719"><ele>72</ele><time>2022-04-10T07:49:02.000Z</time></trkpt><trkpt lon="5.966367" lat="50.963665"><ele>71.8</ele><time>2022-04-10T07:49:03.000Z</time></trkpt><trkpt lon="5.966304" lat="50.963611"><ele>71.6</ele><time>2022-04-10T07:49:04.000Z</time></trkpt><trkpt lon="5.966244" lat="50.963552"><ele>71.4</ele><time>2022-04-10T07:49:05.000Z</time></trkpt><trkpt lon="5.966189" lat="50.96349"><ele>71</ele><time>2022-04-10T07:49:06.000Z</time></trkpt><trkpt lon="5.966142" lat="50.963425"><ele>70.8</ele><time>2022-04-10T07:49:07.000Z</time></trkpt><trkpt lon="5.966104" lat="50.963355"><ele>70.4</ele><time>2022-04-10T07:49:08.000Z</time></trkpt><trkpt lon="5.966073" lat="50.963281"><ele>70</ele><time>2022-04-10T07:49:09.000Z</time></trkpt><trkpt lon="5.966048" lat="50.963204"><ele>69.8</ele><time>2022-04-10T07:49:10.000Z</time></trkpt><trkpt lon="5.966026" lat="50.963124"><ele>69.4</ele><time>2022-04-10T07:49:11.000Z</time></trkpt><trkpt lon="5.966006" lat="50.963044"><ele>69</ele><time>2022-04-10T07:49:12.000Z</time></trkpt><trkpt lon="5.965984" lat="50.962962"><ele>68.6</ele><time>2022-04-10T07:49:13.000Z</time></trkpt><trkpt lon="5.965962" lat="50.96288"><ele>68.2</ele><time>2022-04-10T07:49:14.000Z</time></trkpt><trkpt lon="5.965941" lat="50.962801"><ele>68</ele><time>2022-04-10T07:49:15.000Z</time></trkpt><trkpt lon="5.965921" lat="50.962721"><ele>67.6</ele><time>2022-04-10T07:49:16.000Z</time></trkpt><trkpt lon="5.965901" lat="50.962645"><ele>67</ele><time>2022-04-10T07:49:17.000Z</time></trkpt><trkpt lon="5.96588" lat="50.962572"><ele>66.8</ele><time>2022-04-10T07:49:18.000Z</time></trkpt><trkpt lon="5.96586" lat="50.962497"><ele>66.6</ele><time>2022-04-10T07:49:19.000Z</time></trkpt><trkpt lon="5.965842" lat="50.962426"><ele>66.2</ele><time>2022-04-10T07:49:20.000Z</time></trkpt><trkpt lon="5.965825" lat="50.962356"><ele>66.2</ele><time>2022-04-10T07:49:21.000Z</time></trkpt><trkpt lon="5.965806" lat="50.962288"><ele>66.4</ele><time>2022-04-10T07:49:22.000Z</time></trkpt><trkpt lon="5.965784" lat="50.962223"><ele>66.4</ele><time>2022-04-10T07:49:23.000Z</time></trkpt><trkpt lon="5.965765" lat="50.962155"><ele>66.6</ele><time>2022-04-10T07:49:24.000Z</time></trkpt><trkpt lon="5.965746" lat="50.962089"><ele>66.6</ele><time>2022-04-10T07:49:25.000Z</time></trkpt><trkpt lon="5.965728" lat="50.962021"><ele>66.6</ele><time>2022-04-10T07:49:26.000Z</time></trkpt><trkpt lon="5.96571" lat="50.961957"><ele>66.8</ele><time>2022-04-10T07:49:27.000Z</time></trkpt><trkpt lon="5.965693" lat="50.961892"><ele>67</ele><time>2022-04-10T07:49:28.000Z</time></trkpt><trkpt lon="5.965676" lat="50.961828"><ele>67.2</ele><time>2022-04-10T07:49:29.000Z</time></trkpt><trkpt lon="5.965659" lat="50.961764"><ele>67.4</ele><time>2022-04-10T07:49:30.000Z</time></trkpt><trkpt lon="5.965642" lat="50.961702"><ele>67.8</ele><time>2022-04-10T07:49:31.000Z</time></trkpt><trkpt lon="5.965627" lat="50.961641"><ele>68</ele><time>2022-04-10T07:49:32.000Z</time></trkpt><trkpt lon="5.965611" lat="50.961577"><ele>68</ele><time>2022-04-10T07:49:33.000Z</time></trkpt><trkpt lon="5.965598" lat="50.961515"><ele>68.2</ele><time>2022-04-10T07:49:34.000Z</time></trkpt><trkpt lon="5.965584" lat="50.961454"><ele>68.4</ele><time>2022-04-10T07:49:35.000Z</time></trkpt><trkpt lon="5.965568" lat="50.961389"><ele>68.6</ele><time>2022-04-10T07:49:36.000Z</time></trkpt><trkpt lon="5.965551" lat="50.961325"><ele>68.6</ele><time>2022-04-10T07:49:37.000Z</time></trkpt><trkpt lon="5.965534" lat="50.961264"><ele>68.8</ele><time>2022-04-10T07:49:38.000Z</time></trkpt><trkpt lon="5.965512" lat="50.961201"><ele>69.2</ele><time>2022-04-10T07:49:39.000Z</time></trkpt><trkpt lon="5.965485" lat="50.961139"><ele>69.4</ele><time>2022-04-10T07:49:40.000Z</time></trkpt><trkpt lon="5.965455" lat="50.961081"><ele>69.6</ele><time>2022-04-10T07:49:41.000Z</time></trkpt><trkpt lon="5.965418" lat="50.961021"><ele>69.8</ele><time>2022-04-10T07:49:42.000Z</time></trkpt><trkpt lon="5.965374" lat="50.960965"><ele>70</ele><time>2022-04-10T07:49:43.000Z</time></trkpt><trkpt lon="5.965326" lat="50.960911"><ele>70.2</ele><time>2022-04-10T07:49:44.000Z</time></trkpt><trkpt lon="5.965276" lat="50.960858"><ele>70.2</ele><time>2022-04-10T07:49:45.000Z</time></trkpt><trkpt lon="5.965223" lat="50.960806"><ele>70.4</ele><time>2022-04-10T07:49:46.000Z</time></trkpt><trkpt lon="5.965167" lat="50.960755"><ele>70.6</ele><time>2022-04-10T07:49:47.000Z</time></trkpt><trkpt lon="5.965111" lat="50.960705"><ele>70.8</ele><time>2022-04-10T07:49:48.000Z</time></trkpt><trkpt lon="5.965054" lat="50.960653"><ele>71</ele><time>2022-04-10T07:49:49.000Z</time></trkpt><trkpt lon="5.964995" lat="50.960603"><ele>71.2</ele><time>2022-04-10T07:49:50.000Z</time></trkpt><trkpt lon="5.964937" lat="50.960552"><ele>71.4</ele><time>2022-04-10T07:49:51.000Z</time></trkpt><trkpt lon="5.964879" lat="50.9605"><ele>71.4</ele><time>2022-04-10T07:49:52.000Z</time></trkpt><trkpt lon="5.964823" lat="50.960451"><ele>71.6</ele><time>2022-04-10T07:49:53.000Z</time></trkpt><trkpt lon="5.964763" lat="50.960401"><ele>71.6</ele><time>2022-04-10T07:49:54.000Z</time></trkpt><trkpt lon="5.964703" lat="50.960351"><ele>71.6</ele><time>2022-04-10T07:49:55.000Z</time></trkpt><trkpt lon="5.964643" lat="50.960302"><ele>71.6</ele><time>2022-04-10T07:49:56.000Z</time></trkpt><trkpt lon="5.964583" lat="50.960254"><ele>71.6</ele><time>2022-04-10T07:49:57.000Z</time></trkpt><trkpt lon="5.964522" lat="50.960202"><ele>71.6</ele><time>2022-04-10T07:49:58.000Z</time></trkpt><trkpt lon="5.964461" lat="50.960149"><ele>71.8</ele><time>2022-04-10T07:49:59.000Z</time></trkpt><trkpt lon="5.964399" lat="50.9601"><ele>71.8</ele><time>2022-04-10T07:50:00.000Z</time></trkpt><trkpt lon="5.964336" lat="50.96005"><ele>71.6</ele><time>2022-04-10T07:50:01.000Z</time></trkpt><trkpt lon="5.964273" lat="50.960001"><ele>71.6</ele><time>2022-04-10T07:50:02.000Z</time></trkpt><trkpt lon="5.964211" lat="50.95995"><ele>71.8</ele><time>2022-04-10T07:50:03.000Z</time></trkpt><trkpt lon="5.96415" lat="50.959898"><ele>71.6</ele><time>2022-04-10T07:50:04.000Z</time></trkpt><trkpt lon="5.964089" lat="50.959848"><ele>71.6</ele><time>2022-04-10T07:50:05.000Z</time></trkpt><trkpt lon="5.964026" lat="50.959798"><ele>71.4</ele><time>2022-04-10T07:50:06.000Z</time></trkpt><trkpt lon="5.963965" lat="50.959748"><ele>71.4</ele><time>2022-04-10T07:50:07.000Z</time></trkpt><trkpt lon="5.963904" lat="50.959696"><ele>71.4</ele><time>2022-04-10T07:50:08.000Z</time></trkpt><trkpt lon="5.963838" lat="50.959645"><ele>71.4</ele><time>2022-04-10T07:50:09.000Z</time></trkpt><trkpt lon="5.963774" lat="50.959596"><ele>71.4</ele><time>2022-04-10T07:50:10.000Z</time></trkpt><trkpt lon="5.96371" lat="50.959546"><ele>71.4</ele><time>2022-04-10T07:50:11.000Z</time></trkpt><trkpt lon="5.963645" lat="50.959497"><ele>71.6</ele><time>2022-04-10T07:50:12.000Z</time></trkpt><trkpt lon="5.963581" lat="50.959447"><ele>71.6</ele><time>2022-04-10T07:50:13.000Z</time></trkpt><trkpt lon="5.963518" lat="50.959397"><ele>71.6</ele><time>2022-04-10T07:50:14.000Z</time></trkpt><trkpt lon="5.963456" lat="50.959345"><ele>71.6</ele><time>2022-04-10T07:50:15.000Z</time></trkpt><trkpt lon="5.963392" lat="50.959296"><ele>71.6</ele><time>2022-04-10T07:50:16.000Z</time></trkpt><trkpt lon="5.963329" lat="50.95925"><ele>71.6</ele><time>2022-04-10T07:50:17.000Z</time></trkpt><trkpt lon="5.963263" lat="50.959199"><ele>71.6</ele><time>2022-04-10T07:50:18.000Z</time></trkpt><trkpt lon="5.963198" lat="50.959147"><ele>71.8</ele><time>2022-04-10T07:50:19.000Z</time></trkpt><trkpt lon="5.963132" lat="50.959096"><ele>71.8</ele><time>2022-04-10T07:50:20.000Z</time></trkpt><trkpt lon="5.963067" lat="50.959046"><ele>72</ele><time>2022-04-10T07:50:21.000Z</time></trkpt><trkpt lon="5.963004" lat="50.958994"><ele>72</ele><time>2022-04-10T07:50:22.000Z</time></trkpt><trkpt lon="5.962939" lat="50.958943"><ele>72.2</ele><time>2022-04-10T07:50:23.000Z</time></trkpt><trkpt lon="5.962876" lat="50.958892"><ele>72.2</ele><time>2022-04-10T07:50:24.000Z</time></trkpt><trkpt lon="5.96281" lat="50.958844"><ele>72.4</ele><time>2022-04-10T07:50:25.000Z</time></trkpt><trkpt lon="5.962744" lat="50.958796"><ele>72.2</ele><time>2022-04-10T07:50:26.000Z</time></trkpt><trkpt lon="5.962675" lat="50.95875"><ele>72.2</ele><time>2022-04-10T07:50:27.000Z</time></trkpt><trkpt lon="5.962605" lat="50.958706"><ele>72.2</ele><time>2022-04-10T07:50:28.000Z</time></trkpt><trkpt lon="5.962534" lat="50.958664"><ele>72.2</ele><time>2022-04-10T07:50:29.000Z</time></trkpt><trkpt lon="5.962463" lat="50.958624"><ele>72.2</ele><time>2022-04-10T07:50:30.000Z</time></trkpt><trkpt lon="5.962386" lat="50.958581"><ele>72.4</ele><time>2022-04-10T07:50:31.000Z</time></trkpt><trkpt lon="5.96231" lat="50.958543"><ele>72.4</ele><time>2022-04-10T07:50:32.000Z</time></trkpt><trkpt lon="5.962234" lat="50.958504"><ele>72.6</ele><time>2022-04-10T07:50:33.000Z</time></trkpt><trkpt lon="5.962157" lat="50.958464"><ele>72.6</ele><time>2022-04-10T07:50:34.000Z</time></trkpt><trkpt lon="5.96208" lat="50.958428"><ele>72.6</ele><time>2022-04-10T07:50:35.000Z</time></trkpt><trkpt lon="5.962004" lat="50.958391"><ele>72.4</ele><time>2022-04-10T07:50:36.000Z</time></trkpt><trkpt lon="5.961927" lat="50.958356"><ele>72.4</ele><time>2022-04-10T07:50:37.000Z</time></trkpt><trkpt lon="5.96185" lat="50.958317"><ele>72.4</ele><time>2022-04-10T07:50:38.000Z</time></trkpt><trkpt lon="5.961776" lat="50.958281"><ele>72.6</ele><time>2022-04-10T07:50:39.000Z</time></trkpt><trkpt lon="5.961702" lat="50.958246"><ele>72.6</ele><time>2022-04-10T07:50:40.000Z</time></trkpt><trkpt lon="5.96163" lat="50.958211"><ele>72.8</ele><time>2022-04-10T07:50:41.000Z</time></trkpt><trkpt lon="5.961558" lat="50.958174"><ele>72.8</ele><time>2022-04-10T07:50:42.000Z</time></trkpt><trkpt lon="5.961487" lat="50.95814"><ele>73</ele><time>2022-04-10T07:50:43.000Z</time></trkpt><trkpt lon="5.961413" lat="50.958104"><ele>73</ele><time>2022-04-10T07:50:44.000Z</time></trkpt><trkpt lon="5.96134" lat="50.958067"><ele>73.2</ele><time>2022-04-10T07:50:45.000Z</time></trkpt><trkpt lon="5.961267" lat="50.958033"><ele>73.2</ele><time>2022-04-10T07:50:46.000Z</time></trkpt><trkpt lon="5.961189" lat="50.957993"><ele>73.2</ele><time>2022-04-10T07:50:47.000Z</time></trkpt><trkpt lon="5.961112" lat="50.957956"><ele>73.2</ele><time>2022-04-10T07:50:48.000Z</time></trkpt><trkpt lon="5.961037" lat="50.957921"><ele>73.4</ele><time>2022-04-10T07:50:49.000Z</time></trkpt><trkpt lon="5.960961" lat="50.957884"><ele>73.6</ele><time>2022-04-10T07:50:50.000Z</time></trkpt><trkpt lon="5.960885" lat="50.957849"><ele>73.8</ele><time>2022-04-10T07:50:51.000Z</time></trkpt><trkpt lon="5.960811" lat="50.957811"><ele>73.8</ele><time>2022-04-10T07:50:52.000Z</time></trkpt><trkpt lon="5.960739" lat="50.957777"><ele>74</ele><time>2022-04-10T07:50:53.000Z</time></trkpt><trkpt lon="5.960667" lat="50.957744"><ele>74</ele><time>2022-04-10T07:50:54.000Z</time></trkpt><trkpt lon="5.960596" lat="50.957712"><ele>74.2</ele><time>2022-04-10T07:50:55.000Z</time></trkpt><trkpt lon="5.96053" lat="50.957679"><ele>74.2</ele><time>2022-04-10T07:50:56.000Z</time></trkpt><trkpt lon="5.960464" lat="50.957648"><ele>74.2</ele><time>2022-04-10T07:50:57.000Z</time></trkpt><trkpt lon="5.9604" lat="50.957618"><ele>74.4</ele><time>2022-04-10T07:50:58.000Z</time></trkpt><trkpt lon="5.960333" lat="50.957587"><ele>74.4</ele><time>2022-04-10T07:50:59.000Z</time></trkpt><trkpt lon="5.960265" lat="50.957557"><ele>74.6</ele><time>2022-04-10T07:51:00.000Z</time></trkpt><trkpt lon="5.960201" lat="50.957526"><ele>74.6</ele><time>2022-04-10T07:51:01.000Z</time></trkpt><trkpt lon="5.96014" lat="50.957497"><ele>74.8</ele><time>2022-04-10T07:51:02.000Z</time></trkpt><trkpt lon="5.960084" lat="50.957471"><ele>75</ele><time>2022-04-10T07:51:03.000Z</time></trkpt><trkpt lon="5.960034" lat="50.957449"><ele>75</ele><time>2022-04-10T07:51:04.000Z</time></trkpt><trkpt lon="5.959983" lat="50.957425"><ele>75</ele><time>2022-04-10T07:51:05.000Z</time></trkpt><trkpt lon="5.959932" lat="50.957399"><ele>75.2</ele><time>2022-04-10T07:51:06.000Z</time></trkpt><trkpt lon="5.959881" lat="50.957375"><ele>75.2</ele><time>2022-04-10T07:51:07.000Z</time></trkpt><trkpt lon="5.959826" lat="50.957348"><ele>75.4</ele><time>2022-04-10T07:51:08.000Z</time></trkpt><trkpt lon="5.959769" lat="50.957322"><ele>75.4</ele><time>2022-04-10T07:51:09.000Z</time></trkpt><trkpt lon="5.959709" lat="50.957295"><ele>75.4</ele><time>2022-04-10T07:51:10.000Z</time></trkpt><trkpt lon="5.959652" lat="50.957268"><ele>75.6</ele><time>2022-04-10T07:51:11.000Z</time></trkpt><trkpt lon="5.959598" lat="50.957241"><ele>75.8</ele><time>2022-04-10T07:51:12.000Z</time></trkpt><trkpt lon="5.95955" lat="50.957215"><ele>76</ele><time>2022-04-10T07:51:13.000Z</time></trkpt><trkpt lon="5.959501" lat="50.957188"><ele>76</ele><time>2022-04-10T07:51:14.000Z</time></trkpt><trkpt lon="5.959452" lat="50.957162"><ele>76.2</ele><time>2022-04-10T07:51:15.000Z</time></trkpt><trkpt lon="5.9594" lat="50.957134"><ele>76.4</ele><time>2022-04-10T07:51:16.000Z</time></trkpt><trkpt lon="5.959346" lat="50.957104"><ele>76.6</ele><time>2022-04-10T07:51:17.000Z</time></trkpt><trkpt lon="5.959292" lat="50.957078"><ele>76.6</ele><time>2022-04-10T07:51:18.000Z</time></trkpt><trkpt lon="5.959242" lat="50.957054"><ele>76.8</ele><time>2022-04-10T07:51:19.000Z</time></trkpt><trkpt lon="5.959196" lat="50.957029"><ele>76.8</ele><time>2022-04-10T07:51:20.000Z</time></trkpt><trkpt lon="5.959154" lat="50.957006"><ele>76.8</ele><time>2022-04-10T07:51:21.000Z</time></trkpt><trkpt lon="5.959114" lat="50.956983"><ele>77</ele><time>2022-04-10T07:51:22.000Z</time></trkpt><trkpt lon="5.959071" lat="50.956962"><ele>77</ele><time>2022-04-10T07:51:23.000Z</time></trkpt><trkpt lon="5.959024" lat="50.956946"><ele>77</ele><time>2022-04-10T07:51:24.000Z</time></trkpt><trkpt lon="5.958978" lat="50.956929"><ele>76.8</ele><time>2022-04-10T07:51:25.000Z</time></trkpt><trkpt lon="5.958935" lat="50.956916"><ele>76.8</ele><time>2022-04-10T07:51:26.000Z</time></trkpt><trkpt lon="5.958888" lat="50.956902"><ele>76.8</ele><time>2022-04-10T07:51:27.000Z</time></trkpt><trkpt lon="5.95884" lat="50.956891"><ele>76.6</ele><time>2022-04-10T07:51:28.000Z</time></trkpt><trkpt lon="5.958794" lat="50.956878"><ele>76.6</ele><time>2022-04-10T07:51:29.000Z</time></trkpt><trkpt lon="5.95875" lat="50.956863"><ele>76.4</ele><time>2022-04-10T07:51:30.000Z</time></trkpt><trkpt lon="5.958708" lat="50.956848"><ele>76.2</ele><time>2022-04-10T07:51:31.000Z</time></trkpt><trkpt lon="5.958667" lat="50.95683"><ele>76.2</ele><time>2022-04-10T07:51:32.000Z</time></trkpt><trkpt lon="5.95863" lat="50.956806"><ele>76</ele><time>2022-04-10T07:51:33.000Z</time></trkpt><trkpt lon="5.958605" lat="50.956779"><ele>75.8</ele><time>2022-04-10T07:51:34.000Z</time></trkpt><trkpt lon="5.958592" lat="50.956746"><ele>75.6</ele><time>2022-04-10T07:51:35.000Z</time></trkpt><trkpt lon="5.958599" lat="50.956709"><ele>75.4</ele><time>2022-04-10T07:51:36.000Z</time></trkpt><trkpt lon="5.958622" lat="50.956675"><ele>75.2</ele><time>2022-04-10T07:51:37.000Z</time></trkpt><trkpt lon="5.958656" lat="50.956641"><ele>75.2</ele><time>2022-04-10T07:51:38.000Z</time></trkpt><trkpt lon="5.958699" lat="50.956612"><ele>75</ele><time>2022-04-10T07:51:39.000Z</time></trkpt><trkpt lon="5.958744" lat="50.956585"><ele>74.8</ele><time>2022-04-10T07:51:40.000Z</time></trkpt><trkpt lon="5.958788" lat="50.95656"><ele>74.6</ele><time>2022-04-10T07:51:41.000Z</time></trkpt><trkpt lon="5.958831" lat="50.956536"><ele>74.4</ele><time>2022-04-10T07:51:42.000Z</time></trkpt><trkpt lon="5.958875" lat="50.95651"><ele>74.2</ele><time>2022-04-10T07:51:43.000Z</time></trkpt><trkpt lon="5.958914" lat="50.956486"><ele>74</ele><time>2022-04-10T07:51:44.000Z</time></trkpt><trkpt lon="5.958953" lat="50.956459"><ele>74</ele><time>2022-04-10T07:51:45.000Z</time></trkpt><trkpt lon="5.958991" lat="50.956434"><ele>73.8</ele><time>2022-04-10T07:51:46.000Z</time></trkpt><trkpt lon="5.959027" lat="50.95641"><ele>73.6</ele><time>2022-04-10T07:51:47.000Z</time></trkpt><trkpt lon="5.959064" lat="50.956384"><ele>73.4</ele><time>2022-04-10T07:51:48.000Z</time></trkpt><trkpt lon="5.959101" lat="50.956362"><ele>73.4</ele><time>2022-04-10T07:51:49.000Z</time></trkpt><trkpt lon="5.959139" lat="50.956342"><ele>73.2</ele><time>2022-04-10T07:51:50.000Z</time></trkpt><trkpt lon="5.959179" lat="50.956318"><ele>73</ele><time>2022-04-10T07:51:51.000Z</time></trkpt><trkpt lon="5.959217" lat="50.956291"><ele>72.8</ele><time>2022-04-10T07:51:52.000Z</time></trkpt><trkpt lon="5.959261" lat="50.95626"><ele>72.6</ele><time>2022-04-10T07:51:53.000Z</time></trkpt><trkpt lon="5.95931" lat="50.956225"><ele>72.6</ele><time>2022-04-10T07:51:54.000Z</time></trkpt><trkpt lon="5.959356" lat="50.956195"><ele>72.4</ele><time>2022-04-10T07:51:55.000Z</time></trkpt><trkpt lon="5.959401" lat="50.956166"><ele>72.2</ele><time>2022-04-10T07:51:56.000Z</time></trkpt><trkpt lon="5.959446" lat="50.956139"><ele>72</ele><time>2022-04-10T07:51:57.000Z</time></trkpt><trkpt lon="5.959491" lat="50.956111"><ele>71.8</ele><time>2022-04-10T07:51:58.000Z</time></trkpt><trkpt lon="5.959539" lat="50.956083"><ele>71.6</ele><time>2022-04-10T07:51:59.000Z</time></trkpt><trkpt lon="5.959587" lat="50.956059"><ele>71.6</ele><time>2022-04-10T07:52:00.000Z</time></trkpt><trkpt lon="5.959626" lat="50.95603"><ele>71.6</ele><time>2022-04-10T07:52:01.000Z</time></trkpt><trkpt lon="5.959646" lat="50.955994"><ele>71.4</ele><time>2022-04-10T07:52:02.000Z</time></trkpt><trkpt lon="5.959647" lat="50.955958"><ele>71.2</ele><time>2022-04-10T07:52:03.000Z</time></trkpt><trkpt lon="5.959625" lat="50.955928"><ele>71.2</ele><time>2022-04-10T07:52:04.000Z</time></trkpt><trkpt lon="5.959584" lat="50.955894"><ele>71</ele><time>2022-04-10T07:52:05.000Z</time></trkpt><trkpt lon="5.959525" lat="50.955851"><ele>70.8</ele><time>2022-04-10T07:52:06.000Z</time></trkpt><trkpt lon="5.959462" lat="50.955804"><ele>70.8</ele><time>2022-04-10T07:52:07.000Z</time></trkpt><trkpt lon="5.959399" lat="50.955755"><ele>70.8</ele><time>2022-04-10T07:52:08.000Z</time></trkpt><trkpt lon="5.959337" lat="50.955705"><ele>70.8</ele><time>2022-04-10T07:52:09.000Z</time></trkpt><trkpt lon="5.959279" lat="50.955657"><ele>70.6</ele><time>2022-04-10T07:52:10.000Z</time></trkpt><trkpt lon="5.959222" lat="50.955607"><ele>70.6</ele><time>2022-04-10T07:52:11.000Z</time></trkpt><trkpt lon="5.959166" lat="50.955556"><ele>70.4</ele><time>2022-04-10T07:52:12.000Z</time></trkpt><trkpt lon="5.959114" lat="50.955508"><ele>70.4</ele><time>2022-04-10T07:52:13.000Z</time></trkpt><trkpt lon="5.959064" lat="50.955461"><ele>70.2</ele><time>2022-04-10T07:52:14.000Z</time></trkpt><trkpt lon="5.959015" lat="50.955414"><ele>70.2</ele><time>2022-04-10T07:52:15.000Z</time></trkpt><trkpt lon="5.958959" lat="50.955372"><ele>70</ele><time>2022-04-10T07:52:16.000Z</time></trkpt><trkpt lon="5.958899" lat="50.955331"><ele>70</ele><time>2022-04-10T07:52:17.000Z</time></trkpt><trkpt lon="5.958836" lat="50.955294"><ele>70</ele><time>2022-04-10T07:52:18.000Z</time></trkpt><trkpt lon="5.958771" lat="50.955261"><ele>69.8</ele><time>2022-04-10T07:52:19.000Z</time></trkpt><trkpt lon="5.958704" lat="50.955229"><ele>69.4</ele><time>2022-04-10T07:52:20.000Z</time></trkpt><trkpt lon="5.958631" lat="50.955196"><ele>69.2</ele><time>2022-04-10T07:52:21.000Z</time></trkpt><trkpt lon="5.95855" lat="50.955165"><ele>69.2</ele><time>2022-04-10T07:52:22.000Z</time></trkpt><trkpt lon="5.958466" lat="50.955134"><ele>69.2</ele><time>2022-04-10T07:52:23.000Z</time></trkpt><trkpt lon="5.95838" lat="50.955103"><ele>69.2</ele><time>2022-04-10T07:52:24.000Z</time></trkpt><trkpt lon="5.958291" lat="50.955068"><ele>69.2</ele><time>2022-04-10T07:52:25.000Z</time></trkpt><trkpt lon="5.958201" lat="50.955033"><ele>69.2</ele><time>2022-04-10T07:52:26.000Z</time></trkpt><trkpt lon="5.958111" lat="50.954994"><ele>69.2</ele><time>2022-04-10T07:52:27.000Z</time></trkpt><trkpt lon="5.958023" lat="50.954953"><ele>69.2</ele><time>2022-04-10T07:52:28.000Z</time></trkpt><trkpt lon="5.957936" lat="50.954915"><ele>69.2</ele><time>2022-04-10T07:52:29.000Z</time></trkpt><trkpt lon="5.957848" lat="50.954876"><ele>69.2</ele><time>2022-04-10T07:52:30.000Z</time></trkpt><trkpt lon="5.957759" lat="50.95483"><ele>69.2</ele><time>2022-04-10T07:52:31.000Z</time></trkpt><trkpt lon="5.95767" lat="50.954787"><ele>69.2</ele><time>2022-04-10T07:52:32.000Z</time></trkpt><trkpt lon="5.957583" lat="50.954741"><ele>69</ele><time>2022-04-10T07:52:33.000Z</time></trkpt><trkpt lon="5.957495" lat="50.954695"><ele>69</ele><time>2022-04-10T07:52:34.000Z</time></trkpt><trkpt lon="5.957409" lat="50.954648"><ele>69</ele><time>2022-04-10T07:52:35.000Z</time></trkpt><trkpt lon="5.957325" lat="50.954599"><ele>68.8</ele><time>2022-04-10T07:52:36.000Z</time></trkpt><trkpt lon="5.957242" lat="50.954548"><ele>68.8</ele><time>2022-04-10T07:52:37.000Z</time></trkpt><trkpt lon="5.957158" lat="50.954494"><ele>68.8</ele><time>2022-04-10T07:52:38.000Z</time></trkpt><trkpt lon="5.957078" lat="50.954437"><ele>68.8</ele><time>2022-04-10T07:52:39.000Z</time></trkpt><trkpt lon="5.957002" lat="50.95438"><ele>68.8</ele><time>2022-04-10T07:52:40.000Z</time></trkpt><trkpt lon="5.95693" lat="50.954323"><ele>68.8</ele><time>2022-04-10T07:52:41.000Z</time></trkpt><trkpt lon="5.956859" lat="50.954263"><ele>68.8</ele><time>2022-04-10T07:52:42.000Z</time></trkpt><trkpt lon="5.956794" lat="50.954203"><ele>68.8</ele><time>2022-04-10T07:52:43.000Z</time></trkpt><trkpt lon="5.95673" lat="50.954142"><ele>68.8</ele><time>2022-04-10T07:52:44.000Z</time></trkpt><trkpt lon="5.956666" lat="50.954082"><ele>68.8</ele><time>2022-04-10T07:52:45.000Z</time></trkpt><trkpt lon="5.956603" lat="50.954019"><ele>69</ele><time>2022-04-10T07:52:46.000Z</time></trkpt><trkpt lon="5.95655" lat="50.953958"><ele>69</ele><time>2022-04-10T07:52:47.000Z</time></trkpt><trkpt lon="5.956505" lat="50.953898"><ele>69</ele><time>2022-04-10T07:52:48.000Z</time></trkpt><trkpt lon="5.956464" lat="50.953838"><ele>69.2</ele><time>2022-04-10T07:52:49.000Z</time></trkpt><trkpt lon="5.956426" lat="50.953781"><ele>69.2</ele><time>2022-04-10T07:52:50.000Z</time></trkpt><trkpt lon="5.956385" lat="50.953724"><ele>69</ele><time>2022-04-10T07:52:51.000Z</time></trkpt><trkpt lon="5.956343" lat="50.953666"><ele>69</ele><time>2022-04-10T07:52:52.000Z</time></trkpt><trkpt lon="5.956299" lat="50.953609"><ele>69</ele><time>2022-04-10T07:52:53.000Z</time></trkpt><trkpt lon="5.956254" lat="50.953551"><ele>68.8</ele><time>2022-04-10T07:52:54.000Z</time></trkpt><trkpt lon="5.956207" lat="50.95349"><ele>68.6</ele><time>2022-04-10T07:52:55.000Z</time></trkpt><trkpt lon="5.95616" lat="50.953432"><ele>68.6</ele><time>2022-04-10T07:52:56.000Z</time></trkpt><trkpt lon="5.95611" lat="50.953373"><ele>68.6</ele><time>2022-04-10T07:52:57.000Z</time></trkpt><trkpt lon="5.956058" lat="50.95332"><ele>68.6</ele><time>2022-04-10T07:52:58.000Z</time></trkpt><trkpt lon="5.956" lat="50.953267"><ele>68.6</ele><time>2022-04-10T07:52:59.000Z</time></trkpt><trkpt lon="5.955946" lat="50.953213"><ele>68.4</ele><time>2022-04-10T07:53:00.000Z</time></trkpt><trkpt lon="5.95589" lat="50.953161"><ele>68.4</ele><time>2022-04-10T07:53:01.000Z</time></trkpt><trkpt lon="5.955834" lat="50.95311"><ele>68.4</ele><time>2022-04-10T07:53:02.000Z</time></trkpt><trkpt lon="5.955786" lat="50.953055"><ele>68.4</ele><time>2022-04-10T07:53:03.000Z</time></trkpt><trkpt lon="5.955743" lat="50.953"><ele>68.2</ele><time>2022-04-10T07:53:04.000Z</time></trkpt><trkpt lon="5.955696" lat="50.952951"><ele>68.2</ele><time>2022-04-10T07:53:05.000Z</time></trkpt><trkpt lon="5.955651" lat="50.952906"><ele>68.2</ele><time>2022-04-10T07:53:06.000Z</time></trkpt><trkpt lon="5.955609" lat="50.952862"><ele>68.2</ele><time>2022-04-10T07:53:07.000Z</time></trkpt><trkpt lon="5.955567" lat="50.95282"><ele>68.2</ele><time>2022-04-10T07:53:08.000Z</time></trkpt><trkpt lon="5.955533" lat="50.952782"><ele>68.2</ele><time>2022-04-10T07:53:09.000Z</time></trkpt><trkpt lon="5.955502" lat="50.952741"><ele>68.2</ele><time>2022-04-10T07:53:10.000Z</time></trkpt><trkpt lon="5.955461" lat="50.952699"><ele>68</ele><time>2022-04-10T07:53:11.000Z</time></trkpt><trkpt lon="5.9554" lat="50.952665"><ele>68</ele><time>2022-04-10T07:53:12.000Z</time></trkpt><trkpt lon="5.955318" lat="50.952645"><ele>68.2</ele><time>2022-04-10T07:53:13.000Z</time></trkpt><trkpt lon="5.955222" lat="50.952637"><ele>68.2</ele><time>2022-04-10T07:53:14.000Z</time></trkpt><trkpt lon="5.955113" lat="50.952638"><ele>68.2</ele><time>2022-04-10T07:53:15.000Z</time></trkpt><trkpt lon="5.954999" lat="50.952642"><ele>68.2</ele><time>2022-04-10T07:53:16.000Z</time></trkpt><trkpt lon="5.954884" lat="50.952645"><ele>68.2</ele><time>2022-04-10T07:53:17.000Z</time></trkpt><trkpt lon="5.954766" lat="50.952648"><ele>68.4</ele><time>2022-04-10T07:53:18.000Z</time></trkpt><trkpt lon="5.954651" lat="50.952648"><ele>68.4</ele><time>2022-04-10T07:53:19.000Z</time></trkpt><trkpt lon="5.954538" lat="50.952648"><ele>68.6</ele><time>2022-04-10T07:53:20.000Z</time></trkpt><trkpt lon="5.954429" lat="50.952648"><ele>68.6</ele><time>2022-04-10T07:53:21.000Z</time></trkpt><trkpt lon="5.954323" lat="50.952648"><ele>68.8</ele><time>2022-04-10T07:53:22.000Z</time></trkpt><trkpt lon="5.954225" lat="50.952648"><ele>69</ele><time>2022-04-10T07:53:23.000Z</time></trkpt><trkpt lon="5.954132" lat="50.952648"><ele>69.2</ele><time>2022-04-10T07:53:24.000Z</time></trkpt><trkpt lon="5.954042" lat="50.952649"><ele>69.4</ele><time>2022-04-10T07:53:25.000Z</time></trkpt><trkpt lon="5.95395" lat="50.952651"><ele>69.8</ele><time>2022-04-10T07:53:26.000Z</time></trkpt><trkpt lon="5.95386" lat="50.952648"><ele>70.2</ele><time>2022-04-10T07:53:27.000Z</time></trkpt><trkpt lon="5.953773" lat="50.952648"><ele>70.4</ele><time>2022-04-10T07:53:28.000Z</time></trkpt><trkpt lon="5.953684" lat="50.952648"><ele>70.6</ele><time>2022-04-10T07:53:29.000Z</time></trkpt><trkpt lon="5.953598" lat="50.952648"><ele>70.8</ele><time>2022-04-10T07:53:30.000Z</time></trkpt><trkpt lon="5.953512" lat="50.952648"><ele>71.2</ele><time>2022-04-10T07:53:31.000Z</time></trkpt><trkpt lon="5.953426" lat="50.952649"><ele>71.4</ele><time>2022-04-10T07:53:32.000Z</time></trkpt><trkpt lon="5.953342" lat="50.952652"><ele>71.8</ele><time>2022-04-10T07:53:33.000Z</time></trkpt><trkpt lon="5.953265" lat="50.952652"><ele>72</ele><time>2022-04-10T07:53:34.000Z</time></trkpt><trkpt lon="5.953188" lat="50.952652"><ele>72.2</ele><time>2022-04-10T07:53:35.000Z</time></trkpt><trkpt lon="5.95311" lat="50.952654"><ele>72.4</ele><time>2022-04-10T07:53:36.000Z</time></trkpt><trkpt lon="5.953029" lat="50.952661"><ele>72.6</ele><time>2022-04-10T07:53:37.000Z</time></trkpt><trkpt lon="5.95295" lat="50.952664"><ele>72.8</ele><time>2022-04-10T07:53:38.000Z</time></trkpt><trkpt lon="5.952871" lat="50.952669"><ele>73</ele><time>2022-04-10T07:53:39.000Z</time></trkpt><trkpt lon="5.952797" lat="50.952675"><ele>73.2</ele><time>2022-04-10T07:53:40.000Z</time></trkpt><trkpt lon="5.952727" lat="50.952676"><ele>73.6</ele><time>2022-04-10T07:53:41.000Z</time></trkpt><trkpt lon="5.952657" lat="50.952678"><ele>73.8</ele><time>2022-04-10T07:53:42.000Z</time></trkpt><trkpt lon="5.952588" lat="50.952672"><ele>74.2</ele><time>2022-04-10T07:53:43.000Z</time></trkpt><trkpt lon="5.952522" lat="50.952655"><ele>74.4</ele><time>2022-04-10T07:53:44.000Z</time></trkpt><trkpt lon="5.952466" lat="50.952621"><ele>74.4</ele><time>2022-04-10T07:53:45.000Z</time></trkpt><trkpt lon="5.952422" lat="50.952578"><ele>74.6</ele><time>2022-04-10T07:53:46.000Z</time></trkpt><trkpt lon="5.952385" lat="50.952532"><ele>74.6</ele><time>2022-04-10T07:53:47.000Z</time></trkpt><trkpt lon="5.952341" lat="50.952485"><ele>74.6</ele><time>2022-04-10T07:53:48.000Z</time></trkpt><trkpt lon="5.952284" lat="50.952448"><ele>74.6</ele><time>2022-04-10T07:53:49.000Z</time></trkpt><trkpt lon="5.952216" lat="50.952416"><ele>74.8</ele><time>2022-04-10T07:53:50.000Z</time></trkpt><trkpt lon="5.952138" lat="50.952389"><ele>74.8</ele><time>2022-04-10T07:53:51.000Z</time></trkpt><trkpt lon="5.952063" lat="50.952363"><ele>74.8</ele><time>2022-04-10T07:53:52.000Z</time></trkpt><trkpt lon="5.951988" lat="50.95234"><ele>75</ele><time>2022-04-10T07:53:53.000Z</time></trkpt><trkpt lon="5.951914" lat="50.952319"><ele>75.2</ele><time>2022-04-10T07:53:54.000Z</time></trkpt><trkpt lon="5.951839" lat="50.952299"><ele>75.2</ele><time>2022-04-10T07:53:55.000Z</time></trkpt><trkpt lon="5.951761" lat="50.952276"><ele>75.2</ele><time>2022-04-10T07:53:56.000Z</time></trkpt><trkpt lon="5.951682" lat="50.952253"><ele>75.4</ele><time>2022-04-10T07:53:57.000Z</time></trkpt><trkpt lon="5.951605" lat="50.95223"><ele>75.4</ele><time>2022-04-10T07:53:58.000Z</time></trkpt><trkpt lon="5.951526" lat="50.952208"><ele>75.6</ele><time>2022-04-10T07:53:59.000Z</time></trkpt><trkpt lon="5.951446" lat="50.952188"><ele>75.6</ele><time>2022-04-10T07:54:00.000Z</time></trkpt><trkpt lon="5.951363" lat="50.952165"><ele>75.6</ele><time>2022-04-10T07:54:01.000Z</time></trkpt><trkpt lon="5.951281" lat="50.952141"><ele>75.6</ele><time>2022-04-10T07:54:02.000Z</time></trkpt><trkpt lon="5.9512" lat="50.952115"><ele>75.6</ele><time>2022-04-10T07:54:03.000Z</time></trkpt><trkpt lon="5.951117" lat="50.952092"><ele>75.8</ele><time>2022-04-10T07:54:04.000Z</time></trkpt><trkpt lon="5.951031" lat="50.952066"><ele>75.8</ele><time>2022-04-10T07:54:05.000Z</time></trkpt><trkpt lon="5.950944" lat="50.952042"><ele>75.8</ele><time>2022-04-10T07:54:06.000Z</time></trkpt><trkpt lon="5.950861" lat="50.952017"><ele>75.6</ele><time>2022-04-10T07:54:07.000Z</time></trkpt><trkpt lon="5.950779" lat="50.951998"><ele>75.8</ele><time>2022-04-10T07:54:08.000Z</time></trkpt><trkpt lon="5.950696" lat="50.951977"><ele>75.8</ele><time>2022-04-10T07:54:09.000Z</time></trkpt><trkpt lon="5.950613" lat="50.951952"><ele>75.8</ele><time>2022-04-10T07:54:10.000Z</time></trkpt><trkpt lon="5.950527" lat="50.95193"><ele>76</ele><time>2022-04-10T07:54:11.000Z</time></trkpt><trkpt lon="5.950437" lat="50.951909"><ele>76</ele><time>2022-04-10T07:54:12.000Z</time></trkpt><trkpt lon="5.950347" lat="50.951887"><ele>76</ele><time>2022-04-10T07:54:13.000Z</time></trkpt><trkpt lon="5.950256" lat="50.951865"><ele>76</ele><time>2022-04-10T07:54:14.000Z</time></trkpt><trkpt lon="5.950167" lat="50.951845"><ele>76.2</ele><time>2022-04-10T07:54:15.000Z</time></trkpt><trkpt lon="5.950077" lat="50.951823"><ele>76.2</ele><time>2022-04-10T07:54:16.000Z</time></trkpt><trkpt lon="5.94999" lat="50.951804"><ele>76.2</ele><time>2022-04-10T07:54:17.000Z</time></trkpt><trkpt lon="5.949907" lat="50.951783"><ele>76.4</ele><time>2022-04-10T07:54:18.000Z</time></trkpt><trkpt lon="5.94982" lat="50.951756"><ele>76.4</ele><time>2022-04-10T07:54:19.000Z</time></trkpt><trkpt lon="5.949734" lat="50.951729"><ele>76.4</ele><time>2022-04-10T07:54:20.000Z</time></trkpt><trkpt lon="5.949645" lat="50.951703"><ele>76.4</ele><time>2022-04-10T07:54:21.000Z</time></trkpt><trkpt lon="5.949552" lat="50.951681"><ele>76.6</ele><time>2022-04-10T07:54:22.000Z</time></trkpt><trkpt lon="5.949459" lat="50.951658"><ele>76.6</ele><time>2022-04-10T07:54:23.000Z</time></trkpt><trkpt lon="5.949358" lat="50.951636"><ele>76.6</ele><time>2022-04-10T07:54:24.000Z</time></trkpt><trkpt lon="5.949261" lat="50.951617"><ele>76.8</ele><time>2022-04-10T07:54:25.000Z</time></trkpt><trkpt lon="5.949165" lat="50.9516"><ele>76.8</ele><time>2022-04-10T07:54:26.000Z</time></trkpt><trkpt lon="5.949065" lat="50.951589"><ele>76.8</ele><time>2022-04-10T07:54:27.000Z</time></trkpt><trkpt lon="5.948967" lat="50.951583"><ele>77</ele><time>2022-04-10T07:54:28.000Z</time></trkpt><trkpt lon="5.948873" lat="50.951579"><ele>77</ele><time>2022-04-10T07:54:29.000Z</time></trkpt><trkpt lon="5.948779" lat="50.951577"><ele>76.8</ele><time>2022-04-10T07:54:30.000Z</time></trkpt><trkpt lon="5.948681" lat="50.951581"><ele>77</ele><time>2022-04-10T07:54:31.000Z</time></trkpt><trkpt lon="5.948585" lat="50.951586"><ele>77</ele><time>2022-04-10T07:54:32.000Z</time></trkpt><trkpt lon="5.948489" lat="50.951594"><ele>77</ele><time>2022-04-10T07:54:33.000Z</time></trkpt><trkpt lon="5.948396" lat="50.951602"><ele>77</ele><time>2022-04-10T07:54:34.000Z</time></trkpt><trkpt lon="5.948302" lat="50.951614"><ele>77.2</ele><time>2022-04-10T07:54:35.000Z</time></trkpt><trkpt lon="5.94821" lat="50.951624"><ele>77.2</ele><time>2022-04-10T07:54:36.000Z</time></trkpt><trkpt lon="5.948117" lat="50.951631"><ele>77.4</ele><time>2022-04-10T07:54:37.000Z</time></trkpt><trkpt lon="5.948022" lat="50.951633"><ele>77.4</ele><time>2022-04-10T07:54:38.000Z</time></trkpt><trkpt lon="5.947926" lat="50.951635"><ele>77.6</ele><time>2022-04-10T07:54:39.000Z</time></trkpt><trkpt lon="5.947832" lat="50.951637"><ele>77.6</ele><time>2022-04-10T07:54:40.000Z</time></trkpt><trkpt lon="5.947737" lat="50.951635"><ele>77.8</ele><time>2022-04-10T07:54:41.000Z</time></trkpt><trkpt lon="5.947639" lat="50.951628"><ele>77.8</ele><time>2022-04-10T07:54:42.000Z</time></trkpt><trkpt lon="5.947545" lat="50.951618"><ele>77.8</ele><time>2022-04-10T07:54:43.000Z</time></trkpt><trkpt lon="5.947453" lat="50.951603"><ele>77.8</ele><time>2022-04-10T07:54:44.000Z</time></trkpt><trkpt lon="5.94736" lat="50.951586"><ele>77.8</ele><time>2022-04-10T07:54:45.000Z</time></trkpt><trkpt lon="5.947273" lat="50.951566"><ele>77.8</ele><time>2022-04-10T07:54:46.000Z</time></trkpt><trkpt lon="5.94719" lat="50.951543"><ele>78</ele><time>2022-04-10T07:54:47.000Z</time></trkpt><trkpt lon="5.947108" lat="50.95152"><ele>78</ele><time>2022-04-10T07:54:48.000Z</time></trkpt><trkpt lon="5.947031" lat="50.951498"><ele>78.2</ele><time>2022-04-10T07:54:49.000Z</time></trkpt><trkpt lon="5.946958" lat="50.951478"><ele>78.4</ele><time>2022-04-10T07:54:50.000Z</time></trkpt><trkpt lon="5.946891" lat="50.951458"><ele>78.6</ele><time>2022-04-10T07:54:51.000Z</time></trkpt><trkpt lon="5.946824" lat="50.951442"><ele>78.8</ele><time>2022-04-10T07:54:52.000Z</time></trkpt><trkpt lon="5.946757" lat="50.951427"><ele>79</ele><time>2022-04-10T07:54:53.000Z</time></trkpt><trkpt lon="5.946696" lat="50.95141"><ele>79</ele><time>2022-04-10T07:54:54.000Z</time></trkpt><trkpt lon="5.946632" lat="50.951386"><ele>79.2</ele><time>2022-04-10T07:54:55.000Z</time></trkpt><trkpt lon="5.946559" lat="50.95136"><ele>79.4</ele><time>2022-04-10T07:54:56.000Z</time></trkpt><trkpt lon="5.94648" lat="50.951335"><ele>79.4</ele><time>2022-04-10T07:54:57.000Z</time></trkpt><trkpt lon="5.946395" lat="50.951306"><ele>79.6</ele><time>2022-04-10T07:54:58.000Z</time></trkpt><trkpt lon="5.946303" lat="50.951279"><ele>79.6</ele><time>2022-04-10T07:54:59.000Z</time></trkpt><trkpt lon="5.946216" lat="50.951252"><ele>79.8</ele><time>2022-04-10T07:55:00.000Z</time></trkpt><trkpt lon="5.946132" lat="50.951227"><ele>79.8</ele><time>2022-04-10T07:55:01.000Z</time></trkpt><trkpt lon="5.946048" lat="50.951206"><ele>80</ele><time>2022-04-10T07:55:02.000Z</time></trkpt><trkpt lon="5.945965" lat="50.951192"><ele>80.4</ele><time>2022-04-10T07:55:03.000Z</time></trkpt><trkpt lon="5.945881" lat="50.951176"><ele>80.6</ele><time>2022-04-10T07:55:04.000Z</time></trkpt><trkpt lon="5.945802" lat="50.951149"><ele>80.8</ele><time>2022-04-10T07:55:05.000Z</time></trkpt><trkpt lon="5.945723" lat="50.951124"><ele>81</ele><time>2022-04-10T07:55:06.000Z</time></trkpt><trkpt lon="5.945643" lat="50.9511"><ele>81.2</ele><time>2022-04-10T07:55:07.000Z</time></trkpt><trkpt lon="5.945562" lat="50.951074"><ele>81.2</ele><time>2022-04-10T07:55:08.000Z</time></trkpt><trkpt lon="5.945479" lat="50.951051"><ele>81.2</ele><time>2022-04-10T07:55:09.000Z</time></trkpt><trkpt lon="5.945396" lat="50.951028"><ele>81.2</ele><time>2022-04-10T07:55:10.000Z</time></trkpt><trkpt lon="5.945314" lat="50.951006"><ele>81.4</ele><time>2022-04-10T07:55:11.000Z</time></trkpt><trkpt lon="5.945234" lat="50.950987"><ele>81.4</ele><time>2022-04-10T07:55:12.000Z</time></trkpt><trkpt lon="5.945153" lat="50.950966"><ele>81.6</ele><time>2022-04-10T07:55:13.000Z</time></trkpt><trkpt lon="5.945073" lat="50.950942"><ele>81.6</ele><time>2022-04-10T07:55:14.000Z</time></trkpt><trkpt lon="5.944992" lat="50.950922"><ele>81.8</ele><time>2022-04-10T07:55:15.000Z</time></trkpt><trkpt lon="5.944912" lat="50.950903"><ele>81.8</ele><time>2022-04-10T07:55:16.000Z</time></trkpt><trkpt lon="5.944832" lat="50.950884"><ele>82</ele><time>2022-04-10T07:55:17.000Z</time></trkpt><trkpt lon="5.944751" lat="50.950865"><ele>82.2</ele><time>2022-04-10T07:55:18.000Z</time></trkpt><trkpt lon="5.944676" lat="50.950846"><ele>82.4</ele><time>2022-04-10T07:55:19.000Z</time></trkpt><trkpt lon="5.9446" lat="50.950827"><ele>82.6</ele><time>2022-04-10T07:55:20.000Z</time></trkpt><trkpt lon="5.944521" lat="50.950808"><ele>82.8</ele><time>2022-04-10T07:55:21.000Z</time></trkpt><trkpt lon="5.944441" lat="50.950789"><ele>82.8</ele><time>2022-04-10T07:55:22.000Z</time></trkpt><trkpt lon="5.944359" lat="50.950769"><ele>82.8</ele><time>2022-04-10T07:55:23.000Z</time></trkpt><trkpt lon="5.944278" lat="50.950746"><ele>83</ele><time>2022-04-10T07:55:24.000Z</time></trkpt><trkpt lon="5.944202" lat="50.950723"><ele>83.2</ele><time>2022-04-10T07:55:25.000Z</time></trkpt><trkpt lon="5.944125" lat="50.950696"><ele>83.2</ele><time>2022-04-10T07:55:26.000Z</time></trkpt><trkpt lon="5.944052" lat="50.950673"><ele>83.4</ele><time>2022-04-10T07:55:27.000Z</time></trkpt><trkpt lon="5.943978" lat="50.95065"><ele>83.6</ele><time>2022-04-10T07:55:28.000Z</time></trkpt><trkpt lon="5.943902" lat="50.950622"><ele>83.8</ele><time>2022-04-10T07:55:29.000Z</time></trkpt><trkpt lon="5.943826" lat="50.950591"><ele>84</ele><time>2022-04-10T07:55:30.000Z</time></trkpt><trkpt lon="5.943752" lat="50.95056"><ele>84.2</ele><time>2022-04-10T07:55:31.000Z</time></trkpt><trkpt lon="5.943682" lat="50.95053"><ele>84.4</ele><time>2022-04-10T07:55:32.000Z</time></trkpt><trkpt lon="5.943612" lat="50.950498"><ele>84.6</ele><time>2022-04-10T07:55:33.000Z</time></trkpt><trkpt lon="5.943543" lat="50.950463"><ele>84.6</ele><time>2022-04-10T07:55:34.000Z</time></trkpt><trkpt lon="5.943477" lat="50.950426"><ele>84.8</ele><time>2022-04-10T07:55:35.000Z</time></trkpt><trkpt lon="5.943415" lat="50.950391"><ele>84.8</ele><time>2022-04-10T07:55:36.000Z</time></trkpt><trkpt lon="5.943355" lat="50.950352"><ele>85</ele><time>2022-04-10T07:55:37.000Z</time></trkpt><trkpt lon="5.943294" lat="50.950311"><ele>85</ele><time>2022-04-10T07:55:38.000Z</time></trkpt><trkpt lon="5.943237" lat="50.950274"><ele>85.2</ele><time>2022-04-10T07:55:39.000Z</time></trkpt><trkpt lon="5.943185" lat="50.950238"><ele>85.2</ele><time>2022-04-10T07:55:40.000Z</time></trkpt><trkpt lon="5.943135" lat="50.9502"><ele>85.4</ele><time>2022-04-10T07:55:41.000Z</time></trkpt><trkpt lon="5.943083" lat="50.950162"><ele>85.6</ele><time>2022-04-10T07:55:42.000Z</time></trkpt><trkpt lon="5.943034" lat="50.950123"><ele>85.8</ele><time>2022-04-10T07:55:43.000Z</time></trkpt><trkpt lon="5.942978" lat="50.950079"><ele>85.8</ele><time>2022-04-10T07:55:44.000Z</time></trkpt><trkpt lon="5.942918" lat="50.950034"><ele>86</ele><time>2022-04-10T07:55:45.000Z</time></trkpt><trkpt lon="5.94286" lat="50.949988"><ele>86</ele><time>2022-04-10T07:55:46.000Z</time></trkpt><trkpt lon="5.942809" lat="50.94994"><ele>86.2</ele><time>2022-04-10T07:55:47.000Z</time></trkpt><trkpt lon="5.942761" lat="50.949888"><ele>86.4</ele><time>2022-04-10T07:55:48.000Z</time></trkpt><trkpt lon="5.942713" lat="50.949839"><ele>86.4</ele><time>2022-04-10T07:55:49.000Z</time></trkpt><trkpt lon="5.942668" lat="50.949789"><ele>86.6</ele><time>2022-04-10T07:55:50.000Z</time></trkpt><trkpt lon="5.942625" lat="50.949739"><ele>86.8</ele><time>2022-04-10T07:55:51.000Z</time></trkpt><trkpt lon="5.942587" lat="50.94969"><ele>87</ele><time>2022-04-10T07:55:52.000Z</time></trkpt><trkpt lon="5.942553" lat="50.949639"><ele>87</ele><time>2022-04-10T07:55:53.000Z</time></trkpt><trkpt lon="5.942514" lat="50.949591"><ele>87.2</ele><time>2022-04-10T07:55:54.000Z</time></trkpt><trkpt lon="5.942479" lat="50.949547"><ele>87.4</ele><time>2022-04-10T07:55:55.000Z</time></trkpt><trkpt lon="5.942452" lat="50.949511"><ele>87.4</ele><time>2022-04-10T07:55:56.000Z</time></trkpt><trkpt lon="5.942425" lat="50.94948"><ele>87.4</ele><time>2022-04-10T07:55:57.000Z</time></trkpt><trkpt lon="5.942392" lat="50.949443"><ele>87.6</ele><time>2022-04-10T07:55:58.000Z</time></trkpt><trkpt lon="5.942348" lat="50.949398"><ele>87.6</ele><time>2022-04-10T07:55:59.000Z</time></trkpt><trkpt lon="5.94229" lat="50.949354"><ele>87.8</ele><time>2022-04-10T07:56:00.000Z</time></trkpt><trkpt lon="5.942241" lat="50.949303"><ele>88</ele><time>2022-04-10T07:56:01.000Z</time></trkpt><trkpt lon="5.942206" lat="50.949246"><ele>88</ele><time>2022-04-10T07:56:02.000Z</time></trkpt><trkpt lon="5.942172" lat="50.949193"><ele>88.2</ele><time>2022-04-10T07:56:03.000Z</time></trkpt><trkpt lon="5.942122" lat="50.949145"><ele>88.6</ele><time>2022-04-10T07:56:04.000Z</time></trkpt><trkpt lon="5.942085" lat="50.949099"><ele>88.6</ele><time>2022-04-10T07:56:05.000Z</time></trkpt><trkpt lon="5.94205" lat="50.949051"><ele>88.8</ele><time>2022-04-10T07:56:06.000Z</time></trkpt><trkpt lon="5.942017" lat="50.948999"><ele>88.8</ele><time>2022-04-10T07:56:07.000Z</time></trkpt><trkpt lon="5.941989" lat="50.948951"><ele>89</ele><time>2022-04-10T07:56:08.000Z</time></trkpt><trkpt lon="5.941964" lat="50.948906"><ele>89.2</ele><time>2022-04-10T07:56:09.000Z</time></trkpt><trkpt lon="5.941934" lat="50.948864"><ele>89.2</ele><time>2022-04-10T07:56:10.000Z</time></trkpt><trkpt lon="5.9419" lat="50.948819"><ele>89.4</ele><time>2022-04-10T07:56:11.000Z</time></trkpt><trkpt lon="5.941863" lat="50.948768"><ele>89.6</ele><time>2022-04-10T07:56:12.000Z</time></trkpt><trkpt lon="5.941815" lat="50.948722"><ele>90</ele><time>2022-04-10T07:56:13.000Z</time></trkpt><trkpt lon="5.941774" lat="50.948677"><ele>90.2</ele><time>2022-04-10T07:56:14.000Z</time></trkpt><trkpt lon="5.941731" lat="50.948634"><ele>90.2</ele><time>2022-04-10T07:56:15.000Z</time></trkpt><trkpt lon="5.941676" lat="50.948588"><ele>90.4</ele><time>2022-04-10T07:56:16.000Z</time></trkpt><trkpt lon="5.941615" lat="50.948543"><ele>90.6</ele><time>2022-04-10T07:56:17.000Z</time></trkpt><trkpt lon="5.941562" lat="50.9485"><ele>91</ele><time>2022-04-10T07:56:18.000Z</time></trkpt><trkpt lon="5.941509" lat="50.948456"><ele>91.2</ele><time>2022-04-10T07:56:19.000Z</time></trkpt><trkpt lon="5.941454" lat="50.948414"><ele>91.4</ele><time>2022-04-10T07:56:20.000Z</time></trkpt><trkpt lon="5.941402" lat="50.948373"><ele>91.8</ele><time>2022-04-10T07:56:21.000Z</time></trkpt><trkpt lon="5.94135" lat="50.948331"><ele>92.2</ele><time>2022-04-10T07:56:22.000Z</time></trkpt><trkpt lon="5.941287" lat="50.948293"><ele>92.4</ele><time>2022-04-10T07:56:23.000Z</time></trkpt><trkpt lon="5.941219" lat="50.948257"><ele>92.6</ele><time>2022-04-10T07:56:24.000Z</time></trkpt><trkpt lon="5.941139" lat="50.948212"><ele>92.8</ele><time>2022-04-10T07:56:25.000Z</time></trkpt><trkpt lon="5.941046" lat="50.948161"><ele>93</ele><time>2022-04-10T07:56:26.000Z</time></trkpt><trkpt lon="5.940961" lat="50.948115"><ele>93.4</ele><time>2022-04-10T07:56:27.000Z</time></trkpt><trkpt lon="5.940874" lat="50.948071"><ele>93.8</ele><time>2022-04-10T07:56:28.000Z</time></trkpt><trkpt lon="5.940787" lat="50.948035"><ele>94</ele><time>2022-04-10T07:56:29.000Z</time></trkpt><trkpt lon="5.940695" lat="50.948003"><ele>94.2</ele><time>2022-04-10T07:56:30.000Z</time></trkpt><trkpt lon="5.940603" lat="50.947967"><ele>94.6</ele><time>2022-04-10T07:56:31.000Z</time></trkpt><trkpt lon="5.940519" lat="50.947937"><ele>94.8</ele><time>2022-04-10T07:56:32.000Z</time></trkpt><trkpt lon="5.940438" lat="50.947911"><ele>95</ele><time>2022-04-10T07:56:33.000Z</time></trkpt><trkpt lon="5.940366" lat="50.947885"><ele>95.2</ele><time>2022-04-10T07:56:34.000Z</time></trkpt><trkpt lon="5.940295" lat="50.947861"><ele>95.6</ele><time>2022-04-10T07:56:35.000Z</time></trkpt><trkpt lon="5.940221" lat="50.947834"><ele>95.8</ele><time>2022-04-10T07:56:36.000Z</time></trkpt><trkpt lon="5.940145" lat="50.947806"><ele>96</ele><time>2022-04-10T07:56:37.000Z</time></trkpt><trkpt lon="5.940067" lat="50.947777"><ele>96</ele><time>2022-04-10T07:56:38.000Z</time></trkpt><trkpt lon="5.939987" lat="50.947749"><ele>96.2</ele><time>2022-04-10T07:56:39.000Z</time></trkpt><trkpt lon="5.939903" lat="50.947719"><ele>96.2</ele><time>2022-04-10T07:56:40.000Z</time></trkpt><trkpt lon="5.93982" lat="50.947689"><ele>96.4</ele><time>2022-04-10T07:56:41.000Z</time></trkpt><trkpt lon="5.939746" lat="50.947662"><ele>96.6</ele><time>2022-04-10T07:56:42.000Z</time></trkpt><trkpt lon="5.939672" lat="50.947636"><ele>96.6</ele><time>2022-04-10T07:56:43.000Z</time></trkpt><trkpt lon="5.939596" lat="50.94761"><ele>96.8</ele><time>2022-04-10T07:56:44.000Z</time></trkpt><trkpt lon="5.939523" lat="50.947589"><ele>97</ele><time>2022-04-10T07:56:45.000Z</time></trkpt><trkpt lon="5.939446" lat="50.947567"><ele>97.2</ele><time>2022-04-10T07:56:46.000Z</time></trkpt><trkpt lon="5.939372" lat="50.94754"><ele>97.6</ele><time>2022-04-10T07:56:47.000Z</time></trkpt><trkpt lon="5.939303" lat="50.947514"><ele>97.6</ele><time>2022-04-10T07:56:48.000Z</time></trkpt><trkpt lon="5.939233" lat="50.947488"><ele>97.8</ele><time>2022-04-10T07:56:49.000Z</time></trkpt><trkpt lon="5.939162" lat="50.947465"><ele>97.8</ele><time>2022-04-10T07:56:50.000Z</time></trkpt><trkpt lon="5.939094" lat="50.947443"><ele>97.8</ele><time>2022-04-10T07:56:51.000Z</time></trkpt><trkpt lon="5.939019" lat="50.947423"><ele>98</ele><time>2022-04-10T07:56:52.000Z</time></trkpt><trkpt lon="5.93895" lat="50.9474"><ele>98.2</ele><time>2022-04-10T07:56:53.000Z</time></trkpt><trkpt lon="5.938881" lat="50.947373"><ele>98.2</ele><time>2022-04-10T07:56:54.000Z</time></trkpt><trkpt lon="5.938825" lat="50.947348"><ele>98.2</ele><time>2022-04-10T07:56:55.000Z</time></trkpt><trkpt lon="5.938775" lat="50.94733"><ele>98.2</ele><time>2022-04-10T07:56:56.000Z</time></trkpt><trkpt lon="5.938725" lat="50.947314"><ele>98.2</ele><time>2022-04-10T07:56:57.000Z</time></trkpt><trkpt lon="5.938673" lat="50.947296"><ele>98.2</ele><time>2022-04-10T07:56:58.000Z</time></trkpt><trkpt lon="5.93862" lat="50.94728"><ele>98.2</ele><time>2022-04-10T07:56:59.000Z</time></trkpt><trkpt lon="5.938561" lat="50.947265"><ele>98</ele><time>2022-04-10T07:57:00.000Z</time></trkpt><trkpt lon="5.938499" lat="50.947249"><ele>98</ele><time>2022-04-10T07:57:01.000Z</time></trkpt><trkpt lon="5.938433" lat="50.947229"><ele>98</ele><time>2022-04-10T07:57:02.000Z</time></trkpt><trkpt lon="5.938355" lat="50.947206"><ele>98.2</ele><time>2022-04-10T07:57:03.000Z</time></trkpt><trkpt lon="5.938271" lat="50.947181"><ele>98</ele><time>2022-04-10T07:57:04.000Z</time></trkpt><trkpt lon="5.938186" lat="50.94715"><ele>97.8</ele><time>2022-04-10T07:57:05.000Z</time></trkpt><trkpt lon="5.938098" lat="50.947119"><ele>98</ele><time>2022-04-10T07:57:06.000Z</time></trkpt><trkpt lon="5.938008" lat="50.947084"><ele>97.8</ele><time>2022-04-10T07:57:07.000Z</time></trkpt><trkpt lon="5.937921" lat="50.947047"><ele>97.4</ele><time>2022-04-10T07:57:08.000Z</time></trkpt><trkpt lon="5.937838" lat="50.947017"><ele>97.4</ele><time>2022-04-10T07:57:09.000Z</time></trkpt><trkpt lon="5.937758" lat="50.946988"><ele>97.2</ele><time>2022-04-10T07:57:10.000Z</time></trkpt><trkpt lon="5.937671" lat="50.946961"><ele>97.2</ele><time>2022-04-10T07:57:11.000Z</time></trkpt><trkpt lon="5.937581" lat="50.946934"><ele>97</ele><time>2022-04-10T07:57:12.000Z</time></trkpt><trkpt lon="5.937492" lat="50.946908"><ele>97</ele><time>2022-04-10T07:57:13.000Z</time></trkpt><trkpt lon="5.937401" lat="50.946883"><ele>97</ele><time>2022-04-10T07:57:14.000Z</time></trkpt><trkpt lon="5.937313" lat="50.946854"><ele>97</ele><time>2022-04-10T07:57:15.000Z</time></trkpt><trkpt lon="5.937229" lat="50.946827"><ele>97</ele><time>2022-04-10T07:57:16.000Z</time></trkpt><trkpt lon="5.937146" lat="50.946801"><ele>97</ele><time>2022-04-10T07:57:17.000Z</time></trkpt><trkpt lon="5.937061" lat="50.946779"><ele>97</ele><time>2022-04-10T07:57:18.000Z</time></trkpt><trkpt lon="5.936977" lat="50.946756"><ele>97.2</ele><time>2022-04-10T07:57:19.000Z</time></trkpt><trkpt lon="5.936893" lat="50.946733"><ele>97.2</ele><time>2022-04-10T07:57:20.000Z</time></trkpt><trkpt lon="5.936812" lat="50.946709"><ele>97.2</ele><time>2022-04-10T07:57:21.000Z</time></trkpt><trkpt lon="5.936729" lat="50.946682"><ele>97.4</ele><time>2022-04-10T07:57:22.000Z</time></trkpt><trkpt lon="5.936648" lat="50.946656"><ele>97.4</ele><time>2022-04-10T07:57:23.000Z</time></trkpt><trkpt lon="5.936567" lat="50.946628"><ele>97.4</ele><time>2022-04-10T07:57:24.000Z</time></trkpt><trkpt lon="5.936487" lat="50.946597"><ele>97.4</ele><time>2022-04-10T07:57:25.000Z</time></trkpt><trkpt lon="5.936409" lat="50.946566"><ele>97.6</ele><time>2022-04-10T07:57:26.000Z</time></trkpt><trkpt lon="5.936336" lat="50.94653"><ele>97.6</ele><time>2022-04-10T07:57:27.000Z</time></trkpt><trkpt lon="5.936268" lat="50.946493"><ele>97.6</ele><time>2022-04-10T07:57:28.000Z</time></trkpt><trkpt lon="5.936203" lat="50.946454"><ele>97.8</ele><time>2022-04-10T07:57:29.000Z</time></trkpt><trkpt lon="5.936135" lat="50.94641"><ele>98</ele><time>2022-04-10T07:57:30.000Z</time></trkpt><trkpt lon="5.936073" lat="50.946364"><ele>98.2</ele><time>2022-04-10T07:57:31.000Z</time></trkpt><trkpt lon="5.936013" lat="50.946317"><ele>98.4</ele><time>2022-04-10T07:57:32.000Z</time></trkpt><trkpt lon="5.935954" lat="50.946269"><ele>98.4</ele><time>2022-04-10T07:57:33.000Z</time></trkpt><trkpt lon="5.935897" lat="50.946222"><ele>98.6</ele><time>2022-04-10T07:57:34.000Z</time></trkpt><trkpt lon="5.935841" lat="50.946172"><ele>98.8</ele><time>2022-04-10T07:57:35.000Z</time></trkpt><trkpt lon="5.935784" lat="50.946119"><ele>99</ele><time>2022-04-10T07:57:36.000Z</time></trkpt><trkpt lon="5.935733" lat="50.946068"><ele>99.2</ele><time>2022-04-10T07:57:37.000Z</time></trkpt><trkpt lon="5.935683" lat="50.946016"><ele>99.4</ele><time>2022-04-10T07:57:38.000Z</time></trkpt><trkpt lon="5.935632" lat="50.945966"><ele>99.6</ele><time>2022-04-10T07:57:39.000Z</time></trkpt><trkpt lon="5.93558" lat="50.945916"><ele>99.8</ele><time>2022-04-10T07:57:40.000Z</time></trkpt><trkpt lon="5.935529" lat="50.945867"><ele>100</ele><time>2022-04-10T07:57:41.000Z</time></trkpt><trkpt lon="5.93548" lat="50.945818"><ele>100.2</ele><time>2022-04-10T07:57:42.000Z</time></trkpt><trkpt lon="5.935431" lat="50.945768"><ele>100.4</ele><time>2022-04-10T07:57:43.000Z</time></trkpt><trkpt lon="5.935382" lat="50.945719"><ele>100.6</ele><time>2022-04-10T07:57:44.000Z</time></trkpt><trkpt lon="5.935334" lat="50.945671"><ele>100.8</ele><time>2022-04-10T07:57:45.000Z</time></trkpt><trkpt lon="5.935283" lat="50.945618"><ele>100.8</ele><time>2022-04-10T07:57:46.000Z</time></trkpt><trkpt lon="5.935235" lat="50.945566"><ele>100.8</ele><time>2022-04-10T07:57:47.000Z</time></trkpt><trkpt lon="5.935187" lat="50.945515"><ele>101</ele><time>2022-04-10T07:57:48.000Z</time></trkpt><trkpt lon="5.935138" lat="50.945463"><ele>101</ele><time>2022-04-10T07:57:49.000Z</time></trkpt><trkpt lon="5.935092" lat="50.945412"><ele>101</ele><time>2022-04-10T07:57:50.000Z</time></trkpt><trkpt lon="5.935043" lat="50.94536"><ele>101</ele><time>2022-04-10T07:57:51.000Z</time></trkpt><trkpt lon="5.934995" lat="50.945309"><ele>101</ele><time>2022-04-10T07:57:52.000Z</time></trkpt><trkpt lon="5.934945" lat="50.945257"><ele>101</ele><time>2022-04-10T07:57:53.000Z</time></trkpt><trkpt lon="5.934897" lat="50.945208"><ele>101.2</ele><time>2022-04-10T07:57:54.000Z</time></trkpt><trkpt lon="5.934848" lat="50.945158"><ele>101.4</ele><time>2022-04-10T07:57:55.000Z</time></trkpt><trkpt lon="5.934799" lat="50.945109"><ele>101.6</ele><time>2022-04-10T07:57:56.000Z</time></trkpt><trkpt lon="5.934747" lat="50.945057"><ele>101.6</ele><time>2022-04-10T07:57:57.000Z</time></trkpt><trkpt lon="5.934698" lat="50.945005"><ele>101.8</ele><time>2022-04-10T07:57:58.000Z</time></trkpt><trkpt lon="5.934652" lat="50.944956"><ele>102</ele><time>2022-04-10T07:57:59.000Z</time></trkpt><trkpt lon="5.934605" lat="50.944909"><ele>102</ele><time>2022-04-10T07:58:00.000Z</time></trkpt><trkpt lon="5.934556" lat="50.944856"><ele>102</ele><time>2022-04-10T07:58:01.000Z</time></trkpt><trkpt lon="5.934508" lat="50.944807"><ele>102</ele><time>2022-04-10T07:58:02.000Z</time></trkpt><trkpt lon="5.934457" lat="50.944756"><ele>102</ele><time>2022-04-10T07:58:03.000Z</time></trkpt><trkpt lon="5.934404" lat="50.944704"><ele>102</ele><time>2022-04-10T07:58:04.000Z</time></trkpt><trkpt lon="5.934355" lat="50.944653"><ele>102</ele><time>2022-04-10T07:58:05.000Z</time></trkpt><trkpt lon="5.934306" lat="50.9446"><ele>102</ele><time>2022-04-10T07:58:06.000Z</time></trkpt><trkpt lon="5.934256" lat="50.944551"><ele>102</ele><time>2022-04-10T07:58:07.000Z</time></trkpt><trkpt lon="5.934206" lat="50.944501"><ele>102.2</ele><time>2022-04-10T07:58:08.000Z</time></trkpt><trkpt lon="5.934157" lat="50.944449"><ele>102.2</ele><time>2022-04-10T07:58:09.000Z</time></trkpt><trkpt lon="5.934108" lat="50.944399"><ele>102</ele><time>2022-04-10T07:58:10.000Z</time></trkpt><trkpt lon="5.93406" lat="50.944344"><ele>102.2</ele><time>2022-04-10T07:58:11.000Z</time></trkpt><trkpt lon="5.934012" lat="50.944292"><ele>102.4</ele><time>2022-04-10T07:58:12.000Z</time></trkpt><trkpt lon="5.933964" lat="50.944242"><ele>102.6</ele><time>2022-04-10T07:58:13.000Z</time></trkpt><trkpt lon="5.933912" lat="50.944188"><ele>102.8</ele><time>2022-04-10T07:58:14.000Z</time></trkpt><trkpt lon="5.933863" lat="50.944138"><ele>102.8</ele><time>2022-04-10T07:58:15.000Z</time></trkpt><trkpt lon="5.933817" lat="50.944084"><ele>103</ele><time>2022-04-10T07:58:16.000Z</time></trkpt><trkpt lon="5.933771" lat="50.944033"><ele>103</ele><time>2022-04-10T07:58:17.000Z</time></trkpt><trkpt lon="5.933721" lat="50.943983"><ele>103.2</ele><time>2022-04-10T07:58:18.000Z</time></trkpt><trkpt lon="5.933671" lat="50.943932"><ele>103.4</ele><time>2022-04-10T07:58:19.000Z</time></trkpt><trkpt lon="5.933623" lat="50.943879"><ele>103.4</ele><time>2022-04-10T07:58:20.000Z</time></trkpt><trkpt lon="5.933574" lat="50.943829"><ele>103.6</ele><time>2022-04-10T07:58:21.000Z</time></trkpt><trkpt lon="5.933524" lat="50.943776"><ele>103.8</ele><time>2022-04-10T07:58:22.000Z</time></trkpt><trkpt lon="5.933475" lat="50.943727"><ele>103.8</ele><time>2022-04-10T07:58:23.000Z</time></trkpt><trkpt lon="5.933428" lat="50.943676"><ele>104</ele><time>2022-04-10T07:58:24.000Z</time></trkpt><trkpt lon="5.933382" lat="50.943624"><ele>104</ele><time>2022-04-10T07:58:25.000Z</time></trkpt><trkpt lon="5.933336" lat="50.943576"><ele>104.2</ele><time>2022-04-10T07:58:26.000Z</time></trkpt><trkpt lon="5.933287" lat="50.943526"><ele>104.2</ele><time>2022-04-10T07:58:27.000Z</time></trkpt><trkpt lon="5.933239" lat="50.94348"><ele>104.2</ele><time>2022-04-10T07:58:28.000Z</time></trkpt><trkpt lon="5.93319" lat="50.94343"><ele>104.4</ele><time>2022-04-10T07:58:29.000Z</time></trkpt><trkpt lon="5.933142" lat="50.943381"><ele>104.4</ele><time>2022-04-10T07:58:30.000Z</time></trkpt><trkpt lon="5.933096" lat="50.943335"><ele>104.4</ele><time>2022-04-10T07:58:31.000Z</time></trkpt><trkpt lon="5.93305" lat="50.943283"><ele>104.4</ele><time>2022-04-10T07:58:32.000Z</time></trkpt><trkpt lon="5.933003" lat="50.94323"><ele>104.6</ele><time>2022-04-10T07:58:33.000Z</time></trkpt><trkpt lon="5.932954" lat="50.943176"><ele>104.6</ele><time>2022-04-10T07:58:34.000Z</time></trkpt><trkpt lon="5.932907" lat="50.943124"><ele>104.6</ele><time>2022-04-10T07:58:35.000Z</time></trkpt><trkpt lon="5.932861" lat="50.943075"><ele>104.6</ele><time>2022-04-10T07:58:36.000Z</time></trkpt><trkpt lon="5.932814" lat="50.943025"><ele>104.6</ele><time>2022-04-10T07:58:37.000Z</time></trkpt><trkpt lon="5.932768" lat="50.942977"><ele>104.6</ele><time>2022-04-10T07:58:38.000Z</time></trkpt><trkpt lon="5.932721" lat="50.942929"><ele>104.6</ele><time>2022-04-10T07:58:39.000Z</time></trkpt><trkpt lon="5.932674" lat="50.942877"><ele>104.8</ele><time>2022-04-10T07:58:40.000Z</time></trkpt><trkpt lon="5.932628" lat="50.942826"><ele>104.8</ele><time>2022-04-10T07:58:41.000Z</time></trkpt><trkpt lon="5.932581" lat="50.942772"><ele>104.8</ele><time>2022-04-10T07:58:42.000Z</time></trkpt><trkpt lon="5.932533" lat="50.94272"><ele>104.8</ele><time>2022-04-10T07:58:43.000Z</time></trkpt><trkpt lon="5.932485" lat="50.942671"><ele>104.8</ele><time>2022-04-10T07:58:44.000Z</time></trkpt><trkpt lon="5.932435" lat="50.942621"><ele>104.8</ele><time>2022-04-10T07:58:45.000Z</time></trkpt><trkpt lon="5.932384" lat="50.942571"><ele>105</ele><time>2022-04-10T07:58:46.000Z</time></trkpt><trkpt lon="5.932334" lat="50.942523"><ele>105</ele><time>2022-04-10T07:58:47.000Z</time></trkpt><trkpt lon="5.932284" lat="50.942472"><ele>105.2</ele><time>2022-04-10T07:58:48.000Z</time></trkpt><trkpt lon="5.932235" lat="50.942423"><ele>105.4</ele><time>2022-04-10T07:58:49.000Z</time></trkpt><trkpt lon="5.932186" lat="50.942373"><ele>105.6</ele><time>2022-04-10T07:58:50.000Z</time></trkpt><trkpt lon="5.932136" lat="50.942323"><ele>105.6</ele><time>2022-04-10T07:58:51.000Z</time></trkpt><trkpt lon="5.932089" lat="50.942275"><ele>105.6</ele><time>2022-04-10T07:58:52.000Z</time></trkpt><trkpt lon="5.932042" lat="50.942227"><ele>105.6</ele><time>2022-04-10T07:58:53.000Z</time></trkpt><trkpt lon="5.931994" lat="50.942175"><ele>105.6</ele><time>2022-04-10T07:58:54.000Z</time></trkpt><trkpt lon="5.931945" lat="50.942124"><ele>105.4</ele><time>2022-04-10T07:58:55.000Z</time></trkpt><trkpt lon="5.931896" lat="50.942073"><ele>105.4</ele><time>2022-04-10T07:58:56.000Z</time></trkpt><trkpt lon="5.931845" lat="50.942021"><ele>105.2</ele><time>2022-04-10T07:58:57.000Z</time></trkpt><trkpt lon="5.931795" lat="50.941966"><ele>105.2</ele><time>2022-04-10T07:58:58.000Z</time></trkpt><trkpt lon="5.931748" lat="50.941911"><ele>105</ele><time>2022-04-10T07:58:59.000Z</time></trkpt><trkpt lon="5.931697" lat="50.941857"><ele>105</ele><time>2022-04-10T07:59:00.000Z</time></trkpt><trkpt lon="5.931646" lat="50.941804"><ele>104.8</ele><time>2022-04-10T07:59:01.000Z</time></trkpt><trkpt lon="5.931592" lat="50.941751"><ele>104.6</ele><time>2022-04-10T07:59:02.000Z</time></trkpt><trkpt lon="5.931538" lat="50.941701"><ele>104.6</ele><time>2022-04-10T07:59:03.000Z</time></trkpt><trkpt lon="5.931484" lat="50.941653"><ele>104.6</ele><time>2022-04-10T07:59:04.000Z</time></trkpt><trkpt lon="5.931425" lat="50.941609"><ele>104.4</ele><time>2022-04-10T07:59:05.000Z</time></trkpt><trkpt lon="5.931359" lat="50.941572"><ele>104.2</ele><time>2022-04-10T07:59:06.000Z</time></trkpt><trkpt lon="5.931282" lat="50.941538"><ele>104</ele><time>2022-04-10T07:59:07.000Z</time></trkpt><trkpt lon="5.931199" lat="50.941504"><ele>103.8</ele><time>2022-04-10T07:59:08.000Z</time></trkpt><trkpt lon="5.931119" lat="50.941469"><ele>103.6</ele><time>2022-04-10T07:59:09.000Z</time></trkpt><trkpt lon="5.931039" lat="50.941435"><ele>103.2</ele><time>2022-04-10T07:59:10.000Z</time></trkpt><trkpt lon="5.930954" lat="50.941402"><ele>103</ele><time>2022-04-10T07:59:11.000Z</time></trkpt><trkpt lon="5.930861" lat="50.941368"><ele>102.8</ele><time>2022-04-10T07:59:12.000Z</time></trkpt><trkpt lon="5.930761" lat="50.941325"><ele>102.4</ele><time>2022-04-10T07:59:13.000Z</time></trkpt><trkpt lon="5.930655" lat="50.941278"><ele>102.2</ele><time>2022-04-10T07:59:14.000Z</time></trkpt><trkpt lon="5.930546" lat="50.94123"><ele>101.8</ele><time>2022-04-10T07:59:15.000Z</time></trkpt><trkpt lon="5.930434" lat="50.941182"><ele>101.4</ele><time>2022-04-10T07:59:16.000Z</time></trkpt><trkpt lon="5.930325" lat="50.941134"><ele>100.8</ele><time>2022-04-10T07:59:17.000Z</time></trkpt><trkpt lon="5.930216" lat="50.941088"><ele>100</ele><time>2022-04-10T07:59:18.000Z</time></trkpt><trkpt lon="5.930109" lat="50.941042"><ele>99.4</ele><time>2022-04-10T07:59:19.000Z</time></trkpt><trkpt lon="5.929999" lat="50.940991"><ele>99</ele><time>2022-04-10T07:59:20.000Z</time></trkpt><trkpt lon="5.929887" lat="50.940939"><ele>98.4</ele><time>2022-04-10T07:59:21.000Z</time></trkpt><trkpt lon="5.929774" lat="50.940888"><ele>97.8</ele><time>2022-04-10T07:59:22.000Z</time></trkpt><trkpt lon="5.929654" lat="50.940827"><ele>97.2</ele><time>2022-04-10T07:59:23.000Z</time></trkpt><trkpt lon="5.929545" lat="50.940772"><ele>96.6</ele><time>2022-04-10T07:59:24.000Z</time></trkpt><trkpt lon="5.929437" lat="50.940716"><ele>96</ele><time>2022-04-10T07:59:25.000Z</time></trkpt><trkpt lon="5.929328" lat="50.940665"><ele>95.4</ele><time>2022-04-10T07:59:26.000Z</time></trkpt><trkpt lon="5.929221" lat="50.940617"><ele>94.8</ele><time>2022-04-10T07:59:27.000Z</time></trkpt><trkpt lon="5.929117" lat="50.940567"><ele>94.2</ele><time>2022-04-10T07:59:28.000Z</time></trkpt><trkpt lon="5.929016" lat="50.940523"><ele>93.6</ele><time>2022-04-10T07:59:29.000Z</time></trkpt><trkpt lon="5.928915" lat="50.940473"><ele>93.2</ele><time>2022-04-10T07:59:30.000Z</time></trkpt><trkpt lon="5.928815" lat="50.940422"><ele>92.6</ele><time>2022-04-10T07:59:31.000Z</time></trkpt><trkpt lon="5.928721" lat="50.940371"><ele>92</ele><time>2022-04-10T07:59:32.000Z</time></trkpt><trkpt lon="5.928623" lat="50.940321"><ele>91.4</ele><time>2022-04-10T07:59:33.000Z</time></trkpt><trkpt lon="5.928529" lat="50.940271"><ele>90.8</ele><time>2022-04-10T07:59:34.000Z</time></trkpt><trkpt lon="5.928444" lat="50.940222"><ele>90.4</ele><time>2022-04-10T07:59:35.000Z</time></trkpt><trkpt lon="5.928363" lat="50.940175"><ele>90</ele><time>2022-04-10T07:59:36.000Z</time></trkpt><trkpt lon="5.928286" lat="50.940125"><ele>89.4</ele><time>2022-04-10T07:59:37.000Z</time></trkpt><trkpt lon="5.928207" lat="50.940073"><ele>89.2</ele><time>2022-04-10T07:59:38.000Z</time></trkpt><trkpt lon="5.928126" lat="50.940022"><ele>88.8</ele><time>2022-04-10T07:59:39.000Z</time></trkpt><trkpt lon="5.928047" lat="50.939972"><ele>88.4</ele><time>2022-04-10T07:59:40.000Z</time></trkpt><trkpt lon="5.927971" lat="50.939927"><ele>88.2</ele><time>2022-04-10T07:59:41.000Z</time></trkpt><trkpt lon="5.927901" lat="50.939887"><ele>88</ele><time>2022-04-10T07:59:42.000Z</time></trkpt><trkpt lon="5.927838" lat="50.939862"><ele>87.8</ele><time>2022-04-10T07:59:43.000Z</time></trkpt><trkpt lon="5.927773" lat="50.939858"><ele>87.6</ele><time>2022-04-10T07:59:44.000Z</time></trkpt><trkpt lon="5.927709" lat="50.939877"><ele>87.4</ele><time>2022-04-10T07:59:45.000Z</time></trkpt><trkpt lon="5.927653" lat="50.939908"><ele>87.2</ele><time>2022-04-10T07:59:46.000Z</time></trkpt><trkpt lon="5.927602" lat="50.939952"><ele>87</ele><time>2022-04-10T07:59:47.000Z</time></trkpt><trkpt lon="5.92756" lat="50.940001"><ele>87</ele><time>2022-04-10T07:59:48.000Z</time></trkpt><trkpt lon="5.927528" lat="50.94005"><ele>86.8</ele><time>2022-04-10T07:59:49.000Z</time></trkpt><trkpt lon="5.927504" lat="50.940101"><ele>86.8</ele><time>2022-04-10T07:59:50.000Z</time></trkpt><trkpt lon="5.927494" lat="50.940155"><ele>86.6</ele><time>2022-04-10T07:59:51.000Z</time></trkpt><trkpt lon="5.927501" lat="50.940213"><ele>86.6</ele><time>2022-04-10T07:59:52.000Z</time></trkpt><trkpt lon="5.927525" lat="50.940268"><ele>86.6</ele><time>2022-04-10T07:59:53.000Z</time></trkpt><trkpt lon="5.927555" lat="50.940319"><ele>86.6</ele><time>2022-04-10T07:59:54.000Z</time></trkpt><trkpt lon="5.927588" lat="50.940374"><ele>86.6</ele><time>2022-04-10T07:59:55.000Z</time></trkpt><trkpt lon="5.927624" lat="50.940433"><ele>86.6</ele><time>2022-04-10T07:59:56.000Z</time></trkpt><trkpt lon="5.927658" lat="50.940487"><ele>86.8</ele><time>2022-04-10T07:59:57.000Z</time></trkpt><trkpt lon="5.927693" lat="50.940545"><ele>87</ele><time>2022-04-10T07:59:58.000Z</time></trkpt><trkpt lon="5.927727" lat="50.940601"><ele>87.2</ele><time>2022-04-10T07:59:59.000Z</time></trkpt><trkpt lon="5.927764" lat="50.940654"><ele>87.4</ele><time>2022-04-10T08:00:00.000Z</time></trkpt><trkpt lon="5.927804" lat="50.940702"><ele>87.6</ele><time>2022-04-10T08:00:01.000Z</time></trkpt><trkpt lon="5.927846" lat="50.940749"><ele>87.8</ele><time>2022-04-10T08:00:02.000Z</time></trkpt><trkpt lon="5.927888" lat="50.940795"><ele>88.2</ele><time>2022-04-10T08:00:03.000Z</time></trkpt><trkpt lon="5.92793" lat="50.940837"><ele>88.4</ele><time>2022-04-10T08:00:04.000Z</time></trkpt><trkpt lon="5.927969" lat="50.940892"><ele>88.8</ele><time>2022-04-10T08:00:05.000Z</time></trkpt><trkpt lon="5.928006" lat="50.940945"><ele>89</ele><time>2022-04-10T08:00:06.000Z</time></trkpt><trkpt lon="5.928042" lat="50.940993"><ele>89.4</ele><time>2022-04-10T08:00:07.000Z</time></trkpt><trkpt lon="5.928075" lat="50.941048"><ele>89.6</ele><time>2022-04-10T08:00:08.000Z</time></trkpt><trkpt lon="5.928104" lat="50.941104"><ele>89.8</ele><time>2022-04-10T08:00:09.000Z</time></trkpt><trkpt lon="5.928142" lat="50.941155"><ele>90.2</ele><time>2022-04-10T08:00:10.000Z</time></trkpt><trkpt lon="5.928185" lat="50.9412"><ele>90.4</ele><time>2022-04-10T08:00:11.000Z</time></trkpt><trkpt lon="5.928229" lat="50.941243"><ele>90.8</ele><time>2022-04-10T08:00:12.000Z</time></trkpt><trkpt lon="5.928274" lat="50.941284"><ele>91</ele><time>2022-04-10T08:00:13.000Z</time></trkpt><trkpt lon="5.928317" lat="50.941327"><ele>91.2</ele><time>2022-04-10T08:00:14.000Z</time></trkpt><trkpt lon="5.928354" lat="50.941367"><ele>91.6</ele><time>2022-04-10T08:00:15.000Z</time></trkpt><trkpt lon="5.928394" lat="50.941404"><ele>91.8</ele><time>2022-04-10T08:00:16.000Z</time></trkpt><trkpt lon="5.92844" lat="50.94144"><ele>92.2</ele><time>2022-04-10T08:00:17.000Z</time></trkpt><trkpt lon="5.928485" lat="50.941485"><ele>92.4</ele><time>2022-04-10T08:00:18.000Z</time></trkpt><trkpt lon="5.928528" lat="50.941545"><ele>92.8</ele><time>2022-04-10T08:00:19.000Z</time></trkpt><trkpt lon="5.928577" lat="50.94159"><ele>93.2</ele><time>2022-04-10T08:00:20.000Z</time></trkpt><trkpt lon="5.928625" lat="50.941636"><ele>93.4</ele><time>2022-04-10T08:00:21.000Z</time></trkpt><trkpt lon="5.928668" lat="50.94168"><ele>93.8</ele><time>2022-04-10T08:00:22.000Z</time></trkpt><trkpt lon="5.928711" lat="50.94172"><ele>94</ele><time>2022-04-10T08:00:23.000Z</time></trkpt><trkpt lon="5.928755" lat="50.941766"><ele>94.4</ele><time>2022-04-10T08:00:24.000Z</time></trkpt><trkpt lon="5.9288" lat="50.941811"><ele>94.8</ele><time>2022-04-10T08:00:25.000Z</time></trkpt><trkpt lon="5.928844" lat="50.941853"><ele>95</ele><time>2022-04-10T08:00:26.000Z</time></trkpt><trkpt lon="5.928885" lat="50.941895"><ele>95.4</ele><time>2022-04-10T08:00:27.000Z</time></trkpt><trkpt lon="5.928925" lat="50.941942"><ele>95.6</ele><time>2022-04-10T08:00:28.000Z</time></trkpt><trkpt lon="5.928969" lat="50.941987"><ele>95.8</ele><time>2022-04-10T08:00:29.000Z</time></trkpt><trkpt lon="5.929011" lat="50.942034"><ele>96.2</ele><time>2022-04-10T08:00:30.000Z</time></trkpt><trkpt lon="5.929053" lat="50.942084"><ele>96.4</ele><time>2022-04-10T08:00:31.000Z</time></trkpt><trkpt lon="5.929093" lat="50.942136"><ele>96.6</ele><time>2022-04-10T08:00:32.000Z</time></trkpt><trkpt lon="5.929126" lat="50.942201"><ele>97</ele><time>2022-04-10T08:00:33.000Z</time></trkpt><trkpt lon="5.929152" lat="50.942273"><ele>97.4</ele><time>2022-04-10T08:00:34.000Z</time></trkpt><trkpt lon="5.929178" lat="50.942343"><ele>97.6</ele><time>2022-04-10T08:00:35.000Z</time></trkpt><trkpt lon="5.929205" lat="50.942407"><ele>98</ele><time>2022-04-10T08:00:36.000Z</time></trkpt><trkpt lon="5.929236" lat="50.942461"><ele>98.4</ele><time>2022-04-10T08:00:37.000Z</time></trkpt><trkpt lon="5.929273" lat="50.942511"><ele>98.8</ele><time>2022-04-10T08:00:38.000Z</time></trkpt><trkpt lon="5.92931" lat="50.942562"><ele>99.2</ele><time>2022-04-10T08:00:39.000Z</time></trkpt><trkpt lon="5.929353" lat="50.942608"><ele>99.4</ele><time>2022-04-10T08:00:40.000Z</time></trkpt><trkpt lon="5.929394" lat="50.942649"><ele>99.8</ele><time>2022-04-10T08:00:41.000Z</time></trkpt><trkpt lon="5.929433" lat="50.942686"><ele>100</ele><time>2022-04-10T08:00:42.000Z</time></trkpt><trkpt lon="5.929477" lat="50.942721"><ele>100.4</ele><time>2022-04-10T08:00:43.000Z</time></trkpt><trkpt lon="5.92953" lat="50.942762"><ele>100.8</ele><time>2022-04-10T08:00:44.000Z</time></trkpt><trkpt lon="5.929567" lat="50.942809"><ele>101.2</ele><time>2022-04-10T08:00:45.000Z</time></trkpt><trkpt lon="5.929595" lat="50.94285"><ele>101.4</ele><time>2022-04-10T08:00:46.000Z</time></trkpt><trkpt lon="5.929605" lat="50.9429"><ele>101.8</ele><time>2022-04-10T08:00:47.000Z</time></trkpt><trkpt lon="5.929608" lat="50.942952"><ele>102</ele><time>2022-04-10T08:00:48.000Z</time></trkpt><trkpt lon="5.929608" lat="50.943008"><ele>102.2</ele><time>2022-04-10T08:00:49.000Z</time></trkpt><trkpt lon="5.929606" lat="50.943063"><ele>102.4</ele><time>2022-04-10T08:00:50.000Z</time></trkpt><trkpt lon="5.929605" lat="50.943121"><ele>102.6</ele><time>2022-04-10T08:00:51.000Z</time></trkpt><trkpt lon="5.929601" lat="50.94318"><ele>102.6</ele><time>2022-04-10T08:00:52.000Z</time></trkpt><trkpt lon="5.929595" lat="50.943234"><ele>102.8</ele><time>2022-04-10T08:00:53.000Z</time></trkpt><trkpt lon="5.929588" lat="50.943292"><ele>102.8</ele><time>2022-04-10T08:00:54.000Z</time></trkpt><trkpt lon="5.929582" lat="50.943347"><ele>102.8</ele><time>2022-04-10T08:00:55.000Z</time></trkpt><trkpt lon="5.929576" lat="50.943399"><ele>102.8</ele><time>2022-04-10T08:00:56.000Z</time></trkpt><trkpt lon="5.929573" lat="50.943451"><ele>103</ele><time>2022-04-10T08:00:57.000Z</time></trkpt><trkpt lon="5.929572" lat="50.943503"><ele>103</ele><time>2022-04-10T08:00:58.000Z</time></trkpt><trkpt lon="5.929571" lat="50.943554"><ele>103</ele><time>2022-04-10T08:00:59.000Z</time></trkpt><trkpt lon="5.929568" lat="50.943607"><ele>103</ele><time>2022-04-10T08:01:00.000Z</time></trkpt><trkpt lon="5.929566" lat="50.943659"><ele>103</ele><time>2022-04-10T08:01:01.000Z</time></trkpt><trkpt lon="5.929562" lat="50.94371"><ele>103.2</ele><time>2022-04-10T08:01:02.000Z</time></trkpt><trkpt lon="5.929557" lat="50.943762"><ele>103.2</ele><time>2022-04-10T08:01:03.000Z</time></trkpt><trkpt lon="5.929554" lat="50.943812"><ele>103.2</ele><time>2022-04-10T08:01:04.000Z</time></trkpt><trkpt lon="5.92955" lat="50.943862"><ele>103.2</ele><time>2022-04-10T08:01:05.000Z</time></trkpt><trkpt lon="5.929545" lat="50.94391"><ele>103.2</ele><time>2022-04-10T08:01:06.000Z</time></trkpt><trkpt lon="5.929541" lat="50.943955"><ele>103.2</ele><time>2022-04-10T08:01:07.000Z</time></trkpt><trkpt lon="5.92954" lat="50.943996"><ele>103.4</ele><time>2022-04-10T08:01:08.000Z</time></trkpt><trkpt lon="5.929541" lat="50.944038"><ele>103.4</ele><time>2022-04-10T08:01:09.000Z</time></trkpt><trkpt lon="5.929549" lat="50.944079"><ele>103.6</ele><time>2022-04-10T08:01:10.000Z</time></trkpt><trkpt lon="5.929558" lat="50.94412"><ele>103.6</ele><time>2022-04-10T08:01:11.000Z</time></trkpt><trkpt lon="5.929567" lat="50.944165"><ele>103.6</ele><time>2022-04-10T08:01:12.000Z</time></trkpt><trkpt lon="5.929572" lat="50.944207"><ele>103.6</ele><time>2022-04-10T08:01:13.000Z</time></trkpt><trkpt lon="5.929573" lat="50.944249"><ele>103.6</ele><time>2022-04-10T08:01:14.000Z</time></trkpt><trkpt lon="5.929572" lat="50.94429"><ele>103.6</ele><time>2022-04-10T08:01:15.000Z</time></trkpt><trkpt lon="5.929572" lat="50.944332"><ele>103.6</ele><time>2022-04-10T08:01:16.000Z</time></trkpt><trkpt lon="5.929571" lat="50.944373"><ele>103.6</ele><time>2022-04-10T08:01:17.000Z</time></trkpt><trkpt lon="5.929569" lat="50.944412"><ele>103.6</ele><time>2022-04-10T08:01:18.000Z</time></trkpt><trkpt lon="5.929566" lat="50.944453"><ele>103.6</ele><time>2022-04-10T08:01:19.000Z</time></trkpt><trkpt lon="5.929565" lat="50.944497"><ele>103.4</ele><time>2022-04-10T08:01:20.000Z</time></trkpt><trkpt lon="5.929562" lat="50.944539"><ele>103.4</ele><time>2022-04-10T08:01:21.000Z</time></trkpt><trkpt lon="5.929557" lat="50.944582"><ele>103.4</ele><time>2022-04-10T08:01:22.000Z</time></trkpt><trkpt lon="5.929552" lat="50.944628"><ele>103.4</ele><time>2022-04-10T08:01:23.000Z</time></trkpt><trkpt lon="5.929546" lat="50.944673"><ele>103.4</ele><time>2022-04-10T08:01:24.000Z</time></trkpt><trkpt lon="5.929543" lat="50.944719"><ele>103.4</ele><time>2022-04-10T08:01:25.000Z</time></trkpt><trkpt lon="5.929541" lat="50.944765"><ele>103.2</ele><time>2022-04-10T08:01:26.000Z</time></trkpt><trkpt lon="5.929538" lat="50.944811"><ele>103.2</ele><time>2022-04-10T08:01:27.000Z</time></trkpt><trkpt lon="5.929532" lat="50.944856"><ele>103.2</ele><time>2022-04-10T08:01:28.000Z</time></trkpt><trkpt lon="5.929527" lat="50.944902"><ele>103.2</ele><time>2022-04-10T08:01:29.000Z</time></trkpt><trkpt lon="5.929523" lat="50.944946"><ele>103.2</ele><time>2022-04-10T08:01:30.000Z</time></trkpt><trkpt lon="5.929519" lat="50.944989"><ele>103</ele><time>2022-04-10T08:01:31.000Z</time></trkpt><trkpt lon="5.929516" lat="50.945031"><ele>103</ele><time>2022-04-10T08:01:32.000Z</time></trkpt><trkpt lon="5.929513" lat="50.945076"><ele>103</ele><time>2022-04-10T08:01:33.000Z</time></trkpt><trkpt lon="5.929511" lat="50.945118"><ele>102.8</ele><time>2022-04-10T08:01:34.000Z</time></trkpt><trkpt lon="5.929506" lat="50.945159"><ele>102.8</ele><time>2022-04-10T08:01:35.000Z</time></trkpt><trkpt lon="5.929498" lat="50.945202"><ele>102.8</ele><time>2022-04-10T08:01:36.000Z</time></trkpt><trkpt lon="5.929491" lat="50.945244"><ele>102.8</ele><time>2022-04-10T08:01:37.000Z</time></trkpt><trkpt lon="5.929483" lat="50.945286"><ele>102.8</ele><time>2022-04-10T08:01:38.000Z</time></trkpt><trkpt lon="5.929476" lat="50.945328"><ele>102.6</ele><time>2022-04-10T08:01:39.000Z</time></trkpt><trkpt lon="5.929468" lat="50.945374"><ele>102.6</ele><time>2022-04-10T08:01:40.000Z</time></trkpt><trkpt lon="5.929461" lat="50.945422"><ele>102.6</ele><time>2022-04-10T08:01:41.000Z</time></trkpt><trkpt lon="5.929455" lat="50.945471"><ele>102.4</ele><time>2022-04-10T08:01:42.000Z</time></trkpt><trkpt lon="5.92945" lat="50.945521"><ele>102.4</ele><time>2022-04-10T08:01:43.000Z</time></trkpt><trkpt lon="5.929445" lat="50.945574"><ele>102.4</ele><time>2022-04-10T08:01:44.000Z</time></trkpt><trkpt lon="5.929438" lat="50.945627"><ele>102.4</ele><time>2022-04-10T08:01:45.000Z</time></trkpt><trkpt lon="5.92943" lat="50.945677"><ele>102.4</ele><time>2022-04-10T08:01:46.000Z</time></trkpt><trkpt lon="5.929423" lat="50.945731"><ele>102.2</ele><time>2022-04-10T08:01:47.000Z</time></trkpt><trkpt lon="5.929417" lat="50.945781"><ele>102.2</ele><time>2022-04-10T08:01:48.000Z</time></trkpt><trkpt lon="5.929409" lat="50.945836"><ele>102</ele><time>2022-04-10T08:01:49.000Z</time></trkpt><trkpt lon="5.929399" lat="50.945893"><ele>102</ele><time>2022-04-10T08:01:50.000Z</time></trkpt><trkpt lon="5.92939" lat="50.94595"><ele>102</ele><time>2022-04-10T08:01:51.000Z</time></trkpt><trkpt lon="5.929378" lat="50.946009"><ele>102</ele><time>2022-04-10T08:01:52.000Z</time></trkpt><trkpt lon="5.92937" lat="50.946069"><ele>102</ele><time>2022-04-10T08:01:53.000Z</time></trkpt><trkpt lon="5.92936" lat="50.94613"><ele>102</ele><time>2022-04-10T08:01:54.000Z</time></trkpt><trkpt lon="5.929348" lat="50.946191"><ele>101.8</ele><time>2022-04-10T08:01:55.000Z</time></trkpt><trkpt lon="5.929337" lat="50.946254"><ele>101.8</ele><time>2022-04-10T08:01:56.000Z</time></trkpt><trkpt lon="5.929328" lat="50.946317"><ele>101.8</ele><time>2022-04-10T08:01:57.000Z</time></trkpt><trkpt lon="5.92932" lat="50.946377"><ele>101.8</ele><time>2022-04-10T08:01:58.000Z</time></trkpt><trkpt lon="5.929311" lat="50.946438"><ele>101.6</ele><time>2022-04-10T08:01:59.000Z</time></trkpt><trkpt lon="5.929303" lat="50.946494"><ele>101.6</ele><time>2022-04-10T08:02:00.000Z</time></trkpt><trkpt lon="5.929297" lat="50.946549"><ele>101.6</ele><time>2022-04-10T08:02:01.000Z</time></trkpt><trkpt lon="5.929292" lat="50.946604"><ele>101.4</ele><time>2022-04-10T08:02:02.000Z</time></trkpt><trkpt lon="5.929288" lat="50.946654"><ele>101.4</ele><time>2022-04-10T08:02:03.000Z</time></trkpt><trkpt lon="5.929284" lat="50.946703"><ele>101.2</ele><time>2022-04-10T08:02:04.000Z</time></trkpt><trkpt lon="5.929278" lat="50.946752"><ele>101.2</ele><time>2022-04-10T08:02:05.000Z</time></trkpt><trkpt lon="5.929271" lat="50.946798"><ele>101</ele><time>2022-04-10T08:02:06.000Z</time></trkpt><trkpt lon="5.929265" lat="50.946848"><ele>101</ele><time>2022-04-10T08:02:07.000Z</time></trkpt><trkpt lon="5.929258" lat="50.946897"><ele>101</ele><time>2022-04-10T08:02:08.000Z</time></trkpt><trkpt lon="5.929254" lat="50.946941"><ele>101</ele><time>2022-04-10T08:02:09.000Z</time></trkpt><trkpt lon="5.929248" lat="50.946985"><ele>101</ele><time>2022-04-10T08:02:10.000Z</time></trkpt><trkpt lon="5.929242" lat="50.947029"><ele>101</ele><time>2022-04-10T08:02:11.000Z</time></trkpt><trkpt lon="5.929235" lat="50.947071"><ele>101</ele><time>2022-04-10T08:02:12.000Z</time></trkpt><trkpt lon="5.929231" lat="50.947114"><ele>101</ele><time>2022-04-10T08:02:13.000Z</time></trkpt><trkpt lon="5.929229" lat="50.947159"><ele>101</ele><time>2022-04-10T08:02:14.000Z</time></trkpt><trkpt lon="5.929229" lat="50.947202"><ele>101</ele><time>2022-04-10T08:02:15.000Z</time></trkpt><trkpt lon="5.929224" lat="50.947247"><ele>100.8</ele><time>2022-04-10T08:02:16.000Z</time></trkpt><trkpt lon="5.92921" lat="50.94729"><ele>100.8</ele><time>2022-04-10T08:02:17.000Z</time></trkpt><trkpt lon="5.929193" lat="50.947341"><ele>100.8</ele><time>2022-04-10T08:02:18.000Z</time></trkpt><trkpt lon="5.929177" lat="50.947395"><ele>100.6</ele><time>2022-04-10T08:02:19.000Z</time></trkpt><trkpt lon="5.929164" lat="50.947449"><ele>100.6</ele><time>2022-04-10T08:02:20.000Z</time></trkpt><trkpt lon="5.929154" lat="50.947502"><ele>100.4</ele><time>2022-04-10T08:02:21.000Z</time></trkpt><trkpt lon="5.929145" lat="50.947555"><ele>100.4</ele><time>2022-04-10T08:02:22.000Z</time></trkpt><trkpt lon="5.929136" lat="50.947607"><ele>100.4</ele><time>2022-04-10T08:02:23.000Z</time></trkpt><trkpt lon="5.929128" lat="50.947658"><ele>100.4</ele><time>2022-04-10T08:02:24.000Z</time></trkpt><trkpt lon="5.92912" lat="50.947711"><ele>100.4</ele><time>2022-04-10T08:02:25.000Z</time></trkpt><trkpt lon="5.929114" lat="50.947764"><ele>100.2</ele><time>2022-04-10T08:02:26.000Z</time></trkpt><trkpt lon="5.929111" lat="50.947816"><ele>100.2</ele><time>2022-04-10T08:02:27.000Z</time></trkpt><trkpt lon="5.929106" lat="50.947861"><ele>100.2</ele><time>2022-04-10T08:02:28.000Z</time></trkpt><trkpt lon="5.929096" lat="50.947904"><ele>100.2</ele><time>2022-04-10T08:02:29.000Z</time></trkpt><trkpt lon="5.929081" lat="50.947951"><ele>100.2</ele><time>2022-04-10T08:02:30.000Z</time></trkpt><trkpt lon="5.929067" lat="50.948002"><ele>100.2</ele><time>2022-04-10T08:02:31.000Z</time></trkpt><trkpt lon="5.929057" lat="50.948055"><ele>100.2</ele><time>2022-04-10T08:02:32.000Z</time></trkpt><trkpt lon="5.929047" lat="50.948114"><ele>100.2</ele><time>2022-04-10T08:02:33.000Z</time></trkpt><trkpt lon="5.929037" lat="50.948174"><ele>100.2</ele><time>2022-04-10T08:02:34.000Z</time></trkpt><trkpt lon="5.929026" lat="50.948231"><ele>100.2</ele><time>2022-04-10T08:02:35.000Z</time></trkpt><trkpt lon="5.929016" lat="50.948288"><ele>100.2</ele><time>2022-04-10T08:02:36.000Z</time></trkpt><trkpt lon="5.929006" lat="50.948344"><ele>100.2</ele><time>2022-04-10T08:02:37.000Z</time></trkpt><trkpt lon="5.928996" lat="50.948398"><ele>100.4</ele><time>2022-04-10T08:02:38.000Z</time></trkpt><trkpt lon="5.928987" lat="50.948452"><ele>100.4</ele><time>2022-04-10T08:02:39.000Z</time></trkpt><trkpt lon="5.92898" lat="50.948506"><ele>100.4</ele><time>2022-04-10T08:02:40.000Z</time></trkpt><trkpt lon="5.928973" lat="50.948559"><ele>100.4</ele><time>2022-04-10T08:02:41.000Z</time></trkpt><trkpt lon="5.928967" lat="50.948611"><ele>100.6</ele><time>2022-04-10T08:02:42.000Z</time></trkpt><trkpt lon="5.928962" lat="50.94866"><ele>100.6</ele><time>2022-04-10T08:02:43.000Z</time></trkpt><trkpt lon="5.928957" lat="50.94871"><ele>100.8</ele><time>2022-04-10T08:02:44.000Z</time></trkpt><trkpt lon="5.928952" lat="50.948759"><ele>100.8</ele><time>2022-04-10T08:02:45.000Z</time></trkpt><trkpt lon="5.928947" lat="50.948809"><ele>101</ele><time>2022-04-10T08:02:46.000Z</time></trkpt><trkpt lon="5.928942" lat="50.948858"><ele>101</ele><time>2022-04-10T08:02:47.000Z</time></trkpt><trkpt lon="5.928937" lat="50.948905"><ele>101.2</ele><time>2022-04-10T08:02:48.000Z</time></trkpt><trkpt lon="5.928935" lat="50.948954"><ele>101.2</ele><time>2022-04-10T08:02:49.000Z</time></trkpt><trkpt lon="5.928932" lat="50.949003"><ele>101.4</ele><time>2022-04-10T08:02:50.000Z</time></trkpt><trkpt lon="5.928929" lat="50.949054"><ele>101.6</ele><time>2022-04-10T08:02:51.000Z</time></trkpt><trkpt lon="5.928929" lat="50.949109"><ele>101.8</ele><time>2022-04-10T08:02:52.000Z</time></trkpt><trkpt lon="5.928931" lat="50.949165"><ele>102</ele><time>2022-04-10T08:02:53.000Z</time></trkpt><trkpt lon="5.928936" lat="50.949218"><ele>102</ele><time>2022-04-10T08:02:54.000Z</time></trkpt><trkpt lon="5.928941" lat="50.949273"><ele>102.2</ele><time>2022-04-10T08:02:55.000Z</time></trkpt><trkpt lon="5.928945" lat="50.949331"><ele>102.4</ele><time>2022-04-10T08:02:56.000Z</time></trkpt><trkpt lon="5.92895" lat="50.949391"><ele>102.6</ele><time>2022-04-10T08:02:57.000Z</time></trkpt><trkpt lon="5.928957" lat="50.949448"><ele>102.6</ele><time>2022-04-10T08:02:58.000Z</time></trkpt><trkpt lon="5.928964" lat="50.949506"><ele>102.8</ele><time>2022-04-10T08:02:59.000Z</time></trkpt><trkpt lon="5.928971" lat="50.949563"><ele>102.8</ele><time>2022-04-10T08:03:00.000Z</time></trkpt><trkpt lon="5.928979" lat="50.949621"><ele>103</ele><time>2022-04-10T08:03:01.000Z</time></trkpt><trkpt lon="5.92899" lat="50.949681"><ele>103.2</ele><time>2022-04-10T08:03:02.000Z</time></trkpt><trkpt lon="5.929002" lat="50.949739"><ele>103.2</ele><time>2022-04-10T08:03:03.000Z</time></trkpt><trkpt lon="5.929016" lat="50.9498"><ele>103.2</ele><time>2022-04-10T08:03:04.000Z</time></trkpt><trkpt lon="5.929031" lat="50.949861"><ele>103.4</ele><time>2022-04-10T08:03:05.000Z</time></trkpt><trkpt lon="5.929047" lat="50.949922"><ele>103.4</ele><time>2022-04-10T08:03:06.000Z</time></trkpt><trkpt lon="5.929064" lat="50.949983"><ele>103.4</ele><time>2022-04-10T08:03:07.000Z</time></trkpt><trkpt lon="5.929082" lat="50.950041"><ele>103.4</ele><time>2022-04-10T08:03:08.000Z</time></trkpt><trkpt lon="5.9291" lat="50.950102"><ele>103.4</ele><time>2022-04-10T08:03:09.000Z</time></trkpt><trkpt lon="5.929119" lat="50.950163"><ele>103.4</ele><time>2022-04-10T08:03:10.000Z</time></trkpt><trkpt lon="5.92914" lat="50.950224"><ele>103.4</ele><time>2022-04-10T08:03:11.000Z</time></trkpt><trkpt lon="5.929161" lat="50.950285"><ele>103.4</ele><time>2022-04-10T08:03:12.000Z</time></trkpt><trkpt lon="5.929186" lat="50.950345"><ele>103.4</ele><time>2022-04-10T08:03:13.000Z</time></trkpt><trkpt lon="5.929213" lat="50.950407"><ele>103.4</ele><time>2022-04-10T08:03:14.000Z</time></trkpt><trkpt lon="5.929241" lat="50.950469"><ele>103.2</ele><time>2022-04-10T08:03:15.000Z</time></trkpt><trkpt lon="5.929269" lat="50.950532"><ele>103.2</ele><time>2022-04-10T08:03:16.000Z</time></trkpt><trkpt lon="5.929298" lat="50.950595"><ele>103</ele><time>2022-04-10T08:03:17.000Z</time></trkpt><trkpt lon="5.929328" lat="50.950658"><ele>103</ele><time>2022-04-10T08:03:18.000Z</time></trkpt><trkpt lon="5.92936" lat="50.950718"><ele>102.8</ele><time>2022-04-10T08:03:19.000Z</time></trkpt><trkpt lon="5.929395" lat="50.950781"><ele>102.8</ele><time>2022-04-10T08:03:20.000Z</time></trkpt><trkpt lon="5.929428" lat="50.950842"><ele>102.4</ele><time>2022-04-10T08:03:21.000Z</time></trkpt><trkpt lon="5.929463" lat="50.950905"><ele>102.2</ele><time>2022-04-10T08:03:22.000Z</time></trkpt><trkpt lon="5.929504" lat="50.950969"><ele>102.2</ele><time>2022-04-10T08:03:23.000Z</time></trkpt><trkpt lon="5.929546" lat="50.951032"><ele>102</ele><time>2022-04-10T08:03:24.000Z</time></trkpt><trkpt lon="5.929586" lat="50.951094"><ele>101.8</ele><time>2022-04-10T08:03:25.000Z</time></trkpt><trkpt lon="5.929624" lat="50.951155"><ele>101.4</ele><time>2022-04-10T08:03:26.000Z</time></trkpt><trkpt lon="5.929665" lat="50.951218"><ele>101.2</ele><time>2022-04-10T08:03:27.000Z</time></trkpt><trkpt lon="5.929708" lat="50.951285"><ele>100.8</ele><time>2022-04-10T08:03:28.000Z</time></trkpt><trkpt lon="5.929746" lat="50.951341"><ele>100.6</ele><time>2022-04-10T08:03:29.000Z</time></trkpt><trkpt lon="5.929781" lat="50.951388"><ele>100.4</ele><time>2022-04-10T08:03:30.000Z</time></trkpt><trkpt lon="5.929823" lat="50.951459"><ele>100.2</ele><time>2022-04-10T08:03:31.000Z</time></trkpt><trkpt lon="5.92986" lat="50.951522"><ele>99.8</ele><time>2022-04-10T08:03:32.000Z</time></trkpt><trkpt lon="5.9299" lat="50.95159"><ele>99.6</ele><time>2022-04-10T08:03:33.000Z</time></trkpt><trkpt lon="5.929938" lat="50.951656"><ele>99.4</ele><time>2022-04-10T08:03:34.000Z</time></trkpt><trkpt lon="5.929977" lat="50.951725"><ele>99.2</ele><time>2022-04-10T08:03:35.000Z</time></trkpt><trkpt lon="5.930016" lat="50.951796"><ele>99</ele><time>2022-04-10T08:03:36.000Z</time></trkpt><trkpt lon="5.930051" lat="50.951857"><ele>98.8</ele><time>2022-04-10T08:03:37.000Z</time></trkpt><trkpt lon="5.930085" lat="50.951909"><ele>98.8</ele><time>2022-04-10T08:03:38.000Z</time></trkpt><trkpt lon="5.930117" lat="50.951964"><ele>98.8</ele><time>2022-04-10T08:03:39.000Z</time></trkpt><trkpt lon="5.930148" lat="50.952011"><ele>98.8</ele><time>2022-04-10T08:03:40.000Z</time></trkpt><trkpt lon="5.930186" lat="50.952055"><ele>98.8</ele><time>2022-04-10T08:03:41.000Z</time></trkpt><trkpt lon="5.930231" lat="50.95211"><ele>98.8</ele><time>2022-04-10T08:03:42.000Z</time></trkpt><trkpt lon="5.930288" lat="50.952178"><ele>99</ele><time>2022-04-10T08:03:43.000Z</time></trkpt><trkpt lon="5.930339" lat="50.952242"><ele>99</ele><time>2022-04-10T08:03:44.000Z</time></trkpt><trkpt lon="5.930391" lat="50.952306"><ele>99.2</ele><time>2022-04-10T08:03:45.000Z</time></trkpt><trkpt lon="5.930448" lat="50.952377"><ele>99.4</ele><time>2022-04-10T08:03:46.000Z</time></trkpt><trkpt lon="5.9305" lat="50.952443"><ele>99.6</ele><time>2022-04-10T08:03:47.000Z</time></trkpt><trkpt lon="5.930551" lat="50.95251"><ele>99.8</ele><time>2022-04-10T08:03:48.000Z</time></trkpt><trkpt lon="5.930601" lat="50.952577"><ele>100</ele><time>2022-04-10T08:03:49.000Z</time></trkpt><trkpt lon="5.930637" lat="50.952647"><ele>100.2</ele><time>2022-04-10T08:03:50.000Z</time></trkpt><trkpt lon="5.930669" lat="50.952718"><ele>100.4</ele><time>2022-04-10T08:03:51.000Z</time></trkpt><trkpt lon="5.930696" lat="50.952788"><ele>100.6</ele><time>2022-04-10T08:03:52.000Z</time></trkpt><trkpt lon="5.930722" lat="50.952862"><ele>100.8</ele><time>2022-04-10T08:03:53.000Z</time></trkpt><trkpt lon="5.930744" lat="50.952933"><ele>101.2</ele><time>2022-04-10T08:03:54.000Z</time></trkpt><trkpt lon="5.930765" lat="50.953003"><ele>101.4</ele><time>2022-04-10T08:03:55.000Z</time></trkpt><trkpt lon="5.930784" lat="50.953071"><ele>101.6</ele><time>2022-04-10T08:03:56.000Z</time></trkpt><trkpt lon="5.930801" lat="50.953135"><ele>101.8</ele><time>2022-04-10T08:03:57.000Z</time></trkpt><trkpt lon="5.930817" lat="50.9532"><ele>102.2</ele><time>2022-04-10T08:03:58.000Z</time></trkpt><trkpt lon="5.93083" lat="50.953265"><ele>102.4</ele><time>2022-04-10T08:03:59.000Z</time></trkpt><trkpt lon="5.93084" lat="50.953329"><ele>102.6</ele><time>2022-04-10T08:04:00.000Z</time></trkpt><trkpt lon="5.930845" lat="50.953391"><ele>102.8</ele><time>2022-04-10T08:04:01.000Z</time></trkpt><trkpt lon="5.930846" lat="50.953455"><ele>102.8</ele><time>2022-04-10T08:04:02.000Z</time></trkpt><trkpt lon="5.930842" lat="50.953515"><ele>103</ele><time>2022-04-10T08:04:03.000Z</time></trkpt><trkpt lon="5.930836" lat="50.953576"><ele>103.2</ele><time>2022-04-10T08:04:04.000Z</time></trkpt><trkpt lon="5.930829" lat="50.953634"><ele>103.2</ele><time>2022-04-10T08:04:05.000Z</time></trkpt><trkpt lon="5.930824" lat="50.953693"><ele>103.2</ele><time>2022-04-10T08:04:06.000Z</time></trkpt><trkpt lon="5.930821" lat="50.953752"><ele>103.4</ele><time>2022-04-10T08:04:07.000Z</time></trkpt><trkpt lon="5.93082" lat="50.953813"><ele>103.4</ele><time>2022-04-10T08:04:08.000Z</time></trkpt><trkpt lon="5.930818" lat="50.953875"><ele>103.6</ele><time>2022-04-10T08:04:09.000Z</time></trkpt><trkpt lon="5.930812" lat="50.953934"><ele>103.6</ele><time>2022-04-10T08:04:10.000Z</time></trkpt><trkpt lon="5.930797" lat="50.953993"><ele>103.6</ele><time>2022-04-10T08:04:11.000Z</time></trkpt><trkpt lon="5.930781" lat="50.954053"><ele>103.8</ele><time>2022-04-10T08:04:12.000Z</time></trkpt><trkpt lon="5.930765" lat="50.954111"><ele>103.8</ele><time>2022-04-10T08:04:13.000Z</time></trkpt><trkpt lon="5.930747" lat="50.954174"><ele>103.8</ele><time>2022-04-10T08:04:14.000Z</time></trkpt><trkpt lon="5.930732" lat="50.954242"><ele>103.6</ele><time>2022-04-10T08:04:15.000Z</time></trkpt><trkpt lon="5.930721" lat="50.954305"><ele>103.6</ele><time>2022-04-10T08:04:16.000Z</time></trkpt><trkpt lon="5.930703" lat="50.954366"><ele>103.8</ele><time>2022-04-10T08:04:17.000Z</time></trkpt><trkpt lon="5.930685" lat="50.954428"><ele>103.6</ele><time>2022-04-10T08:04:18.000Z</time></trkpt><trkpt lon="5.930666" lat="50.954493"><ele>103.6</ele><time>2022-04-10T08:04:19.000Z</time></trkpt><trkpt lon="5.930647" lat="50.954558"><ele>103.8</ele><time>2022-04-10T08:04:20.000Z</time></trkpt><trkpt lon="5.930628" lat="50.954624"><ele>103.8</ele><time>2022-04-10T08:04:21.000Z</time></trkpt><trkpt lon="5.93061" lat="50.954693"><ele>103.8</ele><time>2022-04-10T08:04:22.000Z</time></trkpt><trkpt lon="5.930594" lat="50.954762"><ele>104</ele><time>2022-04-10T08:04:23.000Z</time></trkpt><trkpt lon="5.930578" lat="50.95483"><ele>103.8</ele><time>2022-04-10T08:04:24.000Z</time></trkpt><trkpt lon="5.930564" lat="50.954899"><ele>103.8</ele><time>2022-04-10T08:04:25.000Z</time></trkpt><trkpt lon="5.93055" lat="50.954967"><ele>103.6</ele><time>2022-04-10T08:04:26.000Z</time></trkpt><trkpt lon="5.930536" lat="50.955032"><ele>103.4</ele><time>2022-04-10T08:04:27.000Z</time></trkpt><trkpt lon="5.930524" lat="50.955096"><ele>103.4</ele><time>2022-04-10T08:04:28.000Z</time></trkpt><trkpt lon="5.930514" lat="50.955158"><ele>103.4</ele><time>2022-04-10T08:04:29.000Z</time></trkpt><trkpt lon="5.930502" lat="50.955223"><ele>103.4</ele><time>2022-04-10T08:04:30.000Z</time></trkpt><trkpt lon="5.930493" lat="50.955289"><ele>103.6</ele><time>2022-04-10T08:04:31.000Z</time></trkpt><trkpt lon="5.930485" lat="50.95536"><ele>103.4</ele><time>2022-04-10T08:04:32.000Z</time></trkpt><trkpt lon="5.93048" lat="50.955428"><ele>103.4</ele><time>2022-04-10T08:04:33.000Z</time></trkpt><trkpt lon="5.930477" lat="50.955494"><ele>103.6</ele><time>2022-04-10T08:04:34.000Z</time></trkpt><trkpt lon="5.930472" lat="50.955562"><ele>103.6</ele><time>2022-04-10T08:04:35.000Z</time></trkpt><trkpt lon="5.930467" lat="50.955631"><ele>103.6</ele><time>2022-04-10T08:04:36.000Z</time></trkpt><trkpt lon="5.930462" lat="50.9557"><ele>103.4</ele><time>2022-04-10T08:04:37.000Z</time></trkpt><trkpt lon="5.930458" lat="50.955768"><ele>103.4</ele><time>2022-04-10T08:04:38.000Z</time></trkpt><trkpt lon="5.930452" lat="50.955836"><ele>103.4</ele><time>2022-04-10T08:04:39.000Z</time></trkpt><trkpt lon="5.93045" lat="50.955905"><ele>103.4</ele><time>2022-04-10T08:04:40.000Z</time></trkpt><trkpt lon="5.930448" lat="50.955973"><ele>103.2</ele><time>2022-04-10T08:04:41.000Z</time></trkpt><trkpt lon="5.930446" lat="50.956038"><ele>103.2</ele><time>2022-04-10T08:04:42.000Z</time></trkpt><trkpt lon="5.930446" lat="50.956103"><ele>103.2</ele><time>2022-04-10T08:04:43.000Z</time></trkpt><trkpt lon="5.930447" lat="50.956168"><ele>103</ele><time>2022-04-10T08:04:44.000Z</time></trkpt><trkpt lon="5.930451" lat="50.956235"><ele>103</ele><time>2022-04-10T08:04:45.000Z</time></trkpt><trkpt lon="5.930463" lat="50.956301"><ele>103</ele><time>2022-04-10T08:04:46.000Z</time></trkpt><trkpt lon="5.930481" lat="50.956363"><ele>103</ele><time>2022-04-10T08:04:47.000Z</time></trkpt><trkpt lon="5.930505" lat="50.956427"><ele>102.8</ele><time>2022-04-10T08:04:48.000Z</time></trkpt><trkpt lon="5.930537" lat="50.956487"><ele>102.6</ele><time>2022-04-10T08:04:49.000Z</time></trkpt><trkpt lon="5.930573" lat="50.956548"><ele>102.6</ele><time>2022-04-10T08:04:50.000Z</time></trkpt><trkpt lon="5.930605" lat="50.956612"><ele>102.6</ele><time>2022-04-10T08:04:51.000Z</time></trkpt><trkpt lon="5.930631" lat="50.95668"><ele>102.6</ele><time>2022-04-10T08:04:52.000Z</time></trkpt><trkpt lon="5.930651" lat="50.956754"><ele>102.6</ele><time>2022-04-10T08:04:53.000Z</time></trkpt><trkpt lon="5.930664" lat="50.95683"><ele>102.6</ele><time>2022-04-10T08:04:54.000Z</time></trkpt><trkpt lon="5.930665" lat="50.956901"><ele>102.6</ele><time>2022-04-10T08:04:55.000Z</time></trkpt><trkpt lon="5.930659" lat="50.956972"><ele>102.8</ele><time>2022-04-10T08:04:56.000Z</time></trkpt><trkpt lon="5.930646" lat="50.957039"><ele>102.8</ele><time>2022-04-10T08:04:57.000Z</time></trkpt><trkpt lon="5.930628" lat="50.957106"><ele>102.8</ele><time>2022-04-10T08:04:58.000Z</time></trkpt><trkpt lon="5.930608" lat="50.957172"><ele>102.8</ele><time>2022-04-10T08:04:59.000Z</time></trkpt><trkpt lon="5.930587" lat="50.957236"><ele>102.8</ele><time>2022-04-10T08:05:00.000Z</time></trkpt><trkpt lon="5.930564" lat="50.957299"><ele>102.8</ele><time>2022-04-10T08:05:01.000Z</time></trkpt><trkpt lon="5.930538" lat="50.957365"><ele>102.8</ele><time>2022-04-10T08:05:02.000Z</time></trkpt><trkpt lon="5.930509" lat="50.95743"><ele>103</ele><time>2022-04-10T08:05:03.000Z</time></trkpt><trkpt lon="5.930476" lat="50.957496"><ele>103.2</ele><time>2022-04-10T08:05:04.000Z</time></trkpt><trkpt lon="5.930446" lat="50.95756"><ele>103.4</ele><time>2022-04-10T08:05:05.000Z</time></trkpt><trkpt lon="5.930417" lat="50.957625"><ele>103.4</ele><time>2022-04-10T08:05:06.000Z</time></trkpt><trkpt lon="5.930389" lat="50.957689"><ele>103.4</ele><time>2022-04-10T08:05:07.000Z</time></trkpt><trkpt lon="5.930361" lat="50.95775"><ele>103.6</ele><time>2022-04-10T08:05:08.000Z</time></trkpt><trkpt lon="5.930337" lat="50.95781"><ele>103.6</ele><time>2022-04-10T08:05:09.000Z</time></trkpt><trkpt lon="5.930313" lat="50.957867"><ele>103.6</ele><time>2022-04-10T08:05:10.000Z</time></trkpt><trkpt lon="5.930288" lat="50.957926"><ele>103.6</ele><time>2022-04-10T08:05:11.000Z</time></trkpt><trkpt lon="5.930265" lat="50.957987"><ele>103.6</ele><time>2022-04-10T08:05:12.000Z</time></trkpt><trkpt lon="5.930246" lat="50.958048"><ele>103.4</ele><time>2022-04-10T08:05:13.000Z</time></trkpt><trkpt lon="5.93023" lat="50.958113"><ele>103.6</ele><time>2022-04-10T08:05:14.000Z</time></trkpt><trkpt lon="5.930218" lat="50.958179"><ele>103.6</ele><time>2022-04-10T08:05:15.000Z</time></trkpt><trkpt lon="5.930212" lat="50.958249"><ele>103.6</ele><time>2022-04-10T08:05:16.000Z</time></trkpt><trkpt lon="5.930214" lat="50.958317"><ele>103.4</ele><time>2022-04-10T08:05:17.000Z</time></trkpt><trkpt lon="5.930228" lat="50.958386"><ele>103.2</ele><time>2022-04-10T08:05:18.000Z</time></trkpt><trkpt lon="5.930252" lat="50.958453"><ele>103</ele><time>2022-04-10T08:05:19.000Z</time></trkpt><trkpt lon="5.930286" lat="50.958519"><ele>103</ele><time>2022-04-10T08:05:20.000Z</time></trkpt><trkpt lon="5.930327" lat="50.958587"><ele>102.8</ele><time>2022-04-10T08:05:21.000Z</time></trkpt><trkpt lon="5.930372" lat="50.958657"><ele>102.6</ele><time>2022-04-10T08:05:22.000Z</time></trkpt><trkpt lon="5.930417" lat="50.958728"><ele>102.6</ele><time>2022-04-10T08:05:23.000Z</time></trkpt><trkpt lon="5.930458" lat="50.958793"><ele>102.6</ele><time>2022-04-10T08:05:24.000Z</time></trkpt><trkpt lon="5.930498" lat="50.958853"><ele>102.8</ele><time>2022-04-10T08:05:25.000Z</time></trkpt><trkpt lon="5.930547" lat="50.95893"><ele>102.8</ele><time>2022-04-10T08:05:26.000Z</time></trkpt><trkpt lon="5.93059" lat="50.958995"><ele>102.8</ele><time>2022-04-10T08:05:27.000Z</time></trkpt><trkpt lon="5.930633" lat="50.959059"><ele>102.8</ele><time>2022-04-10T08:05:28.000Z</time></trkpt><trkpt lon="5.930674" lat="50.959126"><ele>102.8</ele><time>2022-04-10T08:05:29.000Z</time></trkpt><trkpt lon="5.930717" lat="50.959193"><ele>103</ele><time>2022-04-10T08:05:30.000Z</time></trkpt><trkpt lon="5.930758" lat="50.959259"><ele>103</ele><time>2022-04-10T08:05:31.000Z</time></trkpt><trkpt lon="5.930799" lat="50.959327"><ele>103</ele><time>2022-04-10T08:05:32.000Z</time></trkpt><trkpt lon="5.930837" lat="50.959391"><ele>103.2</ele><time>2022-04-10T08:05:33.000Z</time></trkpt><trkpt lon="5.930877" lat="50.959457"><ele>103</ele><time>2022-04-10T08:05:34.000Z</time></trkpt><trkpt lon="5.930918" lat="50.959522"><ele>103</ele><time>2022-04-10T08:05:35.000Z</time></trkpt><trkpt lon="5.930958" lat="50.959589"><ele>103.2</ele><time>2022-04-10T08:05:36.000Z</time></trkpt><trkpt lon="5.930998" lat="50.959654"><ele>103.2</ele><time>2022-04-10T08:05:37.000Z</time></trkpt><trkpt lon="5.931038" lat="50.95972"><ele>103.4</ele><time>2022-04-10T08:05:38.000Z</time></trkpt><trkpt lon="5.931081" lat="50.959784"><ele>103.4</ele><time>2022-04-10T08:05:39.000Z</time></trkpt><trkpt lon="5.931126" lat="50.95985"><ele>103.2</ele><time>2022-04-10T08:05:40.000Z</time></trkpt><trkpt lon="5.931175" lat="50.959919"><ele>103</ele><time>2022-04-10T08:05:41.000Z</time></trkpt><trkpt lon="5.931233" lat="50.959988"><ele>102.6</ele><time>2022-04-10T08:05:42.000Z</time></trkpt><trkpt lon="5.931298" lat="50.960058"><ele>102.4</ele><time>2022-04-10T08:05:43.000Z</time></trkpt><trkpt lon="5.931371" lat="50.960128"><ele>102</ele><time>2022-04-10T08:05:44.000Z</time></trkpt><trkpt lon="5.931453" lat="50.960192"><ele>101.6</ele><time>2022-04-10T08:05:45.000Z</time></trkpt><trkpt lon="5.931539" lat="50.960253"><ele>101.2</ele><time>2022-04-10T08:05:46.000Z</time></trkpt><trkpt lon="5.931633" lat="50.960312"><ele>101</ele><time>2022-04-10T08:05:47.000Z</time></trkpt><trkpt lon="5.931736" lat="50.960365"><ele>100.8</ele><time>2022-04-10T08:05:48.000Z</time></trkpt><trkpt lon="5.93184" lat="50.960417"><ele>100.4</ele><time>2022-04-10T08:05:49.000Z</time></trkpt><trkpt lon="5.931945" lat="50.960467"><ele>100</ele><time>2022-04-10T08:05:50.000Z</time></trkpt><trkpt lon="5.932049" lat="50.96052"><ele>100</ele><time>2022-04-10T08:05:51.000Z</time></trkpt><trkpt lon="5.932151" lat="50.960571"><ele>99.8</ele><time>2022-04-10T08:05:52.000Z</time></trkpt><trkpt lon="5.932255" lat="50.960627"><ele>99.8</ele><time>2022-04-10T08:05:53.000Z</time></trkpt><trkpt lon="5.932363" lat="50.960684"><ele>99.6</ele><time>2022-04-10T08:05:54.000Z</time></trkpt><trkpt lon="5.932468" lat="50.960744"><ele>99.4</ele><time>2022-04-10T08:05:55.000Z</time></trkpt><trkpt lon="5.932568" lat="50.9608"><ele>99.4</ele><time>2022-04-10T08:05:56.000Z</time></trkpt><trkpt lon="5.932675" lat="50.96086"><ele>99.2</ele><time>2022-04-10T08:05:57.000Z</time></trkpt><trkpt lon="5.93278" lat="50.960918"><ele>99.2</ele><time>2022-04-10T08:05:58.000Z</time></trkpt><trkpt lon="5.932878" lat="50.960971"><ele>99</ele><time>2022-04-10T08:05:59.000Z</time></trkpt><trkpt lon="5.932976" lat="50.96103"><ele>99</ele><time>2022-04-10T08:06:00.000Z</time></trkpt><trkpt lon="5.933068" lat="50.961092"><ele>98.8</ele><time>2022-04-10T08:06:01.000Z</time></trkpt><trkpt lon="5.933154" lat="50.961153"><ele>98.8</ele><time>2022-04-10T08:06:02.000Z</time></trkpt><trkpt lon="5.933232" lat="50.961214"><ele>98.6</ele><time>2022-04-10T08:06:03.000Z</time></trkpt><trkpt lon="5.933312" lat="50.961274"><ele>98.6</ele><time>2022-04-10T08:06:04.000Z</time></trkpt><trkpt lon="5.933395" lat="50.961336"><ele>98.4</ele><time>2022-04-10T08:06:05.000Z</time></trkpt><trkpt lon="5.933486" lat="50.961395"><ele>98.4</ele><time>2022-04-10T08:06:06.000Z</time></trkpt><trkpt lon="5.93358" lat="50.961448"><ele>98.2</ele><time>2022-04-10T08:06:07.000Z</time></trkpt><trkpt lon="5.933681" lat="50.961498"><ele>98</ele><time>2022-04-10T08:06:08.000Z</time></trkpt><trkpt lon="5.933786" lat="50.961539"><ele>97.6</ele><time>2022-04-10T08:06:09.000Z</time></trkpt><trkpt lon="5.933892" lat="50.961576"><ele>97.4</ele><time>2022-04-10T08:06:10.000Z</time></trkpt><trkpt lon="5.934007" lat="50.961616"><ele>97.4</ele><time>2022-04-10T08:06:11.000Z</time></trkpt><trkpt lon="5.934122" lat="50.961654"><ele>97.2</ele><time>2022-04-10T08:06:12.000Z</time></trkpt><trkpt lon="5.934234" lat="50.961694"><ele>97</ele><time>2022-04-10T08:06:13.000Z</time></trkpt><trkpt lon="5.93434" lat="50.961739"><ele>96.8</ele><time>2022-04-10T08:06:14.000Z</time></trkpt><trkpt lon="5.934439" lat="50.961787"><ele>96.6</ele><time>2022-04-10T08:06:15.000Z</time></trkpt><trkpt lon="5.934533" lat="50.961837"><ele>96.4</ele><time>2022-04-10T08:06:16.000Z</time></trkpt><trkpt lon="5.934625" lat="50.961887"><ele>96.4</ele><time>2022-04-10T08:06:17.000Z</time></trkpt><trkpt lon="5.934713" lat="50.961942"><ele>96.4</ele><time>2022-04-10T08:06:18.000Z</time></trkpt><trkpt lon="5.934801" lat="50.961999"><ele>96.4</ele><time>2022-04-10T08:06:19.000Z</time></trkpt><trkpt lon="5.934888" lat="50.962061"><ele>96.4</ele><time>2022-04-10T08:06:20.000Z</time></trkpt><trkpt lon="5.93497" lat="50.962121"><ele>96.4</ele><time>2022-04-10T08:06:21.000Z</time></trkpt><trkpt lon="5.935055" lat="50.962187"><ele>96.4</ele><time>2022-04-10T08:06:22.000Z</time></trkpt><trkpt lon="5.93514" lat="50.962251"><ele>96.2</ele><time>2022-04-10T08:06:23.000Z</time></trkpt><trkpt lon="5.935229" lat="50.962314"><ele>96</ele><time>2022-04-10T08:06:24.000Z</time></trkpt><trkpt lon="5.935315" lat="50.962378"><ele>95.8</ele><time>2022-04-10T08:06:25.000Z</time></trkpt><trkpt lon="5.935398" lat="50.962443"><ele>95.6</ele><time>2022-04-10T08:06:26.000Z</time></trkpt><trkpt lon="5.935479" lat="50.96251"><ele>95.4</ele><time>2022-04-10T08:06:27.000Z</time></trkpt><trkpt lon="5.93556" lat="50.962582"><ele>95.2</ele><time>2022-04-10T08:06:28.000Z</time></trkpt><trkpt lon="5.935641" lat="50.96265"><ele>95.2</ele><time>2022-04-10T08:06:29.000Z</time></trkpt><trkpt lon="5.93572" lat="50.962718"><ele>94.8</ele><time>2022-04-10T08:06:30.000Z</time></trkpt><trkpt lon="5.935801" lat="50.962787"><ele>94.6</ele><time>2022-04-10T08:06:31.000Z</time></trkpt><trkpt lon="5.935879" lat="50.962858"><ele>94.2</ele><time>2022-04-10T08:06:32.000Z</time></trkpt><trkpt lon="5.935956" lat="50.962936"><ele>93.8</ele><time>2022-04-10T08:06:33.000Z</time></trkpt><trkpt lon="5.936038" lat="50.963018"><ele>93.4</ele><time>2022-04-10T08:06:34.000Z</time></trkpt><trkpt lon="5.936131" lat="50.963103"><ele>92.8</ele><time>2022-04-10T08:06:35.000Z</time></trkpt><trkpt lon="5.936225" lat="50.963184"><ele>92.4</ele><time>2022-04-10T08:06:36.000Z</time></trkpt><trkpt lon="5.936324" lat="50.963264"><ele>91.6</ele><time>2022-04-10T08:06:37.000Z</time></trkpt><trkpt lon="5.936425" lat="50.963345"><ele>91</ele><time>2022-04-10T08:06:38.000Z</time></trkpt><trkpt lon="5.936529" lat="50.963434"><ele>90.6</ele><time>2022-04-10T08:06:39.000Z</time></trkpt><trkpt lon="5.936621" lat="50.963522"><ele>90</ele><time>2022-04-10T08:06:40.000Z</time></trkpt><trkpt lon="5.936709" lat="50.963608"><ele>89.4</ele><time>2022-04-10T08:06:41.000Z</time></trkpt><trkpt lon="5.936804" lat="50.963696"><ele>88.8</ele><time>2022-04-10T08:06:42.000Z</time></trkpt><trkpt lon="5.9369" lat="50.963787"><ele>88.2</ele><time>2022-04-10T08:06:43.000Z</time></trkpt><trkpt lon="5.937002" lat="50.963873"><ele>87.6</ele><time>2022-04-10T08:06:44.000Z</time></trkpt><trkpt lon="5.937102" lat="50.963967"><ele>87</ele><time>2022-04-10T08:06:45.000Z</time></trkpt><trkpt lon="5.937191" lat="50.964063"><ele>86.6</ele><time>2022-04-10T08:06:46.000Z</time></trkpt><trkpt lon="5.937279" lat="50.96416"><ele>86</ele><time>2022-04-10T08:06:47.000Z</time></trkpt><trkpt lon="5.937377" lat="50.96425"><ele>85.6</ele><time>2022-04-10T08:06:48.000Z</time></trkpt><trkpt lon="5.937473" lat="50.964337"><ele>85</ele><time>2022-04-10T08:06:49.000Z</time></trkpt><trkpt lon="5.937561" lat="50.96442"><ele>84.6</ele><time>2022-04-10T08:06:50.000Z</time></trkpt><trkpt lon="5.937655" lat="50.964504"><ele>84.2</ele><time>2022-04-10T08:06:51.000Z</time></trkpt><trkpt lon="5.937741" lat="50.964583"><ele>83.8</ele><time>2022-04-10T08:06:52.000Z</time></trkpt><trkpt lon="5.937818" lat="50.964657"><ele>83.6</ele><time>2022-04-10T08:06:53.000Z</time></trkpt><trkpt lon="5.93789" lat="50.964735"><ele>83.6</ele><time>2022-04-10T08:06:54.000Z</time></trkpt><trkpt lon="5.937949" lat="50.964812"><ele>83.4</ele><time>2022-04-10T08:06:55.000Z</time></trkpt><trkpt lon="5.938004" lat="50.964893"><ele>83.4</ele><time>2022-04-10T08:06:56.000Z</time></trkpt><trkpt lon="5.938045" lat="50.964975"><ele>83</ele><time>2022-04-10T08:06:57.000Z</time></trkpt><trkpt lon="5.938072" lat="50.965062"><ele>82.8</ele><time>2022-04-10T08:06:58.000Z</time></trkpt><trkpt lon="5.938088" lat="50.965147"><ele>82.8</ele><time>2022-04-10T08:06:59.000Z</time></trkpt><trkpt lon="5.938101" lat="50.965234"><ele>82.6</ele><time>2022-04-10T08:07:00.000Z</time></trkpt><trkpt lon="5.938115" lat="50.965318"><ele>82.4</ele><time>2022-04-10T08:07:01.000Z</time></trkpt><trkpt lon="5.938126" lat="50.965405"><ele>82</ele><time>2022-04-10T08:07:02.000Z</time></trkpt><trkpt lon="5.938131" lat="50.965492"><ele>81.8</ele><time>2022-04-10T08:07:03.000Z</time></trkpt><trkpt lon="5.938139" lat="50.965576"><ele>81.6</ele><time>2022-04-10T08:07:04.000Z</time></trkpt><trkpt lon="5.938151" lat="50.96566"><ele>81.4</ele><time>2022-04-10T08:07:05.000Z</time></trkpt><trkpt lon="5.938166" lat="50.965755"><ele>81.2</ele><time>2022-04-10T08:07:06.000Z</time></trkpt><trkpt lon="5.938193" lat="50.965844"><ele>81</ele><time>2022-04-10T08:07:07.000Z</time></trkpt><trkpt lon="5.938228" lat="50.965931"><ele>80.8</ele><time>2022-04-10T08:07:08.000Z</time></trkpt><trkpt lon="5.938276" lat="50.966011"><ele>80.6</ele><time>2022-04-10T08:07:09.000Z</time></trkpt><trkpt lon="5.938336" lat="50.966093"><ele>80.2</ele><time>2022-04-10T08:07:10.000Z</time></trkpt><trkpt lon="5.938408" lat="50.966169"><ele>80</ele><time>2022-04-10T08:07:11.000Z</time></trkpt><trkpt lon="5.938486" lat="50.966245"><ele>79.8</ele><time>2022-04-10T08:07:12.000Z</time></trkpt><trkpt lon="5.938562" lat="50.966318"><ele>79.6</ele><time>2022-04-10T08:07:13.000Z</time></trkpt><trkpt lon="5.938639" lat="50.966392"><ele>79.4</ele><time>2022-04-10T08:07:14.000Z</time></trkpt><trkpt lon="5.938719" lat="50.966461"><ele>79.4</ele><time>2022-04-10T08:07:15.000Z</time></trkpt><trkpt lon="5.9388" lat="50.966528"><ele>79.2</ele><time>2022-04-10T08:07:16.000Z</time></trkpt><trkpt lon="5.938884" lat="50.966599"><ele>79.2</ele><time>2022-04-10T08:07:17.000Z</time></trkpt><trkpt lon="5.938962" lat="50.966667"><ele>79</ele><time>2022-04-10T08:07:18.000Z</time></trkpt><trkpt lon="5.939034" lat="50.966737"><ele>78.8</ele><time>2022-04-10T08:07:19.000Z</time></trkpt><trkpt lon="5.939104" lat="50.966808"><ele>78.6</ele><time>2022-04-10T08:07:20.000Z</time></trkpt><trkpt lon="5.939176" lat="50.966877"><ele>78.4</ele><time>2022-04-10T08:07:21.000Z</time></trkpt><trkpt lon="5.939249" lat="50.966946"><ele>78.2</ele><time>2022-04-10T08:07:22.000Z</time></trkpt><trkpt lon="5.93932" lat="50.967013"><ele>78.2</ele><time>2022-04-10T08:07:23.000Z</time></trkpt><trkpt lon="5.93939" lat="50.967078"><ele>78.2</ele><time>2022-04-10T08:07:24.000Z</time></trkpt><trkpt lon="5.939461" lat="50.967143"><ele>78</ele><time>2022-04-10T08:07:25.000Z</time></trkpt><trkpt lon="5.939531" lat="50.967209"><ele>78</ele><time>2022-04-10T08:07:26.000Z</time></trkpt><trkpt lon="5.939602" lat="50.967277"><ele>77.8</ele><time>2022-04-10T08:07:27.000Z</time></trkpt><trkpt lon="5.939669" lat="50.967341"><ele>77.8</ele><time>2022-04-10T08:07:28.000Z</time></trkpt><trkpt lon="5.939737" lat="50.967407"><ele>77.4</ele><time>2022-04-10T08:07:29.000Z</time></trkpt><trkpt lon="5.939804" lat="50.967475"><ele>77.2</ele><time>2022-04-10T08:07:30.000Z</time></trkpt><trkpt lon="5.939871" lat="50.96754"><ele>77</ele><time>2022-04-10T08:07:31.000Z</time></trkpt><trkpt lon="5.939937" lat="50.967604"><ele>77</ele><time>2022-04-10T08:07:32.000Z</time></trkpt><trkpt lon="5.940002" lat="50.967666"><ele>76.8</ele><time>2022-04-10T08:07:33.000Z</time></trkpt><trkpt lon="5.940062" lat="50.96773"><ele>76.6</ele><time>2022-04-10T08:07:34.000Z</time></trkpt><trkpt lon="5.940114" lat="50.967798"><ele>76.4</ele><time>2022-04-10T08:07:35.000Z</time></trkpt><trkpt lon="5.94016" lat="50.967868"><ele>76.2</ele><time>2022-04-10T08:07:36.000Z</time></trkpt><trkpt lon="5.940203" lat="50.967937"><ele>76.2</ele><time>2022-04-10T08:07:37.000Z</time></trkpt><trkpt lon="5.940244" lat="50.968007"><ele>76</ele><time>2022-04-10T08:07:38.000Z</time></trkpt><trkpt lon="5.940287" lat="50.968082"><ele>76</ele><time>2022-04-10T08:07:39.000Z</time></trkpt><trkpt lon="5.940332" lat="50.968151"><ele>75.6</ele><time>2022-04-10T08:07:40.000Z</time></trkpt><trkpt lon="5.940378" lat="50.968218"><ele>75.4</ele><time>2022-04-10T08:07:41.000Z</time></trkpt><trkpt lon="5.940424" lat="50.968283"><ele>75.4</ele><time>2022-04-10T08:07:42.000Z</time></trkpt><trkpt lon="5.94047" lat="50.968344"><ele>75.2</ele><time>2022-04-10T08:07:43.000Z</time></trkpt><trkpt lon="5.940517" lat="50.968402"><ele>75.2</ele><time>2022-04-10T08:07:44.000Z</time></trkpt><trkpt lon="5.940572" lat="50.968455"><ele>75</ele><time>2022-04-10T08:07:45.000Z</time></trkpt><trkpt lon="5.940631" lat="50.968505"><ele>75</ele><time>2022-04-10T08:07:46.000Z</time></trkpt><trkpt lon="5.940692" lat="50.968551"><ele>75</ele><time>2022-04-10T08:07:47.000Z</time></trkpt><trkpt lon="5.940751" lat="50.968589"><ele>74.8</ele><time>2022-04-10T08:07:48.000Z</time></trkpt><trkpt lon="5.940808" lat="50.968625"><ele>75</ele><time>2022-04-10T08:07:49.000Z</time></trkpt><trkpt lon="5.940857" lat="50.968656"><ele>75</ele><time>2022-04-10T08:07:50.000Z</time></trkpt><trkpt lon="5.940896" lat="50.968686"><ele>75</ele><time>2022-04-10T08:07:51.000Z</time></trkpt><trkpt lon="5.940925" lat="50.968717"><ele>75</ele><time>2022-04-10T08:07:52.000Z</time></trkpt><trkpt lon="5.940937" lat="50.968752"><ele>75.2</ele><time>2022-04-10T08:07:53.000Z</time></trkpt><trkpt lon="5.940925" lat="50.96879"><ele>75.2</ele><time>2022-04-10T08:07:54.000Z</time></trkpt><trkpt lon="5.940889" lat="50.968822"><ele>75.2</ele><time>2022-04-10T08:07:55.000Z</time></trkpt><trkpt lon="5.940841" lat="50.96885"><ele>75.2</ele><time>2022-04-10T08:07:56.000Z</time></trkpt><trkpt lon="5.940787" lat="50.96888"><ele>75.4</ele><time>2022-04-10T08:07:57.000Z</time></trkpt><trkpt lon="5.940726" lat="50.968911"><ele>75.4</ele><time>2022-04-10T08:07:58.000Z</time></trkpt><trkpt lon="5.940663" lat="50.968941"><ele>75.6</ele><time>2022-04-10T08:07:59.000Z</time></trkpt><trkpt lon="5.940598" lat="50.968973"><ele>75.6</ele><time>2022-04-10T08:08:00.000Z</time></trkpt><trkpt lon="5.940523" lat="50.969012"><ele>75.6</ele><time>2022-04-10T08:08:01.000Z</time></trkpt><trkpt lon="5.940438" lat="50.969049"><ele>75.4</ele><time>2022-04-10T08:08:02.000Z</time></trkpt><trkpt lon="5.940349" lat="50.969085"><ele>75.4</ele><time>2022-04-10T08:08:03.000Z</time></trkpt><trkpt lon="5.940253" lat="50.969123"><ele>75.2</ele><time>2022-04-10T08:08:04.000Z</time></trkpt><trkpt lon="5.940157" lat="50.969161"><ele>75.2</ele><time>2022-04-10T08:08:05.000Z</time></trkpt><trkpt lon="5.940062" lat="50.969199"><ele>75.2</ele><time>2022-04-10T08:08:06.000Z</time></trkpt><trkpt lon="5.93997" lat="50.969238"><ele>75.2</ele><time>2022-04-10T08:08:07.000Z</time></trkpt><trkpt lon="5.939878" lat="50.969281"><ele>75</ele><time>2022-04-10T08:08:08.000Z</time></trkpt><trkpt lon="5.939786" lat="50.969322"><ele>74.8</ele><time>2022-04-10T08:08:09.000Z</time></trkpt><trkpt lon="5.939694" lat="50.969364"><ele>75</ele><time>2022-04-10T08:08:10.000Z</time></trkpt><trkpt lon="5.9396" lat="50.969406"><ele>75</ele><time>2022-04-10T08:08:11.000Z</time></trkpt><trkpt lon="5.939513" lat="50.969449"><ele>75</ele><time>2022-04-10T08:08:12.000Z</time></trkpt><trkpt lon="5.939429" lat="50.969495"><ele>75</ele><time>2022-04-10T08:08:13.000Z</time></trkpt><trkpt lon="5.939348" lat="50.969542"><ele>75.2</ele><time>2022-04-10T08:08:14.000Z</time></trkpt><trkpt lon="5.939269" lat="50.96959"><ele>75.2</ele><time>2022-04-10T08:08:15.000Z</time></trkpt><trkpt lon="5.939186" lat="50.969635"><ele>75.2</ele><time>2022-04-10T08:08:16.000Z</time></trkpt><trkpt lon="5.939102" lat="50.969676"><ele>75</ele><time>2022-04-10T08:08:17.000Z</time></trkpt><trkpt lon="5.939015" lat="50.969715"><ele>75</ele><time>2022-04-10T08:08:18.000Z</time></trkpt><trkpt lon="5.93892" lat="50.969756"><ele>75</ele><time>2022-04-10T08:08:19.000Z</time></trkpt><trkpt lon="5.938828" lat="50.969792"><ele>75</ele><time>2022-04-10T08:08:20.000Z</time></trkpt><trkpt lon="5.938737" lat="50.969822"><ele>74.8</ele><time>2022-04-10T08:08:21.000Z</time></trkpt><trkpt lon="5.938641" lat="50.96985"><ele>74.8</ele><time>2022-04-10T08:08:22.000Z</time></trkpt><trkpt lon="5.938542" lat="50.969874"><ele>75</ele><time>2022-04-10T08:08:23.000Z</time></trkpt><trkpt lon="5.938445" lat="50.9699"><ele>75</ele><time>2022-04-10T08:08:24.000Z</time></trkpt><trkpt lon="5.938341" lat="50.969925"><ele>74.8</ele><time>2022-04-10T08:08:25.000Z</time></trkpt><trkpt lon="5.938243" lat="50.96995"><ele>74.8</ele><time>2022-04-10T08:08:26.000Z</time></trkpt><trkpt lon="5.938147" lat="50.969973"><ele>74.8</ele><time>2022-04-10T08:08:27.000Z</time></trkpt><trkpt lon="5.93805" lat="50.969995"><ele>74.8</ele><time>2022-04-10T08:08:28.000Z</time></trkpt><trkpt lon="5.937953" lat="50.970014"><ele>75</ele><time>2022-04-10T08:08:29.000Z</time></trkpt><trkpt lon="5.937856" lat="50.970033"><ele>75</ele><time>2022-04-10T08:08:30.000Z</time></trkpt><trkpt lon="5.937759" lat="50.970053"><ele>75</ele><time>2022-04-10T08:08:31.000Z</time></trkpt><trkpt lon="5.937662" lat="50.970075"><ele>75</ele><time>2022-04-10T08:08:32.000Z</time></trkpt><trkpt lon="5.937565" lat="50.970095"><ele>75</ele><time>2022-04-10T08:08:33.000Z</time></trkpt><trkpt lon="5.937468" lat="50.970118"><ele>75</ele><time>2022-04-10T08:08:34.000Z</time></trkpt><trkpt lon="5.93737" lat="50.970141"><ele>75</ele><time>2022-04-10T08:08:35.000Z</time></trkpt><trkpt lon="5.937273" lat="50.970164"><ele>75</ele><time>2022-04-10T08:08:36.000Z</time></trkpt><trkpt lon="5.937172" lat="50.970188"><ele>74.8</ele><time>2022-04-10T08:08:37.000Z</time></trkpt><trkpt lon="5.937072" lat="50.970213"><ele>74.8</ele><time>2022-04-10T08:08:38.000Z</time></trkpt><trkpt lon="5.936974" lat="50.970232"><ele>74.8</ele><time>2022-04-10T08:08:39.000Z</time></trkpt><trkpt lon="5.936877" lat="50.97025"><ele>74.6</ele><time>2022-04-10T08:08:40.000Z</time></trkpt><trkpt lon="5.936778" lat="50.970264"><ele>74.6</ele><time>2022-04-10T08:08:41.000Z</time></trkpt><trkpt lon="5.936678" lat="50.970275"><ele>74.4</ele><time>2022-04-10T08:08:42.000Z</time></trkpt><trkpt lon="5.936578" lat="50.970286"><ele>74.4</ele><time>2022-04-10T08:08:43.000Z</time></trkpt><trkpt lon="5.936476" lat="50.970293"><ele>74.2</ele><time>2022-04-10T08:08:44.000Z</time></trkpt><trkpt lon="5.93637" lat="50.970302"><ele>73.8</ele><time>2022-04-10T08:08:45.000Z</time></trkpt><trkpt lon="5.936264" lat="50.970313"><ele>73.6</ele><time>2022-04-10T08:08:46.000Z</time></trkpt><trkpt lon="5.936152" lat="50.970327"><ele>73</ele><time>2022-04-10T08:08:47.000Z</time></trkpt><trkpt lon="5.936039" lat="50.970346"><ele>72.6</ele><time>2022-04-10T08:08:48.000Z</time></trkpt><trkpt lon="5.935924" lat="50.970365"><ele>72</ele><time>2022-04-10T08:08:49.000Z</time></trkpt><trkpt lon="5.935813" lat="50.970385"><ele>71.4</ele><time>2022-04-10T08:08:50.000Z</time></trkpt><trkpt lon="5.9357" lat="50.970409"><ele>70.8</ele><time>2022-04-10T08:08:51.000Z</time></trkpt><trkpt lon="5.935588" lat="50.970437"><ele>70</ele><time>2022-04-10T08:08:52.000Z</time></trkpt><trkpt lon="5.93548" lat="50.970469"><ele>69.6</ele><time>2022-04-10T08:08:53.000Z</time></trkpt><trkpt lon="5.935377" lat="50.970511"><ele>69</ele><time>2022-04-10T08:08:54.000Z</time></trkpt><trkpt lon="5.935278" lat="50.970561"><ele>68.6</ele><time>2022-04-10T08:08:55.000Z</time></trkpt><trkpt lon="5.935179" lat="50.970612"><ele>68.4</ele><time>2022-04-10T08:08:56.000Z</time></trkpt><trkpt lon="5.935076" lat="50.97067"><ele>68.2</ele><time>2022-04-10T08:08:57.000Z</time></trkpt><trkpt lon="5.934974" lat="50.970726"><ele>68</ele><time>2022-04-10T08:08:58.000Z</time></trkpt><trkpt lon="5.934872" lat="50.970784"><ele>67.6</ele><time>2022-04-10T08:08:59.000Z</time></trkpt><trkpt lon="5.934769" lat="50.97084"><ele>67.2</ele><time>2022-04-10T08:09:00.000Z</time></trkpt><trkpt lon="5.934665" lat="50.970893"><ele>67</ele><time>2022-04-10T08:09:01.000Z</time></trkpt><trkpt lon="5.934558" lat="50.970946"><ele>67</ele><time>2022-04-10T08:09:02.000Z</time></trkpt><trkpt lon="5.934449" lat="50.970994"><ele>66.8</ele><time>2022-04-10T08:09:03.000Z</time></trkpt><trkpt lon="5.934339" lat="50.97104"><ele>66.6</ele><time>2022-04-10T08:09:04.000Z</time></trkpt><trkpt lon="5.934233" lat="50.971088"><ele>66.4</ele><time>2022-04-10T08:09:05.000Z</time></trkpt><trkpt lon="5.934136" lat="50.971143"><ele>66.2</ele><time>2022-04-10T08:09:06.000Z</time></trkpt><trkpt lon="5.934048" lat="50.9712"><ele>66.2</ele><time>2022-04-10T08:09:07.000Z</time></trkpt><trkpt lon="5.933966" lat="50.971258"><ele>66</ele><time>2022-04-10T08:09:08.000Z</time></trkpt><trkpt lon="5.933891" lat="50.97132"><ele>66</ele><time>2022-04-10T08:09:09.000Z</time></trkpt><trkpt lon="5.933829" lat="50.971384"><ele>66</ele><time>2022-04-10T08:09:10.000Z</time></trkpt><trkpt lon="5.933778" lat="50.971452"><ele>65.8</ele><time>2022-04-10T08:09:11.000Z</time></trkpt><trkpt lon="5.933739" lat="50.971525"><ele>65.8</ele><time>2022-04-10T08:09:12.000Z</time></trkpt><trkpt lon="5.933705" lat="50.971597"><ele>65.6</ele><time>2022-04-10T08:09:13.000Z</time></trkpt><trkpt lon="5.933671" lat="50.971669"><ele>65.6</ele><time>2022-04-10T08:09:14.000Z</time></trkpt><trkpt lon="5.933638" lat="50.971742"><ele>65.6</ele><time>2022-04-10T08:09:15.000Z</time></trkpt><trkpt lon="5.933604" lat="50.971814"><ele>65.6</ele><time>2022-04-10T08:09:16.000Z</time></trkpt><trkpt lon="5.933569" lat="50.971884"><ele>65.6</ele><time>2022-04-10T08:09:17.000Z</time></trkpt><trkpt lon="5.933529" lat="50.971953"><ele>65.6</ele><time>2022-04-10T08:09:18.000Z</time></trkpt><trkpt lon="5.933486" lat="50.972023"><ele>65.6</ele><time>2022-04-10T08:09:19.000Z</time></trkpt><trkpt lon="5.933439" lat="50.97209"><ele>65.6</ele><time>2022-04-10T08:09:20.000Z</time></trkpt><trkpt lon="5.933385" lat="50.972155"><ele>65.6</ele><time>2022-04-10T08:09:21.000Z</time></trkpt><trkpt lon="5.933326" lat="50.972219"><ele>65.4</ele><time>2022-04-10T08:09:22.000Z</time></trkpt><trkpt lon="5.933263" lat="50.972279"><ele>65.6</ele><time>2022-04-10T08:09:23.000Z</time></trkpt><trkpt lon="5.933196" lat="50.972335"><ele>65.4</ele><time>2022-04-10T08:09:24.000Z</time></trkpt><trkpt lon="5.933127" lat="50.972389"><ele>65.4</ele><time>2022-04-10T08:09:25.000Z</time></trkpt><trkpt lon="5.933056" lat="50.972446"><ele>65.4</ele><time>2022-04-10T08:09:26.000Z</time></trkpt><trkpt lon="5.932985" lat="50.972499"><ele>65.6</ele><time>2022-04-10T08:09:27.000Z</time></trkpt><trkpt lon="5.932913" lat="50.972548"><ele>65.6</ele><time>2022-04-10T08:09:28.000Z</time></trkpt><trkpt lon="5.932842" lat="50.972598"><ele>65.8</ele><time>2022-04-10T08:09:29.000Z</time></trkpt><trkpt lon="5.932771" lat="50.972646"><ele>65.8</ele><time>2022-04-10T08:09:30.000Z</time></trkpt><trkpt lon="5.932698" lat="50.972692"><ele>65.8</ele><time>2022-04-10T08:09:31.000Z</time></trkpt><trkpt lon="5.932624" lat="50.972738"><ele>66</ele><time>2022-04-10T08:09:32.000Z</time></trkpt><trkpt lon="5.932552" lat="50.972787"><ele>66</ele><time>2022-04-10T08:09:33.000Z</time></trkpt><trkpt lon="5.932482" lat="50.972834"><ele>66</ele><time>2022-04-10T08:09:34.000Z</time></trkpt><trkpt lon="5.932416" lat="50.972884"><ele>66</ele><time>2022-04-10T08:09:35.000Z</time></trkpt><trkpt lon="5.932353" lat="50.972932"><ele>66</ele><time>2022-04-10T08:09:36.000Z</time></trkpt><trkpt lon="5.93229" lat="50.972976"><ele>66.2</ele><time>2022-04-10T08:09:37.000Z</time></trkpt><trkpt lon="5.93223" lat="50.973014"><ele>66.2</ele><time>2022-04-10T08:09:38.000Z</time></trkpt><trkpt lon="5.932171" lat="50.973053"><ele>66.2</ele><time>2022-04-10T08:09:39.000Z</time></trkpt><trkpt lon="5.932111" lat="50.973093"><ele>66.2</ele><time>2022-04-10T08:09:40.000Z</time></trkpt><trkpt lon="5.932053" lat="50.973127"><ele>66.2</ele><time>2022-04-10T08:09:41.000Z</time></trkpt><trkpt lon="5.932" lat="50.973161"><ele>66.2</ele><time>2022-04-10T08:09:42.000Z</time></trkpt><trkpt lon="5.93195" lat="50.973197"><ele>66.4</ele><time>2022-04-10T08:09:43.000Z</time></trkpt><trkpt lon="5.931911" lat="50.973236"><ele>66.4</ele><time>2022-04-10T08:09:44.000Z</time></trkpt><trkpt lon="5.931893" lat="50.973278"><ele>66.6</ele><time>2022-04-10T08:09:45.000Z</time></trkpt><trkpt lon="5.931895" lat="50.97332"><ele>66.6</ele><time>2022-04-10T08:09:46.000Z</time></trkpt><trkpt lon="5.931911" lat="50.97336"><ele>66.6</ele><time>2022-04-10T08:09:47.000Z</time></trkpt><trkpt lon="5.931936" lat="50.973391"><ele>66.6</ele><time>2022-04-10T08:09:48.000Z</time></trkpt><trkpt lon="5.93197" lat="50.973412"><ele>66.6</ele><time>2022-04-10T08:09:49.000Z</time></trkpt><trkpt lon="5.932014" lat="50.973424"><ele>66.6</ele><time>2022-04-10T08:09:50.000Z</time></trkpt><trkpt lon="5.932064" lat="50.973424"><ele>66.8</ele><time>2022-04-10T08:09:51.000Z</time></trkpt><trkpt lon="5.932119" lat="50.97341"><ele>66.8</ele><time>2022-04-10T08:09:52.000Z</time></trkpt><trkpt lon="5.93218" lat="50.973389"><ele>66.8</ele><time>2022-04-10T08:09:53.000Z</time></trkpt><trkpt lon="5.932245" lat="50.973363"><ele>66.6</ele><time>2022-04-10T08:09:54.000Z</time></trkpt><trkpt lon="5.932315" lat="50.973335"><ele>66.6</ele><time>2022-04-10T08:09:55.000Z</time></trkpt><trkpt lon="5.932385" lat="50.973304"><ele>66.6</ele><time>2022-04-10T08:09:56.000Z</time></trkpt><trkpt lon="5.932454" lat="50.973274"><ele>66.6</ele><time>2022-04-10T08:09:57.000Z</time></trkpt><trkpt lon="5.932522" lat="50.973248"><ele>66.4</ele><time>2022-04-10T08:09:58.000Z</time></trkpt><trkpt lon="5.93259" lat="50.973221"><ele>66.4</ele><time>2022-04-10T08:09:59.000Z</time></trkpt><trkpt lon="5.932655" lat="50.973196"><ele>66.4</ele><time>2022-04-10T08:10:00.000Z</time></trkpt><trkpt lon="5.932716" lat="50.973173"><ele>66.2</ele><time>2022-04-10T08:10:01.000Z</time></trkpt><trkpt lon="5.932769" lat="50.973151"><ele>66.2</ele><time>2022-04-10T08:10:02.000Z</time></trkpt><trkpt lon="5.93282" lat="50.973132"><ele>66.2</ele><time>2022-04-10T08:10:03.000Z</time></trkpt><trkpt lon="5.932868" lat="50.973112"><ele>66.2</ele><time>2022-04-10T08:10:04.000Z</time></trkpt><trkpt lon="5.932913" lat="50.973095"><ele>66.2</ele><time>2022-04-10T08:10:05.000Z</time></trkpt><trkpt lon="5.932952" lat="50.973079"><ele>66.2</ele><time>2022-04-10T08:10:06.000Z</time></trkpt><trkpt lon="5.932984" lat="50.973066"><ele>66.2</ele><time>2022-04-10T08:10:07.000Z</time></trkpt><trkpt lon="5.933011" lat="50.97306"><ele>66.2</ele><time>2022-04-10T08:10:08.000Z</time></trkpt><trkpt lon="5.933038" lat="50.973057"><ele>66.2</ele><time>2022-04-10T08:10:09.000Z</time></trkpt><trkpt lon="5.933073" lat="50.973053"><ele>66</ele><time>2022-04-10T08:10:22.000Z</time></trkpt><trkpt lon="5.933073" lat="50.973053"><ele>66</ele><time>2022-04-10T08:10:23.000Z</time></trkpt><trkpt lon="5.933073" lat="50.973053"><ele>66</ele><time>2022-04-10T08:10:24.000Z</time></trkpt><trkpt lon="5.933073" lat="50.973053"><ele>66</ele><time>2022-04-10T08:10:25.000Z</time></trkpt><trkpt lon="5.933073" lat="50.973053"><ele>66</ele><time>2022-04-10T08:10:26.000Z</time></trkpt><trkpt lon="5.933073" lat="50.973053"><ele>66</ele><time>2022-04-10T08:10:27.000Z</time></trkpt><trkpt lon="5.933134" lat="50.973142"><ele>65.8</ele><time>2022-04-10T08:35:45.000Z</time></trkpt><trkpt lon="5.933127" lat="50.973134"><ele>65.8</ele><time>2022-04-10T08:35:46.000Z</time></trkpt><trkpt lon="5.933122" lat="50.973123"><ele>66</ele><time>2022-04-10T08:35:47.000Z</time></trkpt><trkpt lon="5.933117" lat="50.973116"><ele>66</ele><time>2022-04-10T08:35:48.000Z</time></trkpt><trkpt lon="5.933111" lat="50.973109"><ele>66</ele><time>2022-04-10T08:35:49.000Z</time></trkpt><trkpt lon="5.933103" lat="50.973104"><ele>66</ele><time>2022-04-10T08:35:50.000Z</time></trkpt><trkpt lon="5.933096" lat="50.973098"><ele>66</ele><time>2022-04-10T08:35:51.000Z</time></trkpt><trkpt lon="5.93309" lat="50.973094"><ele>66</ele><time>2022-04-10T08:35:52.000Z</time></trkpt><trkpt lon="5.933083" lat="50.97309"><ele>66</ele><time>2022-04-10T08:35:53.000Z</time></trkpt><trkpt lon="5.933076" lat="50.973087"><ele>66</ele><time>2022-04-10T08:35:54.000Z</time></trkpt><trkpt lon="5.933069" lat="50.973088"><ele>66</ele><time>2022-04-10T08:35:55.000Z</time></trkpt><trkpt lon="5.933066" lat="50.973091"><ele>66</ele><time>2022-04-10T08:35:56.000Z</time></trkpt><trkpt lon="5.933065" lat="50.973091"><ele>66</ele><time>2022-04-10T08:35:57.000Z</time></trkpt><trkpt lon="5.933064" lat="50.973091"><ele>66</ele><time>2022-04-10T08:35:58.000Z</time></trkpt><trkpt lon="5.933064" lat="50.973091"><ele>66</ele><time>2022-04-10T08:35:59.000Z</time></trkpt><trkpt lon="5.933047" lat="50.973096"><ele>66</ele><time>2022-04-10T08:36:27.000Z</time></trkpt><trkpt lon="5.932999" lat="50.973111"><ele>66</ele><time>2022-04-10T08:36:28.000Z</time></trkpt><trkpt lon="5.932981" lat="50.973117"><ele>66</ele><time>2022-04-10T08:36:29.000Z</time></trkpt><trkpt lon="5.932956" lat="50.973129"><ele>66</ele><time>2022-04-10T08:36:30.000Z</time></trkpt><trkpt lon="5.932926" lat="50.97314"><ele>66</ele><time>2022-04-10T08:36:31.000Z</time></trkpt><trkpt lon="5.932891" lat="50.973151"><ele>66</ele><time>2022-04-10T08:36:32.000Z</time></trkpt><trkpt lon="5.932853" lat="50.973163"><ele>65.8</ele><time>2022-04-10T08:36:33.000Z</time></trkpt><trkpt lon="5.932813" lat="50.973175"><ele>65.8</ele><time>2022-04-10T08:36:34.000Z</time></trkpt><trkpt lon="5.93277" lat="50.973191"><ele>66</ele><time>2022-04-10T08:36:35.000Z</time></trkpt><trkpt lon="5.932723" lat="50.973206"><ele>66</ele><time>2022-04-10T08:36:36.000Z</time></trkpt><trkpt lon="5.932676" lat="50.973222"><ele>66</ele><time>2022-04-10T08:36:37.000Z</time></trkpt><trkpt lon="5.932629" lat="50.973241"><ele>66</ele><time>2022-04-10T08:36:38.000Z</time></trkpt><trkpt lon="5.932584" lat="50.97326"><ele>66</ele><time>2022-04-10T08:36:39.000Z</time></trkpt><trkpt lon="5.932539" lat="50.97328"><ele>66</ele><time>2022-04-10T08:36:40.000Z</time></trkpt><trkpt lon="5.932494" lat="50.973298"><ele>66</ele><time>2022-04-10T08:36:41.000Z</time></trkpt><trkpt lon="5.932452" lat="50.973313"><ele>66.2</ele><time>2022-04-10T08:36:42.000Z</time></trkpt><trkpt lon="5.93241" lat="50.973329"><ele>66.2</ele><time>2022-04-10T08:36:43.000Z</time></trkpt><trkpt lon="5.932369" lat="50.973347"><ele>66.2</ele><time>2022-04-10T08:36:44.000Z</time></trkpt><trkpt lon="5.932328" lat="50.973362"><ele>66</ele><time>2022-04-10T08:36:45.000Z</time></trkpt><trkpt lon="5.932283" lat="50.973379"><ele>66</ele><time>2022-04-10T08:36:46.000Z</time></trkpt><trkpt lon="5.932235" lat="50.973397"><ele>66</ele><time>2022-04-10T08:36:47.000Z</time></trkpt><trkpt lon="5.93219" lat="50.973411"><ele>66</ele><time>2022-04-10T08:36:48.000Z</time></trkpt><trkpt lon="5.932148" lat="50.973421"><ele>66</ele><time>2022-04-10T08:36:49.000Z</time></trkpt><trkpt lon="5.932108" lat="50.973429"><ele>66.2</ele><time>2022-04-10T08:36:50.000Z</time></trkpt><trkpt lon="5.932069" lat="50.973434"><ele>66.2</ele><time>2022-04-10T08:36:51.000Z</time></trkpt><trkpt lon="5.932029" lat="50.973432"><ele>66.4</ele><time>2022-04-10T08:36:52.000Z</time></trkpt><trkpt lon="5.931989" lat="50.973423"><ele>66.4</ele><time>2022-04-10T08:36:53.000Z</time></trkpt><trkpt lon="5.931954" lat="50.973406"><ele>66.6</ele><time>2022-04-10T08:36:54.000Z</time></trkpt><trkpt lon="5.931911" lat="50.973388"><ele>66.6</ele><time>2022-04-10T08:36:55.000Z</time></trkpt><trkpt lon="5.931859" lat="50.973374"><ele>66.6</ele><time>2022-04-10T08:36:56.000Z</time></trkpt><trkpt lon="5.931799" lat="50.973367"><ele>66.4</ele><time>2022-04-10T08:36:57.000Z</time></trkpt><trkpt lon="5.931734" lat="50.973375"><ele>66.4</ele><time>2022-04-10T08:36:58.000Z</time></trkpt><trkpt lon="5.931673" lat="50.973398"><ele>66.4</ele><time>2022-04-10T08:36:59.000Z</time></trkpt><trkpt lon="5.931611" lat="50.973433"><ele>66.4</ele><time>2022-04-10T08:37:00.000Z</time></trkpt><trkpt lon="5.931551" lat="50.973467"><ele>66.4</ele><time>2022-04-10T08:37:01.000Z</time></trkpt><trkpt lon="5.931489" lat="50.973503"><ele>66.6</ele><time>2022-04-10T08:37:02.000Z</time></trkpt><trkpt lon="5.931424" lat="50.973544"><ele>66.6</ele><time>2022-04-10T08:37:03.000Z</time></trkpt><trkpt lon="5.931361" lat="50.973581"><ele>66.8</ele><time>2022-04-10T08:37:04.000Z</time></trkpt><trkpt lon="5.931297" lat="50.973614"><ele>66.8</ele><time>2022-04-10T08:37:05.000Z</time></trkpt><trkpt lon="5.931236" lat="50.973645"><ele>67</ele><time>2022-04-10T08:37:06.000Z</time></trkpt><trkpt lon="5.931173" lat="50.973681"><ele>67.2</ele><time>2022-04-10T08:37:07.000Z</time></trkpt><trkpt lon="5.931111" lat="50.973715"><ele>67.2</ele><time>2022-04-10T08:37:08.000Z</time></trkpt><trkpt lon="5.931049" lat="50.973749"><ele>67.4</ele><time>2022-04-10T08:37:09.000Z</time></trkpt><trkpt lon="5.930987" lat="50.973783"><ele>67.6</ele><time>2022-04-10T08:37:10.000Z</time></trkpt><trkpt lon="5.930921" lat="50.973819"><ele>67.6</ele><time>2022-04-10T08:37:11.000Z</time></trkpt><trkpt lon="5.930853" lat="50.973857"><ele>67.8</ele><time>2022-04-10T08:37:12.000Z</time></trkpt><trkpt lon="5.930787" lat="50.973895"><ele>68</ele><time>2022-04-10T08:37:13.000Z</time></trkpt><trkpt lon="5.930724" lat="50.973932"><ele>68</ele><time>2022-04-10T08:37:14.000Z</time></trkpt><trkpt lon="5.930658" lat="50.973967"><ele>68</ele><time>2022-04-10T08:37:15.000Z</time></trkpt><trkpt lon="5.93059" lat="50.974006"><ele>68.2</ele><time>2022-04-10T08:37:16.000Z</time></trkpt><trkpt lon="5.93052" lat="50.974044"><ele>68.2</ele><time>2022-04-10T08:37:17.000Z</time></trkpt><trkpt lon="5.930455" lat="50.974082"><ele>68.4</ele><time>2022-04-10T08:37:18.000Z</time></trkpt><trkpt lon="5.930388" lat="50.97412"><ele>68.4</ele><time>2022-04-10T08:37:19.000Z</time></trkpt><trkpt lon="5.93032" lat="50.974158"><ele>68.6</ele><time>2022-04-10T08:37:20.000Z</time></trkpt><trkpt lon="5.930254" lat="50.974197"><ele>68.6</ele><time>2022-04-10T08:37:21.000Z</time></trkpt><trkpt lon="5.930185" lat="50.974234"><ele>68.6</ele><time>2022-04-10T08:37:22.000Z</time></trkpt><trkpt lon="5.930119" lat="50.974269"><ele>68.6</ele><time>2022-04-10T08:37:23.000Z</time></trkpt><trkpt lon="5.930055" lat="50.974305"><ele>68.6</ele><time>2022-04-10T08:37:24.000Z</time></trkpt><trkpt lon="5.929995" lat="50.974337"><ele>68.6</ele><time>2022-04-10T08:37:25.000Z</time></trkpt><trkpt lon="5.929935" lat="50.974374"><ele>68.8</ele><time>2022-04-10T08:37:26.000Z</time></trkpt><trkpt lon="5.929877" lat="50.974403"><ele>69</ele><time>2022-04-10T08:37:27.000Z</time></trkpt><trkpt lon="5.929819" lat="50.974432"><ele>69.2</ele><time>2022-04-10T08:37:28.000Z</time></trkpt><trkpt lon="5.929759" lat="50.974464"><ele>69.4</ele><time>2022-04-10T08:37:29.000Z</time></trkpt><trkpt lon="5.929697" lat="50.974493"><ele>69.4</ele><time>2022-04-10T08:37:30.000Z</time></trkpt><trkpt lon="5.929631" lat="50.974526"><ele>69.6</ele><time>2022-04-10T08:37:31.000Z</time></trkpt><trkpt lon="5.929561" lat="50.974557"><ele>69.8</ele><time>2022-04-10T08:37:32.000Z</time></trkpt><trkpt lon="5.929484" lat="50.974589"><ele>69.8</ele><time>2022-04-10T08:37:33.000Z</time></trkpt><trkpt lon="5.929404" lat="50.974628"><ele>69.8</ele><time>2022-04-10T08:37:34.000Z</time></trkpt><trkpt lon="5.929325" lat="50.974672"><ele>70</ele><time>2022-04-10T08:37:35.000Z</time></trkpt><trkpt lon="5.929252" lat="50.974716"><ele>70</ele><time>2022-04-10T08:37:36.000Z</time></trkpt><trkpt lon="5.92918" lat="50.974758"><ele>70.2</ele><time>2022-04-10T08:37:37.000Z</time></trkpt><trkpt lon="5.929104" lat="50.9748"><ele>70.4</ele><time>2022-04-10T08:37:38.000Z</time></trkpt><trkpt lon="5.929028" lat="50.974841"><ele>70.4</ele><time>2022-04-10T08:37:39.000Z</time></trkpt><trkpt lon="5.928952" lat="50.974878"><ele>70.6</ele><time>2022-04-10T08:37:40.000Z</time></trkpt><trkpt lon="5.928876" lat="50.974913"><ele>70.6</ele><time>2022-04-10T08:37:41.000Z</time></trkpt><trkpt lon="5.928797" lat="50.974952"><ele>70.6</ele><time>2022-04-10T08:37:42.000Z</time></trkpt><trkpt lon="5.928722" lat="50.97499"><ele>70.8</ele><time>2022-04-10T08:37:43.000Z</time></trkpt><trkpt lon="5.928651" lat="50.975028"><ele>71</ele><time>2022-04-10T08:37:44.000Z</time></trkpt><trkpt lon="5.928578" lat="50.97507"><ele>71</ele><time>2022-04-10T08:37:45.000Z</time></trkpt><trkpt lon="5.928506" lat="50.975107"><ele>71</ele><time>2022-04-10T08:37:46.000Z</time></trkpt><trkpt lon="5.928436" lat="50.975142"><ele>71.2</ele><time>2022-04-10T08:37:47.000Z</time></trkpt><trkpt lon="5.928366" lat="50.97518"><ele>71.2</ele><time>2022-04-10T08:37:48.000Z</time></trkpt><trkpt lon="5.928293" lat="50.975218"><ele>71.2</ele><time>2022-04-10T08:37:49.000Z</time></trkpt><trkpt lon="5.928217" lat="50.975252"><ele>71.4</ele><time>2022-04-10T08:37:50.000Z</time></trkpt><trkpt lon="5.928138" lat="50.975287"><ele>71.4</ele><time>2022-04-10T08:37:51.000Z</time></trkpt><trkpt lon="5.928058" lat="50.975326"><ele>71.4</ele><time>2022-04-10T08:37:52.000Z</time></trkpt><trkpt lon="5.92798" lat="50.975363"><ele>71.4</ele><time>2022-04-10T08:37:53.000Z</time></trkpt><trkpt lon="5.9279" lat="50.975398"><ele>71.2</ele><time>2022-04-10T08:37:54.000Z</time></trkpt><trkpt lon="5.927825" lat="50.975435"><ele>71.2</ele><time>2022-04-10T08:37:55.000Z</time></trkpt><trkpt lon="5.927747" lat="50.975471"><ele>71.2</ele><time>2022-04-10T08:37:56.000Z</time></trkpt><trkpt lon="5.927668" lat="50.975508"><ele>71.2</ele><time>2022-04-10T08:37:57.000Z</time></trkpt><trkpt lon="5.927591" lat="50.975545"><ele>71.2</ele><time>2022-04-10T08:37:58.000Z</time></trkpt><trkpt lon="5.927511" lat="50.975589"><ele>71.2</ele><time>2022-04-10T08:37:59.000Z</time></trkpt><trkpt lon="5.927427" lat="50.975626"><ele>71.4</ele><time>2022-04-10T08:38:00.000Z</time></trkpt><trkpt lon="5.927346" lat="50.97566"><ele>71.4</ele><time>2022-04-10T08:38:01.000Z</time></trkpt><trkpt lon="5.927268" lat="50.975692"><ele>71.4</ele><time>2022-04-10T08:38:02.000Z</time></trkpt><trkpt lon="5.927191" lat="50.975722"><ele>71.4</ele><time>2022-04-10T08:38:03.000Z</time></trkpt><trkpt lon="5.927107" lat="50.975758"><ele>71.2</ele><time>2022-04-10T08:38:04.000Z</time></trkpt><trkpt lon="5.927016" lat="50.975791"><ele>71.4</ele><time>2022-04-10T08:38:05.000Z</time></trkpt><trkpt lon="5.926925" lat="50.975829"><ele>71.2</ele><time>2022-04-10T08:38:06.000Z</time></trkpt><trkpt lon="5.926836" lat="50.975868"><ele>71.4</ele><time>2022-04-10T08:38:07.000Z</time></trkpt><trkpt lon="5.926752" lat="50.975907"><ele>71.2</ele><time>2022-04-10T08:38:08.000Z</time></trkpt><trkpt lon="5.926671" lat="50.975951"><ele>71.2</ele><time>2022-04-10T08:38:09.000Z</time></trkpt><trkpt lon="5.926592" lat="50.975999"><ele>71.2</ele><time>2022-04-10T08:38:10.000Z</time></trkpt><trkpt lon="5.926518" lat="50.976047"><ele>71.2</ele><time>2022-04-10T08:38:11.000Z</time></trkpt><trkpt lon="5.926447" lat="50.9761"><ele>71.2</ele><time>2022-04-10T08:38:12.000Z</time></trkpt><trkpt lon="5.926386" lat="50.976149"><ele>71</ele><time>2022-04-10T08:38:13.000Z</time></trkpt><trkpt lon="5.926336" lat="50.976199"><ele>71</ele><time>2022-04-10T08:38:14.000Z</time></trkpt><trkpt lon="5.926299" lat="50.976246"><ele>71</ele><time>2022-04-10T08:38:15.000Z</time></trkpt><trkpt lon="5.926266" lat="50.976286"><ele>71</ele><time>2022-04-10T08:38:16.000Z</time></trkpt><trkpt lon="5.926234" lat="50.97632"><ele>70.8</ele><time>2022-04-10T08:38:17.000Z</time></trkpt><trkpt lon="5.926204" lat="50.976352"><ele>70.8</ele><time>2022-04-10T08:38:18.000Z</time></trkpt><trkpt lon="5.926171" lat="50.976379"><ele>70.8</ele><time>2022-04-10T08:38:19.000Z</time></trkpt><trkpt lon="5.92614" lat="50.976405"><ele>70.8</ele><time>2022-04-10T08:38:20.000Z</time></trkpt><trkpt lon="5.926107" lat="50.976428"><ele>70.8</ele><time>2022-04-10T08:38:21.000Z</time></trkpt><trkpt lon="5.926069" lat="50.976452"><ele>70.6</ele><time>2022-04-10T08:38:22.000Z</time></trkpt><trkpt lon="5.926031" lat="50.976477"><ele>70.6</ele><time>2022-04-10T08:38:23.000Z</time></trkpt><trkpt lon="5.925992" lat="50.976501"><ele>70.6</ele><time>2022-04-10T08:38:24.000Z</time></trkpt><trkpt lon="5.92595" lat="50.976527"><ele>70.4</ele><time>2022-04-10T08:38:25.000Z</time></trkpt><trkpt lon="5.925908" lat="50.97655"><ele>70.4</ele><time>2022-04-10T08:38:26.000Z</time></trkpt><trkpt lon="5.925869" lat="50.976578"><ele>70.4</ele><time>2022-04-10T08:38:27.000Z</time></trkpt><trkpt lon="5.925834" lat="50.97661"><ele>70.4</ele><time>2022-04-10T08:38:28.000Z</time></trkpt><trkpt lon="5.925812" lat="50.976645"><ele>70.2</ele><time>2022-04-10T08:38:29.000Z</time></trkpt><trkpt lon="5.925803" lat="50.97668"><ele>70.2</ele><time>2022-04-10T08:38:30.000Z</time></trkpt><trkpt lon="5.925805" lat="50.976718"><ele>70.2</ele><time>2022-04-10T08:38:31.000Z</time></trkpt><trkpt lon="5.925818" lat="50.976755"><ele>70</ele><time>2022-04-10T08:38:32.000Z</time></trkpt><trkpt lon="5.925835" lat="50.976791"><ele>69.8</ele><time>2022-04-10T08:38:33.000Z</time></trkpt><trkpt lon="5.925853" lat="50.976835"><ele>69.6</ele><time>2022-04-10T08:38:34.000Z</time></trkpt><trkpt lon="5.92587" lat="50.976886"><ele>69.4</ele><time>2022-04-10T08:38:35.000Z</time></trkpt><trkpt lon="5.925883" lat="50.976942"><ele>69.2</ele><time>2022-04-10T08:38:36.000Z</time></trkpt><trkpt lon="5.925893" lat="50.977004"><ele>68.8</ele><time>2022-04-10T08:38:37.000Z</time></trkpt><trkpt lon="5.925892" lat="50.977073"><ele>68.6</ele><time>2022-04-10T08:38:38.000Z</time></trkpt><trkpt lon="5.925879" lat="50.977142"><ele>68.4</ele><time>2022-04-10T08:38:39.000Z</time></trkpt><trkpt lon="5.925854" lat="50.977207"><ele>68.2</ele><time>2022-04-10T08:38:40.000Z</time></trkpt><trkpt lon="5.925819" lat="50.977275"><ele>68</ele><time>2022-04-10T08:38:41.000Z</time></trkpt><trkpt lon="5.925776" lat="50.97734"><ele>68</ele><time>2022-04-10T08:38:42.000Z</time></trkpt><trkpt lon="5.925732" lat="50.977405"><ele>67.8</ele><time>2022-04-10T08:38:43.000Z</time></trkpt><trkpt lon="5.925688" lat="50.977467"><ele>67.6</ele><time>2022-04-10T08:38:44.000Z</time></trkpt><trkpt lon="5.925644" lat="50.977525"><ele>67.6</ele><time>2022-04-10T08:38:45.000Z</time></trkpt><trkpt lon="5.925598" lat="50.977585"><ele>67.4</ele><time>2022-04-10T08:38:46.000Z</time></trkpt><trkpt lon="5.925552" lat="50.977641"><ele>67.4</ele><time>2022-04-10T08:38:47.000Z</time></trkpt><trkpt lon="5.925502" lat="50.977697"><ele>67.2</ele><time>2022-04-10T08:38:48.000Z</time></trkpt><trkpt lon="5.925451" lat="50.977758"><ele>67</ele><time>2022-04-10T08:38:49.000Z</time></trkpt><trkpt lon="5.925399" lat="50.977819"><ele>66.8</ele><time>2022-04-10T08:38:50.000Z</time></trkpt><trkpt lon="5.925349" lat="50.977879"><ele>66.6</ele><time>2022-04-10T08:38:51.000Z</time></trkpt><trkpt lon="5.925297" lat="50.977935"><ele>66.6</ele><time>2022-04-10T08:38:52.000Z</time></trkpt><trkpt lon="5.925246" lat="50.977989"><ele>66.4</ele><time>2022-04-10T08:38:53.000Z</time></trkpt><trkpt lon="5.925194" lat="50.978041"><ele>66.2</ele><time>2022-04-10T08:38:54.000Z</time></trkpt><trkpt lon="5.925139" lat="50.978093"><ele>66.2</ele><time>2022-04-10T08:38:55.000Z</time></trkpt><trkpt lon="5.925081" lat="50.978143"><ele>66.2</ele><time>2022-04-10T08:38:56.000Z</time></trkpt><trkpt lon="5.925022" lat="50.978193"><ele>66.2</ele><time>2022-04-10T08:38:57.000Z</time></trkpt><trkpt lon="5.924956" lat="50.978244"><ele>66.2</ele><time>2022-04-10T08:38:58.000Z</time></trkpt><trkpt lon="5.924892" lat="50.978292"><ele>66</ele><time>2022-04-10T08:38:59.000Z</time></trkpt><trkpt lon="5.924826" lat="50.978337"><ele>66</ele><time>2022-04-10T08:39:00.000Z</time></trkpt><trkpt lon="5.924755" lat="50.978383"><ele>65.8</ele><time>2022-04-10T08:39:01.000Z</time></trkpt><trkpt lon="5.924686" lat="50.978429"><ele>65.8</ele><time>2022-04-10T08:39:02.000Z</time></trkpt><trkpt lon="5.924617" lat="50.978475"><ele>65.8</ele><time>2022-04-10T08:39:03.000Z</time></trkpt><trkpt lon="5.924548" lat="50.978521"><ele>65.8</ele><time>2022-04-10T08:39:04.000Z</time></trkpt><trkpt lon="5.92448" lat="50.978567"><ele>65.6</ele><time>2022-04-10T08:39:05.000Z</time></trkpt><trkpt lon="5.924416" lat="50.978611"><ele>65.6</ele><time>2022-04-10T08:39:06.000Z</time></trkpt><trkpt lon="5.924352" lat="50.978654"><ele>65.6</ele><time>2022-04-10T08:39:07.000Z</time></trkpt><trkpt lon="5.924289" lat="50.9787"><ele>65.6</ele><time>2022-04-10T08:39:08.000Z</time></trkpt><trkpt lon="5.924225" lat="50.978746"><ele>65.6</ele><time>2022-04-10T08:39:09.000Z</time></trkpt><trkpt lon="5.92416" lat="50.978791"><ele>65.6</ele><time>2022-04-10T08:39:10.000Z</time></trkpt><trkpt lon="5.924092" lat="50.978836"><ele>65.6</ele><time>2022-04-10T08:39:11.000Z</time></trkpt><trkpt lon="5.924021" lat="50.97888"><ele>65.6</ele><time>2022-04-10T08:39:12.000Z</time></trkpt><trkpt lon="5.923948" lat="50.978929"><ele>65.6</ele><time>2022-04-10T08:39:13.000Z</time></trkpt><trkpt lon="5.923874" lat="50.978974"><ele>65.4</ele><time>2022-04-10T08:39:14.000Z</time></trkpt><trkpt lon="5.9238" lat="50.97902"><ele>65.4</ele><time>2022-04-10T08:39:15.000Z</time></trkpt><trkpt lon="5.923729" lat="50.979067"><ele>65.4</ele><time>2022-04-10T08:39:16.000Z</time></trkpt><trkpt lon="5.923656" lat="50.979116"><ele>65.2</ele><time>2022-04-10T08:39:17.000Z</time></trkpt><trkpt lon="5.923583" lat="50.979167"><ele>65.2</ele><time>2022-04-10T08:39:18.000Z</time></trkpt><trkpt lon="5.92351" lat="50.979215"><ele>65.4</ele><time>2022-04-10T08:39:19.000Z</time></trkpt><trkpt lon="5.92344" lat="50.979261"><ele>65.2</ele><time>2022-04-10T08:39:20.000Z</time></trkpt><trkpt lon="5.923369" lat="50.97931"><ele>65.2</ele><time>2022-04-10T08:39:21.000Z</time></trkpt><trkpt lon="5.923295" lat="50.979357"><ele>65.2</ele><time>2022-04-10T08:39:22.000Z</time></trkpt><trkpt lon="5.923221" lat="50.979408"><ele>65.2</ele><time>2022-04-10T08:39:23.000Z</time></trkpt><trkpt lon="5.923147" lat="50.979462"><ele>65.4</ele><time>2022-04-10T08:39:24.000Z</time></trkpt><trkpt lon="5.923071" lat="50.979515"><ele>65.2</ele><time>2022-04-10T08:39:25.000Z</time></trkpt><trkpt lon="5.92299" lat="50.979568"><ele>65.2</ele><time>2022-04-10T08:39:26.000Z</time></trkpt><trkpt lon="5.922907" lat="50.97962"><ele>65.2</ele><time>2022-04-10T08:39:27.000Z</time></trkpt><trkpt lon="5.922823" lat="50.97967"><ele>65.2</ele><time>2022-04-10T08:39:28.000Z</time></trkpt><trkpt lon="5.922738" lat="50.979719"><ele>65.2</ele><time>2022-04-10T08:39:29.000Z</time></trkpt><trkpt lon="5.922654" lat="50.979769"><ele>65</ele><time>2022-04-10T08:39:30.000Z</time></trkpt><trkpt lon="5.922571" lat="50.979818"><ele>65</ele><time>2022-04-10T08:39:31.000Z</time></trkpt><trkpt lon="5.922486" lat="50.979868"><ele>65</ele><time>2022-04-10T08:39:32.000Z</time></trkpt><trkpt lon="5.922403" lat="50.979917"><ele>64.8</ele><time>2022-04-10T08:39:33.000Z</time></trkpt><trkpt lon="5.92232" lat="50.979967"><ele>64.6</ele><time>2022-04-10T08:39:34.000Z</time></trkpt><trkpt lon="5.922237" lat="50.980017"><ele>64.6</ele><time>2022-04-10T08:39:35.000Z</time></trkpt><trkpt lon="5.922155" lat="50.980067"><ele>64.6</ele><time>2022-04-10T08:39:36.000Z</time></trkpt><trkpt lon="5.922071" lat="50.980115"><ele>64.6</ele><time>2022-04-10T08:39:37.000Z</time></trkpt><trkpt lon="5.921987" lat="50.980162"><ele>64.4</ele><time>2022-04-10T08:39:38.000Z</time></trkpt><trkpt lon="5.921902" lat="50.98021"><ele>64.4</ele><time>2022-04-10T08:39:39.000Z</time></trkpt><trkpt lon="5.921817" lat="50.980257"><ele>64.4</ele><time>2022-04-10T08:39:40.000Z</time></trkpt><trkpt lon="5.921731" lat="50.980306"><ele>64.4</ele><time>2022-04-10T08:39:41.000Z</time></trkpt><trkpt lon="5.921647" lat="50.980352"><ele>64.6</ele><time>2022-04-10T08:39:42.000Z</time></trkpt><trkpt lon="5.921564" lat="50.980396"><ele>64.6</ele><time>2022-04-10T08:39:43.000Z</time></trkpt><trkpt lon="5.92148" lat="50.980438"><ele>64.4</ele><time>2022-04-10T08:39:44.000Z</time></trkpt><trkpt lon="5.921393" lat="50.980479"><ele>64.4</ele><time>2022-04-10T08:39:45.000Z</time></trkpt><trkpt lon="5.921309" lat="50.980519"><ele>64.4</ele><time>2022-04-10T08:39:46.000Z</time></trkpt><trkpt lon="5.921226" lat="50.980559"><ele>64.4</ele><time>2022-04-10T08:39:47.000Z</time></trkpt><trkpt lon="5.921143" lat="50.980597"><ele>64.6</ele><time>2022-04-10T08:39:48.000Z</time></trkpt><trkpt lon="5.921057" lat="50.980635"><ele>64.6</ele><time>2022-04-10T08:39:49.000Z</time></trkpt><trkpt lon="5.920972" lat="50.98067"><ele>64.6</ele><time>2022-04-10T08:39:50.000Z</time></trkpt><trkpt lon="5.920884" lat="50.980708"><ele>64.6</ele><time>2022-04-10T08:39:51.000Z</time></trkpt><trkpt lon="5.920794" lat="50.980745"><ele>64.6</ele><time>2022-04-10T08:39:52.000Z</time></trkpt><trkpt lon="5.920702" lat="50.980779"><ele>64.6</ele><time>2022-04-10T08:39:53.000Z</time></trkpt><trkpt lon="5.920611" lat="50.980812"><ele>64.6</ele><time>2022-04-10T08:39:54.000Z</time></trkpt><trkpt lon="5.92052" lat="50.980839"><ele>64.6</ele><time>2022-04-10T08:39:55.000Z</time></trkpt><trkpt lon="5.920404" lat="50.980869"><ele>64.6</ele><time>2022-04-10T08:39:56.000Z</time></trkpt><trkpt lon="5.9203" lat="50.980895"><ele>64.4</ele><time>2022-04-10T08:39:57.000Z</time></trkpt><trkpt lon="5.920196" lat="50.980921"><ele>64.4</ele><time>2022-04-10T08:39:58.000Z</time></trkpt><trkpt lon="5.920089" lat="50.980943"><ele>64.4</ele><time>2022-04-10T08:39:59.000Z</time></trkpt><trkpt lon="5.919983" lat="50.980963"><ele>64.2</ele><time>2022-04-10T08:40:00.000Z</time></trkpt><trkpt lon="5.919879" lat="50.980985"><ele>64.2</ele><time>2022-04-10T08:40:01.000Z</time></trkpt><trkpt lon="5.919775" lat="50.981004"><ele>64.2</ele><time>2022-04-10T08:40:02.000Z</time></trkpt><trkpt lon="5.919665" lat="50.981023"><ele>64.2</ele><time>2022-04-10T08:40:03.000Z</time></trkpt><trkpt lon="5.919561" lat="50.981044"><ele>64.2</ele><time>2022-04-10T08:40:04.000Z</time></trkpt><trkpt lon="5.919457" lat="50.981064"><ele>64.4</ele><time>2022-04-10T08:40:05.000Z</time></trkpt><trkpt lon="5.919355" lat="50.981081"><ele>64.4</ele><time>2022-04-10T08:40:06.000Z</time></trkpt><trkpt lon="5.919253" lat="50.9811"><ele>64.4</ele><time>2022-04-10T08:40:07.000Z</time></trkpt><trkpt lon="5.919151" lat="50.981119"><ele>64.6</ele><time>2022-04-10T08:40:08.000Z</time></trkpt><trkpt lon="5.919048" lat="50.981138"><ele>64.6</ele><time>2022-04-10T08:40:09.000Z</time></trkpt><trkpt lon="5.918942" lat="50.981156"><ele>64.4</ele><time>2022-04-10T08:40:10.000Z</time></trkpt><trkpt lon="5.918836" lat="50.981171"><ele>64.6</ele><time>2022-04-10T08:40:11.000Z</time></trkpt><trkpt lon="5.918727" lat="50.981186"><ele>64.4</ele><time>2022-04-10T08:40:12.000Z</time></trkpt><trkpt lon="5.918621" lat="50.981202"><ele>64.4</ele><time>2022-04-10T08:40:13.000Z</time></trkpt><trkpt lon="5.918518" lat="50.981217"><ele>64.6</ele><time>2022-04-10T08:40:14.000Z</time></trkpt><trkpt lon="5.918418" lat="50.981231"><ele>64.6</ele><time>2022-04-10T08:40:15.000Z</time></trkpt><trkpt lon="5.918319" lat="50.981244"><ele>64.8</ele><time>2022-04-10T08:40:16.000Z</time></trkpt><trkpt lon="5.91822" lat="50.981259"><ele>64.8</ele><time>2022-04-10T08:40:17.000Z</time></trkpt><trkpt lon="5.918117" lat="50.981273"><ele>64.8</ele><time>2022-04-10T08:40:18.000Z</time></trkpt><trkpt lon="5.918015" lat="50.981284"><ele>64.8</ele><time>2022-04-10T08:40:19.000Z</time></trkpt><trkpt lon="5.917912" lat="50.981296"><ele>64.8</ele><time>2022-04-10T08:40:20.000Z</time></trkpt><trkpt lon="5.917804" lat="50.981309"><ele>64.8</ele><time>2022-04-10T08:40:21.000Z</time></trkpt><trkpt lon="5.917702" lat="50.981324"><ele>64.6</ele><time>2022-04-10T08:40:22.000Z</time></trkpt><trkpt lon="5.917604" lat="50.981339"><ele>64.6</ele><time>2022-04-10T08:40:23.000Z</time></trkpt><trkpt lon="5.917505" lat="50.981354"><ele>64.6</ele><time>2022-04-10T08:40:24.000Z</time></trkpt><trkpt lon="5.917408" lat="50.98137"><ele>64.6</ele><time>2022-04-10T08:40:25.000Z</time></trkpt><trkpt lon="5.917313" lat="50.981387"><ele>64.6</ele><time>2022-04-10T08:40:26.000Z</time></trkpt><trkpt lon="5.917221" lat="50.981409"><ele>64.6</ele><time>2022-04-10T08:40:27.000Z</time></trkpt><trkpt lon="5.917131" lat="50.981431"><ele>64.4</ele><time>2022-04-10T08:40:28.000Z</time></trkpt><trkpt lon="5.917045" lat="50.981451"><ele>64.4</ele><time>2022-04-10T08:40:29.000Z</time></trkpt><trkpt lon="5.916966" lat="50.981471"><ele>64.4</ele><time>2022-04-10T08:40:30.000Z</time></trkpt><trkpt lon="5.916892" lat="50.981494"><ele>64.2</ele><time>2022-04-10T08:40:31.000Z</time></trkpt><trkpt lon="5.916822" lat="50.981515"><ele>64</ele><time>2022-04-10T08:40:32.000Z</time></trkpt><trkpt lon="5.91676" lat="50.981534"><ele>64</ele><time>2022-04-10T08:40:33.000Z</time></trkpt><trkpt lon="5.916704" lat="50.981554"><ele>63.8</ele><time>2022-04-10T08:40:34.000Z</time></trkpt><trkpt lon="5.916656" lat="50.981571"><ele>63.6</ele><time>2022-04-10T08:40:35.000Z</time></trkpt><trkpt lon="5.916614" lat="50.981583"><ele>63.6</ele><time>2022-04-10T08:40:36.000Z</time></trkpt><trkpt lon="5.916576" lat="50.9816"><ele>63.4</ele><time>2022-04-10T08:40:37.000Z</time></trkpt><trkpt lon="5.91654" lat="50.981623"><ele>63.4</ele><time>2022-04-10T08:40:38.000Z</time></trkpt><trkpt lon="5.916524" lat="50.981651"><ele>63.2</ele><time>2022-04-10T08:40:39.000Z</time></trkpt><trkpt lon="5.916539" lat="50.981694"><ele>63.2</ele><time>2022-04-10T08:40:40.000Z</time></trkpt><trkpt lon="5.916572" lat="50.98174"><ele>63</ele><time>2022-04-10T08:40:41.000Z</time></trkpt><trkpt lon="5.916614" lat="50.981791"><ele>62.8</ele><time>2022-04-10T08:40:42.000Z</time></trkpt><trkpt lon="5.916664" lat="50.981845"><ele>62.6</ele><time>2022-04-10T08:40:43.000Z</time></trkpt><trkpt lon="5.916713" lat="50.9819"><ele>62.2</ele><time>2022-04-10T08:40:44.000Z</time></trkpt><trkpt lon="5.91676" lat="50.981957"><ele>62</ele><time>2022-04-10T08:40:45.000Z</time></trkpt><trkpt lon="5.916807" lat="50.982013"><ele>62</ele><time>2022-04-10T08:40:46.000Z</time></trkpt><trkpt lon="5.916856" lat="50.982066"><ele>61.8</ele><time>2022-04-10T08:40:47.000Z</time></trkpt><trkpt lon="5.916904" lat="50.982121"><ele>61.8</ele><time>2022-04-10T08:40:48.000Z</time></trkpt><trkpt lon="5.916946" lat="50.982179"><ele>61.8</ele><time>2022-04-10T08:40:49.000Z</time></trkpt><trkpt lon="5.916988" lat="50.982241"><ele>61.6</ele><time>2022-04-10T08:40:50.000Z</time></trkpt><trkpt lon="5.917034" lat="50.982306"><ele>61.4</ele><time>2022-04-10T08:40:51.000Z</time></trkpt><trkpt lon="5.917084" lat="50.98237"><ele>61.2</ele><time>2022-04-10T08:40:52.000Z</time></trkpt><trkpt lon="5.917133" lat="50.982431"><ele>61</ele><time>2022-04-10T08:40:53.000Z</time></trkpt><trkpt lon="5.917187" lat="50.982494"><ele>60.8</ele><time>2022-04-10T08:40:54.000Z</time></trkpt><trkpt lon="5.917245" lat="50.982558"><ele>60.6</ele><time>2022-04-10T08:40:55.000Z</time></trkpt><trkpt lon="5.917305" lat="50.982622"><ele>60.6</ele><time>2022-04-10T08:40:56.000Z</time></trkpt><trkpt lon="5.917368" lat="50.982686"><ele>60.2</ele><time>2022-04-10T08:40:57.000Z</time></trkpt><trkpt lon="5.917433" lat="50.982743"><ele>60.2</ele><time>2022-04-10T08:40:58.000Z</time></trkpt><trkpt lon="5.917505" lat="50.982799"><ele>60</ele><time>2022-04-10T08:40:59.000Z</time></trkpt><trkpt lon="5.917588" lat="50.982852"><ele>59.8</ele><time>2022-04-10T08:41:00.000Z</time></trkpt><trkpt lon="5.917674" lat="50.9829"><ele>59.8</ele><time>2022-04-10T08:41:01.000Z</time></trkpt><trkpt lon="5.917765" lat="50.982944"><ele>59.4</ele><time>2022-04-10T08:41:02.000Z</time></trkpt><trkpt lon="5.917863" lat="50.982985"><ele>59.4</ele><time>2022-04-10T08:41:03.000Z</time></trkpt><trkpt lon="5.917964" lat="50.983024"><ele>59.2</ele><time>2022-04-10T08:41:04.000Z</time></trkpt><trkpt lon="5.918067" lat="50.983068"><ele>59.2</ele><time>2022-04-10T08:41:05.000Z</time></trkpt><trkpt lon="5.918167" lat="50.983114"><ele>59.2</ele><time>2022-04-10T08:41:06.000Z</time></trkpt><trkpt lon="5.918261" lat="50.983159"><ele>59</ele><time>2022-04-10T08:41:07.000Z</time></trkpt><trkpt lon="5.918347" lat="50.983205"><ele>59</ele><time>2022-04-10T08:41:08.000Z</time></trkpt><trkpt lon="5.918429" lat="50.983253"><ele>59</ele><time>2022-04-10T08:41:09.000Z</time></trkpt><trkpt lon="5.918509" lat="50.983306"><ele>59</ele><time>2022-04-10T08:41:10.000Z</time></trkpt><trkpt lon="5.918582" lat="50.983361"><ele>58.8</ele><time>2022-04-10T08:41:11.000Z</time></trkpt><trkpt lon="5.918646" lat="50.983419"><ele>58.8</ele><time>2022-04-10T08:41:12.000Z</time></trkpt><trkpt lon="5.918702" lat="50.983479"><ele>58.6</ele><time>2022-04-10T08:41:13.000Z</time></trkpt><trkpt lon="5.918748" lat="50.983537"><ele>58.4</ele><time>2022-04-10T08:41:14.000Z</time></trkpt><trkpt lon="5.918789" lat="50.983596"><ele>58.4</ele><time>2022-04-10T08:41:15.000Z</time></trkpt><trkpt lon="5.918834" lat="50.983654"><ele>58.4</ele><time>2022-04-10T08:41:16.000Z</time></trkpt><trkpt lon="5.918873" lat="50.983715"><ele>58.4</ele><time>2022-04-10T08:41:17.000Z</time></trkpt><trkpt lon="5.918895" lat="50.983785"><ele>58.4</ele><time>2022-04-10T08:41:18.000Z</time></trkpt><trkpt lon="5.918908" lat="50.983859"><ele>58.4</ele><time>2022-04-10T08:41:19.000Z</time></trkpt><trkpt lon="5.918919" lat="50.983936"><ele>58.2</ele><time>2022-04-10T08:41:20.000Z</time></trkpt><trkpt lon="5.918929" lat="50.984016"><ele>58.2</ele><time>2022-04-10T08:41:21.000Z</time></trkpt><trkpt lon="5.918938" lat="50.984095"><ele>58</ele><time>2022-04-10T08:41:22.000Z</time></trkpt><trkpt lon="5.918947" lat="50.984176"><ele>57.8</ele><time>2022-04-10T08:41:23.000Z</time></trkpt><trkpt lon="5.918953" lat="50.984256"><ele>57.6</ele><time>2022-04-10T08:41:24.000Z</time></trkpt><trkpt lon="5.91896" lat="50.984334"><ele>57.4</ele><time>2022-04-10T08:41:25.000Z</time></trkpt><trkpt lon="5.918967" lat="50.984409"><ele>57.4</ele><time>2022-04-10T08:41:26.000Z</time></trkpt><trkpt lon="5.918973" lat="50.984483"><ele>57.2</ele><time>2022-04-10T08:41:27.000Z</time></trkpt><trkpt lon="5.918981" lat="50.984545"><ele>57</ele><time>2022-04-10T08:41:28.000Z</time></trkpt><trkpt lon="5.918989" lat="50.984637"><ele>56.8</ele><time>2022-04-10T08:41:29.000Z</time></trkpt><trkpt lon="5.918997" lat="50.984712"><ele>56.8</ele><time>2022-04-10T08:41:30.000Z</time></trkpt><trkpt lon="5.919004" lat="50.984789"><ele>56.8</ele><time>2022-04-10T08:41:31.000Z</time></trkpt><trkpt lon="5.919014" lat="50.984866"><ele>56.8</ele><time>2022-04-10T08:41:32.000Z</time></trkpt><trkpt lon="5.919025" lat="50.984945"><ele>56.6</ele><time>2022-04-10T08:41:33.000Z</time></trkpt><trkpt lon="5.919036" lat="50.985022"><ele>56.6</ele><time>2022-04-10T08:41:34.000Z</time></trkpt><trkpt lon="5.919047" lat="50.985098"><ele>56.6</ele><time>2022-04-10T08:41:35.000Z</time></trkpt><trkpt lon="5.919059" lat="50.985176"><ele>56.6</ele><time>2022-04-10T08:41:36.000Z</time></trkpt><trkpt lon="5.919073" lat="50.985255"><ele>56.4</ele><time>2022-04-10T08:41:37.000Z</time></trkpt><trkpt lon="5.919087" lat="50.985331"><ele>56.4</ele><time>2022-04-10T08:41:38.000Z</time></trkpt><trkpt lon="5.919103" lat="50.985408"><ele>56.4</ele><time>2022-04-10T08:41:39.000Z</time></trkpt><trkpt lon="5.91912" lat="50.985484"><ele>56.2</ele><time>2022-04-10T08:41:40.000Z</time></trkpt><trkpt lon="5.919137" lat="50.985562"><ele>56.2</ele><time>2022-04-10T08:41:41.000Z</time></trkpt><trkpt lon="5.919155" lat="50.985645"><ele>56</ele><time>2022-04-10T08:41:42.000Z</time></trkpt><trkpt lon="5.919174" lat="50.985724"><ele>56</ele><time>2022-04-10T08:41:43.000Z</time></trkpt><trkpt lon="5.919196" lat="50.985804"><ele>56</ele><time>2022-04-10T08:41:44.000Z</time></trkpt><trkpt lon="5.919218" lat="50.985889"><ele>56</ele><time>2022-04-10T08:41:45.000Z</time></trkpt><trkpt lon="5.91924" lat="50.985969"><ele>56</ele><time>2022-04-10T08:41:46.000Z</time></trkpt><trkpt lon="5.919263" lat="50.986047"><ele>56</ele><time>2022-04-10T08:41:47.000Z</time></trkpt><trkpt lon="5.919288" lat="50.986122"><ele>56</ele><time>2022-04-10T08:41:48.000Z</time></trkpt><trkpt lon="5.919314" lat="50.986199"><ele>55.8</ele><time>2022-04-10T08:41:49.000Z</time></trkpt><trkpt lon="5.919341" lat="50.986272"><ele>55.6</ele><time>2022-04-10T08:41:50.000Z</time></trkpt><trkpt lon="5.91937" lat="50.986345"><ele>55.6</ele><time>2022-04-10T08:41:51.000Z</time></trkpt><trkpt lon="5.9194" lat="50.986421"><ele>55.6</ele><time>2022-04-10T08:41:52.000Z</time></trkpt><trkpt lon="5.91943" lat="50.986493"><ele>55.6</ele><time>2022-04-10T08:41:53.000Z</time></trkpt><trkpt lon="5.919462" lat="50.986565"><ele>55.6</ele><time>2022-04-10T08:41:54.000Z</time></trkpt><trkpt lon="5.919493" lat="50.986636"><ele>55.6</ele><time>2022-04-10T08:41:55.000Z</time></trkpt><trkpt lon="5.919525" lat="50.986706"><ele>55.6</ele><time>2022-04-10T08:41:56.000Z</time></trkpt><trkpt lon="5.919558" lat="50.986775"><ele>55.6</ele><time>2022-04-10T08:41:57.000Z</time></trkpt><trkpt lon="5.919591" lat="50.986845"><ele>55.6</ele><time>2022-04-10T08:41:58.000Z</time></trkpt><trkpt lon="5.919626" lat="50.986915"><ele>55.6</ele><time>2022-04-10T08:41:59.000Z</time></trkpt><trkpt lon="5.919662" lat="50.986984"><ele>55.4</ele><time>2022-04-10T08:42:00.000Z</time></trkpt><trkpt lon="5.919698" lat="50.987051"><ele>55.4</ele><time>2022-04-10T08:42:01.000Z</time></trkpt><trkpt lon="5.919733" lat="50.987117"><ele>55.2</ele><time>2022-04-10T08:42:02.000Z</time></trkpt><trkpt lon="5.919769" lat="50.987183"><ele>55</ele><time>2022-04-10T08:42:03.000Z</time></trkpt><trkpt lon="5.919807" lat="50.987251"><ele>55</ele><time>2022-04-10T08:42:04.000Z</time></trkpt><trkpt lon="5.919847" lat="50.987319"><ele>55</ele><time>2022-04-10T08:42:05.000Z</time></trkpt><trkpt lon="5.919888" lat="50.987385"><ele>55</ele><time>2022-04-10T08:42:06.000Z</time></trkpt><trkpt lon="5.919929" lat="50.987453"><ele>55</ele><time>2022-04-10T08:42:07.000Z</time></trkpt><trkpt lon="5.919973" lat="50.987517"><ele>54.8</ele><time>2022-04-10T08:42:08.000Z</time></trkpt><trkpt lon="5.920018" lat="50.987581"><ele>54.8</ele><time>2022-04-10T08:42:09.000Z</time></trkpt><trkpt lon="5.920068" lat="50.987642"><ele>54.6</ele><time>2022-04-10T08:42:10.000Z</time></trkpt><trkpt lon="5.920122" lat="50.987708"><ele>54.6</ele><time>2022-04-10T08:42:11.000Z</time></trkpt><trkpt lon="5.920174" lat="50.987772"><ele>54.6</ele><time>2022-04-10T08:42:12.000Z</time></trkpt><trkpt lon="5.920225" lat="50.987836"><ele>54.6</ele><time>2022-04-10T08:42:13.000Z</time></trkpt><trkpt lon="5.920275" lat="50.987903"><ele>54.6</ele><time>2022-04-10T08:42:14.000Z</time></trkpt><trkpt lon="5.920323" lat="50.987972"><ele>54.4</ele><time>2022-04-10T08:42:15.000Z</time></trkpt><trkpt lon="5.92037" lat="50.988036"><ele>54.4</ele><time>2022-04-10T08:42:16.000Z</time></trkpt><trkpt lon="5.920418" lat="50.988101"><ele>54.2</ele><time>2022-04-10T08:42:17.000Z</time></trkpt><trkpt lon="5.920468" lat="50.988166"><ele>54.2</ele><time>2022-04-10T08:42:18.000Z</time></trkpt><trkpt lon="5.92052" lat="50.988231"><ele>54.2</ele><time>2022-04-10T08:42:19.000Z</time></trkpt><trkpt lon="5.920571" lat="50.988294"><ele>54.2</ele><time>2022-04-10T08:42:20.000Z</time></trkpt><trkpt lon="5.920625" lat="50.988356"><ele>54</ele><time>2022-04-10T08:42:21.000Z</time></trkpt><trkpt lon="5.92068" lat="50.988421"><ele>54</ele><time>2022-04-10T08:42:22.000Z</time></trkpt><trkpt lon="5.920734" lat="50.988486"><ele>54</ele><time>2022-04-10T08:42:23.000Z</time></trkpt><trkpt lon="5.920789" lat="50.98855"><ele>54</ele><time>2022-04-10T08:42:24.000Z</time></trkpt><trkpt lon="5.920845" lat="50.988611"><ele>53.8</ele><time>2022-04-10T08:42:25.000Z</time></trkpt><trkpt lon="5.920903" lat="50.988673"><ele>53.8</ele><time>2022-04-10T08:42:26.000Z</time></trkpt><trkpt lon="5.920962" lat="50.988738"><ele>53.8</ele><time>2022-04-10T08:42:27.000Z</time></trkpt><trkpt lon="5.921019" lat="50.988802"><ele>53.8</ele><time>2022-04-10T08:42:28.000Z</time></trkpt><trkpt lon="5.921078" lat="50.988863"><ele>53.6</ele><time>2022-04-10T08:42:29.000Z</time></trkpt><trkpt lon="5.921138" lat="50.988924"><ele>53.4</ele><time>2022-04-10T08:42:30.000Z</time></trkpt><trkpt lon="5.921198" lat="50.988985"><ele>53.4</ele><time>2022-04-10T08:42:31.000Z</time></trkpt><trkpt lon="5.921259" lat="50.989045"><ele>53.4</ele><time>2022-04-10T08:42:32.000Z</time></trkpt><trkpt lon="5.921319" lat="50.989102"><ele>53.4</ele><time>2022-04-10T08:42:33.000Z</time></trkpt><trkpt lon="5.921379" lat="50.98916"><ele>53.4</ele><time>2022-04-10T08:42:34.000Z</time></trkpt><trkpt lon="5.92144" lat="50.989216"><ele>53.4</ele><time>2022-04-10T08:42:35.000Z</time></trkpt><trkpt lon="5.921501" lat="50.989273"><ele>53.2</ele><time>2022-04-10T08:42:36.000Z</time></trkpt><trkpt lon="5.921563" lat="50.98933"><ele>53.4</ele><time>2022-04-10T08:42:37.000Z</time></trkpt><trkpt lon="5.921626" lat="50.989388"><ele>53.2</ele><time>2022-04-10T08:42:38.000Z</time></trkpt><trkpt lon="5.921689" lat="50.989445"><ele>53.2</ele><time>2022-04-10T08:42:39.000Z</time></trkpt><trkpt lon="5.921752" lat="50.989503"><ele>53.2</ele><time>2022-04-10T08:42:40.000Z</time></trkpt><trkpt lon="5.921816" lat="50.989561"><ele>53.2</ele><time>2022-04-10T08:42:41.000Z</time></trkpt><trkpt lon="5.921877" lat="50.989619"><ele>53.2</ele><time>2022-04-10T08:42:42.000Z</time></trkpt><trkpt lon="5.921941" lat="50.989674"><ele>53.2</ele><time>2022-04-10T08:42:43.000Z</time></trkpt><trkpt lon="5.922007" lat="50.989732"><ele>53</ele><time>2022-04-10T08:42:44.000Z</time></trkpt><trkpt lon="5.922072" lat="50.989789"><ele>52.8</ele><time>2022-04-10T08:42:45.000Z</time></trkpt><trkpt lon="5.922138" lat="50.989846"><ele>52.8</ele><time>2022-04-10T08:42:46.000Z</time></trkpt><trkpt lon="5.922202" lat="50.989903"><ele>52.8</ele><time>2022-04-10T08:42:47.000Z</time></trkpt><trkpt lon="5.922265" lat="50.989959"><ele>52.6</ele><time>2022-04-10T08:42:48.000Z</time></trkpt><trkpt lon="5.92233" lat="50.990017"><ele>52.4</ele><time>2022-04-10T08:42:49.000Z</time></trkpt><trkpt lon="5.922393" lat="50.990071"><ele>52.4</ele><time>2022-04-10T08:42:50.000Z</time></trkpt><trkpt lon="5.922458" lat="50.990128"><ele>52.4</ele><time>2022-04-10T08:42:51.000Z</time></trkpt><trkpt lon="5.922524" lat="50.990185"><ele>52.2</ele><time>2022-04-10T08:42:52.000Z</time></trkpt><trkpt lon="5.922591" lat="50.990243"><ele>52.2</ele><time>2022-04-10T08:42:53.000Z</time></trkpt><trkpt lon="5.922659" lat="50.990304"><ele>52.2</ele><time>2022-04-10T08:42:54.000Z</time></trkpt><trkpt lon="5.922727" lat="50.990361"><ele>52.2</ele><time>2022-04-10T08:42:55.000Z</time></trkpt><trkpt lon="5.922794" lat="50.990419"><ele>52</ele><time>2022-04-10T08:42:56.000Z</time></trkpt><trkpt lon="5.922862" lat="50.990479"><ele>52</ele><time>2022-04-10T08:42:57.000Z</time></trkpt><trkpt lon="5.92293" lat="50.990536"><ele>51.8</ele><time>2022-04-10T08:42:58.000Z</time></trkpt><trkpt lon="5.922997" lat="50.990594"><ele>51.8</ele><time>2022-04-10T08:42:59.000Z</time></trkpt><trkpt lon="5.923063" lat="50.990651"><ele>51.6</ele><time>2022-04-10T08:43:00.000Z</time></trkpt><trkpt lon="5.923129" lat="50.990712"><ele>51.4</ele><time>2022-04-10T08:43:01.000Z</time></trkpt><trkpt lon="5.923195" lat="50.99077"><ele>51.2</ele><time>2022-04-10T08:43:02.000Z</time></trkpt><trkpt lon="5.923259" lat="50.99083"><ele>51.2</ele><time>2022-04-10T08:43:03.000Z</time></trkpt><trkpt lon="5.923325" lat="50.990888"><ele>51</ele><time>2022-04-10T08:43:04.000Z</time></trkpt><trkpt lon="5.92339" lat="50.990945"><ele>51</ele><time>2022-04-10T08:43:05.000Z</time></trkpt><trkpt lon="5.923455" lat="50.991002"><ele>51</ele><time>2022-04-10T08:43:06.000Z</time></trkpt><trkpt lon="5.92352" lat="50.991059"><ele>51</ele><time>2022-04-10T08:43:07.000Z</time></trkpt><trkpt lon="5.923586" lat="50.991116"><ele>50.8</ele><time>2022-04-10T08:43:08.000Z</time></trkpt><trkpt lon="5.923651" lat="50.991174"><ele>50.6</ele><time>2022-04-10T08:43:09.000Z</time></trkpt><trkpt lon="5.923717" lat="50.991235"><ele>50.6</ele><time>2022-04-10T08:43:10.000Z</time></trkpt><trkpt lon="5.923782" lat="50.991293"><ele>50.4</ele><time>2022-04-10T08:43:11.000Z</time></trkpt><trkpt lon="5.923849" lat="50.991352"><ele>50.4</ele><time>2022-04-10T08:43:12.000Z</time></trkpt><trkpt lon="5.923916" lat="50.991408"><ele>50.2</ele><time>2022-04-10T08:43:13.000Z</time></trkpt><trkpt lon="5.923986" lat="50.991467"><ele>50.2</ele><time>2022-04-10T08:43:14.000Z</time></trkpt><trkpt lon="5.924054" lat="50.991525"><ele>50.2</ele><time>2022-04-10T08:43:15.000Z</time></trkpt><trkpt lon="5.924122" lat="50.991585"><ele>50</ele><time>2022-04-10T08:43:16.000Z</time></trkpt><trkpt lon="5.924189" lat="50.991643"><ele>50</ele><time>2022-04-10T08:43:17.000Z</time></trkpt><trkpt lon="5.924257" lat="50.991703"><ele>50</ele><time>2022-04-10T08:43:18.000Z</time></trkpt><trkpt lon="5.924324" lat="50.991761"><ele>49.8</ele><time>2022-04-10T08:43:19.000Z</time></trkpt><trkpt lon="5.92439" lat="50.99182"><ele>49.8</ele><time>2022-04-10T08:43:20.000Z</time></trkpt><trkpt lon="5.924458" lat="50.991879"><ele>49.8</ele><time>2022-04-10T08:43:21.000Z</time></trkpt><trkpt lon="5.924526" lat="50.991939"><ele>49.6</ele><time>2022-04-10T08:43:22.000Z</time></trkpt><trkpt lon="5.924594" lat="50.991998"><ele>49.4</ele><time>2022-04-10T08:43:23.000Z</time></trkpt><trkpt lon="5.924665" lat="50.992059"><ele>49.4</ele><time>2022-04-10T08:43:24.000Z</time></trkpt><trkpt lon="5.924736" lat="50.99212"><ele>49.2</ele><time>2022-04-10T08:43:25.000Z</time></trkpt><trkpt lon="5.924804" lat="50.99218"><ele>49</ele><time>2022-04-10T08:43:26.000Z</time></trkpt><trkpt lon="5.924871" lat="50.992238"><ele>49</ele><time>2022-04-10T08:43:27.000Z</time></trkpt><trkpt lon="5.924939" lat="50.992298"><ele>48.8</ele><time>2022-04-10T08:43:28.000Z</time></trkpt><trkpt lon="5.925006" lat="50.992356"><ele>48.8</ele><time>2022-04-10T08:43:29.000Z</time></trkpt><trkpt lon="5.925073" lat="50.992414"><ele>48.8</ele><time>2022-04-10T08:43:30.000Z</time></trkpt><trkpt lon="5.925138" lat="50.992474"><ele>48.6</ele><time>2022-04-10T08:43:31.000Z</time></trkpt><trkpt lon="5.925203" lat="50.992533"><ele>48.4</ele><time>2022-04-10T08:43:32.000Z</time></trkpt><trkpt lon="5.925269" lat="50.992593"><ele>48.4</ele><time>2022-04-10T08:43:33.000Z</time></trkpt><trkpt lon="5.925335" lat="50.99265"><ele>48.2</ele><time>2022-04-10T08:43:34.000Z</time></trkpt><trkpt lon="5.925401" lat="50.992707"><ele>48.2</ele><time>2022-04-10T08:43:35.000Z</time></trkpt><trkpt lon="5.925467" lat="50.992764"><ele>48</ele><time>2022-04-10T08:43:36.000Z</time></trkpt><trkpt lon="5.925534" lat="50.99282"><ele>47.8</ele><time>2022-04-10T08:43:37.000Z</time></trkpt><trkpt lon="5.925599" lat="50.992874"><ele>47.8</ele><time>2022-04-10T08:43:38.000Z</time></trkpt><trkpt lon="5.925663" lat="50.992931"><ele>47.6</ele><time>2022-04-10T08:43:39.000Z</time></trkpt><trkpt lon="5.925728" lat="50.992985"><ele>47.6</ele><time>2022-04-10T08:43:40.000Z</time></trkpt><trkpt lon="5.925792" lat="50.993041"><ele>47.4</ele><time>2022-04-10T08:43:41.000Z</time></trkpt><trkpt lon="5.925856" lat="50.993096"><ele>47.4</ele><time>2022-04-10T08:43:42.000Z</time></trkpt><trkpt lon="5.925921" lat="50.993153"><ele>47.2</ele><time>2022-04-10T08:43:43.000Z</time></trkpt><trkpt lon="5.925989" lat="50.993214"><ele>47</ele><time>2022-04-10T08:43:44.000Z</time></trkpt><trkpt lon="5.926056" lat="50.993272"><ele>46.8</ele><time>2022-04-10T08:43:45.000Z</time></trkpt><trkpt lon="5.926126" lat="50.993334"><ele>46.8</ele><time>2022-04-10T08:43:46.000Z</time></trkpt><trkpt lon="5.926197" lat="50.9934"><ele>46.6</ele><time>2022-04-10T08:43:47.000Z</time></trkpt><trkpt lon="5.926269" lat="50.993464"><ele>46.6</ele><time>2022-04-10T08:43:48.000Z</time></trkpt><trkpt lon="5.926341" lat="50.993528"><ele>46.4</ele><time>2022-04-10T08:43:49.000Z</time></trkpt><trkpt lon="5.92641" lat="50.993588"><ele>46.4</ele><time>2022-04-10T08:43:50.000Z</time></trkpt><trkpt lon="5.926478" lat="50.993648"><ele>46.2</ele><time>2022-04-10T08:43:51.000Z</time></trkpt><trkpt lon="5.926549" lat="50.99371"><ele>46</ele><time>2022-04-10T08:43:52.000Z</time></trkpt><trkpt lon="5.926615" lat="50.993769"><ele>46</ele><time>2022-04-10T08:43:53.000Z</time></trkpt><trkpt lon="5.926679" lat="50.993829"><ele>45.8</ele><time>2022-04-10T08:43:54.000Z</time></trkpt><trkpt lon="5.926741" lat="50.993886"><ele>45.6</ele><time>2022-04-10T08:43:55.000Z</time></trkpt><trkpt lon="5.926802" lat="50.993947"><ele>45.4</ele><time>2022-04-10T08:43:56.000Z</time></trkpt><trkpt lon="5.926854" lat="50.99401"><ele>45.2</ele><time>2022-04-10T08:43:57.000Z</time></trkpt><trkpt lon="5.926896" lat="50.994073"><ele>45</ele><time>2022-04-10T08:43:58.000Z</time></trkpt><trkpt lon="5.926927" lat="50.994133"><ele>45</ele><time>2022-04-10T08:43:59.000Z</time></trkpt><trkpt lon="5.926946" lat="50.994196"><ele>45</ele><time>2022-04-10T08:44:00.000Z</time></trkpt><trkpt lon="5.926952" lat="50.994256"><ele>44.8</ele><time>2022-04-10T08:44:01.000Z</time></trkpt><trkpt lon="5.926952" lat="50.994313"><ele>44.8</ele><time>2022-04-10T08:44:02.000Z</time></trkpt><trkpt lon="5.92695" lat="50.99437"><ele>44.8</ele><time>2022-04-10T08:44:03.000Z</time></trkpt><trkpt lon="5.926945" lat="50.994425"><ele>44.8</ele><time>2022-04-10T08:44:04.000Z</time></trkpt><trkpt lon="5.926938" lat="50.994475"><ele>44.6</ele><time>2022-04-10T08:44:05.000Z</time></trkpt><trkpt lon="5.926931" lat="50.994523"><ele>44.4</ele><time>2022-04-10T08:44:06.000Z</time></trkpt><trkpt lon="5.926926" lat="50.994569"><ele>44.2</ele><time>2022-04-10T08:44:07.000Z</time></trkpt><trkpt lon="5.926926" lat="50.994614"><ele>44.2</ele><time>2022-04-10T08:44:08.000Z</time></trkpt><trkpt lon="5.926934" lat="50.994653"><ele>44</ele><time>2022-04-10T08:44:09.000Z</time></trkpt><trkpt lon="5.92695" lat="50.994686"><ele>43.8</ele><time>2022-04-10T08:44:10.000Z</time></trkpt><trkpt lon="5.926968" lat="50.994711"><ele>43.8</ele><time>2022-04-10T08:44:11.000Z</time></trkpt><trkpt lon="5.926986" lat="50.994732"><ele>43.6</ele><time>2022-04-10T08:44:12.000Z</time></trkpt><trkpt lon="5.927003" lat="50.994746"><ele>43.6</ele><time>2022-04-10T08:44:13.000Z</time></trkpt><trkpt lon="5.927022" lat="50.994757"><ele>43.4</ele><time>2022-04-10T08:44:14.000Z</time></trkpt><trkpt lon="5.927042" lat="50.994765"><ele>43.4</ele><time>2022-04-10T08:44:15.000Z</time></trkpt><trkpt lon="5.927053" lat="50.99478"><ele>43.4</ele><time>2022-04-10T08:44:16.000Z</time></trkpt><trkpt lon="5.927051" lat="50.994805"><ele>43.2</ele><time>2022-04-10T08:44:17.000Z</time></trkpt><trkpt lon="5.927042" lat="50.994837"><ele>43.2</ele><time>2022-04-10T08:44:18.000Z</time></trkpt><trkpt lon="5.927025" lat="50.994869"><ele>43</ele><time>2022-04-10T08:44:19.000Z</time></trkpt><trkpt lon="5.926985" lat="50.9949"><ele>43</ele><time>2022-04-10T08:44:20.000Z</time></trkpt><trkpt lon="5.926931" lat="50.994925"><ele>43</ele><time>2022-04-10T08:44:21.000Z</time></trkpt><trkpt lon="5.926871" lat="50.99495"><ele>43</ele><time>2022-04-10T08:44:22.000Z</time></trkpt><trkpt lon="5.926807" lat="50.994984"><ele>42.8</ele><time>2022-04-10T08:44:23.000Z</time></trkpt><trkpt lon="5.926745" lat="50.995026"><ele>42.8</ele><time>2022-04-10T08:44:24.000Z</time></trkpt><trkpt lon="5.926692" lat="50.995074"><ele>42.8</ele><time>2022-04-10T08:44:25.000Z</time></trkpt><trkpt lon="5.926648" lat="50.995127"><ele>42.8</ele><time>2022-04-10T08:44:26.000Z</time></trkpt><trkpt lon="5.926598" lat="50.995181"><ele>42.8</ele><time>2022-04-10T08:44:27.000Z</time></trkpt><trkpt lon="5.926548" lat="50.995235"><ele>42.8</ele><time>2022-04-10T08:44:28.000Z</time></trkpt><trkpt lon="5.9265" lat="50.995294"><ele>42.8</ele><time>2022-04-10T08:44:29.000Z</time></trkpt><trkpt lon="5.926457" lat="50.995355"><ele>42.8</ele><time>2022-04-10T08:44:30.000Z</time></trkpt><trkpt lon="5.926409" lat="50.995415"><ele>42.8</ele><time>2022-04-10T08:44:31.000Z</time></trkpt><trkpt lon="5.926353" lat="50.995472"><ele>42.8</ele><time>2022-04-10T08:44:32.000Z</time></trkpt><trkpt lon="5.926289" lat="50.995527"><ele>43</ele><time>2022-04-10T08:44:33.000Z</time></trkpt><trkpt lon="5.926221" lat="50.995576"><ele>43</ele><time>2022-04-10T08:44:34.000Z</time></trkpt><trkpt lon="5.926149" lat="50.995626"><ele>43</ele><time>2022-04-10T08:44:35.000Z</time></trkpt><trkpt lon="5.926075" lat="50.995673"><ele>43</ele><time>2022-04-10T08:44:36.000Z</time></trkpt><trkpt lon="5.925994" lat="50.99571"><ele>43</ele><time>2022-04-10T08:44:37.000Z</time></trkpt><trkpt lon="5.92591" lat="50.995745"><ele>42.8</ele><time>2022-04-10T08:44:38.000Z</time></trkpt><trkpt lon="5.925825" lat="50.995778"><ele>42.8</ele><time>2022-04-10T08:44:39.000Z</time></trkpt><trkpt lon="5.925747" lat="50.995808"><ele>42.8</ele><time>2022-04-10T08:44:40.000Z</time></trkpt><trkpt lon="5.925681" lat="50.995834"><ele>42.6</ele><time>2022-04-10T08:44:41.000Z</time></trkpt><trkpt lon="5.925621" lat="50.99586"><ele>42.6</ele><time>2022-04-10T08:44:42.000Z</time></trkpt><trkpt lon="5.925559" lat="50.995883"><ele>42.6</ele><time>2022-04-10T08:44:43.000Z</time></trkpt><trkpt lon="5.925494" lat="50.995906"><ele>42.4</ele><time>2022-04-10T08:44:44.000Z</time></trkpt><trkpt lon="5.925433" lat="50.995933"><ele>42.4</ele><time>2022-04-10T08:44:45.000Z</time></trkpt><trkpt lon="5.925372" lat="50.995959"><ele>42.4</ele><time>2022-04-10T08:44:46.000Z</time></trkpt><trkpt lon="5.925309" lat="50.995987"><ele>42.4</ele><time>2022-04-10T08:44:47.000Z</time></trkpt><trkpt lon="5.925248" lat="50.996015"><ele>42.4</ele><time>2022-04-10T08:44:48.000Z</time></trkpt><trkpt lon="5.925182" lat="50.996044"><ele>42.4</ele><time>2022-04-10T08:44:49.000Z</time></trkpt><trkpt lon="5.92512" lat="50.996071"><ele>42.4</ele><time>2022-04-10T08:44:50.000Z</time></trkpt><trkpt lon="5.925059" lat="50.996096"><ele>42.4</ele><time>2022-04-10T08:44:51.000Z</time></trkpt><trkpt lon="5.924996" lat="50.99612"><ele>42.2</ele><time>2022-04-10T08:44:52.000Z</time></trkpt><trkpt lon="5.924937" lat="50.996146"><ele>42.2</ele><time>2022-04-10T08:44:53.000Z</time></trkpt><trkpt lon="5.924885" lat="50.996168"><ele>42.2</ele><time>2022-04-10T08:44:54.000Z</time></trkpt><trkpt lon="5.924844" lat="50.996186"><ele>42.2</ele><time>2022-04-10T08:44:55.000Z</time></trkpt><trkpt lon="5.924813" lat="50.9962"><ele>42.2</ele><time>2022-04-10T08:44:56.000Z</time></trkpt><trkpt lon="5.924791" lat="50.996212"><ele>42.2</ele><time>2022-04-10T08:44:57.000Z</time></trkpt><trkpt lon="5.924772" lat="50.996227"><ele>42.2</ele><time>2022-04-10T08:44:58.000Z</time></trkpt><trkpt lon="5.924759" lat="50.996238"><ele>42.2</ele><time>2022-04-10T08:44:59.000Z</time></trkpt><trkpt lon="5.924749" lat="50.996248"><ele>42.2</ele><time>2022-04-10T08:45:00.000Z</time></trkpt><trkpt lon="5.92474" lat="50.996256"><ele>42.2</ele><time>2022-04-10T08:45:01.000Z</time></trkpt><trkpt lon="5.924734" lat="50.996264"><ele>42.2</ele><time>2022-04-10T08:45:02.000Z</time></trkpt><trkpt lon="5.924722" lat="50.996269"><ele>42.2</ele><time>2022-04-10T08:45:03.000Z</time></trkpt><trkpt lon="5.92471" lat="50.996269"><ele>42.2</ele><time>2022-04-10T08:45:04.000Z</time></trkpt><trkpt lon="5.924699" lat="50.996271"><ele>42.2</ele><time>2022-04-10T08:45:05.000Z</time></trkpt><trkpt lon="5.924657" lat="50.996279"><ele>42.2</ele><time>2022-04-10T08:45:06.000Z</time></trkpt><trkpt lon="5.924615" lat="50.99629"><ele>42</ele><time>2022-04-10T08:45:07.000Z</time></trkpt><trkpt lon="5.924565" lat="50.99631"><ele>41.8</ele><time>2022-04-10T08:45:08.000Z</time></trkpt><trkpt lon="5.924507" lat="50.996332"><ele>41.6</ele><time>2022-04-10T08:45:09.000Z</time></trkpt><trkpt lon="5.924442" lat="50.996353"><ele>41.6</ele><time>2022-04-10T08:45:10.000Z</time></trkpt><trkpt lon="5.924368" lat="50.996382"><ele>41.6</ele><time>2022-04-10T08:45:11.000Z</time></trkpt><trkpt lon="5.924288" lat="50.996416"><ele>41.4</ele><time>2022-04-10T08:45:12.000Z</time></trkpt><trkpt lon="5.924203" lat="50.99645"><ele>41.4</ele><time>2022-04-10T08:45:13.000Z</time></trkpt><trkpt lon="5.924112" lat="50.996485"><ele>41.2</ele><time>2022-04-10T08:45:14.000Z</time></trkpt><trkpt lon="5.924015" lat="50.996523"><ele>41.2</ele><time>2022-04-10T08:45:15.000Z</time></trkpt><trkpt lon="5.923915" lat="50.996561"><ele>41</ele><time>2022-04-10T08:45:16.000Z</time></trkpt><trkpt lon="5.923814" lat="50.996595"><ele>40.8</ele><time>2022-04-10T08:45:17.000Z</time></trkpt><trkpt lon="5.92372" lat="50.99663"><ele>40.6</ele><time>2022-04-10T08:45:18.000Z</time></trkpt><trkpt lon="5.923627" lat="50.996668"><ele>40.6</ele><time>2022-04-10T08:45:19.000Z</time></trkpt><trkpt lon="5.923539" lat="50.996702"><ele>40.6</ele><time>2022-04-10T08:45:20.000Z</time></trkpt><trkpt lon="5.923451" lat="50.996736"><ele>40.6</ele><time>2022-04-10T08:45:21.000Z</time></trkpt><trkpt lon="5.923364" lat="50.99677"><ele>40.6</ele><time>2022-04-10T08:45:22.000Z</time></trkpt><trkpt lon="5.923276" lat="50.996801"><ele>40.4</ele><time>2022-04-10T08:45:23.000Z</time></trkpt><trkpt lon="5.923184" lat="50.99684"><ele>40.2</ele><time>2022-04-10T08:45:24.000Z</time></trkpt><trkpt lon="5.923094" lat="50.996882"><ele>40.2</ele><time>2022-04-10T08:45:25.000Z</time></trkpt><trkpt lon="5.923023" lat="50.996932"><ele>40.2</ele><time>2022-04-10T08:45:26.000Z</time></trkpt><trkpt lon="5.922968" lat="50.996987"><ele>40.2</ele><time>2022-04-10T08:45:27.000Z</time></trkpt><trkpt lon="5.922918" lat="50.997044"><ele>40</ele><time>2022-04-10T08:45:28.000Z</time></trkpt><trkpt lon="5.922867" lat="50.997102"><ele>39.8</ele><time>2022-04-10T08:45:29.000Z</time></trkpt><trkpt lon="5.922812" lat="50.997156"><ele>39.8</ele><time>2022-04-10T08:45:30.000Z</time></trkpt><trkpt lon="5.922755" lat="50.997205"><ele>39.8</ele><time>2022-04-10T08:45:31.000Z</time></trkpt><trkpt lon="5.922696" lat="50.997252"><ele>39.8</ele><time>2022-04-10T08:45:32.000Z</time></trkpt><trkpt lon="5.92264" lat="50.9973"><ele>39.8</ele><time>2022-04-10T08:45:33.000Z</time></trkpt><trkpt lon="5.922584" lat="50.997345"><ele>39.8</ele><time>2022-04-10T08:45:34.000Z</time></trkpt><trkpt lon="5.922531" lat="50.997386"><ele>39.8</ele><time>2022-04-10T08:45:35.000Z</time></trkpt><trkpt lon="5.922478" lat="50.997421"><ele>39.8</ele><time>2022-04-10T08:45:36.000Z</time></trkpt><trkpt lon="5.922417" lat="50.997439"><ele>39.8</ele><time>2022-04-10T08:45:37.000Z</time></trkpt><trkpt lon="5.922352" lat="50.997431"><ele>39.8</ele><time>2022-04-10T08:45:38.000Z</time></trkpt><trkpt lon="5.922288" lat="50.99741"><ele>39.8</ele><time>2022-04-10T08:45:39.000Z</time></trkpt><trkpt lon="5.922222" lat="50.997382"><ele>39.8</ele><time>2022-04-10T08:45:40.000Z</time></trkpt><trkpt lon="5.922154" lat="50.997353"><ele>39.8</ele><time>2022-04-10T08:45:41.000Z</time></trkpt><trkpt lon="5.922081" lat="50.997327"><ele>40</ele><time>2022-04-10T08:45:42.000Z</time></trkpt><trkpt lon="5.922006" lat="50.997313"><ele>39.8</ele><time>2022-04-10T08:45:43.000Z</time></trkpt><trkpt lon="5.921937" lat="50.997325"><ele>40</ele><time>2022-04-10T08:45:44.000Z</time></trkpt><trkpt lon="5.92187" lat="50.997349"><ele>40</ele><time>2022-04-10T08:45:45.000Z</time></trkpt><trkpt lon="5.921804" lat="50.997382"><ele>40</ele><time>2022-04-10T08:45:46.000Z</time></trkpt><trkpt lon="5.921742" lat="50.997421"><ele>40</ele><time>2022-04-10T08:45:47.000Z</time></trkpt><trkpt lon="5.921685" lat="50.997458"><ele>39.8</ele><time>2022-04-10T08:45:48.000Z</time></trkpt><trkpt lon="5.921625" lat="50.997492"><ele>39.8</ele><time>2022-04-10T08:45:49.000Z</time></trkpt><trkpt lon="5.921567" lat="50.997528"><ele>39.8</ele><time>2022-04-10T08:45:50.000Z</time></trkpt><trkpt lon="5.921514" lat="50.997569"><ele>39.8</ele><time>2022-04-10T08:45:51.000Z</time></trkpt><trkpt lon="5.921462" lat="50.997607"><ele>39.8</ele><time>2022-04-10T08:45:52.000Z</time></trkpt><trkpt lon="5.921406" lat="50.997645"><ele>39.6</ele><time>2022-04-10T08:45:53.000Z</time></trkpt><trkpt lon="5.921349" lat="50.997684"><ele>39.6</ele><time>2022-04-10T08:45:54.000Z</time></trkpt><trkpt lon="5.92129" lat="50.997721"><ele>39.6</ele><time>2022-04-10T08:45:55.000Z</time></trkpt><trkpt lon="5.921225" lat="50.997759"><ele>39.4</ele><time>2022-04-10T08:45:56.000Z</time></trkpt><trkpt lon="5.921158" lat="50.997794"><ele>39.4</ele><time>2022-04-10T08:45:57.000Z</time></trkpt><trkpt lon="5.921088" lat="50.997831"><ele>39.4</ele><time>2022-04-10T08:45:58.000Z</time></trkpt><trkpt lon="5.921016" lat="50.997867"><ele>39.4</ele><time>2022-04-10T08:45:59.000Z</time></trkpt><trkpt lon="5.920945" lat="50.997903"><ele>39.6</ele><time>2022-04-10T08:46:00.000Z</time></trkpt><trkpt lon="5.920872" lat="50.997935"><ele>39.6</ele><time>2022-04-10T08:46:01.000Z</time></trkpt><trkpt lon="5.920802" lat="50.997972"><ele>39.6</ele><time>2022-04-10T08:46:02.000Z</time></trkpt><trkpt lon="5.92073" lat="50.998007"><ele>39.6</ele><time>2022-04-10T08:46:03.000Z</time></trkpt><trkpt lon="5.920659" lat="50.998041"><ele>39.6</ele><time>2022-04-10T08:46:04.000Z</time></trkpt><trkpt lon="5.920591" lat="50.998075"><ele>39.8</ele><time>2022-04-10T08:46:05.000Z</time></trkpt><trkpt lon="5.920523" lat="50.99811"><ele>39.8</ele><time>2022-04-10T08:46:06.000Z</time></trkpt><trkpt lon="5.920455" lat="50.998145"><ele>39.8</ele><time>2022-04-10T08:46:07.000Z</time></trkpt><trkpt lon="5.920389" lat="50.998182"><ele>39.8</ele><time>2022-04-10T08:46:08.000Z</time></trkpt><trkpt lon="5.920324" lat="50.998217"><ele>39.8</ele><time>2022-04-10T08:46:09.000Z</time></trkpt><trkpt lon="5.920261" lat="50.99825"><ele>39.8</ele><time>2022-04-10T08:46:10.000Z</time></trkpt><trkpt lon="5.920196" lat="50.998281"><ele>39.8</ele><time>2022-04-10T08:46:11.000Z</time></trkpt><trkpt lon="5.920133" lat="50.998315"><ele>39.8</ele><time>2022-04-10T08:46:12.000Z</time></trkpt><trkpt lon="5.92007" lat="50.998349"><ele>39.8</ele><time>2022-04-10T08:46:13.000Z</time></trkpt><trkpt lon="5.920002" lat="50.998384"><ele>39.8</ele><time>2022-04-10T08:46:14.000Z</time></trkpt><trkpt lon="5.919936" lat="50.998419"><ele>39.8</ele><time>2022-04-10T08:46:15.000Z</time></trkpt><trkpt lon="5.919873" lat="50.998454"><ele>39.8</ele><time>2022-04-10T08:46:16.000Z</time></trkpt><trkpt lon="5.91982" lat="50.998492"><ele>39.8</ele><time>2022-04-10T08:46:17.000Z</time></trkpt><trkpt lon="5.91979" lat="50.998536"><ele>39.6</ele><time>2022-04-10T08:46:18.000Z</time></trkpt><trkpt lon="5.919793" lat="50.998581"><ele>39.6</ele><time>2022-04-10T08:46:19.000Z</time></trkpt><trkpt lon="5.919821" lat="50.998629"><ele>39.4</ele><time>2022-04-10T08:46:20.000Z</time></trkpt><trkpt lon="5.919865" lat="50.998678"><ele>39.2</ele><time>2022-04-10T08:46:21.000Z</time></trkpt><trkpt lon="5.919921" lat="50.998729"><ele>39</ele><time>2022-04-10T08:46:22.000Z</time></trkpt><trkpt lon="5.91998" lat="50.998784"><ele>39</ele><time>2022-04-10T08:46:23.000Z</time></trkpt><trkpt lon="5.920041" lat="50.99884"><ele>39.2</ele><time>2022-04-10T08:46:24.000Z</time></trkpt><trkpt lon="5.9201" lat="50.998894"><ele>39.2</ele><time>2022-04-10T08:46:25.000Z</time></trkpt><trkpt lon="5.920158" lat="50.998952"><ele>39</ele><time>2022-04-10T08:46:26.000Z</time></trkpt><trkpt lon="5.920214" lat="50.999013"><ele>39</ele><time>2022-04-10T08:46:27.000Z</time></trkpt><trkpt lon="5.920269" lat="50.999074"><ele>39</ele><time>2022-04-10T08:46:28.000Z</time></trkpt><trkpt lon="5.920323" lat="50.999138"><ele>39</ele><time>2022-04-10T08:46:29.000Z</time></trkpt><trkpt lon="5.920374" lat="50.999197"><ele>39</ele><time>2022-04-10T08:46:30.000Z</time></trkpt><trkpt lon="5.920423" lat="50.999256"><ele>38.8</ele><time>2022-04-10T08:46:31.000Z</time></trkpt><trkpt lon="5.920468" lat="50.999313"><ele>38.8</ele><time>2022-04-10T08:46:32.000Z</time></trkpt><trkpt lon="5.920511" lat="50.999372"><ele>38.8</ele><time>2022-04-10T08:46:33.000Z</time></trkpt><trkpt lon="5.920553" lat="50.999433"><ele>38.6</ele><time>2022-04-10T08:46:34.000Z</time></trkpt><trkpt lon="5.920594" lat="50.999494"><ele>38.4</ele><time>2022-04-10T08:46:35.000Z</time></trkpt><trkpt lon="5.920633" lat="50.999555"><ele>38.2</ele><time>2022-04-10T08:46:36.000Z</time></trkpt><trkpt lon="5.920672" lat="50.999617"><ele>38</ele><time>2022-04-10T08:46:37.000Z</time></trkpt><trkpt lon="5.920711" lat="50.999678"><ele>38</ele><time>2022-04-10T08:46:38.000Z</time></trkpt><trkpt lon="5.920748" lat="50.999738"><ele>37.8</ele><time>2022-04-10T08:46:39.000Z</time></trkpt><trkpt lon="5.920784" lat="50.999798"><ele>37.8</ele><time>2022-04-10T08:46:40.000Z</time></trkpt><trkpt lon="5.92082" lat="50.999864"><ele>37.8</ele><time>2022-04-10T08:46:41.000Z</time></trkpt><trkpt lon="5.92085" lat="50.999925"><ele>37.8</ele><time>2022-04-10T08:46:42.000Z</time></trkpt><trkpt lon="5.920872" lat="50.999988"><ele>37.8</ele><time>2022-04-10T08:46:43.000Z</time></trkpt><trkpt lon="5.920886" lat="51.000056"><ele>38</ele><time>2022-04-10T08:46:44.000Z</time></trkpt><trkpt lon="5.920898" lat="51.00012"><ele>38</ele><time>2022-04-10T08:46:45.000Z</time></trkpt><trkpt lon="5.920907" lat="51.000183"><ele>38</ele><time>2022-04-10T08:46:46.000Z</time></trkpt><trkpt lon="5.920916" lat="51.000248"><ele>38</ele><time>2022-04-10T08:46:47.000Z</time></trkpt><trkpt lon="5.920928" lat="51.000314"><ele>38</ele><time>2022-04-10T08:46:48.000Z</time></trkpt><trkpt lon="5.92094" lat="51.000376"><ele>38</ele><time>2022-04-10T08:46:49.000Z</time></trkpt><trkpt lon="5.920961" lat="51.000441"><ele>37.8</ele><time>2022-04-10T08:46:50.000Z</time></trkpt><trkpt lon="5.92099" lat="51.000503"><ele>37.8</ele><time>2022-04-10T08:46:51.000Z</time></trkpt><trkpt lon="5.921029" lat="51.000553"><ele>37.8</ele><time>2022-04-10T08:46:52.000Z</time></trkpt><trkpt lon="5.921068" lat="51.000598"><ele>37.8</ele><time>2022-04-10T08:46:53.000Z</time></trkpt><trkpt lon="5.921091" lat="51.000655"><ele>37.8</ele><time>2022-04-10T08:46:54.000Z</time></trkpt><trkpt lon="5.921098" lat="51.000724"><ele>37.6</ele><time>2022-04-10T08:46:55.000Z</time></trkpt><trkpt lon="5.921089" lat="51.00079"><ele>37.6</ele><time>2022-04-10T08:46:56.000Z</time></trkpt><trkpt lon="5.92107" lat="51.000859"><ele>37.6</ele><time>2022-04-10T08:46:57.000Z</time></trkpt><trkpt lon="5.921047" lat="51.000929"><ele>37.6</ele><time>2022-04-10T08:46:58.000Z</time></trkpt><trkpt lon="5.92102" lat="51.000994"><ele>37.6</ele><time>2022-04-10T08:46:59.000Z</time></trkpt><trkpt lon="5.92099" lat="51.001057"><ele>37.4</ele><time>2022-04-10T08:47:00.000Z</time></trkpt><trkpt lon="5.920962" lat="51.001114"><ele>37.4</ele><time>2022-04-10T08:47:01.000Z</time></trkpt><trkpt lon="5.920934" lat="51.001174"><ele>37.2</ele><time>2022-04-10T08:47:02.000Z</time></trkpt><trkpt lon="5.920903" lat="51.001233"><ele>37</ele><time>2022-04-10T08:47:03.000Z</time></trkpt><trkpt lon="5.920872" lat="51.001288"><ele>36.8</ele><time>2022-04-10T08:47:04.000Z</time></trkpt><trkpt lon="5.920838" lat="51.001341"><ele>36.8</ele><time>2022-04-10T08:47:05.000Z</time></trkpt><trkpt lon="5.920803" lat="51.00139"><ele>36.6</ele><time>2022-04-10T08:47:06.000Z</time></trkpt><trkpt lon="5.920762" lat="51.001441"><ele>36.8</ele><time>2022-04-10T08:47:07.000Z</time></trkpt><trkpt lon="5.920719" lat="51.001493"><ele>36.8</ele><time>2022-04-10T08:47:08.000Z</time></trkpt><trkpt lon="5.920674" lat="51.001543"><ele>37</ele><time>2022-04-10T08:47:09.000Z</time></trkpt><trkpt lon="5.920623" lat="51.001593"><ele>37</ele><time>2022-04-10T08:47:10.000Z</time></trkpt><trkpt lon="5.920569" lat="51.001643"><ele>37.2</ele><time>2022-04-10T08:47:11.000Z</time></trkpt><trkpt lon="5.920508" lat="51.001696"><ele>37.2</ele><time>2022-04-10T08:47:12.000Z</time></trkpt><trkpt lon="5.920446" lat="51.001745"><ele>37.2</ele><time>2022-04-10T08:47:13.000Z</time></trkpt><trkpt lon="5.920379" lat="51.001797"><ele>37.2</ele><time>2022-04-10T08:47:14.000Z</time></trkpt><trkpt lon="5.920313" lat="51.001854"><ele>37</ele><time>2022-04-10T08:47:15.000Z</time></trkpt><trkpt lon="5.920243" lat="51.001911"><ele>37</ele><time>2022-04-10T08:47:16.000Z</time></trkpt><trkpt lon="5.920169" lat="51.001963"><ele>37</ele><time>2022-04-10T08:47:17.000Z</time></trkpt><trkpt lon="5.920093" lat="51.002012"><ele>37</ele><time>2022-04-10T08:47:18.000Z</time></trkpt><trkpt lon="5.920015" lat="51.002067"><ele>37</ele><time>2022-04-10T08:47:19.000Z</time></trkpt><trkpt lon="5.919943" lat="51.002117"><ele>37</ele><time>2022-04-10T08:47:20.000Z</time></trkpt><trkpt lon="5.919871" lat="51.002158"><ele>37</ele><time>2022-04-10T08:47:21.000Z</time></trkpt><trkpt lon="5.9198" lat="51.002196"><ele>37</ele><time>2022-04-10T08:47:22.000Z</time></trkpt><trkpt lon="5.919729" lat="51.002234"><ele>37</ele><time>2022-04-10T08:47:23.000Z</time></trkpt><trkpt lon="5.919656" lat="51.002272"><ele>37</ele><time>2022-04-10T08:47:24.000Z</time></trkpt><trkpt lon="5.91958" lat="51.002309"><ele>36.8</ele><time>2022-04-10T08:47:25.000Z</time></trkpt><trkpt lon="5.919503" lat="51.002346"><ele>37</ele><time>2022-04-10T08:47:26.000Z</time></trkpt><trkpt lon="5.919428" lat="51.002373"><ele>37</ele><time>2022-04-10T08:47:27.000Z</time></trkpt><trkpt lon="5.919353" lat="51.002402"><ele>37</ele><time>2022-04-10T08:47:28.000Z</time></trkpt><trkpt lon="5.91927" lat="51.00243"><ele>37</ele><time>2022-04-10T08:47:29.000Z</time></trkpt><trkpt lon="5.919181" lat="51.002455"><ele>37.2</ele><time>2022-04-10T08:47:30.000Z</time></trkpt><trkpt lon="5.919093" lat="51.002479"><ele>37.2</ele><time>2022-04-10T08:47:31.000Z</time></trkpt><trkpt lon="5.919002" lat="51.002505"><ele>37.2</ele><time>2022-04-10T08:47:32.000Z</time></trkpt><trkpt lon="5.918912" lat="51.002526"><ele>37</ele><time>2022-04-10T08:47:33.000Z</time></trkpt><trkpt lon="5.918827" lat="51.002541"><ele>37</ele><time>2022-04-10T08:47:34.000Z</time></trkpt><trkpt lon="5.918742" lat="51.002556"><ele>37</ele><time>2022-04-10T08:47:35.000Z</time></trkpt><trkpt lon="5.918657" lat="51.002571"><ele>37</ele><time>2022-04-10T08:47:36.000Z</time></trkpt><trkpt lon="5.918574" lat="51.002589"><ele>36.8</ele><time>2022-04-10T08:47:37.000Z</time></trkpt><trkpt lon="5.91849" lat="51.002613"><ele>36.4</ele><time>2022-04-10T08:47:38.000Z</time></trkpt><trkpt lon="5.918407" lat="51.002639"><ele>36.4</ele><time>2022-04-10T08:47:39.000Z</time></trkpt><trkpt lon="5.918325" lat="51.002665"><ele>36.6</ele><time>2022-04-10T08:47:40.000Z</time></trkpt><trkpt lon="5.918236" lat="51.002692"><ele>36.6</ele><time>2022-04-10T08:47:41.000Z</time></trkpt><trkpt lon="5.918143" lat="51.002716"><ele>36.4</ele><time>2022-04-10T08:47:42.000Z</time></trkpt><trkpt lon="5.918047" lat="51.002742"><ele>36.2</ele><time>2022-04-10T08:47:43.000Z</time></trkpt><trkpt lon="5.917949" lat="51.00277"><ele>36</ele><time>2022-04-10T08:47:44.000Z</time></trkpt><trkpt lon="5.91784" lat="51.002802"><ele>35.8</ele><time>2022-04-10T08:47:45.000Z</time></trkpt><trkpt lon="5.917733" lat="51.002834"><ele>35.6</ele><time>2022-04-10T08:47:46.000Z</time></trkpt><trkpt lon="5.917636" lat="51.002859"><ele>35.6</ele><time>2022-04-10T08:47:47.000Z</time></trkpt><trkpt lon="5.917541" lat="51.002882"><ele>35.4</ele><time>2022-04-10T08:47:48.000Z</time></trkpt><trkpt lon="5.917448" lat="51.002906"><ele>35.4</ele><time>2022-04-10T08:47:49.000Z</time></trkpt><trkpt lon="5.917351" lat="51.002932"><ele>35.6</ele><time>2022-04-10T08:47:50.000Z</time></trkpt><trkpt lon="5.91726" lat="51.002954"><ele>35.6</ele><time>2022-04-10T08:47:51.000Z</time></trkpt><trkpt lon="5.917171" lat="51.002979"><ele>35.4</ele><time>2022-04-10T08:47:52.000Z</time></trkpt><trkpt lon="5.917084" lat="51.003004"><ele>35.4</ele><time>2022-04-10T08:47:53.000Z</time></trkpt><trkpt lon="5.916993" lat="51.003028"><ele>35.4</ele><time>2022-04-10T08:47:54.000Z</time></trkpt><trkpt lon="5.916908" lat="51.003053"><ele>35.4</ele><time>2022-04-10T08:47:55.000Z</time></trkpt><trkpt lon="5.916827" lat="51.003071"><ele>35.6</ele><time>2022-04-10T08:47:56.000Z</time></trkpt><trkpt lon="5.916737" lat="51.003091"><ele>35.6</ele><time>2022-04-10T08:47:57.000Z</time></trkpt><trkpt lon="5.91665" lat="51.003112"><ele>35.8</ele><time>2022-04-10T08:47:58.000Z</time></trkpt><trkpt lon="5.91656" lat="51.003138"><ele>35.8</ele><time>2022-04-10T08:47:59.000Z</time></trkpt><trkpt lon="5.916454" lat="51.003161"><ele>36</ele><time>2022-04-10T08:48:00.000Z</time></trkpt><trkpt lon="5.916332" lat="51.003185"><ele>36</ele><time>2022-04-10T08:48:01.000Z</time></trkpt><trkpt lon="5.916222" lat="51.00321"><ele>36</ele><time>2022-04-10T08:48:02.000Z</time></trkpt><trkpt lon="5.916118" lat="51.003236"><ele>36</ele><time>2022-04-10T08:48:03.000Z</time></trkpt><trkpt lon="5.916003" lat="51.003269"><ele>36</ele><time>2022-04-10T08:48:04.000Z</time></trkpt><trkpt lon="5.915906" lat="51.003294"><ele>36</ele><time>2022-04-10T08:48:05.000Z</time></trkpt><trkpt lon="5.915816" lat="51.003318"><ele>35.8</ele><time>2022-04-10T08:48:06.000Z</time></trkpt><trkpt lon="5.915723" lat="51.003345"><ele>35.8</ele><time>2022-04-10T08:48:07.000Z</time></trkpt><trkpt lon="5.91563" lat="51.003371"><ele>35.8</ele><time>2022-04-10T08:48:08.000Z</time></trkpt><trkpt lon="5.915535" lat="51.003398"><ele>35.6</ele><time>2022-04-10T08:48:09.000Z</time></trkpt><trkpt lon="5.91544" lat="51.003423"><ele>35.6</ele><time>2022-04-10T08:48:10.000Z</time></trkpt><trkpt lon="5.915333" lat="51.003447"><ele>35.6</ele><time>2022-04-10T08:48:11.000Z</time></trkpt><trkpt lon="5.915219" lat="51.003476"><ele>35.6</ele><time>2022-04-10T08:48:12.000Z</time></trkpt><trkpt lon="5.915098" lat="51.00351"><ele>35.6</ele><time>2022-04-10T08:48:13.000Z</time></trkpt><trkpt lon="5.914975" lat="51.00354"><ele>35.6</ele><time>2022-04-10T08:48:14.000Z</time></trkpt><trkpt lon="5.914837" lat="51.003571"><ele>35.6</ele><time>2022-04-10T08:48:15.000Z</time></trkpt><trkpt lon="5.914713" lat="51.003599"><ele>35.6</ele><time>2022-04-10T08:48:16.000Z</time></trkpt><trkpt lon="5.914596" lat="51.003623"><ele>35.6</ele><time>2022-04-10T08:48:17.000Z</time></trkpt><trkpt lon="5.914479" lat="51.003649"><ele>35.4</ele><time>2022-04-10T08:48:18.000Z</time></trkpt><trkpt lon="5.914354" lat="51.003672"><ele>35.4</ele><time>2022-04-10T08:48:19.000Z</time></trkpt><trkpt lon="5.914229" lat="51.003695"><ele>35.4</ele><time>2022-04-10T08:48:20.000Z</time></trkpt><trkpt lon="5.914102" lat="51.003717"><ele>35.2</ele><time>2022-04-10T08:48:21.000Z</time></trkpt><trkpt lon="5.913979" lat="51.003738"><ele>34.8</ele><time>2022-04-10T08:48:22.000Z</time></trkpt><trkpt lon="5.913861" lat="51.003764"><ele>34.8</ele><time>2022-04-10T08:48:23.000Z</time></trkpt><trkpt lon="5.913743" lat="51.003791"><ele>35</ele><time>2022-04-10T08:48:24.000Z</time></trkpt><trkpt lon="5.91363" lat="51.003818"><ele>35.2</ele><time>2022-04-10T08:48:25.000Z</time></trkpt><trkpt lon="5.91352" lat="51.003843"><ele>35.2</ele><time>2022-04-10T08:48:26.000Z</time></trkpt><trkpt lon="5.913407" lat="51.003866"><ele>35.2</ele><time>2022-04-10T08:48:27.000Z</time></trkpt><trkpt lon="5.913288" lat="51.00389"><ele>35</ele><time>2022-04-10T08:48:28.000Z</time></trkpt><trkpt lon="5.913183" lat="51.003917"><ele>35</ele><time>2022-04-10T08:48:29.000Z</time></trkpt><trkpt lon="5.91307" lat="51.003944"><ele>34.8</ele><time>2022-04-10T08:48:30.000Z</time></trkpt><trkpt lon="5.912963" lat="51.003968"><ele>35</ele><time>2022-04-10T08:48:31.000Z</time></trkpt><trkpt lon="5.912866" lat="51.003988"><ele>35</ele><time>2022-04-10T08:48:32.000Z</time></trkpt><trkpt lon="5.912771" lat="51.004011"><ele>34.8</ele><time>2022-04-10T08:48:33.000Z</time></trkpt><trkpt lon="5.912667" lat="51.004035"><ele>34.8</ele><time>2022-04-10T08:48:34.000Z</time></trkpt><trkpt lon="5.912544" lat="51.004061"><ele>34.6</ele><time>2022-04-10T08:48:35.000Z</time></trkpt><trkpt lon="5.912434" lat="51.004085"><ele>34.6</ele><time>2022-04-10T08:48:36.000Z</time></trkpt><trkpt lon="5.912319" lat="51.00411"><ele>34.4</ele><time>2022-04-10T08:48:37.000Z</time></trkpt><trkpt lon="5.912189" lat="51.004134"><ele>34.4</ele><time>2022-04-10T08:48:38.000Z</time></trkpt><trkpt lon="5.912065" lat="51.004159"><ele>34.4</ele><time>2022-04-10T08:48:39.000Z</time></trkpt><trkpt lon="5.911949" lat="51.004178"><ele>34.4</ele><time>2022-04-10T08:48:40.000Z</time></trkpt><trkpt lon="5.911842" lat="51.004198"><ele>34.4</ele><time>2022-04-10T08:48:41.000Z</time></trkpt><trkpt lon="5.91173" lat="51.00422"><ele>34.4</ele><time>2022-04-10T08:48:42.000Z</time></trkpt><trkpt lon="5.911615" lat="51.004239"><ele>34.4</ele><time>2022-04-10T08:48:43.000Z</time></trkpt><trkpt lon="5.9115" lat="51.004259"><ele>34.4</ele><time>2022-04-10T08:48:44.000Z</time></trkpt><trkpt lon="5.911387" lat="51.004283"><ele>34.4</ele><time>2022-04-10T08:48:45.000Z</time></trkpt><trkpt lon="5.911279" lat="51.004309"><ele>34.4</ele><time>2022-04-10T08:48:46.000Z</time></trkpt><trkpt lon="5.911174" lat="51.004336"><ele>34</ele><time>2022-04-10T08:48:47.000Z</time></trkpt><trkpt lon="5.911068" lat="51.004364"><ele>33.8</ele><time>2022-04-10T08:48:48.000Z</time></trkpt><trkpt lon="5.910967" lat="51.004392"><ele>33.6</ele><time>2022-04-10T08:48:49.000Z</time></trkpt><trkpt lon="5.910864" lat="51.004417"><ele>33.6</ele><time>2022-04-10T08:48:50.000Z</time></trkpt><trkpt lon="5.910762" lat="51.004444"><ele>33.4</ele><time>2022-04-10T08:48:51.000Z</time></trkpt><trkpt lon="5.910658" lat="51.004474"><ele>33.2</ele><time>2022-04-10T08:48:52.000Z</time></trkpt><trkpt lon="5.910559" lat="51.004499"><ele>33.2</ele><time>2022-04-10T08:48:53.000Z</time></trkpt><trkpt lon="5.910462" lat="51.004521"><ele>33.4</ele><time>2022-04-10T08:48:54.000Z</time></trkpt><trkpt lon="5.910365" lat="51.004541"><ele>33.4</ele><time>2022-04-10T08:48:55.000Z</time></trkpt><trkpt lon="5.910256" lat="51.004564"><ele>33.6</ele><time>2022-04-10T08:48:56.000Z</time></trkpt><trkpt lon="5.910146" lat="51.004588"><ele>33.8</ele><time>2022-04-10T08:48:57.000Z</time></trkpt><trkpt lon="5.910041" lat="51.004615"><ele>33.8</ele><time>2022-04-10T08:48:58.000Z</time></trkpt><trkpt lon="5.909929" lat="51.004641"><ele>33.8</ele><time>2022-04-10T08:48:59.000Z</time></trkpt><trkpt lon="5.909811" lat="51.004664"><ele>33.8</ele><time>2022-04-10T08:49:00.000Z</time></trkpt><trkpt lon="5.909702" lat="51.004688"><ele>33.8</ele><time>2022-04-10T08:49:01.000Z</time></trkpt><trkpt lon="5.909599" lat="51.004713"><ele>34</ele><time>2022-04-10T08:49:02.000Z</time></trkpt><trkpt lon="5.909496" lat="51.004737"><ele>34.2</ele><time>2022-04-10T08:49:03.000Z</time></trkpt><trkpt lon="5.90939" lat="51.004762"><ele>34.4</ele><time>2022-04-10T08:49:04.000Z</time></trkpt><trkpt lon="5.909285" lat="51.004784"><ele>34.4</ele><time>2022-04-10T08:49:05.000Z</time></trkpt><trkpt lon="5.90918" lat="51.004805"><ele>34.6</ele><time>2022-04-10T08:49:06.000Z</time></trkpt><trkpt lon="5.909067" lat="51.004827"><ele>34.4</ele><time>2022-04-10T08:49:07.000Z</time></trkpt><trkpt lon="5.908936" lat="51.004846"><ele>34.4</ele><time>2022-04-10T08:49:08.000Z</time></trkpt><trkpt lon="5.908809" lat="51.004866"><ele>34.2</ele><time>2022-04-10T08:49:09.000Z</time></trkpt><trkpt lon="5.908691" lat="51.00489"><ele>34.4</ele><time>2022-04-10T08:49:10.000Z</time></trkpt><trkpt lon="5.908583" lat="51.004916"><ele>34.4</ele><time>2022-04-10T08:49:11.000Z</time></trkpt><trkpt lon="5.908477" lat="51.00494"><ele>34.4</ele><time>2022-04-10T08:49:12.000Z</time></trkpt><trkpt lon="5.90837" lat="51.004965"><ele>34.4</ele><time>2022-04-10T08:49:13.000Z</time></trkpt><trkpt lon="5.908258" lat="51.00499"><ele>34.4</ele><time>2022-04-10T08:49:14.000Z</time></trkpt><trkpt lon="5.908149" lat="51.00502"><ele>34.4</ele><time>2022-04-10T08:49:15.000Z</time></trkpt><trkpt lon="5.908041" lat="51.005046"><ele>34.4</ele><time>2022-04-10T08:49:16.000Z</time></trkpt><trkpt lon="5.907937" lat="51.005073"><ele>34.4</ele><time>2022-04-10T08:49:17.000Z</time></trkpt><trkpt lon="5.90783" lat="51.0051"><ele>34.2</ele><time>2022-04-10T08:49:18.000Z</time></trkpt><trkpt lon="5.907729" lat="51.005126"><ele>34</ele><time>2022-04-10T08:49:19.000Z</time></trkpt><trkpt lon="5.907631" lat="51.005149"><ele>34</ele><time>2022-04-10T08:49:20.000Z</time></trkpt><trkpt lon="5.907529" lat="51.005175"><ele>34</ele><time>2022-04-10T08:49:21.000Z</time></trkpt><trkpt lon="5.907425" lat="51.0052"><ele>34</ele><time>2022-04-10T08:49:22.000Z</time></trkpt><trkpt lon="5.907317" lat="51.005229"><ele>34</ele><time>2022-04-10T08:49:23.000Z</time></trkpt><trkpt lon="5.907212" lat="51.005252"><ele>34</ele><time>2022-04-10T08:49:24.000Z</time></trkpt><trkpt lon="5.907106" lat="51.005276"><ele>33.8</ele><time>2022-04-10T08:49:25.000Z</time></trkpt><trkpt lon="5.907003" lat="51.0053"><ele>33.6</ele><time>2022-04-10T08:49:26.000Z</time></trkpt><trkpt lon="5.906899" lat="51.00532"><ele>33.4</ele><time>2022-04-10T08:49:27.000Z</time></trkpt><trkpt lon="5.906798" lat="51.005342"><ele>33.2</ele><time>2022-04-10T08:49:28.000Z</time></trkpt><trkpt lon="5.906703" lat="51.005362"><ele>33</ele><time>2022-04-10T08:49:29.000Z</time></trkpt><trkpt lon="5.906606" lat="51.005385"><ele>32.8</ele><time>2022-04-10T08:49:30.000Z</time></trkpt><trkpt lon="5.906507" lat="51.005409"><ele>32.8</ele><time>2022-04-10T08:49:31.000Z</time></trkpt><trkpt lon="5.906405" lat="51.005434"><ele>33</ele><time>2022-04-10T08:49:32.000Z</time></trkpt><trkpt lon="5.906301" lat="51.005454"><ele>33.2</ele><time>2022-04-10T08:49:33.000Z</time></trkpt><trkpt lon="5.906197" lat="51.005477"><ele>33.4</ele><time>2022-04-10T08:49:34.000Z</time></trkpt><trkpt lon="5.906094" lat="51.005499"><ele>33.6</ele><time>2022-04-10T08:49:35.000Z</time></trkpt><trkpt lon="5.905992" lat="51.005518"><ele>33.6</ele><time>2022-04-10T08:49:36.000Z</time></trkpt><trkpt lon="5.90589" lat="51.00554"><ele>33.8</ele><time>2022-04-10T08:49:37.000Z</time></trkpt><trkpt lon="5.905789" lat="51.00556"><ele>33.8</ele><time>2022-04-10T08:49:38.000Z</time></trkpt><trkpt lon="5.905685" lat="51.005581"><ele>33.8</ele><time>2022-04-10T08:49:39.000Z</time></trkpt><trkpt lon="5.905583" lat="51.005601"><ele>33.8</ele><time>2022-04-10T08:49:40.000Z</time></trkpt><trkpt lon="5.905484" lat="51.00562"><ele>33.8</ele><time>2022-04-10T08:49:41.000Z</time></trkpt><trkpt lon="5.905384" lat="51.00564"><ele>34</ele><time>2022-04-10T08:49:42.000Z</time></trkpt><trkpt lon="5.905285" lat="51.00566"><ele>34</ele><time>2022-04-10T08:49:43.000Z</time></trkpt><trkpt lon="5.905186" lat="51.005682"><ele>34</ele><time>2022-04-10T08:49:44.000Z</time></trkpt><trkpt lon="5.905082" lat="51.005706"><ele>34</ele><time>2022-04-10T08:49:45.000Z</time></trkpt><trkpt lon="5.904977" lat="51.005728"><ele>33.8</ele><time>2022-04-10T08:49:46.000Z</time></trkpt><trkpt lon="5.904865" lat="51.005753"><ele>33.8</ele><time>2022-04-10T08:49:47.000Z</time></trkpt><trkpt lon="5.904751" lat="51.005784"><ele>33.8</ele><time>2022-04-10T08:49:48.000Z</time></trkpt><trkpt lon="5.904637" lat="51.005813"><ele>33.8</ele><time>2022-04-10T08:49:49.000Z</time></trkpt><trkpt lon="5.904522" lat="51.005839"><ele>33.8</ele><time>2022-04-10T08:49:50.000Z</time></trkpt><trkpt lon="5.904404" lat="51.005863"><ele>33.6</ele><time>2022-04-10T08:49:51.000Z</time></trkpt><trkpt lon="5.904295" lat="51.00589"><ele>33.6</ele><time>2022-04-10T08:49:52.000Z</time></trkpt><trkpt lon="5.904185" lat="51.005917"><ele>33.6</ele><time>2022-04-10T08:49:53.000Z</time></trkpt><trkpt lon="5.90408" lat="51.005943"><ele>33.4</ele><time>2022-04-10T08:49:54.000Z</time></trkpt><trkpt lon="5.903976" lat="51.005969"><ele>33.4</ele><time>2022-04-10T08:49:55.000Z</time></trkpt><trkpt lon="5.903869" lat="51.005992"><ele>33.2</ele><time>2022-04-10T08:49:56.000Z</time></trkpt><trkpt lon="5.903763" lat="51.006014"><ele>33.2</ele><time>2022-04-10T08:49:57.000Z</time></trkpt><trkpt lon="5.903653" lat="51.006037"><ele>33</ele><time>2022-04-10T08:49:58.000Z</time></trkpt><trkpt lon="5.903542" lat="51.00606"><ele>33</ele><time>2022-04-10T08:49:59.000Z</time></trkpt><trkpt lon="5.903433" lat="51.006084"><ele>32.8</ele><time>2022-04-10T08:50:00.000Z</time></trkpt><trkpt lon="5.903325" lat="51.00611"><ele>32.8</ele><time>2022-04-10T08:50:01.000Z</time></trkpt><trkpt lon="5.903222" lat="51.006132"><ele>32.6</ele><time>2022-04-10T08:50:02.000Z</time></trkpt><trkpt lon="5.903118" lat="51.006151"><ele>32.4</ele><time>2022-04-10T08:50:03.000Z</time></trkpt><trkpt lon="5.903014" lat="51.006171"><ele>32.4</ele><time>2022-04-10T08:50:04.000Z</time></trkpt><trkpt lon="5.902912" lat="51.006194"><ele>32.4</ele><time>2022-04-10T08:50:05.000Z</time></trkpt><trkpt lon="5.902815" lat="51.006217"><ele>32.4</ele><time>2022-04-10T08:50:06.000Z</time></trkpt><trkpt lon="5.902712" lat="51.006243"><ele>32.6</ele><time>2022-04-10T08:50:07.000Z</time></trkpt><trkpt lon="5.902612" lat="51.006265"><ele>32.6</ele><time>2022-04-10T08:50:08.000Z</time></trkpt><trkpt lon="5.902511" lat="51.006284"><ele>32.8</ele><time>2022-04-10T08:50:09.000Z</time></trkpt><trkpt lon="5.90241" lat="51.006304"><ele>32.8</ele><time>2022-04-10T08:50:10.000Z</time></trkpt><trkpt lon="5.902313" lat="51.006329"><ele>33</ele><time>2022-04-10T08:50:11.000Z</time></trkpt><trkpt lon="5.902217" lat="51.006361"><ele>33</ele><time>2022-04-10T08:50:12.000Z</time></trkpt><trkpt lon="5.902122" lat="51.006396"><ele>33.2</ele><time>2022-04-10T08:50:13.000Z</time></trkpt><trkpt lon="5.902024" lat="51.006436"><ele>33.2</ele><time>2022-04-10T08:50:14.000Z</time></trkpt><trkpt lon="5.901929" lat="51.006478"><ele>33.2</ele><time>2022-04-10T08:50:15.000Z</time></trkpt><trkpt lon="5.901836" lat="51.006518"><ele>33.2</ele><time>2022-04-10T08:50:16.000Z</time></trkpt><trkpt lon="5.901744" lat="51.006558"><ele>33.4</ele><time>2022-04-10T08:50:17.000Z</time></trkpt><trkpt lon="5.90166" lat="51.006602"><ele>33.4</ele><time>2022-04-10T08:50:18.000Z</time></trkpt><trkpt lon="5.901583" lat="51.006651"><ele>33.4</ele><time>2022-04-10T08:50:19.000Z</time></trkpt><trkpt lon="5.90151" lat="51.0067"><ele>33.4</ele><time>2022-04-10T08:50:20.000Z</time></trkpt><trkpt lon="5.901448" lat="51.006747"><ele>33.4</ele><time>2022-04-10T08:50:21.000Z</time></trkpt><trkpt lon="5.901393" lat="51.006802"><ele>33.2</ele><time>2022-04-10T08:50:22.000Z</time></trkpt><trkpt lon="5.90134" lat="51.006862"><ele>33.2</ele><time>2022-04-10T08:50:23.000Z</time></trkpt><trkpt lon="5.901292" lat="51.006925"><ele>33.2</ele><time>2022-04-10T08:50:24.000Z</time></trkpt><trkpt lon="5.901245" lat="51.006984"><ele>33.2</ele><time>2022-04-10T08:50:25.000Z</time></trkpt><trkpt lon="5.901204" lat="51.007039"><ele>33.2</ele><time>2022-04-10T08:50:26.000Z</time></trkpt><trkpt lon="5.901166" lat="51.007094"><ele>33.2</ele><time>2022-04-10T08:50:27.000Z</time></trkpt><trkpt lon="5.901134" lat="51.007149"><ele>33.4</ele><time>2022-04-10T08:50:28.000Z</time></trkpt><trkpt lon="5.901112" lat="51.00721"><ele>33.4</ele><time>2022-04-10T08:50:29.000Z</time></trkpt><trkpt lon="5.901099" lat="51.007268"><ele>33.4</ele><time>2022-04-10T08:50:30.000Z</time></trkpt><trkpt lon="5.901083" lat="51.007326"><ele>33.4</ele><time>2022-04-10T08:50:31.000Z</time></trkpt><trkpt lon="5.901066" lat="51.007387"><ele>33.4</ele><time>2022-04-10T08:50:32.000Z</time></trkpt><trkpt lon="5.901049" lat="51.007447"><ele>33.6</ele><time>2022-04-10T08:50:33.000Z</time></trkpt><trkpt lon="5.901032" lat="51.007504"><ele>33.6</ele><time>2022-04-10T08:50:34.000Z</time></trkpt><trkpt lon="5.901021" lat="51.007559"><ele>33.6</ele><time>2022-04-10T08:50:35.000Z</time></trkpt><trkpt lon="5.90103" lat="51.00761"><ele>33.6</ele><time>2022-04-10T08:50:36.000Z</time></trkpt><trkpt lon="5.901058" lat="51.007663"><ele>33.6</ele><time>2022-04-10T08:50:37.000Z</time></trkpt><trkpt lon="5.901095" lat="51.007717"><ele>33.6</ele><time>2022-04-10T08:50:38.000Z</time></trkpt><trkpt lon="5.901131" lat="51.007771"><ele>33.6</ele><time>2022-04-10T08:50:39.000Z</time></trkpt><trkpt lon="5.901155" lat="51.007827"><ele>33.6</ele><time>2022-04-10T08:50:40.000Z</time></trkpt><trkpt lon="5.901169" lat="51.00788"><ele>33.6</ele><time>2022-04-10T08:50:41.000Z</time></trkpt><trkpt lon="5.901173" lat="51.007927"><ele>33.8</ele><time>2022-04-10T08:50:42.000Z</time></trkpt><trkpt lon="5.901162" lat="51.007972"><ele>33.8</ele><time>2022-04-10T08:50:43.000Z</time></trkpt><trkpt lon="5.901134" lat="51.008025"><ele>34</ele><time>2022-04-10T08:50:44.000Z</time></trkpt><trkpt lon="5.901104" lat="51.008078"><ele>34.2</ele><time>2022-04-10T08:50:45.000Z</time></trkpt><trkpt lon="5.901084" lat="51.008131"><ele>34.2</ele><time>2022-04-10T08:50:46.000Z</time></trkpt><trkpt lon="5.901069" lat="51.008191"><ele>34.4</ele><time>2022-04-10T08:50:47.000Z</time></trkpt><trkpt lon="5.901054" lat="51.008255"><ele>34.4</ele><time>2022-04-10T08:50:48.000Z</time></trkpt><trkpt lon="5.901043" lat="51.008324"><ele>34.4</ele><time>2022-04-10T08:50:49.000Z</time></trkpt><trkpt lon="5.901036" lat="51.008394"><ele>34.4</ele><time>2022-04-10T08:50:50.000Z</time></trkpt><trkpt lon="5.901043" lat="51.00847"><ele>34.6</ele><time>2022-04-10T08:50:51.000Z</time></trkpt><trkpt lon="5.901064" lat="51.008547"><ele>34.8</ele><time>2022-04-10T08:50:52.000Z</time></trkpt><trkpt lon="5.901089" lat="51.008627"><ele>34.8</ele><time>2022-04-10T08:50:53.000Z</time></trkpt><trkpt lon="5.901121" lat="51.008691"><ele>35</ele><time>2022-04-10T08:50:54.000Z</time></trkpt><trkpt lon="5.901162" lat="51.008751"><ele>35.2</ele><time>2022-04-10T08:50:55.000Z</time></trkpt><trkpt lon="5.901214" lat="51.008809"><ele>35.4</ele><time>2022-04-10T08:50:56.000Z</time></trkpt><trkpt lon="5.901266" lat="51.008866"><ele>35.6</ele><time>2022-04-10T08:50:57.000Z</time></trkpt><trkpt lon="5.901316" lat="51.008923"><ele>35.6</ele><time>2022-04-10T08:50:58.000Z</time></trkpt><trkpt lon="5.901369" lat="51.008981"><ele>35.8</ele><time>2022-04-10T08:50:59.000Z</time></trkpt><trkpt lon="5.901431" lat="51.00904"><ele>35.8</ele><time>2022-04-10T08:51:00.000Z</time></trkpt><trkpt lon="5.901503" lat="51.009093"><ele>36</ele><time>2022-04-10T08:51:01.000Z</time></trkpt><trkpt lon="5.901578" lat="51.009144"><ele>36</ele><time>2022-04-10T08:51:02.000Z</time></trkpt><trkpt lon="5.901653" lat="51.009197"><ele>36.2</ele><time>2022-04-10T08:51:03.000Z</time></trkpt><trkpt lon="5.901726" lat="51.009249"><ele>36.2</ele><time>2022-04-10T08:51:04.000Z</time></trkpt><trkpt lon="5.901798" lat="51.009302"><ele>36.2</ele><time>2022-04-10T08:51:05.000Z</time></trkpt><trkpt lon="5.901872" lat="51.009354"><ele>36.2</ele><time>2022-04-10T08:51:06.000Z</time></trkpt><trkpt lon="5.901943" lat="51.009407"><ele>36.2</ele><time>2022-04-10T08:51:07.000Z</time></trkpt><trkpt lon="5.902015" lat="51.00946"><ele>36.4</ele><time>2022-04-10T08:51:08.000Z</time></trkpt><trkpt lon="5.902086" lat="51.009514"><ele>36.4</ele><time>2022-04-10T08:51:09.000Z</time></trkpt><trkpt lon="5.902153" lat="51.009567"><ele>36.4</ele><time>2022-04-10T08:51:10.000Z</time></trkpt><trkpt lon="5.902218" lat="51.009619"><ele>36.6</ele><time>2022-04-10T08:51:11.000Z</time></trkpt><trkpt lon="5.902281" lat="51.00967"><ele>36.6</ele><time>2022-04-10T08:51:12.000Z</time></trkpt><trkpt lon="5.902343" lat="51.009723"><ele>36.6</ele><time>2022-04-10T08:51:13.000Z</time></trkpt><trkpt lon="5.902401" lat="51.009778"><ele>36.8</ele><time>2022-04-10T08:51:14.000Z</time></trkpt><trkpt lon="5.902453" lat="51.009836"><ele>36.8</ele><time>2022-04-10T08:51:15.000Z</time></trkpt><trkpt lon="5.902496" lat="51.009895"><ele>36.8</ele><time>2022-04-10T08:51:16.000Z</time></trkpt><trkpt lon="5.902526" lat="51.009952"><ele>36.8</ele><time>2022-04-10T08:51:17.000Z</time></trkpt><trkpt lon="5.902552" lat="51.010016"><ele>36.8</ele><time>2022-04-10T08:51:18.000Z</time></trkpt><trkpt lon="5.902573" lat="51.010082"><ele>36.8</ele><time>2022-04-10T08:51:19.000Z</time></trkpt><trkpt lon="5.90259" lat="51.01015"><ele>36.8</ele><time>2022-04-10T08:51:20.000Z</time></trkpt><trkpt lon="5.902609" lat="51.010216"><ele>36.8</ele><time>2022-04-10T08:51:21.000Z</time></trkpt><trkpt lon="5.902632" lat="51.010284"><ele>36.8</ele><time>2022-04-10T08:51:22.000Z</time></trkpt><trkpt lon="5.90266" lat="51.010353"><ele>36.8</ele><time>2022-04-10T08:51:23.000Z</time></trkpt><trkpt lon="5.902687" lat="51.010422"><ele>36.8</ele><time>2022-04-10T08:51:24.000Z</time></trkpt><trkpt lon="5.902712" lat="51.01049"><ele>36.6</ele><time>2022-04-10T08:51:25.000Z</time></trkpt><trkpt lon="5.902734" lat="51.010558"><ele>36.6</ele><time>2022-04-10T08:51:26.000Z</time></trkpt><trkpt lon="5.902752" lat="51.010623"><ele>36.8</ele><time>2022-04-10T08:51:27.000Z</time></trkpt><trkpt lon="5.902773" lat="51.010692"><ele>36.8</ele><time>2022-04-10T08:51:28.000Z</time></trkpt><trkpt lon="5.902797" lat="51.010761"><ele>36.6</ele><time>2022-04-10T08:51:29.000Z</time></trkpt><trkpt lon="5.902826" lat="51.01083"><ele>36.6</ele><time>2022-04-10T08:51:30.000Z</time></trkpt><trkpt lon="5.90286" lat="51.010898"><ele>36.6</ele><time>2022-04-10T08:51:31.000Z</time></trkpt><trkpt lon="5.902893" lat="51.010965"><ele>36.6</ele><time>2022-04-10T08:51:32.000Z</time></trkpt><trkpt lon="5.902924" lat="51.011029"><ele>36.6</ele><time>2022-04-10T08:51:33.000Z</time></trkpt><trkpt lon="5.902953" lat="51.011094"><ele>36.4</ele><time>2022-04-10T08:51:34.000Z</time></trkpt><trkpt lon="5.902976" lat="51.011157"><ele>36.8</ele><time>2022-04-10T08:51:35.000Z</time></trkpt><trkpt lon="5.902988" lat="51.011221"><ele>37</ele><time>2022-04-10T08:51:36.000Z</time></trkpt><trkpt lon="5.902991" lat="51.011286"><ele>37</ele><time>2022-04-10T08:51:37.000Z</time></trkpt><trkpt lon="5.902985" lat="51.011351"><ele>37.2</ele><time>2022-04-10T08:51:38.000Z</time></trkpt><trkpt lon="5.902971" lat="51.011415"><ele>37.4</ele><time>2022-04-10T08:51:39.000Z</time></trkpt><trkpt lon="5.902949" lat="51.011478"><ele>37.4</ele><time>2022-04-10T08:51:40.000Z</time></trkpt><trkpt lon="5.902928" lat="51.011541"><ele>37.6</ele><time>2022-04-10T08:51:41.000Z</time></trkpt><trkpt lon="5.902909" lat="51.011603"><ele>38</ele><time>2022-04-10T08:51:42.000Z</time></trkpt><trkpt lon="5.902889" lat="51.011667"><ele>38.2</ele><time>2022-04-10T08:51:43.000Z</time></trkpt><trkpt lon="5.902868" lat="51.011728"><ele>38.4</ele><time>2022-04-10T08:51:44.000Z</time></trkpt><trkpt lon="5.902847" lat="51.011789"><ele>38.6</ele><time>2022-04-10T08:51:45.000Z</time></trkpt><trkpt lon="5.90283" lat="51.011849"><ele>39</ele><time>2022-04-10T08:51:46.000Z</time></trkpt><trkpt lon="5.902811" lat="51.011906"><ele>39.2</ele><time>2022-04-10T08:51:47.000Z</time></trkpt><trkpt lon="5.902791" lat="51.011963"><ele>39.6</ele><time>2022-04-10T08:51:48.000Z</time></trkpt><trkpt lon="5.902768" lat="51.012021"><ele>39.8</ele><time>2022-04-10T08:51:49.000Z</time></trkpt><trkpt lon="5.902743" lat="51.012082"><ele>40</ele><time>2022-04-10T08:51:50.000Z</time></trkpt><trkpt lon="5.902718" lat="51.012139"><ele>40.2</ele><time>2022-04-10T08:51:51.000Z</time></trkpt><trkpt lon="5.902692" lat="51.012196"><ele>40.4</ele><time>2022-04-10T08:51:52.000Z</time></trkpt><trkpt lon="5.902667" lat="51.012252"><ele>40.6</ele><time>2022-04-10T08:51:53.000Z</time></trkpt><trkpt lon="5.902642" lat="51.012306"><ele>40.6</ele><time>2022-04-10T08:51:54.000Z</time></trkpt><trkpt lon="5.90262" lat="51.01236"><ele>40.6</ele><time>2022-04-10T08:51:55.000Z</time></trkpt><trkpt lon="5.902604" lat="51.012418"><ele>40.8</ele><time>2022-04-10T08:51:56.000Z</time></trkpt><trkpt lon="5.902596" lat="51.01248"><ele>40.8</ele><time>2022-04-10T08:51:57.000Z</time></trkpt><trkpt lon="5.902598" lat="51.012544"><ele>40.8</ele><time>2022-04-10T08:51:58.000Z</time></trkpt><trkpt lon="5.902604" lat="51.012606"><ele>40.6</ele><time>2022-04-10T08:51:59.000Z</time></trkpt><trkpt lon="5.902607" lat="51.01267"><ele>40.4</ele><time>2022-04-10T08:52:00.000Z</time></trkpt><trkpt lon="5.902611" lat="51.012737"><ele>40.4</ele><time>2022-04-10T08:52:01.000Z</time></trkpt><trkpt lon="5.902616" lat="51.012805"><ele>40.2</ele><time>2022-04-10T08:52:02.000Z</time></trkpt><trkpt lon="5.902622" lat="51.012868"><ele>40.2</ele><time>2022-04-10T08:52:03.000Z</time></trkpt><trkpt lon="5.902633" lat="51.012936"><ele>40.2</ele><time>2022-04-10T08:52:04.000Z</time></trkpt><trkpt lon="5.902646" lat="51.013008"><ele>40.2</ele><time>2022-04-10T08:52:05.000Z</time></trkpt><trkpt lon="5.902664" lat="51.013076"><ele>40.2</ele><time>2022-04-10T08:52:06.000Z</time></trkpt><trkpt lon="5.902684" lat="51.013145"><ele>40</ele><time>2022-04-10T08:52:07.000Z</time></trkpt><trkpt lon="5.9027" lat="51.013212"><ele>40</ele><time>2022-04-10T08:52:08.000Z</time></trkpt><trkpt lon="5.902711" lat="51.013279"><ele>40</ele><time>2022-04-10T08:52:09.000Z</time></trkpt><trkpt lon="5.902717" lat="51.013345"><ele>40</ele><time>2022-04-10T08:52:10.000Z</time></trkpt><trkpt lon="5.902714" lat="51.013404"><ele>40</ele><time>2022-04-10T08:52:11.000Z</time></trkpt><trkpt lon="5.902704" lat="51.013457"><ele>40.2</ele><time>2022-04-10T08:52:12.000Z</time></trkpt><trkpt lon="5.902687" lat="51.013508"><ele>40.2</ele><time>2022-04-10T08:52:13.000Z</time></trkpt><trkpt lon="5.90266" lat="51.013563"><ele>40.2</ele><time>2022-04-10T08:52:14.000Z</time></trkpt><trkpt lon="5.902617" lat="51.013612"><ele>40.2</ele><time>2022-04-10T08:52:15.000Z</time></trkpt><trkpt lon="5.902554" lat="51.013656"><ele>40</ele><time>2022-04-10T08:52:16.000Z</time></trkpt><trkpt lon="5.902475" lat="51.013698"><ele>39.6</ele><time>2022-04-10T08:52:17.000Z</time></trkpt><trkpt lon="5.902387" lat="51.013736"><ele>39.4</ele><time>2022-04-10T08:52:18.000Z</time></trkpt><trkpt lon="5.902294" lat="51.013774"><ele>39</ele><time>2022-04-10T08:52:19.000Z</time></trkpt><trkpt lon="5.902199" lat="51.013812"><ele>38.8</ele><time>2022-04-10T08:52:20.000Z</time></trkpt><trkpt lon="5.902105" lat="51.013849"><ele>38.6</ele><time>2022-04-10T08:52:21.000Z</time></trkpt><trkpt lon="5.90201" lat="51.013885"><ele>38.6</ele><time>2022-04-10T08:52:22.000Z</time></trkpt><trkpt lon="5.90192" lat="51.013929"><ele>38.4</ele><time>2022-04-10T08:52:23.000Z</time></trkpt><trkpt lon="5.901833" lat="51.013973"><ele>38.6</ele><time>2022-04-10T08:52:24.000Z</time></trkpt><trkpt lon="5.901746" lat="51.014014"><ele>38.6</ele><time>2022-04-10T08:52:25.000Z</time></trkpt><trkpt lon="5.901657" lat="51.014051"><ele>38.2</ele><time>2022-04-10T08:52:26.000Z</time></trkpt><trkpt lon="5.901563" lat="51.014084"><ele>38.2</ele><time>2022-04-10T08:52:27.000Z</time></trkpt><trkpt lon="5.901464" lat="51.014114"><ele>38.2</ele><time>2022-04-10T08:52:28.000Z</time></trkpt><trkpt lon="5.901365" lat="51.014141"><ele>38.4</ele><time>2022-04-10T08:52:29.000Z</time></trkpt><trkpt lon="5.901267" lat="51.014168"><ele>38.4</ele><time>2022-04-10T08:52:30.000Z</time></trkpt><trkpt lon="5.901174" lat="51.014193"><ele>38.2</ele><time>2022-04-10T08:52:31.000Z</time></trkpt><trkpt lon="5.901089" lat="51.014216"><ele>38.2</ele><time>2022-04-10T08:52:32.000Z</time></trkpt><trkpt lon="5.901011" lat="51.014237"><ele>38</ele><time>2022-04-10T08:52:33.000Z</time></trkpt><trkpt lon="5.900945" lat="51.014252"><ele>38</ele><time>2022-04-10T08:52:34.000Z</time></trkpt><trkpt lon="5.900898" lat="51.014269"><ele>38.2</ele><time>2022-04-10T08:52:35.000Z</time></trkpt><trkpt lon="5.900872" lat="51.014288"><ele>38.4</ele><time>2022-04-10T08:52:36.000Z</time></trkpt><trkpt lon="5.900843" lat="51.01432"><ele>38.6</ele><time>2022-04-10T08:52:48.000Z</time></trkpt><trkpt lon="5.900838" lat="51.014325"><ele>38.8</ele><time>2022-04-10T08:52:49.000Z</time></trkpt><trkpt lon="5.900818" lat="51.01434"><ele>38.8</ele><time>2022-04-10T08:52:50.000Z</time></trkpt><trkpt lon="5.900783" lat="51.014354"><ele>38.8</ele><time>2022-04-10T08:52:51.000Z</time></trkpt><trkpt lon="5.900735" lat="51.014364"><ele>38.6</ele><time>2022-04-10T08:52:52.000Z</time></trkpt><trkpt lon="5.900678" lat="51.014372"><ele>38.6</ele><time>2022-04-10T08:52:53.000Z</time></trkpt><trkpt lon="5.900613" lat="51.01438"><ele>38.6</ele><time>2022-04-10T08:52:54.000Z</time></trkpt><trkpt lon="5.900543" lat="51.014386"><ele>38.4</ele><time>2022-04-10T08:52:55.000Z</time></trkpt><trkpt lon="5.90047" lat="51.014391"><ele>38.2</ele><time>2022-04-10T08:52:56.000Z</time></trkpt><trkpt lon="5.900391" lat="51.0144"><ele>38.2</ele><time>2022-04-10T08:52:57.000Z</time></trkpt><trkpt lon="5.900307" lat="51.01441"><ele>38</ele><time>2022-04-10T08:52:58.000Z</time></trkpt><trkpt lon="5.90022" lat="51.014419"><ele>38.2</ele><time>2022-04-10T08:52:59.000Z</time></trkpt><trkpt lon="5.900131" lat="51.01443"><ele>38</ele><time>2022-04-10T08:53:00.000Z</time></trkpt><trkpt lon="5.900037" lat="51.014442"><ele>37.8</ele><time>2022-04-10T08:53:01.000Z</time></trkpt><trkpt lon="5.89994" lat="51.014453"><ele>37.6</ele><time>2022-04-10T08:53:02.000Z</time></trkpt><trkpt lon="5.899842" lat="51.014466"><ele>37.6</ele><time>2022-04-10T08:53:03.000Z</time></trkpt><trkpt lon="5.899744" lat="51.01448"><ele>37.4</ele><time>2022-04-10T08:53:04.000Z</time></trkpt><trkpt lon="5.899641" lat="51.014491"><ele>37.4</ele><time>2022-04-10T08:53:05.000Z</time></trkpt><trkpt lon="5.899536" lat="51.014503"><ele>37.4</ele><time>2022-04-10T08:53:06.000Z</time></trkpt><trkpt lon="5.899428" lat="51.014514"><ele>37.6</ele><time>2022-04-10T08:53:07.000Z</time></trkpt><trkpt lon="5.899321" lat="51.014525"><ele>37.6</ele><time>2022-04-10T08:53:08.000Z</time></trkpt><trkpt lon="5.899213" lat="51.014533"><ele>37.4</ele><time>2022-04-10T08:53:09.000Z</time></trkpt><trkpt lon="5.899106" lat="51.014543"><ele>37.4</ele><time>2022-04-10T08:53:10.000Z</time></trkpt><trkpt lon="5.898998" lat="51.014549"><ele>37.4</ele><time>2022-04-10T08:53:11.000Z</time></trkpt><trkpt lon="5.898891" lat="51.014557"><ele>37.2</ele><time>2022-04-10T08:53:12.000Z</time></trkpt><trkpt lon="5.898788" lat="51.014557"><ele>36.8</ele><time>2022-04-10T08:53:13.000Z</time></trkpt><trkpt lon="5.89868" lat="51.014558"><ele>36.8</ele><time>2022-04-10T08:53:14.000Z</time></trkpt><trkpt lon="5.898574" lat="51.014561"><ele>36.6</ele><time>2022-04-10T08:53:15.000Z</time></trkpt><trkpt lon="5.898466" lat="51.01456"><ele>36.6</ele><time>2022-04-10T08:53:16.000Z</time></trkpt><trkpt lon="5.898359" lat="51.014556"><ele>36.8</ele><time>2022-04-10T08:53:17.000Z</time></trkpt><trkpt lon="5.89825" lat="51.014552"><ele>37</ele><time>2022-04-10T08:53:18.000Z</time></trkpt><trkpt lon="5.898144" lat="51.014549"><ele>37.2</ele><time>2022-04-10T08:53:19.000Z</time></trkpt><trkpt lon="5.898034" lat="51.01455"><ele>37.4</ele><time>2022-04-10T08:53:20.000Z</time></trkpt><trkpt lon="5.897924" lat="51.014554"><ele>37.6</ele><time>2022-04-10T08:53:21.000Z</time></trkpt><trkpt lon="5.897815" lat="51.014559"><ele>37.8</ele><time>2022-04-10T08:53:22.000Z</time></trkpt><trkpt lon="5.897707" lat="51.014567"><ele>38</ele><time>2022-04-10T08:53:23.000Z</time></trkpt><trkpt lon="5.897599" lat="51.014574"><ele>38</ele><time>2022-04-10T08:53:24.000Z</time></trkpt><trkpt lon="5.897491" lat="51.014584"><ele>38.2</ele><time>2022-04-10T08:53:25.000Z</time></trkpt><trkpt lon="5.897385" lat="51.014598"><ele>38.2</ele><time>2022-04-10T08:53:26.000Z</time></trkpt><trkpt lon="5.897282" lat="51.01461"><ele>38.2</ele><time>2022-04-10T08:53:27.000Z</time></trkpt><trkpt lon="5.89718" lat="51.014622"><ele>38</ele><time>2022-04-10T08:53:28.000Z</time></trkpt><trkpt lon="5.89708" lat="51.014637"><ele>37.8</ele><time>2022-04-10T08:53:29.000Z</time></trkpt><trkpt lon="5.896985" lat="51.014654"><ele>37.6</ele><time>2022-04-10T08:53:30.000Z</time></trkpt><trkpt lon="5.896889" lat="51.014672"><ele>37.8</ele><time>2022-04-10T08:53:31.000Z</time></trkpt><trkpt lon="5.896796" lat="51.014688"><ele>37.8</ele><time>2022-04-10T08:53:32.000Z</time></trkpt><trkpt lon="5.896704" lat="51.014708"><ele>37.8</ele><time>2022-04-10T08:53:33.000Z</time></trkpt><trkpt lon="5.896613" lat="51.014731"><ele>37.8</ele><time>2022-04-10T08:53:34.000Z</time></trkpt><trkpt lon="5.896522" lat="51.014753"><ele>37.8</ele><time>2022-04-10T08:53:35.000Z</time></trkpt><trkpt lon="5.896429" lat="51.014771"><ele>37.6</ele><time>2022-04-10T08:53:36.000Z</time></trkpt><trkpt lon="5.896346" lat="51.014786"><ele>37.8</ele><time>2022-04-10T08:53:37.000Z</time></trkpt><trkpt lon="5.896275" lat="51.014801"><ele>37.8</ele><time>2022-04-10T08:53:38.000Z</time></trkpt><trkpt lon="5.896211" lat="51.014815"><ele>38</ele><time>2022-04-10T08:53:39.000Z</time></trkpt><trkpt lon="5.89615" lat="51.01482"><ele>38</ele><time>2022-04-10T08:53:40.000Z</time></trkpt><trkpt lon="5.896085" lat="51.014816"><ele>37.8</ele><time>2022-04-10T08:53:41.000Z</time></trkpt><trkpt lon="5.896018" lat="51.014799"><ele>37.8</ele><time>2022-04-10T08:53:42.000Z</time></trkpt><trkpt lon="5.895949" lat="51.014777"><ele>37.8</ele><time>2022-04-10T08:53:43.000Z</time></trkpt><trkpt lon="5.895872" lat="51.01476"><ele>37.6</ele><time>2022-04-10T08:53:44.000Z</time></trkpt><trkpt lon="5.895789" lat="51.014755"><ele>37.6</ele><time>2022-04-10T08:53:45.000Z</time></trkpt><trkpt lon="5.895711" lat="51.014771"><ele>37.6</ele><time>2022-04-10T08:53:46.000Z</time></trkpt><trkpt lon="5.89564" lat="51.014804"><ele>37.4</ele><time>2022-04-10T08:53:47.000Z</time></trkpt><trkpt lon="5.895566" lat="51.014841"><ele>37.2</ele><time>2022-04-10T08:53:48.000Z</time></trkpt><trkpt lon="5.895482" lat="51.014874"><ele>37</ele><time>2022-04-10T08:53:49.000Z</time></trkpt><trkpt lon="5.895384" lat="51.014901"><ele>37</ele><time>2022-04-10T08:53:50.000Z</time></trkpt><trkpt lon="5.895277" lat="51.014921"><ele>36.8</ele><time>2022-04-10T08:53:51.000Z</time></trkpt><trkpt lon="5.895168" lat="51.014942"><ele>36.8</ele><time>2022-04-10T08:53:52.000Z</time></trkpt><trkpt lon="5.895055" lat="51.01496"><ele>36.4</ele><time>2022-04-10T08:53:53.000Z</time></trkpt><trkpt lon="5.89494" lat="51.014982"><ele>36.2</ele><time>2022-04-10T08:53:54.000Z</time></trkpt><trkpt lon="5.894824" lat="51.015002"><ele>35.8</ele><time>2022-04-10T08:53:55.000Z</time></trkpt><trkpt lon="5.894712" lat="51.015025"><ele>35.6</ele><time>2022-04-10T08:53:56.000Z</time></trkpt><trkpt lon="5.894598" lat="51.01505"><ele>35.4</ele><time>2022-04-10T08:53:57.000Z</time></trkpt><trkpt lon="5.894488" lat="51.015081"><ele>35.2</ele><time>2022-04-10T08:53:58.000Z</time></trkpt><trkpt lon="5.894391" lat="51.015109"><ele>35.2</ele><time>2022-04-10T08:53:59.000Z</time></trkpt><trkpt lon="5.894298" lat="51.015133"><ele>35.2</ele><time>2022-04-10T08:54:00.000Z</time></trkpt><trkpt lon="5.894209" lat="51.01516"><ele>35</ele><time>2022-04-10T08:54:01.000Z</time></trkpt><trkpt lon="5.894119" lat="51.015192"><ele>35</ele><time>2022-04-10T08:54:02.000Z</time></trkpt><trkpt lon="5.89403" lat="51.015227"><ele>35</ele><time>2022-04-10T08:54:03.000Z</time></trkpt><trkpt lon="5.893937" lat="51.015264"><ele>35</ele><time>2022-04-10T08:54:04.000Z</time></trkpt><trkpt lon="5.893838" lat="51.015299"><ele>34.8</ele><time>2022-04-10T08:54:05.000Z</time></trkpt><trkpt lon="5.893741" lat="51.015333"><ele>35</ele><time>2022-04-10T08:54:06.000Z</time></trkpt><trkpt lon="5.893646" lat="51.015366"><ele>35</ele><time>2022-04-10T08:54:07.000Z</time></trkpt><trkpt lon="5.893547" lat="51.015397"><ele>35</ele><time>2022-04-10T08:54:08.000Z</time></trkpt><trkpt lon="5.893444" lat="51.015427"><ele>35.2</ele><time>2022-04-10T08:54:09.000Z</time></trkpt><trkpt lon="5.893341" lat="51.015453"><ele>35</ele><time>2022-04-10T08:54:10.000Z</time></trkpt><trkpt lon="5.893235" lat="51.015479"><ele>35</ele><time>2022-04-10T08:54:11.000Z</time></trkpt><trkpt lon="5.893127" lat="51.015502"><ele>35</ele><time>2022-04-10T08:54:12.000Z</time></trkpt><trkpt lon="5.893023" lat="51.015525"><ele>35</ele><time>2022-04-10T08:54:13.000Z</time></trkpt><trkpt lon="5.892914" lat="51.01555"><ele>35.2</ele><time>2022-04-10T08:54:14.000Z</time></trkpt><trkpt lon="5.892807" lat="51.01557"><ele>35.2</ele><time>2022-04-10T08:54:15.000Z</time></trkpt><trkpt lon="5.892702" lat="51.015594"><ele>35.2</ele><time>2022-04-10T08:54:16.000Z</time></trkpt><trkpt lon="5.892598" lat="51.01562"><ele>35.4</ele><time>2022-04-10T08:54:17.000Z</time></trkpt><trkpt lon="5.892495" lat="51.015644"><ele>35.4</ele><time>2022-04-10T08:54:18.000Z</time></trkpt><trkpt lon="5.892394" lat="51.015669"><ele>35.4</ele><time>2022-04-10T08:54:19.000Z</time></trkpt><trkpt lon="5.892293" lat="51.015692"><ele>35.4</ele><time>2022-04-10T08:54:20.000Z</time></trkpt><trkpt lon="5.892188" lat="51.015715"><ele>35.4</ele><time>2022-04-10T08:54:21.000Z</time></trkpt><trkpt lon="5.892087" lat="51.015739"><ele>35.4</ele><time>2022-04-10T08:54:22.000Z</time></trkpt><trkpt lon="5.891986" lat="51.015766"><ele>35.2</ele><time>2022-04-10T08:54:23.000Z</time></trkpt><trkpt lon="5.891883" lat="51.015792"><ele>35.2</ele><time>2022-04-10T08:54:24.000Z</time></trkpt><trkpt lon="5.891785" lat="51.015816"><ele>35.4</ele><time>2022-04-10T08:54:25.000Z</time></trkpt><trkpt lon="5.891688" lat="51.015845"><ele>35.4</ele><time>2022-04-10T08:54:26.000Z</time></trkpt><trkpt lon="5.891587" lat="51.015872"><ele>35.6</ele><time>2022-04-10T08:54:27.000Z</time></trkpt><trkpt lon="5.891489" lat="51.015896"><ele>35.6</ele><time>2022-04-10T08:54:28.000Z</time></trkpt><trkpt lon="5.891391" lat="51.015925"><ele>35.8</ele><time>2022-04-10T08:54:29.000Z</time></trkpt><trkpt lon="5.891297" lat="51.015959"><ele>35.8</ele><time>2022-04-10T08:54:30.000Z</time></trkpt><trkpt lon="5.891206" lat="51.015993"><ele>36</ele><time>2022-04-10T08:54:31.000Z</time></trkpt><trkpt lon="5.891113" lat="51.016027"><ele>35.8</ele><time>2022-04-10T08:54:32.000Z</time></trkpt><trkpt lon="5.89102" lat="51.016063"><ele>35.8</ele><time>2022-04-10T08:54:33.000Z</time></trkpt><trkpt lon="5.89093" lat="51.016101"><ele>36</ele><time>2022-04-10T08:54:34.000Z</time></trkpt><trkpt lon="5.890841" lat="51.01614"><ele>36.2</ele><time>2022-04-10T08:54:35.000Z</time></trkpt><trkpt lon="5.890753" lat="51.016182"><ele>36</ele><time>2022-04-10T08:54:36.000Z</time></trkpt><trkpt lon="5.890665" lat="51.016224"><ele>36</ele><time>2022-04-10T08:54:37.000Z</time></trkpt><trkpt lon="5.890577" lat="51.016265"><ele>36.2</ele><time>2022-04-10T08:54:38.000Z</time></trkpt><trkpt lon="5.890491" lat="51.016304"><ele>36.4</ele><time>2022-04-10T08:54:39.000Z</time></trkpt><trkpt lon="5.890406" lat="51.016345"><ele>36.4</ele><time>2022-04-10T08:54:40.000Z</time></trkpt><trkpt lon="5.890321" lat="51.016383"><ele>36.8</ele><time>2022-04-10T08:54:41.000Z</time></trkpt><trkpt lon="5.890235" lat="51.016423"><ele>37</ele><time>2022-04-10T08:54:42.000Z</time></trkpt><trkpt lon="5.890152" lat="51.016464"><ele>37</ele><time>2022-04-10T08:54:43.000Z</time></trkpt><trkpt lon="5.89007" lat="51.016506"><ele>37.2</ele><time>2022-04-10T08:54:44.000Z</time></trkpt><trkpt lon="5.889986" lat="51.016548"><ele>37.4</ele><time>2022-04-10T08:54:45.000Z</time></trkpt><trkpt lon="5.889904" lat="51.016587"><ele>37.4</ele><time>2022-04-10T08:54:46.000Z</time></trkpt><trkpt lon="5.889823" lat="51.016627"><ele>37.6</ele><time>2022-04-10T08:54:47.000Z</time></trkpt><trkpt lon="5.88974" lat="51.016666"><ele>37.6</ele><time>2022-04-10T08:54:48.000Z</time></trkpt><trkpt lon="5.889656" lat="51.016709"><ele>37.8</ele><time>2022-04-10T08:54:49.000Z</time></trkpt><trkpt lon="5.889574" lat="51.01675"><ele>38</ele><time>2022-04-10T08:54:50.000Z</time></trkpt><trkpt lon="5.889493" lat="51.016788"><ele>38</ele><time>2022-04-10T08:54:51.000Z</time></trkpt><trkpt lon="5.889414" lat="51.016826"><ele>38.2</ele><time>2022-04-10T08:54:52.000Z</time></trkpt><trkpt lon="5.88933" lat="51.016868"><ele>38.4</ele><time>2022-04-10T08:54:53.000Z</time></trkpt><trkpt lon="5.889247" lat="51.016906"><ele>38.4</ele><time>2022-04-10T08:54:54.000Z</time></trkpt><trkpt lon="5.889164" lat="51.016945"><ele>38.4</ele><time>2022-04-10T08:54:55.000Z</time></trkpt><trkpt lon="5.88908" lat="51.016986"><ele>38.4</ele><time>2022-04-10T08:54:56.000Z</time></trkpt><trkpt lon="5.888999" lat="51.017025"><ele>38.4</ele><time>2022-04-10T08:54:57.000Z</time></trkpt><trkpt lon="5.888916" lat="51.017067"><ele>38.4</ele><time>2022-04-10T08:54:58.000Z</time></trkpt><trkpt lon="5.888834" lat="51.017108"><ele>38.4</ele><time>2022-04-10T08:54:59.000Z</time></trkpt><trkpt lon="5.888752" lat="51.017147"><ele>38.4</ele><time>2022-04-10T08:55:00.000Z</time></trkpt><trkpt lon="5.888669" lat="51.017189"><ele>38.4</ele><time>2022-04-10T08:55:01.000Z</time></trkpt><trkpt lon="5.888583" lat="51.017231"><ele>38.6</ele><time>2022-04-10T08:55:02.000Z</time></trkpt><trkpt lon="5.888497" lat="51.017273"><ele>38.6</ele><time>2022-04-10T08:55:03.000Z</time></trkpt><trkpt lon="5.888411" lat="51.017315"><ele>38.6</ele><time>2022-04-10T08:55:04.000Z</time></trkpt><trkpt lon="5.888326" lat="51.017357"><ele>38.8</ele><time>2022-04-10T08:55:05.000Z</time></trkpt><trkpt lon="5.88824" lat="51.017399"><ele>38.8</ele><time>2022-04-10T08:55:06.000Z</time></trkpt><trkpt lon="5.888155" lat="51.017441"><ele>38.8</ele><time>2022-04-10T08:55:07.000Z</time></trkpt><trkpt lon="5.888068" lat="51.017483"><ele>38.6</ele><time>2022-04-10T08:55:08.000Z</time></trkpt><trkpt lon="5.887981" lat="51.017525"><ele>38.6</ele><time>2022-04-10T08:55:09.000Z</time></trkpt><trkpt lon="5.887894" lat="51.017567"><ele>38.4</ele><time>2022-04-10T08:55:10.000Z</time></trkpt><trkpt lon="5.887806" lat="51.017609"><ele>38.4</ele><time>2022-04-10T08:55:11.000Z</time></trkpt><trkpt lon="5.887717" lat="51.017651"><ele>38.4</ele><time>2022-04-10T08:55:12.000Z</time></trkpt><trkpt lon="5.88763" lat="51.017692"><ele>38.4</ele><time>2022-04-10T08:55:13.000Z</time></trkpt><trkpt lon="5.887543" lat="51.017734"><ele>38.4</ele><time>2022-04-10T08:55:14.000Z</time></trkpt><trkpt lon="5.887457" lat="51.017775"><ele>38.4</ele><time>2022-04-10T08:55:15.000Z</time></trkpt><trkpt lon="5.887371" lat="51.017816"><ele>38.6</ele><time>2022-04-10T08:55:16.000Z</time></trkpt><trkpt lon="5.887286" lat="51.01786"><ele>38.6</ele><time>2022-04-10T08:55:17.000Z</time></trkpt><trkpt lon="5.887203" lat="51.0179"><ele>38.6</ele><time>2022-04-10T08:55:18.000Z</time></trkpt><trkpt lon="5.887122" lat="51.017944"><ele>38.6</ele><time>2022-04-10T08:55:19.000Z</time></trkpt><trkpt lon="5.887039" lat="51.017987"><ele>38.4</ele><time>2022-04-10T08:55:20.000Z</time></trkpt><trkpt lon="5.886956" lat="51.018033"><ele>38.4</ele><time>2022-04-10T08:55:21.000Z</time></trkpt><trkpt lon="5.886875" lat="51.018078"><ele>38.2</ele><time>2022-04-10T08:55:22.000Z</time></trkpt><trkpt lon="5.886794" lat="51.018121"><ele>38.2</ele><time>2022-04-10T08:55:23.000Z</time></trkpt><trkpt lon="5.886715" lat="51.018168"><ele>38.2</ele><time>2022-04-10T08:55:24.000Z</time></trkpt><trkpt lon="5.886637" lat="51.018219"><ele>38.2</ele><time>2022-04-10T08:55:25.000Z</time></trkpt><trkpt lon="5.886563" lat="51.018271"><ele>38.2</ele><time>2022-04-10T08:55:26.000Z</time></trkpt><trkpt lon="5.886488" lat="51.018322"><ele>38.4</ele><time>2022-04-10T08:55:27.000Z</time></trkpt><trkpt lon="5.886416" lat="51.018376"><ele>38.4</ele><time>2022-04-10T08:55:28.000Z</time></trkpt><trkpt lon="5.886346" lat="51.018432"><ele>38.4</ele><time>2022-04-10T08:55:29.000Z</time></trkpt><trkpt lon="5.886279" lat="51.018486"><ele>38.6</ele><time>2022-04-10T08:55:30.000Z</time></trkpt><trkpt lon="5.88621" lat="51.018544"><ele>38.6</ele><time>2022-04-10T08:55:31.000Z</time></trkpt><trkpt lon="5.886146" lat="51.018601"><ele>38.6</ele><time>2022-04-10T08:55:32.000Z</time></trkpt><trkpt lon="5.886085" lat="51.018658"><ele>38.6</ele><time>2022-04-10T08:55:33.000Z</time></trkpt><trkpt lon="5.886026" lat="51.018716"><ele>38.4</ele><time>2022-04-10T08:55:34.000Z</time></trkpt><trkpt lon="5.88597" lat="51.018774"><ele>38.2</ele><time>2022-04-10T08:55:35.000Z</time></trkpt><trkpt lon="5.885916" lat="51.018833"><ele>38.2</ele><time>2022-04-10T08:55:36.000Z</time></trkpt><trkpt lon="5.88586" lat="51.018887"><ele>38</ele><time>2022-04-10T08:55:37.000Z</time></trkpt><trkpt lon="5.885804" lat="51.018945"><ele>37.8</ele><time>2022-04-10T08:55:38.000Z</time></trkpt><trkpt lon="5.885751" lat="51.019001"><ele>37.8</ele><time>2022-04-10T08:55:39.000Z</time></trkpt><trkpt lon="5.885698" lat="51.019055"><ele>38</ele><time>2022-04-10T08:55:40.000Z</time></trkpt><trkpt lon="5.885646" lat="51.01911"><ele>38.2</ele><time>2022-04-10T08:55:41.000Z</time></trkpt><trkpt lon="5.885597" lat="51.01916"><ele>38.4</ele><time>2022-04-10T08:55:42.000Z</time></trkpt><trkpt lon="5.88555" lat="51.019212"><ele>38.6</ele><time>2022-04-10T08:55:43.000Z</time></trkpt><trkpt lon="5.885505" lat="51.019262"><ele>38.8</ele><time>2022-04-10T08:55:44.000Z</time></trkpt><trkpt lon="5.88546" lat="51.019312"><ele>38.6</ele><time>2022-04-10T08:55:45.000Z</time></trkpt><trkpt lon="5.885413" lat="51.019367"><ele>38.8</ele><time>2022-04-10T08:55:46.000Z</time></trkpt><trkpt lon="5.885366" lat="51.019421"><ele>39.2</ele><time>2022-04-10T08:55:47.000Z</time></trkpt><trkpt lon="5.885318" lat="51.019478"><ele>39.2</ele><time>2022-04-10T08:55:48.000Z</time></trkpt><trkpt lon="5.885267" lat="51.019536"><ele>39</ele><time>2022-04-10T08:55:49.000Z</time></trkpt><trkpt lon="5.885212" lat="51.019594"><ele>39</ele><time>2022-04-10T08:55:50.000Z</time></trkpt><trkpt lon="5.885157" lat="51.019654"><ele>39</ele><time>2022-04-10T08:55:51.000Z</time></trkpt><trkpt lon="5.885102" lat="51.019713"><ele>39</ele><time>2022-04-10T08:55:52.000Z</time></trkpt><trkpt lon="5.885048" lat="51.019777"><ele>39.2</ele><time>2022-04-10T08:55:53.000Z</time></trkpt><trkpt lon="5.884994" lat="51.019838"><ele>39.2</ele><time>2022-04-10T08:55:54.000Z</time></trkpt><trkpt lon="5.88494" lat="51.019899"><ele>39.2</ele><time>2022-04-10T08:55:55.000Z</time></trkpt><trkpt lon="5.884887" lat="51.01996"><ele>39.4</ele><time>2022-04-10T08:55:56.000Z</time></trkpt><trkpt lon="5.884835" lat="51.020021"><ele>39.4</ele><time>2022-04-10T08:55:57.000Z</time></trkpt><trkpt lon="5.884785" lat="51.020086"><ele>39.4</ele><time>2022-04-10T08:55:58.000Z</time></trkpt><trkpt lon="5.884736" lat="51.020148"><ele>39.2</ele><time>2022-04-10T08:55:59.000Z</time></trkpt><trkpt lon="5.884678" lat="51.020211"><ele>39.2</ele><time>2022-04-10T08:56:00.000Z</time></trkpt><trkpt lon="5.884613" lat="51.020268"><ele>39</ele><time>2022-04-10T08:56:01.000Z</time></trkpt><trkpt lon="5.884552" lat="51.020326"><ele>39</ele><time>2022-04-10T08:56:02.000Z</time></trkpt><trkpt lon="5.884494" lat="51.020387"><ele>39</ele><time>2022-04-10T08:56:03.000Z</time></trkpt><trkpt lon="5.884434" lat="51.020449"><ele>38.8</ele><time>2022-04-10T08:56:04.000Z</time></trkpt><trkpt lon="5.884377" lat="51.020513"><ele>38.8</ele><time>2022-04-10T08:56:05.000Z</time></trkpt><trkpt lon="5.884324" lat="51.020575"><ele>38.8</ele><time>2022-04-10T08:56:06.000Z</time></trkpt><trkpt lon="5.88427" lat="51.020638"><ele>38.8</ele><time>2022-04-10T08:56:07.000Z</time></trkpt><trkpt lon="5.884217" lat="51.020698"><ele>38.8</ele><time>2022-04-10T08:56:08.000Z</time></trkpt><trkpt lon="5.884158" lat="51.020761"><ele>38.8</ele><time>2022-04-10T08:56:09.000Z</time></trkpt><trkpt lon="5.884098" lat="51.020821"><ele>38.6</ele><time>2022-04-10T08:56:10.000Z</time></trkpt><trkpt lon="5.884035" lat="51.02088"><ele>38.4</ele><time>2022-04-10T08:56:11.000Z</time></trkpt><trkpt lon="5.883979" lat="51.020944"><ele>38.2</ele><time>2022-04-10T08:56:12.000Z</time></trkpt><trkpt lon="5.883926" lat="51.021011"><ele>37.6</ele><time>2022-04-10T08:56:13.000Z</time></trkpt><trkpt lon="5.883872" lat="51.021079"><ele>37.2</ele><time>2022-04-10T08:56:14.000Z</time></trkpt><trkpt lon="5.883821" lat="51.021144"><ele>37</ele><time>2022-04-10T08:56:15.000Z</time></trkpt><trkpt lon="5.883771" lat="51.021208"><ele>36.6</ele><time>2022-04-10T08:56:16.000Z</time></trkpt><trkpt lon="5.883719" lat="51.021275"><ele>36.4</ele><time>2022-04-10T08:56:17.000Z</time></trkpt><trkpt lon="5.883667" lat="51.021341"><ele>36.2</ele><time>2022-04-10T08:56:18.000Z</time></trkpt><trkpt lon="5.883611" lat="51.021402"><ele>36</ele><time>2022-04-10T08:56:19.000Z</time></trkpt><trkpt lon="5.883552" lat="51.021468"><ele>35.8</ele><time>2022-04-10T08:56:20.000Z</time></trkpt><trkpt lon="5.883493" lat="51.021532"><ele>35.8</ele><time>2022-04-10T08:56:21.000Z</time></trkpt><trkpt lon="5.883432" lat="51.021593"><ele>35.8</ele><time>2022-04-10T08:56:22.000Z</time></trkpt><trkpt lon="5.883373" lat="51.021654"><ele>35.8</ele><time>2022-04-10T08:56:23.000Z</time></trkpt><trkpt lon="5.883313" lat="51.021714"><ele>35.8</ele><time>2022-04-10T08:56:24.000Z</time></trkpt><trkpt lon="5.883253" lat="51.021772"><ele>35.8</ele><time>2022-04-10T08:56:25.000Z</time></trkpt><trkpt lon="5.883194" lat="51.021832"><ele>35.8</ele><time>2022-04-10T08:56:26.000Z</time></trkpt><trkpt lon="5.883137" lat="51.021891"><ele>36</ele><time>2022-04-10T08:56:27.000Z</time></trkpt><trkpt lon="5.883083" lat="51.021953"><ele>36</ele><time>2022-04-10T08:56:28.000Z</time></trkpt><trkpt lon="5.883027" lat="51.022017"><ele>36</ele><time>2022-04-10T08:56:29.000Z</time></trkpt><trkpt lon="5.882963" lat="51.022077"><ele>36</ele><time>2022-04-10T08:56:30.000Z</time></trkpt><trkpt lon="5.882895" lat="51.022138"><ele>36</ele><time>2022-04-10T08:56:31.000Z</time></trkpt><trkpt lon="5.882823" lat="51.0222"><ele>36</ele><time>2022-04-10T08:56:32.000Z</time></trkpt><trkpt lon="5.882747" lat="51.022264"><ele>35.8</ele><time>2022-04-10T08:56:33.000Z</time></trkpt><trkpt lon="5.882671" lat="51.022324"><ele>35.8</ele><time>2022-04-10T08:56:34.000Z</time></trkpt><trkpt lon="5.88259" lat="51.02238"><ele>35.8</ele><time>2022-04-10T08:56:35.000Z</time></trkpt><trkpt lon="5.882505" lat="51.022433"><ele>35.6</ele><time>2022-04-10T08:56:36.000Z</time></trkpt><trkpt lon="5.88242" lat="51.022486"><ele>35.4</ele><time>2022-04-10T08:56:37.000Z</time></trkpt><trkpt lon="5.882333" lat="51.022536"><ele>35.4</ele><time>2022-04-10T08:56:38.000Z</time></trkpt><trkpt lon="5.882248" lat="51.022583"><ele>35.4</ele><time>2022-04-10T08:56:39.000Z</time></trkpt><trkpt lon="5.882158" lat="51.022626"><ele>35.2</ele><time>2022-04-10T08:56:40.000Z</time></trkpt><trkpt lon="5.882067" lat="51.022668"><ele>35</ele><time>2022-04-10T08:56:41.000Z</time></trkpt><trkpt lon="5.881975" lat="51.022703"><ele>35</ele><time>2022-04-10T08:56:42.000Z</time></trkpt><trkpt lon="5.881879" lat="51.022746"><ele>34.8</ele><time>2022-04-10T08:56:43.000Z</time></trkpt><trkpt lon="5.881795" lat="51.022796"><ele>34.6</ele><time>2022-04-10T08:56:44.000Z</time></trkpt><trkpt lon="5.881723" lat="51.02285"><ele>34.4</ele><time>2022-04-10T08:56:45.000Z</time></trkpt><trkpt lon="5.881659" lat="51.022904"><ele>34.4</ele><time>2022-04-10T08:56:46.000Z</time></trkpt><trkpt lon="5.881596" lat="51.02296"><ele>34.4</ele><time>2022-04-10T08:56:47.000Z</time></trkpt><trkpt lon="5.881534" lat="51.023016"><ele>34.4</ele><time>2022-04-10T08:56:48.000Z</time></trkpt><trkpt lon="5.881477" lat="51.023076"><ele>34</ele><time>2022-04-10T08:56:49.000Z</time></trkpt><trkpt lon="5.881434" lat="51.023135"><ele>34</ele><time>2022-04-10T08:56:50.000Z</time></trkpt><trkpt lon="5.881411" lat="51.023201"><ele>34</ele><time>2022-04-10T08:56:51.000Z</time></trkpt><trkpt lon="5.8814" lat="51.023272"><ele>34</ele><time>2022-04-10T08:56:52.000Z</time></trkpt><trkpt lon="5.881386" lat="51.023343"><ele>34</ele><time>2022-04-10T08:56:53.000Z</time></trkpt><trkpt lon="5.881361" lat="51.023414"><ele>33.8</ele><time>2022-04-10T08:56:54.000Z</time></trkpt><trkpt lon="5.881325" lat="51.023483"><ele>33.6</ele><time>2022-04-10T08:56:55.000Z</time></trkpt><trkpt lon="5.881281" lat="51.023551"><ele>33.4</ele><time>2022-04-10T08:56:56.000Z</time></trkpt><trkpt lon="5.881226" lat="51.023614"><ele>33.6</ele><time>2022-04-10T08:56:57.000Z</time></trkpt><trkpt lon="5.881163" lat="51.023674"><ele>33.6</ele><time>2022-04-10T08:56:58.000Z</time></trkpt><trkpt lon="5.881091" lat="51.023732"><ele>33.8</ele><time>2022-04-10T08:56:59.000Z</time></trkpt><trkpt lon="5.881017" lat="51.023788"><ele>33.6</ele><time>2022-04-10T08:57:00.000Z</time></trkpt><trkpt lon="5.880946" lat="51.023843"><ele>33.8</ele><time>2022-04-10T08:57:01.000Z</time></trkpt><trkpt lon="5.880877" lat="51.023898"><ele>33.8</ele><time>2022-04-10T08:57:02.000Z</time></trkpt><trkpt lon="5.880811" lat="51.023954"><ele>34</ele><time>2022-04-10T08:57:03.000Z</time></trkpt><trkpt lon="5.880748" lat="51.024014"><ele>34</ele><time>2022-04-10T08:57:04.000Z</time></trkpt><trkpt lon="5.880689" lat="51.024072"><ele>33.8</ele><time>2022-04-10T08:57:05.000Z</time></trkpt><trkpt lon="5.880629" lat="51.024132"><ele>34</ele><time>2022-04-10T08:57:06.000Z</time></trkpt><trkpt lon="5.880571" lat="51.024189"><ele>34</ele><time>2022-04-10T08:57:07.000Z</time></trkpt><trkpt lon="5.880514" lat="51.024247"><ele>33.8</ele><time>2022-04-10T08:57:08.000Z</time></trkpt><trkpt lon="5.880454" lat="51.024303"><ele>33.8</ele><time>2022-04-10T08:57:09.000Z</time></trkpt><trkpt lon="5.880395" lat="51.024355"><ele>33.8</ele><time>2022-04-10T08:57:10.000Z</time></trkpt><trkpt lon="5.880335" lat="51.024411"><ele>34</ele><time>2022-04-10T08:57:11.000Z</time></trkpt><trkpt lon="5.880272" lat="51.024467"><ele>34.2</ele><time>2022-04-10T08:57:12.000Z</time></trkpt><trkpt lon="5.880208" lat="51.024521"><ele>34.6</ele><time>2022-04-10T08:57:13.000Z</time></trkpt><trkpt lon="5.880143" lat="51.024578"><ele>34.8</ele><time>2022-04-10T08:57:14.000Z</time></trkpt><trkpt lon="5.880078" lat="51.02463"><ele>34.8</ele><time>2022-04-10T08:57:15.000Z</time></trkpt><trkpt lon="5.880011" lat="51.024683"><ele>34.8</ele><time>2022-04-10T08:57:16.000Z</time></trkpt><trkpt lon="5.879944" lat="51.024729"><ele>34.8</ele><time>2022-04-10T08:57:17.000Z</time></trkpt><trkpt lon="5.879876" lat="51.024778"><ele>34.8</ele><time>2022-04-10T08:57:18.000Z</time></trkpt><trkpt lon="5.879806" lat="51.024828"><ele>34.8</ele><time>2022-04-10T08:57:19.000Z</time></trkpt><trkpt lon="5.879737" lat="51.024878"><ele>34.8</ele><time>2022-04-10T08:57:20.000Z</time></trkpt><trkpt lon="5.879667" lat="51.024927"><ele>35</ele><time>2022-04-10T08:57:21.000Z</time></trkpt><trkpt lon="5.879595" lat="51.024972"><ele>35</ele><time>2022-04-10T08:57:22.000Z</time></trkpt><trkpt lon="5.879521" lat="51.025019"><ele>35.2</ele><time>2022-04-10T08:57:23.000Z</time></trkpt><trkpt lon="5.879441" lat="51.025067"><ele>35.2</ele><time>2022-04-10T08:57:24.000Z</time></trkpt><trkpt lon="5.879362" lat="51.025109"><ele>35.2</ele><time>2022-04-10T08:57:25.000Z</time></trkpt><trkpt lon="5.879277" lat="51.02515"><ele>35.4</ele><time>2022-04-10T08:57:26.000Z</time></trkpt><trkpt lon="5.879187" lat="51.025187"><ele>35.4</ele><time>2022-04-10T08:57:27.000Z</time></trkpt><trkpt lon="5.879094" lat="51.02522"><ele>35.4</ele><time>2022-04-10T08:57:28.000Z</time></trkpt><trkpt lon="5.878996" lat="51.025249"><ele>35.4</ele><time>2022-04-10T08:57:29.000Z</time></trkpt><trkpt lon="5.878897" lat="51.025276"><ele>35.2</ele><time>2022-04-10T08:57:30.000Z</time></trkpt><trkpt lon="5.878798" lat="51.025303"><ele>35.2</ele><time>2022-04-10T08:57:31.000Z</time></trkpt><trkpt lon="5.878697" lat="51.025328"><ele>35.2</ele><time>2022-04-10T08:57:32.000Z</time></trkpt><trkpt lon="5.878597" lat="51.025353"><ele>35.2</ele><time>2022-04-10T08:57:33.000Z</time></trkpt><trkpt lon="5.878499" lat="51.025384"><ele>35.2</ele><time>2022-04-10T08:57:34.000Z</time></trkpt><trkpt lon="5.878402" lat="51.025414"><ele>35.2</ele><time>2022-04-10T08:57:35.000Z</time></trkpt><trkpt lon="5.878308" lat="51.025446"><ele>35</ele><time>2022-04-10T08:57:36.000Z</time></trkpt><trkpt lon="5.878216" lat="51.025481"><ele>34.8</ele><time>2022-04-10T08:57:37.000Z</time></trkpt><trkpt lon="5.878131" lat="51.025521"><ele>34.8</ele><time>2022-04-10T08:57:38.000Z</time></trkpt><trkpt lon="5.878053" lat="51.025563"><ele>34.8</ele><time>2022-04-10T08:57:39.000Z</time></trkpt><trkpt lon="5.877979" lat="51.025609"><ele>34.8</ele><time>2022-04-10T08:57:40.000Z</time></trkpt><trkpt lon="5.877904" lat="51.025654"><ele>34.8</ele><time>2022-04-10T08:57:41.000Z</time></trkpt><trkpt lon="5.877831" lat="51.025697"><ele>34.8</ele><time>2022-04-10T08:57:42.000Z</time></trkpt><trkpt lon="5.877759" lat="51.025743"><ele>34.6</ele><time>2022-04-10T08:57:43.000Z</time></trkpt><trkpt lon="5.877687" lat="51.025789"><ele>34.6</ele><time>2022-04-10T08:57:44.000Z</time></trkpt><trkpt lon="5.877619" lat="51.025837"><ele>34.6</ele><time>2022-04-10T08:57:45.000Z</time></trkpt><trkpt lon="5.877553" lat="51.025888"><ele>34.6</ele><time>2022-04-10T08:57:46.000Z</time></trkpt><trkpt lon="5.87749" lat="51.025935"><ele>34.6</ele><time>2022-04-10T08:57:47.000Z</time></trkpt><trkpt lon="5.877432" lat="51.025983"><ele>34.6</ele><time>2022-04-10T08:57:48.000Z</time></trkpt><trkpt lon="5.877372" lat="51.026035"><ele>34.6</ele><time>2022-04-10T08:57:49.000Z</time></trkpt><trkpt lon="5.877312" lat="51.026088"><ele>34.8</ele><time>2022-04-10T08:57:50.000Z</time></trkpt><trkpt lon="5.877255" lat="51.026138"><ele>34.8</ele><time>2022-04-10T08:57:51.000Z</time></trkpt><trkpt lon="5.877202" lat="51.026194"><ele>34.8</ele><time>2022-04-10T08:57:52.000Z</time></trkpt><trkpt lon="5.877157" lat="51.026255"><ele>34.6</ele><time>2022-04-10T08:57:53.000Z</time></trkpt><trkpt lon="5.877117" lat="51.026316"><ele>34.6</ele><time>2022-04-10T08:57:54.000Z</time></trkpt><trkpt lon="5.877069" lat="51.026377"><ele>34.4</ele><time>2022-04-10T08:57:55.000Z</time></trkpt><trkpt lon="5.877024" lat="51.026437"><ele>34.4</ele><time>2022-04-10T08:57:56.000Z</time></trkpt><trkpt lon="5.876992" lat="51.026497"><ele>34.4</ele><time>2022-04-10T08:57:57.000Z</time></trkpt><trkpt lon="5.876962" lat="51.026555"><ele>34.4</ele><time>2022-04-10T08:57:58.000Z</time></trkpt><trkpt lon="5.876932" lat="51.026619"><ele>34.2</ele><time>2022-04-10T08:57:59.000Z</time></trkpt><trkpt lon="5.876901" lat="51.026687"><ele>34</ele><time>2022-04-10T08:58:00.000Z</time></trkpt><trkpt lon="5.87687" lat="51.026751"><ele>34</ele><time>2022-04-10T08:58:01.000Z</time></trkpt><trkpt lon="5.876841" lat="51.026818"><ele>34</ele><time>2022-04-10T08:58:02.000Z</time></trkpt><trkpt lon="5.87681" lat="51.026888"><ele>34</ele><time>2022-04-10T08:58:03.000Z</time></trkpt><trkpt lon="5.876776" lat="51.026955"><ele>34</ele><time>2022-04-10T08:58:04.000Z</time></trkpt><trkpt lon="5.876744" lat="51.027022"><ele>33.8</ele><time>2022-04-10T08:58:05.000Z</time></trkpt><trkpt lon="5.876715" lat="51.027087"><ele>33.8</ele><time>2022-04-10T08:58:06.000Z</time></trkpt><trkpt lon="5.87669" lat="51.027153"><ele>33.6</ele><time>2022-04-10T08:58:07.000Z</time></trkpt><trkpt lon="5.876664" lat="51.027223"><ele>33.6</ele><time>2022-04-10T08:58:08.000Z</time></trkpt><trkpt lon="5.876635" lat="51.027296"><ele>33.4</ele><time>2022-04-10T08:58:09.000Z</time></trkpt><trkpt lon="5.876605" lat="51.027371"><ele>33.2</ele><time>2022-04-10T08:58:10.000Z</time></trkpt><trkpt lon="5.876576" lat="51.027455"><ele>32.8</ele><time>2022-04-10T08:58:11.000Z</time></trkpt><trkpt lon="5.876548" lat="51.027538"><ele>32.6</ele><time>2022-04-10T08:58:12.000Z</time></trkpt><trkpt lon="5.876514" lat="51.027623"><ele>32.2</ele><time>2022-04-10T08:58:13.000Z</time></trkpt><trkpt lon="5.876478" lat="51.027706"><ele>31.8</ele><time>2022-04-10T08:58:14.000Z</time></trkpt><trkpt lon="5.876438" lat="51.027787"><ele>31.6</ele><time>2022-04-10T08:58:15.000Z</time></trkpt><trkpt lon="5.876396" lat="51.027868"><ele>31.2</ele><time>2022-04-10T08:58:16.000Z</time></trkpt><trkpt lon="5.876354" lat="51.027944"><ele>30.8</ele><time>2022-04-10T08:58:17.000Z</time></trkpt><trkpt lon="5.876312" lat="51.028019"><ele>30.6</ele><time>2022-04-10T08:58:18.000Z</time></trkpt><trkpt lon="5.876272" lat="51.028087"><ele>30.4</ele><time>2022-04-10T08:58:19.000Z</time></trkpt><trkpt lon="5.876231" lat="51.028161"><ele>30.4</ele><time>2022-04-10T08:58:20.000Z</time></trkpt><trkpt lon="5.876191" lat="51.028232"><ele>30.4</ele><time>2022-04-10T08:58:21.000Z</time></trkpt><trkpt lon="5.876151" lat="51.028301"><ele>30.4</ele><time>2022-04-10T08:58:22.000Z</time></trkpt><trkpt lon="5.876109" lat="51.02837"><ele>30.4</ele><time>2022-04-10T08:58:23.000Z</time></trkpt><trkpt lon="5.876064" lat="51.028438"><ele>30.4</ele><time>2022-04-10T08:58:24.000Z</time></trkpt><trkpt lon="5.876016" lat="51.028505"><ele>30.4</ele><time>2022-04-10T08:58:25.000Z</time></trkpt><trkpt lon="5.875963" lat="51.028567"><ele>30.4</ele><time>2022-04-10T08:58:26.000Z</time></trkpt><trkpt lon="5.875909" lat="51.028631"><ele>30.2</ele><time>2022-04-10T08:58:27.000Z</time></trkpt><trkpt lon="5.875852" lat="51.028693"><ele>30.2</ele><time>2022-04-10T08:58:28.000Z</time></trkpt><trkpt lon="5.87579" lat="51.028756"><ele>30.2</ele><time>2022-04-10T08:58:29.000Z</time></trkpt><trkpt lon="5.875729" lat="51.028813"><ele>30.2</ele><time>2022-04-10T08:58:30.000Z</time></trkpt><trkpt lon="5.875663" lat="51.028869"><ele>30.2</ele><time>2022-04-10T08:58:31.000Z</time></trkpt><trkpt lon="5.875589" lat="51.028919"><ele>30.2</ele><time>2022-04-10T08:58:32.000Z</time></trkpt><trkpt lon="5.875505" lat="51.02896"><ele>30.2</ele><time>2022-04-10T08:58:33.000Z</time></trkpt><trkpt lon="5.875418" lat="51.028998"><ele>30.2</ele><time>2022-04-10T08:58:34.000Z</time></trkpt><trkpt lon="5.875329" lat="51.029035"><ele>30.2</ele><time>2022-04-10T08:58:35.000Z</time></trkpt><trkpt lon="5.875238" lat="51.029069"><ele>30</ele><time>2022-04-10T08:58:36.000Z</time></trkpt><trkpt lon="5.875151" lat="51.029099"><ele>30</ele><time>2022-04-10T08:58:37.000Z</time></trkpt><trkpt lon="5.875071" lat="51.029129"><ele>30</ele><time>2022-04-10T08:58:38.000Z</time></trkpt><trkpt lon="5.874995" lat="51.029156"><ele>30</ele><time>2022-04-10T08:58:39.000Z</time></trkpt><trkpt lon="5.874922" lat="51.029185"><ele>30</ele><time>2022-04-10T08:58:40.000Z</time></trkpt><trkpt lon="5.874853" lat="51.029208"><ele>30.2</ele><time>2022-04-10T08:58:41.000Z</time></trkpt><trkpt lon="5.874788" lat="51.02923"><ele>30.2</ele><time>2022-04-10T08:58:42.000Z</time></trkpt><trkpt lon="5.874723" lat="51.02925"><ele>30</ele><time>2022-04-10T08:58:43.000Z</time></trkpt><trkpt lon="5.874662" lat="51.029271"><ele>30</ele><time>2022-04-10T08:58:44.000Z</time></trkpt><trkpt lon="5.874609" lat="51.029287"><ele>30</ele><time>2022-04-10T08:58:45.000Z</time></trkpt><trkpt lon="5.874571" lat="51.029307"><ele>30</ele><time>2022-04-10T08:58:46.000Z</time></trkpt><trkpt lon="5.874558" lat="51.029331"><ele>30</ele><time>2022-04-10T08:58:47.000Z</time></trkpt><trkpt lon="5.874566" lat="51.029359"><ele>30</ele><time>2022-04-10T08:58:48.000Z</time></trkpt><trkpt lon="5.874591" lat="51.029389"><ele>30</ele><time>2022-04-10T08:58:49.000Z</time></trkpt><trkpt lon="5.874624" lat="51.029422"><ele>30</ele><time>2022-04-10T08:58:50.000Z</time></trkpt><trkpt lon="5.874664" lat="51.029466"><ele>29.8</ele><time>2022-04-10T08:58:51.000Z</time></trkpt><trkpt lon="5.874717" lat="51.029523"><ele>29.8</ele><time>2022-04-10T08:58:52.000Z</time></trkpt><trkpt lon="5.874775" lat="51.029581"><ele>29.8</ele><time>2022-04-10T08:58:53.000Z</time></trkpt><trkpt lon="5.874836" lat="51.029643"><ele>29.8</ele><time>2022-04-10T08:58:54.000Z</time></trkpt><trkpt lon="5.874898" lat="51.029708"><ele>30</ele><time>2022-04-10T08:58:55.000Z</time></trkpt><trkpt lon="5.874958" lat="51.029772"><ele>30</ele><time>2022-04-10T08:58:56.000Z</time></trkpt><trkpt lon="5.875018" lat="51.029833"><ele>30</ele><time>2022-04-10T08:58:57.000Z</time></trkpt><trkpt lon="5.875081" lat="51.029895"><ele>30.2</ele><time>2022-04-10T08:58:58.000Z</time></trkpt><trkpt lon="5.875143" lat="51.029958"><ele>30</ele><time>2022-04-10T08:58:59.000Z</time></trkpt><trkpt lon="5.875201" lat="51.030015"><ele>30</ele><time>2022-04-10T08:59:00.000Z</time></trkpt><trkpt lon="5.875259" lat="51.030072"><ele>30.2</ele><time>2022-04-10T08:59:01.000Z</time></trkpt><trkpt lon="5.875317" lat="51.030129"><ele>30</ele><time>2022-04-10T08:59:02.000Z</time></trkpt><trkpt lon="5.875374" lat="51.030187"><ele>30</ele><time>2022-04-10T08:59:03.000Z</time></trkpt><trkpt lon="5.875431" lat="51.030246"><ele>30</ele><time>2022-04-10T08:59:04.000Z</time></trkpt><trkpt lon="5.875489" lat="51.030302"><ele>30</ele><time>2022-04-10T08:59:05.000Z</time></trkpt><trkpt lon="5.875545" lat="51.030362"><ele>30</ele><time>2022-04-10T08:59:06.000Z</time></trkpt><trkpt lon="5.875602" lat="51.030422"><ele>30</ele><time>2022-04-10T08:59:07.000Z</time></trkpt><trkpt lon="5.87566" lat="51.03048"><ele>30</ele><time>2022-04-10T08:59:08.000Z</time></trkpt><trkpt lon="5.875719" lat="51.030536"><ele>30.2</ele><time>2022-04-10T08:59:09.000Z</time></trkpt><trkpt lon="5.875775" lat="51.030589"><ele>30.2</ele><time>2022-04-10T08:59:10.000Z</time></trkpt><trkpt lon="5.875829" lat="51.030643"><ele>30.2</ele><time>2022-04-10T08:59:11.000Z</time></trkpt><trkpt lon="5.875878" lat="51.030697"><ele>30.2</ele><time>2022-04-10T08:59:12.000Z</time></trkpt><trkpt lon="5.875929" lat="51.030751"><ele>30.2</ele><time>2022-04-10T08:59:13.000Z</time></trkpt><trkpt lon="5.875978" lat="51.030809"><ele>30.2</ele><time>2022-04-10T08:59:14.000Z</time></trkpt><trkpt lon="5.876021" lat="51.030869"><ele>30.4</ele><time>2022-04-10T08:59:15.000Z</time></trkpt><trkpt lon="5.876059" lat="51.030926"><ele>30.4</ele><time>2022-04-10T08:59:16.000Z</time></trkpt><trkpt lon="5.876101" lat="51.030982"><ele>30.4</ele><time>2022-04-10T08:59:17.000Z</time></trkpt><trkpt lon="5.876151" lat="51.031036"><ele>30.2</ele><time>2022-04-10T08:59:18.000Z</time></trkpt><trkpt lon="5.876216" lat="51.031086"><ele>30.2</ele><time>2022-04-10T08:59:19.000Z</time></trkpt><trkpt lon="5.876294" lat="51.031133"><ele>30</ele><time>2022-04-10T08:59:20.000Z</time></trkpt><trkpt lon="5.876381" lat="51.031185"><ele>29.8</ele><time>2022-04-10T08:59:21.000Z</time></trkpt><trkpt lon="5.87646" lat="51.031237"><ele>29.6</ele><time>2022-04-10T08:59:22.000Z</time></trkpt><trkpt lon="5.876524" lat="51.031287"><ele>29.6</ele><time>2022-04-10T08:59:23.000Z</time></trkpt><trkpt lon="5.876569" lat="51.031342"><ele>29.4</ele><time>2022-04-10T08:59:24.000Z</time></trkpt><trkpt lon="5.876598" lat="51.031398"><ele>29.4</ele><time>2022-04-10T08:59:25.000Z</time></trkpt><trkpt lon="5.87661" lat="51.031452"><ele>29.4</ele><time>2022-04-10T08:59:26.000Z</time></trkpt><trkpt lon="5.876601" lat="51.03151"><ele>29.4</ele><time>2022-04-10T08:59:27.000Z</time></trkpt><trkpt lon="5.876576" lat="51.031566"><ele>29.4</ele><time>2022-04-10T08:59:28.000Z</time></trkpt><trkpt lon="5.876535" lat="51.031618"><ele>29.4</ele><time>2022-04-10T08:59:29.000Z</time></trkpt><trkpt lon="5.876476" lat="51.031667"><ele>29.6</ele><time>2022-04-10T08:59:30.000Z</time></trkpt><trkpt lon="5.876416" lat="51.031718"><ele>29.6</ele><time>2022-04-10T08:59:31.000Z</time></trkpt><trkpt lon="5.876367" lat="51.031767"><ele>29.6</ele><time>2022-04-10T08:59:32.000Z</time></trkpt><trkpt lon="5.876325" lat="51.031816"><ele>29.8</ele><time>2022-04-10T08:59:33.000Z</time></trkpt><trkpt lon="5.876292" lat="51.031861"><ele>29.8</ele><time>2022-04-10T08:59:34.000Z</time></trkpt><trkpt lon="5.87627" lat="51.031911"><ele>29.8</ele><time>2022-04-10T08:59:35.000Z</time></trkpt><trkpt lon="5.876254" lat="51.031968"><ele>30</ele><time>2022-04-10T08:59:36.000Z</time></trkpt><trkpt lon="5.87624" lat="51.032032"><ele>30</ele><time>2022-04-10T08:59:37.000Z</time></trkpt><trkpt lon="5.876231" lat="51.032102"><ele>30.2</ele><time>2022-04-10T08:59:38.000Z</time></trkpt><trkpt lon="5.876221" lat="51.032178"><ele>30.2</ele><time>2022-04-10T08:59:39.000Z</time></trkpt><trkpt lon="5.876211" lat="51.032251"><ele>30.2</ele><time>2022-04-10T08:59:40.000Z</time></trkpt><trkpt lon="5.876202" lat="51.032328"><ele>30.2</ele><time>2022-04-10T08:59:41.000Z</time></trkpt><trkpt lon="5.876194" lat="51.032402"><ele>30.4</ele><time>2022-04-10T08:59:42.000Z</time></trkpt><trkpt lon="5.876181" lat="51.032471"><ele>30.4</ele><time>2022-04-10T08:59:43.000Z</time></trkpt><trkpt lon="5.876166" lat="51.032544"><ele>30.2</ele><time>2022-04-10T08:59:44.000Z</time></trkpt><trkpt lon="5.876152" lat="51.032616"><ele>30.2</ele><time>2022-04-10T08:59:45.000Z</time></trkpt><trkpt lon="5.876141" lat="51.032686"><ele>30.2</ele><time>2022-04-10T08:59:46.000Z</time></trkpt><trkpt lon="5.876134" lat="51.032758"><ele>30.2</ele><time>2022-04-10T08:59:47.000Z</time></trkpt><trkpt lon="5.876128" lat="51.032829"><ele>30.2</ele><time>2022-04-10T08:59:48.000Z</time></trkpt><trkpt lon="5.876119" lat="51.032894"><ele>30.2</ele><time>2022-04-10T08:59:49.000Z</time></trkpt><trkpt lon="5.876112" lat="51.032964"><ele>30.2</ele><time>2022-04-10T08:59:50.000Z</time></trkpt><trkpt lon="5.876104" lat="51.033034"><ele>30.2</ele><time>2022-04-10T08:59:51.000Z</time></trkpt><trkpt lon="5.876094" lat="51.033104"><ele>30</ele><time>2022-04-10T08:59:52.000Z</time></trkpt><trkpt lon="5.876084" lat="51.033175"><ele>30</ele><time>2022-04-10T08:59:53.000Z</time></trkpt><trkpt lon="5.876075" lat="51.033242"><ele>30</ele><time>2022-04-10T08:59:54.000Z</time></trkpt><trkpt lon="5.876064" lat="51.033315"><ele>30</ele><time>2022-04-10T08:59:55.000Z</time></trkpt><trkpt lon="5.87605" lat="51.033387"><ele>30</ele><time>2022-04-10T08:59:56.000Z</time></trkpt><trkpt lon="5.876036" lat="51.03346"><ele>29.8</ele><time>2022-04-10T08:59:57.000Z</time></trkpt><trkpt lon="5.876021" lat="51.033532"><ele>30</ele><time>2022-04-10T08:59:58.000Z</time></trkpt><trkpt lon="5.876006" lat="51.033604"><ele>30</ele><time>2022-04-10T08:59:59.000Z</time></trkpt><trkpt lon="5.875992" lat="51.033677"><ele>30</ele><time>2022-04-10T09:00:00.000Z</time></trkpt><trkpt lon="5.875979" lat="51.033749"><ele>30</ele><time>2022-04-10T09:00:01.000Z</time></trkpt><trkpt lon="5.875969" lat="51.033822"><ele>30</ele><time>2022-04-10T09:00:02.000Z</time></trkpt><trkpt lon="5.875958" lat="51.033898"><ele>30</ele><time>2022-04-10T09:00:03.000Z</time></trkpt><trkpt lon="5.875946" lat="51.033968"><ele>29.8</ele><time>2022-04-10T09:00:04.000Z</time></trkpt><trkpt lon="5.875933" lat="51.03404"><ele>29.8</ele><time>2022-04-10T09:00:05.000Z</time></trkpt><trkpt lon="5.875922" lat="51.034112"><ele>29.8</ele><time>2022-04-10T09:00:06.000Z</time></trkpt><trkpt lon="5.87591" lat="51.034184"><ele>29.8</ele><time>2022-04-10T09:00:07.000Z</time></trkpt><trkpt lon="5.875897" lat="51.034256"><ele>29.6</ele><time>2022-04-10T09:00:08.000Z</time></trkpt><trkpt lon="5.875885" lat="51.034325"><ele>29.6</ele><time>2022-04-10T09:00:09.000Z</time></trkpt><trkpt lon="5.875874" lat="51.034394"><ele>29.6</ele><time>2022-04-10T09:00:10.000Z</time></trkpt><trkpt lon="5.875864" lat="51.034462"><ele>29.6</ele><time>2022-04-10T09:00:11.000Z</time></trkpt><trkpt lon="5.875851" lat="51.034529"><ele>29.4</ele><time>2022-04-10T09:00:12.000Z</time></trkpt><trkpt lon="5.875838" lat="51.034594"><ele>29.4</ele><time>2022-04-10T09:00:13.000Z</time></trkpt><trkpt lon="5.875824" lat="51.03466"><ele>29.4</ele><time>2022-04-10T09:00:14.000Z</time></trkpt><trkpt lon="5.875806" lat="51.034728"><ele>29.4</ele><time>2022-04-10T09:00:15.000Z</time></trkpt><trkpt lon="5.875788" lat="51.034793"><ele>29.4</ele><time>2022-04-10T09:00:16.000Z</time></trkpt><trkpt lon="5.875768" lat="51.034859"><ele>29.4</ele><time>2022-04-10T09:00:17.000Z</time></trkpt><trkpt lon="5.875747" lat="51.034926"><ele>29.4</ele><time>2022-04-10T09:00:18.000Z</time></trkpt><trkpt lon="5.875725" lat="51.034992"><ele>29.2</ele><time>2022-04-10T09:00:19.000Z</time></trkpt><trkpt lon="5.875699" lat="51.03506"><ele>29.2</ele><time>2022-04-10T09:00:20.000Z</time></trkpt><trkpt lon="5.875673" lat="51.035126"><ele>29</ele><time>2022-04-10T09:00:21.000Z</time></trkpt><trkpt lon="5.875647" lat="51.035193"><ele>29</ele><time>2022-04-10T09:00:22.000Z</time></trkpt><trkpt lon="5.875618" lat="51.035258"><ele>29</ele><time>2022-04-10T09:00:23.000Z</time></trkpt><trkpt lon="5.875586" lat="51.035323"><ele>29</ele><time>2022-04-10T09:00:24.000Z</time></trkpt><trkpt lon="5.875554" lat="51.035388"><ele>29</ele><time>2022-04-10T09:00:25.000Z</time></trkpt><trkpt lon="5.87552" lat="51.035453"><ele>29</ele><time>2022-04-10T09:00:26.000Z</time></trkpt><trkpt lon="5.875485" lat="51.035517"><ele>29</ele><time>2022-04-10T09:00:27.000Z</time></trkpt><trkpt lon="5.875447" lat="51.035582"><ele>29</ele><time>2022-04-10T09:00:28.000Z</time></trkpt><trkpt lon="5.875407" lat="51.035646"><ele>29</ele><time>2022-04-10T09:00:29.000Z</time></trkpt><trkpt lon="5.875368" lat="51.035707"><ele>29</ele><time>2022-04-10T09:00:30.000Z</time></trkpt><trkpt lon="5.875328" lat="51.035771"><ele>29.2</ele><time>2022-04-10T09:00:31.000Z</time></trkpt><trkpt lon="5.875283" lat="51.035838"><ele>29.2</ele><time>2022-04-10T09:00:32.000Z</time></trkpt><trkpt lon="5.875237" lat="51.035902"><ele>29.2</ele><time>2022-04-10T09:00:33.000Z</time></trkpt><trkpt lon="5.875189" lat="51.035964"><ele>29.2</ele><time>2022-04-10T09:00:34.000Z</time></trkpt><trkpt lon="5.875141" lat="51.036027"><ele>29.2</ele><time>2022-04-10T09:00:35.000Z</time></trkpt><trkpt lon="5.875091" lat="51.036089"><ele>29.2</ele><time>2022-04-10T09:00:36.000Z</time></trkpt><trkpt lon="5.875039" lat="51.03615"><ele>29.2</ele><time>2022-04-10T09:00:37.000Z</time></trkpt><trkpt lon="5.87499" lat="51.036211"><ele>29.2</ele><time>2022-04-10T09:00:38.000Z</time></trkpt><trkpt lon="5.874942" lat="51.036276"><ele>29.2</ele><time>2022-04-10T09:00:39.000Z</time></trkpt><trkpt lon="5.874893" lat="51.036337"><ele>29</ele><time>2022-04-10T09:00:40.000Z</time></trkpt><trkpt lon="5.874845" lat="51.036398"><ele>29</ele><time>2022-04-10T09:00:41.000Z</time></trkpt><trkpt lon="5.874797" lat="51.036459"><ele>28.8</ele><time>2022-04-10T09:00:42.000Z</time></trkpt><trkpt lon="5.874749" lat="51.036518"><ele>28.8</ele><time>2022-04-10T09:00:43.000Z</time></trkpt><trkpt lon="5.8747" lat="51.036577"><ele>29</ele><time>2022-04-10T09:00:44.000Z</time></trkpt><trkpt lon="5.874653" lat="51.036637"><ele>29</ele><time>2022-04-10T09:00:45.000Z</time></trkpt><trkpt lon="5.874604" lat="51.036694"><ele>29</ele><time>2022-04-10T09:00:46.000Z</time></trkpt><trkpt lon="5.874555" lat="51.036752"><ele>29</ele><time>2022-04-10T09:00:47.000Z</time></trkpt><trkpt lon="5.874506" lat="51.036815"><ele>29</ele><time>2022-04-10T09:00:48.000Z</time></trkpt><trkpt lon="5.874458" lat="51.036884"><ele>29</ele><time>2022-04-10T09:00:49.000Z</time></trkpt><trkpt lon="5.874407" lat="51.036953"><ele>29</ele><time>2022-04-10T09:00:50.000Z</time></trkpt><trkpt lon="5.874356" lat="51.03702"><ele>29</ele><time>2022-04-10T09:00:51.000Z</time></trkpt><trkpt lon="5.874304" lat="51.037085"><ele>29</ele><time>2022-04-10T09:00:52.000Z</time></trkpt><trkpt lon="5.874255" lat="51.037146"><ele>29</ele><time>2022-04-10T09:00:53.000Z</time></trkpt><trkpt lon="5.874205" lat="51.037211"><ele>29</ele><time>2022-04-10T09:00:54.000Z</time></trkpt><trkpt lon="5.874157" lat="51.037275"><ele>29</ele><time>2022-04-10T09:00:55.000Z</time></trkpt><trkpt lon="5.874108" lat="51.037339"><ele>28.8</ele><time>2022-04-10T09:00:56.000Z</time></trkpt><trkpt lon="5.874059" lat="51.037401"><ele>28.8</ele><time>2022-04-10T09:00:57.000Z</time></trkpt><trkpt lon="5.87401" lat="51.037466"><ele>28.6</ele><time>2022-04-10T09:00:58.000Z</time></trkpt><trkpt lon="5.873961" lat="51.037528"><ele>28.6</ele><time>2022-04-10T09:00:59.000Z</time></trkpt><trkpt lon="5.873911" lat="51.037592"><ele>28.6</ele><time>2022-04-10T09:01:00.000Z</time></trkpt><trkpt lon="5.873862" lat="51.037652"><ele>28.6</ele><time>2022-04-10T09:01:01.000Z</time></trkpt><trkpt lon="5.873812" lat="51.037715"><ele>28.6</ele><time>2022-04-10T09:01:02.000Z</time></trkpt><trkpt lon="5.873763" lat="51.037779"><ele>28.8</ele><time>2022-04-10T09:01:03.000Z</time></trkpt><trkpt lon="5.873713" lat="51.037839"><ele>28.8</ele><time>2022-04-10T09:01:04.000Z</time></trkpt><trkpt lon="5.873663" lat="51.037901"><ele>28.8</ele><time>2022-04-10T09:01:05.000Z</time></trkpt><trkpt lon="5.873614" lat="51.037963"><ele>28.8</ele><time>2022-04-10T09:01:06.000Z</time></trkpt><trkpt lon="5.873565" lat="51.038026"><ele>28.8</ele><time>2022-04-10T09:01:07.000Z</time></trkpt><trkpt lon="5.873515" lat="51.038088"><ele>28.8</ele><time>2022-04-10T09:01:08.000Z</time></trkpt><trkpt lon="5.873464" lat="51.03815"><ele>28.8</ele><time>2022-04-10T09:01:09.000Z</time></trkpt><trkpt lon="5.873414" lat="51.038214"><ele>28.8</ele><time>2022-04-10T09:01:10.000Z</time></trkpt><trkpt lon="5.873362" lat="51.038276"><ele>28.8</ele><time>2022-04-10T09:01:11.000Z</time></trkpt><trkpt lon="5.873311" lat="51.03834"><ele>28.6</ele><time>2022-04-10T09:01:12.000Z</time></trkpt><trkpt lon="5.873261" lat="51.038401"><ele>28.6</ele><time>2022-04-10T09:01:13.000Z</time></trkpt><trkpt lon="5.873212" lat="51.038465"><ele>28.4</ele><time>2022-04-10T09:01:14.000Z</time></trkpt><trkpt lon="5.873163" lat="51.038526"><ele>28.4</ele><time>2022-04-10T09:01:15.000Z</time></trkpt><trkpt lon="5.873113" lat="51.038591"><ele>28.6</ele><time>2022-04-10T09:01:16.000Z</time></trkpt><trkpt lon="5.873065" lat="51.038652"><ele>28.6</ele><time>2022-04-10T09:01:17.000Z</time></trkpt><trkpt lon="5.873015" lat="51.038712"><ele>28.6</ele><time>2022-04-10T09:01:18.000Z</time></trkpt><trkpt lon="5.872962" lat="51.038778"><ele>28.6</ele><time>2022-04-10T09:01:19.000Z</time></trkpt><trkpt lon="5.872911" lat="51.038839"><ele>28.6</ele><time>2022-04-10T09:01:20.000Z</time></trkpt><trkpt lon="5.872861" lat="51.038901"><ele>28.4</ele><time>2022-04-10T09:01:21.000Z</time></trkpt><trkpt lon="5.872811" lat="51.038965"><ele>28.4</ele><time>2022-04-10T09:01:22.000Z</time></trkpt><trkpt lon="5.872759" lat="51.039025"><ele>28.4</ele><time>2022-04-10T09:01:23.000Z</time></trkpt><trkpt lon="5.872706" lat="51.039087"><ele>28.4</ele><time>2022-04-10T09:01:24.000Z</time></trkpt><trkpt lon="5.872649" lat="51.039151"><ele>28.6</ele><time>2022-04-10T09:01:25.000Z</time></trkpt><trkpt lon="5.872592" lat="51.039209"><ele>28.6</ele><time>2022-04-10T09:01:26.000Z</time></trkpt><trkpt lon="5.872535" lat="51.039271"><ele>28.4</ele><time>2022-04-10T09:01:27.000Z</time></trkpt><trkpt lon="5.872474" lat="51.039335"><ele>28.4</ele><time>2022-04-10T09:01:28.000Z</time></trkpt><trkpt lon="5.872413" lat="51.039396"><ele>28.4</ele><time>2022-04-10T09:01:29.000Z</time></trkpt><trkpt lon="5.872353" lat="51.039456"><ele>28.6</ele><time>2022-04-10T09:01:30.000Z</time></trkpt><trkpt lon="5.872292" lat="51.039514"><ele>28.6</ele><time>2022-04-10T09:01:31.000Z</time></trkpt><trkpt lon="5.87223" lat="51.039575"><ele>28.6</ele><time>2022-04-10T09:01:32.000Z</time></trkpt><trkpt lon="5.872169" lat="51.039633"><ele>28.8</ele><time>2022-04-10T09:01:33.000Z</time></trkpt><trkpt lon="5.872109" lat="51.039693"><ele>28.8</ele><time>2022-04-10T09:01:34.000Z</time></trkpt><trkpt lon="5.87205" lat="51.039754"><ele>28.6</ele><time>2022-04-10T09:01:35.000Z</time></trkpt><trkpt lon="5.871993" lat="51.03981"><ele>28.6</ele><time>2022-04-10T09:01:36.000Z</time></trkpt><trkpt lon="5.871933" lat="51.039869"><ele>28.6</ele><time>2022-04-10T09:01:37.000Z</time></trkpt><trkpt lon="5.871871" lat="51.03993"><ele>28.4</ele><time>2022-04-10T09:01:38.000Z</time></trkpt><trkpt lon="5.871809" lat="51.039991"><ele>28.4</ele><time>2022-04-10T09:01:39.000Z</time></trkpt><trkpt lon="5.871748" lat="51.040053"><ele>28.2</ele><time>2022-04-10T09:01:40.000Z</time></trkpt><trkpt lon="5.871689" lat="51.040116"><ele>28.2</ele><time>2022-04-10T09:01:41.000Z</time></trkpt><trkpt lon="5.871629" lat="51.040174"><ele>28</ele><time>2022-04-10T09:01:42.000Z</time></trkpt><trkpt lon="5.871571" lat="51.040235"><ele>28.2</ele><time>2022-04-10T09:01:43.000Z</time></trkpt><trkpt lon="5.871512" lat="51.040296"><ele>28.2</ele><time>2022-04-10T09:01:44.000Z</time></trkpt><trkpt lon="5.871454" lat="51.040357"><ele>28.2</ele><time>2022-04-10T09:01:45.000Z</time></trkpt><trkpt lon="5.871396" lat="51.040417"><ele>28.2</ele><time>2022-04-10T09:01:46.000Z</time></trkpt><trkpt lon="5.871338" lat="51.040473"><ele>28.2</ele><time>2022-04-10T09:01:47.000Z</time></trkpt><trkpt lon="5.871278" lat="51.040532"><ele>28.2</ele><time>2022-04-10T09:01:48.000Z</time></trkpt><trkpt lon="5.871224" lat="51.040587"><ele>28</ele><time>2022-04-10T09:01:49.000Z</time></trkpt><trkpt lon="5.871172" lat="51.04064"><ele>28</ele><time>2022-04-10T09:01:50.000Z</time></trkpt><trkpt lon="5.871124" lat="51.040689"><ele>28</ele><time>2022-04-10T09:01:51.000Z</time></trkpt><trkpt lon="5.871078" lat="51.040735"><ele>28</ele><time>2022-04-10T09:01:52.000Z</time></trkpt><trkpt lon="5.871033" lat="51.040779"><ele>28</ele><time>2022-04-10T09:01:53.000Z</time></trkpt><trkpt lon="5.870992" lat="51.040821"><ele>28</ele><time>2022-04-10T09:01:54.000Z</time></trkpt><trkpt lon="5.870962" lat="51.040862"><ele>28</ele><time>2022-04-10T09:01:55.000Z</time></trkpt><trkpt lon="5.870957" lat="51.040905"><ele>28</ele><time>2022-04-10T09:01:56.000Z</time></trkpt><trkpt lon="5.870985" lat="51.040946"><ele>28</ele><time>2022-04-10T09:01:57.000Z</time></trkpt><trkpt lon="5.87104" lat="51.040986"><ele>28</ele><time>2022-04-10T09:01:58.000Z</time></trkpt><trkpt lon="5.871116" lat="51.041032"><ele>28.2</ele><time>2022-04-10T09:01:59.000Z</time></trkpt><trkpt lon="5.871202" lat="51.041078"><ele>28.2</ele><time>2022-04-10T09:02:00.000Z</time></trkpt><trkpt lon="5.871292" lat="51.041123"><ele>28</ele><time>2022-04-10T09:02:01.000Z</time></trkpt><trkpt lon="5.871385" lat="51.04117"><ele>28</ele><time>2022-04-10T09:02:02.000Z</time></trkpt><trkpt lon="5.871477" lat="51.041216"><ele>28</ele><time>2022-04-10T09:02:03.000Z</time></trkpt><trkpt lon="5.871564" lat="51.041265"><ele>28</ele><time>2022-04-10T09:02:04.000Z</time></trkpt><trkpt lon="5.87165" lat="51.041316"><ele>28</ele><time>2022-04-10T09:02:05.000Z</time></trkpt><trkpt lon="5.871731" lat="51.041365"><ele>28</ele><time>2022-04-10T09:02:06.000Z</time></trkpt><trkpt lon="5.87181" lat="51.041414"><ele>28.2</ele><time>2022-04-10T09:02:07.000Z</time></trkpt><trkpt lon="5.871888" lat="51.04146"><ele>28.2</ele><time>2022-04-10T09:02:08.000Z</time></trkpt><trkpt lon="5.871964" lat="51.04151"><ele>28.2</ele><time>2022-04-10T09:02:09.000Z</time></trkpt><trkpt lon="5.872036" lat="51.041559"><ele>28.2</ele><time>2022-04-10T09:02:10.000Z</time></trkpt><trkpt lon="5.872104" lat="51.041604"><ele>28.2</ele><time>2022-04-10T09:02:11.000Z</time></trkpt><trkpt lon="5.872171" lat="51.041648"><ele>28.2</ele><time>2022-04-10T09:02:12.000Z</time></trkpt><trkpt lon="5.872238" lat="51.041691"><ele>28.2</ele><time>2022-04-10T09:02:13.000Z</time></trkpt><trkpt lon="5.872299" lat="51.04173"><ele>28.2</ele><time>2022-04-10T09:02:14.000Z</time></trkpt><trkpt lon="5.872355" lat="51.041765"><ele>28.2</ele><time>2022-04-10T09:02:15.000Z</time></trkpt><trkpt lon="5.872405" lat="51.041798"><ele>28.2</ele><time>2022-04-10T09:02:16.000Z</time></trkpt><trkpt lon="5.872452" lat="51.04183"><ele>28.2</ele><time>2022-04-10T09:02:17.000Z</time></trkpt><trkpt lon="5.872493" lat="51.041862"><ele>28.4</ele><time>2022-04-10T09:02:18.000Z</time></trkpt><trkpt lon="5.872531" lat="51.041889"><ele>28.4</ele><time>2022-04-10T09:02:19.000Z</time></trkpt><trkpt lon="5.872561" lat="51.041915"><ele>28.4</ele><time>2022-04-10T09:02:20.000Z</time></trkpt><trkpt lon="5.872589" lat="51.041937"><ele>28.6</ele><time>2022-04-10T09:02:21.000Z</time></trkpt><trkpt lon="5.872616" lat="51.041962"><ele>28.6</ele><time>2022-04-10T09:02:22.000Z</time></trkpt><trkpt lon="5.872642" lat="51.04199"><ele>28.6</ele><time>2022-04-10T09:02:23.000Z</time></trkpt><trkpt lon="5.872657" lat="51.042025"><ele>28.6</ele><time>2022-04-10T09:02:24.000Z</time></trkpt><trkpt lon="5.872652" lat="51.042065"><ele>28.6</ele><time>2022-04-10T09:02:25.000Z</time></trkpt><trkpt lon="5.872627" lat="51.042106"><ele>28.6</ele><time>2022-04-10T09:02:26.000Z</time></trkpt><trkpt lon="5.872583" lat="51.042146"><ele>28.4</ele><time>2022-04-10T09:02:27.000Z</time></trkpt><trkpt lon="5.872526" lat="51.042192"><ele>28.2</ele><time>2022-04-10T09:02:28.000Z</time></trkpt><trkpt lon="5.872459" lat="51.04224"><ele>28</ele><time>2022-04-10T09:02:29.000Z</time></trkpt><trkpt lon="5.872389" lat="51.042295"><ele>28</ele><time>2022-04-10T09:02:30.000Z</time></trkpt><trkpt lon="5.872316" lat="51.042355"><ele>28</ele><time>2022-04-10T09:02:31.000Z</time></trkpt><trkpt lon="5.87224" lat="51.042413"><ele>28</ele><time>2022-04-10T09:02:32.000Z</time></trkpt><trkpt lon="5.872163" lat="51.042471"><ele>28</ele><time>2022-04-10T09:02:33.000Z</time></trkpt><trkpt lon="5.872086" lat="51.04253"><ele>28</ele><time>2022-04-10T09:02:34.000Z</time></trkpt><trkpt lon="5.872008" lat="51.042589"><ele>28</ele><time>2022-04-10T09:02:35.000Z</time></trkpt><trkpt lon="5.871931" lat="51.04265"><ele>28</ele><time>2022-04-10T09:02:36.000Z</time></trkpt><trkpt lon="5.871858" lat="51.042711"><ele>28</ele><time>2022-04-10T09:02:37.000Z</time></trkpt><trkpt lon="5.871786" lat="51.042772"><ele>28</ele><time>2022-04-10T09:02:38.000Z</time></trkpt><trkpt lon="5.871718" lat="51.042831"><ele>27.8</ele><time>2022-04-10T09:02:39.000Z</time></trkpt><trkpt lon="5.871651" lat="51.042888"><ele>27.8</ele><time>2022-04-10T09:02:40.000Z</time></trkpt><trkpt lon="5.871584" lat="51.042945"><ele>27.8</ele><time>2022-04-10T09:02:41.000Z</time></trkpt><trkpt lon="5.871518" lat="51.042998"><ele>27.8</ele><time>2022-04-10T09:02:42.000Z</time></trkpt><trkpt lon="5.871455" lat="51.043053"><ele>28</ele><time>2022-04-10T09:02:43.000Z</time></trkpt><trkpt lon="5.871393" lat="51.04311"><ele>28</ele><time>2022-04-10T09:02:44.000Z</time></trkpt><trkpt lon="5.871328" lat="51.043167"><ele>27.8</ele><time>2022-04-10T09:02:45.000Z</time></trkpt><trkpt lon="5.871264" lat="51.043222"><ele>27.8</ele><time>2022-04-10T09:02:46.000Z</time></trkpt><trkpt lon="5.871202" lat="51.043282"><ele>27.6</ele><time>2022-04-10T09:02:47.000Z</time></trkpt><trkpt lon="5.871139" lat="51.04334"><ele>27.6</ele><time>2022-04-10T09:02:48.000Z</time></trkpt><trkpt lon="5.871076" lat="51.043397"><ele>27.6</ele><time>2022-04-10T09:02:49.000Z</time></trkpt><trkpt lon="5.871015" lat="51.043454"><ele>27.6</ele><time>2022-04-10T09:02:50.000Z</time></trkpt><trkpt lon="5.870955" lat="51.04351"><ele>27.6</ele><time>2022-04-10T09:02:51.000Z</time></trkpt><trkpt lon="5.870895" lat="51.043571"><ele>27.6</ele><time>2022-04-10T09:02:52.000Z</time></trkpt><trkpt lon="5.870836" lat="51.043629"><ele>27.6</ele><time>2022-04-10T09:02:53.000Z</time></trkpt><trkpt lon="5.870779" lat="51.043687"><ele>27.6</ele><time>2022-04-10T09:02:54.000Z</time></trkpt><trkpt lon="5.870722" lat="51.043748"><ele>27.4</ele><time>2022-04-10T09:02:55.000Z</time></trkpt><trkpt lon="5.870664" lat="51.043806"><ele>27.4</ele><time>2022-04-10T09:02:56.000Z</time></trkpt><trkpt lon="5.870608" lat="51.043866"><ele>27.4</ele><time>2022-04-10T09:02:57.000Z</time></trkpt><trkpt lon="5.870552" lat="51.043923"><ele>27.2</ele><time>2022-04-10T09:02:58.000Z</time></trkpt><trkpt lon="5.870497" lat="51.04398"><ele>27.4</ele><time>2022-04-10T09:02:59.000Z</time></trkpt><trkpt lon="5.870442" lat="51.044039"><ele>27.2</ele><time>2022-04-10T09:03:00.000Z</time></trkpt><trkpt lon="5.870388" lat="51.044098"><ele>27.4</ele><time>2022-04-10T09:03:01.000Z</time></trkpt><trkpt lon="5.870335" lat="51.044155"><ele>27.4</ele><time>2022-04-10T09:03:02.000Z</time></trkpt><trkpt lon="5.87028" lat="51.044217"><ele>27.2</ele><time>2022-04-10T09:03:03.000Z</time></trkpt><trkpt lon="5.870225" lat="51.044279"><ele>27.2</ele><time>2022-04-10T09:03:04.000Z</time></trkpt><trkpt lon="5.87017" lat="51.044339"><ele>27.2</ele><time>2022-04-10T09:03:05.000Z</time></trkpt><trkpt lon="5.870117" lat="51.044397"><ele>27.2</ele><time>2022-04-10T09:03:06.000Z</time></trkpt><trkpt lon="5.870064" lat="51.044458"><ele>27.2</ele><time>2022-04-10T09:03:07.000Z</time></trkpt><trkpt lon="5.870013" lat="51.044519"><ele>27.2</ele><time>2022-04-10T09:03:08.000Z</time></trkpt><trkpt lon="5.869965" lat="51.04458"><ele>27.2</ele><time>2022-04-10T09:03:09.000Z</time></trkpt><trkpt lon="5.869912" lat="51.044641"><ele>27.2</ele><time>2022-04-10T09:03:10.000Z</time></trkpt><trkpt lon="5.869859" lat="51.044704"><ele>27.2</ele><time>2022-04-10T09:03:11.000Z</time></trkpt><trkpt lon="5.869808" lat="51.044767"><ele>27.2</ele><time>2022-04-10T09:03:12.000Z</time></trkpt><trkpt lon="5.86976" lat="51.044827"><ele>27.2</ele><time>2022-04-10T09:03:13.000Z</time></trkpt><trkpt lon="5.869711" lat="51.044885"><ele>27.2</ele><time>2022-04-10T09:03:14.000Z</time></trkpt><trkpt lon="5.869661" lat="51.044947"><ele>27.2</ele><time>2022-04-10T09:03:15.000Z</time></trkpt><trkpt lon="5.869612" lat="51.045008"><ele>27.2</ele><time>2022-04-10T09:03:16.000Z</time></trkpt><trkpt lon="5.869563" lat="51.045072"><ele>27.2</ele><time>2022-04-10T09:03:17.000Z</time></trkpt><trkpt lon="5.869514" lat="51.045137"><ele>27.2</ele><time>2022-04-10T09:03:18.000Z</time></trkpt><trkpt lon="5.869466" lat="51.045198"><ele>27.2</ele><time>2022-04-10T09:03:19.000Z</time></trkpt><trkpt lon="5.869419" lat="51.04526"><ele>27.2</ele><time>2022-04-10T09:03:20.000Z</time></trkpt><trkpt lon="5.869373" lat="51.045326"><ele>27.2</ele><time>2022-04-10T09:03:21.000Z</time></trkpt><trkpt lon="5.869327" lat="51.04539"><ele>27.2</ele><time>2022-04-10T09:03:22.000Z</time></trkpt><trkpt lon="5.869283" lat="51.045454"><ele>27.2</ele><time>2022-04-10T09:03:23.000Z</time></trkpt><trkpt lon="5.869237" lat="51.04552"><ele>27.2</ele><time>2022-04-10T09:03:24.000Z</time></trkpt><trkpt lon="5.869192" lat="51.045585"><ele>27.2</ele><time>2022-04-10T09:03:25.000Z</time></trkpt><trkpt lon="5.869148" lat="51.045649"><ele>27</ele><time>2022-04-10T09:03:26.000Z</time></trkpt><trkpt lon="5.869105" lat="51.045714"><ele>27</ele><time>2022-04-10T09:03:27.000Z</time></trkpt><trkpt lon="5.869062" lat="51.045778"><ele>27</ele><time>2022-04-10T09:03:28.000Z</time></trkpt><trkpt lon="5.869018" lat="51.04584"><ele>27</ele><time>2022-04-10T09:03:29.000Z</time></trkpt><trkpt lon="5.868975" lat="51.045905"><ele>27</ele><time>2022-04-10T09:03:30.000Z</time></trkpt><trkpt lon="5.868934" lat="51.045969"><ele>27</ele><time>2022-04-10T09:03:31.000Z</time></trkpt><trkpt lon="5.868892" lat="51.046035"><ele>27</ele><time>2022-04-10T09:03:32.000Z</time></trkpt><trkpt lon="5.868851" lat="51.0461"><ele>27</ele><time>2022-04-10T09:03:33.000Z</time></trkpt><trkpt lon="5.868811" lat="51.046166"><ele>27</ele><time>2022-04-10T09:03:34.000Z</time></trkpt><trkpt lon="5.868771" lat="51.046229"><ele>27.2</ele><time>2022-04-10T09:03:35.000Z</time></trkpt><trkpt lon="5.86873" lat="51.046298"><ele>27.2</ele><time>2022-04-10T09:03:36.000Z</time></trkpt><trkpt lon="5.868692" lat="51.046364"><ele>27.2</ele><time>2022-04-10T09:03:37.000Z</time></trkpt><trkpt lon="5.868657" lat="51.046431"><ele>27.2</ele><time>2022-04-10T09:03:38.000Z</time></trkpt><trkpt lon="5.868624" lat="51.046496"><ele>27.2</ele><time>2022-04-10T09:03:39.000Z</time></trkpt><trkpt lon="5.868588" lat="51.046561"><ele>27.2</ele><time>2022-04-10T09:03:40.000Z</time></trkpt><trkpt lon="5.868552" lat="51.046627"><ele>27.2</ele><time>2022-04-10T09:03:41.000Z</time></trkpt><trkpt lon="5.868517" lat="51.046694"><ele>27.4</ele><time>2022-04-10T09:03:42.000Z</time></trkpt><trkpt lon="5.868482" lat="51.046759"><ele>27.6</ele><time>2022-04-10T09:03:43.000Z</time></trkpt><trkpt lon="5.868449" lat="51.046825"><ele>27.6</ele><time>2022-04-10T09:03:44.000Z</time></trkpt><trkpt lon="5.868416" lat="51.046892"><ele>27.6</ele><time>2022-04-10T09:03:45.000Z</time></trkpt><trkpt lon="5.868381" lat="51.046959"><ele>27.6</ele><time>2022-04-10T09:03:46.000Z</time></trkpt><trkpt lon="5.868349" lat="51.047026"><ele>27.6</ele><time>2022-04-10T09:03:47.000Z</time></trkpt><trkpt lon="5.868318" lat="51.047091"><ele>27.6</ele><time>2022-04-10T09:03:48.000Z</time></trkpt><trkpt lon="5.868286" lat="51.047157"><ele>27.8</ele><time>2022-04-10T09:03:49.000Z</time></trkpt><trkpt lon="5.868255" lat="51.047226"><ele>27.8</ele><time>2022-04-10T09:03:50.000Z</time></trkpt><trkpt lon="5.868225" lat="51.047294"><ele>27.8</ele><time>2022-04-10T09:03:51.000Z</time></trkpt><trkpt lon="5.868195" lat="51.047362"><ele>27.8</ele><time>2022-04-10T09:03:52.000Z</time></trkpt><trkpt lon="5.868168" lat="51.047428"><ele>27.8</ele><time>2022-04-10T09:03:53.000Z</time></trkpt><trkpt lon="5.868141" lat="51.047496"><ele>27.6</ele><time>2022-04-10T09:03:54.000Z</time></trkpt><trkpt lon="5.868114" lat="51.047565"><ele>27.6</ele><time>2022-04-10T09:03:55.000Z</time></trkpt><trkpt lon="5.868087" lat="51.047634"><ele>27.6</ele><time>2022-04-10T09:03:56.000Z</time></trkpt><trkpt lon="5.868058" lat="51.047701"><ele>27.6</ele><time>2022-04-10T09:03:57.000Z</time></trkpt><trkpt lon="5.868029" lat="51.047771"><ele>27.6</ele><time>2022-04-10T09:03:58.000Z</time></trkpt><trkpt lon="5.868003" lat="51.04784"><ele>27.6</ele><time>2022-04-10T09:03:59.000Z</time></trkpt><trkpt lon="5.867976" lat="51.047909"><ele>27.6</ele><time>2022-04-10T09:04:00.000Z</time></trkpt><trkpt lon="5.86795" lat="51.047978"><ele>27.6</ele><time>2022-04-10T09:04:01.000Z</time></trkpt><trkpt lon="5.867925" lat="51.048051"><ele>27.6</ele><time>2022-04-10T09:04:02.000Z</time></trkpt><trkpt lon="5.867902" lat="51.048122"><ele>27.8</ele><time>2022-04-10T09:04:03.000Z</time></trkpt><trkpt lon="5.86788" lat="51.048192"><ele>27.8</ele><time>2022-04-10T09:04:04.000Z</time></trkpt><trkpt lon="5.867857" lat="51.048263"><ele>27.8</ele><time>2022-04-10T09:04:05.000Z</time></trkpt><trkpt lon="5.867836" lat="51.048333"><ele>28</ele><time>2022-04-10T09:04:06.000Z</time></trkpt><trkpt lon="5.867814" lat="51.048401"><ele>28</ele><time>2022-04-10T09:04:07.000Z</time></trkpt><trkpt lon="5.867795" lat="51.048468"><ele>28</ele><time>2022-04-10T09:04:08.000Z</time></trkpt><trkpt lon="5.867775" lat="51.048535"><ele>28.2</ele><time>2022-04-10T09:04:09.000Z</time></trkpt><trkpt lon="5.867755" lat="51.048603"><ele>28.2</ele><time>2022-04-10T09:04:10.000Z</time></trkpt><trkpt lon="5.867736" lat="51.048671"><ele>28.2</ele><time>2022-04-10T09:04:11.000Z</time></trkpt><trkpt lon="5.867717" lat="51.04874"><ele>28.2</ele><time>2022-04-10T09:04:12.000Z</time></trkpt><trkpt lon="5.867698" lat="51.048809"><ele>28.2</ele><time>2022-04-10T09:04:13.000Z</time></trkpt><trkpt lon="5.86768" lat="51.048878"><ele>28.2</ele><time>2022-04-10T09:04:14.000Z</time></trkpt><trkpt lon="5.867662" lat="51.048951"><ele>28.2</ele><time>2022-04-10T09:04:15.000Z</time></trkpt><trkpt lon="5.867645" lat="51.049024"><ele>28</ele><time>2022-04-10T09:04:16.000Z</time></trkpt><trkpt lon="5.867629" lat="51.049095"><ele>28</ele><time>2022-04-10T09:04:17.000Z</time></trkpt><trkpt lon="5.867614" lat="51.049164"><ele>28</ele><time>2022-04-10T09:04:18.000Z</time></trkpt><trkpt lon="5.867599" lat="51.049231"><ele>28</ele><time>2022-04-10T09:04:19.000Z</time></trkpt><trkpt lon="5.867584" lat="51.0493"><ele>28</ele><time>2022-04-10T09:04:20.000Z</time></trkpt><trkpt lon="5.86757" lat="51.04937"><ele>28</ele><time>2022-04-10T09:04:21.000Z</time></trkpt><trkpt lon="5.867556" lat="51.049438"><ele>28</ele><time>2022-04-10T09:04:22.000Z</time></trkpt><trkpt lon="5.867541" lat="51.049506"><ele>28</ele><time>2022-04-10T09:04:23.000Z</time></trkpt><trkpt lon="5.867528" lat="51.049572"><ele>28</ele><time>2022-04-10T09:04:24.000Z</time></trkpt><trkpt lon="5.867515" lat="51.049641"><ele>28</ele><time>2022-04-10T09:04:25.000Z</time></trkpt><trkpt lon="5.867501" lat="51.049709"><ele>27.8</ele><time>2022-04-10T09:04:26.000Z</time></trkpt><trkpt lon="5.867488" lat="51.049776"><ele>27.8</ele><time>2022-04-10T09:04:27.000Z</time></trkpt><trkpt lon="5.867472" lat="51.049846"><ele>27.8</ele><time>2022-04-10T09:04:28.000Z</time></trkpt><trkpt lon="5.867458" lat="51.04991"><ele>27.6</ele><time>2022-04-10T09:04:29.000Z</time></trkpt><trkpt lon="5.867446" lat="51.049971"><ele>27.6</ele><time>2022-04-10T09:04:30.000Z</time></trkpt><trkpt lon="5.867433" lat="51.050031"><ele>27.6</ele><time>2022-04-10T09:04:31.000Z</time></trkpt><trkpt lon="5.86742" lat="51.050088"><ele>27.6</ele><time>2022-04-10T09:04:32.000Z</time></trkpt><trkpt lon="5.867406" lat="51.050151"><ele>27.4</ele><time>2022-04-10T09:04:33.000Z</time></trkpt><trkpt lon="5.867391" lat="51.050215"><ele>27.4</ele><time>2022-04-10T09:04:34.000Z</time></trkpt><trkpt lon="5.867377" lat="51.050281"><ele>27.4</ele><time>2022-04-10T09:04:35.000Z</time></trkpt><trkpt lon="5.867363" lat="51.05035"><ele>27.4</ele><time>2022-04-10T09:04:36.000Z</time></trkpt><trkpt lon="5.867347" lat="51.050419"><ele>27.2</ele><time>2022-04-10T09:04:37.000Z</time></trkpt><trkpt lon="5.867332" lat="51.050489"><ele>27.2</ele><time>2022-04-10T09:04:38.000Z</time></trkpt><trkpt lon="5.867316" lat="51.050561"><ele>27.2</ele><time>2022-04-10T09:04:39.000Z</time></trkpt><trkpt lon="5.867301" lat="51.050632"><ele>27.2</ele><time>2022-04-10T09:04:40.000Z</time></trkpt><trkpt lon="5.867283" lat="51.050708"><ele>27.2</ele><time>2022-04-10T09:04:41.000Z</time></trkpt><trkpt lon="5.86726" lat="51.050782"><ele>27.4</ele><time>2022-04-10T09:04:42.000Z</time></trkpt><trkpt lon="5.867229" lat="51.050854"><ele>27.2</ele><time>2022-04-10T09:04:43.000Z</time></trkpt><trkpt lon="5.867191" lat="51.050928"><ele>27.2</ele><time>2022-04-10T09:04:44.000Z</time></trkpt><trkpt lon="5.86715" lat="51.051002"><ele>27</ele><time>2022-04-10T09:04:45.000Z</time></trkpt><trkpt lon="5.867109" lat="51.051073"><ele>26.8</ele><time>2022-04-10T09:04:46.000Z</time></trkpt><trkpt lon="5.867069" lat="51.051149"><ele>26.6</ele><time>2022-04-10T09:04:47.000Z</time></trkpt><trkpt lon="5.86703" lat="51.051226"><ele>26.6</ele><time>2022-04-10T09:04:48.000Z</time></trkpt><trkpt lon="5.866993" lat="51.051303"><ele>26.6</ele><time>2022-04-10T09:04:49.000Z</time></trkpt><trkpt lon="5.866956" lat="51.051378"><ele>26.8</ele><time>2022-04-10T09:04:50.000Z</time></trkpt><trkpt lon="5.866917" lat="51.05145"><ele>26.8</ele><time>2022-04-10T09:04:51.000Z</time></trkpt><trkpt lon="5.866876" lat="51.051521"><ele>26.8</ele><time>2022-04-10T09:04:52.000Z</time></trkpt><trkpt lon="5.86683" lat="51.051589"><ele>26.8</ele><time>2022-04-10T09:04:53.000Z</time></trkpt><trkpt lon="5.866781" lat="51.051654"><ele>26.8</ele><time>2022-04-10T09:04:54.000Z</time></trkpt><trkpt lon="5.86673" lat="51.051717"><ele>26.8</ele><time>2022-04-10T09:04:55.000Z</time></trkpt><trkpt lon="5.866679" lat="51.051778"><ele>27</ele><time>2022-04-10T09:04:56.000Z</time></trkpt><trkpt lon="5.866626" lat="51.051835"><ele>27</ele><time>2022-04-10T09:04:57.000Z</time></trkpt><trkpt lon="5.866578" lat="51.051897"><ele>27</ele><time>2022-04-10T09:04:58.000Z</time></trkpt><trkpt lon="5.866535" lat="51.051958"><ele>27</ele><time>2022-04-10T09:04:59.000Z</time></trkpt><trkpt lon="5.866496" lat="51.05202"><ele>27</ele><time>2022-04-10T09:05:00.000Z</time></trkpt><trkpt lon="5.866457" lat="51.052085"><ele>27</ele><time>2022-04-10T09:05:01.000Z</time></trkpt><trkpt lon="5.866415" lat="51.052153"><ele>26.8</ele><time>2022-04-10T09:05:02.000Z</time></trkpt><trkpt lon="5.866376" lat="51.052219"><ele>26.8</ele><time>2022-04-10T09:05:03.000Z</time></trkpt><trkpt lon="5.866335" lat="51.052283"><ele>26.8</ele><time>2022-04-10T09:05:04.000Z</time></trkpt><trkpt lon="5.866291" lat="51.052347"><ele>26.8</ele><time>2022-04-10T09:05:05.000Z</time></trkpt><trkpt lon="5.866244" lat="51.052412"><ele>26.8</ele><time>2022-04-10T09:05:06.000Z</time></trkpt><trkpt lon="5.866197" lat="51.052474"><ele>26.8</ele><time>2022-04-10T09:05:07.000Z</time></trkpt><trkpt lon="5.866151" lat="51.052538"><ele>26.8</ele><time>2022-04-10T09:05:08.000Z</time></trkpt><trkpt lon="5.866103" lat="51.052603"><ele>26.8</ele><time>2022-04-10T09:05:09.000Z</time></trkpt><trkpt lon="5.866053" lat="51.052667"><ele>26.8</ele><time>2022-04-10T09:05:10.000Z</time></trkpt><trkpt lon="5.866002" lat="51.052729"><ele>26.8</ele><time>2022-04-10T09:05:11.000Z</time></trkpt><trkpt lon="5.865951" lat="51.05279"><ele>26.8</ele><time>2022-04-10T09:05:12.000Z</time></trkpt><trkpt lon="5.865902" lat="51.052852"><ele>26.8</ele><time>2022-04-10T09:05:13.000Z</time></trkpt><trkpt lon="5.865856" lat="51.052916"><ele>26.8</ele><time>2022-04-10T09:05:14.000Z</time></trkpt><trkpt lon="5.865811" lat="51.05298"><ele>26.8</ele><time>2022-04-10T09:05:15.000Z</time></trkpt><trkpt lon="5.865766" lat="51.053046"><ele>27</ele><time>2022-04-10T09:05:16.000Z</time></trkpt><trkpt lon="5.865717" lat="51.053115"><ele>27</ele><time>2022-04-10T09:05:17.000Z</time></trkpt><trkpt lon="5.865665" lat="51.053179"><ele>27</ele><time>2022-04-10T09:05:18.000Z</time></trkpt><trkpt lon="5.865608" lat="51.053244"><ele>27</ele><time>2022-04-10T09:05:19.000Z</time></trkpt><trkpt lon="5.865556" lat="51.053306"><ele>27</ele><time>2022-04-10T09:05:20.000Z</time></trkpt><trkpt lon="5.865507" lat="51.053369"><ele>27</ele><time>2022-04-10T09:05:21.000Z</time></trkpt><trkpt lon="5.865467" lat="51.053432"><ele>27</ele><time>2022-04-10T09:05:22.000Z</time></trkpt><trkpt lon="5.86544" lat="51.053501"><ele>27</ele><time>2022-04-10T09:05:23.000Z</time></trkpt><trkpt lon="5.865424" lat="51.053571"><ele>27</ele><time>2022-04-10T09:05:24.000Z</time></trkpt><trkpt lon="5.865414" lat="51.053644"><ele>27</ele><time>2022-04-10T09:05:25.000Z</time></trkpt><trkpt lon="5.865403" lat="51.053719"><ele>26.8</ele><time>2022-04-10T09:05:26.000Z</time></trkpt><trkpt lon="5.865386" lat="51.053792"><ele>26.6</ele><time>2022-04-10T09:05:27.000Z</time></trkpt><trkpt lon="5.865353" lat="51.053864"><ele>26.4</ele><time>2022-04-10T09:05:28.000Z</time></trkpt><trkpt lon="5.865302" lat="51.053931"><ele>26.4</ele><time>2022-04-10T09:05:29.000Z</time></trkpt><trkpt lon="5.865242" lat="51.053995"><ele>26.4</ele><time>2022-04-10T09:05:30.000Z</time></trkpt><trkpt lon="5.865177" lat="51.054054"><ele>26.4</ele><time>2022-04-10T09:05:31.000Z</time></trkpt><trkpt lon="5.865104" lat="51.054111"><ele>26.4</ele><time>2022-04-10T09:05:32.000Z</time></trkpt><trkpt lon="5.865024" lat="51.054164"><ele>26.4</ele><time>2022-04-10T09:05:33.000Z</time></trkpt><trkpt lon="5.864941" lat="51.054218"><ele>26.4</ele><time>2022-04-10T09:05:34.000Z</time></trkpt><trkpt lon="5.864859" lat="51.054271"><ele>26.4</ele><time>2022-04-10T09:05:35.000Z</time></trkpt><trkpt lon="5.864778" lat="51.054324"><ele>26.4</ele><time>2022-04-10T09:05:36.000Z</time></trkpt><trkpt lon="5.864697" lat="51.054378"><ele>26.4</ele><time>2022-04-10T09:05:37.000Z</time></trkpt><trkpt lon="5.864621" lat="51.054434"><ele>26.4</ele><time>2022-04-10T09:05:38.000Z</time></trkpt><trkpt lon="5.864552" lat="51.054495"><ele>26.6</ele><time>2022-04-10T09:05:39.000Z</time></trkpt><trkpt lon="5.864491" lat="51.054555"><ele>26.6</ele><time>2022-04-10T09:05:40.000Z</time></trkpt><trkpt lon="5.864433" lat="51.054617"><ele>26.6</ele><time>2022-04-10T09:05:41.000Z</time></trkpt><trkpt lon="5.864378" lat="51.054678"><ele>26.6</ele><time>2022-04-10T09:05:42.000Z</time></trkpt><trkpt lon="5.864321" lat="51.054739"><ele>26.6</ele><time>2022-04-10T09:05:43.000Z</time></trkpt><trkpt lon="5.864267" lat="51.0548"><ele>26.6</ele><time>2022-04-10T09:05:44.000Z</time></trkpt><trkpt lon="5.864212" lat="51.054861"><ele>26.6</ele><time>2022-04-10T09:05:45.000Z</time></trkpt><trkpt lon="5.864156" lat="51.054922"><ele>26.6</ele><time>2022-04-10T09:05:46.000Z</time></trkpt><trkpt lon="5.864101" lat="51.054982"><ele>26.6</ele><time>2022-04-10T09:05:47.000Z</time></trkpt><trkpt lon="5.864046" lat="51.05504"><ele>26.8</ele><time>2022-04-10T09:05:48.000Z</time></trkpt><trkpt lon="5.863989" lat="51.055102"><ele>26.8</ele><time>2022-04-10T09:05:49.000Z</time></trkpt><trkpt lon="5.863933" lat="51.055166"><ele>27</ele><time>2022-04-10T09:05:50.000Z</time></trkpt><trkpt lon="5.863878" lat="51.055228"><ele>27</ele><time>2022-04-10T09:05:51.000Z</time></trkpt><trkpt lon="5.863823" lat="51.055293"><ele>27.2</ele><time>2022-04-10T09:05:52.000Z</time></trkpt><trkpt lon="5.86377" lat="51.055358"><ele>27</ele><time>2022-04-10T09:05:53.000Z</time></trkpt><trkpt lon="5.863717" lat="51.055423"><ele>27</ele><time>2022-04-10T09:05:54.000Z</time></trkpt><trkpt lon="5.863662" lat="51.055487"><ele>27</ele><time>2022-04-10T09:05:55.000Z</time></trkpt><trkpt lon="5.863608" lat="51.055551"><ele>26.8</ele><time>2022-04-10T09:05:56.000Z</time></trkpt><trkpt lon="5.863554" lat="51.055612"><ele>26.8</ele><time>2022-04-10T09:05:57.000Z</time></trkpt><trkpt lon="5.863505" lat="51.055672"><ele>26.8</ele><time>2022-04-10T09:05:58.000Z</time></trkpt><trkpt lon="5.863457" lat="51.055725"><ele>26.8</ele><time>2022-04-10T09:05:59.000Z</time></trkpt><trkpt lon="5.863414" lat="51.055777"><ele>26.8</ele><time>2022-04-10T09:06:00.000Z</time></trkpt><trkpt lon="5.863375" lat="51.055824"><ele>26.8</ele><time>2022-04-10T09:06:01.000Z</time></trkpt><trkpt lon="5.863337" lat="51.055864"><ele>26.8</ele><time>2022-04-10T09:06:02.000Z</time></trkpt><trkpt lon="5.863303" lat="51.055898"><ele>26.8</ele><time>2022-04-10T09:06:03.000Z</time></trkpt><trkpt lon="5.863267" lat="51.055924"><ele>26.6</ele><time>2022-04-10T09:06:04.000Z</time></trkpt><trkpt lon="5.863223" lat="51.055937"><ele>26.6</ele><time>2022-04-10T09:06:05.000Z</time></trkpt><trkpt lon="5.863175" lat="51.055944"><ele>26.6</ele><time>2022-04-10T09:06:06.000Z</time></trkpt><trkpt lon="5.863128" lat="51.055947"><ele>26.6</ele><time>2022-04-10T09:06:07.000Z</time></trkpt><trkpt lon="5.863078" lat="51.055953"><ele>26.6</ele><time>2022-04-10T09:06:08.000Z</time></trkpt><trkpt lon="5.863034" lat="51.055967"><ele>26.6</ele><time>2022-04-10T09:06:09.000Z</time></trkpt><trkpt lon="5.863008" lat="51.055995"><ele>26.6</ele><time>2022-04-10T09:06:10.000Z</time></trkpt><trkpt lon="5.863004" lat="51.056036"><ele>26.8</ele><time>2022-04-10T09:06:11.000Z</time></trkpt><trkpt lon="5.863006" lat="51.056089"><ele>26.8</ele><time>2022-04-10T09:06:12.000Z</time></trkpt><trkpt lon="5.863009" lat="51.056151"><ele>26.6</ele><time>2022-04-10T09:06:13.000Z</time></trkpt><trkpt lon="5.863014" lat="51.056218"><ele>26.8</ele><time>2022-04-10T09:06:14.000Z</time></trkpt><trkpt lon="5.86302" lat="51.05629"><ele>26.8</ele><time>2022-04-10T09:06:15.000Z</time></trkpt><trkpt lon="5.863024" lat="51.056363"><ele>26.8</ele><time>2022-04-10T09:06:16.000Z</time></trkpt><trkpt lon="5.863027" lat="51.056436"><ele>26.6</ele><time>2022-04-10T09:06:17.000Z</time></trkpt><trkpt lon="5.863026" lat="51.056512"><ele>26.6</ele><time>2022-04-10T09:06:18.000Z</time></trkpt><trkpt lon="5.863021" lat="51.056585"><ele>26.8</ele><time>2022-04-10T09:06:19.000Z</time></trkpt><trkpt lon="5.863015" lat="51.056658"><ele>26.8</ele><time>2022-04-10T09:06:20.000Z</time></trkpt><trkpt lon="5.863008" lat="51.056732"><ele>26.8</ele><time>2022-04-10T09:06:21.000Z</time></trkpt><trkpt lon="5.863001" lat="51.056802"><ele>26.8</ele><time>2022-04-10T09:06:22.000Z</time></trkpt><trkpt lon="5.862995" lat="51.056873"><ele>26.6</ele><time>2022-04-10T09:06:23.000Z</time></trkpt><trkpt lon="5.86299" lat="51.056942"><ele>26.8</ele><time>2022-04-10T09:06:24.000Z</time></trkpt><trkpt lon="5.862984" lat="51.057009"><ele>26.8</ele><time>2022-04-10T09:06:25.000Z</time></trkpt><trkpt lon="5.862978" lat="51.057074"><ele>26.8</ele><time>2022-04-10T09:06:26.000Z</time></trkpt><trkpt lon="5.862972" lat="51.057143"><ele>26.8</ele><time>2022-04-10T09:06:27.000Z</time></trkpt><trkpt lon="5.862966" lat="51.057208"><ele>26.8</ele><time>2022-04-10T09:06:28.000Z</time></trkpt><trkpt lon="5.862959" lat="51.057274"><ele>26.8</ele><time>2022-04-10T09:06:29.000Z</time></trkpt><trkpt lon="5.862953" lat="51.057342"><ele>26.8</ele><time>2022-04-10T09:06:30.000Z</time></trkpt><trkpt lon="5.862947" lat="51.057406"><ele>26.8</ele><time>2022-04-10T09:06:31.000Z</time></trkpt><trkpt lon="5.862942" lat="51.057472"><ele>26.8</ele><time>2022-04-10T09:06:32.000Z</time></trkpt><trkpt lon="5.862937" lat="51.057539"><ele>26.6</ele><time>2022-04-10T09:06:33.000Z</time></trkpt><trkpt lon="5.86293" lat="51.057604"><ele>26.6</ele><time>2022-04-10T09:06:34.000Z</time></trkpt><trkpt lon="5.862923" lat="51.05767"><ele>26.6</ele><time>2022-04-10T09:06:35.000Z</time></trkpt><trkpt lon="5.862917" lat="51.057736"><ele>26.6</ele><time>2022-04-10T09:06:36.000Z</time></trkpt><trkpt lon="5.86291" lat="51.057798"><ele>26.6</ele><time>2022-04-10T09:06:37.000Z</time></trkpt><trkpt lon="5.862903" lat="51.057863"><ele>26.6</ele><time>2022-04-10T09:06:38.000Z</time></trkpt><trkpt lon="5.862897" lat="51.057929"><ele>26.6</ele><time>2022-04-10T09:06:39.000Z</time></trkpt><trkpt lon="5.86289" lat="51.057993"><ele>26.6</ele><time>2022-04-10T09:06:40.000Z</time></trkpt><trkpt lon="5.862883" lat="51.058055"><ele>26.6</ele><time>2022-04-10T09:06:41.000Z</time></trkpt><trkpt lon="5.862877" lat="51.058117"><ele>26.6</ele><time>2022-04-10T09:06:42.000Z</time></trkpt><trkpt lon="5.862871" lat="51.058173"><ele>26.6</ele><time>2022-04-10T09:06:43.000Z</time></trkpt><trkpt lon="5.862862" lat="51.058228"><ele>26.6</ele><time>2022-04-10T09:06:44.000Z</time></trkpt><trkpt lon="5.862849" lat="51.058286"><ele>26.6</ele><time>2022-04-10T09:06:45.000Z</time></trkpt><trkpt lon="5.862832" lat="51.058344"><ele>26.6</ele><time>2022-04-10T09:06:46.000Z</time></trkpt><trkpt lon="5.862814" lat="51.058404"><ele>26.6</ele><time>2022-04-10T09:06:47.000Z</time></trkpt><trkpt lon="5.862798" lat="51.058465"><ele>26.6</ele><time>2022-04-10T09:06:48.000Z</time></trkpt><trkpt lon="5.862787" lat="51.058521"><ele>26.6</ele><time>2022-04-10T09:06:49.000Z</time></trkpt><trkpt lon="5.862772" lat="51.058576"><ele>26.6</ele><time>2022-04-10T09:06:50.000Z</time></trkpt><trkpt lon="5.862756" lat="51.058621"><ele>26.8</ele><time>2022-04-10T09:06:51.000Z</time></trkpt><trkpt lon="5.862743" lat="51.058666"><ele>26.8</ele><time>2022-04-10T09:06:52.000Z</time></trkpt><trkpt lon="5.862734" lat="51.058708"><ele>26.6</ele><time>2022-04-10T09:06:53.000Z</time></trkpt><trkpt lon="5.862733" lat="51.058751"><ele>26.6</ele><time>2022-04-10T09:06:54.000Z</time></trkpt><trkpt lon="5.862738" lat="51.058798"><ele>26.6</ele><time>2022-04-10T09:06:55.000Z</time></trkpt><trkpt lon="5.862734" lat="51.058847"><ele>26.6</ele><time>2022-04-10T09:06:56.000Z</time></trkpt><trkpt lon="5.862714" lat="51.058896"><ele>26.6</ele><time>2022-04-10T09:06:57.000Z</time></trkpt><trkpt lon="5.862684" lat="51.058942"><ele>26.6</ele><time>2022-04-10T09:06:58.000Z</time></trkpt><trkpt lon="5.86265" lat="51.058989"><ele>26.6</ele><time>2022-04-10T09:06:59.000Z</time></trkpt><trkpt lon="5.862622" lat="51.059039"><ele>26.6</ele><time>2022-04-10T09:07:00.000Z</time></trkpt><trkpt lon="5.862599" lat="51.059089"><ele>26.6</ele><time>2022-04-10T09:07:01.000Z</time></trkpt><trkpt lon="5.862573" lat="51.059143"><ele>26.8</ele><time>2022-04-10T09:07:02.000Z</time></trkpt><trkpt lon="5.862536" lat="51.059201"><ele>27</ele><time>2022-04-10T09:07:03.000Z</time></trkpt><trkpt lon="5.862489" lat="51.059259"><ele>27</ele><time>2022-04-10T09:07:04.000Z</time></trkpt><trkpt lon="5.862434" lat="51.059319"><ele>27.2</ele><time>2022-04-10T09:07:05.000Z</time></trkpt><trkpt lon="5.862374" lat="51.059376"><ele>27.2</ele><time>2022-04-10T09:07:06.000Z</time></trkpt><trkpt lon="5.862306" lat="51.059434"><ele>27.2</ele><time>2022-04-10T09:07:07.000Z</time></trkpt><trkpt lon="5.862236" lat="51.05949"><ele>27.2</ele><time>2022-04-10T09:07:08.000Z</time></trkpt><trkpt lon="5.862166" lat="51.059543"><ele>27.2</ele><time>2022-04-10T09:07:09.000Z</time></trkpt><trkpt lon="5.862096" lat="51.059596"><ele>27.2</ele><time>2022-04-10T09:07:10.000Z</time></trkpt><trkpt lon="5.862024" lat="51.059648"><ele>27.2</ele><time>2022-04-10T09:07:11.000Z</time></trkpt><trkpt lon="5.861953" lat="51.059698"><ele>27.2</ele><time>2022-04-10T09:07:12.000Z</time></trkpt><trkpt lon="5.861882" lat="51.059748"><ele>27</ele><time>2022-04-10T09:07:13.000Z</time></trkpt><trkpt lon="5.86181" lat="51.059798"><ele>27</ele><time>2022-04-10T09:07:14.000Z</time></trkpt><trkpt lon="5.861735" lat="51.059847"><ele>26.8</ele><time>2022-04-10T09:07:15.000Z</time></trkpt><trkpt lon="5.86166" lat="51.059896"><ele>26.8</ele><time>2022-04-10T09:07:16.000Z</time></trkpt><trkpt lon="5.861586" lat="51.059946"><ele>26.8</ele><time>2022-04-10T09:07:17.000Z</time></trkpt><trkpt lon="5.861512" lat="51.059996"><ele>26.6</ele><time>2022-04-10T09:07:18.000Z</time></trkpt><trkpt lon="5.861436" lat="51.060046"><ele>26.6</ele><time>2022-04-10T09:07:19.000Z</time></trkpt><trkpt lon="5.861358" lat="51.060096"><ele>26.6</ele><time>2022-04-10T09:07:20.000Z</time></trkpt><trkpt lon="5.861276" lat="51.060148"><ele>26.4</ele><time>2022-04-10T09:07:21.000Z</time></trkpt><trkpt lon="5.861192" lat="51.060199"><ele>26.4</ele><time>2022-04-10T09:07:22.000Z</time></trkpt><trkpt lon="5.86111" lat="51.060251"><ele>26.4</ele><time>2022-04-10T09:07:23.000Z</time></trkpt><trkpt lon="5.861027" lat="51.060301"><ele>26.2</ele><time>2022-04-10T09:07:24.000Z</time></trkpt><trkpt lon="5.860947" lat="51.060351"><ele>26.2</ele><time>2022-04-10T09:07:25.000Z</time></trkpt><trkpt lon="5.860872" lat="51.060402"><ele>26.2</ele><time>2022-04-10T09:07:26.000Z</time></trkpt><trkpt lon="5.860795" lat="51.060455"><ele>26</ele><time>2022-04-10T09:07:27.000Z</time></trkpt><trkpt lon="5.860718" lat="51.060507"><ele>26</ele><time>2022-04-10T09:07:28.000Z</time></trkpt><trkpt lon="5.860637" lat="51.060558"><ele>25.8</ele><time>2022-04-10T09:07:29.000Z</time></trkpt><trkpt lon="5.860556" lat="51.060611"><ele>25.8</ele><time>2022-04-10T09:07:30.000Z</time></trkpt><trkpt lon="5.860477" lat="51.060664"><ele>25.8</ele><time>2022-04-10T09:07:31.000Z</time></trkpt><trkpt lon="5.860399" lat="51.060718"><ele>26</ele><time>2022-04-10T09:07:32.000Z</time></trkpt><trkpt lon="5.860322" lat="51.060771"><ele>26</ele><time>2022-04-10T09:07:33.000Z</time></trkpt><trkpt lon="5.860241" lat="51.060826"><ele>26</ele><time>2022-04-10T09:07:34.000Z</time></trkpt><trkpt lon="5.860159" lat="51.060882"><ele>25.8</ele><time>2022-04-10T09:07:35.000Z</time></trkpt><trkpt lon="5.860083" lat="51.060936"><ele>25.8</ele><time>2022-04-10T09:07:36.000Z</time></trkpt><trkpt lon="5.860009" lat="51.060993"><ele>25.8</ele><time>2022-04-10T09:07:37.000Z</time></trkpt><trkpt lon="5.859934" lat="51.061051"><ele>25.8</ele><time>2022-04-10T09:07:38.000Z</time></trkpt><trkpt lon="5.859864" lat="51.061108"><ele>25.8</ele><time>2022-04-10T09:07:39.000Z</time></trkpt><trkpt lon="5.859795" lat="51.06117"><ele>25.8</ele><time>2022-04-10T09:07:40.000Z</time></trkpt><trkpt lon="5.85973" lat="51.06123"><ele>25.8</ele><time>2022-04-10T09:07:41.000Z</time></trkpt><trkpt lon="5.859668" lat="51.061292"><ele>25.8</ele><time>2022-04-10T09:07:42.000Z</time></trkpt><trkpt lon="5.859608" lat="51.061353"><ele>25.8</ele><time>2022-04-10T09:07:43.000Z</time></trkpt><trkpt lon="5.859553" lat="51.061413"><ele>25.6</ele><time>2022-04-10T09:07:44.000Z</time></trkpt><trkpt lon="5.859497" lat="51.061473"><ele>25.6</ele><time>2022-04-10T09:07:45.000Z</time></trkpt><trkpt lon="5.859441" lat="51.061536"><ele>25.6</ele><time>2022-04-10T09:07:46.000Z</time></trkpt><trkpt lon="5.859391" lat="51.061598"><ele>25.6</ele><time>2022-04-10T09:07:47.000Z</time></trkpt><trkpt lon="5.859344" lat="51.061664"><ele>25.6</ele><time>2022-04-10T09:07:48.000Z</time></trkpt><trkpt lon="5.859297" lat="51.06173"><ele>25.6</ele><time>2022-04-10T09:07:49.000Z</time></trkpt><trkpt lon="5.859246" lat="51.061798"><ele>25.4</ele><time>2022-04-10T09:07:50.000Z</time></trkpt><trkpt lon="5.859199" lat="51.061868"><ele>25.4</ele><time>2022-04-10T09:07:51.000Z</time></trkpt><trkpt lon="5.859155" lat="51.061939"><ele>25.4</ele><time>2022-04-10T09:07:52.000Z</time></trkpt><trkpt lon="5.859115" lat="51.062008"><ele>25.4</ele><time>2022-04-10T09:07:53.000Z</time></trkpt><trkpt lon="5.859077" lat="51.062079"><ele>25.6</ele><time>2022-04-10T09:07:54.000Z</time></trkpt><trkpt lon="5.859039" lat="51.062149"><ele>25.6</ele><time>2022-04-10T09:07:55.000Z</time></trkpt><trkpt lon="5.859002" lat="51.062222"><ele>25.6</ele><time>2022-04-10T09:07:56.000Z</time></trkpt><trkpt lon="5.858967" lat="51.062295"><ele>25.6</ele><time>2022-04-10T09:07:57.000Z</time></trkpt><trkpt lon="5.858935" lat="51.062368"><ele>25.6</ele><time>2022-04-10T09:07:58.000Z</time></trkpt><trkpt lon="5.858905" lat="51.062439"><ele>25.6</ele><time>2022-04-10T09:07:59.000Z</time></trkpt><trkpt lon="5.858875" lat="51.062511"><ele>25.6</ele><time>2022-04-10T09:08:00.000Z</time></trkpt><trkpt lon="5.858846" lat="51.062583"><ele>25.6</ele><time>2022-04-10T09:08:01.000Z</time></trkpt><trkpt lon="5.858815" lat="51.062658"><ele>25.6</ele><time>2022-04-10T09:08:02.000Z</time></trkpt><trkpt lon="5.858785" lat="51.062731"><ele>25.6</ele><time>2022-04-10T09:08:03.000Z</time></trkpt><trkpt lon="5.858756" lat="51.062805"><ele>25.6</ele><time>2022-04-10T09:08:04.000Z</time></trkpt><trkpt lon="5.858727" lat="51.06288"><ele>25.6</ele><time>2022-04-10T09:08:05.000Z</time></trkpt><trkpt lon="5.858697" lat="51.062953"><ele>25.6</ele><time>2022-04-10T09:08:06.000Z</time></trkpt><trkpt lon="5.858668" lat="51.063023"><ele>25.6</ele><time>2022-04-10T09:08:07.000Z</time></trkpt><trkpt lon="5.858638" lat="51.063096"><ele>25.6</ele><time>2022-04-10T09:08:08.000Z</time></trkpt><trkpt lon="5.858606" lat="51.063169"><ele>25.6</ele><time>2022-04-10T09:08:09.000Z</time></trkpt><trkpt lon="5.858572" lat="51.06324"><ele>25.4</ele><time>2022-04-10T09:08:10.000Z</time></trkpt><trkpt lon="5.858536" lat="51.063309"><ele>25.4</ele><time>2022-04-10T09:08:11.000Z</time></trkpt><trkpt lon="5.858498" lat="51.063378"><ele>25.6</ele><time>2022-04-10T09:08:12.000Z</time></trkpt><trkpt lon="5.85846" lat="51.06345"><ele>25.4</ele><time>2022-04-10T09:08:13.000Z</time></trkpt><trkpt lon="5.858414" lat="51.063522"><ele>25.4</ele><time>2022-04-10T09:08:14.000Z</time></trkpt><trkpt lon="5.858356" lat="51.06359"><ele>25.4</ele><time>2022-04-10T09:08:15.000Z</time></trkpt><trkpt lon="5.858286" lat="51.063651"><ele>25.4</ele><time>2022-04-10T09:08:16.000Z</time></trkpt><trkpt lon="5.858211" lat="51.06371"><ele>25.4</ele><time>2022-04-10T09:08:17.000Z</time></trkpt><trkpt lon="5.858131" lat="51.063771"><ele>25.4</ele><time>2022-04-10T09:08:18.000Z</time></trkpt><trkpt lon="5.858054" lat="51.063828"><ele>25.4</ele><time>2022-04-10T09:08:19.000Z</time></trkpt><trkpt lon="5.857977" lat="51.063886"><ele>25.4</ele><time>2022-04-10T09:08:20.000Z</time></trkpt><trkpt lon="5.857899" lat="51.06394"><ele>25.4</ele><time>2022-04-10T09:08:21.000Z</time></trkpt><trkpt lon="5.857822" lat="51.063991"><ele>25.4</ele><time>2022-04-10T09:08:22.000Z</time></trkpt><trkpt lon="5.857745" lat="51.064045"><ele>25.4</ele><time>2022-04-10T09:08:23.000Z</time></trkpt><trkpt lon="5.857667" lat="51.064097"><ele>25.2</ele><time>2022-04-10T09:08:24.000Z</time></trkpt><trkpt lon="5.857595" lat="51.064147"><ele>25.2</ele><time>2022-04-10T09:08:25.000Z</time></trkpt><trkpt lon="5.857524" lat="51.064199"><ele>25</ele><time>2022-04-10T09:08:26.000Z</time></trkpt><trkpt lon="5.857451" lat="51.06425"><ele>25.2</ele><time>2022-04-10T09:08:27.000Z</time></trkpt><trkpt lon="5.857378" lat="51.064303"><ele>25.2</ele><time>2022-04-10T09:08:28.000Z</time></trkpt><trkpt lon="5.85731" lat="51.064355"><ele>25.2</ele><time>2022-04-10T09:08:29.000Z</time></trkpt><trkpt lon="5.857246" lat="51.064402"><ele>25.2</ele><time>2022-04-10T09:08:30.000Z</time></trkpt><trkpt lon="5.857182" lat="51.064453"><ele>25.4</ele><time>2022-04-10T09:08:31.000Z</time></trkpt><trkpt lon="5.857119" lat="51.064507"><ele>25.4</ele><time>2022-04-10T09:08:32.000Z</time></trkpt><trkpt lon="5.857055" lat="51.064564"><ele>25.2</ele><time>2022-04-10T09:08:33.000Z</time></trkpt><trkpt lon="5.856989" lat="51.064619"><ele>25.2</ele><time>2022-04-10T09:08:34.000Z</time></trkpt><trkpt lon="5.856923" lat="51.064679"><ele>25.2</ele><time>2022-04-10T09:08:35.000Z</time></trkpt><trkpt lon="5.856856" lat="51.064736"><ele>25.2</ele><time>2022-04-10T09:08:36.000Z</time></trkpt><trkpt lon="5.856789" lat="51.064793"><ele>25.4</ele><time>2022-04-10T09:08:37.000Z</time></trkpt><trkpt lon="5.856725" lat="51.06485"><ele>25.4</ele><time>2022-04-10T09:08:38.000Z</time></trkpt><trkpt lon="5.856667" lat="51.064905"><ele>25.4</ele><time>2022-04-10T09:08:39.000Z</time></trkpt><trkpt lon="5.856612" lat="51.064955"><ele>25.4</ele><time>2022-04-10T09:08:40.000Z</time></trkpt><trkpt lon="5.856565" lat="51.065003"><ele>25.4</ele><time>2022-04-10T09:08:41.000Z</time></trkpt><trkpt lon="5.856526" lat="51.065043"><ele>25.4</ele><time>2022-04-10T09:08:42.000Z</time></trkpt><trkpt lon="5.856489" lat="51.065084"><ele>25.4</ele><time>2022-04-10T09:08:43.000Z</time></trkpt><trkpt lon="5.856464" lat="51.06513"><ele>25.4</ele><time>2022-04-10T09:08:44.000Z</time></trkpt><trkpt lon="5.856445" lat="51.065176"><ele>25.4</ele><time>2022-04-10T09:08:45.000Z</time></trkpt><trkpt lon="5.856436" lat="51.065223"><ele>25.2</ele><time>2022-04-10T09:08:46.000Z</time></trkpt><trkpt lon="5.856437" lat="51.065278"><ele>25</ele><time>2022-04-10T09:08:47.000Z</time></trkpt><trkpt lon="5.856444" lat="51.065341"><ele>25.2</ele><time>2022-04-10T09:08:48.000Z</time></trkpt><trkpt lon="5.856454" lat="51.065405"><ele>25.4</ele><time>2022-04-10T09:08:49.000Z</time></trkpt><trkpt lon="5.856464" lat="51.065475"><ele>25.4</ele><time>2022-04-10T09:08:50.000Z</time></trkpt><trkpt lon="5.856471" lat="51.065545"><ele>25.4</ele><time>2022-04-10T09:08:51.000Z</time></trkpt><trkpt lon="5.856471" lat="51.065618"><ele>25.6</ele><time>2022-04-10T09:08:52.000Z</time></trkpt><trkpt lon="5.856466" lat="51.065691"><ele>25.6</ele><time>2022-04-10T09:08:53.000Z</time></trkpt><trkpt lon="5.856457" lat="51.065765"><ele>25.6</ele><time>2022-04-10T09:08:54.000Z</time></trkpt><trkpt lon="5.856442" lat="51.065834"><ele>25.6</ele><time>2022-04-10T09:08:55.000Z</time></trkpt><trkpt lon="5.856423" lat="51.065905"><ele>25.6</ele><time>2022-04-10T09:08:56.000Z</time></trkpt><trkpt lon="5.856402" lat="51.065974"><ele>25.6</ele><time>2022-04-10T09:08:57.000Z</time></trkpt><trkpt lon="5.856379" lat="51.066039"><ele>25.6</ele><time>2022-04-10T09:08:58.000Z</time></trkpt><trkpt lon="5.856357" lat="51.066105"><ele>25.8</ele><time>2022-04-10T09:08:59.000Z</time></trkpt><trkpt lon="5.856338" lat="51.066174"><ele>25.6</ele><time>2022-04-10T09:09:00.000Z</time></trkpt><trkpt lon="5.85632" lat="51.06624"><ele>25.6</ele><time>2022-04-10T09:09:01.000Z</time></trkpt><trkpt lon="5.856301" lat="51.066301"><ele>25.8</ele><time>2022-04-10T09:09:02.000Z</time></trkpt><trkpt lon="5.856281" lat="51.066362"><ele>25.8</ele><time>2022-04-10T09:09:03.000Z</time></trkpt><trkpt lon="5.85626" lat="51.066422"><ele>25.8</ele><time>2022-04-10T09:09:04.000Z</time></trkpt><trkpt lon="5.85624" lat="51.066479"><ele>25.6</ele><time>2022-04-10T09:09:05.000Z</time></trkpt><trkpt lon="5.856222" lat="51.066534"><ele>25.8</ele><time>2022-04-10T09:09:06.000Z</time></trkpt><trkpt lon="5.856203" lat="51.066584"><ele>25.8</ele><time>2022-04-10T09:09:07.000Z</time></trkpt><trkpt lon="5.856181" lat="51.066632"><ele>25.8</ele><time>2022-04-10T09:09:08.000Z</time></trkpt><trkpt lon="5.856153" lat="51.066673"><ele>26</ele><time>2022-04-10T09:09:09.000Z</time></trkpt><trkpt lon="5.856118" lat="51.066713"><ele>26</ele><time>2022-04-10T09:09:10.000Z</time></trkpt><trkpt lon="5.856084" lat="51.066747"><ele>26</ele><time>2022-04-10T09:09:11.000Z</time></trkpt><trkpt lon="5.856058" lat="51.066781"><ele>26</ele><time>2022-04-10T09:09:12.000Z</time></trkpt><trkpt lon="5.856042" lat="51.066811"><ele>26</ele><time>2022-04-10T09:09:13.000Z</time></trkpt><trkpt lon="5.856035" lat="51.066841"><ele>26</ele><time>2022-04-10T09:09:14.000Z</time></trkpt><trkpt lon="5.856035" lat="51.066869"><ele>26</ele><time>2022-04-10T09:09:15.000Z</time></trkpt><trkpt lon="5.856043" lat="51.0669"><ele>26</ele><time>2022-04-10T09:09:16.000Z</time></trkpt><trkpt lon="5.856059" lat="51.066937"><ele>25.8</ele><time>2022-04-10T09:09:17.000Z</time></trkpt><trkpt lon="5.856073" lat="51.066981"><ele>25.8</ele><time>2022-04-10T09:09:18.000Z</time></trkpt><trkpt lon="5.856074" lat="51.067029"><ele>25.8</ele><time>2022-04-10T09:09:19.000Z</time></trkpt><trkpt lon="5.856065" lat="51.067077"><ele>25.8</ele><time>2022-04-10T09:09:20.000Z</time></trkpt><trkpt lon="5.856052" lat="51.067131"><ele>25.8</ele><time>2022-04-10T09:09:21.000Z</time></trkpt><trkpt lon="5.856036" lat="51.067185"><ele>25.8</ele><time>2022-04-10T09:09:22.000Z</time></trkpt><trkpt lon="5.856015" lat="51.067242"><ele>25.8</ele><time>2022-04-10T09:09:23.000Z</time></trkpt><trkpt lon="5.855992" lat="51.067299"><ele>25.8</ele><time>2022-04-10T09:09:24.000Z</time></trkpt><trkpt lon="5.855969" lat="51.067356"><ele>25.6</ele><time>2022-04-10T09:09:25.000Z</time></trkpt><trkpt lon="5.855946" lat="51.067413"><ele>25.4</ele><time>2022-04-10T09:09:26.000Z</time></trkpt><trkpt lon="5.855927" lat="51.067466"><ele>25.4</ele><time>2022-04-10T09:09:27.000Z</time></trkpt><trkpt lon="5.855908" lat="51.067521"><ele>25.4</ele><time>2022-04-10T09:09:28.000Z</time></trkpt><trkpt lon="5.855888" lat="51.067578"><ele>25.4</ele><time>2022-04-10T09:09:29.000Z</time></trkpt><trkpt lon="5.855865" lat="51.067635"><ele>25.4</ele><time>2022-04-10T09:09:30.000Z</time></trkpt><trkpt lon="5.855841" lat="51.067694"><ele>25.4</ele><time>2022-04-10T09:09:31.000Z</time></trkpt><trkpt lon="5.855815" lat="51.067754"><ele>25.4</ele><time>2022-04-10T09:09:32.000Z</time></trkpt><trkpt lon="5.855783" lat="51.067817"><ele>25.4</ele><time>2022-04-10T09:09:33.000Z</time></trkpt><trkpt lon="5.855752" lat="51.067882"><ele>25.4</ele><time>2022-04-10T09:09:34.000Z</time></trkpt><trkpt lon="5.855723" lat="51.067946"><ele>25.4</ele><time>2022-04-10T09:09:35.000Z</time></trkpt><trkpt lon="5.855699" lat="51.068013"><ele>25.4</ele><time>2022-04-10T09:09:36.000Z</time></trkpt><trkpt lon="5.855677" lat="51.068085"><ele>25.4</ele><time>2022-04-10T09:09:37.000Z</time></trkpt><trkpt lon="5.855653" lat="51.068157"><ele>25.4</ele><time>2022-04-10T09:09:38.000Z</time></trkpt><trkpt lon="5.855629" lat="51.068228"><ele>25.4</ele><time>2022-04-10T09:09:39.000Z</time></trkpt><trkpt lon="5.855606" lat="51.068304"><ele>25.4</ele><time>2022-04-10T09:09:40.000Z</time></trkpt><trkpt lon="5.855584" lat="51.068377"><ele>25.4</ele><time>2022-04-10T09:09:41.000Z</time></trkpt><trkpt lon="5.855562" lat="51.068451"><ele>25.4</ele><time>2022-04-10T09:09:42.000Z</time></trkpt><trkpt lon="5.855537" lat="51.068524"><ele>25.4</ele><time>2022-04-10T09:09:43.000Z</time></trkpt><trkpt lon="5.855513" lat="51.068597"><ele>25.4</ele><time>2022-04-10T09:09:44.000Z</time></trkpt><trkpt lon="5.855491" lat="51.06867"><ele>25.4</ele><time>2022-04-10T09:09:45.000Z</time></trkpt><trkpt lon="5.855471" lat="51.068741"><ele>25.6</ele><time>2022-04-10T09:09:46.000Z</time></trkpt><trkpt lon="5.855451" lat="51.06881"><ele>25.6</ele><time>2022-04-10T09:09:47.000Z</time></trkpt><trkpt lon="5.855428" lat="51.068882"><ele>25.6</ele><time>2022-04-10T09:09:48.000Z</time></trkpt><trkpt lon="5.855406" lat="51.06895"><ele>25.6</ele><time>2022-04-10T09:09:49.000Z</time></trkpt><trkpt lon="5.855384" lat="51.06902"><ele>25.6</ele><time>2022-04-10T09:09:50.000Z</time></trkpt><trkpt lon="5.855361" lat="51.069092"><ele>25.6</ele><time>2022-04-10T09:09:51.000Z</time></trkpt><trkpt lon="5.855341" lat="51.069161"><ele>25.8</ele><time>2022-04-10T09:09:52.000Z</time></trkpt><trkpt lon="5.855319" lat="51.06923"><ele>25.8</ele><time>2022-04-10T09:09:53.000Z</time></trkpt><trkpt lon="5.855295" lat="51.069301"><ele>25.8</ele><time>2022-04-10T09:09:54.000Z</time></trkpt><trkpt lon="5.855272" lat="51.06937"><ele>25.8</ele><time>2022-04-10T09:09:55.000Z</time></trkpt><trkpt lon="5.855249" lat="51.06944"><ele>25.8</ele><time>2022-04-10T09:09:56.000Z</time></trkpt><trkpt lon="5.855227" lat="51.069512"><ele>25.8</ele><time>2022-04-10T09:09:57.000Z</time></trkpt><trkpt lon="5.855204" lat="51.069581"><ele>25.8</ele><time>2022-04-10T09:09:58.000Z</time></trkpt><trkpt lon="5.85518" lat="51.069652"><ele>25.8</ele><time>2022-04-10T09:09:59.000Z</time></trkpt><trkpt lon="5.855157" lat="51.069721"><ele>25.8</ele><time>2022-04-10T09:10:00.000Z</time></trkpt><trkpt lon="5.855135" lat="51.069794"><ele>25.8</ele><time>2022-04-10T09:10:01.000Z</time></trkpt><trkpt lon="5.855112" lat="51.069862"><ele>25.8</ele><time>2022-04-10T09:10:02.000Z</time></trkpt><trkpt lon="5.855086" lat="51.069932"><ele>25.8</ele><time>2022-04-10T09:10:03.000Z</time></trkpt><trkpt lon="5.855056" lat="51.070004"><ele>25.6</ele><time>2022-04-10T09:10:04.000Z</time></trkpt><trkpt lon="5.855027" lat="51.070072"><ele>25.6</ele><time>2022-04-10T09:10:05.000Z</time></trkpt><trkpt lon="5.854996" lat="51.070139"><ele>25.6</ele><time>2022-04-10T09:10:06.000Z</time></trkpt><trkpt lon="5.854963" lat="51.07021"><ele>25.6</ele><time>2022-04-10T09:10:07.000Z</time></trkpt><trkpt lon="5.854931" lat="51.070282"><ele>25.6</ele><time>2022-04-10T09:10:08.000Z</time></trkpt><trkpt lon="5.8549" lat="51.070349"><ele>25.6</ele><time>2022-04-10T09:10:09.000Z</time></trkpt><trkpt lon="5.854868" lat="51.070414"><ele>25.6</ele><time>2022-04-10T09:10:10.000Z</time></trkpt><trkpt lon="5.854837" lat="51.070474"><ele>25.6</ele><time>2022-04-10T09:10:11.000Z</time></trkpt><trkpt lon="5.854809" lat="51.070534"><ele>25.6</ele><time>2022-04-10T09:10:12.000Z</time></trkpt><trkpt lon="5.854783" lat="51.07059"><ele>25.6</ele><time>2022-04-10T09:10:13.000Z</time></trkpt><trkpt lon="5.854757" lat="51.070641"><ele>25.8</ele><time>2022-04-10T09:10:14.000Z</time></trkpt><trkpt lon="5.854723" lat="51.070688"><ele>25.6</ele><time>2022-04-10T09:10:15.000Z</time></trkpt><trkpt lon="5.854677" lat="51.070732"><ele>25.6</ele><time>2022-04-10T09:10:16.000Z</time></trkpt><trkpt lon="5.854619" lat="51.070773"><ele>25.6</ele><time>2022-04-10T09:10:17.000Z</time></trkpt><trkpt lon="5.854567" lat="51.070814"><ele>25.6</ele><time>2022-04-10T09:10:18.000Z</time></trkpt><trkpt lon="5.854527" lat="51.070866"><ele>25.6</ele><time>2022-04-10T09:10:19.000Z</time></trkpt><trkpt lon="5.85449" lat="51.070928"><ele>25.4</ele><time>2022-04-10T09:10:20.000Z</time></trkpt><trkpt lon="5.854448" lat="51.070996"><ele>25.2</ele><time>2022-04-10T09:10:21.000Z</time></trkpt><trkpt lon="5.85441" lat="51.071069"><ele>25</ele><time>2022-04-10T09:10:22.000Z</time></trkpt><trkpt lon="5.85437" lat="51.071142"><ele>24.8</ele><time>2022-04-10T09:10:23.000Z</time></trkpt><trkpt lon="5.854329" lat="51.071217"><ele>24.6</ele><time>2022-04-10T09:10:24.000Z</time></trkpt><trkpt lon="5.854284" lat="51.071295"><ele>24.2</ele><time>2022-04-10T09:10:25.000Z</time></trkpt><trkpt lon="5.854238" lat="51.07137"><ele>23.8</ele><time>2022-04-10T09:10:26.000Z</time></trkpt><trkpt lon="5.85419" lat="51.071441"><ele>23.4</ele><time>2022-04-10T09:10:27.000Z</time></trkpt><trkpt lon="5.854141" lat="51.07151"><ele>23</ele><time>2022-04-10T09:10:28.000Z</time></trkpt><trkpt lon="5.854094" lat="51.071583"><ele>22.8</ele><time>2022-04-10T09:10:29.000Z</time></trkpt><trkpt lon="5.854048" lat="51.071651"><ele>22.6</ele><time>2022-04-10T09:10:30.000Z</time></trkpt><trkpt lon="5.854001" lat="51.071714"><ele>22.6</ele><time>2022-04-10T09:10:31.000Z</time></trkpt><trkpt lon="5.853955" lat="51.071775"><ele>22.4</ele><time>2022-04-10T09:10:32.000Z</time></trkpt><trkpt lon="5.853915" lat="51.071837"><ele>22.4</ele><time>2022-04-10T09:10:33.000Z</time></trkpt><trkpt lon="5.853881" lat="51.071901"><ele>22.4</ele><time>2022-04-10T09:10:34.000Z</time></trkpt><trkpt lon="5.853856" lat="51.071963"><ele>22.6</ele><time>2022-04-10T09:10:35.000Z</time></trkpt><trkpt lon="5.85384" lat="51.072031"><ele>22.8</ele><time>2022-04-10T09:10:36.000Z</time></trkpt><trkpt lon="5.853817" lat="51.072108"><ele>22.8</ele><time>2022-04-10T09:10:37.000Z</time></trkpt><trkpt lon="5.853778" lat="51.072183"><ele>22.8</ele><time>2022-04-10T09:10:38.000Z</time></trkpt><trkpt lon="5.85372" lat="51.072258"><ele>23</ele><time>2022-04-10T09:10:39.000Z</time></trkpt><trkpt lon="5.853649" lat="51.07233"><ele>23.2</ele><time>2022-04-10T09:10:40.000Z</time></trkpt><trkpt lon="5.85358" lat="51.0724"><ele>23.2</ele><time>2022-04-10T09:10:41.000Z</time></trkpt><trkpt lon="5.853512" lat="51.072471"><ele>23.2</ele><time>2022-04-10T09:10:42.000Z</time></trkpt><trkpt lon="5.853446" lat="51.072539"><ele>23.2</ele><time>2022-04-10T09:10:43.000Z</time></trkpt><trkpt lon="5.853383" lat="51.072603"><ele>23.2</ele><time>2022-04-10T09:10:44.000Z</time></trkpt><trkpt lon="5.853318" lat="51.072664"><ele>23.2</ele><time>2022-04-10T09:10:45.000Z</time></trkpt><trkpt lon="5.853252" lat="51.072725"><ele>23</ele><time>2022-04-10T09:10:46.000Z</time></trkpt><trkpt lon="5.853183" lat="51.072784"><ele>23</ele><time>2022-04-10T09:10:47.000Z</time></trkpt><trkpt lon="5.853111" lat="51.072838"><ele>23</ele><time>2022-04-10T09:10:48.000Z</time></trkpt><trkpt lon="5.853034" lat="51.072894"><ele>22.8</ele><time>2022-04-10T09:10:49.000Z</time></trkpt><trkpt lon="5.852956" lat="51.072948"><ele>22.8</ele><time>2022-04-10T09:10:50.000Z</time></trkpt><trkpt lon="5.852878" lat="51.073001"><ele>22.8</ele><time>2022-04-10T09:10:51.000Z</time></trkpt><trkpt lon="5.852801" lat="51.073054"><ele>22.6</ele><time>2022-04-10T09:10:52.000Z</time></trkpt><trkpt lon="5.852722" lat="51.073108"><ele>22.6</ele><time>2022-04-10T09:10:53.000Z</time></trkpt><trkpt lon="5.852645" lat="51.073162"><ele>22.6</ele><time>2022-04-10T09:10:54.000Z</time></trkpt><trkpt lon="5.852568" lat="51.073215"><ele>22.6</ele><time>2022-04-10T09:10:55.000Z</time></trkpt><trkpt lon="5.852489" lat="51.07327"><ele>22.6</ele><time>2022-04-10T09:10:56.000Z</time></trkpt><trkpt lon="5.852411" lat="51.073332"><ele>22.6</ele><time>2022-04-10T09:10:57.000Z</time></trkpt><trkpt lon="5.852335" lat="51.07339"><ele>22.6</ele><time>2022-04-10T09:10:58.000Z</time></trkpt><trkpt lon="5.852256" lat="51.073446"><ele>22.4</ele><time>2022-04-10T09:10:59.000Z</time></trkpt><trkpt lon="5.852181" lat="51.073506"><ele>22.4</ele><time>2022-04-10T09:11:00.000Z</time></trkpt><trkpt lon="5.85211" lat="51.073564"><ele>22.4</ele><time>2022-04-10T09:11:01.000Z</time></trkpt><trkpt lon="5.852038" lat="51.073625"><ele>22.6</ele><time>2022-04-10T09:11:02.000Z</time></trkpt><trkpt lon="5.851967" lat="51.073682"><ele>22.6</ele><time>2022-04-10T09:11:03.000Z</time></trkpt><trkpt lon="5.851896" lat="51.073739"><ele>22.8</ele><time>2022-04-10T09:11:04.000Z</time></trkpt><trkpt lon="5.85182" lat="51.073795"><ele>22.6</ele><time>2022-04-10T09:11:05.000Z</time></trkpt><trkpt lon="5.851745" lat="51.073848"><ele>22.8</ele><time>2022-04-10T09:11:06.000Z</time></trkpt><trkpt lon="5.85167" lat="51.0739"><ele>22.8</ele><time>2022-04-10T09:11:07.000Z</time></trkpt><trkpt lon="5.851589" lat="51.073954"><ele>22.8</ele><time>2022-04-10T09:11:08.000Z</time></trkpt><trkpt lon="5.851508" lat="51.074004"><ele>22.8</ele><time>2022-04-10T09:11:09.000Z</time></trkpt><trkpt lon="5.851422" lat="51.074053"><ele>23</ele><time>2022-04-10T09:11:10.000Z</time></trkpt><trkpt lon="5.851335" lat="51.074102"><ele>23</ele><time>2022-04-10T09:11:11.000Z</time></trkpt><trkpt lon="5.851247" lat="51.074147"><ele>22.8</ele><time>2022-04-10T09:11:12.000Z</time></trkpt><trkpt lon="5.851156" lat="51.074194"><ele>22.8</ele><time>2022-04-10T09:11:13.000Z</time></trkpt><trkpt lon="5.851069" lat="51.074246"><ele>22.8</ele><time>2022-04-10T09:11:14.000Z</time></trkpt><trkpt lon="5.850987" lat="51.074303"><ele>22.8</ele><time>2022-04-10T09:11:15.000Z</time></trkpt><trkpt lon="5.850909" lat="51.07436"><ele>22.8</ele><time>2022-04-10T09:11:16.000Z</time></trkpt><trkpt lon="5.850835" lat="51.074416"><ele>23</ele><time>2022-04-10T09:11:17.000Z</time></trkpt><trkpt lon="5.850763" lat="51.07447"><ele>23</ele><time>2022-04-10T09:11:18.000Z</time></trkpt><trkpt lon="5.850694" lat="51.074528"><ele>22.8</ele><time>2022-04-10T09:11:19.000Z</time></trkpt><trkpt lon="5.850632" lat="51.074589"><ele>22.8</ele><time>2022-04-10T09:11:20.000Z</time></trkpt><trkpt lon="5.850573" lat="51.074649"><ele>22.8</ele><time>2022-04-10T09:11:21.000Z</time></trkpt><trkpt lon="5.850518" lat="51.074713"><ele>22.8</ele><time>2022-04-10T09:11:22.000Z</time></trkpt><trkpt lon="5.850471" lat="51.074779"><ele>22.8</ele><time>2022-04-10T09:11:23.000Z</time></trkpt><trkpt lon="5.850428" lat="51.074844"><ele>22.8</ele><time>2022-04-10T09:11:24.000Z</time></trkpt><trkpt lon="5.850386" lat="51.074913"><ele>22.8</ele><time>2022-04-10T09:11:25.000Z</time></trkpt><trkpt lon="5.850339" lat="51.074983"><ele>22.8</ele><time>2022-04-10T09:11:26.000Z</time></trkpt><trkpt lon="5.850289" lat="51.075044"><ele>22.8</ele><time>2022-04-10T09:11:27.000Z</time></trkpt><trkpt lon="5.850225" lat="51.075101"><ele>22.8</ele><time>2022-04-10T09:11:28.000Z</time></trkpt><trkpt lon="5.850137" lat="51.075143"><ele>22.6</ele><time>2022-04-10T09:11:29.000Z</time></trkpt><trkpt lon="5.850033" lat="51.075172"><ele>22.4</ele><time>2022-04-10T09:11:30.000Z</time></trkpt><trkpt lon="5.849924" lat="51.075199"><ele>22.4</ele><time>2022-04-10T09:11:31.000Z</time></trkpt><trkpt lon="5.849808" lat="51.075224"><ele>22.2</ele><time>2022-04-10T09:11:32.000Z</time></trkpt><trkpt lon="5.849693" lat="51.075246"><ele>22.2</ele><time>2022-04-10T09:11:33.000Z</time></trkpt><trkpt lon="5.849585" lat="51.075277"><ele>22.4</ele><time>2022-04-10T09:11:34.000Z</time></trkpt><trkpt lon="5.84948" lat="51.075313"><ele>22.4</ele><time>2022-04-10T09:11:35.000Z</time></trkpt><trkpt lon="5.849381" lat="51.075352"><ele>22.4</ele><time>2022-04-10T09:11:36.000Z</time></trkpt><trkpt lon="5.849289" lat="51.075395"><ele>22.4</ele><time>2022-04-10T09:11:37.000Z</time></trkpt><trkpt lon="5.8492" lat="51.075439"><ele>22.4</ele><time>2022-04-10T09:11:38.000Z</time></trkpt><trkpt lon="5.849117" lat="51.075482"><ele>22.4</ele><time>2022-04-10T09:11:39.000Z</time></trkpt><trkpt lon="5.84904" lat="51.075523"><ele>22.4</ele><time>2022-04-10T09:11:40.000Z</time></trkpt><trkpt lon="5.848961" lat="51.075561"><ele>22.4</ele><time>2022-04-10T09:11:41.000Z</time></trkpt><trkpt lon="5.848874" lat="51.075594"><ele>22.4</ele><time>2022-04-10T09:11:42.000Z</time></trkpt><trkpt lon="5.848776" lat="51.075615"><ele>22.4</ele><time>2022-04-10T09:11:43.000Z</time></trkpt><trkpt lon="5.848672" lat="51.075627"><ele>22.4</ele><time>2022-04-10T09:11:44.000Z</time></trkpt><trkpt lon="5.848561" lat="51.07563"><ele>22.4</ele><time>2022-04-10T09:11:45.000Z</time></trkpt><trkpt lon="5.848448" lat="51.07563"><ele>22.6</ele><time>2022-04-10T09:11:46.000Z</time></trkpt><trkpt lon="5.848339" lat="51.075628"><ele>22.4</ele><time>2022-04-10T09:11:47.000Z</time></trkpt><trkpt lon="5.84823" lat="51.075619"><ele>22.6</ele><time>2022-04-10T09:11:48.000Z</time></trkpt><trkpt lon="5.848114" lat="51.075601"><ele>22.6</ele><time>2022-04-10T09:11:49.000Z</time></trkpt><trkpt lon="5.848004" lat="51.075578"><ele>22.6</ele><time>2022-04-10T09:11:50.000Z</time></trkpt><trkpt lon="5.847895" lat="51.075554"><ele>22.6</ele><time>2022-04-10T09:11:51.000Z</time></trkpt><trkpt lon="5.847786" lat="51.075527"><ele>22.6</ele><time>2022-04-10T09:11:52.000Z</time></trkpt><trkpt lon="5.847677" lat="51.0755"><ele>22.6</ele><time>2022-04-10T09:11:53.000Z</time></trkpt><trkpt lon="5.847567" lat="51.075469"><ele>22.8</ele><time>2022-04-10T09:11:54.000Z</time></trkpt><trkpt lon="5.847459" lat="51.075439"><ele>22.8</ele><time>2022-04-10T09:11:55.000Z</time></trkpt><trkpt lon="5.847356" lat="51.07541"><ele>22.8</ele><time>2022-04-10T09:11:56.000Z</time></trkpt><trkpt lon="5.847252" lat="51.075384"><ele>22.8</ele><time>2022-04-10T09:11:57.000Z</time></trkpt><trkpt lon="5.847146" lat="51.075361"><ele>22.8</ele><time>2022-04-10T09:11:58.000Z</time></trkpt><trkpt lon="5.847037" lat="51.075339"><ele>22.8</ele><time>2022-04-10T09:11:59.000Z</time></trkpt><trkpt lon="5.846923" lat="51.075321"><ele>22.8</ele><time>2022-04-10T09:12:00.000Z</time></trkpt><trkpt lon="5.846809" lat="51.075306"><ele>22.8</ele><time>2022-04-10T09:12:01.000Z</time></trkpt><trkpt lon="5.846693" lat="51.075289"><ele>22.8</ele><time>2022-04-10T09:12:02.000Z</time></trkpt><trkpt lon="5.84658" lat="51.075272"><ele>22.8</ele><time>2022-04-10T09:12:03.000Z</time></trkpt><trkpt lon="5.846465" lat="51.075261"><ele>22.8</ele><time>2022-04-10T09:12:04.000Z</time></trkpt><trkpt lon="5.846347" lat="51.075249"><ele>22.8</ele><time>2022-04-10T09:12:05.000Z</time></trkpt><trkpt lon="5.846231" lat="51.075239"><ele>22.8</ele><time>2022-04-10T09:12:06.000Z</time></trkpt><trkpt lon="5.846115" lat="51.075233"><ele>22.8</ele><time>2022-04-10T09:12:07.000Z</time></trkpt><trkpt lon="5.845996" lat="51.075227"><ele>22.8</ele><time>2022-04-10T09:12:08.000Z</time></trkpt><trkpt lon="5.845879" lat="51.075221"><ele>22.6</ele><time>2022-04-10T09:12:09.000Z</time></trkpt><trkpt lon="5.845764" lat="51.075216"><ele>22.6</ele><time>2022-04-10T09:12:10.000Z</time></trkpt><trkpt lon="5.845648" lat="51.075211"><ele>22.6</ele><time>2022-04-10T09:12:11.000Z</time></trkpt><trkpt lon="5.845528" lat="51.075213"><ele>22.4</ele><time>2022-04-10T09:12:12.000Z</time></trkpt><trkpt lon="5.845409" lat="51.075219"><ele>22.4</ele><time>2022-04-10T09:12:13.000Z</time></trkpt><trkpt lon="5.845289" lat="51.075223"><ele>22.6</ele><time>2022-04-10T09:12:14.000Z</time></trkpt><trkpt lon="5.845172" lat="51.075228"><ele>22.4</ele><time>2022-04-10T09:12:15.000Z</time></trkpt><trkpt lon="5.845058" lat="51.075234"><ele>22.4</ele><time>2022-04-10T09:12:16.000Z</time></trkpt><trkpt lon="5.844943" lat="51.075238"><ele>22.4</ele><time>2022-04-10T09:12:17.000Z</time></trkpt><trkpt lon="5.844828" lat="51.075242"><ele>22.4</ele><time>2022-04-10T09:12:18.000Z</time></trkpt><trkpt lon="5.844717" lat="51.075246"><ele>22.4</ele><time>2022-04-10T09:12:19.000Z</time></trkpt><trkpt lon="5.844605" lat="51.07525"><ele>22.4</ele><time>2022-04-10T09:12:20.000Z</time></trkpt><trkpt lon="5.844493" lat="51.075254"><ele>22.4</ele><time>2022-04-10T09:12:21.000Z</time></trkpt><trkpt lon="5.844385" lat="51.075257"><ele>22.6</ele><time>2022-04-10T09:12:22.000Z</time></trkpt><trkpt lon="5.844274" lat="51.07526"><ele>22.6</ele><time>2022-04-10T09:12:23.000Z</time></trkpt><trkpt lon="5.844165" lat="51.075261"><ele>22.8</ele><time>2022-04-10T09:12:24.000Z</time></trkpt><trkpt lon="5.844053" lat="51.075264"><ele>22.8</ele><time>2022-04-10T09:12:25.000Z</time></trkpt><trkpt lon="5.843942" lat="51.075263"><ele>22.8</ele><time>2022-04-10T09:12:26.000Z</time></trkpt><trkpt lon="5.843831" lat="51.075261"><ele>22.6</ele><time>2022-04-10T09:12:27.000Z</time></trkpt><trkpt lon="5.843721" lat="51.075266"><ele>22.8</ele><time>2022-04-10T09:12:28.000Z</time></trkpt><trkpt lon="5.843612" lat="51.075275"><ele>22.6</ele><time>2022-04-10T09:12:29.000Z</time></trkpt><trkpt lon="5.843503" lat="51.075286"><ele>22.6</ele><time>2022-04-10T09:12:30.000Z</time></trkpt><trkpt lon="5.843397" lat="51.075298"><ele>22.4</ele><time>2022-04-10T09:12:31.000Z</time></trkpt><trkpt lon="5.843296" lat="51.075308"><ele>22.2</ele><time>2022-04-10T09:12:32.000Z</time></trkpt><trkpt lon="5.843199" lat="51.075316"><ele>22</ele><time>2022-04-10T09:12:33.000Z</time></trkpt><trkpt lon="5.843103" lat="51.075323"><ele>22.2</ele><time>2022-04-10T09:12:34.000Z</time></trkpt><trkpt lon="5.843013" lat="51.075333"><ele>22.2</ele><time>2022-04-10T09:12:35.000Z</time></trkpt><trkpt lon="5.842928" lat="51.075353"><ele>22.2</ele><time>2022-04-10T09:12:36.000Z</time></trkpt><trkpt lon="5.842861" lat="51.075386"><ele>22.2</ele><time>2022-04-10T09:12:37.000Z</time></trkpt><trkpt lon="5.842815" lat="51.075433"><ele>22.2</ele><time>2022-04-10T09:12:38.000Z</time></trkpt><trkpt lon="5.842786" lat="51.07549"><ele>22.2</ele><time>2022-04-10T09:12:39.000Z</time></trkpt><trkpt lon="5.842767" lat="51.075551"><ele>22.4</ele><time>2022-04-10T09:12:40.000Z</time></trkpt><trkpt lon="5.842756" lat="51.075617"><ele>22.6</ele><time>2022-04-10T09:12:41.000Z</time></trkpt><trkpt lon="5.842756" lat="51.075677"><ele>22.6</ele><time>2022-04-10T09:12:42.000Z</time></trkpt><trkpt lon="5.842772" lat="51.075737"><ele>22.6</ele><time>2022-04-10T09:12:43.000Z</time></trkpt><trkpt lon="5.8428" lat="51.075793"><ele>22.6</ele><time>2022-04-10T09:12:44.000Z</time></trkpt><trkpt lon="5.842832" lat="51.075844"><ele>22.8</ele><time>2022-04-10T09:12:45.000Z</time></trkpt><trkpt lon="5.842854" lat="51.075891"><ele>22.8</ele><time>2022-04-10T09:12:46.000Z</time></trkpt><trkpt lon="5.842856" lat="51.075937"><ele>23</ele><time>2022-04-10T09:12:47.000Z</time></trkpt><trkpt lon="5.842829" lat="51.075981"><ele>23</ele><time>2022-04-10T09:12:48.000Z</time></trkpt><trkpt lon="5.842775" lat="51.076022"><ele>23</ele><time>2022-04-10T09:12:49.000Z</time></trkpt><trkpt lon="5.842703" lat="51.076062"><ele>23</ele><time>2022-04-10T09:12:50.000Z</time></trkpt><trkpt lon="5.842622" lat="51.076103"><ele>22.8</ele><time>2022-04-10T09:12:51.000Z</time></trkpt><trkpt lon="5.842533" lat="51.076143"><ele>22.8</ele><time>2022-04-10T09:12:52.000Z</time></trkpt><trkpt lon="5.842438" lat="51.076192"><ele>22.8</ele><time>2022-04-10T09:12:53.000Z</time></trkpt><trkpt lon="5.842347" lat="51.076236"><ele>23</ele><time>2022-04-10T09:12:54.000Z</time></trkpt><trkpt lon="5.842262" lat="51.076275"><ele>23</ele><time>2022-04-10T09:12:55.000Z</time></trkpt><trkpt lon="5.842179" lat="51.076322"><ele>23</ele><time>2022-04-10T09:12:56.000Z</time></trkpt><trkpt lon="5.842095" lat="51.076375"><ele>23</ele><time>2022-04-10T09:12:57.000Z</time></trkpt><trkpt lon="5.84201" lat="51.076425"><ele>23</ele><time>2022-04-10T09:12:58.000Z</time></trkpt><trkpt lon="5.841924" lat="51.076471"><ele>23</ele><time>2022-04-10T09:12:59.000Z</time></trkpt><trkpt lon="5.841838" lat="51.076515"><ele>23</ele><time>2022-04-10T09:13:00.000Z</time></trkpt><trkpt lon="5.841751" lat="51.076558"><ele>23</ele><time>2022-04-10T09:13:01.000Z</time></trkpt><trkpt lon="5.841664" lat="51.076603"><ele>22.8</ele><time>2022-04-10T09:13:02.000Z</time></trkpt><trkpt lon="5.841574" lat="51.076644"><ele>22.6</ele><time>2022-04-10T09:13:03.000Z</time></trkpt><trkpt lon="5.841483" lat="51.076681"><ele>22.6</ele><time>2022-04-10T09:13:04.000Z</time></trkpt><trkpt lon="5.841391" lat="51.076717"><ele>22.4</ele><time>2022-04-10T09:13:05.000Z</time></trkpt><trkpt lon="5.841297" lat="51.076755"><ele>22.4</ele><time>2022-04-10T09:13:06.000Z</time></trkpt><trkpt lon="5.841203" lat="51.076792"><ele>22.6</ele><time>2022-04-10T09:13:07.000Z</time></trkpt><trkpt lon="5.841108" lat="51.076828"><ele>22.6</ele><time>2022-04-10T09:13:08.000Z</time></trkpt><trkpt lon="5.841015" lat="51.076868"><ele>22.6</ele><time>2022-04-10T09:13:09.000Z</time></trkpt><trkpt lon="5.840924" lat="51.076903"><ele>22.6</ele><time>2022-04-10T09:13:10.000Z</time></trkpt><trkpt lon="5.840832" lat="51.07694"><ele>22.8</ele><time>2022-04-10T09:13:11.000Z</time></trkpt><trkpt lon="5.840743" lat="51.076975"><ele>23</ele><time>2022-04-10T09:13:12.000Z</time></trkpt><trkpt lon="5.840654" lat="51.077012"><ele>23</ele><time>2022-04-10T09:13:13.000Z</time></trkpt><trkpt lon="5.840561" lat="51.077047"><ele>23</ele><time>2022-04-10T09:13:14.000Z</time></trkpt><trkpt lon="5.840471" lat="51.077081"><ele>23</ele><time>2022-04-10T09:13:15.000Z</time></trkpt><trkpt lon="5.840378" lat="51.077116"><ele>23</ele><time>2022-04-10T09:13:16.000Z</time></trkpt><trkpt lon="5.840289" lat="51.07715"><ele>23.2</ele><time>2022-04-10T09:13:17.000Z</time></trkpt><trkpt lon="5.840199" lat="51.077186"><ele>23.2</ele><time>2022-04-10T09:13:18.000Z</time></trkpt><trkpt lon="5.840108" lat="51.077223"><ele>23.2</ele><time>2022-04-10T09:13:19.000Z</time></trkpt><trkpt lon="5.840019" lat="51.077258"><ele>23.2</ele><time>2022-04-10T09:13:20.000Z</time></trkpt><trkpt lon="5.839929" lat="51.077295"><ele>23.2</ele><time>2022-04-10T09:13:21.000Z</time></trkpt><trkpt lon="5.839838" lat="51.077329"><ele>23.2</ele><time>2022-04-10T09:13:22.000Z</time></trkpt><trkpt lon="5.839748" lat="51.077359"><ele>23.2</ele><time>2022-04-10T09:13:23.000Z</time></trkpt><trkpt lon="5.83966" lat="51.077388"><ele>23</ele><time>2022-04-10T09:13:24.000Z</time></trkpt><trkpt lon="5.839573" lat="51.077414"><ele>23</ele><time>2022-04-10T09:13:25.000Z</time></trkpt><trkpt lon="5.83949" lat="51.077436"><ele>22.8</ele><time>2022-04-10T09:13:26.000Z</time></trkpt><trkpt lon="5.83941" lat="51.077454"><ele>22.8</ele><time>2022-04-10T09:13:27.000Z</time></trkpt><trkpt lon="5.839335" lat="51.077465"><ele>22.8</ele><time>2022-04-10T09:13:28.000Z</time></trkpt><trkpt lon="5.839264" lat="51.077463"><ele>22.8</ele><time>2022-04-10T09:13:29.000Z</time></trkpt><trkpt lon="5.839206" lat="51.077454"><ele>23</ele><time>2022-04-10T09:13:30.000Z</time></trkpt><trkpt lon="5.839155" lat="51.077444"><ele>23.2</ele><time>2022-04-10T09:13:31.000Z</time></trkpt><trkpt lon="5.839099" lat="51.077442"><ele>23.4</ele><time>2022-04-10T09:13:32.000Z</time></trkpt><trkpt lon="5.839034" lat="51.077461"><ele>23.4</ele><time>2022-04-10T09:13:33.000Z</time></trkpt><trkpt lon="5.838963" lat="51.077489"><ele>23.6</ele><time>2022-04-10T09:13:34.000Z</time></trkpt><trkpt lon="5.838885" lat="51.07752"><ele>23.6</ele><time>2022-04-10T09:13:35.000Z</time></trkpt><trkpt lon="5.8388" lat="51.077554"><ele>23.6</ele><time>2022-04-10T09:13:36.000Z</time></trkpt><trkpt lon="5.838709" lat="51.077585"><ele>23.6</ele><time>2022-04-10T09:13:37.000Z</time></trkpt><trkpt lon="5.838611" lat="51.077618"><ele>23.6</ele><time>2022-04-10T09:13:38.000Z</time></trkpt><trkpt lon="5.838514" lat="51.077648"><ele>23.6</ele><time>2022-04-10T09:13:39.000Z</time></trkpt><trkpt lon="5.838415" lat="51.077676"><ele>23.6</ele><time>2022-04-10T09:13:40.000Z</time></trkpt><trkpt lon="5.838303" lat="51.077705"><ele>23.8</ele><time>2022-04-10T09:13:41.000Z</time></trkpt><trkpt lon="5.838198" lat="51.077732"><ele>23.8</ele><time>2022-04-10T09:13:42.000Z</time></trkpt><trkpt lon="5.838094" lat="51.077757"><ele>23.8</ele><time>2022-04-10T09:13:43.000Z</time></trkpt><trkpt lon="5.837987" lat="51.077781"><ele>23.8</ele><time>2022-04-10T09:13:44.000Z</time></trkpt><trkpt lon="5.837879" lat="51.077807"><ele>23.8</ele><time>2022-04-10T09:13:45.000Z</time></trkpt><trkpt lon="5.837774" lat="51.07783"><ele>23.8</ele><time>2022-04-10T09:13:46.000Z</time></trkpt><trkpt lon="5.837668" lat="51.077853"><ele>23.6</ele><time>2022-04-10T09:13:47.000Z</time></trkpt><trkpt lon="5.837561" lat="51.077875"><ele>23.6</ele><time>2022-04-10T09:13:48.000Z</time></trkpt><trkpt lon="5.837454" lat="51.077896"><ele>23.8</ele><time>2022-04-10T09:13:49.000Z</time></trkpt><trkpt lon="5.837348" lat="51.077921"><ele>23.8</ele><time>2022-04-10T09:13:50.000Z</time></trkpt><trkpt lon="5.837241" lat="51.077944"><ele>24</ele><time>2022-04-10T09:13:51.000Z</time></trkpt><trkpt lon="5.837132" lat="51.077966"><ele>24</ele><time>2022-04-10T09:13:52.000Z</time></trkpt><trkpt lon="5.837027" lat="51.077986"><ele>23.8</ele><time>2022-04-10T09:13:53.000Z</time></trkpt><trkpt lon="5.836923" lat="51.078008"><ele>23.8</ele><time>2022-04-10T09:13:54.000Z</time></trkpt><trkpt lon="5.836821" lat="51.078028"><ele>23.8</ele><time>2022-04-10T09:13:55.000Z</time></trkpt><trkpt lon="5.836716" lat="51.07805"><ele>23.6</ele><time>2022-04-10T09:13:56.000Z</time></trkpt><trkpt lon="5.83661" lat="51.07807"><ele>23.6</ele><time>2022-04-10T09:13:57.000Z</time></trkpt><trkpt lon="5.836506" lat="51.078094"><ele>23.6</ele><time>2022-04-10T09:13:58.000Z</time></trkpt><trkpt lon="5.836403" lat="51.078119"><ele>23.6</ele><time>2022-04-10T09:13:59.000Z</time></trkpt><trkpt lon="5.836299" lat="51.078139"><ele>23.8</ele><time>2022-04-10T09:14:00.000Z</time></trkpt><trkpt lon="5.836193" lat="51.078162"><ele>23.8</ele><time>2022-04-10T09:14:01.000Z</time></trkpt><trkpt lon="5.83609" lat="51.078184"><ele>23.6</ele><time>2022-04-10T09:14:02.000Z</time></trkpt><trkpt lon="5.835989" lat="51.078203"><ele>23.6</ele><time>2022-04-10T09:14:03.000Z</time></trkpt><trkpt lon="5.835887" lat="51.078223"><ele>23.6</ele><time>2022-04-10T09:14:04.000Z</time></trkpt><trkpt lon="5.835784" lat="51.078245"><ele>23.6</ele><time>2022-04-10T09:14:05.000Z</time></trkpt><trkpt lon="5.835679" lat="51.078266"><ele>23.6</ele><time>2022-04-10T09:14:06.000Z</time></trkpt><trkpt lon="5.835577" lat="51.078291"><ele>23.8</ele><time>2022-04-10T09:14:07.000Z</time></trkpt><trkpt lon="5.835473" lat="51.078313"><ele>23.8</ele><time>2022-04-10T09:14:08.000Z</time></trkpt><trkpt lon="5.835364" lat="51.078334"><ele>23.6</ele><time>2022-04-10T09:14:09.000Z</time></trkpt><trkpt lon="5.835258" lat="51.078356"><ele>23.6</ele><time>2022-04-10T09:14:10.000Z</time></trkpt><trkpt lon="5.835151" lat="51.078374"><ele>23.6</ele><time>2022-04-10T09:14:11.000Z</time></trkpt><trkpt lon="5.835045" lat="51.078393"><ele>23.6</ele><time>2022-04-10T09:14:12.000Z</time></trkpt><trkpt lon="5.83494" lat="51.078413"><ele>23.6</ele><time>2022-04-10T09:14:13.000Z</time></trkpt><trkpt lon="5.834836" lat="51.078431"><ele>23.6</ele><time>2022-04-10T09:14:14.000Z</time></trkpt><trkpt lon="5.834731" lat="51.078447"><ele>23.6</ele><time>2022-04-10T09:14:15.000Z</time></trkpt><trkpt lon="5.834626" lat="51.078465"><ele>23.6</ele><time>2022-04-10T09:14:16.000Z</time></trkpt><trkpt lon="5.834523" lat="51.078481"><ele>23.4</ele><time>2022-04-10T09:14:17.000Z</time></trkpt><trkpt lon="5.834417" lat="51.078498"><ele>23</ele><time>2022-04-10T09:14:18.000Z</time></trkpt><trkpt lon="5.834309" lat="51.078509"><ele>22.8</ele><time>2022-04-10T09:14:19.000Z</time></trkpt><trkpt lon="5.834195" lat="51.07852"><ele>22.6</ele><time>2022-04-10T09:14:20.000Z</time></trkpt><trkpt lon="5.834082" lat="51.078528"><ele>22.6</ele><time>2022-04-10T09:14:21.000Z</time></trkpt><trkpt lon="5.833971" lat="51.078535"><ele>22.6</ele><time>2022-04-10T09:14:22.000Z</time></trkpt><trkpt lon="5.833862" lat="51.078543"><ele>22.6</ele><time>2022-04-10T09:14:23.000Z</time></trkpt><trkpt lon="5.83375" lat="51.078549"><ele>22.6</ele><time>2022-04-10T09:14:24.000Z</time></trkpt><trkpt lon="5.833641" lat="51.078553"><ele>22.6</ele><time>2022-04-10T09:14:25.000Z</time></trkpt><trkpt lon="5.833535" lat="51.078557"><ele>22.6</ele><time>2022-04-10T09:14:26.000Z</time></trkpt><trkpt lon="5.833425" lat="51.07856"><ele>22.6</ele><time>2022-04-10T09:14:27.000Z</time></trkpt><trkpt lon="5.833318" lat="51.07856"><ele>22.8</ele><time>2022-04-10T09:14:28.000Z</time></trkpt><trkpt lon="5.833214" lat="51.078559"><ele>23</ele><time>2022-04-10T09:14:29.000Z</time></trkpt><trkpt lon="5.83311" lat="51.078556"><ele>23</ele><time>2022-04-10T09:14:30.000Z</time></trkpt><trkpt lon="5.833009" lat="51.078554"><ele>23.2</ele><time>2022-04-10T09:14:31.000Z</time></trkpt><trkpt lon="5.832907" lat="51.078547"><ele>23.2</ele><time>2022-04-10T09:14:32.000Z</time></trkpt><trkpt lon="5.832806" lat="51.078544"><ele>23.4</ele><time>2022-04-10T09:14:33.000Z</time></trkpt><trkpt lon="5.832703" lat="51.07854"><ele>23.6</ele><time>2022-04-10T09:14:34.000Z</time></trkpt><trkpt lon="5.832605" lat="51.078536"><ele>23.6</ele><time>2022-04-10T09:14:35.000Z</time></trkpt><trkpt lon="5.832511" lat="51.078532"><ele>23.8</ele><time>2022-04-10T09:14:36.000Z</time></trkpt><trkpt lon="5.832423" lat="51.078527"><ele>24.2</ele><time>2022-04-10T09:14:37.000Z</time></trkpt><trkpt lon="5.83234" lat="51.078521"><ele>24.4</ele><time>2022-04-10T09:14:38.000Z</time></trkpt><trkpt lon="5.832261" lat="51.078517"><ele>24.6</ele><time>2022-04-10T09:14:39.000Z</time></trkpt><trkpt lon="5.832187" lat="51.078513"><ele>24.8</ele><time>2022-04-10T09:14:40.000Z</time></trkpt><trkpt lon="5.832119" lat="51.07851"><ele>25</ele><time>2022-04-10T09:14:41.000Z</time></trkpt><trkpt lon="5.832058" lat="51.078509"><ele>25.2</ele><time>2022-04-10T09:14:42.000Z</time></trkpt><trkpt lon="5.832001" lat="51.078506"><ele>25.4</ele><time>2022-04-10T09:14:43.000Z</time></trkpt><trkpt lon="5.831949" lat="51.078506"><ele>25.6</ele><time>2022-04-10T09:14:44.000Z</time></trkpt><trkpt lon="5.831902" lat="51.078506"><ele>25.6</ele><time>2022-04-10T09:14:45.000Z</time></trkpt><trkpt lon="5.831853" lat="51.078506"><ele>25.8</ele><time>2022-04-10T09:14:46.000Z</time></trkpt><trkpt lon="5.831803" lat="51.078506"><ele>25.8</ele><time>2022-04-10T09:14:47.000Z</time></trkpt><trkpt lon="5.831747" lat="51.078507"><ele>26</ele><time>2022-04-10T09:14:48.000Z</time></trkpt><trkpt lon="5.831689" lat="51.078513"><ele>26</ele><time>2022-04-10T09:14:49.000Z</time></trkpt><trkpt lon="5.831628" lat="51.078524"><ele>26.2</ele><time>2022-04-10T09:14:50.000Z</time></trkpt><trkpt lon="5.831557" lat="51.078533"><ele>26.2</ele><time>2022-04-10T09:14:51.000Z</time></trkpt><trkpt lon="5.831483" lat="51.078532"><ele>26.4</ele><time>2022-04-10T09:14:52.000Z</time></trkpt><trkpt lon="5.831403" lat="51.078528"><ele>26.4</ele><time>2022-04-10T09:14:53.000Z</time></trkpt><trkpt lon="5.831315" lat="51.078524"><ele>26.6</ele><time>2022-04-10T09:14:54.000Z</time></trkpt><trkpt lon="5.831225" lat="51.07852"><ele>26.8</ele><time>2022-04-10T09:14:55.000Z</time></trkpt><trkpt lon="5.831129" lat="51.078513"><ele>27</ele><time>2022-04-10T09:14:56.000Z</time></trkpt><trkpt lon="5.831031" lat="51.07851"><ele>27.4</ele><time>2022-04-10T09:14:57.000Z</time></trkpt><trkpt lon="5.830933" lat="51.07851"><ele>27.6</ele><time>2022-04-10T09:14:58.000Z</time></trkpt><trkpt lon="5.830835" lat="51.07851"><ele>27.8</ele><time>2022-04-10T09:14:59.000Z</time></trkpt><trkpt lon="5.83074" lat="51.078509"><ele>28</ele><time>2022-04-10T09:15:00.000Z</time></trkpt><trkpt lon="5.830644" lat="51.078506"><ele>28.2</ele><time>2022-04-10T09:15:01.000Z</time></trkpt><trkpt lon="5.830549" lat="51.078505"><ele>28.4</ele><time>2022-04-10T09:15:02.000Z</time></trkpt><trkpt lon="5.830456" lat="51.078503"><ele>28.6</ele><time>2022-04-10T09:15:03.000Z</time></trkpt><trkpt lon="5.830362" lat="51.078502"><ele>28.8</ele><time>2022-04-10T09:15:04.000Z</time></trkpt><trkpt lon="5.830268" lat="51.078499"><ele>29.2</ele><time>2022-04-10T09:15:05.000Z</time></trkpt><trkpt lon="5.830175" lat="51.078499"><ele>29.4</ele><time>2022-04-10T09:15:06.000Z</time></trkpt><trkpt lon="5.83008" lat="51.078499"><ele>29.4</ele><time>2022-04-10T09:15:07.000Z</time></trkpt><trkpt lon="5.829988" lat="51.0785"><ele>29.8</ele><time>2022-04-10T09:15:08.000Z</time></trkpt><trkpt lon="5.829899" lat="51.078503"><ele>30</ele><time>2022-04-10T09:15:09.000Z</time></trkpt><trkpt lon="5.82981" lat="51.078504"><ele>30.2</ele><time>2022-04-10T09:15:10.000Z</time></trkpt><trkpt lon="5.829722" lat="51.078507"><ele>30.4</ele><time>2022-04-10T09:15:11.000Z</time></trkpt><trkpt lon="5.829633" lat="51.078512"><ele>30.6</ele><time>2022-04-10T09:15:12.000Z</time></trkpt><trkpt lon="5.829544" lat="51.078519"><ele>30.8</ele><time>2022-04-10T09:15:13.000Z</time></trkpt><trkpt lon="5.829456" lat="51.078525"><ele>31</ele><time>2022-04-10T09:15:14.000Z</time></trkpt><trkpt lon="5.82937" lat="51.078536"><ele>31</ele><time>2022-04-10T09:15:15.000Z</time></trkpt><trkpt lon="5.829283" lat="51.078548"><ele>31.2</ele><time>2022-04-10T09:15:16.000Z</time></trkpt><trkpt lon="5.829196" lat="51.078558"><ele>31.4</ele><time>2022-04-10T09:15:17.000Z</time></trkpt><trkpt lon="5.829107" lat="51.078567"><ele>31.8</ele><time>2022-04-10T09:15:18.000Z</time></trkpt><trkpt lon="5.829019" lat="51.078578"><ele>31.8</ele><time>2022-04-10T09:15:19.000Z</time></trkpt><trkpt lon="5.828932" lat="51.07859"><ele>32</ele><time>2022-04-10T09:15:20.000Z</time></trkpt><trkpt lon="5.828846" lat="51.078601"><ele>32.2</ele><time>2022-04-10T09:15:21.000Z</time></trkpt><trkpt lon="5.828759" lat="51.078614"><ele>32.4</ele><time>2022-04-10T09:15:22.000Z</time></trkpt><trkpt lon="5.828673" lat="51.078629"><ele>32.8</ele><time>2022-04-10T09:15:23.000Z</time></trkpt><trkpt lon="5.828585" lat="51.078644"><ele>33</ele><time>2022-04-10T09:15:24.000Z</time></trkpt><trkpt lon="5.828497" lat="51.07866"><ele>33.4</ele><time>2022-04-10T09:15:25.000Z</time></trkpt><trkpt lon="5.828408" lat="51.078675"><ele>33.6</ele><time>2022-04-10T09:15:26.000Z</time></trkpt><trkpt lon="5.828316" lat="51.078691"><ele>33.8</ele><time>2022-04-10T09:15:27.000Z</time></trkpt><trkpt lon="5.828222" lat="51.078709"><ele>34.2</ele><time>2022-04-10T09:15:28.000Z</time></trkpt><trkpt lon="5.828128" lat="51.078725"><ele>34.4</ele><time>2022-04-10T09:15:29.000Z</time></trkpt><trkpt lon="5.828032" lat="51.078744"><ele>34.6</ele><time>2022-04-10T09:15:30.000Z</time></trkpt><trkpt lon="5.827937" lat="51.078762"><ele>34.8</ele><time>2022-04-10T09:15:31.000Z</time></trkpt><trkpt lon="5.827837" lat="51.07878"><ele>35</ele><time>2022-04-10T09:15:32.000Z</time></trkpt><trkpt lon="5.82774" lat="51.078802"><ele>35.2</ele><time>2022-04-10T09:15:33.000Z</time></trkpt><trkpt lon="5.827648" lat="51.078821"><ele>35.4</ele><time>2022-04-10T09:15:34.000Z</time></trkpt><trkpt lon="5.827557" lat="51.078844"><ele>35.6</ele><time>2022-04-10T09:15:35.000Z</time></trkpt><trkpt lon="5.827466" lat="51.078867"><ele>36</ele><time>2022-04-10T09:15:36.000Z</time></trkpt><trkpt lon="5.82738" lat="51.07889"><ele>36.2</ele><time>2022-04-10T09:15:37.000Z</time></trkpt><trkpt lon="5.827293" lat="51.078914"><ele>36.4</ele><time>2022-04-10T09:15:38.000Z</time></trkpt><trkpt lon="5.827207" lat="51.07894"><ele>36.8</ele><time>2022-04-10T09:15:39.000Z</time></trkpt><trkpt lon="5.827121" lat="51.078963"><ele>37</ele><time>2022-04-10T09:15:40.000Z</time></trkpt><trkpt lon="5.827043" lat="51.078987"><ele>37.2</ele><time>2022-04-10T09:15:41.000Z</time></trkpt><trkpt lon="5.826963" lat="51.079012"><ele>37.4</ele><time>2022-04-10T09:15:42.000Z</time></trkpt><trkpt lon="5.826883" lat="51.079036"><ele>37.4</ele><time>2022-04-10T09:15:43.000Z</time></trkpt><trkpt lon="5.826804" lat="51.079063"><ele>37.6</ele><time>2022-04-10T09:15:44.000Z</time></trkpt><trkpt lon="5.826724" lat="51.079089"><ele>37.6</ele><time>2022-04-10T09:15:45.000Z</time></trkpt><trkpt lon="5.826645" lat="51.079113"><ele>38</ele><time>2022-04-10T09:15:46.000Z</time></trkpt><trkpt lon="5.826562" lat="51.079139"><ele>38</ele><time>2022-04-10T09:15:47.000Z</time></trkpt><trkpt lon="5.826481" lat="51.079166"><ele>38.2</ele><time>2022-04-10T09:15:48.000Z</time></trkpt><trkpt lon="5.8264" lat="51.079193"><ele>38.4</ele><time>2022-04-10T09:15:49.000Z</time></trkpt><trkpt lon="5.826319" lat="51.07922"><ele>38.4</ele><time>2022-04-10T09:15:50.000Z</time></trkpt><trkpt lon="5.82624" lat="51.079247"><ele>38.6</ele><time>2022-04-10T09:15:51.000Z</time></trkpt><trkpt lon="5.826156" lat="51.079277"><ele>38.6</ele><time>2022-04-10T09:15:52.000Z</time></trkpt><trkpt lon="5.826074" lat="51.079305"><ele>38.4</ele><time>2022-04-10T09:15:53.000Z</time></trkpt><trkpt lon="5.825996" lat="51.079335"><ele>38.2</ele><time>2022-04-10T09:15:54.000Z</time></trkpt><trkpt lon="5.825916" lat="51.079365"><ele>38.2</ele><time>2022-04-10T09:15:55.000Z</time></trkpt><trkpt lon="5.825837" lat="51.079392"><ele>38.4</ele><time>2022-04-10T09:15:56.000Z</time></trkpt><trkpt lon="5.825753" lat="51.079423"><ele>38.2</ele><time>2022-04-10T09:15:57.000Z</time></trkpt><trkpt lon="5.825671" lat="51.079452"><ele>38.4</ele><time>2022-04-10T09:15:58.000Z</time></trkpt><trkpt lon="5.825586" lat="51.079479"><ele>38.6</ele><time>2022-04-10T09:15:59.000Z</time></trkpt><trkpt lon="5.825503" lat="51.079505"><ele>38.6</ele><time>2022-04-10T09:16:00.000Z</time></trkpt><trkpt lon="5.825421" lat="51.079534"><ele>38.8</ele><time>2022-04-10T09:16:01.000Z</time></trkpt><trkpt lon="5.825341" lat="51.079563"><ele>39</ele><time>2022-04-10T09:16:02.000Z</time></trkpt><trkpt lon="5.825261" lat="51.079589"><ele>39</ele><time>2022-04-10T09:16:03.000Z</time></trkpt><trkpt lon="5.825177" lat="51.079617"><ele>39.2</ele><time>2022-04-10T09:16:04.000Z</time></trkpt><trkpt lon="5.825093" lat="51.079648"><ele>39.2</ele><time>2022-04-10T09:16:05.000Z</time></trkpt><trkpt lon="5.825008" lat="51.079678"><ele>39.2</ele><time>2022-04-10T09:16:06.000Z</time></trkpt><trkpt lon="5.824925" lat="51.079709"><ele>38.8</ele><time>2022-04-10T09:16:07.000Z</time></trkpt><trkpt lon="5.824839" lat="51.079739"><ele>38.8</ele><time>2022-04-10T09:16:08.000Z</time></trkpt><trkpt lon="5.82475" lat="51.079771"><ele>38.8</ele><time>2022-04-10T09:16:09.000Z</time></trkpt><trkpt lon="5.824659" lat="51.079804"><ele>38.6</ele><time>2022-04-10T09:16:10.000Z</time></trkpt><trkpt lon="5.824565" lat="51.079835"><ele>38.6</ele><time>2022-04-10T09:16:11.000Z</time></trkpt><trkpt lon="5.824473" lat="51.079866"><ele>38.6</ele><time>2022-04-10T09:16:12.000Z</time></trkpt><trkpt lon="5.82438" lat="51.0799"><ele>38.4</ele><time>2022-04-10T09:16:13.000Z</time></trkpt><trkpt lon="5.824289" lat="51.07993"><ele>38.4</ele><time>2022-04-10T09:16:14.000Z</time></trkpt><trkpt lon="5.824192" lat="51.079966"><ele>38.2</ele><time>2022-04-10T09:16:15.000Z</time></trkpt><trkpt lon="5.8241" lat="51.08"><ele>38</ele><time>2022-04-10T09:16:16.000Z</time></trkpt><trkpt lon="5.824012" lat="51.080038"><ele>38</ele><time>2022-04-10T09:16:17.000Z</time></trkpt><trkpt lon="5.823924" lat="51.080075"><ele>37.6</ele><time>2022-04-10T09:16:18.000Z</time></trkpt><trkpt lon="5.823827" lat="51.080112"><ele>37.4</ele><time>2022-04-10T09:16:19.000Z</time></trkpt><trkpt lon="5.823699" lat="51.080147"><ele>37.4</ele><time>2022-04-10T09:16:20.000Z</time></trkpt><trkpt lon="5.823593" lat="51.080178"><ele>37</ele><time>2022-04-10T09:16:21.000Z</time></trkpt><trkpt lon="5.823488" lat="51.080211"><ele>36.8</ele><time>2022-04-10T09:16:22.000Z</time></trkpt><trkpt lon="5.823382" lat="51.080249"><ele>36.6</ele><time>2022-04-10T09:16:23.000Z</time></trkpt><trkpt lon="5.823273" lat="51.080288"><ele>36.4</ele><time>2022-04-10T09:16:24.000Z</time></trkpt><trkpt lon="5.823169" lat="51.080329"><ele>36.2</ele><time>2022-04-10T09:16:25.000Z</time></trkpt><trkpt lon="5.823063" lat="51.080368"><ele>36</ele><time>2022-04-10T09:16:26.000Z</time></trkpt><trkpt lon="5.822955" lat="51.080404"><ele>35.6</ele><time>2022-04-10T09:16:27.000Z</time></trkpt><trkpt lon="5.822846" lat="51.080439"><ele>35.4</ele><time>2022-04-10T09:16:28.000Z</time></trkpt><trkpt lon="5.822738" lat="51.080474"><ele>35</ele><time>2022-04-10T09:16:29.000Z</time></trkpt><trkpt lon="5.822628" lat="51.08051"><ele>34.8</ele><time>2022-04-10T09:16:30.000Z</time></trkpt><trkpt lon="5.822513" lat="51.080542"><ele>34.4</ele><time>2022-04-10T09:16:31.000Z</time></trkpt><trkpt lon="5.8224" lat="51.080576"><ele>34</ele><time>2022-04-10T09:16:32.000Z</time></trkpt><trkpt lon="5.822286" lat="51.080609"><ele>33.8</ele><time>2022-04-10T09:16:33.000Z</time></trkpt><trkpt lon="5.822164" lat="51.080639"><ele>33.4</ele><time>2022-04-10T09:16:34.000Z</time></trkpt><trkpt lon="5.822045" lat="51.080667"><ele>33.2</ele><time>2022-04-10T09:16:35.000Z</time></trkpt><trkpt lon="5.821928" lat="51.080695"><ele>32.8</ele><time>2022-04-10T09:16:36.000Z</time></trkpt><trkpt lon="5.821808" lat="51.080719"><ele>32.4</ele><time>2022-04-10T09:16:37.000Z</time></trkpt><trkpt lon="5.821684" lat="51.080744"><ele>32</ele><time>2022-04-10T09:16:38.000Z</time></trkpt><trkpt lon="5.821557" lat="51.080768"><ele>31.8</ele><time>2022-04-10T09:16:39.000Z</time></trkpt><trkpt lon="5.82143" lat="51.080789"><ele>31.4</ele><time>2022-04-10T09:16:40.000Z</time></trkpt><trkpt lon="5.821301" lat="51.080808"><ele>31</ele><time>2022-04-10T09:16:41.000Z</time></trkpt><trkpt lon="5.821171" lat="51.080827"><ele>30.6</ele><time>2022-04-10T09:16:42.000Z</time></trkpt><trkpt lon="5.821038" lat="51.080846"><ele>30.4</ele><time>2022-04-10T09:16:43.000Z</time></trkpt><trkpt lon="5.820901" lat="51.080864"><ele>30</ele><time>2022-04-10T09:16:44.000Z</time></trkpt><trkpt lon="5.820763" lat="51.08088"><ele>29.6</ele><time>2022-04-10T09:16:45.000Z</time></trkpt><trkpt lon="5.820626" lat="51.080895"><ele>29.2</ele><time>2022-04-10T09:16:46.000Z</time></trkpt><trkpt lon="5.820487" lat="51.08091"><ele>29</ele><time>2022-04-10T09:16:47.000Z</time></trkpt><trkpt lon="5.820349" lat="51.080923"><ele>28.6</ele><time>2022-04-10T09:16:48.000Z</time></trkpt><trkpt lon="5.820208" lat="51.080932"><ele>28.2</ele><time>2022-04-10T09:16:49.000Z</time></trkpt><trkpt lon="5.820065" lat="51.080943"><ele>27.8</ele><time>2022-04-10T09:16:50.000Z</time></trkpt><trkpt lon="5.819919" lat="51.080955"><ele>27.4</ele><time>2022-04-10T09:16:51.000Z</time></trkpt><trkpt lon="5.819777" lat="51.080965"><ele>27.2</ele><time>2022-04-10T09:16:52.000Z</time></trkpt><trkpt lon="5.819639" lat="51.080973"><ele>26.8</ele><time>2022-04-10T09:16:53.000Z</time></trkpt><trkpt lon="5.8195" lat="51.080981"><ele>26.4</ele><time>2022-04-10T09:16:54.000Z</time></trkpt><trkpt lon="5.819363" lat="51.080987"><ele>26.2</ele><time>2022-04-10T09:16:55.000Z</time></trkpt><trkpt lon="5.819226" lat="51.080991"><ele>25.8</ele><time>2022-04-10T09:16:56.000Z</time></trkpt><trkpt lon="5.819083" lat="51.080996"><ele>25.6</ele><time>2022-04-10T09:16:57.000Z</time></trkpt><trkpt lon="5.818938" lat="51.081002"><ele>25.2</ele><time>2022-04-10T09:16:58.000Z</time></trkpt><trkpt lon="5.81879" lat="51.081007"><ele>25</ele><time>2022-04-10T09:16:59.000Z</time></trkpt><trkpt lon="5.818644" lat="51.081015"><ele>24.6</ele><time>2022-04-10T09:17:00.000Z</time></trkpt><trkpt lon="5.818498" lat="51.081022"><ele>24.4</ele><time>2022-04-10T09:17:01.000Z</time></trkpt><trkpt lon="5.818352" lat="51.081029"><ele>24</ele><time>2022-04-10T09:17:02.000Z</time></trkpt><trkpt lon="5.818211" lat="51.081035"><ele>23.8</ele><time>2022-04-10T09:17:03.000Z</time></trkpt><trkpt lon="5.818069" lat="51.081046"><ele>23.6</ele><time>2022-04-10T09:17:04.000Z</time></trkpt><trkpt lon="5.817928" lat="51.081058"><ele>23.6</ele><time>2022-04-10T09:17:05.000Z</time></trkpt><trkpt lon="5.817788" lat="51.081069"><ele>23.2</ele><time>2022-04-10T09:17:06.000Z</time></trkpt><trkpt lon="5.817647" lat="51.081081"><ele>23</ele><time>2022-04-10T09:17:07.000Z</time></trkpt><trkpt lon="5.817507" lat="51.081091"><ele>23</ele><time>2022-04-10T09:17:08.000Z</time></trkpt><trkpt lon="5.817368" lat="51.0811"><ele>23</ele><time>2022-04-10T09:17:09.000Z</time></trkpt><trkpt lon="5.817229" lat="51.08111"><ele>23.2</ele><time>2022-04-10T09:17:10.000Z</time></trkpt><trkpt lon="5.817092" lat="51.081119"><ele>23.2</ele><time>2022-04-10T09:17:11.000Z</time></trkpt><trkpt lon="5.816955" lat="51.08113"><ele>23.2</ele><time>2022-04-10T09:17:12.000Z</time></trkpt><trkpt lon="5.816819" lat="51.081142"><ele>23.2</ele><time>2022-04-10T09:17:13.000Z</time></trkpt><trkpt lon="5.816683" lat="51.081153"><ele>23</ele><time>2022-04-10T09:17:14.000Z</time></trkpt><trkpt lon="5.816552" lat="51.081166"><ele>23</ele><time>2022-04-10T09:17:15.000Z</time></trkpt><trkpt lon="5.816423" lat="51.08118"><ele>23</ele><time>2022-04-10T09:17:16.000Z</time></trkpt><trkpt lon="5.816297" lat="51.081192"><ele>23</ele><time>2022-04-10T09:17:17.000Z</time></trkpt><trkpt lon="5.816173" lat="51.081208"><ele>23</ele><time>2022-04-10T09:17:18.000Z</time></trkpt><trkpt lon="5.816052" lat="51.081223"><ele>22.8</ele><time>2022-04-10T09:17:19.000Z</time></trkpt><trkpt lon="5.815936" lat="51.081239"><ele>22.8</ele><time>2022-04-10T09:17:20.000Z</time></trkpt><trkpt lon="5.815818" lat="51.081256"><ele>22.8</ele><time>2022-04-10T09:17:21.000Z</time></trkpt><trkpt lon="5.815701" lat="51.081269"><ele>22.6</ele><time>2022-04-10T09:17:22.000Z</time></trkpt><trkpt lon="5.815586" lat="51.081284"><ele>22.6</ele><time>2022-04-10T09:17:23.000Z</time></trkpt><trkpt lon="5.815469" lat="51.0813"><ele>22.6</ele><time>2022-04-10T09:17:24.000Z</time></trkpt><trkpt lon="5.815354" lat="51.081321"><ele>22.6</ele><time>2022-04-10T09:17:25.000Z</time></trkpt><trkpt lon="5.815238" lat="51.081343"><ele>22.6</ele><time>2022-04-10T09:17:26.000Z</time></trkpt><trkpt lon="5.815126" lat="51.081366"><ele>22.4</ele><time>2022-04-10T09:17:27.000Z</time></trkpt><trkpt lon="5.815013" lat="51.081389"><ele>22.4</ele><time>2022-04-10T09:17:28.000Z</time></trkpt><trkpt lon="5.814903" lat="51.081412"><ele>22.4</ele><time>2022-04-10T09:17:29.000Z</time></trkpt><trkpt lon="5.814792" lat="51.081435"><ele>22.6</ele><time>2022-04-10T09:17:30.000Z</time></trkpt><trkpt lon="5.81468" lat="51.081462"><ele>22.8</ele><time>2022-04-10T09:17:31.000Z</time></trkpt><trkpt lon="5.814574" lat="51.081486"><ele>22.6</ele><time>2022-04-10T09:17:32.000Z</time></trkpt><trkpt lon="5.814469" lat="51.081511"><ele>22.6</ele><time>2022-04-10T09:17:33.000Z</time></trkpt><trkpt lon="5.814364" lat="51.081534"><ele>22.6</ele><time>2022-04-10T09:17:34.000Z</time></trkpt><trkpt lon="5.814261" lat="51.081557"><ele>22.6</ele><time>2022-04-10T09:17:35.000Z</time></trkpt><trkpt lon="5.81416" lat="51.081581"><ele>22.8</ele><time>2022-04-10T09:17:36.000Z</time></trkpt><trkpt lon="5.814059" lat="51.081606"><ele>22.6</ele><time>2022-04-10T09:17:37.000Z</time></trkpt><trkpt lon="5.813961" lat="51.081629"><ele>22.4</ele><time>2022-04-10T09:17:38.000Z</time></trkpt><trkpt lon="5.813865" lat="51.081652"><ele>22.4</ele><time>2022-04-10T09:17:39.000Z</time></trkpt><trkpt lon="5.813773" lat="51.081675"><ele>22.4</ele><time>2022-04-10T09:17:40.000Z</time></trkpt><trkpt lon="5.813683" lat="51.081698"><ele>22.4</ele><time>2022-04-10T09:17:41.000Z</time></trkpt><trkpt lon="5.813597" lat="51.08172"><ele>22.2</ele><time>2022-04-10T09:17:42.000Z</time></trkpt><trkpt lon="5.813514" lat="51.081741"><ele>22.2</ele><time>2022-04-10T09:17:43.000Z</time></trkpt><trkpt lon="5.813438" lat="51.08177"><ele>22.2</ele><time>2022-04-10T09:17:44.000Z</time></trkpt><trkpt lon="5.813367" lat="51.081804"><ele>22.2</ele><time>2022-04-10T09:17:45.000Z</time></trkpt><trkpt lon="5.813306" lat="51.08184"><ele>22.2</ele><time>2022-04-10T09:17:46.000Z</time></trkpt><trkpt lon="5.813259" lat="51.081878"><ele>22.2</ele><time>2022-04-10T09:17:47.000Z</time></trkpt><trkpt lon="5.813226" lat="51.081916"><ele>22.4</ele><time>2022-04-10T09:17:48.000Z</time></trkpt><trkpt lon="5.813195" lat="51.081957"><ele>22.6</ele><time>2022-04-10T09:17:49.000Z</time></trkpt><trkpt lon="5.813162" lat="51.081989"><ele>22.6</ele><time>2022-04-10T09:17:50.000Z</time></trkpt><trkpt lon="5.813124" lat="51.082015"><ele>22.8</ele><time>2022-04-10T09:17:51.000Z</time></trkpt><trkpt lon="5.813076" lat="51.082037"><ele>22.8</ele><time>2022-04-10T09:17:52.000Z</time></trkpt><trkpt lon="5.813019" lat="51.082054"><ele>23</ele><time>2022-04-10T09:17:53.000Z</time></trkpt><trkpt lon="5.812957" lat="51.082062"><ele>23</ele><time>2022-04-10T09:17:54.000Z</time></trkpt><trkpt lon="5.812887" lat="51.082059"><ele>23</ele><time>2022-04-10T09:17:55.000Z</time></trkpt><trkpt lon="5.81281" lat="51.082046"><ele>23</ele><time>2022-04-10T09:17:56.000Z</time></trkpt><trkpt lon="5.812726" lat="51.08203"><ele>22.8</ele><time>2022-04-10T09:17:57.000Z</time></trkpt><trkpt lon="5.812637" lat="51.082013"><ele>22.6</ele><time>2022-04-10T09:17:58.000Z</time></trkpt><trkpt lon="5.812538" lat="51.082003"><ele>22.6</ele><time>2022-04-10T09:17:59.000Z</time></trkpt><trkpt lon="5.812435" lat="51.082004"><ele>22.6</ele><time>2022-04-10T09:18:00.000Z</time></trkpt><trkpt lon="5.812331" lat="51.082017"><ele>22.4</ele><time>2022-04-10T09:18:01.000Z</time></trkpt><trkpt lon="5.812227" lat="51.082037"><ele>22.2</ele><time>2022-04-10T09:18:02.000Z</time></trkpt><trkpt lon="5.812124" lat="51.08206"><ele>22.4</ele><time>2022-04-10T09:18:03.000Z</time></trkpt><trkpt lon="5.812022" lat="51.082083"><ele>22.6</ele><time>2022-04-10T09:18:04.000Z</time></trkpt><trkpt lon="5.81192" lat="51.082107"><ele>22.6</ele><time>2022-04-10T09:18:05.000Z</time></trkpt><trkpt lon="5.81182" lat="51.082133"><ele>22.6</ele><time>2022-04-10T09:18:06.000Z</time></trkpt><trkpt lon="5.811721" lat="51.082156"><ele>22.6</ele><time>2022-04-10T09:18:07.000Z</time></trkpt><trkpt lon="5.811622" lat="51.08218"><ele>22.6</ele><time>2022-04-10T09:18:08.000Z</time></trkpt><trkpt lon="5.811525" lat="51.082206"><ele>22.4</ele><time>2022-04-10T09:18:09.000Z</time></trkpt><trkpt lon="5.811426" lat="51.082232"><ele>22.4</ele><time>2022-04-10T09:18:10.000Z</time></trkpt><trkpt lon="5.811326" lat="51.082255"><ele>22.4</ele><time>2022-04-10T09:18:11.000Z</time></trkpt><trkpt lon="5.811226" lat="51.082278"><ele>22.4</ele><time>2022-04-10T09:18:12.000Z</time></trkpt><trkpt lon="5.811127" lat="51.082302"><ele>22.6</ele><time>2022-04-10T09:18:13.000Z</time></trkpt><trkpt lon="5.811027" lat="51.082328"><ele>22.8</ele><time>2022-04-10T09:18:14.000Z</time></trkpt><trkpt lon="5.810929" lat="51.082355"><ele>23</ele><time>2022-04-10T09:18:15.000Z</time></trkpt><trkpt lon="5.810831" lat="51.082383"><ele>23</ele><time>2022-04-10T09:18:16.000Z</time></trkpt><trkpt lon="5.810735" lat="51.082413"><ele>23.2</ele><time>2022-04-10T09:18:17.000Z</time></trkpt><trkpt lon="5.810639" lat="51.082445"><ele>23.2</ele><time>2022-04-10T09:18:18.000Z</time></trkpt><trkpt lon="5.810546" lat="51.082481"><ele>23.4</ele><time>2022-04-10T09:18:19.000Z</time></trkpt><trkpt lon="5.810453" lat="51.082518"><ele>23.4</ele><time>2022-04-10T09:18:20.000Z</time></trkpt><trkpt lon="5.81036" lat="51.082556"><ele>23.4</ele><time>2022-04-10T09:18:21.000Z</time></trkpt><trkpt lon="5.810267" lat="51.082596"><ele>23.4</ele><time>2022-04-10T09:18:22.000Z</time></trkpt><trkpt lon="5.81018" lat="51.082639"><ele>23.6</ele><time>2022-04-10T09:18:23.000Z</time></trkpt><trkpt lon="5.810095" lat="51.082685"><ele>23.6</ele><time>2022-04-10T09:18:24.000Z</time></trkpt><trkpt lon="5.810014" lat="51.082731"><ele>23.6</ele><time>2022-04-10T09:18:25.000Z</time></trkpt><trkpt lon="5.809931" lat="51.082781"><ele>23.4</ele><time>2022-04-10T09:18:26.000Z</time></trkpt><trkpt lon="5.809854" lat="51.082828"><ele>23.4</ele><time>2022-04-10T09:18:27.000Z</time></trkpt><trkpt lon="5.809779" lat="51.082879"><ele>23.6</ele><time>2022-04-10T09:18:28.000Z</time></trkpt><trkpt lon="5.809703" lat="51.082931"><ele>23.4</ele><time>2022-04-10T09:18:29.000Z</time></trkpt><trkpt lon="5.80963" lat="51.082984"><ele>23.6</ele><time>2022-04-10T09:18:30.000Z</time></trkpt><trkpt lon="5.809556" lat="51.083036"><ele>23.4</ele><time>2022-04-10T09:18:31.000Z</time></trkpt><trkpt lon="5.809482" lat="51.083086"><ele>23.4</ele><time>2022-04-10T09:18:32.000Z</time></trkpt><trkpt lon="5.809406" lat="51.083137"><ele>23.4</ele><time>2022-04-10T09:18:33.000Z</time></trkpt><trkpt lon="5.809331" lat="51.083189"><ele>23.4</ele><time>2022-04-10T09:18:34.000Z</time></trkpt><trkpt lon="5.809257" lat="51.083238"><ele>23.4</ele><time>2022-04-10T09:18:35.000Z</time></trkpt><trkpt lon="5.809183" lat="51.083289"><ele>23.6</ele><time>2022-04-10T09:18:36.000Z</time></trkpt><trkpt lon="5.80911" lat="51.083342"><ele>23.6</ele><time>2022-04-10T09:18:37.000Z</time></trkpt><trkpt lon="5.809037" lat="51.083391"><ele>23.6</ele><time>2022-04-10T09:18:38.000Z</time></trkpt><trkpt lon="5.808962" lat="51.08344"><ele>23.6</ele><time>2022-04-10T09:18:39.000Z</time></trkpt><trkpt lon="5.808889" lat="51.083487"><ele>23.4</ele><time>2022-04-10T09:18:40.000Z</time></trkpt><trkpt lon="5.808814" lat="51.083537"><ele>23.8</ele><time>2022-04-10T09:18:41.000Z</time></trkpt><trkpt lon="5.808736" lat="51.083586"><ele>23.8</ele><time>2022-04-10T09:18:42.000Z</time></trkpt><trkpt lon="5.808659" lat="51.083636"><ele>24</ele><time>2022-04-10T09:18:43.000Z</time></trkpt><trkpt lon="5.808582" lat="51.083684"><ele>24.2</ele><time>2022-04-10T09:18:44.000Z</time></trkpt><trkpt lon="5.808505" lat="51.083731"><ele>24.2</ele><time>2022-04-10T09:18:45.000Z</time></trkpt><trkpt lon="5.808428" lat="51.08378"><ele>24.4</ele><time>2022-04-10T09:18:46.000Z</time></trkpt><trkpt lon="5.808348" lat="51.083825"><ele>24.2</ele><time>2022-04-10T09:18:47.000Z</time></trkpt><trkpt lon="5.808267" lat="51.083874"><ele>24.4</ele><time>2022-04-10T09:18:48.000Z</time></trkpt><trkpt lon="5.808186" lat="51.083924"><ele>24.2</ele><time>2022-04-10T09:18:49.000Z</time></trkpt><trkpt lon="5.808106" lat="51.083971"><ele>24</ele><time>2022-04-10T09:18:50.000Z</time></trkpt><trkpt lon="5.808026" lat="51.084018"><ele>23.8</ele><time>2022-04-10T09:18:51.000Z</time></trkpt><trkpt lon="5.807946" lat="51.084071"><ele>23.8</ele><time>2022-04-10T09:18:52.000Z</time></trkpt><trkpt lon="5.807869" lat="51.084119"><ele>23.6</ele><time>2022-04-10T09:18:53.000Z</time></trkpt><trkpt lon="5.807792" lat="51.084164"><ele>23.6</ele><time>2022-04-10T09:18:54.000Z</time></trkpt><trkpt lon="5.80771" lat="51.084211"><ele>23.8</ele><time>2022-04-10T09:18:55.000Z</time></trkpt><trkpt lon="5.807624" lat="51.084257"><ele>23.8</ele><time>2022-04-10T09:18:56.000Z</time></trkpt><trkpt lon="5.807541" lat="51.084302"><ele>24</ele><time>2022-04-10T09:18:57.000Z</time></trkpt><trkpt lon="5.807456" lat="51.084348"><ele>24.2</ele><time>2022-04-10T09:18:58.000Z</time></trkpt><trkpt lon="5.80737" lat="51.084394"><ele>24.4</ele><time>2022-04-10T09:18:59.000Z</time></trkpt><trkpt lon="5.807286" lat="51.084441"><ele>24.4</ele><time>2022-04-10T09:19:00.000Z</time></trkpt><trkpt lon="5.807202" lat="51.084489"><ele>24.2</ele><time>2022-04-10T09:19:01.000Z</time></trkpt><trkpt lon="5.807117" lat="51.084535"><ele>24.2</ele><time>2022-04-10T09:19:02.000Z</time></trkpt><trkpt lon="5.807034" lat="51.084582"><ele>24.4</ele><time>2022-04-10T09:19:03.000Z</time></trkpt><trkpt lon="5.806949" lat="51.08463"><ele>24.6</ele><time>2022-04-10T09:19:04.000Z</time></trkpt><trkpt lon="5.806865" lat="51.084675"><ele>24.6</ele><time>2022-04-10T09:19:05.000Z</time></trkpt><trkpt lon="5.80678" lat="51.084722"><ele>24.6</ele><time>2022-04-10T09:19:06.000Z</time></trkpt><trkpt lon="5.806696" lat="51.084767"><ele>24.6</ele><time>2022-04-10T09:19:07.000Z</time></trkpt><trkpt lon="5.806614" lat="51.084809"><ele>24.6</ele><time>2022-04-10T09:19:08.000Z</time></trkpt><trkpt lon="5.806532" lat="51.084854"><ele>24.6</ele><time>2022-04-10T09:19:09.000Z</time></trkpt><trkpt lon="5.806451" lat="51.084897"><ele>24.6</ele><time>2022-04-10T09:19:10.000Z</time></trkpt><trkpt lon="5.80637" lat="51.084939"><ele>24.8</ele><time>2022-04-10T09:19:11.000Z</time></trkpt><trkpt lon="5.806291" lat="51.084982"><ele>24.6</ele><time>2022-04-10T09:19:12.000Z</time></trkpt><trkpt lon="5.806211" lat="51.085027"><ele>24.4</ele><time>2022-04-10T09:19:13.000Z</time></trkpt><trkpt lon="5.80613" lat="51.085073"><ele>24.2</ele><time>2022-04-10T09:19:14.000Z</time></trkpt><trkpt lon="5.80605" lat="51.085117"><ele>24.2</ele><time>2022-04-10T09:19:15.000Z</time></trkpt><trkpt lon="5.805971" lat="51.08516"><ele>24.2</ele><time>2022-04-10T09:19:16.000Z</time></trkpt><trkpt lon="5.805889" lat="51.085206"><ele>24</ele><time>2022-04-10T09:19:17.000Z</time></trkpt><trkpt lon="5.805811" lat="51.085249"><ele>23.8</ele><time>2022-04-10T09:19:18.000Z</time></trkpt><trkpt lon="5.805733" lat="51.085294"><ele>23.8</ele><time>2022-04-10T09:19:19.000Z</time></trkpt><trkpt lon="5.805658" lat="51.085341"><ele>23.8</ele><time>2022-04-10T09:19:20.000Z</time></trkpt><trkpt lon="5.805584" lat="51.085389"><ele>23.8</ele><time>2022-04-10T09:19:21.000Z</time></trkpt><trkpt lon="5.805508" lat="51.085437"><ele>24</ele><time>2022-04-10T09:19:22.000Z</time></trkpt><trkpt lon="5.805435" lat="51.08549"><ele>24.2</ele><time>2022-04-10T09:19:23.000Z</time></trkpt><trkpt lon="5.805365" lat="51.085539"><ele>24.2</ele><time>2022-04-10T09:19:24.000Z</time></trkpt><trkpt lon="5.805299" lat="51.085592"><ele>24.4</ele><time>2022-04-10T09:19:25.000Z</time></trkpt><trkpt lon="5.805232" lat="51.085648"><ele>24.4</ele><time>2022-04-10T09:19:26.000Z</time></trkpt><trkpt lon="5.805167" lat="51.085706"><ele>24.4</ele><time>2022-04-10T09:19:27.000Z</time></trkpt><trkpt lon="5.805105" lat="51.085763"><ele>24.4</ele><time>2022-04-10T09:19:28.000Z</time></trkpt><trkpt lon="5.805043" lat="51.08582"><ele>24.2</ele><time>2022-04-10T09:19:29.000Z</time></trkpt><trkpt lon="5.804983" lat="51.085877"><ele>24.4</ele><time>2022-04-10T09:19:30.000Z</time></trkpt><trkpt lon="5.804924" lat="51.085934"><ele>24.4</ele><time>2022-04-10T09:19:31.000Z</time></trkpt><trkpt lon="5.804865" lat="51.085991"><ele>24.4</ele><time>2022-04-10T09:19:32.000Z</time></trkpt><trkpt lon="5.804805" lat="51.086049"><ele>24.4</ele><time>2022-04-10T09:19:33.000Z</time></trkpt><trkpt lon="5.804745" lat="51.086107"><ele>24.6</ele><time>2022-04-10T09:19:34.000Z</time></trkpt><trkpt lon="5.804685" lat="51.086167"><ele>24.6</ele><time>2022-04-10T09:19:35.000Z</time></trkpt><trkpt lon="5.804626" lat="51.086224"><ele>24.8</ele><time>2022-04-10T09:19:36.000Z</time></trkpt><trkpt lon="5.804565" lat="51.086281"><ele>24.8</ele><time>2022-04-10T09:19:37.000Z</time></trkpt><trkpt lon="5.804506" lat="51.086337"><ele>25</ele><time>2022-04-10T09:19:38.000Z</time></trkpt><trkpt lon="5.804446" lat="51.086396"><ele>25</ele><time>2022-04-10T09:19:39.000Z</time></trkpt><trkpt lon="5.804387" lat="51.086457"><ele>25</ele><time>2022-04-10T09:19:40.000Z</time></trkpt><trkpt lon="5.804327" lat="51.086514"><ele>25</ele><time>2022-04-10T09:19:41.000Z</time></trkpt><trkpt lon="5.804266" lat="51.086571"><ele>25.2</ele><time>2022-04-10T09:19:42.000Z</time></trkpt><trkpt lon="5.804204" lat="51.086628"><ele>25.2</ele><time>2022-04-10T09:19:43.000Z</time></trkpt><trkpt lon="5.804142" lat="51.086685"><ele>25.2</ele><time>2022-04-10T09:19:44.000Z</time></trkpt><trkpt lon="5.80408" lat="51.086742"><ele>25</ele><time>2022-04-10T09:19:45.000Z</time></trkpt><trkpt lon="5.804019" lat="51.0868"><ele>25</ele><time>2022-04-10T09:19:46.000Z</time></trkpt><trkpt lon="5.803958" lat="51.086858"><ele>25</ele><time>2022-04-10T09:19:47.000Z</time></trkpt><trkpt lon="5.803898" lat="51.086916"><ele>25</ele><time>2022-04-10T09:19:48.000Z</time></trkpt><trkpt lon="5.803837" lat="51.086975"><ele>24.8</ele><time>2022-04-10T09:19:49.000Z</time></trkpt><trkpt lon="5.803776" lat="51.087029"><ele>24.8</ele><time>2022-04-10T09:19:50.000Z</time></trkpt><trkpt lon="5.803715" lat="51.087086"><ele>24.8</ele><time>2022-04-10T09:19:51.000Z</time></trkpt><trkpt lon="5.803655" lat="51.087143"><ele>24.8</ele><time>2022-04-10T09:19:52.000Z</time></trkpt><trkpt lon="5.803594" lat="51.0872"><ele>24.8</ele><time>2022-04-10T09:19:53.000Z</time></trkpt><trkpt lon="5.803536" lat="51.087257"><ele>24.8</ele><time>2022-04-10T09:19:54.000Z</time></trkpt><trkpt lon="5.803477" lat="51.087315"><ele>25.2</ele><time>2022-04-10T09:19:55.000Z</time></trkpt><trkpt lon="5.803419" lat="51.087372"><ele>25.4</ele><time>2022-04-10T09:19:56.000Z</time></trkpt><trkpt lon="5.803362" lat="51.087425"><ele>25.6</ele><time>2022-04-10T09:19:57.000Z</time></trkpt><trkpt lon="5.803304" lat="51.087478"><ele>25.8</ele><time>2022-04-10T09:19:58.000Z</time></trkpt><trkpt lon="5.803246" lat="51.087531"><ele>25.8</ele><time>2022-04-10T09:19:59.000Z</time></trkpt><trkpt lon="5.80319" lat="51.087585"><ele>26</ele><time>2022-04-10T09:20:00.000Z</time></trkpt><trkpt lon="5.803136" lat="51.087638"><ele>26</ele><time>2022-04-10T09:20:01.000Z</time></trkpt><trkpt lon="5.80308" lat="51.087692"><ele>26.2</ele><time>2022-04-10T09:20:02.000Z</time></trkpt><trkpt lon="5.803026" lat="51.087745"><ele>26.4</ele><time>2022-04-10T09:20:03.000Z</time></trkpt><trkpt lon="5.802972" lat="51.087798"><ele>26.4</ele><time>2022-04-10T09:20:04.000Z</time></trkpt><trkpt lon="5.802916" lat="51.087852"><ele>26.6</ele><time>2022-04-10T09:20:05.000Z</time></trkpt><trkpt lon="5.802861" lat="51.087906"><ele>26.6</ele><time>2022-04-10T09:20:06.000Z</time></trkpt><trkpt lon="5.802805" lat="51.087959"><ele>26.6</ele><time>2022-04-10T09:20:07.000Z</time></trkpt><trkpt lon="5.802748" lat="51.088012"><ele>26.8</ele><time>2022-04-10T09:20:08.000Z</time></trkpt><trkpt lon="5.802691" lat="51.088066"><ele>26.8</ele><time>2022-04-10T09:20:09.000Z</time></trkpt><trkpt lon="5.802635" lat="51.08812"><ele>26.8</ele><time>2022-04-10T09:20:10.000Z</time></trkpt><trkpt lon="5.802579" lat="51.088176"><ele>26.8</ele><time>2022-04-10T09:20:11.000Z</time></trkpt><trkpt lon="5.802521" lat="51.088231"><ele>26.8</ele><time>2022-04-10T09:20:12.000Z</time></trkpt><trkpt lon="5.802464" lat="51.088287"><ele>26.6</ele><time>2022-04-10T09:20:13.000Z</time></trkpt><trkpt lon="5.802405" lat="51.088342"><ele>26.6</ele><time>2022-04-10T09:20:14.000Z</time></trkpt><trkpt lon="5.802347" lat="51.088399"><ele>26.6</ele><time>2022-04-10T09:20:15.000Z</time></trkpt><trkpt lon="5.802289" lat="51.088456"><ele>26.4</ele><time>2022-04-10T09:20:16.000Z</time></trkpt><trkpt lon="5.80223" lat="51.088513"><ele>26.2</ele><time>2022-04-10T09:20:17.000Z</time></trkpt><trkpt lon="5.802172" lat="51.08857"><ele>26.4</ele><time>2022-04-10T09:20:18.000Z</time></trkpt><trkpt lon="5.802112" lat="51.088628"><ele>26.2</ele><time>2022-04-10T09:20:19.000Z</time></trkpt><trkpt lon="5.802052" lat="51.088684"><ele>26.4</ele><time>2022-04-10T09:20:20.000Z</time></trkpt><trkpt lon="5.801993" lat="51.088741"><ele>26.4</ele><time>2022-04-10T09:20:21.000Z</time></trkpt><trkpt lon="5.801931" lat="51.088801"><ele>26.2</ele><time>2022-04-10T09:20:22.000Z</time></trkpt><trkpt lon="5.801872" lat="51.08886"><ele>26.2</ele><time>2022-04-10T09:20:23.000Z</time></trkpt><trkpt lon="5.801812" lat="51.088918"><ele>26</ele><time>2022-04-10T09:20:24.000Z</time></trkpt><trkpt lon="5.801753" lat="51.088977"><ele>26</ele><time>2022-04-10T09:20:25.000Z</time></trkpt><trkpt lon="5.801694" lat="51.089036"><ele>26</ele><time>2022-04-10T09:20:26.000Z</time></trkpt><trkpt lon="5.801635" lat="51.089093"><ele>26</ele><time>2022-04-10T09:20:27.000Z</time></trkpt><trkpt lon="5.801578" lat="51.089149"><ele>26</ele><time>2022-04-10T09:20:28.000Z</time></trkpt><trkpt lon="5.801519" lat="51.089204"><ele>25.8</ele><time>2022-04-10T09:20:29.000Z</time></trkpt><trkpt lon="5.801463" lat="51.08926"><ele>25.8</ele><time>2022-04-10T09:20:30.000Z</time></trkpt><trkpt lon="5.801409" lat="51.089313"><ele>25.8</ele><time>2022-04-10T09:20:31.000Z</time></trkpt><trkpt lon="5.801355" lat="51.089366"><ele>25.6</ele><time>2022-04-10T09:20:32.000Z</time></trkpt><trkpt lon="5.8013" lat="51.08942"><ele>25.6</ele><time>2022-04-10T09:20:33.000Z</time></trkpt><trkpt lon="5.801245" lat="51.089473"><ele>25.4</ele><time>2022-04-10T09:20:34.000Z</time></trkpt><trkpt lon="5.801187" lat="51.089532"><ele>25.4</ele><time>2022-04-10T09:20:35.000Z</time></trkpt><trkpt lon="5.801132" lat="51.089589"><ele>25.4</ele><time>2022-04-10T09:20:36.000Z</time></trkpt><trkpt lon="5.801077" lat="51.089645"><ele>25.4</ele><time>2022-04-10T09:20:37.000Z</time></trkpt><trkpt lon="5.801023" lat="51.0897"><ele>25.4</ele><time>2022-04-10T09:20:38.000Z</time></trkpt><trkpt lon="5.800971" lat="51.089757"><ele>25.4</ele><time>2022-04-10T09:20:39.000Z</time></trkpt><trkpt lon="5.800919" lat="51.089817"><ele>25.6</ele><time>2022-04-10T09:20:40.000Z</time></trkpt><trkpt lon="5.800871" lat="51.089876"><ele>25.6</ele><time>2022-04-10T09:20:41.000Z</time></trkpt><trkpt lon="5.800829" lat="51.089938"><ele>25.6</ele><time>2022-04-10T09:20:42.000Z</time></trkpt><trkpt lon="5.80079" lat="51.090003"><ele>25.8</ele><time>2022-04-10T09:20:43.000Z</time></trkpt><trkpt lon="5.800756" lat="51.090067"><ele>25.6</ele><time>2022-04-10T09:20:44.000Z</time></trkpt><trkpt lon="5.800726" lat="51.090134"><ele>25.6</ele><time>2022-04-10T09:20:45.000Z</time></trkpt><trkpt lon="5.800699" lat="51.090203"><ele>25.6</ele><time>2022-04-10T09:20:46.000Z</time></trkpt><trkpt lon="5.800681" lat="51.090271"><ele>25.8</ele><time>2022-04-10T09:20:47.000Z</time></trkpt><trkpt lon="5.800669" lat="51.090339"><ele>25.8</ele><time>2022-04-10T09:20:48.000Z</time></trkpt><trkpt lon="5.800663" lat="51.090408"><ele>25.6</ele><time>2022-04-10T09:20:49.000Z</time></trkpt><trkpt lon="5.800661" lat="51.090476"><ele>25.4</ele><time>2022-04-10T09:20:50.000Z</time></trkpt><trkpt lon="5.800662" lat="51.090544"><ele>25.2</ele><time>2022-04-10T09:20:51.000Z</time></trkpt><trkpt lon="5.800666" lat="51.090618"><ele>25.4</ele><time>2022-04-10T09:20:52.000Z</time></trkpt><trkpt lon="5.800671" lat="51.090686"><ele>25.6</ele><time>2022-04-10T09:20:53.000Z</time></trkpt><trkpt lon="5.800675" lat="51.090756"><ele>25.6</ele><time>2022-04-10T09:20:54.000Z</time></trkpt><trkpt lon="5.80068" lat="51.090824"><ele>25.8</ele><time>2022-04-10T09:20:55.000Z</time></trkpt><trkpt lon="5.800684" lat="51.090892"><ele>25.8</ele><time>2022-04-10T09:20:56.000Z</time></trkpt><trkpt lon="5.800688" lat="51.090958"><ele>25.8</ele><time>2022-04-10T09:20:57.000Z</time></trkpt><trkpt lon="5.800691" lat="51.091026"><ele>25.8</ele><time>2022-04-10T09:20:58.000Z</time></trkpt><trkpt lon="5.800693" lat="51.091095"><ele>26</ele><time>2022-04-10T09:20:59.000Z</time></trkpt><trkpt lon="5.80069" lat="51.091164"><ele>26</ele><time>2022-04-10T09:21:00.000Z</time></trkpt><trkpt lon="5.800682" lat="51.091231"><ele>26</ele><time>2022-04-10T09:21:01.000Z</time></trkpt><trkpt lon="5.800669" lat="51.091297"><ele>26.2</ele><time>2022-04-10T09:21:02.000Z</time></trkpt><trkpt lon="5.800651" lat="51.091364"><ele>26.2</ele><time>2022-04-10T09:21:03.000Z</time></trkpt><trkpt lon="5.800627" lat="51.09143"><ele>26.2</ele><time>2022-04-10T09:21:04.000Z</time></trkpt><trkpt lon="5.8006" lat="51.091494"><ele>26.2</ele><time>2022-04-10T09:21:05.000Z</time></trkpt><trkpt lon="5.800565" lat="51.091557"><ele>26.2</ele><time>2022-04-10T09:21:06.000Z</time></trkpt><trkpt lon="5.800522" lat="51.091616"><ele>26.2</ele><time>2022-04-10T09:21:07.000Z</time></trkpt><trkpt lon="5.800474" lat="51.091675"><ele>26.4</ele><time>2022-04-10T09:21:08.000Z</time></trkpt><trkpt lon="5.800419" lat="51.091732"><ele>26.6</ele><time>2022-04-10T09:21:09.000Z</time></trkpt><trkpt lon="5.800356" lat="51.091783"><ele>26.6</ele><time>2022-04-10T09:21:10.000Z</time></trkpt><trkpt lon="5.800286" lat="51.091829"><ele>26.8</ele><time>2022-04-10T09:21:11.000Z</time></trkpt><trkpt lon="5.800213" lat="51.091874"><ele>27</ele><time>2022-04-10T09:21:12.000Z</time></trkpt><trkpt lon="5.800137" lat="51.091919"><ele>27.2</ele><time>2022-04-10T09:21:13.000Z</time></trkpt><trkpt lon="5.800057" lat="51.091965"><ele>27.4</ele><time>2022-04-10T09:21:14.000Z</time></trkpt><trkpt lon="5.799981" lat="51.092008"><ele>27.4</ele><time>2022-04-10T09:21:15.000Z</time></trkpt><trkpt lon="5.799906" lat="51.092053"><ele>27.6</ele><time>2022-04-10T09:21:16.000Z</time></trkpt><trkpt lon="5.799831" lat="51.092095"><ele>27.8</ele><time>2022-04-10T09:21:17.000Z</time></trkpt><trkpt lon="5.799758" lat="51.092137"><ele>28</ele><time>2022-04-10T09:21:18.000Z</time></trkpt><trkpt lon="5.799685" lat="51.092179"><ele>28.2</ele><time>2022-04-10T09:21:19.000Z</time></trkpt><trkpt lon="5.799615" lat="51.09222"><ele>28.4</ele><time>2022-04-10T09:21:20.000Z</time></trkpt><trkpt lon="5.799545" lat="51.092262"><ele>28.8</ele><time>2022-04-10T09:21:21.000Z</time></trkpt><trkpt lon="5.799477" lat="51.092303"><ele>29.2</ele><time>2022-04-10T09:21:22.000Z</time></trkpt><trkpt lon="5.799406" lat="51.092342"><ele>29.2</ele><time>2022-04-10T09:21:23.000Z</time></trkpt><trkpt lon="5.799339" lat="51.092383"><ele>29.4</ele><time>2022-04-10T09:21:24.000Z</time></trkpt><trkpt lon="5.799267" lat="51.092423"><ele>29.6</ele><time>2022-04-10T09:21:25.000Z</time></trkpt><trkpt lon="5.799197" lat="51.092465"><ele>29.8</ele><time>2022-04-10T09:21:26.000Z</time></trkpt><trkpt lon="5.799128" lat="51.092506"><ele>30</ele><time>2022-04-10T09:21:27.000Z</time></trkpt><trkpt lon="5.799059" lat="51.092545"><ele>30.4</ele><time>2022-04-10T09:21:28.000Z</time></trkpt><trkpt lon="5.798989" lat="51.092586"><ele>30.4</ele><time>2022-04-10T09:21:29.000Z</time></trkpt><trkpt lon="5.798919" lat="51.092625"><ele>30.8</ele><time>2022-04-10T09:21:30.000Z</time></trkpt><trkpt lon="5.798848" lat="51.092667"><ele>31</ele><time>2022-04-10T09:21:31.000Z</time></trkpt><trkpt lon="5.798777" lat="51.09271"><ele>31.2</ele><time>2022-04-10T09:21:32.000Z</time></trkpt><trkpt lon="5.798702" lat="51.092755"><ele>31.2</ele><time>2022-04-10T09:21:33.000Z</time></trkpt><trkpt lon="5.798628" lat="51.092797"><ele>31.4</ele><time>2022-04-10T09:21:34.000Z</time></trkpt><trkpt lon="5.798552" lat="51.092843"><ele>31.4</ele><time>2022-04-10T09:21:35.000Z</time></trkpt><trkpt lon="5.798476" lat="51.092888"><ele>31.4</ele><time>2022-04-10T09:21:36.000Z</time></trkpt><trkpt lon="5.798397" lat="51.092931"><ele>31.4</ele><time>2022-04-10T09:21:37.000Z</time></trkpt><trkpt lon="5.798322" lat="51.092977"><ele>31.6</ele><time>2022-04-10T09:21:38.000Z</time></trkpt><trkpt lon="5.798245" lat="51.093022"><ele>31.6</ele><time>2022-04-10T09:21:39.000Z</time></trkpt><trkpt lon="5.798167" lat="51.093069"><ele>31.2</ele><time>2022-04-10T09:21:40.000Z</time></trkpt><trkpt lon="5.79809" lat="51.093114"><ele>31.2</ele><time>2022-04-10T09:21:41.000Z</time></trkpt><trkpt lon="5.798014" lat="51.09316"><ele>31</ele><time>2022-04-10T09:21:42.000Z</time></trkpt><trkpt lon="5.797935" lat="51.093205"><ele>31</ele><time>2022-04-10T09:21:43.000Z</time></trkpt><trkpt lon="5.797856" lat="51.093253"><ele>30.6</ele><time>2022-04-10T09:21:44.000Z</time></trkpt><trkpt lon="5.79778" lat="51.0933"><ele>30.4</ele><time>2022-04-10T09:21:45.000Z</time></trkpt><trkpt lon="5.797704" lat="51.093343"><ele>30.2</ele><time>2022-04-10T09:21:46.000Z</time></trkpt><trkpt lon="5.797627" lat="51.093388"><ele>30</ele><time>2022-04-10T09:21:47.000Z</time></trkpt><trkpt lon="5.797546" lat="51.093427"><ele>29.8</ele><time>2022-04-10T09:21:48.000Z</time></trkpt><trkpt lon="5.797464" lat="51.093462"><ele>29.6</ele><time>2022-04-10T09:21:49.000Z</time></trkpt><trkpt lon="5.79739" lat="51.093495"><ele>29.4</ele><time>2022-04-10T09:21:50.000Z</time></trkpt><trkpt lon="5.797319" lat="51.093527"><ele>29.2</ele><time>2022-04-10T09:21:51.000Z</time></trkpt><trkpt lon="5.797255" lat="51.093559"><ele>28.8</ele><time>2022-04-10T09:21:52.000Z</time></trkpt><trkpt lon="5.797198" lat="51.093587"><ele>28.6</ele><time>2022-04-10T09:21:53.000Z</time></trkpt><trkpt lon="5.797151" lat="51.093618"><ele>28.4</ele><time>2022-04-10T09:21:54.000Z</time></trkpt><trkpt lon="5.797126" lat="51.093653"><ele>28</ele><time>2022-04-10T09:21:55.000Z</time></trkpt><trkpt lon="5.797118" lat="51.093685"><ele>27.8</ele><time>2022-04-10T09:21:56.000Z</time></trkpt><trkpt lon="5.797111" lat="51.09371"><ele>27.6</ele><time>2022-04-10T09:21:57.000Z</time></trkpt><trkpt lon="5.7971" lat="51.093724"><ele>27.4</ele><time>2022-04-10T09:21:58.000Z</time></trkpt><trkpt lon="5.797048" lat="51.093745"><ele>26.8</ele><time>2022-04-10T09:22:01.000Z</time></trkpt><trkpt lon="5.797011" lat="51.093752"><ele>26.8</ele><time>2022-04-10T09:22:02.000Z</time></trkpt><trkpt lon="5.796966" lat="51.093761"><ele>26.6</ele><time>2022-04-10T09:22:03.000Z</time></trkpt><trkpt lon="5.796915" lat="51.093772"><ele>26.4</ele><time>2022-04-10T09:22:04.000Z</time></trkpt><trkpt lon="5.796859" lat="51.093784"><ele>26.2</ele><time>2022-04-10T09:22:05.000Z</time></trkpt><trkpt lon="5.796803" lat="51.093795"><ele>26.2</ele><time>2022-04-10T09:22:06.000Z</time></trkpt><trkpt lon="5.79675" lat="51.093807"><ele>26</ele><time>2022-04-10T09:22:07.000Z</time></trkpt><trkpt lon="5.796704" lat="51.093817"><ele>26</ele><time>2022-04-10T09:22:08.000Z</time></trkpt><trkpt lon="5.796669" lat="51.093825"><ele>26</ele><time>2022-04-10T09:22:09.000Z</time></trkpt><trkpt lon="5.796644" lat="51.093831"><ele>26</ele><time>2022-04-10T09:22:10.000Z</time></trkpt><trkpt lon="5.79663" lat="51.093835"><ele>26</ele><time>2022-04-10T09:22:11.000Z</time></trkpt><trkpt lon="5.796624" lat="51.093838"><ele>26</ele><time>2022-04-10T09:22:12.000Z</time></trkpt><trkpt lon="5.796622" lat="51.093838"><ele>26</ele><time>2022-04-10T09:22:13.000Z</time></trkpt><trkpt lon="5.796622" lat="51.093838"><ele>26</ele><time>2022-04-10T09:22:14.000Z</time></trkpt><trkpt lon="5.796622" lat="51.093838"><ele>26</ele><time>2022-04-10T09:22:15.000Z</time></trkpt><trkpt lon="5.796613" lat="51.093841"><ele>26</ele><time>2022-04-10T09:22:22.000Z</time></trkpt><trkpt lon="5.796585" lat="51.093854"><ele>26</ele><time>2022-04-10T09:22:23.000Z</time></trkpt><trkpt lon="5.796569" lat="51.093876"><ele>26</ele><time>2022-04-10T09:22:24.000Z</time></trkpt><trkpt lon="5.796561" lat="51.093903"><ele>25.8</ele><time>2022-04-10T09:22:25.000Z</time></trkpt><trkpt lon="5.796563" lat="51.09393"><ele>25.8</ele><time>2022-04-10T09:22:26.000Z</time></trkpt><trkpt lon="5.796574" lat="51.093961"><ele>25.8</ele><time>2022-04-10T09:22:27.000Z</time></trkpt><trkpt lon="5.796591" lat="51.093991"><ele>25.8</ele><time>2022-04-10T09:22:28.000Z</time></trkpt><trkpt lon="5.796608" lat="51.094023"><ele>25.8</ele><time>2022-04-10T09:22:29.000Z</time></trkpt><trkpt lon="5.796627" lat="51.094058"><ele>25.6</ele><time>2022-04-10T09:22:30.000Z</time></trkpt><trkpt lon="5.796648" lat="51.094096"><ele>25.6</ele><time>2022-04-10T09:22:31.000Z</time></trkpt><trkpt lon="5.79667" lat="51.094135"><ele>25.6</ele><time>2022-04-10T09:22:32.000Z</time></trkpt><trkpt lon="5.796691" lat="51.094174"><ele>25.6</ele><time>2022-04-10T09:22:33.000Z</time></trkpt><trkpt lon="5.796707" lat="51.094215"><ele>25.8</ele><time>2022-04-10T09:22:34.000Z</time></trkpt><trkpt lon="5.79672" lat="51.094253"><ele>25.8</ele><time>2022-04-10T09:22:35.000Z</time></trkpt><trkpt lon="5.796734" lat="51.094296"><ele>25.6</ele><time>2022-04-10T09:22:36.000Z</time></trkpt><trkpt lon="5.796749" lat="51.094338"><ele>25.6</ele><time>2022-04-10T09:22:37.000Z</time></trkpt><trkpt lon="5.796762" lat="51.094376"><ele>25.6</ele><time>2022-04-10T09:22:38.000Z</time></trkpt><trkpt lon="5.796767" lat="51.094404"><ele>25.6</ele><time>2022-04-10T09:22:39.000Z</time></trkpt><trkpt lon="5.796769" lat="51.094421"><ele>25.6</ele><time>2022-04-10T09:22:40.000Z</time></trkpt><trkpt lon="5.79677" lat="51.094431"><ele>25.6</ele><time>2022-04-10T09:22:41.000Z</time></trkpt><trkpt lon="5.796769" lat="51.09444"><ele>25.6</ele><time>2022-04-10T09:22:42.000Z</time></trkpt><trkpt lon="5.796761" lat="51.094452"><ele>25.6</ele><time>2022-04-10T09:22:43.000Z</time></trkpt><trkpt lon="5.796744" lat="51.094466"><ele>25.6</ele><time>2022-04-10T09:22:44.000Z</time></trkpt><trkpt lon="5.796718" lat="51.094479"><ele>25.6</ele><time>2022-04-10T09:22:45.000Z</time></trkpt><trkpt lon="5.79668" lat="51.094493"><ele>25.6</ele><time>2022-04-10T09:22:46.000Z</time></trkpt><trkpt lon="5.796631" lat="51.094506"><ele>25.6</ele><time>2022-04-10T09:22:47.000Z</time></trkpt><trkpt lon="5.796574" lat="51.09452"><ele>25.6</ele><time>2022-04-10T09:22:48.000Z</time></trkpt><trkpt lon="5.796507" lat="51.094531"><ele>25.6</ele><time>2022-04-10T09:22:49.000Z</time></trkpt><trkpt lon="5.796436" lat="51.094543"><ele>25.6</ele><time>2022-04-10T09:22:50.000Z</time></trkpt><trkpt lon="5.796362" lat="51.094556"><ele>25.4</ele><time>2022-04-10T09:22:51.000Z</time></trkpt><trkpt lon="5.796283" lat="51.094573"><ele>25.4</ele><time>2022-04-10T09:22:52.000Z</time></trkpt><trkpt lon="5.796201" lat="51.094585"><ele>25.4</ele><time>2022-04-10T09:22:53.000Z</time></trkpt><trkpt lon="5.796116" lat="51.094597"><ele>25.4</ele><time>2022-04-10T09:22:54.000Z</time></trkpt><trkpt lon="5.796031" lat="51.09461"><ele>25.4</ele><time>2022-04-10T09:22:55.000Z</time></trkpt><trkpt lon="5.795946" lat="51.094618"><ele>25.2</ele><time>2022-04-10T09:22:56.000Z</time></trkpt><trkpt lon="5.795862" lat="51.094628"><ele>25.4</ele><time>2022-04-10T09:22:57.000Z</time></trkpt><trkpt lon="5.795783" lat="51.094642"><ele>25.4</ele><time>2022-04-10T09:22:58.000Z</time></trkpt><trkpt lon="5.7957" lat="51.094653"><ele>25.2</ele><time>2022-04-10T09:22:59.000Z</time></trkpt><trkpt lon="5.795617" lat="51.094666"><ele>25.2</ele><time>2022-04-10T09:23:00.000Z</time></trkpt><trkpt lon="5.795536" lat="51.09468"><ele>25</ele><time>2022-04-10T09:23:01.000Z</time></trkpt><trkpt lon="5.795453" lat="51.094692"><ele>25</ele><time>2022-04-10T09:23:02.000Z</time></trkpt><trkpt lon="5.795368" lat="51.094705"><ele>25.2</ele><time>2022-04-10T09:23:03.000Z</time></trkpt><trkpt lon="5.795287" lat="51.094723"><ele>25.2</ele><time>2022-04-10T09:23:04.000Z</time></trkpt><trkpt lon="5.795206" lat="51.094738"><ele>25.2</ele><time>2022-04-10T09:23:05.000Z</time></trkpt><trkpt lon="5.795125" lat="51.094755"><ele>25.2</ele><time>2022-04-10T09:23:06.000Z</time></trkpt><trkpt lon="5.795049" lat="51.094772"><ele>25.2</ele><time>2022-04-10T09:23:07.000Z</time></trkpt><trkpt lon="5.794976" lat="51.094785"><ele>25.2</ele><time>2022-04-10T09:23:08.000Z</time></trkpt><trkpt lon="5.794912" lat="51.094805"><ele>25.4</ele><time>2022-04-10T09:23:09.000Z</time></trkpt><trkpt lon="5.794861" lat="51.094829"><ele>25.4</ele><time>2022-04-10T09:23:10.000Z</time></trkpt><trkpt lon="5.794827" lat="51.094859"><ele>25.4</ele><time>2022-04-10T09:23:11.000Z</time></trkpt><trkpt lon="5.794821" lat="51.0949"><ele>25.4</ele><time>2022-04-10T09:23:12.000Z</time></trkpt><trkpt lon="5.794838" lat="51.094949"><ele>25.4</ele><time>2022-04-10T09:23:13.000Z</time></trkpt><trkpt lon="5.794859" lat="51.095006"><ele>25.6</ele><time>2022-04-10T09:23:14.000Z</time></trkpt><trkpt lon="5.794872" lat="51.095062"><ele>25.6</ele><time>2022-04-10T09:23:15.000Z</time></trkpt><trkpt lon="5.794884" lat="51.095117"><ele>25.4</ele><time>2022-04-10T09:23:16.000Z</time></trkpt><trkpt lon="5.794891" lat="51.095169"><ele>25.4</ele><time>2022-04-10T09:23:17.000Z</time></trkpt><trkpt lon="5.79489" lat="51.09521"><ele>25.6</ele><time>2022-04-10T09:23:18.000Z</time></trkpt><trkpt lon="5.794877" lat="51.095245"><ele>25.6</ele><time>2022-04-10T09:23:19.000Z</time></trkpt><trkpt lon="5.79485" lat="51.09527"><ele>25.6</ele><time>2022-04-10T09:23:20.000Z</time></trkpt><trkpt lon="5.794808" lat="51.095289"><ele>25.6</ele><time>2022-04-10T09:23:21.000Z</time></trkpt><trkpt lon="5.79475" lat="51.095307"><ele>25.6</ele><time>2022-04-10T09:23:22.000Z</time></trkpt><trkpt lon="5.794678" lat="51.095322"><ele>25.6</ele><time>2022-04-10T09:23:23.000Z</time></trkpt><trkpt lon="5.794594" lat="51.095337"><ele>25.6</ele><time>2022-04-10T09:23:24.000Z</time></trkpt><trkpt lon="5.794508" lat="51.095354"><ele>25.6</ele><time>2022-04-10T09:23:25.000Z</time></trkpt><trkpt lon="5.794418" lat="51.095373"><ele>25.8</ele><time>2022-04-10T09:23:26.000Z</time></trkpt><trkpt lon="5.79433" lat="51.095391"><ele>25.8</ele><time>2022-04-10T09:23:27.000Z</time></trkpt><trkpt lon="5.794239" lat="51.095406"><ele>25.8</ele><time>2022-04-10T09:23:28.000Z</time></trkpt><trkpt lon="5.794149" lat="51.09542"><ele>25.8</ele><time>2022-04-10T09:23:29.000Z</time></trkpt><trkpt lon="5.794059" lat="51.095433"><ele>26</ele><time>2022-04-10T09:23:30.000Z</time></trkpt><trkpt lon="5.793965" lat="51.095453"><ele>26</ele><time>2022-04-10T09:23:31.000Z</time></trkpt><trkpt lon="5.793872" lat="51.095473"><ele>26.2</ele><time>2022-04-10T09:23:32.000Z</time></trkpt><trkpt lon="5.793785" lat="51.095498"><ele>26.2</ele><time>2022-04-10T09:23:33.000Z</time></trkpt><trkpt lon="5.793698" lat="51.095526"><ele>26.2</ele><time>2022-04-10T09:23:34.000Z</time></trkpt><trkpt lon="5.793607" lat="51.095549"><ele>26.2</ele><time>2022-04-10T09:23:35.000Z</time></trkpt><trkpt lon="5.793516" lat="51.095571"><ele>26</ele><time>2022-04-10T09:23:36.000Z</time></trkpt><trkpt lon="5.793421" lat="51.095592"><ele>25.8</ele><time>2022-04-10T09:23:37.000Z</time></trkpt><trkpt lon="5.793325" lat="51.095619"><ele>25.8</ele><time>2022-04-10T09:23:38.000Z</time></trkpt><trkpt lon="5.793238" lat="51.095647"><ele>25.8</ele><time>2022-04-10T09:23:39.000Z</time></trkpt><trkpt lon="5.793156" lat="51.095676"><ele>25.8</ele><time>2022-04-10T09:23:40.000Z</time></trkpt><trkpt lon="5.793077" lat="51.095704"><ele>25.8</ele><time>2022-04-10T09:23:41.000Z</time></trkpt><trkpt lon="5.793003" lat="51.095732"><ele>25.8</ele><time>2022-04-10T09:23:42.000Z</time></trkpt><trkpt lon="5.792932" lat="51.095755"><ele>25.8</ele><time>2022-04-10T09:23:43.000Z</time></trkpt><trkpt lon="5.792863" lat="51.095776"><ele>26</ele><time>2022-04-10T09:23:44.000Z</time></trkpt><trkpt lon="5.792794" lat="51.095787"><ele>26</ele><time>2022-04-10T09:23:45.000Z</time></trkpt><trkpt lon="5.79272" lat="51.095784"><ele>26.2</ele><time>2022-04-10T09:23:46.000Z</time></trkpt><trkpt lon="5.792657" lat="51.095767"><ele>26.2</ele><time>2022-04-10T09:23:47.000Z</time></trkpt><trkpt lon="5.792601" lat="51.095735"><ele>26.4</ele><time>2022-04-10T09:23:48.000Z</time></trkpt><trkpt lon="5.792543" lat="51.095695"><ele>26.4</ele><time>2022-04-10T09:23:49.000Z</time></trkpt><trkpt lon="5.792483" lat="51.095654"><ele>26.4</ele><time>2022-04-10T09:23:50.000Z</time></trkpt><trkpt lon="5.792423" lat="51.095615"><ele>26.2</ele><time>2022-04-10T09:23:51.000Z</time></trkpt><trkpt lon="5.792365" lat="51.095583"><ele>26.2</ele><time>2022-04-10T09:23:52.000Z</time></trkpt><trkpt lon="5.7923" lat="51.095584"><ele>26.2</ele><time>2022-04-10T09:23:53.000Z</time></trkpt><trkpt lon="5.79222" lat="51.095609"><ele>26.2</ele><time>2022-04-10T09:23:54.000Z</time></trkpt><trkpt lon="5.792136" lat="51.095644"><ele>26.2</ele><time>2022-04-10T09:23:55.000Z</time></trkpt><trkpt lon="5.792051" lat="51.095679"><ele>26.2</ele><time>2022-04-10T09:23:56.000Z</time></trkpt><trkpt lon="5.791965" lat="51.095719"><ele>26</ele><time>2022-04-10T09:23:57.000Z</time></trkpt><trkpt lon="5.791881" lat="51.095759"><ele>26</ele><time>2022-04-10T09:23:58.000Z</time></trkpt><trkpt lon="5.791795" lat="51.095794"><ele>26</ele><time>2022-04-10T09:23:59.000Z</time></trkpt><trkpt lon="5.791705" lat="51.095818"><ele>26</ele><time>2022-04-10T09:24:00.000Z</time></trkpt><trkpt lon="5.791611" lat="51.095835"><ele>26</ele><time>2022-04-10T09:24:01.000Z</time></trkpt><trkpt lon="5.791509" lat="51.095857"><ele>26</ele><time>2022-04-10T09:24:02.000Z</time></trkpt><trkpt lon="5.791404" lat="51.095876"><ele>26</ele><time>2022-04-10T09:24:03.000Z</time></trkpt><trkpt lon="5.791298" lat="51.095892"><ele>25.8</ele><time>2022-04-10T09:24:04.000Z</time></trkpt><trkpt lon="5.791191" lat="51.095899"><ele>25.8</ele><time>2022-04-10T09:24:05.000Z</time></trkpt><trkpt lon="5.791081" lat="51.095903"><ele>25.6</ele><time>2022-04-10T09:24:06.000Z</time></trkpt><trkpt lon="5.790975" lat="51.095908"><ele>25.4</ele><time>2022-04-10T09:24:07.000Z</time></trkpt><trkpt lon="5.79087" lat="51.095918"><ele>25.4</ele><time>2022-04-10T09:24:08.000Z</time></trkpt><trkpt lon="5.790762" lat="51.095923"><ele>25</ele><time>2022-04-10T09:24:09.000Z</time></trkpt><trkpt lon="5.790655" lat="51.095931"><ele>24.8</ele><time>2022-04-10T09:24:10.000Z</time></trkpt><trkpt lon="5.79055" lat="51.095944"><ele>24.6</ele><time>2022-04-10T09:24:11.000Z</time></trkpt><trkpt lon="5.790443" lat="51.095959"><ele>24.6</ele><time>2022-04-10T09:24:12.000Z</time></trkpt><trkpt lon="5.790335" lat="51.095975"><ele>24.8</ele><time>2022-04-10T09:24:13.000Z</time></trkpt><trkpt lon="5.790224" lat="51.095994"><ele>24.8</ele><time>2022-04-10T09:24:14.000Z</time></trkpt><trkpt lon="5.790107" lat="51.096012"><ele>25</ele><time>2022-04-10T09:24:15.000Z</time></trkpt><trkpt lon="5.78999" lat="51.096027"><ele>25</ele><time>2022-04-10T09:24:16.000Z</time></trkpt><trkpt lon="5.789871" lat="51.096039"><ele>25</ele><time>2022-04-10T09:24:17.000Z</time></trkpt><trkpt lon="5.789758" lat="51.096054"><ele>25</ele><time>2022-04-10T09:24:18.000Z</time></trkpt><trkpt lon="5.789648" lat="51.09607"><ele>24.8</ele><time>2022-04-10T09:24:19.000Z</time></trkpt><trkpt lon="5.789544" lat="51.096085"><ele>25</ele><time>2022-04-10T09:24:20.000Z</time></trkpt><trkpt lon="5.789438" lat="51.096099"><ele>25</ele><time>2022-04-10T09:24:21.000Z</time></trkpt><trkpt lon="5.789326" lat="51.096112"><ele>25</ele><time>2022-04-10T09:24:22.000Z</time></trkpt><trkpt lon="5.789219" lat="51.096127"><ele>25</ele><time>2022-04-10T09:24:23.000Z</time></trkpt><trkpt lon="5.789117" lat="51.096144"><ele>25</ele><time>2022-04-10T09:24:24.000Z</time></trkpt><trkpt lon="5.789016" lat="51.096166"><ele>25</ele><time>2022-04-10T09:24:25.000Z</time></trkpt><trkpt lon="5.788914" lat="51.096185"><ele>25.2</ele><time>2022-04-10T09:24:26.000Z</time></trkpt><trkpt lon="5.788812" lat="51.096204"><ele>25.2</ele><time>2022-04-10T09:24:27.000Z</time></trkpt><trkpt lon="5.788711" lat="51.096222"><ele>25.2</ele><time>2022-04-10T09:24:28.000Z</time></trkpt><trkpt lon="5.788608" lat="51.096239"><ele>25</ele><time>2022-04-10T09:24:29.000Z</time></trkpt><trkpt lon="5.788511" lat="51.096257"><ele>25.2</ele><time>2022-04-10T09:24:30.000Z</time></trkpt><trkpt lon="5.788415" lat="51.096272"><ele>25.2</ele><time>2022-04-10T09:24:31.000Z</time></trkpt><trkpt lon="5.788314" lat="51.096287"><ele>25.2</ele><time>2022-04-10T09:24:32.000Z</time></trkpt><trkpt lon="5.788214" lat="51.096303"><ele>25.2</ele><time>2022-04-10T09:24:33.000Z</time></trkpt><trkpt lon="5.788115" lat="51.096318"><ele>25.2</ele><time>2022-04-10T09:24:34.000Z</time></trkpt><trkpt lon="5.788021" lat="51.096333"><ele>25.4</ele><time>2022-04-10T09:24:35.000Z</time></trkpt><trkpt lon="5.787928" lat="51.096348"><ele>25.4</ele><time>2022-04-10T09:24:36.000Z</time></trkpt><trkpt lon="5.787839" lat="51.096364"><ele>25.6</ele><time>2022-04-10T09:24:37.000Z</time></trkpt><trkpt lon="5.787751" lat="51.096381"><ele>25.6</ele><time>2022-04-10T09:24:38.000Z</time></trkpt><trkpt lon="5.787666" lat="51.096403"><ele>25.6</ele><time>2022-04-10T09:24:39.000Z</time></trkpt><trkpt lon="5.787578" lat="51.096421"><ele>25.4</ele><time>2022-04-10T09:24:40.000Z</time></trkpt><trkpt lon="5.787488" lat="51.096435"><ele>25.6</ele><time>2022-04-10T09:24:41.000Z</time></trkpt><trkpt lon="5.787399" lat="51.096443"><ele>25.6</ele><time>2022-04-10T09:24:42.000Z</time></trkpt><trkpt lon="5.78731" lat="51.096441"><ele>25.8</ele><time>2022-04-10T09:24:43.000Z</time></trkpt><trkpt lon="5.787222" lat="51.09643"><ele>25.8</ele><time>2022-04-10T09:24:44.000Z</time></trkpt><trkpt lon="5.787153" lat="51.096408"><ele>25.8</ele><time>2022-04-10T09:24:45.000Z</time></trkpt><trkpt lon="5.787104" lat="51.096373"><ele>26</ele><time>2022-04-10T09:24:46.000Z</time></trkpt><trkpt lon="5.787064" lat="51.096328"><ele>26</ele><time>2022-04-10T09:24:47.000Z</time></trkpt><trkpt lon="5.787023" lat="51.096284"><ele>26</ele><time>2022-04-10T09:24:48.000Z</time></trkpt><trkpt lon="5.786979" lat="51.096233"><ele>26</ele><time>2022-04-10T09:24:49.000Z</time></trkpt><trkpt lon="5.786939" lat="51.096189"><ele>26.2</ele><time>2022-04-10T09:24:50.000Z</time></trkpt><trkpt lon="5.786893" lat="51.096146"><ele>26.2</ele><time>2022-04-10T09:24:51.000Z</time></trkpt><trkpt lon="5.786844" lat="51.096129"><ele>26.4</ele><time>2022-04-10T09:24:52.000Z</time></trkpt><trkpt lon="5.786789" lat="51.096139"><ele>26.4</ele><time>2022-04-10T09:24:53.000Z</time></trkpt><trkpt lon="5.786738" lat="51.096162"><ele>26.4</ele><time>2022-04-10T09:24:54.000Z</time></trkpt><trkpt lon="5.78669" lat="51.096191"><ele>26.4</ele><time>2022-04-10T09:24:55.000Z</time></trkpt><trkpt lon="5.786647" lat="51.096219"><ele>26.4</ele><time>2022-04-10T09:24:56.000Z</time></trkpt><trkpt lon="5.786601" lat="51.096248"><ele>26.4</ele><time>2022-04-10T09:24:57.000Z</time></trkpt><trkpt lon="5.786549" lat="51.096276"><ele>26.2</ele><time>2022-04-10T09:24:58.000Z</time></trkpt><trkpt lon="5.786488" lat="51.096303"><ele>26.2</ele><time>2022-04-10T09:24:59.000Z</time></trkpt><trkpt lon="5.786425" lat="51.096319"><ele>26.2</ele><time>2022-04-10T09:25:00.000Z</time></trkpt><trkpt lon="5.786358" lat="51.096325"><ele>26.2</ele><time>2022-04-10T09:25:01.000Z</time></trkpt><trkpt lon="5.786287" lat="51.096326"><ele>26.2</ele><time>2022-04-10T09:25:02.000Z</time></trkpt><trkpt lon="5.786223" lat="51.096335"><ele>26.2</ele><time>2022-04-10T09:25:03.000Z</time></trkpt><trkpt lon="5.786171" lat="51.096362"><ele>26.2</ele><time>2022-04-10T09:25:04.000Z</time></trkpt><trkpt lon="5.786126" lat="51.096401"><ele>26.2</ele><time>2022-04-10T09:25:05.000Z</time></trkpt><trkpt lon="5.786078" lat="51.096441"><ele>26.2</ele><time>2022-04-10T09:25:06.000Z</time></trkpt><trkpt lon="5.786018" lat="51.096474"><ele>26.2</ele><time>2022-04-10T09:25:07.000Z</time></trkpt><trkpt lon="5.78595" lat="51.096495"><ele>26.2</ele><time>2022-04-10T09:25:08.000Z</time></trkpt><trkpt lon="5.785872" lat="51.096498"><ele>26</ele><time>2022-04-10T09:25:09.000Z</time></trkpt><trkpt lon="5.785792" lat="51.096489"><ele>26</ele><time>2022-04-10T09:25:10.000Z</time></trkpt><trkpt lon="5.78571" lat="51.096478"><ele>26</ele><time>2022-04-10T09:25:11.000Z</time></trkpt><trkpt lon="5.785618" lat="51.096483"><ele>26</ele><time>2022-04-10T09:25:12.000Z</time></trkpt><trkpt lon="5.785528" lat="51.096503"><ele>26</ele><time>2022-04-10T09:25:13.000Z</time></trkpt><trkpt lon="5.785432" lat="51.096527"><ele>26.2</ele><time>2022-04-10T09:25:14.000Z</time></trkpt><trkpt lon="5.785332" lat="51.096554"><ele>26.2</ele><time>2022-04-10T09:25:15.000Z</time></trkpt><trkpt lon="5.785232" lat="51.096581"><ele>26.2</ele><time>2022-04-10T09:25:16.000Z</time></trkpt><trkpt lon="5.785127" lat="51.096611"><ele>26.2</ele><time>2022-04-10T09:25:17.000Z</time></trkpt><trkpt lon="5.785022" lat="51.096638"><ele>26.2</ele><time>2022-04-10T09:25:18.000Z</time></trkpt><trkpt lon="5.784918" lat="51.096665"><ele>26</ele><time>2022-04-10T09:25:19.000Z</time></trkpt><trkpt lon="5.784813" lat="51.096696"><ele>26.2</ele><time>2022-04-10T09:25:20.000Z</time></trkpt><trkpt lon="5.78471" lat="51.096726"><ele>26.2</ele><time>2022-04-10T09:25:21.000Z</time></trkpt><trkpt lon="5.784604" lat="51.096756"><ele>26.2</ele><time>2022-04-10T09:25:22.000Z</time></trkpt><trkpt lon="5.784495" lat="51.096783"><ele>26.2</ele><time>2022-04-10T09:25:23.000Z</time></trkpt><trkpt lon="5.784384" lat="51.096814"><ele>26.2</ele><time>2022-04-10T09:25:24.000Z</time></trkpt><trkpt lon="5.784275" lat="51.096845"><ele>26.4</ele><time>2022-04-10T09:25:25.000Z</time></trkpt><trkpt lon="5.784169" lat="51.096874"><ele>26.2</ele><time>2022-04-10T09:25:26.000Z</time></trkpt><trkpt lon="5.784065" lat="51.096902"><ele>26.2</ele><time>2022-04-10T09:25:27.000Z</time></trkpt><trkpt lon="5.783965" lat="51.096931"><ele>26.2</ele><time>2022-04-10T09:25:28.000Z</time></trkpt><trkpt lon="5.783867" lat="51.096957"><ele>26.2</ele><time>2022-04-10T09:25:29.000Z</time></trkpt><trkpt lon="5.78377" lat="51.096981"><ele>26.2</ele><time>2022-04-10T09:25:30.000Z</time></trkpt><trkpt lon="5.783674" lat="51.097008"><ele>26.2</ele><time>2022-04-10T09:25:31.000Z</time></trkpt><trkpt lon="5.783575" lat="51.097038"><ele>26.2</ele><time>2022-04-10T09:25:32.000Z</time></trkpt><trkpt lon="5.783472" lat="51.097066"><ele>26.2</ele><time>2022-04-10T09:25:33.000Z</time></trkpt><trkpt lon="5.78337" lat="51.097095"><ele>26.2</ele><time>2022-04-10T09:25:34.000Z</time></trkpt><trkpt lon="5.783271" lat="51.097122"><ele>26.2</ele><time>2022-04-10T09:25:35.000Z</time></trkpt><trkpt lon="5.783174" lat="51.097149"><ele>26.2</ele><time>2022-04-10T09:25:36.000Z</time></trkpt><trkpt lon="5.783077" lat="51.097175"><ele>26.2</ele><time>2022-04-10T09:25:37.000Z</time></trkpt><trkpt lon="5.78298" lat="51.097201"><ele>26.2</ele><time>2022-04-10T09:25:38.000Z</time></trkpt><trkpt lon="5.782887" lat="51.097225"><ele>26.2</ele><time>2022-04-10T09:25:39.000Z</time></trkpt><trkpt lon="5.782788" lat="51.097252"><ele>26.4</ele><time>2022-04-10T09:25:40.000Z</time></trkpt><trkpt lon="5.782685" lat="51.09727"><ele>26.4</ele><time>2022-04-10T09:25:41.000Z</time></trkpt><trkpt lon="5.782584" lat="51.097294"><ele>26.4</ele><time>2022-04-10T09:25:42.000Z</time></trkpt><trkpt lon="5.782484" lat="51.097319"><ele>26.4</ele><time>2022-04-10T09:25:43.000Z</time></trkpt><trkpt lon="5.782385" lat="51.097343"><ele>26.4</ele><time>2022-04-10T09:25:44.000Z</time></trkpt><trkpt lon="5.782288" lat="51.097369"><ele>26.4</ele><time>2022-04-10T09:25:45.000Z</time></trkpt><trkpt lon="5.782193" lat="51.097392"><ele>26.4</ele><time>2022-04-10T09:25:46.000Z</time></trkpt><trkpt lon="5.782104" lat="51.097416"><ele>26.4</ele><time>2022-04-10T09:25:47.000Z</time></trkpt><trkpt lon="5.782017" lat="51.097442"><ele>26.4</ele><time>2022-04-10T09:25:48.000Z</time></trkpt><trkpt lon="5.781931" lat="51.097468"><ele>26.4</ele><time>2022-04-10T09:25:49.000Z</time></trkpt><trkpt lon="5.781846" lat="51.097491"><ele>26.4</ele><time>2022-04-10T09:25:50.000Z</time></trkpt><trkpt lon="5.781762" lat="51.097514"><ele>26.4</ele><time>2022-04-10T09:25:51.000Z</time></trkpt><trkpt lon="5.781682" lat="51.097536"><ele>26.4</ele><time>2022-04-10T09:25:52.000Z</time></trkpt><trkpt lon="5.781604" lat="51.097555"><ele>26.4</ele><time>2022-04-10T09:25:53.000Z</time></trkpt><trkpt lon="5.781536" lat="51.097574"><ele>26.4</ele><time>2022-04-10T09:25:54.000Z</time></trkpt><trkpt lon="5.781473" lat="51.097592"><ele>26.4</ele><time>2022-04-10T09:25:55.000Z</time></trkpt><trkpt lon="5.781427" lat="51.097608"><ele>26.6</ele><time>2022-04-10T09:25:56.000Z</time></trkpt><trkpt lon="5.781402" lat="51.097628"><ele>26.6</ele><time>2022-04-10T09:25:57.000Z</time></trkpt><trkpt lon="5.781395" lat="51.097652"><ele>26.8</ele><time>2022-04-10T09:25:58.000Z</time></trkpt><trkpt lon="5.781394" lat="51.097683"><ele>26.8</ele><time>2022-04-10T09:25:59.000Z</time></trkpt><trkpt lon="5.781382" lat="51.097722"><ele>26.8</ele><time>2022-04-10T09:26:00.000Z</time></trkpt><trkpt lon="5.781353" lat="51.09775"><ele>27</ele><time>2022-04-10T09:26:01.000Z</time></trkpt><trkpt lon="5.781319" lat="51.097768"><ele>27</ele><time>2022-04-10T09:26:02.000Z</time></trkpt><trkpt lon="5.781279" lat="51.09777"><ele>27</ele><time>2022-04-10T09:26:03.000Z</time></trkpt><trkpt lon="5.781232" lat="51.097764"><ele>27</ele><time>2022-04-10T09:26:04.000Z</time></trkpt><trkpt lon="5.78117" lat="51.097752"><ele>27</ele><time>2022-04-10T09:26:05.000Z</time></trkpt><trkpt lon="5.781099" lat="51.097743"><ele>26.8</ele><time>2022-04-10T09:26:06.000Z</time></trkpt><trkpt lon="5.781022" lat="51.09774"><ele>26.8</ele><time>2022-04-10T09:26:07.000Z</time></trkpt><trkpt lon="5.780941" lat="51.09774"><ele>26.8</ele><time>2022-04-10T09:26:08.000Z</time></trkpt><trkpt lon="5.780859" lat="51.097746"><ele>26.8</ele><time>2022-04-10T09:26:09.000Z</time></trkpt><trkpt lon="5.780776" lat="51.097764"><ele>26.8</ele><time>2022-04-10T09:26:10.000Z</time></trkpt><trkpt lon="5.78069" lat="51.097779"><ele>26.6</ele><time>2022-04-10T09:26:11.000Z</time></trkpt><trkpt lon="5.7806" lat="51.097796"><ele>26.6</ele><time>2022-04-10T09:26:12.000Z</time></trkpt><trkpt lon="5.780508" lat="51.09782"><ele>26.8</ele><time>2022-04-10T09:26:13.000Z</time></trkpt><trkpt lon="5.780418" lat="51.097847"><ele>26.8</ele><time>2022-04-10T09:26:14.000Z</time></trkpt><trkpt lon="5.780329" lat="51.097873"><ele>26.8</ele><time>2022-04-10T09:26:15.000Z</time></trkpt><trkpt lon="5.78024" lat="51.0979"><ele>26.8</ele><time>2022-04-10T09:26:16.000Z</time></trkpt><trkpt lon="5.780146" lat="51.097926"><ele>26.8</ele><time>2022-04-10T09:26:17.000Z</time></trkpt><trkpt lon="5.780053" lat="51.09795"><ele>26.8</ele><time>2022-04-10T09:26:18.000Z</time></trkpt><trkpt lon="5.779956" lat="51.097975"><ele>26.8</ele><time>2022-04-10T09:26:19.000Z</time></trkpt><trkpt lon="5.779856" lat="51.097999"><ele>26.8</ele><time>2022-04-10T09:26:20.000Z</time></trkpt><trkpt lon="5.779756" lat="51.098025"><ele>26.8</ele><time>2022-04-10T09:26:21.000Z</time></trkpt><trkpt lon="5.779658" lat="51.098049"><ele>26.8</ele><time>2022-04-10T09:26:22.000Z</time></trkpt><trkpt lon="5.779562" lat="51.098076"><ele>26.8</ele><time>2022-04-10T09:26:23.000Z</time></trkpt><trkpt lon="5.779465" lat="51.098102"><ele>26.8</ele><time>2022-04-10T09:26:24.000Z</time></trkpt><trkpt lon="5.779369" lat="51.098128"><ele>26.8</ele><time>2022-04-10T09:26:25.000Z</time></trkpt><trkpt lon="5.779272" lat="51.098152"><ele>26.8</ele><time>2022-04-10T09:26:26.000Z</time></trkpt><trkpt lon="5.779175" lat="51.098178"><ele>27</ele><time>2022-04-10T09:26:27.000Z</time></trkpt><trkpt lon="5.779081" lat="51.098201"><ele>27</ele><time>2022-04-10T09:26:28.000Z</time></trkpt><trkpt lon="5.778987" lat="51.098228"><ele>27</ele><time>2022-04-10T09:26:29.000Z</time></trkpt><trkpt lon="5.778894" lat="51.098254"><ele>27</ele><time>2022-04-10T09:26:30.000Z</time></trkpt><trkpt lon="5.778797" lat="51.098277"><ele>26.8</ele><time>2022-04-10T09:26:31.000Z</time></trkpt><trkpt lon="5.778698" lat="51.0983"><ele>27</ele><time>2022-04-10T09:26:32.000Z</time></trkpt><trkpt lon="5.778597" lat="51.098323"><ele>27</ele><time>2022-04-10T09:26:33.000Z</time></trkpt><trkpt lon="5.778502" lat="51.098347"><ele>26.8</ele><time>2022-04-10T09:26:34.000Z</time></trkpt><trkpt lon="5.778408" lat="51.098372"><ele>26.8</ele><time>2022-04-10T09:26:35.000Z</time></trkpt><trkpt lon="5.778316" lat="51.098396"><ele>26.8</ele><time>2022-04-10T09:26:36.000Z</time></trkpt><trkpt lon="5.778226" lat="51.098421"><ele>26.8</ele><time>2022-04-10T09:26:37.000Z</time></trkpt><trkpt lon="5.778143" lat="51.098445"><ele>26.8</ele><time>2022-04-10T09:26:38.000Z</time></trkpt><trkpt lon="5.778062" lat="51.09847"><ele>26.8</ele><time>2022-04-10T09:26:39.000Z</time></trkpt><trkpt lon="5.777989" lat="51.09849"><ele>26.8</ele><time>2022-04-10T09:26:40.000Z</time></trkpt><trkpt lon="5.777923" lat="51.098515"><ele>26.8</ele><time>2022-04-10T09:26:41.000Z</time></trkpt><trkpt lon="5.777876" lat="51.09855"><ele>26.8</ele><time>2022-04-10T09:26:42.000Z</time></trkpt><trkpt lon="5.777856" lat="51.098599"><ele>27</ele><time>2022-04-10T09:26:43.000Z</time></trkpt><trkpt lon="5.777852" lat="51.098658"><ele>27</ele><time>2022-04-10T09:26:44.000Z</time></trkpt><trkpt lon="5.777844" lat="51.098719"><ele>27</ele><time>2022-04-10T09:26:45.000Z</time></trkpt><trkpt lon="5.777829" lat="51.098781"><ele>27</ele><time>2022-04-10T09:26:46.000Z</time></trkpt><trkpt lon="5.777807" lat="51.098845"><ele>26.8</ele><time>2022-04-10T09:26:47.000Z</time></trkpt><trkpt lon="5.777779" lat="51.098908"><ele>26.8</ele><time>2022-04-10T09:26:48.000Z</time></trkpt><trkpt lon="5.77775" lat="51.098969"><ele>26.8</ele><time>2022-04-10T09:26:49.000Z</time></trkpt><trkpt lon="5.77772" lat="51.09903"><ele>26.6</ele><time>2022-04-10T09:26:50.000Z</time></trkpt><trkpt lon="5.777689" lat="51.099087"><ele>26.6</ele><time>2022-04-10T09:26:51.000Z</time></trkpt><trkpt lon="5.77766" lat="51.099143"><ele>26.6</ele><time>2022-04-10T09:26:52.000Z</time></trkpt><trkpt lon="5.777628" lat="51.099199"><ele>26.8</ele><time>2022-04-10T09:26:53.000Z</time></trkpt><trkpt lon="5.777595" lat="51.099258"><ele>27</ele><time>2022-04-10T09:26:54.000Z</time></trkpt><trkpt lon="5.777565" lat="51.099313"><ele>27</ele><time>2022-04-10T09:26:55.000Z</time></trkpt><trkpt lon="5.777537" lat="51.099373"><ele>27</ele><time>2022-04-10T09:26:56.000Z</time></trkpt><trkpt lon="5.777506" lat="51.099433"><ele>27</ele><time>2022-04-10T09:26:57.000Z</time></trkpt><trkpt lon="5.777475" lat="51.099497"><ele>27.2</ele><time>2022-04-10T09:26:58.000Z</time></trkpt><trkpt lon="5.777445" lat="51.099557"><ele>27.2</ele><time>2022-04-10T09:26:59.000Z</time></trkpt><trkpt lon="5.777412" lat="51.09962"><ele>27.2</ele><time>2022-04-10T09:27:00.000Z</time></trkpt><trkpt lon="5.777377" lat="51.099684"><ele>27.4</ele><time>2022-04-10T09:27:01.000Z</time></trkpt><trkpt lon="5.777344" lat="51.099745"><ele>27.4</ele><time>2022-04-10T09:27:02.000Z</time></trkpt><trkpt lon="5.777311" lat="51.099807"><ele>27.2</ele><time>2022-04-10T09:27:03.000Z</time></trkpt><trkpt lon="5.77728" lat="51.09987"><ele>27.2</ele><time>2022-04-10T09:27:04.000Z</time></trkpt><trkpt lon="5.777249" lat="51.09993"><ele>27.4</ele><time>2022-04-10T09:27:05.000Z</time></trkpt><trkpt lon="5.77722" lat="51.099995"><ele>27.4</ele><time>2022-04-10T09:27:06.000Z</time></trkpt><trkpt lon="5.777195" lat="51.100059"><ele>27.4</ele><time>2022-04-10T09:27:07.000Z</time></trkpt><trkpt lon="5.777175" lat="51.100123"><ele>27.6</ele><time>2022-04-10T09:27:08.000Z</time></trkpt><trkpt lon="5.777154" lat="51.100187"><ele>27.6</ele><time>2022-04-10T09:27:09.000Z</time></trkpt><trkpt lon="5.777132" lat="51.100248"><ele>27.8</ele><time>2022-04-10T09:27:10.000Z</time></trkpt><trkpt lon="5.777109" lat="51.100308"><ele>27.8</ele><time>2022-04-10T09:27:11.000Z</time></trkpt><trkpt lon="5.77709" lat="51.100364"><ele>27.8</ele><time>2022-04-10T09:27:12.000Z</time></trkpt><trkpt lon="5.777072" lat="51.100417"><ele>27.8</ele><time>2022-04-10T09:27:13.000Z</time></trkpt><trkpt lon="5.777055" lat="51.100464"><ele>27.8</ele><time>2022-04-10T09:27:14.000Z</time></trkpt><trkpt lon="5.777034" lat="51.100503"><ele>27.8</ele><time>2022-04-10T09:27:15.000Z</time></trkpt><trkpt lon="5.776998" lat="51.100535"><ele>27.8</ele><time>2022-04-10T09:27:16.000Z</time></trkpt><trkpt lon="5.776938" lat="51.100558"><ele>27.8</ele><time>2022-04-10T09:27:17.000Z</time></trkpt><trkpt lon="5.776863" lat="51.100564"><ele>27.8</ele><time>2022-04-10T09:27:18.000Z</time></trkpt><trkpt lon="5.776782" lat="51.100567"><ele>27.6</ele><time>2022-04-10T09:27:19.000Z</time></trkpt><trkpt lon="5.776694" lat="51.100565"><ele>27.4</ele><time>2022-04-10T09:27:20.000Z</time></trkpt><trkpt lon="5.776601" lat="51.100558"><ele>27.4</ele><time>2022-04-10T09:27:21.000Z</time></trkpt><trkpt lon="5.776501" lat="51.100553"><ele>27.2</ele><time>2022-04-10T09:27:22.000Z</time></trkpt><trkpt lon="5.776398" lat="51.100545"><ele>27.2</ele><time>2022-04-10T09:27:23.000Z</time></trkpt><trkpt lon="5.776295" lat="51.100534"><ele>27.4</ele><time>2022-04-10T09:27:24.000Z</time></trkpt><trkpt lon="5.776189" lat="51.100527"><ele>27.4</ele><time>2022-04-10T09:27:25.000Z</time></trkpt><trkpt lon="5.776085" lat="51.100519"><ele>27.4</ele><time>2022-04-10T09:27:26.000Z</time></trkpt><trkpt lon="5.775983" lat="51.10051"><ele>27.2</ele><time>2022-04-10T09:27:27.000Z</time></trkpt><trkpt lon="5.775883" lat="51.100499"><ele>27</ele><time>2022-04-10T09:27:28.000Z</time></trkpt><trkpt lon="5.775783" lat="51.100488"><ele>27</ele><time>2022-04-10T09:27:29.000Z</time></trkpt><trkpt lon="5.775685" lat="51.100481"><ele>26.8</ele><time>2022-04-10T09:27:30.000Z</time></trkpt><trkpt lon="5.775589" lat="51.100473"><ele>26.6</ele><time>2022-04-10T09:27:31.000Z</time></trkpt><trkpt lon="5.775499" lat="51.100468"><ele>26.4</ele><time>2022-04-10T09:27:32.000Z</time></trkpt><trkpt lon="5.775416" lat="51.10047"><ele>26.4</ele><time>2022-04-10T09:27:33.000Z</time></trkpt><trkpt lon="5.775339" lat="51.100482"><ele>26.6</ele><time>2022-04-10T09:27:34.000Z</time></trkpt><trkpt lon="5.775274" lat="51.100513"><ele>26.6</ele><time>2022-04-10T09:27:35.000Z</time></trkpt><trkpt lon="5.775229" lat="51.100553"><ele>26.6</ele><time>2022-04-10T09:27:36.000Z</time></trkpt><trkpt lon="5.775203" lat="51.100605"><ele>26.6</ele><time>2022-04-10T09:27:37.000Z</time></trkpt><trkpt lon="5.775182" lat="51.100665"><ele>26.8</ele><time>2022-04-10T09:27:38.000Z</time></trkpt><trkpt lon="5.775159" lat="51.10073"><ele>26.6</ele><time>2022-04-10T09:27:39.000Z</time></trkpt><trkpt lon="5.775132" lat="51.100794"><ele>26.6</ele><time>2022-04-10T09:27:40.000Z</time></trkpt><trkpt lon="5.775106" lat="51.100861"><ele>26.8</ele><time>2022-04-10T09:27:41.000Z</time></trkpt><trkpt lon="5.775082" lat="51.100928"><ele>27</ele><time>2022-04-10T09:27:42.000Z</time></trkpt><trkpt lon="5.775056" lat="51.100994"><ele>27</ele><time>2022-04-10T09:27:43.000Z</time></trkpt><trkpt lon="5.775029" lat="51.101063"><ele>27</ele><time>2022-04-10T09:27:44.000Z</time></trkpt><trkpt lon="5.775003" lat="51.101131"><ele>27</ele><time>2022-04-10T09:27:45.000Z</time></trkpt><trkpt lon="5.77498" lat="51.101201"><ele>27.2</ele><time>2022-04-10T09:27:46.000Z</time></trkpt><trkpt lon="5.774969" lat="51.101271"><ele>27.2</ele><time>2022-04-10T09:27:47.000Z</time></trkpt><trkpt lon="5.77498" lat="51.101335"><ele>27</ele><time>2022-04-10T09:27:48.000Z</time></trkpt><trkpt lon="5.775024" lat="51.101392"><ele>27</ele><time>2022-04-10T09:27:49.000Z</time></trkpt><trkpt lon="5.775103" lat="51.101435"><ele>26.8</ele><time>2022-04-10T09:27:50.000Z</time></trkpt><trkpt lon="5.775199" lat="51.101467"><ele>26.8</ele><time>2022-04-10T09:27:51.000Z</time></trkpt><trkpt lon="5.775307" lat="51.101492"><ele>26.6</ele><time>2022-04-10T09:27:52.000Z</time></trkpt><trkpt lon="5.775422" lat="51.10151"><ele>26.6</ele><time>2022-04-10T09:27:53.000Z</time></trkpt><trkpt lon="5.775542" lat="51.101526"><ele>26.6</ele><time>2022-04-10T09:27:54.000Z</time></trkpt><trkpt lon="5.775663" lat="51.101544"><ele>26.6</ele><time>2022-04-10T09:27:55.000Z</time></trkpt><trkpt lon="5.775784" lat="51.10156"><ele>26.6</ele><time>2022-04-10T09:27:56.000Z</time></trkpt><trkpt lon="5.775902" lat="51.101579"><ele>26.8</ele><time>2022-04-10T09:27:57.000Z</time></trkpt><trkpt lon="5.776019" lat="51.101597"><ele>26.8</ele><time>2022-04-10T09:27:58.000Z</time></trkpt><trkpt lon="5.776134" lat="51.101613"><ele>26.8</ele><time>2022-04-10T09:27:59.000Z</time></trkpt><trkpt lon="5.776247" lat="51.101633"><ele>27</ele><time>2022-04-10T09:28:00.000Z</time></trkpt><trkpt lon="5.77636" lat="51.101651"><ele>27</ele><time>2022-04-10T09:28:01.000Z</time></trkpt><trkpt lon="5.776469" lat="51.101666"><ele>27</ele><time>2022-04-10T09:28:02.000Z</time></trkpt><trkpt lon="5.776577" lat="51.101681"><ele>27</ele><time>2022-04-10T09:28:03.000Z</time></trkpt><trkpt lon="5.776685" lat="51.101698"><ele>27.2</ele><time>2022-04-10T09:28:04.000Z</time></trkpt><trkpt lon="5.77679" lat="51.101715"><ele>27.2</ele><time>2022-04-10T09:28:05.000Z</time></trkpt><trkpt lon="5.7769" lat="51.101732"><ele>27.2</ele><time>2022-04-10T09:28:06.000Z</time></trkpt><trkpt lon="5.777012" lat="51.10175"><ele>27</ele><time>2022-04-10T09:28:07.000Z</time></trkpt><trkpt lon="5.777118" lat="51.101765"><ele>27.2</ele><time>2022-04-10T09:28:08.000Z</time></trkpt><trkpt lon="5.777224" lat="51.10178"><ele>27.2</ele><time>2022-04-10T09:28:09.000Z</time></trkpt><trkpt lon="5.777328" lat="51.101796"><ele>27.4</ele><time>2022-04-10T09:28:10.000Z</time></trkpt><trkpt lon="5.777432" lat="51.101811"><ele>27.4</ele><time>2022-04-10T09:28:11.000Z</time></trkpt><trkpt lon="5.777537" lat="51.101826"><ele>27.4</ele><time>2022-04-10T09:28:12.000Z</time></trkpt><trkpt lon="5.777641" lat="51.101842"><ele>27.6</ele><time>2022-04-10T09:28:13.000Z</time></trkpt><trkpt lon="5.777743" lat="51.101862"><ele>27.6</ele><time>2022-04-10T09:28:14.000Z</time></trkpt><trkpt lon="5.777847" lat="51.101886"><ele>27.8</ele><time>2022-04-10T09:28:15.000Z</time></trkpt><trkpt lon="5.777945" lat="51.101913"><ele>27.8</ele><time>2022-04-10T09:28:16.000Z</time></trkpt><trkpt lon="5.778044" lat="51.10194"><ele>27.8</ele><time>2022-04-10T09:28:17.000Z</time></trkpt><trkpt lon="5.778139" lat="51.101965"><ele>27.8</ele><time>2022-04-10T09:28:18.000Z</time></trkpt><trkpt lon="5.778235" lat="51.101988"><ele>27.8</ele><time>2022-04-10T09:28:19.000Z</time></trkpt><trkpt lon="5.778328" lat="51.102012"><ele>27.8</ele><time>2022-04-10T09:28:20.000Z</time></trkpt><trkpt lon="5.778417" lat="51.102038"><ele>27.8</ele><time>2022-04-10T09:28:21.000Z</time></trkpt><trkpt lon="5.778499" lat="51.102064"><ele>27.8</ele><time>2022-04-10T09:28:22.000Z</time></trkpt><trkpt lon="5.778569" lat="51.102102"><ele>28</ele><time>2022-04-10T09:28:23.000Z</time></trkpt><trkpt lon="5.778614" lat="51.102153"><ele>28</ele><time>2022-04-10T09:28:24.000Z</time></trkpt><trkpt lon="5.778628" lat="51.102208"><ele>28</ele><time>2022-04-10T09:28:25.000Z</time></trkpt><trkpt lon="5.778615" lat="51.102275"><ele>28</ele><time>2022-04-10T09:28:26.000Z</time></trkpt><trkpt lon="5.778582" lat="51.10234"><ele>28</ele><time>2022-04-10T09:28:27.000Z</time></trkpt><trkpt lon="5.778532" lat="51.102404"><ele>27.8</ele><time>2022-04-10T09:28:28.000Z</time></trkpt><trkpt lon="5.778471" lat="51.102469"><ele>27.8</ele><time>2022-04-10T09:28:29.000Z</time></trkpt><trkpt lon="5.778407" lat="51.102534"><ele>27.4</ele><time>2022-04-10T09:28:30.000Z</time></trkpt><trkpt lon="5.778351" lat="51.102599"><ele>27.4</ele><time>2022-04-10T09:28:31.000Z</time></trkpt><trkpt lon="5.7783" lat="51.102665"><ele>27.2</ele><time>2022-04-10T09:28:32.000Z</time></trkpt><trkpt lon="5.778254" lat="51.102733"><ele>27</ele><time>2022-04-10T09:28:33.000Z</time></trkpt><trkpt lon="5.778213" lat="51.102798"><ele>27</ele><time>2022-04-10T09:28:34.000Z</time></trkpt><trkpt lon="5.778175" lat="51.102867"><ele>27</ele><time>2022-04-10T09:28:35.000Z</time></trkpt><trkpt lon="5.778141" lat="51.102935"><ele>27</ele><time>2022-04-10T09:28:36.000Z</time></trkpt><trkpt lon="5.778107" lat="51.103001"><ele>27</ele><time>2022-04-10T09:28:37.000Z</time></trkpt><trkpt lon="5.77807" lat="51.103068"><ele>27</ele><time>2022-04-10T09:28:38.000Z</time></trkpt><trkpt lon="5.778025" lat="51.103133"><ele>27</ele><time>2022-04-10T09:28:39.000Z</time></trkpt><trkpt lon="5.777967" lat="51.103194"><ele>27</ele><time>2022-04-10T09:28:40.000Z</time></trkpt><trkpt lon="5.777889" lat="51.103245"><ele>26.6</ele><time>2022-04-10T09:28:41.000Z</time></trkpt><trkpt lon="5.777789" lat="51.103289"><ele>26.4</ele><time>2022-04-10T09:28:42.000Z</time></trkpt><trkpt lon="5.777682" lat="51.103323"><ele>26.2</ele><time>2022-04-10T09:28:43.000Z</time></trkpt><trkpt lon="5.777572" lat="51.103356"><ele>26.4</ele><time>2022-04-10T09:28:44.000Z</time></trkpt><trkpt lon="5.777461" lat="51.103386"><ele>26.2</ele><time>2022-04-10T09:28:45.000Z</time></trkpt><trkpt lon="5.777349" lat="51.103417"><ele>26.2</ele><time>2022-04-10T09:28:46.000Z</time></trkpt><trkpt lon="5.77724" lat="51.103448"><ele>26.2</ele><time>2022-04-10T09:28:47.000Z</time></trkpt><trkpt lon="5.777132" lat="51.103477"><ele>26.2</ele><time>2022-04-10T09:28:48.000Z</time></trkpt><trkpt lon="5.777025" lat="51.103505"><ele>26.2</ele><time>2022-04-10T09:28:49.000Z</time></trkpt><trkpt lon="5.776922" lat="51.103537"><ele>26.2</ele><time>2022-04-10T09:28:50.000Z</time></trkpt><trkpt lon="5.776828" lat="51.103574"><ele>26.2</ele><time>2022-04-10T09:28:51.000Z</time></trkpt><trkpt lon="5.776748" lat="51.103623"><ele>26.2</ele><time>2022-04-10T09:28:52.000Z</time></trkpt><trkpt lon="5.776685" lat="51.103681"><ele>26.2</ele><time>2022-04-10T09:28:53.000Z</time></trkpt><trkpt lon="5.77664" lat="51.103745"><ele>26</ele><time>2022-04-10T09:28:54.000Z</time></trkpt><trkpt lon="5.776604" lat="51.103813"><ele>26</ele><time>2022-04-10T09:28:55.000Z</time></trkpt><trkpt lon="5.776571" lat="51.103879"><ele>26</ele><time>2022-04-10T09:28:56.000Z</time></trkpt><trkpt lon="5.776536" lat="51.103942"><ele>26</ele><time>2022-04-10T09:28:57.000Z</time></trkpt><trkpt lon="5.776502" lat="51.104006"><ele>26</ele><time>2022-04-10T09:28:58.000Z</time></trkpt><trkpt lon="5.776464" lat="51.10407"><ele>26</ele><time>2022-04-10T09:28:59.000Z</time></trkpt><trkpt lon="5.776412" lat="51.104124"><ele>26.2</ele><time>2022-04-10T09:29:00.000Z</time></trkpt><trkpt lon="5.776339" lat="51.104166"><ele>26.2</ele><time>2022-04-10T09:29:01.000Z</time></trkpt><trkpt lon="5.776247" lat="51.104183"><ele>26.2</ele><time>2022-04-10T09:29:02.000Z</time></trkpt><trkpt lon="5.776146" lat="51.104179"><ele>26.2</ele><time>2022-04-10T09:29:03.000Z</time></trkpt><trkpt lon="5.77604" lat="51.104163"><ele>26.2</ele><time>2022-04-10T09:29:04.000Z</time></trkpt><trkpt lon="5.775932" lat="51.104144"><ele>26</ele><time>2022-04-10T09:29:05.000Z</time></trkpt><trkpt lon="5.775829" lat="51.104124"><ele>25.8</ele><time>2022-04-10T09:29:06.000Z</time></trkpt><trkpt lon="5.775726" lat="51.104102"><ele>25.6</ele><time>2022-04-10T09:29:07.000Z</time></trkpt><trkpt lon="5.775625" lat="51.104085"><ele>25.4</ele><time>2022-04-10T09:29:08.000Z</time></trkpt><trkpt lon="5.775522" lat="51.104075"><ele>25.2</ele><time>2022-04-10T09:29:09.000Z</time></trkpt><trkpt lon="5.775415" lat="51.104077"><ele>25.2</ele><time>2022-04-10T09:29:10.000Z</time></trkpt><trkpt lon="5.775309" lat="51.104097"><ele>25.4</ele><time>2022-04-10T09:29:11.000Z</time></trkpt><trkpt lon="5.775207" lat="51.104129"><ele>25.6</ele><time>2022-04-10T09:29:12.000Z</time></trkpt><trkpt lon="5.775111" lat="51.104168"><ele>25.8</ele><time>2022-04-10T09:29:13.000Z</time></trkpt><trkpt lon="5.775019" lat="51.104209"><ele>25.6</ele><time>2022-04-10T09:29:14.000Z</time></trkpt><trkpt lon="5.774921" lat="51.104251"><ele>25.4</ele><time>2022-04-10T09:29:15.000Z</time></trkpt><trkpt lon="5.77482" lat="51.104285"><ele>25.6</ele><time>2022-04-10T09:29:16.000Z</time></trkpt><trkpt lon="5.774713" lat="51.104306"><ele>25.6</ele><time>2022-04-10T09:29:17.000Z</time></trkpt><trkpt lon="5.774603" lat="51.104319"><ele>25.6</ele><time>2022-04-10T09:29:18.000Z</time></trkpt><trkpt lon="5.774491" lat="51.104324"><ele>25.6</ele><time>2022-04-10T09:29:19.000Z</time></trkpt><trkpt lon="5.774379" lat="51.104324"><ele>25.6</ele><time>2022-04-10T09:29:20.000Z</time></trkpt><trkpt lon="5.774267" lat="51.104324"><ele>25.4</ele><time>2022-04-10T09:29:21.000Z</time></trkpt><trkpt lon="5.774159" lat="51.104325"><ele>25.4</ele><time>2022-04-10T09:29:22.000Z</time></trkpt><trkpt lon="5.774057" lat="51.104328"><ele>25.4</ele><time>2022-04-10T09:29:23.000Z</time></trkpt><trkpt lon="5.773966" lat="51.104328"><ele>25.4</ele><time>2022-04-10T09:29:24.000Z</time></trkpt><trkpt lon="5.773842" lat="51.10433"><ele>25.4</ele><time>2022-04-10T09:29:25.000Z</time></trkpt><trkpt lon="5.773739" lat="51.104338"><ele>25.6</ele><time>2022-04-10T09:29:26.000Z</time></trkpt><trkpt lon="5.773634" lat="51.104349"><ele>25.8</ele><time>2022-04-10T09:29:27.000Z</time></trkpt><trkpt lon="5.773529" lat="51.104375"><ele>25.8</ele><time>2022-04-10T09:29:28.000Z</time></trkpt><trkpt lon="5.77344" lat="51.10441"><ele>26</ele><time>2022-04-10T09:29:29.000Z</time></trkpt><trkpt lon="5.773362" lat="51.104455"><ele>26.2</ele><time>2022-04-10T09:29:30.000Z</time></trkpt><trkpt lon="5.773291" lat="51.104502"><ele>26.2</ele><time>2022-04-10T09:29:31.000Z</time></trkpt><trkpt lon="5.773227" lat="51.104553"><ele>26.2</ele><time>2022-04-10T09:29:32.000Z</time></trkpt><trkpt lon="5.773174" lat="51.104605"><ele>26.2</ele><time>2022-04-10T09:29:33.000Z</time></trkpt><trkpt lon="5.773138" lat="51.104661"><ele>26.2</ele><time>2022-04-10T09:29:34.000Z</time></trkpt><trkpt lon="5.773114" lat="51.104719"><ele>26.2</ele><time>2022-04-10T09:29:35.000Z</time></trkpt><trkpt lon="5.773098" lat="51.104777"><ele>26</ele><time>2022-04-10T09:29:36.000Z</time></trkpt><trkpt lon="5.773083" lat="51.104832"><ele>26</ele><time>2022-04-10T09:29:37.000Z</time></trkpt><trkpt lon="5.77307" lat="51.104887"><ele>26.2</ele><time>2022-04-10T09:29:38.000Z</time></trkpt><trkpt lon="5.773056" lat="51.104938"><ele>26.2</ele><time>2022-04-10T09:29:39.000Z</time></trkpt><trkpt lon="5.773042" lat="51.104989"><ele>26.4</ele><time>2022-04-10T09:29:40.000Z</time></trkpt><trkpt lon="5.773028" lat="51.105035"><ele>26.4</ele><time>2022-04-10T09:29:41.000Z</time></trkpt><trkpt lon="5.773025" lat="51.10508"><ele>26.4</ele><time>2022-04-10T09:29:42.000Z</time></trkpt><trkpt lon="5.773046" lat="51.105117"><ele>26.4</ele><time>2022-04-10T09:29:43.000Z</time></trkpt><trkpt lon="5.773093" lat="51.105141"><ele>26.4</ele><time>2022-04-10T09:29:44.000Z</time></trkpt><trkpt lon="5.773157" lat="51.105154"><ele>26.4</ele><time>2022-04-10T09:29:45.000Z</time></trkpt><trkpt lon="5.773219" lat="51.105162"><ele>26.6</ele><time>2022-04-10T09:29:46.000Z</time></trkpt><trkpt lon="5.773277" lat="51.105169"><ele>26.6</ele><time>2022-04-10T09:29:47.000Z</time></trkpt><trkpt lon="5.773332" lat="51.105178"><ele>26.6</ele><time>2022-04-10T09:29:48.000Z</time></trkpt><trkpt lon="5.773385" lat="51.105191"><ele>26.6</ele><time>2022-04-10T09:29:49.000Z</time></trkpt><trkpt lon="5.773427" lat="51.10521"><ele>26.6</ele><time>2022-04-10T09:29:50.000Z</time></trkpt><trkpt lon="5.773451" lat="51.105243"><ele>26.6</ele><time>2022-04-10T09:29:51.000Z</time></trkpt><trkpt lon="5.773452" lat="51.105282"><ele>26.6</ele><time>2022-04-10T09:29:52.000Z</time></trkpt><trkpt lon="5.773429" lat="51.105325"><ele>26.6</ele><time>2022-04-10T09:29:53.000Z</time></trkpt><trkpt lon="5.773393" lat="51.105371"><ele>26.6</ele><time>2022-04-10T09:29:54.000Z</time></trkpt><trkpt lon="5.773353" lat="51.105423"><ele>26.6</ele><time>2022-04-10T09:29:55.000Z</time></trkpt><trkpt lon="5.773317" lat="51.105482"><ele>26.6</ele><time>2022-04-10T09:29:56.000Z</time></trkpt><trkpt lon="5.773289" lat="51.105549"><ele>26.6</ele><time>2022-04-10T09:29:57.000Z</time></trkpt><trkpt lon="5.773268" lat="51.105618"><ele>26.6</ele><time>2022-04-10T09:29:58.000Z</time></trkpt><trkpt lon="5.773251" lat="51.10569"><ele>26.8</ele><time>2022-04-10T09:29:59.000Z</time></trkpt><trkpt lon="5.773236" lat="51.10576"><ele>26.8</ele><time>2022-04-10T09:30:00.000Z</time></trkpt><trkpt lon="5.773222" lat="51.105832"><ele>27</ele><time>2022-04-10T09:30:01.000Z</time></trkpt><trkpt lon="5.773211" lat="51.105905"><ele>27</ele><time>2022-04-10T09:30:02.000Z</time></trkpt><trkpt lon="5.773198" lat="51.105976"><ele>27.2</ele><time>2022-04-10T09:30:03.000Z</time></trkpt><trkpt lon="5.773185" lat="51.106045"><ele>27.2</ele><time>2022-04-10T09:30:04.000Z</time></trkpt><trkpt lon="5.773172" lat="51.106116"><ele>27.2</ele><time>2022-04-10T09:30:05.000Z</time></trkpt><trkpt lon="5.773161" lat="51.106184"><ele>27.2</ele><time>2022-04-10T09:30:06.000Z</time></trkpt><trkpt lon="5.773151" lat="51.10625"><ele>27.2</ele><time>2022-04-10T09:30:07.000Z</time></trkpt><trkpt lon="5.773141" lat="51.106318"><ele>27.2</ele><time>2022-04-10T09:30:08.000Z</time></trkpt><trkpt lon="5.773134" lat="51.106384"><ele>27.2</ele><time>2022-04-10T09:30:09.000Z</time></trkpt><trkpt lon="5.773129" lat="51.106451"><ele>27.2</ele><time>2022-04-10T09:30:10.000Z</time></trkpt><trkpt lon="5.773124" lat="51.106516"><ele>27.2</ele><time>2022-04-10T09:30:11.000Z</time></trkpt><trkpt lon="5.77312" lat="51.106582"><ele>27.2</ele><time>2022-04-10T09:30:12.000Z</time></trkpt><trkpt lon="5.773118" lat="51.106646"><ele>27.2</ele><time>2022-04-10T09:30:13.000Z</time></trkpt><trkpt lon="5.773114" lat="51.10671"><ele>27.2</ele><time>2022-04-10T09:30:14.000Z</time></trkpt><trkpt lon="5.773111" lat="51.106771"><ele>27.2</ele><time>2022-04-10T09:30:15.000Z</time></trkpt><trkpt lon="5.773109" lat="51.106833"><ele>27.2</ele><time>2022-04-10T09:30:16.000Z</time></trkpt><trkpt lon="5.773108" lat="51.106899"><ele>27.2</ele><time>2022-04-10T09:30:17.000Z</time></trkpt><trkpt lon="5.773104" lat="51.106968"><ele>27</ele><time>2022-04-10T09:30:18.000Z</time></trkpt><trkpt lon="5.773101" lat="51.107035"><ele>27</ele><time>2022-04-10T09:30:19.000Z</time></trkpt><trkpt lon="5.773098" lat="51.1071"><ele>26.8</ele><time>2022-04-10T09:30:20.000Z</time></trkpt><trkpt lon="5.773095" lat="51.107165"><ele>26.8</ele><time>2022-04-10T09:30:21.000Z</time></trkpt><trkpt lon="5.773092" lat="51.107229"><ele>27</ele><time>2022-04-10T09:30:22.000Z</time></trkpt><trkpt lon="5.773089" lat="51.10729"><ele>27</ele><time>2022-04-10T09:30:23.000Z</time></trkpt><trkpt lon="5.773084" lat="51.107355"><ele>27</ele><time>2022-04-10T09:30:24.000Z</time></trkpt><trkpt lon="5.77308" lat="51.107419"><ele>27</ele><time>2022-04-10T09:30:25.000Z</time></trkpt><trkpt lon="5.773075" lat="51.107481"><ele>27</ele><time>2022-04-10T09:30:26.000Z</time></trkpt><trkpt lon="5.773069" lat="51.107546"><ele>27.2</ele><time>2022-04-10T09:30:27.000Z</time></trkpt><trkpt lon="5.773061" lat="51.107605"><ele>27.2</ele><time>2022-04-10T09:30:28.000Z</time></trkpt><trkpt lon="5.773055" lat="51.107663"><ele>27.2</ele><time>2022-04-10T09:30:29.000Z</time></trkpt><trkpt lon="5.773048" lat="51.107724"><ele>27.2</ele><time>2022-04-10T09:30:30.000Z</time></trkpt><trkpt lon="5.773042" lat="51.107782"><ele>27.2</ele><time>2022-04-10T09:30:31.000Z</time></trkpt><trkpt lon="5.773037" lat="51.107844"><ele>27.2</ele><time>2022-04-10T09:30:32.000Z</time></trkpt><trkpt lon="5.773028" lat="51.107908"><ele>27.2</ele><time>2022-04-10T09:30:33.000Z</time></trkpt><trkpt lon="5.773011" lat="51.107974"><ele>27.2</ele><time>2022-04-10T09:30:34.000Z</time></trkpt><trkpt lon="5.772983" lat="51.108041"><ele>27.2</ele><time>2022-04-10T09:30:35.000Z</time></trkpt><trkpt lon="5.772948" lat="51.108107"><ele>27.2</ele><time>2022-04-10T09:30:36.000Z</time></trkpt><trkpt lon="5.772914" lat="51.108172"><ele>27.2</ele><time>2022-04-10T09:30:37.000Z</time></trkpt><trkpt lon="5.772876" lat="51.108237"><ele>27.2</ele><time>2022-04-10T09:30:38.000Z</time></trkpt><trkpt lon="5.772837" lat="51.108302"><ele>27.2</ele><time>2022-04-10T09:30:39.000Z</time></trkpt><trkpt lon="5.772798" lat="51.108365"><ele>27.2</ele><time>2022-04-10T09:30:40.000Z</time></trkpt><trkpt lon="5.772758" lat="51.108432"><ele>27.2</ele><time>2022-04-10T09:30:41.000Z</time></trkpt><trkpt lon="5.772722" lat="51.108495"><ele>27.2</ele><time>2022-04-10T09:30:42.000Z</time></trkpt><trkpt lon="5.772688" lat="51.108557"><ele>27.2</ele><time>2022-04-10T09:30:43.000Z</time></trkpt><trkpt lon="5.77266" lat="51.108618"><ele>27.2</ele><time>2022-04-10T09:30:44.000Z</time></trkpt><trkpt lon="5.772642" lat="51.10868"><ele>27.2</ele><time>2022-04-10T09:30:45.000Z</time></trkpt><trkpt lon="5.772631" lat="51.108743"><ele>27.2</ele><time>2022-04-10T09:30:46.000Z</time></trkpt><trkpt lon="5.772624" lat="51.108804"><ele>27</ele><time>2022-04-10T09:30:47.000Z</time></trkpt><trkpt lon="5.772621" lat="51.108864"><ele>27</ele><time>2022-04-10T09:30:48.000Z</time></trkpt><trkpt lon="5.77262" lat="51.108923"><ele>26.8</ele><time>2022-04-10T09:30:49.000Z</time></trkpt><trkpt lon="5.77262" lat="51.108983"><ele>26.8</ele><time>2022-04-10T09:30:50.000Z</time></trkpt><trkpt lon="5.772617" lat="51.10904"><ele>26.6</ele><time>2022-04-10T09:30:51.000Z</time></trkpt><trkpt lon="5.772614" lat="51.109101"><ele>26.6</ele><time>2022-04-10T09:30:52.000Z</time></trkpt><trkpt lon="5.772611" lat="51.109161"><ele>26.8</ele><time>2022-04-10T09:30:53.000Z</time></trkpt><trkpt lon="5.772612" lat="51.109218"><ele>26.8</ele><time>2022-04-10T09:30:54.000Z</time></trkpt><trkpt lon="5.772614" lat="51.109275"><ele>27</ele><time>2022-04-10T09:30:55.000Z</time></trkpt><trkpt lon="5.772619" lat="51.109335"><ele>27.2</ele><time>2022-04-10T09:30:56.000Z</time></trkpt><trkpt lon="5.772624" lat="51.109394"><ele>27.2</ele><time>2022-04-10T09:30:57.000Z</time></trkpt><trkpt lon="5.772628" lat="51.109452"><ele>27.4</ele><time>2022-04-10T09:30:58.000Z</time></trkpt><trkpt lon="5.772632" lat="51.109513"><ele>27.4</ele><time>2022-04-10T09:30:59.000Z</time></trkpt><trkpt lon="5.772641" lat="51.109573"><ele>27.6</ele><time>2022-04-10T09:31:00.000Z</time></trkpt><trkpt lon="5.772651" lat="51.109632"><ele>27.6</ele><time>2022-04-10T09:31:01.000Z</time></trkpt><trkpt lon="5.772663" lat="51.109693"><ele>27.8</ele><time>2022-04-10T09:31:02.000Z</time></trkpt><trkpt lon="5.772676" lat="51.109754"><ele>27.8</ele><time>2022-04-10T09:31:03.000Z</time></trkpt><trkpt lon="5.772691" lat="51.109814"><ele>28</ele><time>2022-04-10T09:31:04.000Z</time></trkpt><trkpt lon="5.772709" lat="51.109877"><ele>28</ele><time>2022-04-10T09:31:05.000Z</time></trkpt><trkpt lon="5.772723" lat="51.109941"><ele>28</ele><time>2022-04-10T09:31:06.000Z</time></trkpt><trkpt lon="5.772735" lat="51.110002"><ele>27.8</ele><time>2022-04-10T09:31:07.000Z</time></trkpt><trkpt lon="5.772747" lat="51.110066"><ele>27.8</ele><time>2022-04-10T09:31:08.000Z</time></trkpt><trkpt lon="5.772754" lat="51.110128"><ele>27.8</ele><time>2022-04-10T09:31:09.000Z</time></trkpt><trkpt lon="5.772755" lat="51.110188"><ele>27.8</ele><time>2022-04-10T09:31:10.000Z</time></trkpt><trkpt lon="5.772749" lat="51.11025"><ele>27.6</ele><time>2022-04-10T09:31:11.000Z</time></trkpt><trkpt lon="5.772738" lat="51.11031"><ele>27.6</ele><time>2022-04-10T09:31:12.000Z</time></trkpt><trkpt lon="5.772725" lat="51.110368"><ele>27.6</ele><time>2022-04-10T09:31:13.000Z</time></trkpt><trkpt lon="5.772711" lat="51.11043"><ele>27.4</ele><time>2022-04-10T09:31:14.000Z</time></trkpt><trkpt lon="5.772698" lat="51.11049"><ele>27.2</ele><time>2022-04-10T09:31:15.000Z</time></trkpt><trkpt lon="5.772683" lat="51.110551"><ele>27</ele><time>2022-04-10T09:31:16.000Z</time></trkpt><trkpt lon="5.772665" lat="51.110613"><ele>26.8</ele><time>2022-04-10T09:31:17.000Z</time></trkpt><trkpt lon="5.772649" lat="51.110675"><ele>26.8</ele><time>2022-04-10T09:31:18.000Z</time></trkpt><trkpt lon="5.772631" lat="51.110739"><ele>26.8</ele><time>2022-04-10T09:31:19.000Z</time></trkpt><trkpt lon="5.772611" lat="51.1108"><ele>27</ele><time>2022-04-10T09:31:20.000Z</time></trkpt><trkpt lon="5.77259" lat="51.110864"><ele>27</ele><time>2022-04-10T09:31:21.000Z</time></trkpt><trkpt lon="5.77257" lat="51.110929"><ele>27</ele><time>2022-04-10T09:31:22.000Z</time></trkpt><trkpt lon="5.77255" lat="51.11099"><ele>27</ele><time>2022-04-10T09:31:23.000Z</time></trkpt><trkpt lon="5.772532" lat="51.111057"><ele>27</ele><time>2022-04-10T09:31:24.000Z</time></trkpt><trkpt lon="5.772515" lat="51.111125"><ele>27.2</ele><time>2022-04-10T09:31:25.000Z</time></trkpt><trkpt lon="5.772499" lat="51.11119"><ele>27</ele><time>2022-04-10T09:31:26.000Z</time></trkpt><trkpt lon="5.772482" lat="51.111255"><ele>27</ele><time>2022-04-10T09:31:27.000Z</time></trkpt><trkpt lon="5.772465" lat="51.111323"><ele>26.8</ele><time>2022-04-10T09:31:28.000Z</time></trkpt><trkpt lon="5.772445" lat="51.111388"><ele>26.6</ele><time>2022-04-10T09:31:29.000Z</time></trkpt><trkpt lon="5.77242" lat="51.111452"><ele>26.4</ele><time>2022-04-10T09:31:30.000Z</time></trkpt><trkpt lon="5.772386" lat="51.111517"><ele>26.2</ele><time>2022-04-10T09:31:31.000Z</time></trkpt><trkpt lon="5.772341" lat="51.111581"><ele>26</ele><time>2022-04-10T09:31:32.000Z</time></trkpt><trkpt lon="5.772285" lat="51.111641"><ele>25.8</ele><time>2022-04-10T09:31:33.000Z</time></trkpt><trkpt lon="5.772219" lat="51.111698"><ele>25.8</ele><time>2022-04-10T09:31:34.000Z</time></trkpt><trkpt lon="5.772152" lat="51.111751"><ele>25.8</ele><time>2022-04-10T09:31:35.000Z</time></trkpt><trkpt lon="5.772085" lat="51.111804"><ele>25.8</ele><time>2022-04-10T09:31:36.000Z</time></trkpt><trkpt lon="5.772017" lat="51.111858"><ele>26</ele><time>2022-04-10T09:31:37.000Z</time></trkpt><trkpt lon="5.771949" lat="51.111911"><ele>26</ele><time>2022-04-10T09:31:38.000Z</time></trkpt><trkpt lon="5.771878" lat="51.111965"><ele>26</ele><time>2022-04-10T09:31:39.000Z</time></trkpt><trkpt lon="5.771808" lat="51.112017"><ele>26</ele><time>2022-04-10T09:31:40.000Z</time></trkpt><trkpt lon="5.77174" lat="51.112067"><ele>26</ele><time>2022-04-10T09:31:41.000Z</time></trkpt><trkpt lon="5.77167" lat="51.11212"><ele>25.8</ele><time>2022-04-10T09:31:42.000Z</time></trkpt><trkpt lon="5.7716" lat="51.112169"><ele>25.8</ele><time>2022-04-10T09:31:43.000Z</time></trkpt><trkpt lon="5.771529" lat="51.112219"><ele>25.8</ele><time>2022-04-10T09:31:44.000Z</time></trkpt><trkpt lon="5.771457" lat="51.11227"><ele>25.8</ele><time>2022-04-10T09:31:45.000Z</time></trkpt><trkpt lon="5.771388" lat="51.112321"><ele>25.6</ele><time>2022-04-10T09:31:46.000Z</time></trkpt><trkpt lon="5.77132" lat="51.112367"><ele>25.6</ele><time>2022-04-10T09:31:47.000Z</time></trkpt><trkpt lon="5.771254" lat="51.112413"><ele>25.6</ele><time>2022-04-10T09:31:48.000Z</time></trkpt><trkpt lon="5.771189" lat="51.11246"><ele>25.6</ele><time>2022-04-10T09:31:49.000Z</time></trkpt><trkpt lon="5.771119" lat="51.112514"><ele>25.6</ele><time>2022-04-10T09:31:50.000Z</time></trkpt><trkpt lon="5.771047" lat="51.112572"><ele>25.6</ele><time>2022-04-10T09:31:51.000Z</time></trkpt><trkpt lon="5.770973" lat="51.112628"><ele>25.6</ele><time>2022-04-10T09:31:52.000Z</time></trkpt><trkpt lon="5.770899" lat="51.112686"><ele>25.6</ele><time>2022-04-10T09:31:53.000Z</time></trkpt><trkpt lon="5.770832" lat="51.112738"><ele>25.6</ele><time>2022-04-10T09:31:54.000Z</time></trkpt><trkpt lon="5.770763" lat="51.112787"><ele>25.6</ele><time>2022-04-10T09:31:55.000Z</time></trkpt><trkpt lon="5.770698" lat="51.112836"><ele>25.6</ele><time>2022-04-10T09:31:56.000Z</time></trkpt><trkpt lon="5.770634" lat="51.112881"><ele>25.8</ele><time>2022-04-10T09:31:57.000Z</time></trkpt><trkpt lon="5.770569" lat="51.112928"><ele>25.8</ele><time>2022-04-10T09:31:58.000Z</time></trkpt><trkpt lon="5.770504" lat="51.112973"><ele>25.8</ele><time>2022-04-10T09:31:59.000Z</time></trkpt><trkpt lon="5.77044" lat="51.11302"><ele>25.8</ele><time>2022-04-10T09:32:00.000Z</time></trkpt><trkpt lon="5.770373" lat="51.113071"><ele>26</ele><time>2022-04-10T09:32:01.000Z</time></trkpt><trkpt lon="5.770308" lat="51.113125"><ele>26</ele><time>2022-04-10T09:32:02.000Z</time></trkpt><trkpt lon="5.77024" lat="51.113181"><ele>26</ele><time>2022-04-10T09:32:03.000Z</time></trkpt><trkpt lon="5.770171" lat="51.113235"><ele>26</ele><time>2022-04-10T09:32:04.000Z</time></trkpt><trkpt lon="5.770104" lat="51.113289"><ele>26.2</ele><time>2022-04-10T09:32:05.000Z</time></trkpt><trkpt lon="5.770036" lat="51.113345"><ele>26.2</ele><time>2022-04-10T09:32:06.000Z</time></trkpt><trkpt lon="5.769971" lat="51.113397"><ele>26.2</ele><time>2022-04-10T09:32:07.000Z</time></trkpt><trkpt lon="5.769902" lat="51.113448"><ele>26</ele><time>2022-04-10T09:32:08.000Z</time></trkpt><trkpt lon="5.769832" lat="51.113501"><ele>26</ele><time>2022-04-10T09:32:09.000Z</time></trkpt><trkpt lon="5.769767" lat="51.11355"><ele>26</ele><time>2022-04-10T09:32:10.000Z</time></trkpt><trkpt lon="5.769702" lat="51.113598"><ele>26</ele><time>2022-04-10T09:32:11.000Z</time></trkpt><trkpt lon="5.769636" lat="51.113642"><ele>26.2</ele><time>2022-04-10T09:32:12.000Z</time></trkpt><trkpt lon="5.769575" lat="51.113683"><ele>26.2</ele><time>2022-04-10T09:32:13.000Z</time></trkpt><trkpt lon="5.76952" lat="51.113726"><ele>26.2</ele><time>2022-04-10T09:32:14.000Z</time></trkpt><trkpt lon="5.769469" lat="51.113765"><ele>26.2</ele><time>2022-04-10T09:32:15.000Z</time></trkpt><trkpt lon="5.769416" lat="51.113803"><ele>26.2</ele><time>2022-04-10T09:32:16.000Z</time></trkpt><trkpt lon="5.769363" lat="51.113841"><ele>26.2</ele><time>2022-04-10T09:32:17.000Z</time></trkpt><trkpt lon="5.76931" lat="51.113879"><ele>26.2</ele><time>2022-04-10T09:32:18.000Z</time></trkpt><trkpt lon="5.769259" lat="51.113918"><ele>26.2</ele><time>2022-04-10T09:32:19.000Z</time></trkpt><trkpt lon="5.769212" lat="51.113958"><ele>26.2</ele><time>2022-04-10T09:32:20.000Z</time></trkpt><trkpt lon="5.769169" lat="51.113991"><ele>26</ele><time>2022-04-10T09:32:21.000Z</time></trkpt><trkpt lon="5.769119" lat="51.114023"><ele>26</ele><time>2022-04-10T09:32:22.000Z</time></trkpt><trkpt lon="5.76906" lat="51.114063"><ele>26</ele><time>2022-04-10T09:32:23.000Z</time></trkpt><trkpt lon="5.768995" lat="51.114104"><ele>26</ele><time>2022-04-10T09:32:24.000Z</time></trkpt><trkpt lon="5.768928" lat="51.114142"><ele>26.2</ele><time>2022-04-10T09:32:25.000Z</time></trkpt><trkpt lon="5.76886" lat="51.114182"><ele>26.4</ele><time>2022-04-10T09:32:26.000Z</time></trkpt><trkpt lon="5.768785" lat="51.114228"><ele>26.4</ele><time>2022-04-10T09:32:27.000Z</time></trkpt><trkpt lon="5.768712" lat="51.114271"><ele>26.4</ele><time>2022-04-10T09:32:28.000Z</time></trkpt><trkpt lon="5.768638" lat="51.114309"><ele>26.6</ele><time>2022-04-10T09:32:29.000Z</time></trkpt><trkpt lon="5.768567" lat="51.114348"><ele>26.6</ele><time>2022-04-10T09:32:30.000Z</time></trkpt><trkpt lon="5.768498" lat="51.114387"><ele>26.6</ele><time>2022-04-10T09:32:31.000Z</time></trkpt><trkpt lon="5.768428" lat="51.114429"><ele>26.6</ele><time>2022-04-10T09:32:32.000Z</time></trkpt><trkpt lon="5.76836" lat="51.114472"><ele>26.6</ele><time>2022-04-10T09:32:33.000Z</time></trkpt><trkpt lon="5.768295" lat="51.114515"><ele>26.6</ele><time>2022-04-10T09:32:34.000Z</time></trkpt><trkpt lon="5.768232" lat="51.11455"><ele>26.4</ele><time>2022-04-10T09:32:35.000Z</time></trkpt><trkpt lon="5.768168" lat="51.114589"><ele>26.4</ele><time>2022-04-10T09:32:36.000Z</time></trkpt><trkpt lon="5.768101" lat="51.114631"><ele>26.4</ele><time>2022-04-10T09:32:37.000Z</time></trkpt><trkpt lon="5.768035" lat="51.114675"><ele>26.4</ele><time>2022-04-10T09:32:38.000Z</time></trkpt><trkpt lon="5.767961" lat="51.114725"><ele>26.4</ele><time>2022-04-10T09:32:39.000Z</time></trkpt><trkpt lon="5.767883" lat="51.114778"><ele>26.6</ele><time>2022-04-10T09:32:40.000Z</time></trkpt><trkpt lon="5.767788" lat="51.114828"><ele>26.6</ele><time>2022-04-10T09:32:41.000Z</time></trkpt><trkpt lon="5.767684" lat="51.114881"><ele>26.6</ele><time>2022-04-10T09:32:42.000Z</time></trkpt><trkpt lon="5.767576" lat="51.114939"><ele>26.6</ele><time>2022-04-10T09:32:43.000Z</time></trkpt><trkpt lon="5.767457" lat="51.114973"><ele>26.6</ele><time>2022-04-10T09:32:44.000Z</time></trkpt><trkpt lon="5.767341" lat="51.114994"><ele>26.4</ele><time>2022-04-10T09:32:45.000Z</time></trkpt><trkpt lon="5.767233" lat="51.11501"><ele>26.4</ele><time>2022-04-10T09:32:46.000Z</time></trkpt><trkpt lon="5.767129" lat="51.115025"><ele>26.2</ele><time>2022-04-10T09:32:47.000Z</time></trkpt><trkpt lon="5.767028" lat="51.115041"><ele>26.2</ele><time>2022-04-10T09:32:48.000Z</time></trkpt><trkpt lon="5.766922" lat="51.115058"><ele>26</ele><time>2022-04-10T09:32:49.000Z</time></trkpt><trkpt lon="5.766818" lat="51.115069"><ele>25.8</ele><time>2022-04-10T09:32:50.000Z</time></trkpt><trkpt lon="5.766707" lat="51.11508"><ele>25.6</ele><time>2022-04-10T09:32:51.000Z</time></trkpt><trkpt lon="5.766592" lat="51.115091"><ele>25.4</ele><time>2022-04-10T09:32:52.000Z</time></trkpt><trkpt lon="5.766473" lat="51.115108"><ele>25.2</ele><time>2022-04-10T09:32:53.000Z</time></trkpt><trkpt lon="5.766362" lat="51.115124"><ele>25</ele><time>2022-04-10T09:32:54.000Z</time></trkpt><trkpt lon="5.766247" lat="51.115151"><ele>25.2</ele><time>2022-04-10T09:32:55.000Z</time></trkpt><trkpt lon="5.766141" lat="51.115169"><ele>25.2</ele><time>2022-04-10T09:32:56.000Z</time></trkpt><trkpt lon="5.76604" lat="51.115183"><ele>25.4</ele><time>2022-04-10T09:32:57.000Z</time></trkpt><trkpt lon="5.765935" lat="51.115204"><ele>25.2</ele><time>2022-04-10T09:32:58.000Z</time></trkpt><trkpt lon="5.765817" lat="51.11522"><ele>25</ele><time>2022-04-10T09:32:59.000Z</time></trkpt><trkpt lon="5.765701" lat="51.115239"><ele>25</ele><time>2022-04-10T09:33:00.000Z</time></trkpt><trkpt lon="5.765588" lat="51.115257"><ele>25</ele><time>2022-04-10T09:33:01.000Z</time></trkpt><trkpt lon="5.765479" lat="51.115274"><ele>24.8</ele><time>2022-04-10T09:33:02.000Z</time></trkpt><trkpt lon="5.765361" lat="51.115293"><ele>24.8</ele><time>2022-04-10T09:33:03.000Z</time></trkpt><trkpt lon="5.765238" lat="51.115309"><ele>24.8</ele><time>2022-04-10T09:33:04.000Z</time></trkpt><trkpt lon="5.765123" lat="51.11532"><ele>24.8</ele><time>2022-04-10T09:33:05.000Z</time></trkpt><trkpt lon="5.765009" lat="51.115341"><ele>24.8</ele><time>2022-04-10T09:33:06.000Z</time></trkpt><trkpt lon="5.764895" lat="51.115357"><ele>24.6</ele><time>2022-04-10T09:33:07.000Z</time></trkpt><trkpt lon="5.764781" lat="51.115373"><ele>24.8</ele><time>2022-04-10T09:33:08.000Z</time></trkpt><trkpt lon="5.764664" lat="51.115392"><ele>24.8</ele><time>2022-04-10T09:33:09.000Z</time></trkpt><trkpt lon="5.764546" lat="51.11541"><ele>24.8</ele><time>2022-04-10T09:33:10.000Z</time></trkpt><trkpt lon="5.76443" lat="51.115426"><ele>24.8</ele><time>2022-04-10T09:33:11.000Z</time></trkpt><trkpt lon="5.764315" lat="51.115446"><ele>25</ele><time>2022-04-10T09:33:12.000Z</time></trkpt><trkpt lon="5.764198" lat="51.115468"><ele>25</ele><time>2022-04-10T09:33:13.000Z</time></trkpt><trkpt lon="5.764082" lat="51.115488"><ele>25</ele><time>2022-04-10T09:33:14.000Z</time></trkpt><trkpt lon="5.763965" lat="51.115509"><ele>25</ele><time>2022-04-10T09:33:15.000Z</time></trkpt><trkpt lon="5.763852" lat="51.115524"><ele>25</ele><time>2022-04-10T09:33:16.000Z</time></trkpt><trkpt lon="5.763741" lat="51.115539"><ele>25</ele><time>2022-04-10T09:33:17.000Z</time></trkpt><trkpt lon="5.763632" lat="51.115555"><ele>25.2</ele><time>2022-04-10T09:33:18.000Z</time></trkpt><trkpt lon="5.76352" lat="51.115574"><ele>25.2</ele><time>2022-04-10T09:33:19.000Z</time></trkpt><trkpt lon="5.763412" lat="51.11559"><ele>25</ele><time>2022-04-10T09:33:20.000Z</time></trkpt><trkpt lon="5.763303" lat="51.115608"><ele>24.8</ele><time>2022-04-10T09:33:21.000Z</time></trkpt><trkpt lon="5.763193" lat="51.115623"><ele>24.8</ele><time>2022-04-10T09:33:22.000Z</time></trkpt><trkpt lon="5.763081" lat="51.115635"><ele>24.8</ele><time>2022-04-10T09:33:23.000Z</time></trkpt><trkpt lon="5.762966" lat="51.11565"><ele>24.8</ele><time>2022-04-10T09:33:24.000Z</time></trkpt><trkpt lon="5.762856" lat="51.115665"><ele>25</ele><time>2022-04-10T09:33:25.000Z</time></trkpt><trkpt lon="5.762746" lat="51.115677"><ele>25</ele><time>2022-04-10T09:33:26.000Z</time></trkpt><trkpt lon="5.762635" lat="51.115691"><ele>25</ele><time>2022-04-10T09:33:27.000Z</time></trkpt><trkpt lon="5.762523" lat="51.115704"><ele>25</ele><time>2022-04-10T09:33:28.000Z</time></trkpt><trkpt lon="5.762412" lat="51.115718"><ele>25.4</ele><time>2022-04-10T09:33:29.000Z</time></trkpt><trkpt lon="5.762303" lat="51.115729"><ele>25.4</ele><time>2022-04-10T09:33:30.000Z</time></trkpt><trkpt lon="5.762195" lat="51.115741"><ele>25.6</ele><time>2022-04-10T09:33:31.000Z</time></trkpt><trkpt lon="5.762083" lat="51.115752"><ele>25.8</ele><time>2022-04-10T09:33:32.000Z</time></trkpt><trkpt lon="5.761967" lat="51.115764"><ele>25.8</ele><time>2022-04-10T09:33:33.000Z</time></trkpt><trkpt lon="5.761848" lat="51.115775"><ele>25.8</ele><time>2022-04-10T09:33:34.000Z</time></trkpt><trkpt lon="5.761733" lat="51.115788"><ele>25.8</ele><time>2022-04-10T09:33:35.000Z</time></trkpt><trkpt lon="5.76162" lat="51.115803"><ele>25.8</ele><time>2022-04-10T09:33:36.000Z</time></trkpt><trkpt lon="5.761506" lat="51.115817"><ele>25.8</ele><time>2022-04-10T09:33:37.000Z</time></trkpt><trkpt lon="5.761394" lat="51.115829"><ele>25.8</ele><time>2022-04-10T09:33:38.000Z</time></trkpt><trkpt lon="5.761281" lat="51.115845"><ele>25.8</ele><time>2022-04-10T09:33:39.000Z</time></trkpt><trkpt lon="5.76117" lat="51.115859"><ele>25.8</ele><time>2022-04-10T09:33:40.000Z</time></trkpt><trkpt lon="5.761061" lat="51.115871"><ele>25.6</ele><time>2022-04-10T09:33:41.000Z</time></trkpt><trkpt lon="5.760953" lat="51.115886"><ele>25.4</ele><time>2022-04-10T09:33:42.000Z</time></trkpt><trkpt lon="5.760848" lat="51.115898"><ele>25.4</ele><time>2022-04-10T09:33:43.000Z</time></trkpt><trkpt lon="5.760738" lat="51.115913"><ele>25.4</ele><time>2022-04-10T09:33:44.000Z</time></trkpt><trkpt lon="5.760629" lat="51.115923"><ele>25.2</ele><time>2022-04-10T09:33:45.000Z</time></trkpt><trkpt lon="5.760522" lat="51.115931"><ele>25.2</ele><time>2022-04-10T09:33:46.000Z</time></trkpt><trkpt lon="5.760415" lat="51.115938"><ele>25</ele><time>2022-04-10T09:33:47.000Z</time></trkpt><trkpt lon="5.760306" lat="51.115946"><ele>25.2</ele><time>2022-04-10T09:33:48.000Z</time></trkpt><trkpt lon="5.760195" lat="51.115954"><ele>25.2</ele><time>2022-04-10T09:33:49.000Z</time></trkpt><trkpt lon="5.760086" lat="51.115965"><ele>25.2</ele><time>2022-04-10T09:33:50.000Z</time></trkpt><trkpt lon="5.759977" lat="51.115971"><ele>25.2</ele><time>2022-04-10T09:33:51.000Z</time></trkpt><trkpt lon="5.759872" lat="51.115972"><ele>25.2</ele><time>2022-04-10T09:33:52.000Z</time></trkpt><trkpt lon="5.759766" lat="51.115975"><ele>25.2</ele><time>2022-04-10T09:33:53.000Z</time></trkpt><trkpt lon="5.759657" lat="51.11598"><ele>25.4</ele><time>2022-04-10T09:33:54.000Z</time></trkpt><trkpt lon="5.759549" lat="51.115987"><ele>25.4</ele><time>2022-04-10T09:33:55.000Z</time></trkpt><trkpt lon="5.75944" lat="51.11599"><ele>25.6</ele><time>2022-04-10T09:33:56.000Z</time></trkpt><trkpt lon="5.759332" lat="51.11599"><ele>25.6</ele><time>2022-04-10T09:33:57.000Z</time></trkpt><trkpt lon="5.75923" lat="51.115991"><ele>25.6</ele><time>2022-04-10T09:33:58.000Z</time></trkpt><trkpt lon="5.759129" lat="51.115994"><ele>25.6</ele><time>2022-04-10T09:33:59.000Z</time></trkpt><trkpt lon="5.759025" lat="51.115998"><ele>25.6</ele><time>2022-04-10T09:34:00.000Z</time></trkpt><trkpt lon="5.758913" lat="51.116002"><ele>25.6</ele><time>2022-04-10T09:34:01.000Z</time></trkpt><trkpt lon="5.758801" lat="51.116005"><ele>25.6</ele><time>2022-04-10T09:34:02.000Z</time></trkpt><trkpt lon="5.758688" lat="51.116006"><ele>25.6</ele><time>2022-04-10T09:34:03.000Z</time></trkpt><trkpt lon="5.758575" lat="51.11601"><ele>25.6</ele><time>2022-04-10T09:34:04.000Z</time></trkpt><trkpt lon="5.758469" lat="51.116013"><ele>25.4</ele><time>2022-04-10T09:34:05.000Z</time></trkpt><trkpt lon="5.758362" lat="51.116012"><ele>25.2</ele><time>2022-04-10T09:34:06.000Z</time></trkpt><trkpt lon="5.758253" lat="51.116009"><ele>25</ele><time>2022-04-10T09:34:07.000Z</time></trkpt><trkpt lon="5.758147" lat="51.11601"><ele>24.8</ele><time>2022-04-10T09:34:08.000Z</time></trkpt><trkpt lon="5.758041" lat="51.116014"><ele>25</ele><time>2022-04-10T09:34:09.000Z</time></trkpt><trkpt lon="5.757931" lat="51.116016"><ele>24.8</ele><time>2022-04-10T09:34:10.000Z</time></trkpt><trkpt lon="5.75782" lat="51.116017"><ele>24.8</ele><time>2022-04-10T09:34:11.000Z</time></trkpt><trkpt lon="5.757713" lat="51.11602"><ele>24.8</ele><time>2022-04-10T09:34:12.000Z</time></trkpt><trkpt lon="5.757604" lat="51.11602"><ele>24.6</ele><time>2022-04-10T09:34:13.000Z</time></trkpt><trkpt lon="5.75749" lat="51.116021"><ele>24.6</ele><time>2022-04-10T09:34:14.000Z</time></trkpt><trkpt lon="5.757374" lat="51.116025"><ele>24.8</ele><time>2022-04-10T09:34:15.000Z</time></trkpt><trkpt lon="5.757255" lat="51.116031"><ele>24.8</ele><time>2022-04-10T09:34:16.000Z</time></trkpt><trkpt lon="5.757136" lat="51.116044"><ele>25</ele><time>2022-04-10T09:34:17.000Z</time></trkpt><trkpt lon="5.757021" lat="51.116063"><ele>24.8</ele><time>2022-04-10T09:34:18.000Z</time></trkpt><trkpt lon="5.756913" lat="51.116081"><ele>24.8</ele><time>2022-04-10T09:34:19.000Z</time></trkpt><trkpt lon="5.756805" lat="51.116096"><ele>25</ele><time>2022-04-10T09:34:20.000Z</time></trkpt><trkpt lon="5.756701" lat="51.11611"><ele>25</ele><time>2022-04-10T09:34:21.000Z</time></trkpt><trkpt lon="5.756598" lat="51.116116"><ele>24.8</ele><time>2022-04-10T09:34:22.000Z</time></trkpt><trkpt lon="5.756497" lat="51.11612"><ele>24.8</ele><time>2022-04-10T09:34:23.000Z</time></trkpt><trkpt lon="5.7564" lat="51.116127"><ele>24.8</ele><time>2022-04-10T09:34:24.000Z</time></trkpt><trkpt lon="5.75631" lat="51.116145"><ele>24.8</ele><time>2022-04-10T09:34:25.000Z</time></trkpt><trkpt lon="5.756234" lat="51.116175"><ele>25</ele><time>2022-04-10T09:34:26.000Z</time></trkpt><trkpt lon="5.756176" lat="51.116217"><ele>25.2</ele><time>2022-04-10T09:34:27.000Z</time></trkpt><trkpt lon="5.756149" lat="51.116271"><ele>25.2</ele><time>2022-04-10T09:34:28.000Z</time></trkpt><trkpt lon="5.756141" lat="51.116328"><ele>25.2</ele><time>2022-04-10T09:34:29.000Z</time></trkpt><trkpt lon="5.756148" lat="51.116388"><ele>25.2</ele><time>2022-04-10T09:34:30.000Z</time></trkpt><trkpt lon="5.756166" lat="51.116454"><ele>25.2</ele><time>2022-04-10T09:34:31.000Z</time></trkpt><trkpt lon="5.75619" lat="51.116524"><ele>25.4</ele><time>2022-04-10T09:34:32.000Z</time></trkpt><trkpt lon="5.756218" lat="51.116591"><ele>25.6</ele><time>2022-04-10T09:34:33.000Z</time></trkpt><trkpt lon="5.756254" lat="51.116664"><ele>25.8</ele><time>2022-04-10T09:34:34.000Z</time></trkpt><trkpt lon="5.756299" lat="51.116732"><ele>25.8</ele><time>2022-04-10T09:34:35.000Z</time></trkpt><trkpt lon="5.756352" lat="51.116799"><ele>25.8</ele><time>2022-04-10T09:34:36.000Z</time></trkpt><trkpt lon="5.756416" lat="51.116862"><ele>25.8</ele><time>2022-04-10T09:34:37.000Z</time></trkpt><trkpt lon="5.756487" lat="51.116918"><ele>25.8</ele><time>2022-04-10T09:34:38.000Z</time></trkpt><trkpt lon="5.756562" lat="51.116967"><ele>26</ele><time>2022-04-10T09:34:39.000Z</time></trkpt><trkpt lon="5.756642" lat="51.117019"><ele>26</ele><time>2022-04-10T09:34:40.000Z</time></trkpt><trkpt lon="5.756723" lat="51.117065"><ele>26</ele><time>2022-04-10T09:34:41.000Z</time></trkpt><trkpt lon="5.756799" lat="51.117111"><ele>26.2</ele><time>2022-04-10T09:34:42.000Z</time></trkpt><trkpt lon="5.756874" lat="51.117157"><ele>26.2</ele><time>2022-04-10T09:34:43.000Z</time></trkpt><trkpt lon="5.756949" lat="51.117205"><ele>26.2</ele><time>2022-04-10T09:34:44.000Z</time></trkpt><trkpt lon="5.757022" lat="51.117246"><ele>26</ele><time>2022-04-10T09:34:45.000Z</time></trkpt><trkpt lon="5.757106" lat="51.117298"><ele>26</ele><time>2022-04-10T09:34:46.000Z</time></trkpt><trkpt lon="5.757186" lat="51.117345"><ele>26</ele><time>2022-04-10T09:34:47.000Z</time></trkpt><trkpt lon="5.757265" lat="51.117394"><ele>26</ele><time>2022-04-10T09:34:48.000Z</time></trkpt><trkpt lon="5.75735" lat="51.117442"><ele>26</ele><time>2022-04-10T09:34:49.000Z</time></trkpt><trkpt lon="5.757439" lat="51.117486"><ele>26</ele><time>2022-04-10T09:34:50.000Z</time></trkpt><trkpt lon="5.757529" lat="51.117531"><ele>26</ele><time>2022-04-10T09:34:51.000Z</time></trkpt><trkpt lon="5.757614" lat="51.117579"><ele>26</ele><time>2022-04-10T09:34:52.000Z</time></trkpt><trkpt lon="5.757696" lat="51.117631"><ele>26</ele><time>2022-04-10T09:34:53.000Z</time></trkpt><trkpt lon="5.75777" lat="51.117683"><ele>26</ele><time>2022-04-10T09:34:54.000Z</time></trkpt><trkpt lon="5.757831" lat="51.117744"><ele>26</ele><time>2022-04-10T09:34:55.000Z</time></trkpt><trkpt lon="5.75788" lat="51.117806"><ele>26</ele><time>2022-04-10T09:34:56.000Z</time></trkpt><trkpt lon="5.757923" lat="51.117876"><ele>26</ele><time>2022-04-10T09:34:57.000Z</time></trkpt><trkpt lon="5.757961" lat="51.117946"><ele>26</ele><time>2022-04-10T09:34:58.000Z</time></trkpt><trkpt lon="5.757998" lat="51.118017"><ele>26</ele><time>2022-04-10T09:34:59.000Z</time></trkpt><trkpt lon="5.758033" lat="51.118086"><ele>26</ele><time>2022-04-10T09:35:00.000Z</time></trkpt><trkpt lon="5.758069" lat="51.118159"><ele>26.2</ele><time>2022-04-10T09:35:01.000Z</time></trkpt><trkpt lon="5.758105" lat="51.118232"><ele>26.2</ele><time>2022-04-10T09:35:02.000Z</time></trkpt><trkpt lon="5.758141" lat="51.118304"><ele>26</ele><time>2022-04-10T09:35:03.000Z</time></trkpt><trkpt lon="5.75818" lat="51.118376"><ele>26</ele><time>2022-04-10T09:35:04.000Z</time></trkpt><trkpt lon="5.758221" lat="51.118445"><ele>26</ele><time>2022-04-10T09:35:05.000Z</time></trkpt><trkpt lon="5.758266" lat="51.118517"><ele>25.8</ele><time>2022-04-10T09:35:06.000Z</time></trkpt><trkpt lon="5.758317" lat="51.118585"><ele>25.8</ele><time>2022-04-10T09:35:07.000Z</time></trkpt><trkpt lon="5.758373" lat="51.118649"><ele>25.8</ele><time>2022-04-10T09:35:08.000Z</time></trkpt><trkpt lon="5.758432" lat="51.118713"><ele>25.8</ele><time>2022-04-10T09:35:09.000Z</time></trkpt><trkpt lon="5.758493" lat="51.118775"><ele>25.8</ele><time>2022-04-10T09:35:10.000Z</time></trkpt><trkpt lon="5.758554" lat="51.11884"><ele>25.8</ele><time>2022-04-10T09:35:11.000Z</time></trkpt><trkpt lon="5.758613" lat="51.118905"><ele>25.8</ele><time>2022-04-10T09:35:12.000Z</time></trkpt><trkpt lon="5.75867" lat="51.11897"><ele>25.8</ele><time>2022-04-10T09:35:13.000Z</time></trkpt><trkpt lon="5.758728" lat="51.119037"><ele>25.8</ele><time>2022-04-10T09:35:14.000Z</time></trkpt><trkpt lon="5.758785" lat="51.119103"><ele>25.8</ele><time>2022-04-10T09:35:15.000Z</time></trkpt><trkpt lon="5.758841" lat="51.119169"><ele>25.8</ele><time>2022-04-10T09:35:16.000Z</time></trkpt><trkpt lon="5.758894" lat="51.119237"><ele>25.8</ele><time>2022-04-10T09:35:17.000Z</time></trkpt><trkpt lon="5.758942" lat="51.119302"><ele>25.8</ele><time>2022-04-10T09:35:18.000Z</time></trkpt><trkpt lon="5.758987" lat="51.119372"><ele>25.6</ele><time>2022-04-10T09:35:19.000Z</time></trkpt><trkpt lon="5.759027" lat="51.119444"><ele>25.6</ele><time>2022-04-10T09:35:20.000Z</time></trkpt><trkpt lon="5.759062" lat="51.119516"><ele>25.6</ele><time>2022-04-10T09:35:21.000Z</time></trkpt><trkpt lon="5.759096" lat="51.119584"><ele>25.6</ele><time>2022-04-10T09:35:22.000Z</time></trkpt><trkpt lon="5.759127" lat="51.119653"><ele>25.6</ele><time>2022-04-10T09:35:23.000Z</time></trkpt><trkpt lon="5.759155" lat="51.119724"><ele>25.8</ele><time>2022-04-10T09:35:24.000Z</time></trkpt><trkpt lon="5.759169" lat="51.119795"><ele>25.8</ele><time>2022-04-10T09:35:25.000Z</time></trkpt><trkpt lon="5.759166" lat="51.119863"><ele>25.8</ele><time>2022-04-10T09:35:26.000Z</time></trkpt><trkpt lon="5.759146" lat="51.119931"><ele>25.8</ele><time>2022-04-10T09:35:27.000Z</time></trkpt><trkpt lon="5.759108" lat="51.119994"><ele>25.6</ele><time>2022-04-10T09:35:28.000Z</time></trkpt><trkpt lon="5.759048" lat="51.120058"><ele>25.6</ele><time>2022-04-10T09:35:29.000Z</time></trkpt><trkpt lon="5.758972" lat="51.120117"><ele>25.6</ele><time>2022-04-10T09:35:30.000Z</time></trkpt><trkpt lon="5.758895" lat="51.120174"><ele>25.4</ele><time>2022-04-10T09:35:31.000Z</time></trkpt><trkpt lon="5.758816" lat="51.120234"><ele>25.2</ele><time>2022-04-10T09:35:32.000Z</time></trkpt><trkpt lon="5.758741" lat="51.120292"><ele>25</ele><time>2022-04-10T09:35:33.000Z</time></trkpt><trkpt lon="5.758668" lat="51.120354"><ele>24.8</ele><time>2022-04-10T09:35:34.000Z</time></trkpt><trkpt lon="5.758597" lat="51.120414"><ele>24.6</ele><time>2022-04-10T09:35:35.000Z</time></trkpt><trkpt lon="5.758528" lat="51.120471"><ele>24.6</ele><time>2022-04-10T09:35:36.000Z</time></trkpt><trkpt lon="5.758459" lat="51.120528"><ele>24.6</ele><time>2022-04-10T09:35:37.000Z</time></trkpt><trkpt lon="5.758394" lat="51.120584"><ele>24.8</ele><time>2022-04-10T09:35:38.000Z</time></trkpt><trkpt lon="5.758327" lat="51.120639"><ele>25.2</ele><time>2022-04-10T09:35:39.000Z</time></trkpt><trkpt lon="5.758258" lat="51.120686"><ele>25.4</ele><time>2022-04-10T09:35:40.000Z</time></trkpt><trkpt lon="5.758184" lat="51.120728"><ele>25.6</ele><time>2022-04-10T09:35:41.000Z</time></trkpt><trkpt lon="5.758102" lat="51.120764"><ele>25.8</ele><time>2022-04-10T09:35:42.000Z</time></trkpt><trkpt lon="5.75802" lat="51.120802"><ele>26</ele><time>2022-04-10T09:35:43.000Z</time></trkpt><trkpt lon="5.75794" lat="51.120846"><ele>26</ele><time>2022-04-10T09:35:44.000Z</time></trkpt><trkpt lon="5.757859" lat="51.120902"><ele>26.2</ele><time>2022-04-10T09:35:45.000Z</time></trkpt><trkpt lon="5.757781" lat="51.120959"><ele>26.2</ele><time>2022-04-10T09:35:46.000Z</time></trkpt><trkpt lon="5.757706" lat="51.121017"><ele>26.4</ele><time>2022-04-10T09:35:47.000Z</time></trkpt><trkpt lon="5.757638" lat="51.121076"><ele>26.4</ele><time>2022-04-10T09:35:48.000Z</time></trkpt><trkpt lon="5.75757" lat="51.121131"><ele>26.6</ele><time>2022-04-10T09:35:49.000Z</time></trkpt><trkpt lon="5.757504" lat="51.121187"><ele>26.8</ele><time>2022-04-10T09:35:50.000Z</time></trkpt><trkpt lon="5.757439" lat="51.12124"><ele>26.8</ele><time>2022-04-10T09:35:51.000Z</time></trkpt><trkpt lon="5.757374" lat="51.121294"><ele>27</ele><time>2022-04-10T09:35:52.000Z</time></trkpt><trkpt lon="5.757307" lat="51.121352"><ele>27</ele><time>2022-04-10T09:35:53.000Z</time></trkpt><trkpt lon="5.757242" lat="51.121407"><ele>27</ele><time>2022-04-10T09:35:54.000Z</time></trkpt><trkpt lon="5.757178" lat="51.121461"><ele>26.8</ele><time>2022-04-10T09:35:55.000Z</time></trkpt><trkpt lon="5.757111" lat="51.121521"><ele>26.6</ele><time>2022-04-10T09:35:56.000Z</time></trkpt><trkpt lon="5.757048" lat="51.121576"><ele>26.6</ele><time>2022-04-10T09:35:57.000Z</time></trkpt><trkpt lon="5.756984" lat="51.12163"><ele>26.4</ele><time>2022-04-10T09:35:58.000Z</time></trkpt><trkpt lon="5.75692" lat="51.121682"><ele>26.4</ele><time>2022-04-10T09:35:59.000Z</time></trkpt><trkpt lon="5.756854" lat="51.121736"><ele>26.4</ele><time>2022-04-10T09:36:00.000Z</time></trkpt><trkpt lon="5.756791" lat="51.121789"><ele>26.2</ele><time>2022-04-10T09:36:01.000Z</time></trkpt><trkpt lon="5.756725" lat="51.121839"><ele>26</ele><time>2022-04-10T09:36:02.000Z</time></trkpt><trkpt lon="5.756656" lat="51.121892"><ele>26</ele><time>2022-04-10T09:36:03.000Z</time></trkpt><trkpt lon="5.756584" lat="51.121945"><ele>26</ele><time>2022-04-10T09:36:04.000Z</time></trkpt><trkpt lon="5.756512" lat="51.121994"><ele>25.8</ele><time>2022-04-10T09:36:05.000Z</time></trkpt><trkpt lon="5.75644" lat="51.122041"><ele>25.8</ele><time>2022-04-10T09:36:06.000Z</time></trkpt><trkpt lon="5.756367" lat="51.122093"><ele>26</ele><time>2022-04-10T09:36:07.000Z</time></trkpt><trkpt lon="5.756295" lat="51.122139"><ele>26.2</ele><time>2022-04-10T09:36:08.000Z</time></trkpt><trkpt lon="5.756221" lat="51.122189"><ele>26.2</ele><time>2022-04-10T09:36:09.000Z</time></trkpt><trkpt lon="5.756145" lat="51.122239"><ele>26.4</ele><time>2022-04-10T09:36:10.000Z</time></trkpt><trkpt lon="5.756074" lat="51.122288"><ele>26.2</ele><time>2022-04-10T09:36:11.000Z</time></trkpt><trkpt lon="5.756008" lat="51.122339"><ele>26.2</ele><time>2022-04-10T09:36:12.000Z</time></trkpt><trkpt lon="5.755949" lat="51.122396"><ele>26.4</ele><time>2022-04-10T09:36:13.000Z</time></trkpt><trkpt lon="5.755895" lat="51.122458"><ele>26.2</ele><time>2022-04-10T09:36:14.000Z</time></trkpt><trkpt lon="5.755853" lat="51.12252"><ele>26.4</ele><time>2022-04-10T09:36:15.000Z</time></trkpt><trkpt lon="5.755822" lat="51.122586"><ele>26.6</ele><time>2022-04-10T09:36:16.000Z</time></trkpt><trkpt lon="5.755799" lat="51.122651"><ele>26.6</ele><time>2022-04-10T09:36:17.000Z</time></trkpt><trkpt lon="5.755784" lat="51.122717"><ele>26.8</ele><time>2022-04-10T09:36:18.000Z</time></trkpt><trkpt lon="5.75577" lat="51.122784"><ele>26.8</ele><time>2022-04-10T09:36:19.000Z</time></trkpt><trkpt lon="5.755755" lat="51.12285"><ele>26.8</ele><time>2022-04-10T09:36:20.000Z</time></trkpt><trkpt lon="5.755734" lat="51.122918"><ele>26.8</ele><time>2022-04-10T09:36:21.000Z</time></trkpt><trkpt lon="5.755704" lat="51.122982"><ele>26.8</ele><time>2022-04-10T09:36:22.000Z</time></trkpt><trkpt lon="5.755664" lat="51.123041"><ele>26.6</ele><time>2022-04-10T09:36:23.000Z</time></trkpt><trkpt lon="5.755608" lat="51.123097"><ele>26.6</ele><time>2022-04-10T09:36:24.000Z</time></trkpt><trkpt lon="5.755534" lat="51.123149"><ele>26.6</ele><time>2022-04-10T09:36:25.000Z</time></trkpt><trkpt lon="5.755449" lat="51.123191"><ele>26.6</ele><time>2022-04-10T09:36:26.000Z</time></trkpt><trkpt lon="5.755356" lat="51.123231"><ele>26.4</ele><time>2022-04-10T09:36:27.000Z</time></trkpt><trkpt lon="5.755257" lat="51.123268"><ele>26.4</ele><time>2022-04-10T09:36:28.000Z</time></trkpt><trkpt lon="5.755154" lat="51.1233"><ele>26.2</ele><time>2022-04-10T09:36:29.000Z</time></trkpt><trkpt lon="5.755045" lat="51.123328"><ele>25.8</ele><time>2022-04-10T09:36:30.000Z</time></trkpt><trkpt lon="5.754941" lat="51.123354"><ele>25.6</ele><time>2022-04-10T09:36:31.000Z</time></trkpt><trkpt lon="5.754833" lat="51.12338"><ele>25.6</ele><time>2022-04-10T09:36:32.000Z</time></trkpt><trkpt lon="5.754726" lat="51.123402"><ele>25.4</ele><time>2022-04-10T09:36:33.000Z</time></trkpt><trkpt lon="5.754619" lat="51.123422"><ele>25</ele><time>2022-04-10T09:36:34.000Z</time></trkpt><trkpt lon="5.754511" lat="51.123445"><ele>25</ele><time>2022-04-10T09:36:35.000Z</time></trkpt><trkpt lon="5.754406" lat="51.123468"><ele>25</ele><time>2022-04-10T09:36:36.000Z</time></trkpt><trkpt lon="5.7543" lat="51.123491"><ele>24.8</ele><time>2022-04-10T09:36:37.000Z</time></trkpt><trkpt lon="5.754193" lat="51.123515"><ele>24.8</ele><time>2022-04-10T09:36:38.000Z</time></trkpt><trkpt lon="5.754089" lat="51.123541"><ele>24.8</ele><time>2022-04-10T09:36:39.000Z</time></trkpt><trkpt lon="5.753988" lat="51.123563"><ele>25</ele><time>2022-04-10T09:36:40.000Z</time></trkpt><trkpt lon="5.753884" lat="51.123586"><ele>25</ele><time>2022-04-10T09:36:41.000Z</time></trkpt><trkpt lon="5.753785" lat="51.123606"><ele>24.8</ele><time>2022-04-10T09:36:42.000Z</time></trkpt><trkpt lon="5.753687" lat="51.123628"><ele>24.6</ele><time>2022-04-10T09:36:43.000Z</time></trkpt><trkpt lon="5.753592" lat="51.123647"><ele>24.4</ele><time>2022-04-10T09:36:44.000Z</time></trkpt><trkpt lon="5.753502" lat="51.123666"><ele>24.6</ele><time>2022-04-10T09:36:45.000Z</time></trkpt><trkpt lon="5.753414" lat="51.123685"><ele>25</ele><time>2022-04-10T09:36:46.000Z</time></trkpt><trkpt lon="5.753328" lat="51.123703"><ele>25.2</ele><time>2022-04-10T09:36:47.000Z</time></trkpt><trkpt lon="5.753249" lat="51.12372"><ele>25.4</ele><time>2022-04-10T09:36:48.000Z</time></trkpt><trkpt lon="5.753188" lat="51.123746"><ele>25.6</ele><time>2022-04-10T09:36:49.000Z</time></trkpt><trkpt lon="5.753161" lat="51.123788"><ele>25.8</ele><time>2022-04-10T09:36:50.000Z</time></trkpt><trkpt lon="5.75318" lat="51.123841"><ele>26</ele><time>2022-04-10T09:36:51.000Z</time></trkpt><trkpt lon="5.753232" lat="51.12389"><ele>26.2</ele><time>2022-04-10T09:36:52.000Z</time></trkpt><trkpt lon="5.753292" lat="51.12394"><ele>26.4</ele><time>2022-04-10T09:36:53.000Z</time></trkpt><trkpt lon="5.753352" lat="51.123994"><ele>26.6</ele><time>2022-04-10T09:36:54.000Z</time></trkpt><trkpt lon="5.753406" lat="51.124049"><ele>26.8</ele><time>2022-04-10T09:36:55.000Z</time></trkpt><trkpt lon="5.753458" lat="51.12411"><ele>26.8</ele><time>2022-04-10T09:36:56.000Z</time></trkpt><trkpt lon="5.753509" lat="51.12417"><ele>26.6</ele><time>2022-04-10T09:36:57.000Z</time></trkpt><trkpt lon="5.753557" lat="51.124232"><ele>26.6</ele><time>2022-04-10T09:36:58.000Z</time></trkpt><trkpt lon="5.753602" lat="51.124293"><ele>26.4</ele><time>2022-04-10T09:36:59.000Z</time></trkpt><trkpt lon="5.753647" lat="51.124354"><ele>26.4</ele><time>2022-04-10T09:37:00.000Z</time></trkpt><trkpt lon="5.753695" lat="51.124414"><ele>26.2</ele><time>2022-04-10T09:37:01.000Z</time></trkpt><trkpt lon="5.753744" lat="51.124471"><ele>26.2</ele><time>2022-04-10T09:37:02.000Z</time></trkpt><trkpt lon="5.753798" lat="51.124524"><ele>26.2</ele><time>2022-04-10T09:37:03.000Z</time></trkpt><trkpt lon="5.753852" lat="51.124577"><ele>26.2</ele><time>2022-04-10T09:37:04.000Z</time></trkpt><trkpt lon="5.753905" lat="51.124626"><ele>26.4</ele><time>2022-04-10T09:37:05.000Z</time></trkpt><trkpt lon="5.753953" lat="51.124671"><ele>26.4</ele><time>2022-04-10T09:37:06.000Z</time></trkpt><trkpt lon="5.753998" lat="51.124718"><ele>26.4</ele><time>2022-04-10T09:37:07.000Z</time></trkpt><trkpt lon="5.754025" lat="51.124769"><ele>26.2</ele><time>2022-04-10T09:37:08.000Z</time></trkpt><trkpt lon="5.754017" lat="51.124831"><ele>26.2</ele><time>2022-04-10T09:37:09.000Z</time></trkpt><trkpt lon="5.753989" lat="51.124892"><ele>26.2</ele><time>2022-04-10T09:37:10.000Z</time></trkpt><trkpt lon="5.753948" lat="51.124959"><ele>26</ele><time>2022-04-10T09:37:11.000Z</time></trkpt><trkpt lon="5.753907" lat="51.125026"><ele>26.2</ele><time>2022-04-10T09:37:12.000Z</time></trkpt><trkpt lon="5.753864" lat="51.125092"><ele>26.2</ele><time>2022-04-10T09:37:13.000Z</time></trkpt><trkpt lon="5.753824" lat="51.12516"><ele>26.2</ele><time>2022-04-10T09:37:14.000Z</time></trkpt><trkpt lon="5.753788" lat="51.125228"><ele>26</ele><time>2022-04-10T09:37:15.000Z</time></trkpt><trkpt lon="5.753754" lat="51.125293"><ele>26</ele><time>2022-04-10T09:37:16.000Z</time></trkpt><trkpt lon="5.753722" lat="51.125356"><ele>26</ele><time>2022-04-10T09:37:17.000Z</time></trkpt><trkpt lon="5.753692" lat="51.125413"><ele>26</ele><time>2022-04-10T09:37:18.000Z</time></trkpt><trkpt lon="5.753664" lat="51.125477"><ele>26</ele><time>2022-04-10T09:37:19.000Z</time></trkpt><trkpt lon="5.753648" lat="51.12554"><ele>25.8</ele><time>2022-04-10T09:37:20.000Z</time></trkpt><trkpt lon="5.753652" lat="51.125602"><ele>25.8</ele><time>2022-04-10T09:37:21.000Z</time></trkpt><trkpt lon="5.753673" lat="51.125664"><ele>25.8</ele><time>2022-04-10T09:37:22.000Z</time></trkpt><trkpt lon="5.753711" lat="51.125728"><ele>25.8</ele><time>2022-04-10T09:37:23.000Z</time></trkpt><trkpt lon="5.753762" lat="51.125794"><ele>25.6</ele><time>2022-04-10T09:37:24.000Z</time></trkpt><trkpt lon="5.753815" lat="51.125861"><ele>25.6</ele><time>2022-04-10T09:37:25.000Z</time></trkpt><trkpt lon="5.753868" lat="51.125927"><ele>25.6</ele><time>2022-04-10T09:37:26.000Z</time></trkpt><trkpt lon="5.753922" lat="51.125993"><ele>25.6</ele><time>2022-04-10T09:37:27.000Z</time></trkpt><trkpt lon="5.753972" lat="51.126056"><ele>25.6</ele><time>2022-04-10T09:37:28.000Z</time></trkpt><trkpt lon="5.754019" lat="51.126121"><ele>25.8</ele><time>2022-04-10T09:37:29.000Z</time></trkpt><trkpt lon="5.754062" lat="51.126186"><ele>25.8</ele><time>2022-04-10T09:37:30.000Z</time></trkpt><trkpt lon="5.754103" lat="51.12625"><ele>26</ele><time>2022-04-10T09:37:31.000Z</time></trkpt><trkpt lon="5.754145" lat="51.126315"><ele>26</ele><time>2022-04-10T09:37:32.000Z</time></trkpt><trkpt lon="5.754187" lat="51.126381"><ele>26</ele><time>2022-04-10T09:37:33.000Z</time></trkpt><trkpt lon="5.754227" lat="51.126449"><ele>26.2</ele><time>2022-04-10T09:37:34.000Z</time></trkpt><trkpt lon="5.754265" lat="51.126513"><ele>26.2</ele><time>2022-04-10T09:37:35.000Z</time></trkpt><trkpt lon="5.754301" lat="51.126578"><ele>26.2</ele><time>2022-04-10T09:37:36.000Z</time></trkpt><trkpt lon="5.75434" lat="51.126652"><ele>26.2</ele><time>2022-04-10T09:37:37.000Z</time></trkpt><trkpt lon="5.754381" lat="51.126722"><ele>26.2</ele><time>2022-04-10T09:37:38.000Z</time></trkpt><trkpt lon="5.754419" lat="51.126786"><ele>26.2</ele><time>2022-04-10T09:37:39.000Z</time></trkpt><trkpt lon="5.754463" lat="51.126857"><ele>26</ele><time>2022-04-10T09:37:40.000Z</time></trkpt><trkpt lon="5.754502" lat="51.126923"><ele>26</ele><time>2022-04-10T09:37:41.000Z</time></trkpt><trkpt lon="5.75454" lat="51.126991"><ele>25.8</ele><time>2022-04-10T09:37:42.000Z</time></trkpt><trkpt lon="5.754574" lat="51.127059"><ele>25.8</ele><time>2022-04-10T09:37:43.000Z</time></trkpt><trkpt lon="5.75461" lat="51.127127"><ele>25.8</ele><time>2022-04-10T09:37:44.000Z</time></trkpt><trkpt lon="5.754647" lat="51.127196"><ele>25.6</ele><time>2022-04-10T09:37:45.000Z</time></trkpt><trkpt lon="5.754685" lat="51.127261"><ele>25.6</ele><time>2022-04-10T09:37:46.000Z</time></trkpt><trkpt lon="5.75472" lat="51.127326"><ele>25.6</ele><time>2022-04-10T09:37:47.000Z</time></trkpt><trkpt lon="5.754755" lat="51.127391"><ele>25.8</ele><time>2022-04-10T09:37:48.000Z</time></trkpt><trkpt lon="5.754791" lat="51.127455"><ele>25.8</ele><time>2022-04-10T09:37:49.000Z</time></trkpt><trkpt lon="5.754826" lat="51.12752"><ele>26</ele><time>2022-04-10T09:37:50.000Z</time></trkpt><trkpt lon="5.754861" lat="51.127585"><ele>26</ele><time>2022-04-10T09:37:51.000Z</time></trkpt><trkpt lon="5.754893" lat="51.12765"><ele>26</ele><time>2022-04-10T09:37:52.000Z</time></trkpt><trkpt lon="5.754924" lat="51.127715"><ele>26</ele><time>2022-04-10T09:37:53.000Z</time></trkpt><trkpt lon="5.754956" lat="51.12778"><ele>26</ele><time>2022-04-10T09:37:54.000Z</time></trkpt><trkpt lon="5.754987" lat="51.127846"><ele>26</ele><time>2022-04-10T09:37:55.000Z</time></trkpt><trkpt lon="5.755021" lat="51.127913"><ele>25.8</ele><time>2022-04-10T09:37:56.000Z</time></trkpt><trkpt lon="5.755056" lat="51.127978"><ele>26</ele><time>2022-04-10T09:37:57.000Z</time></trkpt><trkpt lon="5.755089" lat="51.128042"><ele>26</ele><time>2022-04-10T09:37:58.000Z</time></trkpt><trkpt lon="5.755122" lat="51.128105"><ele>25.8</ele><time>2022-04-10T09:37:59.000Z</time></trkpt><trkpt lon="5.755151" lat="51.128173"><ele>25.8</ele><time>2022-04-10T09:38:00.000Z</time></trkpt><trkpt lon="5.75518" lat="51.128237"><ele>25.8</ele><time>2022-04-10T09:38:01.000Z</time></trkpt><trkpt lon="5.755209" lat="51.128302"><ele>25.8</ele><time>2022-04-10T09:38:02.000Z</time></trkpt><trkpt lon="5.755238" lat="51.128366"><ele>25.8</ele><time>2022-04-10T09:38:03.000Z</time></trkpt><trkpt lon="5.755269" lat="51.128428"><ele>25.8</ele><time>2022-04-10T09:38:04.000Z</time></trkpt><trkpt lon="5.755299" lat="51.128493"><ele>26</ele><time>2022-04-10T09:38:05.000Z</time></trkpt><trkpt lon="5.755327" lat="51.128557"><ele>26</ele><time>2022-04-10T09:38:06.000Z</time></trkpt><trkpt lon="5.755352" lat="51.128619"><ele>26</ele><time>2022-04-10T09:38:07.000Z</time></trkpt><trkpt lon="5.75538" lat="51.128688"><ele>26</ele><time>2022-04-10T09:38:08.000Z</time></trkpt><trkpt lon="5.755412" lat="51.128761"><ele>26</ele><time>2022-04-10T09:38:09.000Z</time></trkpt><trkpt lon="5.755444" lat="51.12883"><ele>26</ele><time>2022-04-10T09:38:10.000Z</time></trkpt><trkpt lon="5.755478" lat="51.128898"><ele>26</ele><time>2022-04-10T09:38:11.000Z</time></trkpt><trkpt lon="5.755511" lat="51.128967"><ele>26</ele><time>2022-04-10T09:38:12.000Z</time></trkpt><trkpt lon="5.755544" lat="51.129034"><ele>26</ele><time>2022-04-10T09:38:13.000Z</time></trkpt><trkpt lon="5.755577" lat="51.129101"><ele>26</ele><time>2022-04-10T09:38:14.000Z</time></trkpt><trkpt lon="5.755606" lat="51.12917"><ele>26</ele><time>2022-04-10T09:38:15.000Z</time></trkpt><trkpt lon="5.755635" lat="51.129237"><ele>26</ele><time>2022-04-10T09:38:16.000Z</time></trkpt><trkpt lon="5.755664" lat="51.129302"><ele>26</ele><time>2022-04-10T09:38:17.000Z</time></trkpt><trkpt lon="5.755695" lat="51.129366"><ele>26</ele><time>2022-04-10T09:38:18.000Z</time></trkpt><trkpt lon="5.755725" lat="51.129433"><ele>26</ele><time>2022-04-10T09:38:19.000Z</time></trkpt><trkpt lon="5.755752" lat="51.1295"><ele>26.2</ele><time>2022-04-10T09:38:20.000Z</time></trkpt><trkpt lon="5.75578" lat="51.129565"><ele>26.2</ele><time>2022-04-10T09:38:21.000Z</time></trkpt><trkpt lon="5.75581" lat="51.129631"><ele>26.2</ele><time>2022-04-10T09:38:22.000Z</time></trkpt><trkpt lon="5.755841" lat="51.1297"><ele>26.2</ele><time>2022-04-10T09:38:23.000Z</time></trkpt><trkpt lon="5.755871" lat="51.129769"><ele>26.2</ele><time>2022-04-10T09:38:24.000Z</time></trkpt><trkpt lon="5.755899" lat="51.129841"><ele>26.2</ele><time>2022-04-10T09:38:25.000Z</time></trkpt><trkpt lon="5.755925" lat="51.129915"><ele>26</ele><time>2022-04-10T09:38:26.000Z</time></trkpt><trkpt lon="5.755949" lat="51.129986"><ele>26</ele><time>2022-04-10T09:38:27.000Z</time></trkpt><trkpt lon="5.755971" lat="51.130054"><ele>26</ele><time>2022-04-10T09:38:28.000Z</time></trkpt><trkpt lon="5.755994" lat="51.130124"><ele>26</ele><time>2022-04-10T09:38:29.000Z</time></trkpt><trkpt lon="5.756016" lat="51.130195"><ele>25.8</ele><time>2022-04-10T09:38:30.000Z</time></trkpt><trkpt lon="5.756035" lat="51.130264"><ele>25.8</ele><time>2022-04-10T09:38:31.000Z</time></trkpt><trkpt lon="5.756055" lat="51.130334"><ele>25.8</ele><time>2022-04-10T09:38:32.000Z</time></trkpt><trkpt lon="5.756073" lat="51.130405"><ele>25.8</ele><time>2022-04-10T09:38:33.000Z</time></trkpt><trkpt lon="5.756092" lat="51.130475"><ele>25.8</ele><time>2022-04-10T09:38:34.000Z</time></trkpt><trkpt lon="5.756111" lat="51.130548"><ele>25.6</ele><time>2022-04-10T09:38:35.000Z</time></trkpt><trkpt lon="5.756131" lat="51.130619"><ele>25.6</ele><time>2022-04-10T09:38:36.000Z</time></trkpt><trkpt lon="5.756152" lat="51.130688"><ele>25.6</ele><time>2022-04-10T09:38:37.000Z</time></trkpt><trkpt lon="5.756172" lat="51.13076"><ele>25.6</ele><time>2022-04-10T09:38:38.000Z</time></trkpt><trkpt lon="5.756191" lat="51.130829"><ele>25.8</ele><time>2022-04-10T09:38:39.000Z</time></trkpt><trkpt lon="5.756211" lat="51.130897"><ele>26</ele><time>2022-04-10T09:38:40.000Z</time></trkpt><trkpt lon="5.756231" lat="51.130964"><ele>26</ele><time>2022-04-10T09:38:41.000Z</time></trkpt><trkpt lon="5.756251" lat="51.131035"><ele>26</ele><time>2022-04-10T09:38:42.000Z</time></trkpt><trkpt lon="5.75627" lat="51.131103"><ele>26</ele><time>2022-04-10T09:38:43.000Z</time></trkpt><trkpt lon="5.756288" lat="51.131172"><ele>26</ele><time>2022-04-10T09:38:44.000Z</time></trkpt><trkpt lon="5.756304" lat="51.131244"><ele>26</ele><time>2022-04-10T09:38:45.000Z</time></trkpt><trkpt lon="5.756322" lat="51.131317"><ele>26</ele><time>2022-04-10T09:38:46.000Z</time></trkpt><trkpt lon="5.75634" lat="51.131385"><ele>26</ele><time>2022-04-10T09:38:47.000Z</time></trkpt><trkpt lon="5.756358" lat="51.131454"><ele>25.8</ele><time>2022-04-10T09:38:48.000Z</time></trkpt><trkpt lon="5.756377" lat="51.131523"><ele>25.8</ele><time>2022-04-10T09:38:49.000Z</time></trkpt><trkpt lon="5.756398" lat="51.131591"><ele>25.8</ele><time>2022-04-10T09:38:50.000Z</time></trkpt><trkpt lon="5.756419" lat="51.131657"><ele>25.8</ele><time>2022-04-10T09:38:51.000Z</time></trkpt><trkpt lon="5.756439" lat="51.131728"><ele>25.8</ele><time>2022-04-10T09:38:52.000Z</time></trkpt><trkpt lon="5.756459" lat="51.131793"><ele>25.8</ele><time>2022-04-10T09:38:53.000Z</time></trkpt><trkpt lon="5.756479" lat="51.131863"><ele>25.8</ele><time>2022-04-10T09:38:54.000Z</time></trkpt><trkpt lon="5.756501" lat="51.131932"><ele>25.8</ele><time>2022-04-10T09:38:55.000Z</time></trkpt><trkpt lon="5.756525" lat="51.132004"><ele>25.8</ele><time>2022-04-10T09:38:56.000Z</time></trkpt><trkpt lon="5.756549" lat="51.132072"><ele>25.8</ele><time>2022-04-10T09:38:57.000Z</time></trkpt><trkpt lon="5.756575" lat="51.132137"><ele>25.8</ele><time>2022-04-10T09:38:58.000Z</time></trkpt><trkpt lon="5.756608" lat="51.132208"><ele>25.8</ele><time>2022-04-10T09:38:59.000Z</time></trkpt><trkpt lon="5.756646" lat="51.132278"><ele>26</ele><time>2022-04-10T09:39:00.000Z</time></trkpt><trkpt lon="5.756684" lat="51.132343"><ele>25.8</ele><time>2022-04-10T09:39:01.000Z</time></trkpt><trkpt lon="5.756727" lat="51.13241"><ele>25.8</ele><time>2022-04-10T09:39:02.000Z</time></trkpt><trkpt lon="5.756777" lat="51.132472"><ele>25.8</ele><time>2022-04-10T09:39:03.000Z</time></trkpt><trkpt lon="5.756832" lat="51.132535"><ele>26</ele><time>2022-04-10T09:39:04.000Z</time></trkpt><trkpt lon="5.75689" lat="51.132596"><ele>26</ele><time>2022-04-10T09:39:05.000Z</time></trkpt><trkpt lon="5.756953" lat="51.132659"><ele>26</ele><time>2022-04-10T09:39:06.000Z</time></trkpt><trkpt lon="5.757017" lat="51.132723"><ele>26</ele><time>2022-04-10T09:39:07.000Z</time></trkpt><trkpt lon="5.757085" lat="51.132783"><ele>26</ele><time>2022-04-10T09:39:08.000Z</time></trkpt><trkpt lon="5.757157" lat="51.132845"><ele>26</ele><time>2022-04-10T09:39:09.000Z</time></trkpt><trkpt lon="5.75723" lat="51.132906"><ele>26</ele><time>2022-04-10T09:39:10.000Z</time></trkpt><trkpt lon="5.757302" lat="51.132967"><ele>26</ele><time>2022-04-10T09:39:11.000Z</time></trkpt><trkpt lon="5.757375" lat="51.133028"><ele>26</ele><time>2022-04-10T09:39:12.000Z</time></trkpt><trkpt lon="5.757447" lat="51.133088"><ele>26</ele><time>2022-04-10T09:39:13.000Z</time></trkpt><trkpt lon="5.75752" lat="51.13315"><ele>26</ele><time>2022-04-10T09:39:14.000Z</time></trkpt><trkpt lon="5.757592" lat="51.133211"><ele>26.2</ele><time>2022-04-10T09:39:15.000Z</time></trkpt><trkpt lon="5.757665" lat="51.133271"><ele>26.2</ele><time>2022-04-10T09:39:16.000Z</time></trkpt><trkpt lon="5.757737" lat="51.133329"><ele>26.2</ele><time>2022-04-10T09:39:17.000Z</time></trkpt><trkpt lon="5.757809" lat="51.133389"><ele>26.2</ele><time>2022-04-10T09:39:18.000Z</time></trkpt><trkpt lon="5.757881" lat="51.133446"><ele>26.2</ele><time>2022-04-10T09:39:19.000Z</time></trkpt><trkpt lon="5.75795" lat="51.133503"><ele>26.2</ele><time>2022-04-10T09:39:20.000Z</time></trkpt><trkpt lon="5.758019" lat="51.133561"><ele>26.2</ele><time>2022-04-10T09:39:21.000Z</time></trkpt><trkpt lon="5.758085" lat="51.133617"><ele>26.2</ele><time>2022-04-10T09:39:22.000Z</time></trkpt><trkpt lon="5.75815" lat="51.133669"><ele>26.2</ele><time>2022-04-10T09:39:23.000Z</time></trkpt><trkpt lon="5.758213" lat="51.13372"><ele>26.2</ele><time>2022-04-10T09:39:24.000Z</time></trkpt><trkpt lon="5.758272" lat="51.13377"><ele>26.2</ele><time>2022-04-10T09:39:25.000Z</time></trkpt><trkpt lon="5.758325" lat="51.133812"><ele>26.2</ele><time>2022-04-10T09:39:26.000Z</time></trkpt><trkpt lon="5.758371" lat="51.133852"><ele>26.2</ele><time>2022-04-10T09:39:27.000Z</time></trkpt><trkpt lon="5.758413" lat="51.133884"><ele>26.2</ele><time>2022-04-10T09:39:28.000Z</time></trkpt><trkpt lon="5.758453" lat="51.133911"><ele>26.4</ele><time>2022-04-10T09:39:29.000Z</time></trkpt><trkpt lon="5.758492" lat="51.133939"><ele>26.4</ele><time>2022-04-10T09:39:30.000Z</time></trkpt><trkpt lon="5.758528" lat="51.133971"><ele>26.6</ele><time>2022-04-10T09:39:31.000Z</time></trkpt><trkpt lon="5.758554" lat="51.13401"><ele>26.6</ele><time>2022-04-10T09:39:32.000Z</time></trkpt><trkpt lon="5.758565" lat="51.134053"><ele>26.6</ele><time>2022-04-10T09:39:33.000Z</time></trkpt><trkpt lon="5.758557" lat="51.1341"><ele>26.8</ele><time>2022-04-10T09:39:34.000Z</time></trkpt><trkpt lon="5.758526" lat="51.134156"><ele>26.8</ele><time>2022-04-10T09:39:35.000Z</time></trkpt><trkpt lon="5.758484" lat="51.134214"><ele>26.8</ele><time>2022-04-10T09:39:36.000Z</time></trkpt><trkpt lon="5.758439" lat="51.134276"><ele>27</ele><time>2022-04-10T09:39:37.000Z</time></trkpt><trkpt lon="5.758392" lat="51.134341"><ele>27</ele><time>2022-04-10T09:39:38.000Z</time></trkpt><trkpt lon="5.758344" lat="51.134407"><ele>27</ele><time>2022-04-10T09:39:39.000Z</time></trkpt><trkpt lon="5.758297" lat="51.134474"><ele>27</ele><time>2022-04-10T09:39:40.000Z</time></trkpt><trkpt lon="5.758249" lat="51.134539"><ele>27.2</ele><time>2022-04-10T09:39:41.000Z</time></trkpt><trkpt lon="5.758202" lat="51.134605"><ele>27.2</ele><time>2022-04-10T09:39:42.000Z</time></trkpt><trkpt lon="5.758155" lat="51.134667"><ele>27.2</ele><time>2022-04-10T09:39:43.000Z</time></trkpt><trkpt lon="5.758106" lat="51.134726"><ele>27.4</ele><time>2022-04-10T09:39:44.000Z</time></trkpt><trkpt lon="5.758054" lat="51.134789"><ele>27.4</ele><time>2022-04-10T09:39:45.000Z</time></trkpt><trkpt lon="5.758" lat="51.134847"><ele>27.2</ele><time>2022-04-10T09:39:46.000Z</time></trkpt><trkpt lon="5.757943" lat="51.134907"><ele>27.2</ele><time>2022-04-10T09:39:47.000Z</time></trkpt><trkpt lon="5.757884" lat="51.134962"><ele>27.2</ele><time>2022-04-10T09:39:48.000Z</time></trkpt><trkpt lon="5.757819" lat="51.135022"><ele>27</ele><time>2022-04-10T09:39:49.000Z</time></trkpt><trkpt lon="5.757755" lat="51.135078"><ele>27</ele><time>2022-04-10T09:39:50.000Z</time></trkpt><trkpt lon="5.757685" lat="51.135132"><ele>26.8</ele><time>2022-04-10T09:39:51.000Z</time></trkpt><trkpt lon="5.757614" lat="51.135187"><ele>26.8</ele><time>2022-04-10T09:39:52.000Z</time></trkpt><trkpt lon="5.757541" lat="51.135238"><ele>26.8</ele><time>2022-04-10T09:39:53.000Z</time></trkpt><trkpt lon="5.757468" lat="51.135293"><ele>26.6</ele><time>2022-04-10T09:39:54.000Z</time></trkpt><trkpt lon="5.757397" lat="51.13535"><ele>26.6</ele><time>2022-04-10T09:39:55.000Z</time></trkpt><trkpt lon="5.757323" lat="51.135406"><ele>26.6</ele><time>2022-04-10T09:39:56.000Z</time></trkpt><trkpt lon="5.757244" lat="51.135461"><ele>26.4</ele><time>2022-04-10T09:39:57.000Z</time></trkpt><trkpt lon="5.757162" lat="51.135516"><ele>26.2</ele><time>2022-04-10T09:39:58.000Z</time></trkpt><trkpt lon="5.757081" lat="51.135566"><ele>26</ele><time>2022-04-10T09:39:59.000Z</time></trkpt><trkpt lon="5.757001" lat="51.13562"><ele>26</ele><time>2022-04-10T09:40:00.000Z</time></trkpt><trkpt lon="5.756922" lat="51.135673"><ele>26</ele><time>2022-04-10T09:40:01.000Z</time></trkpt><trkpt lon="5.756844" lat="51.135726"><ele>26</ele><time>2022-04-10T09:40:02.000Z</time></trkpt><trkpt lon="5.756766" lat="51.135778"><ele>26.2</ele><time>2022-04-10T09:40:03.000Z</time></trkpt><trkpt lon="5.756689" lat="51.135827"><ele>26</ele><time>2022-04-10T09:40:04.000Z</time></trkpt><trkpt lon="5.756608" lat="51.135878"><ele>25.8</ele><time>2022-04-10T09:40:05.000Z</time></trkpt><trkpt lon="5.756532" lat="51.135929"><ele>25.8</ele><time>2022-04-10T09:40:06.000Z</time></trkpt><trkpt lon="5.756455" lat="51.135981"><ele>25.8</ele><time>2022-04-10T09:40:07.000Z</time></trkpt><trkpt lon="5.756377" lat="51.136031"><ele>25.6</ele><time>2022-04-10T09:40:08.000Z</time></trkpt><trkpt lon="5.756299" lat="51.13608"><ele>25.6</ele><time>2022-04-10T09:40:09.000Z</time></trkpt><trkpt lon="5.756222" lat="51.136131"><ele>25.4</ele><time>2022-04-10T09:40:10.000Z</time></trkpt><trkpt lon="5.756145" lat="51.136183"><ele>25.4</ele><time>2022-04-10T09:40:11.000Z</time></trkpt><trkpt lon="5.756069" lat="51.136233"><ele>25.6</ele><time>2022-04-10T09:40:12.000Z</time></trkpt><trkpt lon="5.755992" lat="51.136283"><ele>25.6</ele><time>2022-04-10T09:40:13.000Z</time></trkpt><trkpt lon="5.755914" lat="51.136335"><ele>25.6</ele><time>2022-04-10T09:40:14.000Z</time></trkpt><trkpt lon="5.755834" lat="51.136385"><ele>25.6</ele><time>2022-04-10T09:40:15.000Z</time></trkpt><trkpt lon="5.755753" lat="51.136439"><ele>25.8</ele><time>2022-04-10T09:40:16.000Z</time></trkpt><trkpt lon="5.755675" lat="51.136488"><ele>25.6</ele><time>2022-04-10T09:40:17.000Z</time></trkpt><trkpt lon="5.755597" lat="51.136539"><ele>25.6</ele><time>2022-04-10T09:40:18.000Z</time></trkpt><trkpt lon="5.755521" lat="51.136591"><ele>25.4</ele><time>2022-04-10T09:40:19.000Z</time></trkpt><trkpt lon="5.755446" lat="51.136641"><ele>25.4</ele><time>2022-04-10T09:40:20.000Z</time></trkpt><trkpt lon="5.75537" lat="51.136692"><ele>25.4</ele><time>2022-04-10T09:40:21.000Z</time></trkpt><trkpt lon="5.755295" lat="51.136743"><ele>25.2</ele><time>2022-04-10T09:40:22.000Z</time></trkpt><trkpt lon="5.755215" lat="51.136793"><ele>25.4</ele><time>2022-04-10T09:40:23.000Z</time></trkpt><trkpt lon="5.755136" lat="51.136848"><ele>25.2</ele><time>2022-04-10T09:40:24.000Z</time></trkpt><trkpt lon="5.755059" lat="51.136901"><ele>25</ele><time>2022-04-10T09:40:25.000Z</time></trkpt><trkpt lon="5.754979" lat="51.136954"><ele>25</ele><time>2022-04-10T09:40:26.000Z</time></trkpt><trkpt lon="5.754901" lat="51.137004"><ele>25</ele><time>2022-04-10T09:40:27.000Z</time></trkpt><trkpt lon="5.754825" lat="51.137056"><ele>25</ele><time>2022-04-10T09:40:28.000Z</time></trkpt><trkpt lon="5.754745" lat="51.137106"><ele>25</ele><time>2022-04-10T09:40:29.000Z</time></trkpt><trkpt lon="5.754669" lat="51.137156"><ele>25</ele><time>2022-04-10T09:40:30.000Z</time></trkpt><trkpt lon="5.754594" lat="51.137206"><ele>25</ele><time>2022-04-10T09:40:31.000Z</time></trkpt><trkpt lon="5.75452" lat="51.137257"><ele>24.8</ele><time>2022-04-10T09:40:32.000Z</time></trkpt><trkpt lon="5.75444" lat="51.137309"><ele>25</ele><time>2022-04-10T09:40:33.000Z</time></trkpt><trkpt lon="5.754363" lat="51.137359"><ele>25</ele><time>2022-04-10T09:40:34.000Z</time></trkpt><trkpt lon="5.754283" lat="51.137412"><ele>25</ele><time>2022-04-10T09:40:35.000Z</time></trkpt><trkpt lon="5.754205" lat="51.137461"><ele>25</ele><time>2022-04-10T09:40:36.000Z</time></trkpt><trkpt lon="5.754127" lat="51.137512"><ele>24.8</ele><time>2022-04-10T09:40:37.000Z</time></trkpt><trkpt lon="5.754048" lat="51.137564"><ele>25</ele><time>2022-04-10T09:40:38.000Z</time></trkpt><trkpt lon="5.75397" lat="51.137614"><ele>25</ele><time>2022-04-10T09:40:39.000Z</time></trkpt><trkpt lon="5.753892" lat="51.137665"><ele>25</ele><time>2022-04-10T09:40:40.000Z</time></trkpt><trkpt lon="5.753814" lat="51.137718"><ele>25</ele><time>2022-04-10T09:40:41.000Z</time></trkpt><trkpt lon="5.753734" lat="51.13777"><ele>25.2</ele><time>2022-04-10T09:40:42.000Z</time></trkpt><trkpt lon="5.753652" lat="51.137824"><ele>25.2</ele><time>2022-04-10T09:40:43.000Z</time></trkpt><trkpt lon="5.753568" lat="51.137878"><ele>25</ele><time>2022-04-10T09:40:44.000Z</time></trkpt><trkpt lon="5.753488" lat="51.137931"><ele>24.8</ele><time>2022-04-10T09:40:45.000Z</time></trkpt><trkpt lon="5.753408" lat="51.137985"><ele>24.8</ele><time>2022-04-10T09:40:46.000Z</time></trkpt><trkpt lon="5.753333" lat="51.138037"><ele>24.8</ele><time>2022-04-10T09:40:47.000Z</time></trkpt><trkpt lon="5.753258" lat="51.138088"><ele>24.6</ele><time>2022-04-10T09:40:48.000Z</time></trkpt><trkpt lon="5.753175" lat="51.13814"><ele>24.6</ele><time>2022-04-10T09:40:49.000Z</time></trkpt><trkpt lon="5.753095" lat="51.138191"><ele>24.6</ele><time>2022-04-10T09:40:50.000Z</time></trkpt><trkpt lon="5.753017" lat="51.138244"><ele>24.6</ele><time>2022-04-10T09:40:51.000Z</time></trkpt><trkpt lon="5.75294" lat="51.138299"><ele>24.6</ele><time>2022-04-10T09:40:52.000Z</time></trkpt><trkpt lon="5.752861" lat="51.138354"><ele>24.6</ele><time>2022-04-10T09:40:53.000Z</time></trkpt><trkpt lon="5.752781" lat="51.138404"><ele>24.6</ele><time>2022-04-10T09:40:54.000Z</time></trkpt><trkpt lon="5.752704" lat="51.138456"><ele>24.6</ele><time>2022-04-10T09:40:55.000Z</time></trkpt><trkpt lon="5.752627" lat="51.138507"><ele>24.6</ele><time>2022-04-10T09:40:56.000Z</time></trkpt><trkpt lon="5.75255" lat="51.138561"><ele>24.6</ele><time>2022-04-10T09:40:57.000Z</time></trkpt><trkpt lon="5.752472" lat="51.138614"><ele>24.8</ele><time>2022-04-10T09:40:58.000Z</time></trkpt><trkpt lon="5.752395" lat="51.138667"><ele>24.8</ele><time>2022-04-10T09:40:59.000Z</time></trkpt><trkpt lon="5.752316" lat="51.13872"><ele>25</ele><time>2022-04-10T09:41:00.000Z</time></trkpt><trkpt lon="5.752238" lat="51.13877"><ele>25</ele><time>2022-04-10T09:41:01.000Z</time></trkpt><trkpt lon="5.75216" lat="51.13882"><ele>25</ele><time>2022-04-10T09:41:02.000Z</time></trkpt><trkpt lon="5.752084" lat="51.138874"><ele>25</ele><time>2022-04-10T09:41:03.000Z</time></trkpt><trkpt lon="5.752008" lat="51.138925"><ele>25</ele><time>2022-04-10T09:41:04.000Z</time></trkpt><trkpt lon="5.75193" lat="51.138977"><ele>25</ele><time>2022-04-10T09:41:05.000Z</time></trkpt><trkpt lon="5.751854" lat="51.13903"><ele>25.2</ele><time>2022-04-10T09:41:06.000Z</time></trkpt><trkpt lon="5.751776" lat="51.139081"><ele>25.2</ele><time>2022-04-10T09:41:07.000Z</time></trkpt><trkpt lon="5.751697" lat="51.139132"><ele>25.2</ele><time>2022-04-10T09:41:08.000Z</time></trkpt><trkpt lon="5.751617" lat="51.139186"><ele>25.2</ele><time>2022-04-10T09:41:09.000Z</time></trkpt><trkpt lon="5.75154" lat="51.139236"><ele>25.2</ele><time>2022-04-10T09:41:10.000Z</time></trkpt><trkpt lon="5.751463" lat="51.139289"><ele>25.2</ele><time>2022-04-10T09:41:11.000Z</time></trkpt><trkpt lon="5.751384" lat="51.139339"><ele>25.2</ele><time>2022-04-10T09:41:12.000Z</time></trkpt><trkpt lon="5.751305" lat="51.139393"><ele>25.2</ele><time>2022-04-10T09:41:13.000Z</time></trkpt><trkpt lon="5.751226" lat="51.139446"><ele>25.2</ele><time>2022-04-10T09:41:14.000Z</time></trkpt><trkpt lon="5.751146" lat="51.139499"><ele>25.2</ele><time>2022-04-10T09:41:15.000Z</time></trkpt><trkpt lon="5.751064" lat="51.139554"><ele>25.2</ele><time>2022-04-10T09:41:16.000Z</time></trkpt><trkpt lon="5.750985" lat="51.13961"><ele>25.2</ele><time>2022-04-10T09:41:17.000Z</time></trkpt><trkpt lon="5.750904" lat="51.139663"><ele>25.2</ele><time>2022-04-10T09:41:18.000Z</time></trkpt><trkpt lon="5.750823" lat="51.139715"><ele>25.2</ele><time>2022-04-10T09:41:19.000Z</time></trkpt><trkpt lon="5.750742" lat="51.139766"><ele>25.2</ele><time>2022-04-10T09:41:20.000Z</time></trkpt><trkpt lon="5.750663" lat="51.13982"><ele>25</ele><time>2022-04-10T09:41:21.000Z</time></trkpt><trkpt lon="5.750583" lat="51.139873"><ele>25</ele><time>2022-04-10T09:41:22.000Z</time></trkpt><trkpt lon="5.750505" lat="51.139926"><ele>25</ele><time>2022-04-10T09:41:23.000Z</time></trkpt><trkpt lon="5.750426" lat="51.13998"><ele>24.6</ele><time>2022-04-10T09:41:24.000Z</time></trkpt><trkpt lon="5.750345" lat="51.140033"><ele>24.4</ele><time>2022-04-10T09:41:25.000Z</time></trkpt><trkpt lon="5.750265" lat="51.140085"><ele>24.2</ele><time>2022-04-10T09:41:26.000Z</time></trkpt><trkpt lon="5.750186" lat="51.140136"><ele>24.4</ele><time>2022-04-10T09:41:27.000Z</time></trkpt><trkpt lon="5.750107" lat="51.14019"><ele>24.6</ele><time>2022-04-10T09:41:28.000Z</time></trkpt><trkpt lon="5.750022" lat="51.140247"><ele>24.6</ele><time>2022-04-10T09:41:29.000Z</time></trkpt><trkpt lon="5.749943" lat="51.1403"><ele>24.8</ele><time>2022-04-10T09:41:30.000Z</time></trkpt><trkpt lon="5.749863" lat="51.140354"><ele>24.8</ele><time>2022-04-10T09:41:31.000Z</time></trkpt><trkpt lon="5.749783" lat="51.140407"><ele>24.8</ele><time>2022-04-10T09:41:32.000Z</time></trkpt><trkpt lon="5.749703" lat="51.14046"><ele>24.8</ele><time>2022-04-10T09:41:33.000Z</time></trkpt><trkpt lon="5.749623" lat="51.140514"><ele>24.8</ele><time>2022-04-10T09:41:34.000Z</time></trkpt><trkpt lon="5.749543" lat="51.140567"><ele>25</ele><time>2022-04-10T09:41:35.000Z</time></trkpt><trkpt lon="5.749459" lat="51.140619"><ele>25</ele><time>2022-04-10T09:41:36.000Z</time></trkpt><trkpt lon="5.749373" lat="51.140665"><ele>25</ele><time>2022-04-10T09:41:37.000Z</time></trkpt><trkpt lon="5.749286" lat="51.140715"><ele>24.8</ele><time>2022-04-10T09:41:38.000Z</time></trkpt><trkpt lon="5.7492" lat="51.140766"><ele>24.8</ele><time>2022-04-10T09:41:39.000Z</time></trkpt><trkpt lon="5.749117" lat="51.140819"><ele>25</ele><time>2022-04-10T09:41:40.000Z</time></trkpt><trkpt lon="5.749038" lat="51.140873"><ele>25</ele><time>2022-04-10T09:41:41.000Z</time></trkpt><trkpt lon="5.748959" lat="51.140927"><ele>25</ele><time>2022-04-10T09:41:42.000Z</time></trkpt><trkpt lon="5.74888" lat="51.140983"><ele>25</ele><time>2022-04-10T09:41:43.000Z</time></trkpt><trkpt lon="5.748804" lat="51.141037"><ele>25</ele><time>2022-04-10T09:41:44.000Z</time></trkpt><trkpt lon="5.748727" lat="51.14109"><ele>24.8</ele><time>2022-04-10T09:41:45.000Z</time></trkpt><trkpt lon="5.748647" lat="51.141143"><ele>24.8</ele><time>2022-04-10T09:41:46.000Z</time></trkpt><trkpt lon="5.748571" lat="51.141195"><ele>25</ele><time>2022-04-10T09:41:47.000Z</time></trkpt><trkpt lon="5.748489" lat="51.14125"><ele>25</ele><time>2022-04-10T09:41:48.000Z</time></trkpt><trkpt lon="5.748409" lat="51.141304"><ele>24.8</ele><time>2022-04-10T09:41:49.000Z</time></trkpt><trkpt lon="5.748329" lat="51.141357"><ele>24.8</ele><time>2022-04-10T09:41:50.000Z</time></trkpt><trkpt lon="5.74825" lat="51.14141"><ele>24.8</ele><time>2022-04-10T09:41:51.000Z</time></trkpt><trkpt lon="5.748171" lat="51.141463"><ele>24.6</ele><time>2022-04-10T09:41:52.000Z</time></trkpt><trkpt lon="5.74809" lat="51.141517"><ele>24.6</ele><time>2022-04-10T09:41:53.000Z</time></trkpt><trkpt lon="5.748009" lat="51.141571"><ele>24.4</ele><time>2022-04-10T09:41:54.000Z</time></trkpt><trkpt lon="5.74793" lat="51.141624"><ele>24.2</ele><time>2022-04-10T09:41:55.000Z</time></trkpt><trkpt lon="5.747848" lat="51.141677"><ele>24.2</ele><time>2022-04-10T09:41:56.000Z</time></trkpt><trkpt lon="5.747769" lat="51.14173"><ele>24.4</ele><time>2022-04-10T09:41:57.000Z</time></trkpt><trkpt lon="5.747689" lat="51.141784"><ele>24</ele><time>2022-04-10T09:41:58.000Z</time></trkpt><trkpt lon="5.747608" lat="51.141839"><ele>23.8</ele><time>2022-04-10T09:41:59.000Z</time></trkpt><trkpt lon="5.747528" lat="51.141895"><ele>23.6</ele><time>2022-04-10T09:42:00.000Z</time></trkpt><trkpt lon="5.747445" lat="51.141947"><ele>23.6</ele><time>2022-04-10T09:42:01.000Z</time></trkpt><trkpt lon="5.747364" lat="51.141998"><ele>23.6</ele><time>2022-04-10T09:42:02.000Z</time></trkpt><trkpt lon="5.747284" lat="51.14205"><ele>23.8</ele><time>2022-04-10T09:42:03.000Z</time></trkpt><trkpt lon="5.747205" lat="51.142101"><ele>24</ele><time>2022-04-10T09:42:04.000Z</time></trkpt><trkpt lon="5.747127" lat="51.142153"><ele>24.2</ele><time>2022-04-10T09:42:05.000Z</time></trkpt><trkpt lon="5.747048" lat="51.142203"><ele>24.2</ele><time>2022-04-10T09:42:06.000Z</time></trkpt><trkpt lon="5.746969" lat="51.142257"><ele>24.2</ele><time>2022-04-10T09:42:07.000Z</time></trkpt><trkpt lon="5.746891" lat="51.14231"><ele>24.4</ele><time>2022-04-10T09:42:08.000Z</time></trkpt><trkpt lon="5.746814" lat="51.142364"><ele>24.4</ele><time>2022-04-10T09:42:09.000Z</time></trkpt><trkpt lon="5.746737" lat="51.142418"><ele>24.4</ele><time>2022-04-10T09:42:10.000Z</time></trkpt><trkpt lon="5.74666" lat="51.142474"><ele>24.4</ele><time>2022-04-10T09:42:11.000Z</time></trkpt><trkpt lon="5.746581" lat="51.142528"><ele>24.2</ele><time>2022-04-10T09:42:12.000Z</time></trkpt><trkpt lon="5.746499" lat="51.14258"><ele>24.2</ele><time>2022-04-10T09:42:13.000Z</time></trkpt><trkpt lon="5.74642" lat="51.142631"><ele>24.4</ele><time>2022-04-10T09:42:14.000Z</time></trkpt><trkpt lon="5.746342" lat="51.142684"><ele>24.6</ele><time>2022-04-10T09:42:15.000Z</time></trkpt><trkpt lon="5.746263" lat="51.142738"><ele>24.6</ele><time>2022-04-10T09:42:16.000Z</time></trkpt><trkpt lon="5.746185" lat="51.142791"><ele>24.6</ele><time>2022-04-10T09:42:17.000Z</time></trkpt><trkpt lon="5.746106" lat="51.142844"><ele>24.4</ele><time>2022-04-10T09:42:18.000Z</time></trkpt><trkpt lon="5.746026" lat="51.142894"><ele>24.4</ele><time>2022-04-10T09:42:19.000Z</time></trkpt><trkpt lon="5.745944" lat="51.142948"><ele>24.4</ele><time>2022-04-10T09:42:20.000Z</time></trkpt><trkpt lon="5.745862" lat="51.143001"><ele>24.4</ele><time>2022-04-10T09:42:21.000Z</time></trkpt><trkpt lon="5.74578" lat="51.143055"><ele>24.6</ele><time>2022-04-10T09:42:22.000Z</time></trkpt><trkpt lon="5.7457" lat="51.143108"><ele>24.8</ele><time>2022-04-10T09:42:23.000Z</time></trkpt><trkpt lon="5.74562" lat="51.143161"><ele>25</ele><time>2022-04-10T09:42:24.000Z</time></trkpt><trkpt lon="5.745537" lat="51.143214"><ele>25.2</ele><time>2022-04-10T09:42:25.000Z</time></trkpt><trkpt lon="5.745451" lat="51.143268"><ele>25</ele><time>2022-04-10T09:42:26.000Z</time></trkpt><trkpt lon="5.745367" lat="51.143322"><ele>25</ele><time>2022-04-10T09:42:27.000Z</time></trkpt><trkpt lon="5.745286" lat="51.143375"><ele>25</ele><time>2022-04-10T09:42:28.000Z</time></trkpt><trkpt lon="5.745205" lat="51.143429"><ele>25</ele><time>2022-04-10T09:42:29.000Z</time></trkpt><trkpt lon="5.745126" lat="51.143482"><ele>25</ele><time>2022-04-10T09:42:30.000Z</time></trkpt><trkpt lon="5.745046" lat="51.143534"><ele>25</ele><time>2022-04-10T09:42:31.000Z</time></trkpt><trkpt lon="5.744968" lat="51.143585"><ele>25</ele><time>2022-04-10T09:42:32.000Z</time></trkpt><trkpt lon="5.744891" lat="51.143638"><ele>25.2</ele><time>2022-04-10T09:42:33.000Z</time></trkpt><trkpt lon="5.744814" lat="51.143692"><ele>25.4</ele><time>2022-04-10T09:42:34.000Z</time></trkpt><trkpt lon="5.744739" lat="51.143744"><ele>25.6</ele><time>2022-04-10T09:42:35.000Z</time></trkpt><trkpt lon="5.744662" lat="51.143794"><ele>25.6</ele><time>2022-04-10T09:42:36.000Z</time></trkpt><trkpt lon="5.744586" lat="51.143846"><ele>25.4</ele><time>2022-04-10T09:42:37.000Z</time></trkpt><trkpt lon="5.744506" lat="51.143901"><ele>25.4</ele><time>2022-04-10T09:42:38.000Z</time></trkpt><trkpt lon="5.744425" lat="51.143955"><ele>25.4</ele><time>2022-04-10T09:42:39.000Z</time></trkpt><trkpt lon="5.744348" lat="51.144008"><ele>25.2</ele><time>2022-04-10T09:42:40.000Z</time></trkpt><trkpt lon="5.744271" lat="51.144062"><ele>25.2</ele><time>2022-04-10T09:42:41.000Z</time></trkpt><trkpt lon="5.744195" lat="51.144115"><ele>25.2</ele><time>2022-04-10T09:42:42.000Z</time></trkpt><trkpt lon="5.744121" lat="51.144167"><ele>25</ele><time>2022-04-10T09:42:43.000Z</time></trkpt><trkpt lon="5.744047" lat="51.144218"><ele>25</ele><time>2022-04-10T09:42:44.000Z</time></trkpt><trkpt lon="5.743972" lat="51.14427"><ele>25.2</ele><time>2022-04-10T09:42:45.000Z</time></trkpt><trkpt lon="5.743898" lat="51.14432"><ele>25.2</ele><time>2022-04-10T09:42:46.000Z</time></trkpt><trkpt lon="5.743823" lat="51.144368"><ele>25.2</ele><time>2022-04-10T09:42:47.000Z</time></trkpt><trkpt lon="5.743746" lat="51.144415"><ele>25.2</ele><time>2022-04-10T09:42:48.000Z</time></trkpt><trkpt lon="5.743667" lat="51.144469"><ele>25.2</ele><time>2022-04-10T09:42:49.000Z</time></trkpt><trkpt lon="5.743591" lat="51.144519"><ele>25.2</ele><time>2022-04-10T09:42:50.000Z</time></trkpt><trkpt lon="5.743514" lat="51.144568"><ele>25.4</ele><time>2022-04-10T09:42:51.000Z</time></trkpt><trkpt lon="5.743439" lat="51.144617"><ele>25.2</ele><time>2022-04-10T09:42:52.000Z</time></trkpt><trkpt lon="5.743362" lat="51.144667"><ele>25</ele><time>2022-04-10T09:42:53.000Z</time></trkpt><trkpt lon="5.743284" lat="51.144715"><ele>25</ele><time>2022-04-10T09:42:54.000Z</time></trkpt><trkpt lon="5.743209" lat="51.144762"><ele>25.2</ele><time>2022-04-10T09:42:55.000Z</time></trkpt><trkpt lon="5.743135" lat="51.144812"><ele>25.4</ele><time>2022-04-10T09:42:56.000Z</time></trkpt><trkpt lon="5.743063" lat="51.144861"><ele>25.4</ele><time>2022-04-10T09:42:57.000Z</time></trkpt><trkpt lon="5.742992" lat="51.144907"><ele>25.4</ele><time>2022-04-10T09:42:58.000Z</time></trkpt><trkpt lon="5.742921" lat="51.144954"><ele>25.6</ele><time>2022-04-10T09:42:59.000Z</time></trkpt><trkpt lon="5.742844" lat="51.144998"><ele>25.6</ele><time>2022-04-10T09:43:00.000Z</time></trkpt><trkpt lon="5.742764" lat="51.145044"><ele>25.8</ele><time>2022-04-10T09:43:01.000Z</time></trkpt><trkpt lon="5.742683" lat="51.145088"><ele>25.8</ele><time>2022-04-10T09:43:02.000Z</time></trkpt><trkpt lon="5.742606" lat="51.145132"><ele>25.8</ele><time>2022-04-10T09:43:03.000Z</time></trkpt><trkpt lon="5.742534" lat="51.145177"><ele>25.8</ele><time>2022-04-10T09:43:04.000Z</time></trkpt><trkpt lon="5.742467" lat="51.145222"><ele>25.8</ele><time>2022-04-10T09:43:05.000Z</time></trkpt><trkpt lon="5.742399" lat="51.145264"><ele>25.8</ele><time>2022-04-10T09:43:06.000Z</time></trkpt><trkpt lon="5.742334" lat="51.145306"><ele>25.8</ele><time>2022-04-10T09:43:07.000Z</time></trkpt><trkpt lon="5.742271" lat="51.145347"><ele>25.8</ele><time>2022-04-10T09:43:08.000Z</time></trkpt><trkpt lon="5.74221" lat="51.145385"><ele>25.8</ele><time>2022-04-10T09:43:09.000Z</time></trkpt><trkpt lon="5.742159" lat="51.145422"><ele>25.6</ele><time>2022-04-10T09:43:10.000Z</time></trkpt><trkpt lon="5.742115" lat="51.145456"><ele>25.6</ele><time>2022-04-10T09:43:11.000Z</time></trkpt><trkpt lon="5.742085" lat="51.145491"><ele>25.8</ele><time>2022-04-10T09:43:12.000Z</time></trkpt><trkpt lon="5.742071" lat="51.145525"><ele>25.8</ele><time>2022-04-10T09:43:13.000Z</time></trkpt><trkpt lon="5.742079" lat="51.145558"><ele>26</ele><time>2022-04-10T09:43:14.000Z</time></trkpt><trkpt lon="5.742118" lat="51.145583"><ele>26</ele><time>2022-04-10T09:43:15.000Z</time></trkpt><trkpt lon="5.742189" lat="51.145595"><ele>26.2</ele><time>2022-04-10T09:43:16.000Z</time></trkpt><trkpt lon="5.74227" lat="51.145607"><ele>26.2</ele><time>2022-04-10T09:43:17.000Z</time></trkpt><trkpt lon="5.742355" lat="51.145624"><ele>26.2</ele><time>2022-04-10T09:43:18.000Z</time></trkpt><trkpt lon="5.74244" lat="51.145643"><ele>26.2</ele><time>2022-04-10T09:43:19.000Z</time></trkpt><trkpt lon="5.742527" lat="51.145661"><ele>26.2</ele><time>2022-04-10T09:43:20.000Z</time></trkpt><trkpt lon="5.742616" lat="51.145675"><ele>26.2</ele><time>2022-04-10T09:43:21.000Z</time></trkpt><trkpt lon="5.742712" lat="51.14569"><ele>26.2</ele><time>2022-04-10T09:43:22.000Z</time></trkpt><trkpt lon="5.742803" lat="51.145702"><ele>26.2</ele><time>2022-04-10T09:43:23.000Z</time></trkpt><trkpt lon="5.742893" lat="51.145712"><ele>26.2</ele><time>2022-04-10T09:43:24.000Z</time></trkpt><trkpt lon="5.742985" lat="51.145719"><ele>26.2</ele><time>2022-04-10T09:43:25.000Z</time></trkpt><trkpt lon="5.743071" lat="51.14572"><ele>26.2</ele><time>2022-04-10T09:43:26.000Z</time></trkpt><trkpt lon="5.743151" lat="51.145716"><ele>26.2</ele><time>2022-04-10T09:43:27.000Z</time></trkpt><trkpt lon="5.743222" lat="51.14571"><ele>26.2</ele><time>2022-04-10T09:43:28.000Z</time></trkpt><trkpt lon="5.743282" lat="51.145711"><ele>26.2</ele><time>2022-04-10T09:43:29.000Z</time></trkpt><trkpt lon="5.743323" lat="51.145715"><ele>26.4</ele><time>2022-04-10T09:43:30.000Z</time></trkpt><trkpt lon="5.743344" lat="51.145719"><ele>26.4</ele><time>2022-04-10T09:43:31.000Z</time></trkpt><trkpt lon="5.743356" lat="51.145726"><ele>26.6</ele><time>2022-04-10T09:43:42.000Z</time></trkpt><trkpt lon="5.743357" lat="51.145744"><ele>26.6</ele><time>2022-04-10T09:43:43.000Z</time></trkpt><trkpt lon="5.743347" lat="51.14576"><ele>26.6</ele><time>2022-04-10T09:43:44.000Z</time></trkpt><trkpt lon="5.743331" lat="51.145774"><ele>26.6</ele><time>2022-04-10T09:43:45.000Z</time></trkpt><trkpt lon="5.743309" lat="51.145788"><ele>26.6</ele><time>2022-04-10T09:43:46.000Z</time></trkpt><trkpt lon="5.743288" lat="51.145805"><ele>26.6</ele><time>2022-04-10T09:43:47.000Z</time></trkpt><trkpt lon="5.743276" lat="51.145818"><ele>26.8</ele><time>2022-04-10T09:43:48.000Z</time></trkpt><trkpt lon="5.743267" lat="51.145845"><ele>26.8</ele><time>2022-04-10T09:43:49.000Z</time></trkpt><trkpt lon="5.743268" lat="51.145863"><ele>26.8</ele><time>2022-04-10T09:43:50.000Z</time></trkpt><trkpt lon="5.743272" lat="51.145877"><ele>26.8</ele><time>2022-04-10T09:43:51.000Z</time></trkpt><trkpt lon="5.743271" lat="51.14589"><ele>26.8</ele><time>2022-04-10T09:43:52.000Z</time></trkpt></trkseg></trk></gpx>